<?xml version="1.0" encoding="UTF-8" standalone="no" ?>
<gpx xmlns="http://www.topografix.com/GPX/1/1" xmlns:xsi="http://www.w3.org/2001/XMLSchema-instance" xsi:schemaLocation="http://www.topografix.com/GPX/1/1 http://www.topografix.com/GPX/1/1/gpx.xsd" version="1.1" creator="VisuGPX - https://www.visugpx.com">
  <metadata>
    <name>O-SO-Rouans Pré Berthelot Chauvé Pont du Clion Pornic  Les Moutiers La Fradouillère Eoliènes Noyeux La Mulonière St Pazanne St Mars Coutais Bouaye</name>
    <desc><![CDATA[O-SO-Rouans Pré Berthelot Chauvé Pont du Clion Pornic  Les Moutiers La Fradouillère Eoliènes Noyeux La Mulonière St Pazanne St Mars Coutais Bouaye]]></desc>
  </metadata>
  <trk>
    <name><![CDATA[2021-07-25 08:56 +02:00]]></name>
    <trkseg>
      <trkpt lat="47.16779" lon="-1.62663">
        <ele>82</ele>
        <time>2021-07-25T06:56:22.000Z</time>
      </trkpt>
      <trkpt lat="47.16778" lon="-1.62649">
        <ele>77</ele>
        <time>2021-07-25T06:57:50.000Z</time>
      </trkpt>
      <trkpt lat="47.16781" lon="-1.62664">
        <ele>78</ele>
        <time>2021-07-25T06:58:19.000Z</time>
      </trkpt>
      <trkpt lat="47.16777" lon="-1.62676">
        <ele>76</ele>
        <time>2021-07-25T06:58:21.000Z</time>
      </trkpt>
      <trkpt lat="47.16766" lon="-1.62679">
        <ele>75</ele>
        <time>2021-07-25T06:58:23.000Z</time>
      </trkpt>
      <trkpt lat="47.16756" lon="-1.62672">
        <ele>74</ele>
        <time>2021-07-25T06:58:25.000Z</time>
      </trkpt>
      <trkpt lat="47.16745" lon="-1.62675">
        <ele>74</ele>
        <time>2021-07-25T06:58:27.000Z</time>
      </trkpt>
      <trkpt lat="47.16735" lon="-1.62682">
        <ele>74</ele>
        <time>2021-07-25T06:58:29.000Z</time>
      </trkpt>
      <trkpt lat="47.16724" lon="-1.6269">
        <ele>73</ele>
        <time>2021-07-25T06:58:31.000Z</time>
      </trkpt>
      <trkpt lat="47.16719" lon="-1.62702">
        <ele>73</ele>
        <time>2021-07-25T06:58:33.000Z</time>
      </trkpt>
      <trkpt lat="47.16723" lon="-1.62718">
        <ele>72</ele>
        <time>2021-07-25T06:58:35.000Z</time>
      </trkpt>
      <trkpt lat="47.1673" lon="-1.62732">
        <ele>73</ele>
        <time>2021-07-25T06:58:37.000Z</time>
      </trkpt>
      <trkpt lat="47.16739" lon="-1.62745">
        <ele>73</ele>
        <time>2021-07-25T06:58:39.000Z</time>
      </trkpt>
      <trkpt lat="47.16748" lon="-1.62758">
        <ele>73</ele>
        <time>2021-07-25T06:58:41.000Z</time>
      </trkpt>
      <trkpt lat="47.16758" lon="-1.62769">
        <ele>73</ele>
        <time>2021-07-25T06:58:43.000Z</time>
      </trkpt>
      <trkpt lat="47.1677" lon="-1.62779">
        <ele>73</ele>
        <time>2021-07-25T06:58:45.000Z</time>
      </trkpt>
      <trkpt lat="47.16781" lon="-1.62789">
        <ele>73</ele>
        <time>2021-07-25T06:58:47.000Z</time>
      </trkpt>
      <trkpt lat="47.16793" lon="-1.62799">
        <ele>73</ele>
        <time>2021-07-25T06:58:49.000Z</time>
      </trkpt>
      <trkpt lat="47.16804" lon="-1.62809">
        <ele>74</ele>
        <time>2021-07-25T06:58:51.000Z</time>
      </trkpt>
      <trkpt lat="47.16815" lon="-1.62819">
        <ele>74</ele>
        <time>2021-07-25T06:58:53.000Z</time>
      </trkpt>
      <trkpt lat="47.16825" lon="-1.6283">
        <ele>74</ele>
        <time>2021-07-25T06:58:55.000Z</time>
      </trkpt>
      <trkpt lat="47.16835" lon="-1.6284">
        <ele>74</ele>
        <time>2021-07-25T06:58:57.000Z</time>
      </trkpt>
      <trkpt lat="47.16846" lon="-1.62849">
        <ele>75</ele>
        <time>2021-07-25T06:58:59.000Z</time>
      </trkpt>
      <trkpt lat="47.16856" lon="-1.6286">
        <ele>76</ele>
        <time>2021-07-25T06:59:01.000Z</time>
      </trkpt>
      <trkpt lat="47.16865" lon="-1.6287">
        <ele>76</ele>
        <time>2021-07-25T06:59:03.000Z</time>
      </trkpt>
      <trkpt lat="47.16874" lon="-1.62882">
        <ele>76</ele>
        <time>2021-07-25T06:59:05.000Z</time>
      </trkpt>
      <trkpt lat="47.16881" lon="-1.62897">
        <ele>77</ele>
        <time>2021-07-25T06:59:07.000Z</time>
      </trkpt>
      <trkpt lat="47.16886" lon="-1.62912">
        <ele>77</ele>
        <time>2021-07-25T06:59:09.000Z</time>
      </trkpt>
      <trkpt lat="47.16889" lon="-1.62929">
        <ele>77</ele>
        <time>2021-07-25T06:59:11.000Z</time>
      </trkpt>
      <trkpt lat="47.16891" lon="-1.62947">
        <ele>77</ele>
        <time>2021-07-25T06:59:13.000Z</time>
      </trkpt>
      <trkpt lat="47.16892" lon="-1.62964">
        <ele>77</ele>
        <time>2021-07-25T06:59:15.000Z</time>
      </trkpt>
      <trkpt lat="47.16891" lon="-1.62982">
        <ele>78</ele>
        <time>2021-07-25T06:59:17.000Z</time>
      </trkpt>
      <trkpt lat="47.16889" lon="-1.63">
        <ele>77</ele>
        <time>2021-07-25T06:59:19.000Z</time>
      </trkpt>
      <trkpt lat="47.16888" lon="-1.63017">
        <ele>78</ele>
        <time>2021-07-25T06:59:21.000Z</time>
      </trkpt>
      <trkpt lat="47.16887" lon="-1.63035">
        <ele>78</ele>
        <time>2021-07-25T06:59:23.000Z</time>
      </trkpt>
      <trkpt lat="47.16888" lon="-1.63054">
        <ele>78</ele>
        <time>2021-07-25T06:59:25.000Z</time>
      </trkpt>
      <trkpt lat="47.16889" lon="-1.63072">
        <ele>78</ele>
        <time>2021-07-25T06:59:27.000Z</time>
      </trkpt>
      <trkpt lat="47.16892" lon="-1.63089">
        <ele>79</ele>
        <time>2021-07-25T06:59:29.000Z</time>
      </trkpt>
      <trkpt lat="47.16895" lon="-1.63107">
        <ele>79</ele>
        <time>2021-07-25T06:59:31.000Z</time>
      </trkpt>
      <trkpt lat="47.169" lon="-1.63125">
        <ele>79</ele>
        <time>2021-07-25T06:59:33.000Z</time>
      </trkpt>
      <trkpt lat="47.16905" lon="-1.63141">
        <ele>80</ele>
        <time>2021-07-25T06:59:35.000Z</time>
      </trkpt>
      <trkpt lat="47.1691" lon="-1.63156">
        <ele>80</ele>
        <time>2021-07-25T06:59:37.000Z</time>
      </trkpt>
      <trkpt lat="47.16916" lon="-1.63171">
        <ele>80</ele>
        <time>2021-07-25T06:59:39.000Z</time>
      </trkpt>
      <trkpt lat="47.16923" lon="-1.63185">
        <ele>80</ele>
        <time>2021-07-25T06:59:41.000Z</time>
      </trkpt>
      <trkpt lat="47.16931" lon="-1.63198">
        <ele>81</ele>
        <time>2021-07-25T06:59:43.000Z</time>
      </trkpt>
      <trkpt lat="47.16939" lon="-1.6321">
        <ele>81</ele>
        <time>2021-07-25T06:59:45.000Z</time>
      </trkpt>
      <trkpt lat="47.16947" lon="-1.63222">
        <ele>81</ele>
        <time>2021-07-25T06:59:47.000Z</time>
      </trkpt>
      <trkpt lat="47.16955" lon="-1.63233">
        <ele>81</ele>
        <time>2021-07-25T06:59:49.000Z</time>
      </trkpt>
      <trkpt lat="47.16962" lon="-1.63242">
        <ele>81</ele>
        <time>2021-07-25T06:59:51.000Z</time>
      </trkpt>
      <trkpt lat="47.16966" lon="-1.63257">
        <ele>82</ele>
        <time>2021-07-25T06:59:57.000Z</time>
      </trkpt>
      <trkpt lat="47.1696" lon="-1.63269">
        <ele>82</ele>
        <time>2021-07-25T06:59:59.000Z</time>
      </trkpt>
      <trkpt lat="47.16953" lon="-1.63283">
        <ele>82</ele>
        <time>2021-07-25T07:00:01.000Z</time>
      </trkpt>
      <trkpt lat="47.16945" lon="-1.63297">
        <ele>82</ele>
        <time>2021-07-25T07:00:03.000Z</time>
      </trkpt>
      <trkpt lat="47.16936" lon="-1.63311">
        <ele>81</ele>
        <time>2021-07-25T07:00:05.000Z</time>
      </trkpt>
      <trkpt lat="47.16927" lon="-1.63325">
        <ele>81</ele>
        <time>2021-07-25T07:00:07.000Z</time>
      </trkpt>
      <trkpt lat="47.16918" lon="-1.63339">
        <ele>81</ele>
        <time>2021-07-25T07:00:09.000Z</time>
      </trkpt>
      <trkpt lat="47.16909" lon="-1.63352">
        <ele>81</ele>
        <time>2021-07-25T07:00:11.000Z</time>
      </trkpt>
      <trkpt lat="47.169" lon="-1.63365">
        <ele>81</ele>
        <time>2021-07-25T07:00:13.000Z</time>
      </trkpt>
      <trkpt lat="47.16891" lon="-1.63379">
        <ele>80</ele>
        <time>2021-07-25T07:00:15.000Z</time>
      </trkpt>
      <trkpt lat="47.16883" lon="-1.63393">
        <ele>80</ele>
        <time>2021-07-25T07:00:17.000Z</time>
      </trkpt>
      <trkpt lat="47.16874" lon="-1.63408">
        <ele>80</ele>
        <time>2021-07-25T07:00:19.000Z</time>
      </trkpt>
      <trkpt lat="47.16865" lon="-1.63422">
        <ele>80</ele>
        <time>2021-07-25T07:00:21.000Z</time>
      </trkpt>
      <trkpt lat="47.16857" lon="-1.63436">
        <ele>80</ele>
        <time>2021-07-25T07:00:23.000Z</time>
      </trkpt>
      <trkpt lat="47.16849" lon="-1.63451">
        <ele>81</ele>
        <time>2021-07-25T07:00:25.000Z</time>
      </trkpt>
      <trkpt lat="47.16841" lon="-1.63464">
        <ele>81</ele>
        <time>2021-07-25T07:00:27.000Z</time>
      </trkpt>
      <trkpt lat="47.16832" lon="-1.63479">
        <ele>81</ele>
        <time>2021-07-25T07:00:29.000Z</time>
      </trkpt>
      <trkpt lat="47.16824" lon="-1.63493">
        <ele>80</ele>
        <time>2021-07-25T07:00:31.000Z</time>
      </trkpt>
      <trkpt lat="47.16815" lon="-1.63507">
        <ele>80</ele>
        <time>2021-07-25T07:00:33.000Z</time>
      </trkpt>
      <trkpt lat="47.16807" lon="-1.63521">
        <ele>80</ele>
        <time>2021-07-25T07:00:35.000Z</time>
      </trkpt>
      <trkpt lat="47.16798" lon="-1.63536">
        <ele>80</ele>
        <time>2021-07-25T07:00:37.000Z</time>
      </trkpt>
      <trkpt lat="47.16789" lon="-1.6355">
        <ele>80</ele>
        <time>2021-07-25T07:00:39.000Z</time>
      </trkpt>
      <trkpt lat="47.16782" lon="-1.63564">
        <ele>79</ele>
        <time>2021-07-25T07:00:41.000Z</time>
      </trkpt>
      <trkpt lat="47.16773" lon="-1.63579">
        <ele>79</ele>
        <time>2021-07-25T07:00:43.000Z</time>
      </trkpt>
      <trkpt lat="47.16765" lon="-1.63593">
        <ele>79</ele>
        <time>2021-07-25T07:00:45.000Z</time>
      </trkpt>
      <trkpt lat="47.16757" lon="-1.63607">
        <ele>79</ele>
        <time>2021-07-25T07:00:47.000Z</time>
      </trkpt>
      <trkpt lat="47.16749" lon="-1.6362">
        <ele>79</ele>
        <time>2021-07-25T07:00:49.000Z</time>
      </trkpt>
      <trkpt lat="47.16744" lon="-1.63636">
        <ele>79</ele>
        <time>2021-07-25T07:00:51.000Z</time>
      </trkpt>
      <trkpt lat="47.16751" lon="-1.63649">
        <ele>80</ele>
        <time>2021-07-25T07:00:53.000Z</time>
      </trkpt>
      <trkpt lat="47.16764" lon="-1.63651">
        <ele>80</ele>
        <time>2021-07-25T07:00:55.000Z</time>
      </trkpt>
      <trkpt lat="47.16777" lon="-1.63656">
        <ele>81</ele>
        <time>2021-07-25T07:00:57.000Z</time>
      </trkpt>
      <trkpt lat="47.1679" lon="-1.6366">
        <ele>81</ele>
        <time>2021-07-25T07:00:59.000Z</time>
      </trkpt>
      <trkpt lat="47.16802" lon="-1.63664">
        <ele>81</ele>
        <time>2021-07-25T07:01:01.000Z</time>
      </trkpt>
      <trkpt lat="47.16815" lon="-1.63669">
        <ele>81</ele>
        <time>2021-07-25T07:01:03.000Z</time>
      </trkpt>
      <trkpt lat="47.16828" lon="-1.63673">
        <ele>81</ele>
        <time>2021-07-25T07:01:05.000Z</time>
      </trkpt>
      <trkpt lat="47.16841" lon="-1.63678">
        <ele>81</ele>
        <time>2021-07-25T07:01:07.000Z</time>
      </trkpt>
      <trkpt lat="47.16854" lon="-1.63683">
        <ele>82</ele>
        <time>2021-07-25T07:01:09.000Z</time>
      </trkpt>
      <trkpt lat="47.16866" lon="-1.63688">
        <ele>81</ele>
        <time>2021-07-25T07:01:11.000Z</time>
      </trkpt>
      <trkpt lat="47.1688" lon="-1.63693">
        <ele>81</ele>
        <time>2021-07-25T07:01:13.000Z</time>
      </trkpt>
      <trkpt lat="47.16893" lon="-1.63698">
        <ele>81</ele>
        <time>2021-07-25T07:01:15.000Z</time>
      </trkpt>
      <trkpt lat="47.16906" lon="-1.63702">
        <ele>81</ele>
        <time>2021-07-25T07:01:17.000Z</time>
      </trkpt>
      <trkpt lat="47.16919" lon="-1.63707">
        <ele>82</ele>
        <time>2021-07-25T07:01:19.000Z</time>
      </trkpt>
      <trkpt lat="47.16932" lon="-1.63712">
        <ele>82</ele>
        <time>2021-07-25T07:01:21.000Z</time>
      </trkpt>
      <trkpt lat="47.16945" lon="-1.63717">
        <ele>82</ele>
        <time>2021-07-25T07:01:23.000Z</time>
      </trkpt>
      <trkpt lat="47.16958" lon="-1.63722">
        <ele>82</ele>
        <time>2021-07-25T07:01:25.000Z</time>
      </trkpt>
      <trkpt lat="47.16971" lon="-1.63727">
        <ele>82</ele>
        <time>2021-07-25T07:01:27.000Z</time>
      </trkpt>
      <trkpt lat="47.16984" lon="-1.63732">
        <ele>82</ele>
        <time>2021-07-25T07:01:29.000Z</time>
      </trkpt>
      <trkpt lat="47.16997" lon="-1.63736">
        <ele>82</ele>
        <time>2021-07-25T07:01:31.000Z</time>
      </trkpt>
      <trkpt lat="47.17009" lon="-1.63742">
        <ele>82</ele>
        <time>2021-07-25T07:01:33.000Z</time>
      </trkpt>
      <trkpt lat="47.17022" lon="-1.63746">
        <ele>82</ele>
        <time>2021-07-25T07:01:35.000Z</time>
      </trkpt>
      <trkpt lat="47.17035" lon="-1.63752">
        <ele>83</ele>
        <time>2021-07-25T07:01:37.000Z</time>
      </trkpt>
      <trkpt lat="47.17047" lon="-1.63759">
        <ele>83</ele>
        <time>2021-07-25T07:01:39.000Z</time>
      </trkpt>
      <trkpt lat="47.17058" lon="-1.6377">
        <ele>83</ele>
        <time>2021-07-25T07:01:41.000Z</time>
      </trkpt>
      <trkpt lat="47.17066" lon="-1.63785">
        <ele>83</ele>
        <time>2021-07-25T07:01:43.000Z</time>
      </trkpt>
      <trkpt lat="47.17072" lon="-1.63802">
        <ele>83</ele>
        <time>2021-07-25T07:01:45.000Z</time>
      </trkpt>
      <trkpt lat="47.17078" lon="-1.63819">
        <ele>83</ele>
        <time>2021-07-25T07:01:47.000Z</time>
      </trkpt>
      <trkpt lat="47.17084" lon="-1.63836">
        <ele>82</ele>
        <time>2021-07-25T07:01:49.000Z</time>
      </trkpt>
      <trkpt lat="47.1709" lon="-1.63853">
        <ele>82</ele>
        <time>2021-07-25T07:01:51.000Z</time>
      </trkpt>
      <trkpt lat="47.17096" lon="-1.6387">
        <ele>82</ele>
        <time>2021-07-25T07:01:53.000Z</time>
      </trkpt>
      <trkpt lat="47.17102" lon="-1.63886">
        <ele>82</ele>
        <time>2021-07-25T07:01:55.000Z</time>
      </trkpt>
      <trkpt lat="47.17108" lon="-1.63903">
        <ele>82</ele>
        <time>2021-07-25T07:01:57.000Z</time>
      </trkpt>
      <trkpt lat="47.17114" lon="-1.63918">
        <ele>82</ele>
        <time>2021-07-25T07:01:59.000Z</time>
      </trkpt>
      <trkpt lat="47.1712" lon="-1.63931">
        <ele>82</ele>
        <time>2021-07-25T07:02:01.000Z</time>
      </trkpt>
      <trkpt lat="47.17128" lon="-1.6394">
        <ele>82</ele>
        <time>2021-07-25T07:02:03.000Z</time>
      </trkpt>
      <trkpt lat="47.17136" lon="-1.63949">
        <ele>82</ele>
        <time>2021-07-25T07:02:06.000Z</time>
      </trkpt>
      <trkpt lat="47.17139" lon="-1.63965">
        <ele>82</ele>
        <time>2021-07-25T07:02:08.000Z</time>
      </trkpt>
      <trkpt lat="47.17139" lon="-1.63983">
        <ele>81</ele>
        <time>2021-07-25T07:02:10.000Z</time>
      </trkpt>
      <trkpt lat="47.17138" lon="-1.64001">
        <ele>82</ele>
        <time>2021-07-25T07:02:12.000Z</time>
      </trkpt>
      <trkpt lat="47.17136" lon="-1.64021">
        <ele>81</ele>
        <time>2021-07-25T07:02:14.000Z</time>
      </trkpt>
      <trkpt lat="47.17134" lon="-1.6404">
        <ele>81</ele>
        <time>2021-07-25T07:02:16.000Z</time>
      </trkpt>
      <trkpt lat="47.17131" lon="-1.64059">
        <ele>82</ele>
        <time>2021-07-25T07:02:18.000Z</time>
      </trkpt>
      <trkpt lat="47.17129" lon="-1.64078">
        <ele>81</ele>
        <time>2021-07-25T07:02:20.000Z</time>
      </trkpt>
      <trkpt lat="47.17127" lon="-1.64098">
        <ele>82</ele>
        <time>2021-07-25T07:02:22.000Z</time>
      </trkpt>
      <trkpt lat="47.17125" lon="-1.64117">
        <ele>82</ele>
        <time>2021-07-25T07:02:24.000Z</time>
      </trkpt>
      <trkpt lat="47.17123" lon="-1.64136">
        <ele>82</ele>
        <time>2021-07-25T07:02:26.000Z</time>
      </trkpt>
      <trkpt lat="47.17121" lon="-1.64155">
        <ele>83</ele>
        <time>2021-07-25T07:02:28.000Z</time>
      </trkpt>
      <trkpt lat="47.17119" lon="-1.64174">
        <ele>83</ele>
        <time>2021-07-25T07:02:30.000Z</time>
      </trkpt>
      <trkpt lat="47.17117" lon="-1.64194">
        <ele>82</ele>
        <time>2021-07-25T07:02:32.000Z</time>
      </trkpt>
      <trkpt lat="47.17115" lon="-1.64213">
        <ele>82</ele>
        <time>2021-07-25T07:02:34.000Z</time>
      </trkpt>
      <trkpt lat="47.17113" lon="-1.64232">
        <ele>82</ele>
        <time>2021-07-25T07:02:36.000Z</time>
      </trkpt>
      <trkpt lat="47.17111" lon="-1.64252">
        <ele>82</ele>
        <time>2021-07-25T07:02:38.000Z</time>
      </trkpt>
      <trkpt lat="47.17109" lon="-1.64271">
        <ele>83</ele>
        <time>2021-07-25T07:02:40.000Z</time>
      </trkpt>
      <trkpt lat="47.17107" lon="-1.6429">
        <ele>83</ele>
        <time>2021-07-25T07:02:42.000Z</time>
      </trkpt>
      <trkpt lat="47.17104" lon="-1.64309">
        <ele>83</ele>
        <time>2021-07-25T07:02:44.000Z</time>
      </trkpt>
      <trkpt lat="47.17102" lon="-1.64328">
        <ele>83</ele>
        <time>2021-07-25T07:02:46.000Z</time>
      </trkpt>
      <trkpt lat="47.171" lon="-1.64348">
        <ele>83</ele>
        <time>2021-07-25T07:02:48.000Z</time>
      </trkpt>
      <trkpt lat="47.17099" lon="-1.64368">
        <ele>83</ele>
        <time>2021-07-25T07:02:50.000Z</time>
      </trkpt>
      <trkpt lat="47.17097" lon="-1.64387">
        <ele>82</ele>
        <time>2021-07-25T07:02:52.000Z</time>
      </trkpt>
      <trkpt lat="47.17095" lon="-1.64407">
        <ele>82</ele>
        <time>2021-07-25T07:02:54.000Z</time>
      </trkpt>
      <trkpt lat="47.17094" lon="-1.64426">
        <ele>82</ele>
        <time>2021-07-25T07:02:56.000Z</time>
      </trkpt>
      <trkpt lat="47.17093" lon="-1.64446">
        <ele>82</ele>
        <time>2021-07-25T07:02:58.000Z</time>
      </trkpt>
      <trkpt lat="47.17092" lon="-1.64465">
        <ele>82</ele>
        <time>2021-07-25T07:03:00.000Z</time>
      </trkpt>
      <trkpt lat="47.1709" lon="-1.64495">
        <ele>82</ele>
        <time>2021-07-25T07:03:03.000Z</time>
      </trkpt>
      <trkpt lat="47.17089" lon="-1.64514">
        <ele>82</ele>
        <time>2021-07-25T07:03:05.000Z</time>
      </trkpt>
      <trkpt lat="47.17089" lon="-1.64535">
        <ele>81</ele>
        <time>2021-07-25T07:03:07.000Z</time>
      </trkpt>
      <trkpt lat="47.17088" lon="-1.64565">
        <ele>80</ele>
        <time>2021-07-25T07:03:10.000Z</time>
      </trkpt>
      <trkpt lat="47.17088" lon="-1.64585">
        <ele>80</ele>
        <time>2021-07-25T07:03:12.000Z</time>
      </trkpt>
      <trkpt lat="47.17087" lon="-1.64605">
        <ele>80</ele>
        <time>2021-07-25T07:03:14.000Z</time>
      </trkpt>
      <trkpt lat="47.17087" lon="-1.64635">
        <ele>81</ele>
        <time>2021-07-25T07:03:17.000Z</time>
      </trkpt>
      <trkpt lat="47.17088" lon="-1.64654">
        <ele>81</ele>
        <time>2021-07-25T07:03:19.000Z</time>
      </trkpt>
      <trkpt lat="47.17089" lon="-1.64684">
        <ele>81</ele>
        <time>2021-07-25T07:03:22.000Z</time>
      </trkpt>
      <trkpt lat="47.17089" lon="-1.64703">
        <ele>81</ele>
        <time>2021-07-25T07:03:24.000Z</time>
      </trkpt>
      <trkpt lat="47.1709" lon="-1.64722">
        <ele>81</ele>
        <time>2021-07-25T07:03:26.000Z</time>
      </trkpt>
      <trkpt lat="47.1709" lon="-1.64741">
        <ele>81</ele>
        <time>2021-07-25T07:03:28.000Z</time>
      </trkpt>
      <trkpt lat="47.17091" lon="-1.64761">
        <ele>81</ele>
        <time>2021-07-25T07:03:30.000Z</time>
      </trkpt>
      <trkpt lat="47.17093" lon="-1.64781">
        <ele>81</ele>
        <time>2021-07-25T07:03:32.000Z</time>
      </trkpt>
      <trkpt lat="47.17094" lon="-1.648">
        <ele>81</ele>
        <time>2021-07-25T07:03:34.000Z</time>
      </trkpt>
      <trkpt lat="47.17095" lon="-1.64819">
        <ele>82</ele>
        <time>2021-07-25T07:03:36.000Z</time>
      </trkpt>
      <trkpt lat="47.17097" lon="-1.6484">
        <ele>82</ele>
        <time>2021-07-25T07:03:38.000Z</time>
      </trkpt>
      <trkpt lat="47.17098" lon="-1.6486">
        <ele>81</ele>
        <time>2021-07-25T07:03:40.000Z</time>
      </trkpt>
      <trkpt lat="47.17099" lon="-1.6488">
        <ele>81</ele>
        <time>2021-07-25T07:03:42.000Z</time>
      </trkpt>
      <trkpt lat="47.17101" lon="-1.64899">
        <ele>80</ele>
        <time>2021-07-25T07:03:44.000Z</time>
      </trkpt>
      <trkpt lat="47.17102" lon="-1.64919">
        <ele>80</ele>
        <time>2021-07-25T07:03:46.000Z</time>
      </trkpt>
      <trkpt lat="47.17104" lon="-1.64937">
        <ele>81</ele>
        <time>2021-07-25T07:03:48.000Z</time>
      </trkpt>
      <trkpt lat="47.17105" lon="-1.64956">
        <ele>81</ele>
        <time>2021-07-25T07:03:50.000Z</time>
      </trkpt>
      <trkpt lat="47.17107" lon="-1.64976">
        <ele>80</ele>
        <time>2021-07-25T07:03:52.000Z</time>
      </trkpt>
      <trkpt lat="47.17108" lon="-1.64995">
        <ele>81</ele>
        <time>2021-07-25T07:03:54.000Z</time>
      </trkpt>
      <trkpt lat="47.17109" lon="-1.65014">
        <ele>81</ele>
        <time>2021-07-25T07:03:56.000Z</time>
      </trkpt>
      <trkpt lat="47.17111" lon="-1.65032">
        <ele>81</ele>
        <time>2021-07-25T07:03:58.000Z</time>
      </trkpt>
      <trkpt lat="47.17112" lon="-1.65051">
        <ele>81</ele>
        <time>2021-07-25T07:04:00.000Z</time>
      </trkpt>
      <trkpt lat="47.17114" lon="-1.65069">
        <ele>81</ele>
        <time>2021-07-25T07:04:02.000Z</time>
      </trkpt>
      <trkpt lat="47.17115" lon="-1.65088">
        <ele>81</ele>
        <time>2021-07-25T07:04:04.000Z</time>
      </trkpt>
      <trkpt lat="47.17116" lon="-1.65106">
        <ele>81</ele>
        <time>2021-07-25T07:04:06.000Z</time>
      </trkpt>
      <trkpt lat="47.17117" lon="-1.65125">
        <ele>81</ele>
        <time>2021-07-25T07:04:08.000Z</time>
      </trkpt>
      <trkpt lat="47.17118" lon="-1.65143">
        <ele>81</ele>
        <time>2021-07-25T07:04:10.000Z</time>
      </trkpt>
      <trkpt lat="47.1712" lon="-1.65161">
        <ele>81</ele>
        <time>2021-07-25T07:04:12.000Z</time>
      </trkpt>
      <trkpt lat="47.17121" lon="-1.6518">
        <ele>81</ele>
        <time>2021-07-25T07:04:14.000Z</time>
      </trkpt>
      <trkpt lat="47.17123" lon="-1.65198">
        <ele>81</ele>
        <time>2021-07-25T07:04:16.000Z</time>
      </trkpt>
      <trkpt lat="47.17124" lon="-1.65215">
        <ele>82</ele>
        <time>2021-07-25T07:04:18.000Z</time>
      </trkpt>
      <trkpt lat="47.17125" lon="-1.65232">
        <ele>82</ele>
        <time>2021-07-25T07:04:20.000Z</time>
      </trkpt>
      <trkpt lat="47.17127" lon="-1.65248">
        <ele>82</ele>
        <time>2021-07-25T07:04:22.000Z</time>
      </trkpt>
      <trkpt lat="47.17129" lon="-1.65265">
        <ele>83</ele>
        <time>2021-07-25T07:04:24.000Z</time>
      </trkpt>
      <trkpt lat="47.17134" lon="-1.65282">
        <ele>83</ele>
        <time>2021-07-25T07:04:26.000Z</time>
      </trkpt>
      <trkpt lat="47.17138" lon="-1.65299">
        <ele>83</ele>
        <time>2021-07-25T07:04:28.000Z</time>
      </trkpt>
      <trkpt lat="47.17138" lon="-1.65316">
        <ele>83</ele>
        <time>2021-07-25T07:04:30.000Z</time>
      </trkpt>
      <trkpt lat="47.17132" lon="-1.6533">
        <ele>83</ele>
        <time>2021-07-25T07:04:32.000Z</time>
      </trkpt>
      <trkpt lat="47.17124" lon="-1.65344">
        <ele>83</ele>
        <time>2021-07-25T07:04:34.000Z</time>
      </trkpt>
      <trkpt lat="47.17119" lon="-1.65361">
        <ele>83</ele>
        <time>2021-07-25T07:04:36.000Z</time>
      </trkpt>
      <trkpt lat="47.17119" lon="-1.65378">
        <ele>83</ele>
        <time>2021-07-25T07:04:38.000Z</time>
      </trkpt>
      <trkpt lat="47.1712" lon="-1.65394">
        <ele>83</ele>
        <time>2021-07-25T07:04:40.000Z</time>
      </trkpt>
      <trkpt lat="47.1712" lon="-1.65409">
        <ele>83</ele>
        <time>2021-07-25T07:04:42.000Z</time>
      </trkpt>
      <trkpt lat="47.1712" lon="-1.65424">
        <ele>84</ele>
        <time>2021-07-25T07:04:44.000Z</time>
      </trkpt>
      <trkpt lat="47.1712" lon="-1.6544">
        <ele>85</ele>
        <time>2021-07-25T07:04:46.000Z</time>
      </trkpt>
      <trkpt lat="47.1712" lon="-1.65456">
        <ele>85</ele>
        <time>2021-07-25T07:04:48.000Z</time>
      </trkpt>
      <trkpt lat="47.17118" lon="-1.6547">
        <ele>86</ele>
        <time>2021-07-25T07:04:50.000Z</time>
      </trkpt>
      <trkpt lat="47.17116" lon="-1.65485">
        <ele>86</ele>
        <time>2021-07-25T07:04:52.000Z</time>
      </trkpt>
      <trkpt lat="47.17113" lon="-1.655">
        <ele>86</ele>
        <time>2021-07-25T07:04:54.000Z</time>
      </trkpt>
      <trkpt lat="47.17109" lon="-1.65515">
        <ele>87</ele>
        <time>2021-07-25T07:04:56.000Z</time>
      </trkpt>
      <trkpt lat="47.17103" lon="-1.65529">
        <ele>87</ele>
        <time>2021-07-25T07:04:58.000Z</time>
      </trkpt>
      <trkpt lat="47.17098" lon="-1.65543">
        <ele>87</ele>
        <time>2021-07-25T07:05:00.000Z</time>
      </trkpt>
      <trkpt lat="47.17091" lon="-1.65556">
        <ele>87</ele>
        <time>2021-07-25T07:05:02.000Z</time>
      </trkpt>
      <trkpt lat="47.17084" lon="-1.65569">
        <ele>87</ele>
        <time>2021-07-25T07:05:04.000Z</time>
      </trkpt>
      <trkpt lat="47.17077" lon="-1.65581">
        <ele>87</ele>
        <time>2021-07-25T07:05:06.000Z</time>
      </trkpt>
      <trkpt lat="47.1707" lon="-1.65593">
        <ele>88</ele>
        <time>2021-07-25T07:05:08.000Z</time>
      </trkpt>
      <trkpt lat="47.17063" lon="-1.65606">
        <ele>88</ele>
        <time>2021-07-25T07:05:10.000Z</time>
      </trkpt>
      <trkpt lat="47.17055" lon="-1.65619">
        <ele>88</ele>
        <time>2021-07-25T07:05:12.000Z</time>
      </trkpt>
      <trkpt lat="47.17048" lon="-1.65633">
        <ele>87</ele>
        <time>2021-07-25T07:05:14.000Z</time>
      </trkpt>
      <trkpt lat="47.1704" lon="-1.65646">
        <ele>87</ele>
        <time>2021-07-25T07:05:16.000Z</time>
      </trkpt>
      <trkpt lat="47.17032" lon="-1.65662">
        <ele>86</ele>
        <time>2021-07-25T07:05:18.000Z</time>
      </trkpt>
      <trkpt lat="47.17023" lon="-1.65678">
        <ele>86</ele>
        <time>2021-07-25T07:05:20.000Z</time>
      </trkpt>
      <trkpt lat="47.17016" lon="-1.65695">
        <ele>85</ele>
        <time>2021-07-25T07:05:22.000Z</time>
      </trkpt>
      <trkpt lat="47.17009" lon="-1.65713">
        <ele>86</ele>
        <time>2021-07-25T07:05:24.000Z</time>
      </trkpt>
      <trkpt lat="47.17004" lon="-1.65732">
        <ele>86</ele>
        <time>2021-07-25T07:05:26.000Z</time>
      </trkpt>
      <trkpt lat="47.17001" lon="-1.6575">
        <ele>86</ele>
        <time>2021-07-25T07:05:28.000Z</time>
      </trkpt>
      <trkpt lat="47.16992" lon="-1.65765">
        <ele>86</ele>
        <time>2021-07-25T07:05:30.000Z</time>
      </trkpt>
      <trkpt lat="47.1698" lon="-1.65774">
        <ele>85</ele>
        <time>2021-07-25T07:05:32.000Z</time>
      </trkpt>
      <trkpt lat="47.16968" lon="-1.65782">
        <ele>85</ele>
        <time>2021-07-25T07:05:34.000Z</time>
      </trkpt>
      <trkpt lat="47.16958" lon="-1.65796">
        <ele>84</ele>
        <time>2021-07-25T07:05:36.000Z</time>
      </trkpt>
      <trkpt lat="47.1695" lon="-1.65813">
        <ele>84</ele>
        <time>2021-07-25T07:05:38.000Z</time>
      </trkpt>
      <trkpt lat="47.16942" lon="-1.6583">
        <ele>84</ele>
        <time>2021-07-25T07:05:40.000Z</time>
      </trkpt>
      <trkpt lat="47.16933" lon="-1.65846">
        <ele>84</ele>
        <time>2021-07-25T07:05:42.000Z</time>
      </trkpt>
      <trkpt lat="47.16925" lon="-1.65863">
        <ele>84</ele>
        <time>2021-07-25T07:05:44.000Z</time>
      </trkpt>
      <trkpt lat="47.16917" lon="-1.6588">
        <ele>83</ele>
        <time>2021-07-25T07:05:46.000Z</time>
      </trkpt>
      <trkpt lat="47.16908" lon="-1.65896">
        <ele>83</ele>
        <time>2021-07-25T07:05:48.000Z</time>
      </trkpt>
      <trkpt lat="47.169" lon="-1.65913">
        <ele>83</ele>
        <time>2021-07-25T07:05:50.000Z</time>
      </trkpt>
      <trkpt lat="47.16892" lon="-1.6593">
        <ele>83</ele>
        <time>2021-07-25T07:05:52.000Z</time>
      </trkpt>
      <trkpt lat="47.16884" lon="-1.65947">
        <ele>82</ele>
        <time>2021-07-25T07:05:54.000Z</time>
      </trkpt>
      <trkpt lat="47.16877" lon="-1.65964">
        <ele>82</ele>
        <time>2021-07-25T07:05:56.000Z</time>
      </trkpt>
      <trkpt lat="47.1687" lon="-1.65983">
        <ele>82</ele>
        <time>2021-07-25T07:05:58.000Z</time>
      </trkpt>
      <trkpt lat="47.16864" lon="-1.66001">
        <ele>82</ele>
        <time>2021-07-25T07:06:00.000Z</time>
      </trkpt>
      <trkpt lat="47.1686" lon="-1.6602">
        <ele>82</ele>
        <time>2021-07-25T07:06:02.000Z</time>
      </trkpt>
      <trkpt lat="47.16856" lon="-1.66039">
        <ele>81</ele>
        <time>2021-07-25T07:06:04.000Z</time>
      </trkpt>
      <trkpt lat="47.16853" lon="-1.66058">
        <ele>81</ele>
        <time>2021-07-25T07:06:06.000Z</time>
      </trkpt>
      <trkpt lat="47.1685" lon="-1.66077">
        <ele>81</ele>
        <time>2021-07-25T07:06:08.000Z</time>
      </trkpt>
      <trkpt lat="47.16847" lon="-1.66097">
        <ele>81</ele>
        <time>2021-07-25T07:06:10.000Z</time>
      </trkpt>
      <trkpt lat="47.16846" lon="-1.66117">
        <ele>81</ele>
        <time>2021-07-25T07:06:12.000Z</time>
      </trkpt>
      <trkpt lat="47.16845" lon="-1.66137">
        <ele>80</ele>
        <time>2021-07-25T07:06:14.000Z</time>
      </trkpt>
      <trkpt lat="47.16846" lon="-1.66158">
        <ele>80</ele>
        <time>2021-07-25T07:06:16.000Z</time>
      </trkpt>
      <trkpt lat="47.16847" lon="-1.66179">
        <ele>81</ele>
        <time>2021-07-25T07:06:18.000Z</time>
      </trkpt>
      <trkpt lat="47.16848" lon="-1.66199">
        <ele>81</ele>
        <time>2021-07-25T07:06:20.000Z</time>
      </trkpt>
      <trkpt lat="47.16849" lon="-1.66219">
        <ele>80</ele>
        <time>2021-07-25T07:06:22.000Z</time>
      </trkpt>
      <trkpt lat="47.16851" lon="-1.66238">
        <ele>80</ele>
        <time>2021-07-25T07:06:24.000Z</time>
      </trkpt>
      <trkpt lat="47.16852" lon="-1.66258">
        <ele>81</ele>
        <time>2021-07-25T07:06:26.000Z</time>
      </trkpt>
      <trkpt lat="47.16854" lon="-1.66278">
        <ele>81</ele>
        <time>2021-07-25T07:06:28.000Z</time>
      </trkpt>
      <trkpt lat="47.16855" lon="-1.66298">
        <ele>80</ele>
        <time>2021-07-25T07:06:30.000Z</time>
      </trkpt>
      <trkpt lat="47.16856" lon="-1.66317">
        <ele>80</ele>
        <time>2021-07-25T07:06:32.000Z</time>
      </trkpt>
      <trkpt lat="47.16858" lon="-1.66336">
        <ele>80</ele>
        <time>2021-07-25T07:06:34.000Z</time>
      </trkpt>
      <trkpt lat="47.16859" lon="-1.66355">
        <ele>81</ele>
        <time>2021-07-25T07:06:36.000Z</time>
      </trkpt>
      <trkpt lat="47.16862" lon="-1.66375">
        <ele>81</ele>
        <time>2021-07-25T07:06:38.000Z</time>
      </trkpt>
      <trkpt lat="47.16864" lon="-1.66395">
        <ele>82</ele>
        <time>2021-07-25T07:06:40.000Z</time>
      </trkpt>
      <trkpt lat="47.16866" lon="-1.66414">
        <ele>82</ele>
        <time>2021-07-25T07:06:42.000Z</time>
      </trkpt>
      <trkpt lat="47.16869" lon="-1.66433">
        <ele>81</ele>
        <time>2021-07-25T07:06:44.000Z</time>
      </trkpt>
      <trkpt lat="47.16871" lon="-1.66453">
        <ele>82</ele>
        <time>2021-07-25T07:06:46.000Z</time>
      </trkpt>
      <trkpt lat="47.16873" lon="-1.66473">
        <ele>82</ele>
        <time>2021-07-25T07:06:48.000Z</time>
      </trkpt>
      <trkpt lat="47.16875" lon="-1.66491">
        <ele>82</ele>
        <time>2021-07-25T07:06:50.000Z</time>
      </trkpt>
      <trkpt lat="47.16877" lon="-1.66509">
        <ele>83</ele>
        <time>2021-07-25T07:06:52.000Z</time>
      </trkpt>
      <trkpt lat="47.1688" lon="-1.66529">
        <ele>83</ele>
        <time>2021-07-25T07:06:54.000Z</time>
      </trkpt>
      <trkpt lat="47.16882" lon="-1.66548">
        <ele>83</ele>
        <time>2021-07-25T07:06:56.000Z</time>
      </trkpt>
      <trkpt lat="47.16884" lon="-1.66567">
        <ele>84</ele>
        <time>2021-07-25T07:06:58.000Z</time>
      </trkpt>
      <trkpt lat="47.16886" lon="-1.66586">
        <ele>84</ele>
        <time>2021-07-25T07:07:00.000Z</time>
      </trkpt>
      <trkpt lat="47.16888" lon="-1.66604">
        <ele>84</ele>
        <time>2021-07-25T07:07:02.000Z</time>
      </trkpt>
      <trkpt lat="47.1689" lon="-1.66622">
        <ele>84</ele>
        <time>2021-07-25T07:07:04.000Z</time>
      </trkpt>
      <trkpt lat="47.16891" lon="-1.66641">
        <ele>85</ele>
        <time>2021-07-25T07:07:06.000Z</time>
      </trkpt>
      <trkpt lat="47.16892" lon="-1.6666">
        <ele>85</ele>
        <time>2021-07-25T07:07:08.000Z</time>
      </trkpt>
      <trkpt lat="47.16892" lon="-1.66679">
        <ele>85</ele>
        <time>2021-07-25T07:07:10.000Z</time>
      </trkpt>
      <trkpt lat="47.16889" lon="-1.66698">
        <ele>85</ele>
        <time>2021-07-25T07:07:12.000Z</time>
      </trkpt>
      <trkpt lat="47.16884" lon="-1.66716">
        <ele>84</ele>
        <time>2021-07-25T07:07:14.000Z</time>
      </trkpt>
      <trkpt lat="47.16878" lon="-1.66733">
        <ele>83</ele>
        <time>2021-07-25T07:07:16.000Z</time>
      </trkpt>
      <trkpt lat="47.16871" lon="-1.6675">
        <ele>83</ele>
        <time>2021-07-25T07:07:18.000Z</time>
      </trkpt>
      <trkpt lat="47.16863" lon="-1.66767">
        <ele>83</ele>
        <time>2021-07-25T07:07:20.000Z</time>
      </trkpt>
      <trkpt lat="47.16855" lon="-1.66783">
        <ele>82</ele>
        <time>2021-07-25T07:07:22.000Z</time>
      </trkpt>
      <trkpt lat="47.16847" lon="-1.66799">
        <ele>82</ele>
        <time>2021-07-25T07:07:24.000Z</time>
      </trkpt>
      <trkpt lat="47.16839" lon="-1.66815">
        <ele>82</ele>
        <time>2021-07-25T07:07:26.000Z</time>
      </trkpt>
      <trkpt lat="47.16831" lon="-1.66831">
        <ele>82</ele>
        <time>2021-07-25T07:07:28.000Z</time>
      </trkpt>
      <trkpt lat="47.16822" lon="-1.66846">
        <ele>82</ele>
        <time>2021-07-25T07:07:30.000Z</time>
      </trkpt>
      <trkpt lat="47.16814" lon="-1.66862">
        <ele>82</ele>
        <time>2021-07-25T07:07:32.000Z</time>
      </trkpt>
      <trkpt lat="47.16805" lon="-1.66877">
        <ele>82</ele>
        <time>2021-07-25T07:07:34.000Z</time>
      </trkpt>
      <trkpt lat="47.16795" lon="-1.6689">
        <ele>82</ele>
        <time>2021-07-25T07:07:36.000Z</time>
      </trkpt>
      <trkpt lat="47.16784" lon="-1.66901">
        <ele>82</ele>
        <time>2021-07-25T07:07:38.000Z</time>
      </trkpt>
      <trkpt lat="47.16772" lon="-1.6691">
        <ele>82</ele>
        <time>2021-07-25T07:07:40.000Z</time>
      </trkpt>
      <trkpt lat="47.1676" lon="-1.66916">
        <ele>83</ele>
        <time>2021-07-25T07:07:42.000Z</time>
      </trkpt>
      <trkpt lat="47.16748" lon="-1.66921">
        <ele>83</ele>
        <time>2021-07-25T07:07:44.000Z</time>
      </trkpt>
      <trkpt lat="47.16735" lon="-1.66926">
        <ele>83</ele>
        <time>2021-07-25T07:07:46.000Z</time>
      </trkpt>
      <trkpt lat="47.16723" lon="-1.6693">
        <ele>84</ele>
        <time>2021-07-25T07:07:48.000Z</time>
      </trkpt>
      <trkpt lat="47.16711" lon="-1.66935">
        <ele>85</ele>
        <time>2021-07-25T07:07:50.000Z</time>
      </trkpt>
      <trkpt lat="47.16698" lon="-1.66942">
        <ele>85</ele>
        <time>2021-07-25T07:07:52.000Z</time>
      </trkpt>
      <trkpt lat="47.16686" lon="-1.66951">
        <ele>86</ele>
        <time>2021-07-25T07:07:54.000Z</time>
      </trkpt>
      <trkpt lat="47.16675" lon="-1.66964">
        <ele>86</ele>
        <time>2021-07-25T07:07:56.000Z</time>
      </trkpt>
      <trkpt lat="47.16667" lon="-1.66982">
        <ele>86</ele>
        <time>2021-07-25T07:07:58.000Z</time>
      </trkpt>
      <trkpt lat="47.16663" lon="-1.67003">
        <ele>86</ele>
        <time>2021-07-25T07:08:00.000Z</time>
      </trkpt>
      <trkpt lat="47.16659" lon="-1.67022">
        <ele>84</ele>
        <time>2021-07-25T07:08:02.000Z</time>
      </trkpt>
      <trkpt lat="47.16654" lon="-1.67041">
        <ele>83</ele>
        <time>2021-07-25T07:08:04.000Z</time>
      </trkpt>
      <trkpt lat="47.1665" lon="-1.6706">
        <ele>82</ele>
        <time>2021-07-25T07:08:06.000Z</time>
      </trkpt>
      <trkpt lat="47.16646" lon="-1.67079">
        <ele>82</ele>
        <time>2021-07-25T07:08:08.000Z</time>
      </trkpt>
      <trkpt lat="47.16642" lon="-1.67099">
        <ele>81</ele>
        <time>2021-07-25T07:08:10.000Z</time>
      </trkpt>
      <trkpt lat="47.16638" lon="-1.67118">
        <ele>81</ele>
        <time>2021-07-25T07:08:12.000Z</time>
      </trkpt>
      <trkpt lat="47.16634" lon="-1.67137">
        <ele>81</ele>
        <time>2021-07-25T07:08:14.000Z</time>
      </trkpt>
      <trkpt lat="47.1663" lon="-1.67156">
        <ele>81</ele>
        <time>2021-07-25T07:08:16.000Z</time>
      </trkpt>
      <trkpt lat="47.16626" lon="-1.67175">
        <ele>81</ele>
        <time>2021-07-25T07:08:18.000Z</time>
      </trkpt>
      <trkpt lat="47.16623" lon="-1.67194">
        <ele>81</ele>
        <time>2021-07-25T07:08:20.000Z</time>
      </trkpt>
      <trkpt lat="47.16619" lon="-1.67212">
        <ele>80</ele>
        <time>2021-07-25T07:08:22.000Z</time>
      </trkpt>
      <trkpt lat="47.16616" lon="-1.67229">
        <ele>80</ele>
        <time>2021-07-25T07:08:24.000Z</time>
      </trkpt>
      <trkpt lat="47.16612" lon="-1.67246">
        <ele>80</ele>
        <time>2021-07-25T07:08:26.000Z</time>
      </trkpt>
      <trkpt lat="47.16613" lon="-1.67262">
        <ele>80</ele>
        <time>2021-07-25T07:08:28.000Z</time>
      </trkpt>
      <trkpt lat="47.16625" lon="-1.67268">
        <ele>80</ele>
        <time>2021-07-25T07:08:30.000Z</time>
      </trkpt>
      <trkpt lat="47.16637" lon="-1.67271">
        <ele>81</ele>
        <time>2021-07-25T07:08:32.000Z</time>
      </trkpt>
      <trkpt lat="47.1665" lon="-1.67275">
        <ele>81</ele>
        <time>2021-07-25T07:08:34.000Z</time>
      </trkpt>
      <trkpt lat="47.16663" lon="-1.67279">
        <ele>81</ele>
        <time>2021-07-25T07:08:36.000Z</time>
      </trkpt>
      <trkpt lat="47.16675" lon="-1.67284">
        <ele>82</ele>
        <time>2021-07-25T07:08:38.000Z</time>
      </trkpt>
      <trkpt lat="47.16688" lon="-1.6729">
        <ele>82</ele>
        <time>2021-07-25T07:08:40.000Z</time>
      </trkpt>
      <trkpt lat="47.16701" lon="-1.67297">
        <ele>82</ele>
        <time>2021-07-25T07:08:42.000Z</time>
      </trkpt>
      <trkpt lat="47.16714" lon="-1.67304">
        <ele>82</ele>
        <time>2021-07-25T07:08:44.000Z</time>
      </trkpt>
      <trkpt lat="47.16727" lon="-1.67312">
        <ele>82</ele>
        <time>2021-07-25T07:08:46.000Z</time>
      </trkpt>
      <trkpt lat="47.16739" lon="-1.6732">
        <ele>82</ele>
        <time>2021-07-25T07:08:48.000Z</time>
      </trkpt>
      <trkpt lat="47.16752" lon="-1.6733">
        <ele>83</ele>
        <time>2021-07-25T07:08:50.000Z</time>
      </trkpt>
      <trkpt lat="47.16764" lon="-1.67341">
        <ele>82</ele>
        <time>2021-07-25T07:08:52.000Z</time>
      </trkpt>
      <trkpt lat="47.16776" lon="-1.67353">
        <ele>82</ele>
        <time>2021-07-25T07:08:54.000Z</time>
      </trkpt>
      <trkpt lat="47.16787" lon="-1.67365">
        <ele>82</ele>
        <time>2021-07-25T07:08:56.000Z</time>
      </trkpt>
      <trkpt lat="47.16798" lon="-1.67377">
        <ele>82</ele>
        <time>2021-07-25T07:08:58.000Z</time>
      </trkpt>
      <trkpt lat="47.16809" lon="-1.6739">
        <ele>82</ele>
        <time>2021-07-25T07:09:00.000Z</time>
      </trkpt>
      <trkpt lat="47.1682" lon="-1.67403">
        <ele>83</ele>
        <time>2021-07-25T07:09:02.000Z</time>
      </trkpt>
      <trkpt lat="47.16831" lon="-1.67415">
        <ele>83</ele>
        <time>2021-07-25T07:09:04.000Z</time>
      </trkpt>
      <trkpt lat="47.16843" lon="-1.67428">
        <ele>83</ele>
        <time>2021-07-25T07:09:06.000Z</time>
      </trkpt>
      <trkpt lat="47.16855" lon="-1.67441">
        <ele>83</ele>
        <time>2021-07-25T07:09:08.000Z</time>
      </trkpt>
      <trkpt lat="47.16866" lon="-1.67454">
        <ele>83</ele>
        <time>2021-07-25T07:09:10.000Z</time>
      </trkpt>
      <trkpt lat="47.16877" lon="-1.67468">
        <ele>84</ele>
        <time>2021-07-25T07:09:12.000Z</time>
      </trkpt>
      <trkpt lat="47.16888" lon="-1.67481">
        <ele>84</ele>
        <time>2021-07-25T07:09:14.000Z</time>
      </trkpt>
      <trkpt lat="47.16899" lon="-1.67494">
        <ele>84</ele>
        <time>2021-07-25T07:09:16.000Z</time>
      </trkpt>
      <trkpt lat="47.1691" lon="-1.67507">
        <ele>84</ele>
        <time>2021-07-25T07:09:18.000Z</time>
      </trkpt>
      <trkpt lat="47.16922" lon="-1.6752">
        <ele>84</ele>
        <time>2021-07-25T07:09:20.000Z</time>
      </trkpt>
      <trkpt lat="47.16933" lon="-1.67534">
        <ele>84</ele>
        <time>2021-07-25T07:09:22.000Z</time>
      </trkpt>
      <trkpt lat="47.16944" lon="-1.67547">
        <ele>85</ele>
        <time>2021-07-25T07:09:24.000Z</time>
      </trkpt>
      <trkpt lat="47.16955" lon="-1.6756">
        <ele>85</ele>
        <time>2021-07-25T07:09:26.000Z</time>
      </trkpt>
      <trkpt lat="47.16965" lon="-1.67572">
        <ele>86</ele>
        <time>2021-07-25T07:09:28.000Z</time>
      </trkpt>
      <trkpt lat="47.16976" lon="-1.67586">
        <ele>86</ele>
        <time>2021-07-25T07:09:30.000Z</time>
      </trkpt>
      <trkpt lat="47.16987" lon="-1.67599">
        <ele>87</ele>
        <time>2021-07-25T07:09:32.000Z</time>
      </trkpt>
      <trkpt lat="47.16999" lon="-1.67612">
        <ele>87</ele>
        <time>2021-07-25T07:09:34.000Z</time>
      </trkpt>
      <trkpt lat="47.1701" lon="-1.67626">
        <ele>86</ele>
        <time>2021-07-25T07:09:36.000Z</time>
      </trkpt>
      <trkpt lat="47.17026" lon="-1.67648">
        <ele>86</ele>
        <time>2021-07-25T07:09:39.000Z</time>
      </trkpt>
      <trkpt lat="47.17037" lon="-1.67658">
        <ele>86</ele>
        <time>2021-07-25T07:09:41.000Z</time>
      </trkpt>
      <trkpt lat="47.17049" lon="-1.6767">
        <ele>85</ele>
        <time>2021-07-25T07:09:43.000Z</time>
      </trkpt>
      <trkpt lat="47.17061" lon="-1.67683">
        <ele>85</ele>
        <time>2021-07-25T07:09:45.000Z</time>
      </trkpt>
      <trkpt lat="47.17072" lon="-1.67696">
        <ele>85</ele>
        <time>2021-07-25T07:09:47.000Z</time>
      </trkpt>
      <trkpt lat="47.17083" lon="-1.67708">
        <ele>85</ele>
        <time>2021-07-25T07:09:49.000Z</time>
      </trkpt>
      <trkpt lat="47.17094" lon="-1.67721">
        <ele>85</ele>
        <time>2021-07-25T07:09:51.000Z</time>
      </trkpt>
      <trkpt lat="47.17104" lon="-1.67734">
        <ele>84</ele>
        <time>2021-07-25T07:09:53.000Z</time>
      </trkpt>
      <trkpt lat="47.17115" lon="-1.67746">
        <ele>85</ele>
        <time>2021-07-25T07:09:55.000Z</time>
      </trkpt>
      <trkpt lat="47.17125" lon="-1.67759">
        <ele>85</ele>
        <time>2021-07-25T07:09:57.000Z</time>
      </trkpt>
      <trkpt lat="47.17136" lon="-1.67771">
        <ele>86</ele>
        <time>2021-07-25T07:09:59.000Z</time>
      </trkpt>
      <trkpt lat="47.17146" lon="-1.67784">
        <ele>87</ele>
        <time>2021-07-25T07:10:01.000Z</time>
      </trkpt>
      <trkpt lat="47.17156" lon="-1.67797">
        <ele>87</ele>
        <time>2021-07-25T07:10:03.000Z</time>
      </trkpt>
      <trkpt lat="47.17167" lon="-1.67809">
        <ele>88</ele>
        <time>2021-07-25T07:10:05.000Z</time>
      </trkpt>
      <trkpt lat="47.17178" lon="-1.67822">
        <ele>88</ele>
        <time>2021-07-25T07:10:07.000Z</time>
      </trkpt>
      <trkpt lat="47.1719" lon="-1.67834">
        <ele>87</ele>
        <time>2021-07-25T07:10:09.000Z</time>
      </trkpt>
      <trkpt lat="47.17201" lon="-1.67846">
        <ele>87</ele>
        <time>2021-07-25T07:10:11.000Z</time>
      </trkpt>
      <trkpt lat="47.17212" lon="-1.67859">
        <ele>86</ele>
        <time>2021-07-25T07:10:13.000Z</time>
      </trkpt>
      <trkpt lat="47.17223" lon="-1.67872">
        <ele>86</ele>
        <time>2021-07-25T07:10:15.000Z</time>
      </trkpt>
      <trkpt lat="47.17234" lon="-1.67885">
        <ele>86</ele>
        <time>2021-07-25T07:10:17.000Z</time>
      </trkpt>
      <trkpt lat="47.17245" lon="-1.67898">
        <ele>86</ele>
        <time>2021-07-25T07:10:19.000Z</time>
      </trkpt>
      <trkpt lat="47.17256" lon="-1.6791">
        <ele>86</ele>
        <time>2021-07-25T07:10:21.000Z</time>
      </trkpt>
      <trkpt lat="47.17267" lon="-1.67923">
        <ele>86</ele>
        <time>2021-07-25T07:10:23.000Z</time>
      </trkpt>
      <trkpt lat="47.17277" lon="-1.67936">
        <ele>85</ele>
        <time>2021-07-25T07:10:25.000Z</time>
      </trkpt>
      <trkpt lat="47.17287" lon="-1.67949">
        <ele>85</ele>
        <time>2021-07-25T07:10:27.000Z</time>
      </trkpt>
      <trkpt lat="47.17297" lon="-1.67961">
        <ele>86</ele>
        <time>2021-07-25T07:10:29.000Z</time>
      </trkpt>
      <trkpt lat="47.17308" lon="-1.67973">
        <ele>86</ele>
        <time>2021-07-25T07:10:31.000Z</time>
      </trkpt>
      <trkpt lat="47.17318" lon="-1.67986">
        <ele>86</ele>
        <time>2021-07-25T07:10:33.000Z</time>
      </trkpt>
      <trkpt lat="47.17326" lon="-1.68001">
        <ele>86</ele>
        <time>2021-07-25T07:10:35.000Z</time>
      </trkpt>
      <trkpt lat="47.17333" lon="-1.68019">
        <ele>86</ele>
        <time>2021-07-25T07:10:37.000Z</time>
      </trkpt>
      <trkpt lat="47.17339" lon="-1.68037">
        <ele>86</ele>
        <time>2021-07-25T07:10:39.000Z</time>
      </trkpt>
      <trkpt lat="47.17344" lon="-1.68056">
        <ele>85</ele>
        <time>2021-07-25T07:10:41.000Z</time>
      </trkpt>
      <trkpt lat="47.17348" lon="-1.68075">
        <ele>85</ele>
        <time>2021-07-25T07:10:43.000Z</time>
      </trkpt>
      <trkpt lat="47.17352" lon="-1.68095">
        <ele>84</ele>
        <time>2021-07-25T07:10:45.000Z</time>
      </trkpt>
      <trkpt lat="47.17356" lon="-1.68114">
        <ele>84</ele>
        <time>2021-07-25T07:10:47.000Z</time>
      </trkpt>
      <trkpt lat="47.17359" lon="-1.68133">
        <ele>84</ele>
        <time>2021-07-25T07:10:49.000Z</time>
      </trkpt>
      <trkpt lat="47.1736" lon="-1.68152">
        <ele>84</ele>
        <time>2021-07-25T07:10:51.000Z</time>
      </trkpt>
      <trkpt lat="47.1736" lon="-1.68171">
        <ele>84</ele>
        <time>2021-07-25T07:10:53.000Z</time>
      </trkpt>
      <trkpt lat="47.17358" lon="-1.68191">
        <ele>84</ele>
        <time>2021-07-25T07:10:55.000Z</time>
      </trkpt>
      <trkpt lat="47.17356" lon="-1.6821">
        <ele>85</ele>
        <time>2021-07-25T07:10:57.000Z</time>
      </trkpt>
      <trkpt lat="47.17353" lon="-1.68229">
        <ele>85</ele>
        <time>2021-07-25T07:10:59.000Z</time>
      </trkpt>
      <trkpt lat="47.17349" lon="-1.68247">
        <ele>85</ele>
        <time>2021-07-25T07:11:01.000Z</time>
      </trkpt>
      <trkpt lat="47.17345" lon="-1.68265">
        <ele>86</ele>
        <time>2021-07-25T07:11:03.000Z</time>
      </trkpt>
      <trkpt lat="47.17341" lon="-1.68283">
        <ele>86</ele>
        <time>2021-07-25T07:11:05.000Z</time>
      </trkpt>
      <trkpt lat="47.17337" lon="-1.683">
        <ele>86</ele>
        <time>2021-07-25T07:11:07.000Z</time>
      </trkpt>
      <trkpt lat="47.17333" lon="-1.68317">
        <ele>86</ele>
        <time>2021-07-25T07:11:09.000Z</time>
      </trkpt>
      <trkpt lat="47.1733" lon="-1.68335">
        <ele>87</ele>
        <time>2021-07-25T07:11:11.000Z</time>
      </trkpt>
      <trkpt lat="47.17328" lon="-1.68352">
        <ele>87</ele>
        <time>2021-07-25T07:11:13.000Z</time>
      </trkpt>
      <trkpt lat="47.17333" lon="-1.68367">
        <ele>88</ele>
        <time>2021-07-25T07:11:15.000Z</time>
      </trkpt>
      <trkpt lat="47.17343" lon="-1.68375">
        <ele>88</ele>
        <time>2021-07-25T07:11:17.000Z</time>
      </trkpt>
      <trkpt lat="47.17354" lon="-1.68377">
        <ele>89</ele>
        <time>2021-07-25T07:11:19.000Z</time>
      </trkpt>
      <trkpt lat="47.17366" lon="-1.68378">
        <ele>89</ele>
        <time>2021-07-25T07:11:21.000Z</time>
      </trkpt>
      <trkpt lat="47.17376" lon="-1.68388">
        <ele>90</ele>
        <time>2021-07-25T07:11:23.000Z</time>
      </trkpt>
      <trkpt lat="47.17378" lon="-1.68406">
        <ele>90</ele>
        <time>2021-07-25T07:11:25.000Z</time>
      </trkpt>
      <trkpt lat="47.17369" lon="-1.6842">
        <ele>89</ele>
        <time>2021-07-25T07:11:27.000Z</time>
      </trkpt>
      <trkpt lat="47.1736" lon="-1.6843">
        <ele>90</ele>
        <time>2021-07-25T07:11:29.000Z</time>
      </trkpt>
      <trkpt lat="47.17358" lon="-1.68448">
        <ele>89</ele>
        <time>2021-07-25T07:11:31.000Z</time>
      </trkpt>
      <trkpt lat="47.17365" lon="-1.68465">
        <ele>89</ele>
        <time>2021-07-25T07:11:33.000Z</time>
      </trkpt>
      <trkpt lat="47.17376" lon="-1.68478">
        <ele>89</ele>
        <time>2021-07-25T07:11:35.000Z</time>
      </trkpt>
      <trkpt lat="47.17385" lon="-1.68493">
        <ele>89</ele>
        <time>2021-07-25T07:11:37.000Z</time>
      </trkpt>
      <trkpt lat="47.17395" lon="-1.68508">
        <ele>88</ele>
        <time>2021-07-25T07:11:39.000Z</time>
      </trkpt>
      <trkpt lat="47.17406" lon="-1.68524">
        <ele>87</ele>
        <time>2021-07-25T07:11:41.000Z</time>
      </trkpt>
      <trkpt lat="47.17416" lon="-1.68541">
        <ele>87</ele>
        <time>2021-07-25T07:11:43.000Z</time>
      </trkpt>
      <trkpt lat="47.17425" lon="-1.68559">
        <ele>86</ele>
        <time>2021-07-25T07:11:45.000Z</time>
      </trkpt>
      <trkpt lat="47.17434" lon="-1.68576">
        <ele>86</ele>
        <time>2021-07-25T07:11:47.000Z</time>
      </trkpt>
      <trkpt lat="47.17442" lon="-1.68595">
        <ele>86</ele>
        <time>2021-07-25T07:11:49.000Z</time>
      </trkpt>
      <trkpt lat="47.1745" lon="-1.68615">
        <ele>85</ele>
        <time>2021-07-25T07:11:51.000Z</time>
      </trkpt>
      <trkpt lat="47.17457" lon="-1.68635">
        <ele>85</ele>
        <time>2021-07-25T07:11:53.000Z</time>
      </trkpt>
      <trkpt lat="47.17463" lon="-1.68654">
        <ele>85</ele>
        <time>2021-07-25T07:11:55.000Z</time>
      </trkpt>
      <trkpt lat="47.17469" lon="-1.68673">
        <ele>85</ele>
        <time>2021-07-25T07:11:57.000Z</time>
      </trkpt>
      <trkpt lat="47.17474" lon="-1.68691">
        <ele>86</ele>
        <time>2021-07-25T07:11:59.000Z</time>
      </trkpt>
      <trkpt lat="47.17479" lon="-1.68711">
        <ele>86</ele>
        <time>2021-07-25T07:12:01.000Z</time>
      </trkpt>
      <trkpt lat="47.17484" lon="-1.6873">
        <ele>85</ele>
        <time>2021-07-25T07:12:03.000Z</time>
      </trkpt>
      <trkpt lat="47.17488" lon="-1.68749">
        <ele>85</ele>
        <time>2021-07-25T07:12:05.000Z</time>
      </trkpt>
      <trkpt lat="47.17493" lon="-1.68769">
        <ele>86</ele>
        <time>2021-07-25T07:12:07.000Z</time>
      </trkpt>
      <trkpt lat="47.17496" lon="-1.68788">
        <ele>85</ele>
        <time>2021-07-25T07:12:09.000Z</time>
      </trkpt>
      <trkpt lat="47.175" lon="-1.68807">
        <ele>85</ele>
        <time>2021-07-25T07:12:11.000Z</time>
      </trkpt>
      <trkpt lat="47.17504" lon="-1.68826">
        <ele>85</ele>
        <time>2021-07-25T07:12:13.000Z</time>
      </trkpt>
      <trkpt lat="47.17508" lon="-1.68844">
        <ele>86</ele>
        <time>2021-07-25T07:12:15.000Z</time>
      </trkpt>
      <trkpt lat="47.1751" lon="-1.68865">
        <ele>86</ele>
        <time>2021-07-25T07:12:17.000Z</time>
      </trkpt>
      <trkpt lat="47.17511" lon="-1.68885">
        <ele>86</ele>
        <time>2021-07-25T07:12:19.000Z</time>
      </trkpt>
      <trkpt lat="47.17509" lon="-1.68904">
        <ele>85</ele>
        <time>2021-07-25T07:12:21.000Z</time>
      </trkpt>
      <trkpt lat="47.17507" lon="-1.68924">
        <ele>84</ele>
        <time>2021-07-25T07:12:23.000Z</time>
      </trkpt>
      <trkpt lat="47.17505" lon="-1.68944">
        <ele>84</ele>
        <time>2021-07-25T07:12:25.000Z</time>
      </trkpt>
      <trkpt lat="47.17504" lon="-1.68964">
        <ele>84</ele>
        <time>2021-07-25T07:12:27.000Z</time>
      </trkpt>
      <trkpt lat="47.17506" lon="-1.68984">
        <ele>84</ele>
        <time>2021-07-25T07:12:29.000Z</time>
      </trkpt>
      <trkpt lat="47.17506" lon="-1.69003">
        <ele>84</ele>
        <time>2021-07-25T07:12:31.000Z</time>
      </trkpt>
      <trkpt lat="47.17507" lon="-1.69022">
        <ele>83</ele>
        <time>2021-07-25T07:12:33.000Z</time>
      </trkpt>
      <trkpt lat="47.17507" lon="-1.69041">
        <ele>83</ele>
        <time>2021-07-25T07:12:35.000Z</time>
      </trkpt>
      <trkpt lat="47.17508" lon="-1.6906">
        <ele>83</ele>
        <time>2021-07-25T07:12:37.000Z</time>
      </trkpt>
      <trkpt lat="47.17507" lon="-1.69079">
        <ele>83</ele>
        <time>2021-07-25T07:12:39.000Z</time>
      </trkpt>
      <trkpt lat="47.17507" lon="-1.69099">
        <ele>83</ele>
        <time>2021-07-25T07:12:41.000Z</time>
      </trkpt>
      <trkpt lat="47.17507" lon="-1.69118">
        <ele>83</ele>
        <time>2021-07-25T07:12:43.000Z</time>
      </trkpt>
      <trkpt lat="47.17507" lon="-1.69138">
        <ele>83</ele>
        <time>2021-07-25T07:12:45.000Z</time>
      </trkpt>
      <trkpt lat="47.17506" lon="-1.69157">
        <ele>83</ele>
        <time>2021-07-25T07:12:47.000Z</time>
      </trkpt>
      <trkpt lat="47.17505" lon="-1.69176">
        <ele>83</ele>
        <time>2021-07-25T07:12:49.000Z</time>
      </trkpt>
      <trkpt lat="47.17504" lon="-1.69195">
        <ele>83</ele>
        <time>2021-07-25T07:12:51.000Z</time>
      </trkpt>
      <trkpt lat="47.17503" lon="-1.69215">
        <ele>83</ele>
        <time>2021-07-25T07:12:53.000Z</time>
      </trkpt>
      <trkpt lat="47.17502" lon="-1.69234">
        <ele>83</ele>
        <time>2021-07-25T07:12:55.000Z</time>
      </trkpt>
      <trkpt lat="47.17501" lon="-1.69253">
        <ele>83</ele>
        <time>2021-07-25T07:12:57.000Z</time>
      </trkpt>
      <trkpt lat="47.175" lon="-1.69272">
        <ele>83</ele>
        <time>2021-07-25T07:12:59.000Z</time>
      </trkpt>
      <trkpt lat="47.17499" lon="-1.69291">
        <ele>83</ele>
        <time>2021-07-25T07:13:01.000Z</time>
      </trkpt>
      <trkpt lat="47.17498" lon="-1.69311">
        <ele>82</ele>
        <time>2021-07-25T07:13:03.000Z</time>
      </trkpt>
      <trkpt lat="47.17498" lon="-1.6933">
        <ele>82</ele>
        <time>2021-07-25T07:13:05.000Z</time>
      </trkpt>
      <trkpt lat="47.17497" lon="-1.69349">
        <ele>82</ele>
        <time>2021-07-25T07:13:07.000Z</time>
      </trkpt>
      <trkpt lat="47.17497" lon="-1.69367">
        <ele>82</ele>
        <time>2021-07-25T07:13:09.000Z</time>
      </trkpt>
      <trkpt lat="47.17497" lon="-1.69386">
        <ele>82</ele>
        <time>2021-07-25T07:13:11.000Z</time>
      </trkpt>
      <trkpt lat="47.17497" lon="-1.69404">
        <ele>82</ele>
        <time>2021-07-25T07:13:13.000Z</time>
      </trkpt>
      <trkpt lat="47.17496" lon="-1.69423">
        <ele>82</ele>
        <time>2021-07-25T07:13:15.000Z</time>
      </trkpt>
      <trkpt lat="47.17497" lon="-1.69442">
        <ele>82</ele>
        <time>2021-07-25T07:13:17.000Z</time>
      </trkpt>
      <trkpt lat="47.17498" lon="-1.69461">
        <ele>81</ele>
        <time>2021-07-25T07:13:19.000Z</time>
      </trkpt>
      <trkpt lat="47.17498" lon="-1.6948">
        <ele>81</ele>
        <time>2021-07-25T07:13:21.000Z</time>
      </trkpt>
      <trkpt lat="47.17499" lon="-1.69499">
        <ele>82</ele>
        <time>2021-07-25T07:13:23.000Z</time>
      </trkpt>
      <trkpt lat="47.175" lon="-1.69518">
        <ele>81</ele>
        <time>2021-07-25T07:13:25.000Z</time>
      </trkpt>
      <trkpt lat="47.17501" lon="-1.69538">
        <ele>81</ele>
        <time>2021-07-25T07:13:27.000Z</time>
      </trkpt>
      <trkpt lat="47.17502" lon="-1.69557">
        <ele>81</ele>
        <time>2021-07-25T07:13:29.000Z</time>
      </trkpt>
      <trkpt lat="47.17503" lon="-1.69576">
        <ele>81</ele>
        <time>2021-07-25T07:13:31.000Z</time>
      </trkpt>
      <trkpt lat="47.17504" lon="-1.69595">
        <ele>81</ele>
        <time>2021-07-25T07:13:33.000Z</time>
      </trkpt>
      <trkpt lat="47.17505" lon="-1.69614">
        <ele>81</ele>
        <time>2021-07-25T07:13:35.000Z</time>
      </trkpt>
      <trkpt lat="47.17507" lon="-1.69633">
        <ele>81</ele>
        <time>2021-07-25T07:13:37.000Z</time>
      </trkpt>
      <trkpt lat="47.17508" lon="-1.69652">
        <ele>81</ele>
        <time>2021-07-25T07:13:39.000Z</time>
      </trkpt>
      <trkpt lat="47.1751" lon="-1.69671">
        <ele>81</ele>
        <time>2021-07-25T07:13:41.000Z</time>
      </trkpt>
      <trkpt lat="47.17512" lon="-1.6969">
        <ele>80</ele>
        <time>2021-07-25T07:13:43.000Z</time>
      </trkpt>
      <trkpt lat="47.17513" lon="-1.69708">
        <ele>80</ele>
        <time>2021-07-25T07:13:45.000Z</time>
      </trkpt>
      <trkpt lat="47.17515" lon="-1.69726">
        <ele>80</ele>
        <time>2021-07-25T07:13:47.000Z</time>
      </trkpt>
      <trkpt lat="47.17517" lon="-1.69745">
        <ele>80</ele>
        <time>2021-07-25T07:13:49.000Z</time>
      </trkpt>
      <trkpt lat="47.17519" lon="-1.69764">
        <ele>81</ele>
        <time>2021-07-25T07:13:51.000Z</time>
      </trkpt>
      <trkpt lat="47.1752" lon="-1.69782">
        <ele>81</ele>
        <time>2021-07-25T07:13:53.000Z</time>
      </trkpt>
      <trkpt lat="47.17522" lon="-1.698">
        <ele>81</ele>
        <time>2021-07-25T07:13:55.000Z</time>
      </trkpt>
      <trkpt lat="47.17524" lon="-1.69818">
        <ele>81</ele>
        <time>2021-07-25T07:13:57.000Z</time>
      </trkpt>
      <trkpt lat="47.17526" lon="-1.69837">
        <ele>81</ele>
        <time>2021-07-25T07:13:59.000Z</time>
      </trkpt>
      <trkpt lat="47.17529" lon="-1.69856">
        <ele>81</ele>
        <time>2021-07-25T07:14:01.000Z</time>
      </trkpt>
      <trkpt lat="47.17531" lon="-1.69874">
        <ele>81</ele>
        <time>2021-07-25T07:14:03.000Z</time>
      </trkpt>
      <trkpt lat="47.17534" lon="-1.69894">
        <ele>81</ele>
        <time>2021-07-25T07:14:05.000Z</time>
      </trkpt>
      <trkpt lat="47.17537" lon="-1.69912">
        <ele>81</ele>
        <time>2021-07-25T07:14:07.000Z</time>
      </trkpt>
      <trkpt lat="47.1754" lon="-1.69931">
        <ele>81</ele>
        <time>2021-07-25T07:14:09.000Z</time>
      </trkpt>
      <trkpt lat="47.17543" lon="-1.69949">
        <ele>81</ele>
        <time>2021-07-25T07:14:11.000Z</time>
      </trkpt>
      <trkpt lat="47.17547" lon="-1.69967">
        <ele>81</ele>
        <time>2021-07-25T07:14:13.000Z</time>
      </trkpt>
      <trkpt lat="47.17551" lon="-1.69985">
        <ele>81</ele>
        <time>2021-07-25T07:14:15.000Z</time>
      </trkpt>
      <trkpt lat="47.17555" lon="-1.70003">
        <ele>81</ele>
        <time>2021-07-25T07:14:17.000Z</time>
      </trkpt>
      <trkpt lat="47.17558" lon="-1.7002">
        <ele>81</ele>
        <time>2021-07-25T07:14:19.000Z</time>
      </trkpt>
      <trkpt lat="47.17562" lon="-1.70038">
        <ele>81</ele>
        <time>2021-07-25T07:14:21.000Z</time>
      </trkpt>
      <trkpt lat="47.17566" lon="-1.70056">
        <ele>81</ele>
        <time>2021-07-25T07:14:23.000Z</time>
      </trkpt>
      <trkpt lat="47.1757" lon="-1.70073">
        <ele>81</ele>
        <time>2021-07-25T07:14:25.000Z</time>
      </trkpt>
      <trkpt lat="47.17573" lon="-1.7009">
        <ele>81</ele>
        <time>2021-07-25T07:14:27.000Z</time>
      </trkpt>
      <trkpt lat="47.17577" lon="-1.70108">
        <ele>81</ele>
        <time>2021-07-25T07:14:29.000Z</time>
      </trkpt>
      <trkpt lat="47.17581" lon="-1.70126">
        <ele>81</ele>
        <time>2021-07-25T07:14:31.000Z</time>
      </trkpt>
      <trkpt lat="47.17584" lon="-1.70144">
        <ele>81</ele>
        <time>2021-07-25T07:14:33.000Z</time>
      </trkpt>
      <trkpt lat="47.17588" lon="-1.70161">
        <ele>81</ele>
        <time>2021-07-25T07:14:35.000Z</time>
      </trkpt>
      <trkpt lat="47.17591" lon="-1.70179">
        <ele>81</ele>
        <time>2021-07-25T07:14:37.000Z</time>
      </trkpt>
      <trkpt lat="47.17594" lon="-1.70197">
        <ele>81</ele>
        <time>2021-07-25T07:14:39.000Z</time>
      </trkpt>
      <trkpt lat="47.17597" lon="-1.70216">
        <ele>81</ele>
        <time>2021-07-25T07:14:41.000Z</time>
      </trkpt>
      <trkpt lat="47.17597" lon="-1.70234">
        <ele>81</ele>
        <time>2021-07-25T07:14:43.000Z</time>
      </trkpt>
      <trkpt lat="47.17597" lon="-1.70253">
        <ele>81</ele>
        <time>2021-07-25T07:14:45.000Z</time>
      </trkpt>
      <trkpt lat="47.17595" lon="-1.70272">
        <ele>81</ele>
        <time>2021-07-25T07:14:47.000Z</time>
      </trkpt>
      <trkpt lat="47.17592" lon="-1.7029">
        <ele>81</ele>
        <time>2021-07-25T07:14:49.000Z</time>
      </trkpt>
      <trkpt lat="47.17587" lon="-1.70307">
        <ele>81</ele>
        <time>2021-07-25T07:14:51.000Z</time>
      </trkpt>
      <trkpt lat="47.17581" lon="-1.70323">
        <ele>81</ele>
        <time>2021-07-25T07:14:53.000Z</time>
      </trkpt>
      <trkpt lat="47.17575" lon="-1.70338">
        <ele>81</ele>
        <time>2021-07-25T07:14:55.000Z</time>
      </trkpt>
      <trkpt lat="47.1757" lon="-1.70355">
        <ele>81</ele>
        <time>2021-07-25T07:14:57.000Z</time>
      </trkpt>
      <trkpt lat="47.17571" lon="-1.7037">
        <ele>82</ele>
        <time>2021-07-25T07:14:59.000Z</time>
      </trkpt>
      <trkpt lat="47.17579" lon="-1.70383">
        <ele>82</ele>
        <time>2021-07-25T07:15:01.000Z</time>
      </trkpt>
      <trkpt lat="47.17591" lon="-1.70386">
        <ele>83</ele>
        <time>2021-07-25T07:15:03.000Z</time>
      </trkpt>
      <trkpt lat="47.17603" lon="-1.70387">
        <ele>83</ele>
        <time>2021-07-25T07:15:05.000Z</time>
      </trkpt>
      <trkpt lat="47.17614" lon="-1.70394">
        <ele>83</ele>
        <time>2021-07-25T07:15:07.000Z</time>
      </trkpt>
      <trkpt lat="47.17619" lon="-1.70409">
        <ele>83</ele>
        <time>2021-07-25T07:15:09.000Z</time>
      </trkpt>
      <trkpt lat="47.17618" lon="-1.70426">
        <ele>83</ele>
        <time>2021-07-25T07:15:11.000Z</time>
      </trkpt>
      <trkpt lat="47.17614" lon="-1.70442">
        <ele>83</ele>
        <time>2021-07-25T07:15:13.000Z</time>
      </trkpt>
      <trkpt lat="47.17612" lon="-1.7046">
        <ele>82</ele>
        <time>2021-07-25T07:15:15.000Z</time>
      </trkpt>
      <trkpt lat="47.17617" lon="-1.70477">
        <ele>82</ele>
        <time>2021-07-25T07:15:17.000Z</time>
      </trkpt>
      <trkpt lat="47.17626" lon="-1.70492">
        <ele>82</ele>
        <time>2021-07-25T07:15:19.000Z</time>
      </trkpt>
      <trkpt lat="47.17636" lon="-1.70505">
        <ele>81</ele>
        <time>2021-07-25T07:15:21.000Z</time>
      </trkpt>
      <trkpt lat="47.17647" lon="-1.70517">
        <ele>81</ele>
        <time>2021-07-25T07:15:23.000Z</time>
      </trkpt>
      <trkpt lat="47.17659" lon="-1.70529">
        <ele>80</ele>
        <time>2021-07-25T07:15:25.000Z</time>
      </trkpt>
      <trkpt lat="47.17671" lon="-1.7054">
        <ele>79</ele>
        <time>2021-07-25T07:15:27.000Z</time>
      </trkpt>
      <trkpt lat="47.17682" lon="-1.70551">
        <ele>79</ele>
        <time>2021-07-25T07:15:29.000Z</time>
      </trkpt>
      <trkpt lat="47.17694" lon="-1.70562">
        <ele>79</ele>
        <time>2021-07-25T07:15:31.000Z</time>
      </trkpt>
      <trkpt lat="47.17705" lon="-1.70574">
        <ele>79</ele>
        <time>2021-07-25T07:15:33.000Z</time>
      </trkpt>
      <trkpt lat="47.17715" lon="-1.70586">
        <ele>80</ele>
        <time>2021-07-25T07:15:35.000Z</time>
      </trkpt>
      <trkpt lat="47.17724" lon="-1.706">
        <ele>80</ele>
        <time>2021-07-25T07:15:37.000Z</time>
      </trkpt>
      <trkpt lat="47.17732" lon="-1.70615">
        <ele>80</ele>
        <time>2021-07-25T07:15:39.000Z</time>
      </trkpt>
      <trkpt lat="47.17739" lon="-1.70632">
        <ele>80</ele>
        <time>2021-07-25T07:15:41.000Z</time>
      </trkpt>
      <trkpt lat="47.17745" lon="-1.70651">
        <ele>80</ele>
        <time>2021-07-25T07:15:43.000Z</time>
      </trkpt>
      <trkpt lat="47.17751" lon="-1.70668">
        <ele>80</ele>
        <time>2021-07-25T07:15:45.000Z</time>
      </trkpt>
      <trkpt lat="47.17757" lon="-1.70685">
        <ele>80</ele>
        <time>2021-07-25T07:15:47.000Z</time>
      </trkpt>
      <trkpt lat="47.17763" lon="-1.70702">
        <ele>80</ele>
        <time>2021-07-25T07:15:49.000Z</time>
      </trkpt>
      <trkpt lat="47.17769" lon="-1.70719">
        <ele>80</ele>
        <time>2021-07-25T07:15:51.000Z</time>
      </trkpt>
      <trkpt lat="47.17775" lon="-1.70737">
        <ele>80</ele>
        <time>2021-07-25T07:15:53.000Z</time>
      </trkpt>
      <trkpt lat="47.17781" lon="-1.70754">
        <ele>80</ele>
        <time>2021-07-25T07:15:55.000Z</time>
      </trkpt>
      <trkpt lat="47.17786" lon="-1.7077">
        <ele>80</ele>
        <time>2021-07-25T07:15:57.000Z</time>
      </trkpt>
      <trkpt lat="47.17792" lon="-1.70787">
        <ele>80</ele>
        <time>2021-07-25T07:15:59.000Z</time>
      </trkpt>
      <trkpt lat="47.17797" lon="-1.70804">
        <ele>80</ele>
        <time>2021-07-25T07:16:01.000Z</time>
      </trkpt>
      <trkpt lat="47.17803" lon="-1.70821">
        <ele>80</ele>
        <time>2021-07-25T07:16:03.000Z</time>
      </trkpt>
      <trkpt lat="47.17808" lon="-1.70838">
        <ele>80</ele>
        <time>2021-07-25T07:16:05.000Z</time>
      </trkpt>
      <trkpt lat="47.17814" lon="-1.70855">
        <ele>80</ele>
        <time>2021-07-25T07:16:07.000Z</time>
      </trkpt>
      <trkpt lat="47.1782" lon="-1.70873">
        <ele>80</ele>
        <time>2021-07-25T07:16:09.000Z</time>
      </trkpt>
      <trkpt lat="47.17826" lon="-1.70889">
        <ele>80</ele>
        <time>2021-07-25T07:16:11.000Z</time>
      </trkpt>
      <trkpt lat="47.17831" lon="-1.70906">
        <ele>80</ele>
        <time>2021-07-25T07:16:13.000Z</time>
      </trkpt>
      <trkpt lat="47.17837" lon="-1.70923">
        <ele>80</ele>
        <time>2021-07-25T07:16:15.000Z</time>
      </trkpt>
      <trkpt lat="47.17843" lon="-1.7094">
        <ele>80</ele>
        <time>2021-07-25T07:16:17.000Z</time>
      </trkpt>
      <trkpt lat="47.17849" lon="-1.70957">
        <ele>81</ele>
        <time>2021-07-25T07:16:19.000Z</time>
      </trkpt>
      <trkpt lat="47.17856" lon="-1.70973">
        <ele>81</ele>
        <time>2021-07-25T07:16:21.000Z</time>
      </trkpt>
      <trkpt lat="47.17864" lon="-1.70987">
        <ele>80</ele>
        <time>2021-07-25T07:16:23.000Z</time>
      </trkpt>
      <trkpt lat="47.17872" lon="-1.71001">
        <ele>80</ele>
        <time>2021-07-25T07:16:25.000Z</time>
      </trkpt>
      <trkpt lat="47.17879" lon="-1.71017">
        <ele>80</ele>
        <time>2021-07-25T07:16:27.000Z</time>
      </trkpt>
      <trkpt lat="47.17885" lon="-1.71034">
        <ele>80</ele>
        <time>2021-07-25T07:16:29.000Z</time>
      </trkpt>
      <trkpt lat="47.1789" lon="-1.71051">
        <ele>81</ele>
        <time>2021-07-25T07:16:31.000Z</time>
      </trkpt>
      <trkpt lat="47.17895" lon="-1.71068">
        <ele>80</ele>
        <time>2021-07-25T07:16:33.000Z</time>
      </trkpt>
      <trkpt lat="47.17901" lon="-1.71084">
        <ele>81</ele>
        <time>2021-07-25T07:16:35.000Z</time>
      </trkpt>
      <trkpt lat="47.17907" lon="-1.71102">
        <ele>80</ele>
        <time>2021-07-25T07:16:37.000Z</time>
      </trkpt>
      <trkpt lat="47.17912" lon="-1.71119">
        <ele>81</ele>
        <time>2021-07-25T07:16:39.000Z</time>
      </trkpt>
      <trkpt lat="47.17917" lon="-1.71136">
        <ele>81</ele>
        <time>2021-07-25T07:16:41.000Z</time>
      </trkpt>
      <trkpt lat="47.17921" lon="-1.71153">
        <ele>81</ele>
        <time>2021-07-25T07:16:43.000Z</time>
      </trkpt>
      <trkpt lat="47.17924" lon="-1.71173">
        <ele>81</ele>
        <time>2021-07-25T07:16:45.000Z</time>
      </trkpt>
      <trkpt lat="47.17927" lon="-1.71191">
        <ele>80</ele>
        <time>2021-07-25T07:16:47.000Z</time>
      </trkpt>
      <trkpt lat="47.17931" lon="-1.7121">
        <ele>81</ele>
        <time>2021-07-25T07:16:49.000Z</time>
      </trkpt>
      <trkpt lat="47.17936" lon="-1.71228">
        <ele>81</ele>
        <time>2021-07-25T07:16:51.000Z</time>
      </trkpt>
      <trkpt lat="47.17941" lon="-1.71246">
        <ele>81</ele>
        <time>2021-07-25T07:16:53.000Z</time>
      </trkpt>
      <trkpt lat="47.17947" lon="-1.71263">
        <ele>81</ele>
        <time>2021-07-25T07:16:55.000Z</time>
      </trkpt>
      <trkpt lat="47.17953" lon="-1.7128">
        <ele>81</ele>
        <time>2021-07-25T07:16:57.000Z</time>
      </trkpt>
      <trkpt lat="47.17959" lon="-1.71297">
        <ele>81</ele>
        <time>2021-07-25T07:16:59.000Z</time>
      </trkpt>
      <trkpt lat="47.17965" lon="-1.71314">
        <ele>81</ele>
        <time>2021-07-25T07:17:01.000Z</time>
      </trkpt>
      <trkpt lat="47.1797" lon="-1.71332">
        <ele>81</ele>
        <time>2021-07-25T07:17:03.000Z</time>
      </trkpt>
      <trkpt lat="47.17976" lon="-1.71349">
        <ele>81</ele>
        <time>2021-07-25T07:17:05.000Z</time>
      </trkpt>
      <trkpt lat="47.17981" lon="-1.71367">
        <ele>81</ele>
        <time>2021-07-25T07:17:07.000Z</time>
      </trkpt>
      <trkpt lat="47.17987" lon="-1.71385">
        <ele>81</ele>
        <time>2021-07-25T07:17:09.000Z</time>
      </trkpt>
      <trkpt lat="47.17993" lon="-1.71402">
        <ele>81</ele>
        <time>2021-07-25T07:17:11.000Z</time>
      </trkpt>
      <trkpt lat="47.17998" lon="-1.7142">
        <ele>81</ele>
        <time>2021-07-25T07:17:13.000Z</time>
      </trkpt>
      <trkpt lat="47.18004" lon="-1.71437">
        <ele>81</ele>
        <time>2021-07-25T07:17:15.000Z</time>
      </trkpt>
      <trkpt lat="47.1801" lon="-1.71455">
        <ele>81</ele>
        <time>2021-07-25T07:17:17.000Z</time>
      </trkpt>
      <trkpt lat="47.18016" lon="-1.71473">
        <ele>81</ele>
        <time>2021-07-25T07:17:19.000Z</time>
      </trkpt>
      <trkpt lat="47.18021" lon="-1.7149">
        <ele>81</ele>
        <time>2021-07-25T07:17:21.000Z</time>
      </trkpt>
      <trkpt lat="47.18027" lon="-1.71508">
        <ele>80</ele>
        <time>2021-07-25T07:17:23.000Z</time>
      </trkpt>
      <trkpt lat="47.18035" lon="-1.71534">
        <ele>80</ele>
        <time>2021-07-25T07:17:26.000Z</time>
      </trkpt>
      <trkpt lat="47.18041" lon="-1.71551">
        <ele>80</ele>
        <time>2021-07-25T07:17:28.000Z</time>
      </trkpt>
      <trkpt lat="47.18046" lon="-1.71568">
        <ele>80</ele>
        <time>2021-07-25T07:17:30.000Z</time>
      </trkpt>
      <trkpt lat="47.18055" lon="-1.71594">
        <ele>81</ele>
        <time>2021-07-25T07:17:33.000Z</time>
      </trkpt>
      <trkpt lat="47.1806" lon="-1.71611">
        <ele>81</ele>
        <time>2021-07-25T07:17:35.000Z</time>
      </trkpt>
      <trkpt lat="47.18066" lon="-1.71628">
        <ele>80</ele>
        <time>2021-07-25T07:17:37.000Z</time>
      </trkpt>
      <trkpt lat="47.18071" lon="-1.71645">
        <ele>81</ele>
        <time>2021-07-25T07:17:39.000Z</time>
      </trkpt>
      <trkpt lat="47.18076" lon="-1.71661">
        <ele>81</ele>
        <time>2021-07-25T07:17:41.000Z</time>
      </trkpt>
      <trkpt lat="47.18082" lon="-1.71679">
        <ele>80</ele>
        <time>2021-07-25T07:17:43.000Z</time>
      </trkpt>
      <trkpt lat="47.18088" lon="-1.71696">
        <ele>80</ele>
        <time>2021-07-25T07:17:45.000Z</time>
      </trkpt>
      <trkpt lat="47.18094" lon="-1.71713">
        <ele>80</ele>
        <time>2021-07-25T07:17:47.000Z</time>
      </trkpt>
      <trkpt lat="47.181" lon="-1.7173">
        <ele>80</ele>
        <time>2021-07-25T07:17:49.000Z</time>
      </trkpt>
      <trkpt lat="47.18106" lon="-1.71747">
        <ele>80</ele>
        <time>2021-07-25T07:17:51.000Z</time>
      </trkpt>
      <trkpt lat="47.18113" lon="-1.71764">
        <ele>80</ele>
        <time>2021-07-25T07:17:53.000Z</time>
      </trkpt>
      <trkpt lat="47.18119" lon="-1.7178">
        <ele>80</ele>
        <time>2021-07-25T07:17:55.000Z</time>
      </trkpt>
      <trkpt lat="47.18125" lon="-1.71797">
        <ele>80</ele>
        <time>2021-07-25T07:17:57.000Z</time>
      </trkpt>
      <trkpt lat="47.18131" lon="-1.71815">
        <ele>80</ele>
        <time>2021-07-25T07:17:59.000Z</time>
      </trkpt>
      <trkpt lat="47.18137" lon="-1.71832">
        <ele>80</ele>
        <time>2021-07-25T07:18:01.000Z</time>
      </trkpt>
      <trkpt lat="47.18143" lon="-1.7185">
        <ele>80</ele>
        <time>2021-07-25T07:18:03.000Z</time>
      </trkpt>
      <trkpt lat="47.18148" lon="-1.71867">
        <ele>80</ele>
        <time>2021-07-25T07:18:05.000Z</time>
      </trkpt>
      <trkpt lat="47.18154" lon="-1.71884">
        <ele>80</ele>
        <time>2021-07-25T07:18:07.000Z</time>
      </trkpt>
      <trkpt lat="47.18159" lon="-1.71902">
        <ele>79</ele>
        <time>2021-07-25T07:18:09.000Z</time>
      </trkpt>
      <trkpt lat="47.18165" lon="-1.71919">
        <ele>80</ele>
        <time>2021-07-25T07:18:11.000Z</time>
      </trkpt>
      <trkpt lat="47.18171" lon="-1.71936">
        <ele>80</ele>
        <time>2021-07-25T07:18:13.000Z</time>
      </trkpt>
      <trkpt lat="47.18176" lon="-1.71954">
        <ele>80</ele>
        <time>2021-07-25T07:18:15.000Z</time>
      </trkpt>
      <trkpt lat="47.18182" lon="-1.71971">
        <ele>79</ele>
        <time>2021-07-25T07:18:17.000Z</time>
      </trkpt>
      <trkpt lat="47.18188" lon="-1.71989">
        <ele>79</ele>
        <time>2021-07-25T07:18:19.000Z</time>
      </trkpt>
      <trkpt lat="47.18193" lon="-1.72007">
        <ele>79</ele>
        <time>2021-07-25T07:18:21.000Z</time>
      </trkpt>
      <trkpt lat="47.18199" lon="-1.72024">
        <ele>79</ele>
        <time>2021-07-25T07:18:23.000Z</time>
      </trkpt>
      <trkpt lat="47.18205" lon="-1.72041">
        <ele>79</ele>
        <time>2021-07-25T07:18:25.000Z</time>
      </trkpt>
      <trkpt lat="47.1821" lon="-1.72059">
        <ele>79</ele>
        <time>2021-07-25T07:18:27.000Z</time>
      </trkpt>
      <trkpt lat="47.18216" lon="-1.72077">
        <ele>79</ele>
        <time>2021-07-25T07:18:29.000Z</time>
      </trkpt>
      <trkpt lat="47.18221" lon="-1.72095">
        <ele>79</ele>
        <time>2021-07-25T07:18:31.000Z</time>
      </trkpt>
      <trkpt lat="47.18227" lon="-1.72112">
        <ele>79</ele>
        <time>2021-07-25T07:18:33.000Z</time>
      </trkpt>
      <trkpt lat="47.18232" lon="-1.7213">
        <ele>79</ele>
        <time>2021-07-25T07:18:35.000Z</time>
      </trkpt>
      <trkpt lat="47.18238" lon="-1.72147">
        <ele>79</ele>
        <time>2021-07-25T07:18:37.000Z</time>
      </trkpt>
      <trkpt lat="47.18243" lon="-1.72165">
        <ele>79</ele>
        <time>2021-07-25T07:18:39.000Z</time>
      </trkpt>
      <trkpt lat="47.18249" lon="-1.72182">
        <ele>79</ele>
        <time>2021-07-25T07:18:41.000Z</time>
      </trkpt>
      <trkpt lat="47.18254" lon="-1.72199">
        <ele>79</ele>
        <time>2021-07-25T07:18:43.000Z</time>
      </trkpt>
      <trkpt lat="47.18257" lon="-1.72217">
        <ele>79</ele>
        <time>2021-07-25T07:18:45.000Z</time>
      </trkpt>
      <trkpt lat="47.18261" lon="-1.72236">
        <ele>79</ele>
        <time>2021-07-25T07:18:47.000Z</time>
      </trkpt>
      <trkpt lat="47.18263" lon="-1.72254">
        <ele>79</ele>
        <time>2021-07-25T07:18:49.000Z</time>
      </trkpt>
      <trkpt lat="47.18265" lon="-1.72274">
        <ele>79</ele>
        <time>2021-07-25T07:18:51.000Z</time>
      </trkpt>
      <trkpt lat="47.18267" lon="-1.72294">
        <ele>78</ele>
        <time>2021-07-25T07:18:53.000Z</time>
      </trkpt>
      <trkpt lat="47.18269" lon="-1.72313">
        <ele>78</ele>
        <time>2021-07-25T07:18:55.000Z</time>
      </trkpt>
      <trkpt lat="47.1827" lon="-1.72333">
        <ele>78</ele>
        <time>2021-07-25T07:18:57.000Z</time>
      </trkpt>
      <trkpt lat="47.18272" lon="-1.72352">
        <ele>78</ele>
        <time>2021-07-25T07:18:59.000Z</time>
      </trkpt>
      <trkpt lat="47.18274" lon="-1.7237">
        <ele>78</ele>
        <time>2021-07-25T07:19:01.000Z</time>
      </trkpt>
      <trkpt lat="47.18275" lon="-1.72389">
        <ele>78</ele>
        <time>2021-07-25T07:19:03.000Z</time>
      </trkpt>
      <trkpt lat="47.18276" lon="-1.72407">
        <ele>79</ele>
        <time>2021-07-25T07:19:05.000Z</time>
      </trkpt>
      <trkpt lat="47.18275" lon="-1.72424">
        <ele>79</ele>
        <time>2021-07-25T07:19:07.000Z</time>
      </trkpt>
      <trkpt lat="47.18273" lon="-1.72441">
        <ele>80</ele>
        <time>2021-07-25T07:19:09.000Z</time>
      </trkpt>
      <trkpt lat="47.18271" lon="-1.72457">
        <ele>80</ele>
        <time>2021-07-25T07:19:11.000Z</time>
      </trkpt>
      <trkpt lat="47.18268" lon="-1.72474">
        <ele>80</ele>
        <time>2021-07-25T07:19:13.000Z</time>
      </trkpt>
      <trkpt lat="47.18265" lon="-1.72489">
        <ele>80</ele>
        <time>2021-07-25T07:19:15.000Z</time>
      </trkpt>
      <trkpt lat="47.18262" lon="-1.72505">
        <ele>81</ele>
        <time>2021-07-25T07:19:17.000Z</time>
      </trkpt>
      <trkpt lat="47.18261" lon="-1.72521">
        <ele>81</ele>
        <time>2021-07-25T07:19:19.000Z</time>
      </trkpt>
      <trkpt lat="47.18265" lon="-1.72537">
        <ele>81</ele>
        <time>2021-07-25T07:19:21.000Z</time>
      </trkpt>
      <trkpt lat="47.18273" lon="-1.72549">
        <ele>81</ele>
        <time>2021-07-25T07:19:23.000Z</time>
      </trkpt>
      <trkpt lat="47.18284" lon="-1.72552">
        <ele>81</ele>
        <time>2021-07-25T07:19:25.000Z</time>
      </trkpt>
      <trkpt lat="47.18295" lon="-1.7255">
        <ele>82</ele>
        <time>2021-07-25T07:19:27.000Z</time>
      </trkpt>
      <trkpt lat="47.18305" lon="-1.72553">
        <ele>82</ele>
        <time>2021-07-25T07:19:29.000Z</time>
      </trkpt>
      <trkpt lat="47.18313" lon="-1.72564">
        <ele>82</ele>
        <time>2021-07-25T07:19:31.000Z</time>
      </trkpt>
      <trkpt lat="47.18316" lon="-1.72578">
        <ele>82</ele>
        <time>2021-07-25T07:19:33.000Z</time>
      </trkpt>
      <trkpt lat="47.18316" lon="-1.72593">
        <ele>82</ele>
        <time>2021-07-25T07:19:35.000Z</time>
      </trkpt>
      <trkpt lat="47.18313" lon="-1.72609">
        <ele>82</ele>
        <time>2021-07-25T07:19:37.000Z</time>
      </trkpt>
      <trkpt lat="47.18313" lon="-1.72625">
        <ele>81</ele>
        <time>2021-07-25T07:19:39.000Z</time>
      </trkpt>
      <trkpt lat="47.18318" lon="-1.72642">
        <ele>81</ele>
        <time>2021-07-25T07:19:41.000Z</time>
      </trkpt>
      <trkpt lat="47.18324" lon="-1.72658">
        <ele>81</ele>
        <time>2021-07-25T07:19:43.000Z</time>
      </trkpt>
      <trkpt lat="47.18329" lon="-1.72676">
        <ele>81</ele>
        <time>2021-07-25T07:19:45.000Z</time>
      </trkpt>
      <trkpt lat="47.18335" lon="-1.72694">
        <ele>80</ele>
        <time>2021-07-25T07:19:47.000Z</time>
      </trkpt>
      <trkpt lat="47.18342" lon="-1.72712">
        <ele>80</ele>
        <time>2021-07-25T07:19:49.000Z</time>
      </trkpt>
      <trkpt lat="47.18348" lon="-1.7273">
        <ele>79</ele>
        <time>2021-07-25T07:19:51.000Z</time>
      </trkpt>
      <trkpt lat="47.18355" lon="-1.72749">
        <ele>79</ele>
        <time>2021-07-25T07:19:53.000Z</time>
      </trkpt>
      <trkpt lat="47.18361" lon="-1.72767">
        <ele>79</ele>
        <time>2021-07-25T07:19:55.000Z</time>
      </trkpt>
      <trkpt lat="47.18367" lon="-1.72785">
        <ele>79</ele>
        <time>2021-07-25T07:19:57.000Z</time>
      </trkpt>
      <trkpt lat="47.18373" lon="-1.72802">
        <ele>79</ele>
        <time>2021-07-25T07:19:59.000Z</time>
      </trkpt>
      <trkpt lat="47.18379" lon="-1.72819">
        <ele>79</ele>
        <time>2021-07-25T07:20:01.000Z</time>
      </trkpt>
      <trkpt lat="47.18385" lon="-1.72836">
        <ele>79</ele>
        <time>2021-07-25T07:20:03.000Z</time>
      </trkpt>
      <trkpt lat="47.18391" lon="-1.72853">
        <ele>79</ele>
        <time>2021-07-25T07:20:05.000Z</time>
      </trkpt>
      <trkpt lat="47.18397" lon="-1.7287">
        <ele>79</ele>
        <time>2021-07-25T07:20:07.000Z</time>
      </trkpt>
      <trkpt lat="47.18402" lon="-1.72887">
        <ele>79</ele>
        <time>2021-07-25T07:20:09.000Z</time>
      </trkpt>
      <trkpt lat="47.18407" lon="-1.72905">
        <ele>79</ele>
        <time>2021-07-25T07:20:11.000Z</time>
      </trkpt>
      <trkpt lat="47.18412" lon="-1.72922">
        <ele>79</ele>
        <time>2021-07-25T07:20:13.000Z</time>
      </trkpt>
      <trkpt lat="47.18416" lon="-1.72939">
        <ele>80</ele>
        <time>2021-07-25T07:20:15.000Z</time>
      </trkpt>
      <trkpt lat="47.18419" lon="-1.72957">
        <ele>80</ele>
        <time>2021-07-25T07:20:17.000Z</time>
      </trkpt>
      <trkpt lat="47.18421" lon="-1.72976">
        <ele>80</ele>
        <time>2021-07-25T07:20:19.000Z</time>
      </trkpt>
      <trkpt lat="47.18424" lon="-1.72994">
        <ele>79</ele>
        <time>2021-07-25T07:20:21.000Z</time>
      </trkpt>
      <trkpt lat="47.18427" lon="-1.73013">
        <ele>79</ele>
        <time>2021-07-25T07:20:23.000Z</time>
      </trkpt>
      <trkpt lat="47.18429" lon="-1.73031">
        <ele>80</ele>
        <time>2021-07-25T07:20:25.000Z</time>
      </trkpt>
      <trkpt lat="47.18431" lon="-1.7305">
        <ele>80</ele>
        <time>2021-07-25T07:20:27.000Z</time>
      </trkpt>
      <trkpt lat="47.18433" lon="-1.73068">
        <ele>80</ele>
        <time>2021-07-25T07:20:29.000Z</time>
      </trkpt>
      <trkpt lat="47.18435" lon="-1.73087">
        <ele>79</ele>
        <time>2021-07-25T07:20:31.000Z</time>
      </trkpt>
      <trkpt lat="47.18438" lon="-1.73105">
        <ele>80</ele>
        <time>2021-07-25T07:20:33.000Z</time>
      </trkpt>
      <trkpt lat="47.1844" lon="-1.73124">
        <ele>79</ele>
        <time>2021-07-25T07:20:35.000Z</time>
      </trkpt>
      <trkpt lat="47.18443" lon="-1.73142">
        <ele>79</ele>
        <time>2021-07-25T07:20:37.000Z</time>
      </trkpt>
      <trkpt lat="47.18446" lon="-1.73161">
        <ele>79</ele>
        <time>2021-07-25T07:20:39.000Z</time>
      </trkpt>
      <trkpt lat="47.18448" lon="-1.73179">
        <ele>79</ele>
        <time>2021-07-25T07:20:41.000Z</time>
      </trkpt>
      <trkpt lat="47.18451" lon="-1.73198">
        <ele>79</ele>
        <time>2021-07-25T07:20:43.000Z</time>
      </trkpt>
      <trkpt lat="47.18453" lon="-1.73216">
        <ele>79</ele>
        <time>2021-07-25T07:20:45.000Z</time>
      </trkpt>
      <trkpt lat="47.18455" lon="-1.73235">
        <ele>80</ele>
        <time>2021-07-25T07:20:47.000Z</time>
      </trkpt>
      <trkpt lat="47.18457" lon="-1.73254">
        <ele>79</ele>
        <time>2021-07-25T07:20:49.000Z</time>
      </trkpt>
      <trkpt lat="47.18459" lon="-1.73273">
        <ele>79</ele>
        <time>2021-07-25T07:20:51.000Z</time>
      </trkpt>
      <trkpt lat="47.18462" lon="-1.73292">
        <ele>78</ele>
        <time>2021-07-25T07:20:53.000Z</time>
      </trkpt>
      <trkpt lat="47.18464" lon="-1.73311">
        <ele>78</ele>
        <time>2021-07-25T07:20:55.000Z</time>
      </trkpt>
      <trkpt lat="47.18466" lon="-1.7333">
        <ele>78</ele>
        <time>2021-07-25T07:20:57.000Z</time>
      </trkpt>
      <trkpt lat="47.18468" lon="-1.73349">
        <ele>78</ele>
        <time>2021-07-25T07:20:59.000Z</time>
      </trkpt>
      <trkpt lat="47.1847" lon="-1.73368">
        <ele>78</ele>
        <time>2021-07-25T07:21:01.000Z</time>
      </trkpt>
      <trkpt lat="47.18472" lon="-1.73386">
        <ele>78</ele>
        <time>2021-07-25T07:21:03.000Z</time>
      </trkpt>
      <trkpt lat="47.18474" lon="-1.73405">
        <ele>78</ele>
        <time>2021-07-25T07:21:05.000Z</time>
      </trkpt>
      <trkpt lat="47.18475" lon="-1.73424">
        <ele>78</ele>
        <time>2021-07-25T07:21:07.000Z</time>
      </trkpt>
      <trkpt lat="47.18478" lon="-1.73443">
        <ele>77</ele>
        <time>2021-07-25T07:21:09.000Z</time>
      </trkpt>
      <trkpt lat="47.18479" lon="-1.73462">
        <ele>78</ele>
        <time>2021-07-25T07:21:11.000Z</time>
      </trkpt>
      <trkpt lat="47.18481" lon="-1.73481">
        <ele>77</ele>
        <time>2021-07-25T07:21:13.000Z</time>
      </trkpt>
      <trkpt lat="47.18484" lon="-1.735">
        <ele>77</ele>
        <time>2021-07-25T07:21:15.000Z</time>
      </trkpt>
      <trkpt lat="47.18485" lon="-1.73518">
        <ele>77</ele>
        <time>2021-07-25T07:21:17.000Z</time>
      </trkpt>
      <trkpt lat="47.18487" lon="-1.73537">
        <ele>77</ele>
        <time>2021-07-25T07:21:19.000Z</time>
      </trkpt>
      <trkpt lat="47.18488" lon="-1.73555">
        <ele>77</ele>
        <time>2021-07-25T07:21:21.000Z</time>
      </trkpt>
      <trkpt lat="47.1849" lon="-1.73574">
        <ele>77</ele>
        <time>2021-07-25T07:21:23.000Z</time>
      </trkpt>
      <trkpt lat="47.18491" lon="-1.73592">
        <ele>77</ele>
        <time>2021-07-25T07:21:25.000Z</time>
      </trkpt>
      <trkpt lat="47.18493" lon="-1.73609">
        <ele>77</ele>
        <time>2021-07-25T07:21:27.000Z</time>
      </trkpt>
      <trkpt lat="47.18495" lon="-1.73627">
        <ele>77</ele>
        <time>2021-07-25T07:21:29.000Z</time>
      </trkpt>
      <trkpt lat="47.18497" lon="-1.73645">
        <ele>77</ele>
        <time>2021-07-25T07:21:31.000Z</time>
      </trkpt>
      <trkpt lat="47.18499" lon="-1.73663">
        <ele>77</ele>
        <time>2021-07-25T07:21:33.000Z</time>
      </trkpt>
      <trkpt lat="47.185" lon="-1.73681">
        <ele>77</ele>
        <time>2021-07-25T07:21:35.000Z</time>
      </trkpt>
      <trkpt lat="47.18502" lon="-1.737">
        <ele>77</ele>
        <time>2021-07-25T07:21:37.000Z</time>
      </trkpt>
      <trkpt lat="47.18504" lon="-1.73719">
        <ele>77</ele>
        <time>2021-07-25T07:21:39.000Z</time>
      </trkpt>
      <trkpt lat="47.18506" lon="-1.73738">
        <ele>77</ele>
        <time>2021-07-25T07:21:41.000Z</time>
      </trkpt>
      <trkpt lat="47.18508" lon="-1.73757">
        <ele>77</ele>
        <time>2021-07-25T07:21:43.000Z</time>
      </trkpt>
      <trkpt lat="47.1851" lon="-1.73776">
        <ele>77</ele>
        <time>2021-07-25T07:21:45.000Z</time>
      </trkpt>
      <trkpt lat="47.18511" lon="-1.73794">
        <ele>77</ele>
        <time>2021-07-25T07:21:47.000Z</time>
      </trkpt>
      <trkpt lat="47.18513" lon="-1.73812">
        <ele>77</ele>
        <time>2021-07-25T07:21:49.000Z</time>
      </trkpt>
      <trkpt lat="47.18515" lon="-1.73831">
        <ele>77</ele>
        <time>2021-07-25T07:21:51.000Z</time>
      </trkpt>
      <trkpt lat="47.18516" lon="-1.7385">
        <ele>77</ele>
        <time>2021-07-25T07:21:53.000Z</time>
      </trkpt>
      <trkpt lat="47.18518" lon="-1.73869">
        <ele>77</ele>
        <time>2021-07-25T07:21:55.000Z</time>
      </trkpt>
      <trkpt lat="47.1852" lon="-1.73888">
        <ele>77</ele>
        <time>2021-07-25T07:21:57.000Z</time>
      </trkpt>
      <trkpt lat="47.18521" lon="-1.73907">
        <ele>77</ele>
        <time>2021-07-25T07:21:59.000Z</time>
      </trkpt>
      <trkpt lat="47.18522" lon="-1.73925">
        <ele>77</ele>
        <time>2021-07-25T07:22:01.000Z</time>
      </trkpt>
      <trkpt lat="47.18523" lon="-1.73944">
        <ele>77</ele>
        <time>2021-07-25T07:22:03.000Z</time>
      </trkpt>
      <trkpt lat="47.18524" lon="-1.73963">
        <ele>77</ele>
        <time>2021-07-25T07:22:05.000Z</time>
      </trkpt>
      <trkpt lat="47.18524" lon="-1.73982">
        <ele>76</ele>
        <time>2021-07-25T07:22:07.000Z</time>
      </trkpt>
      <trkpt lat="47.18524" lon="-1.74001">
        <ele>76</ele>
        <time>2021-07-25T07:22:09.000Z</time>
      </trkpt>
      <trkpt lat="47.18523" lon="-1.74019">
        <ele>76</ele>
        <time>2021-07-25T07:22:11.000Z</time>
      </trkpt>
      <trkpt lat="47.18521" lon="-1.74037">
        <ele>76</ele>
        <time>2021-07-25T07:22:13.000Z</time>
      </trkpt>
      <trkpt lat="47.1852" lon="-1.74056">
        <ele>75</ele>
        <time>2021-07-25T07:22:15.000Z</time>
      </trkpt>
      <trkpt lat="47.18519" lon="-1.74076">
        <ele>74</ele>
        <time>2021-07-25T07:22:17.000Z</time>
      </trkpt>
      <trkpt lat="47.18518" lon="-1.74095">
        <ele>74</ele>
        <time>2021-07-25T07:22:19.000Z</time>
      </trkpt>
      <trkpt lat="47.18519" lon="-1.74113">
        <ele>74</ele>
        <time>2021-07-25T07:22:21.000Z</time>
      </trkpt>
      <trkpt lat="47.18522" lon="-1.74131">
        <ele>74</ele>
        <time>2021-07-25T07:22:23.000Z</time>
      </trkpt>
      <trkpt lat="47.1852" lon="-1.74149">
        <ele>74</ele>
        <time>2021-07-25T07:22:25.000Z</time>
      </trkpt>
      <trkpt lat="47.18517" lon="-1.74167">
        <ele>75</ele>
        <time>2021-07-25T07:22:27.000Z</time>
      </trkpt>
      <trkpt lat="47.18516" lon="-1.74185">
        <ele>74</ele>
        <time>2021-07-25T07:22:29.000Z</time>
      </trkpt>
      <trkpt lat="47.18517" lon="-1.74205">
        <ele>75</ele>
        <time>2021-07-25T07:22:31.000Z</time>
      </trkpt>
      <trkpt lat="47.18517" lon="-1.74223">
        <ele>75</ele>
        <time>2021-07-25T07:22:33.000Z</time>
      </trkpt>
      <trkpt lat="47.18518" lon="-1.74241">
        <ele>76</ele>
        <time>2021-07-25T07:22:35.000Z</time>
      </trkpt>
      <trkpt lat="47.1852" lon="-1.74259">
        <ele>76</ele>
        <time>2021-07-25T07:22:37.000Z</time>
      </trkpt>
      <trkpt lat="47.18521" lon="-1.74277">
        <ele>76</ele>
        <time>2021-07-25T07:22:39.000Z</time>
      </trkpt>
      <trkpt lat="47.18522" lon="-1.74296">
        <ele>76</ele>
        <time>2021-07-25T07:22:41.000Z</time>
      </trkpt>
      <trkpt lat="47.18524" lon="-1.74314">
        <ele>76</ele>
        <time>2021-07-25T07:22:43.000Z</time>
      </trkpt>
      <trkpt lat="47.18525" lon="-1.74332">
        <ele>76</ele>
        <time>2021-07-25T07:22:45.000Z</time>
      </trkpt>
      <trkpt lat="47.18525" lon="-1.7435">
        <ele>77</ele>
        <time>2021-07-25T07:22:47.000Z</time>
      </trkpt>
      <trkpt lat="47.18526" lon="-1.74368">
        <ele>77</ele>
        <time>2021-07-25T07:22:49.000Z</time>
      </trkpt>
      <trkpt lat="47.18526" lon="-1.74387">
        <ele>77</ele>
        <time>2021-07-25T07:22:51.000Z</time>
      </trkpt>
      <trkpt lat="47.18526" lon="-1.74406">
        <ele>77</ele>
        <time>2021-07-25T07:22:53.000Z</time>
      </trkpt>
      <trkpt lat="47.18526" lon="-1.74425">
        <ele>77</ele>
        <time>2021-07-25T07:22:55.000Z</time>
      </trkpt>
      <trkpt lat="47.18525" lon="-1.74444">
        <ele>77</ele>
        <time>2021-07-25T07:22:57.000Z</time>
      </trkpt>
      <trkpt lat="47.18524" lon="-1.74464">
        <ele>77</ele>
        <time>2021-07-25T07:22:59.000Z</time>
      </trkpt>
      <trkpt lat="47.18523" lon="-1.74483">
        <ele>77</ele>
        <time>2021-07-25T07:23:01.000Z</time>
      </trkpt>
      <trkpt lat="47.18522" lon="-1.74502">
        <ele>77</ele>
        <time>2021-07-25T07:23:03.000Z</time>
      </trkpt>
      <trkpt lat="47.18521" lon="-1.74521">
        <ele>77</ele>
        <time>2021-07-25T07:23:05.000Z</time>
      </trkpt>
      <trkpt lat="47.1852" lon="-1.7454">
        <ele>77</ele>
        <time>2021-07-25T07:23:07.000Z</time>
      </trkpt>
      <trkpt lat="47.18518" lon="-1.74559">
        <ele>77</ele>
        <time>2021-07-25T07:23:09.000Z</time>
      </trkpt>
      <trkpt lat="47.18515" lon="-1.74577">
        <ele>78</ele>
        <time>2021-07-25T07:23:11.000Z</time>
      </trkpt>
      <trkpt lat="47.18513" lon="-1.74597">
        <ele>78</ele>
        <time>2021-07-25T07:23:13.000Z</time>
      </trkpt>
      <trkpt lat="47.18511" lon="-1.74616">
        <ele>78</ele>
        <time>2021-07-25T07:23:15.000Z</time>
      </trkpt>
      <trkpt lat="47.18509" lon="-1.74634">
        <ele>78</ele>
        <time>2021-07-25T07:23:17.000Z</time>
      </trkpt>
      <trkpt lat="47.18508" lon="-1.74653">
        <ele>78</ele>
        <time>2021-07-25T07:23:19.000Z</time>
      </trkpt>
      <trkpt lat="47.18506" lon="-1.74672">
        <ele>78</ele>
        <time>2021-07-25T07:23:21.000Z</time>
      </trkpt>
      <trkpt lat="47.18504" lon="-1.7469">
        <ele>78</ele>
        <time>2021-07-25T07:23:23.000Z</time>
      </trkpt>
      <trkpt lat="47.18502" lon="-1.74708">
        <ele>78</ele>
        <time>2021-07-25T07:23:25.000Z</time>
      </trkpt>
      <trkpt lat="47.185" lon="-1.74726">
        <ele>78</ele>
        <time>2021-07-25T07:23:27.000Z</time>
      </trkpt>
      <trkpt lat="47.18498" lon="-1.74744">
        <ele>78</ele>
        <time>2021-07-25T07:23:29.000Z</time>
      </trkpt>
      <trkpt lat="47.18495" lon="-1.74763">
        <ele>78</ele>
        <time>2021-07-25T07:23:31.000Z</time>
      </trkpt>
      <trkpt lat="47.18492" lon="-1.74781">
        <ele>78</ele>
        <time>2021-07-25T07:23:33.000Z</time>
      </trkpt>
      <trkpt lat="47.18489" lon="-1.74798">
        <ele>78</ele>
        <time>2021-07-25T07:23:35.000Z</time>
      </trkpt>
      <trkpt lat="47.18486" lon="-1.74817">
        <ele>78</ele>
        <time>2021-07-25T07:23:37.000Z</time>
      </trkpt>
      <trkpt lat="47.18483" lon="-1.74834">
        <ele>77</ele>
        <time>2021-07-25T07:23:39.000Z</time>
      </trkpt>
      <trkpt lat="47.1848" lon="-1.74851">
        <ele>77</ele>
        <time>2021-07-25T07:23:41.000Z</time>
      </trkpt>
      <trkpt lat="47.18476" lon="-1.7487">
        <ele>77</ele>
        <time>2021-07-25T07:23:43.000Z</time>
      </trkpt>
      <trkpt lat="47.18473" lon="-1.74889">
        <ele>77</ele>
        <time>2021-07-25T07:23:45.000Z</time>
      </trkpt>
      <trkpt lat="47.18469" lon="-1.74908">
        <ele>75</ele>
        <time>2021-07-25T07:23:47.000Z</time>
      </trkpt>
      <trkpt lat="47.18465" lon="-1.74927">
        <ele>75</ele>
        <time>2021-07-25T07:23:49.000Z</time>
      </trkpt>
      <trkpt lat="47.18461" lon="-1.74946">
        <ele>75</ele>
        <time>2021-07-25T07:23:51.000Z</time>
      </trkpt>
      <trkpt lat="47.18458" lon="-1.74965">
        <ele>75</ele>
        <time>2021-07-25T07:23:53.000Z</time>
      </trkpt>
      <trkpt lat="47.18455" lon="-1.74984">
        <ele>74</ele>
        <time>2021-07-25T07:23:55.000Z</time>
      </trkpt>
      <trkpt lat="47.18451" lon="-1.75004">
        <ele>74</ele>
        <time>2021-07-25T07:23:57.000Z</time>
      </trkpt>
      <trkpt lat="47.18447" lon="-1.75024">
        <ele>73</ele>
        <time>2021-07-25T07:23:59.000Z</time>
      </trkpt>
      <trkpt lat="47.18442" lon="-1.75045">
        <ele>72</ele>
        <time>2021-07-25T07:24:01.000Z</time>
      </trkpt>
      <trkpt lat="47.18438" lon="-1.75065">
        <ele>72</ele>
        <time>2021-07-25T07:24:03.000Z</time>
      </trkpt>
      <trkpt lat="47.18434" lon="-1.75086">
        <ele>72</ele>
        <time>2021-07-25T07:24:05.000Z</time>
      </trkpt>
      <trkpt lat="47.18431" lon="-1.75106">
        <ele>72</ele>
        <time>2021-07-25T07:24:07.000Z</time>
      </trkpt>
      <trkpt lat="47.18427" lon="-1.75127">
        <ele>72</ele>
        <time>2021-07-25T07:24:09.000Z</time>
      </trkpt>
      <trkpt lat="47.18424" lon="-1.75147">
        <ele>71</ele>
        <time>2021-07-25T07:24:11.000Z</time>
      </trkpt>
      <trkpt lat="47.1842" lon="-1.75167">
        <ele>71</ele>
        <time>2021-07-25T07:24:13.000Z</time>
      </trkpt>
      <trkpt lat="47.18416" lon="-1.75186">
        <ele>71</ele>
        <time>2021-07-25T07:24:15.000Z</time>
      </trkpt>
      <trkpt lat="47.18413" lon="-1.75206">
        <ele>70</ele>
        <time>2021-07-25T07:24:17.000Z</time>
      </trkpt>
      <trkpt lat="47.18409" lon="-1.75226">
        <ele>70</ele>
        <time>2021-07-25T07:24:19.000Z</time>
      </trkpt>
      <trkpt lat="47.18406" lon="-1.75246">
        <ele>70</ele>
        <time>2021-07-25T07:24:21.000Z</time>
      </trkpt>
      <trkpt lat="47.18404" lon="-1.75265">
        <ele>70</ele>
        <time>2021-07-25T07:24:23.000Z</time>
      </trkpt>
      <trkpt lat="47.18402" lon="-1.75284">
        <ele>70</ele>
        <time>2021-07-25T07:24:25.000Z</time>
      </trkpt>
      <trkpt lat="47.184" lon="-1.75303">
        <ele>70</ele>
        <time>2021-07-25T07:24:27.000Z</time>
      </trkpt>
      <trkpt lat="47.18398" lon="-1.75321">
        <ele>69</ele>
        <time>2021-07-25T07:24:29.000Z</time>
      </trkpt>
      <trkpt lat="47.18397" lon="-1.7534">
        <ele>69</ele>
        <time>2021-07-25T07:24:31.000Z</time>
      </trkpt>
      <trkpt lat="47.18396" lon="-1.75359">
        <ele>69</ele>
        <time>2021-07-25T07:24:33.000Z</time>
      </trkpt>
      <trkpt lat="47.18397" lon="-1.75377">
        <ele>68</ele>
        <time>2021-07-25T07:24:35.000Z</time>
      </trkpt>
      <trkpt lat="47.18399" lon="-1.75395">
        <ele>67</ele>
        <time>2021-07-25T07:24:37.000Z</time>
      </trkpt>
      <trkpt lat="47.18403" lon="-1.75412">
        <ele>68</ele>
        <time>2021-07-25T07:24:39.000Z</time>
      </trkpt>
      <trkpt lat="47.18402" lon="-1.75431">
        <ele>68</ele>
        <time>2021-07-25T07:24:41.000Z</time>
      </trkpt>
      <trkpt lat="47.18399" lon="-1.7545">
        <ele>68</ele>
        <time>2021-07-25T07:24:43.000Z</time>
      </trkpt>
      <trkpt lat="47.18398" lon="-1.75468">
        <ele>68</ele>
        <time>2021-07-25T07:24:45.000Z</time>
      </trkpt>
      <trkpt lat="47.18398" lon="-1.75486">
        <ele>69</ele>
        <time>2021-07-25T07:24:47.000Z</time>
      </trkpt>
      <trkpt lat="47.18399" lon="-1.75504">
        <ele>69</ele>
        <time>2021-07-25T07:24:49.000Z</time>
      </trkpt>
      <trkpt lat="47.184" lon="-1.75521">
        <ele>70</ele>
        <time>2021-07-25T07:24:51.000Z</time>
      </trkpt>
      <trkpt lat="47.18402" lon="-1.7554">
        <ele>70</ele>
        <time>2021-07-25T07:24:53.000Z</time>
      </trkpt>
      <trkpt lat="47.18403" lon="-1.75558">
        <ele>70</ele>
        <time>2021-07-25T07:24:55.000Z</time>
      </trkpt>
      <trkpt lat="47.18404" lon="-1.75576">
        <ele>71</ele>
        <time>2021-07-25T07:24:57.000Z</time>
      </trkpt>
      <trkpt lat="47.18405" lon="-1.75594">
        <ele>71</ele>
        <time>2021-07-25T07:24:59.000Z</time>
      </trkpt>
      <trkpt lat="47.18407" lon="-1.75613">
        <ele>72</ele>
        <time>2021-07-25T07:25:01.000Z</time>
      </trkpt>
      <trkpt lat="47.18408" lon="-1.75631">
        <ele>72</ele>
        <time>2021-07-25T07:25:03.000Z</time>
      </trkpt>
      <trkpt lat="47.18408" lon="-1.7565">
        <ele>73</ele>
        <time>2021-07-25T07:25:05.000Z</time>
      </trkpt>
      <trkpt lat="47.18409" lon="-1.75668">
        <ele>73</ele>
        <time>2021-07-25T07:25:07.000Z</time>
      </trkpt>
      <trkpt lat="47.18409" lon="-1.75685">
        <ele>73</ele>
        <time>2021-07-25T07:25:09.000Z</time>
      </trkpt>
      <trkpt lat="47.18409" lon="-1.75703">
        <ele>73</ele>
        <time>2021-07-25T07:25:11.000Z</time>
      </trkpt>
      <trkpt lat="47.18408" lon="-1.75721">
        <ele>73</ele>
        <time>2021-07-25T07:25:13.000Z</time>
      </trkpt>
      <trkpt lat="47.18408" lon="-1.75738">
        <ele>73</ele>
        <time>2021-07-25T07:25:15.000Z</time>
      </trkpt>
      <trkpt lat="47.18407" lon="-1.75755">
        <ele>73</ele>
        <time>2021-07-25T07:25:17.000Z</time>
      </trkpt>
      <trkpt lat="47.18405" lon="-1.75772">
        <ele>73</ele>
        <time>2021-07-25T07:25:19.000Z</time>
      </trkpt>
      <trkpt lat="47.18403" lon="-1.7579">
        <ele>72</ele>
        <time>2021-07-25T07:25:21.000Z</time>
      </trkpt>
      <trkpt lat="47.18401" lon="-1.75808">
        <ele>72</ele>
        <time>2021-07-25T07:25:23.000Z</time>
      </trkpt>
      <trkpt lat="47.18399" lon="-1.75825">
        <ele>72</ele>
        <time>2021-07-25T07:25:25.000Z</time>
      </trkpt>
      <trkpt lat="47.18397" lon="-1.75843">
        <ele>72</ele>
        <time>2021-07-25T07:25:27.000Z</time>
      </trkpt>
      <trkpt lat="47.18395" lon="-1.75861">
        <ele>71</ele>
        <time>2021-07-25T07:25:29.000Z</time>
      </trkpt>
      <trkpt lat="47.18393" lon="-1.75879">
        <ele>71</ele>
        <time>2021-07-25T07:25:31.000Z</time>
      </trkpt>
      <trkpt lat="47.18391" lon="-1.75898">
        <ele>70</ele>
        <time>2021-07-25T07:25:33.000Z</time>
      </trkpt>
      <trkpt lat="47.18389" lon="-1.75916">
        <ele>70</ele>
        <time>2021-07-25T07:25:35.000Z</time>
      </trkpt>
      <trkpt lat="47.18387" lon="-1.75934">
        <ele>70</ele>
        <time>2021-07-25T07:25:37.000Z</time>
      </trkpt>
      <trkpt lat="47.18384" lon="-1.75953">
        <ele>69</ele>
        <time>2021-07-25T07:25:39.000Z</time>
      </trkpt>
      <trkpt lat="47.18382" lon="-1.75971">
        <ele>69</ele>
        <time>2021-07-25T07:25:41.000Z</time>
      </trkpt>
      <trkpt lat="47.1838" lon="-1.7599">
        <ele>69</ele>
        <time>2021-07-25T07:25:43.000Z</time>
      </trkpt>
      <trkpt lat="47.18377" lon="-1.76009">
        <ele>68</ele>
        <time>2021-07-25T07:25:45.000Z</time>
      </trkpt>
      <trkpt lat="47.18376" lon="-1.76028">
        <ele>68</ele>
        <time>2021-07-25T07:25:47.000Z</time>
      </trkpt>
      <trkpt lat="47.18373" lon="-1.76047">
        <ele>68</ele>
        <time>2021-07-25T07:25:49.000Z</time>
      </trkpt>
      <trkpt lat="47.18371" lon="-1.76066">
        <ele>67</ele>
        <time>2021-07-25T07:25:51.000Z</time>
      </trkpt>
      <trkpt lat="47.18369" lon="-1.76086">
        <ele>67</ele>
        <time>2021-07-25T07:25:53.000Z</time>
      </trkpt>
      <trkpt lat="47.18366" lon="-1.76106">
        <ele>67</ele>
        <time>2021-07-25T07:25:55.000Z</time>
      </trkpt>
      <trkpt lat="47.18364" lon="-1.76126">
        <ele>66</ele>
        <time>2021-07-25T07:25:57.000Z</time>
      </trkpt>
      <trkpt lat="47.18362" lon="-1.76145">
        <ele>65</ele>
        <time>2021-07-25T07:25:59.000Z</time>
      </trkpt>
      <trkpt lat="47.18359" lon="-1.76164">
        <ele>65</ele>
        <time>2021-07-25T07:26:01.000Z</time>
      </trkpt>
      <trkpt lat="47.18357" lon="-1.76184">
        <ele>65</ele>
        <time>2021-07-25T07:26:03.000Z</time>
      </trkpt>
      <trkpt lat="47.18354" lon="-1.76203">
        <ele>65</ele>
        <time>2021-07-25T07:26:05.000Z</time>
      </trkpt>
      <trkpt lat="47.18352" lon="-1.76223">
        <ele>65</ele>
        <time>2021-07-25T07:26:07.000Z</time>
      </trkpt>
      <trkpt lat="47.18349" lon="-1.76242">
        <ele>64</ele>
        <time>2021-07-25T07:26:09.000Z</time>
      </trkpt>
      <trkpt lat="47.18348" lon="-1.76263">
        <ele>63</ele>
        <time>2021-07-25T07:26:11.000Z</time>
      </trkpt>
      <trkpt lat="47.18347" lon="-1.76283">
        <ele>63</ele>
        <time>2021-07-25T07:26:13.000Z</time>
      </trkpt>
      <trkpt lat="47.18345" lon="-1.76301">
        <ele>64</ele>
        <time>2021-07-25T07:26:15.000Z</time>
      </trkpt>
      <trkpt lat="47.18344" lon="-1.7632">
        <ele>64</ele>
        <time>2021-07-25T07:26:17.000Z</time>
      </trkpt>
      <trkpt lat="47.18343" lon="-1.76339">
        <ele>64</ele>
        <time>2021-07-25T07:26:19.000Z</time>
      </trkpt>
      <trkpt lat="47.18342" lon="-1.76358">
        <ele>64</ele>
        <time>2021-07-25T07:26:21.000Z</time>
      </trkpt>
      <trkpt lat="47.18341" lon="-1.76376">
        <ele>64</ele>
        <time>2021-07-25T07:26:23.000Z</time>
      </trkpt>
      <trkpt lat="47.18341" lon="-1.76395">
        <ele>64</ele>
        <time>2021-07-25T07:26:25.000Z</time>
      </trkpt>
      <trkpt lat="47.18339" lon="-1.76413">
        <ele>65</ele>
        <time>2021-07-25T07:26:27.000Z</time>
      </trkpt>
      <trkpt lat="47.18339" lon="-1.76432">
        <ele>65</ele>
        <time>2021-07-25T07:26:29.000Z</time>
      </trkpt>
      <trkpt lat="47.18338" lon="-1.7645">
        <ele>64</ele>
        <time>2021-07-25T07:26:31.000Z</time>
      </trkpt>
      <trkpt lat="47.18337" lon="-1.7647">
        <ele>65</ele>
        <time>2021-07-25T07:26:33.000Z</time>
      </trkpt>
      <trkpt lat="47.18336" lon="-1.76489">
        <ele>65</ele>
        <time>2021-07-25T07:26:35.000Z</time>
      </trkpt>
      <trkpt lat="47.18335" lon="-1.76508">
        <ele>65</ele>
        <time>2021-07-25T07:26:37.000Z</time>
      </trkpt>
      <trkpt lat="47.18334" lon="-1.76526">
        <ele>65</ele>
        <time>2021-07-25T07:26:39.000Z</time>
      </trkpt>
      <trkpt lat="47.18335" lon="-1.76546">
        <ele>66</ele>
        <time>2021-07-25T07:26:41.000Z</time>
      </trkpt>
      <trkpt lat="47.18335" lon="-1.76564">
        <ele>66</ele>
        <time>2021-07-25T07:26:43.000Z</time>
      </trkpt>
      <trkpt lat="47.18335" lon="-1.76583">
        <ele>66</ele>
        <time>2021-07-25T07:26:45.000Z</time>
      </trkpt>
      <trkpt lat="47.18336" lon="-1.76601">
        <ele>66</ele>
        <time>2021-07-25T07:26:47.000Z</time>
      </trkpt>
      <trkpt lat="47.18338" lon="-1.76619">
        <ele>66</ele>
        <time>2021-07-25T07:26:49.000Z</time>
      </trkpt>
      <trkpt lat="47.18339" lon="-1.76637">
        <ele>66</ele>
        <time>2021-07-25T07:26:51.000Z</time>
      </trkpt>
      <trkpt lat="47.18341" lon="-1.76656">
        <ele>66</ele>
        <time>2021-07-25T07:26:53.000Z</time>
      </trkpt>
      <trkpt lat="47.18342" lon="-1.76673">
        <ele>67</ele>
        <time>2021-07-25T07:26:55.000Z</time>
      </trkpt>
      <trkpt lat="47.18344" lon="-1.7669">
        <ele>67</ele>
        <time>2021-07-25T07:26:57.000Z</time>
      </trkpt>
      <trkpt lat="47.18346" lon="-1.76706">
        <ele>68</ele>
        <time>2021-07-25T07:26:59.000Z</time>
      </trkpt>
      <trkpt lat="47.18347" lon="-1.76724">
        <ele>68</ele>
        <time>2021-07-25T07:27:01.000Z</time>
      </trkpt>
      <trkpt lat="47.18349" lon="-1.76741">
        <ele>68</ele>
        <time>2021-07-25T07:27:03.000Z</time>
      </trkpt>
      <trkpt lat="47.18351" lon="-1.76758">
        <ele>68</ele>
        <time>2021-07-25T07:27:05.000Z</time>
      </trkpt>
      <trkpt lat="47.18353" lon="-1.76775">
        <ele>69</ele>
        <time>2021-07-25T07:27:07.000Z</time>
      </trkpt>
      <trkpt lat="47.18355" lon="-1.76792">
        <ele>69</ele>
        <time>2021-07-25T07:27:09.000Z</time>
      </trkpt>
      <trkpt lat="47.18357" lon="-1.76809">
        <ele>69</ele>
        <time>2021-07-25T07:27:11.000Z</time>
      </trkpt>
      <trkpt lat="47.18359" lon="-1.76825">
        <ele>70</ele>
        <time>2021-07-25T07:27:13.000Z</time>
      </trkpt>
      <trkpt lat="47.1836" lon="-1.76841">
        <ele>70</ele>
        <time>2021-07-25T07:27:15.000Z</time>
      </trkpt>
      <trkpt lat="47.18362" lon="-1.76858">
        <ele>70</ele>
        <time>2021-07-25T07:27:17.000Z</time>
      </trkpt>
      <trkpt lat="47.18364" lon="-1.76874">
        <ele>70</ele>
        <time>2021-07-25T07:27:19.000Z</time>
      </trkpt>
      <trkpt lat="47.18365" lon="-1.7689">
        <ele>70</ele>
        <time>2021-07-25T07:27:21.000Z</time>
      </trkpt>
      <trkpt lat="47.18367" lon="-1.76907">
        <ele>70</ele>
        <time>2021-07-25T07:27:23.000Z</time>
      </trkpt>
      <trkpt lat="47.18369" lon="-1.76924">
        <ele>71</ele>
        <time>2021-07-25T07:27:25.000Z</time>
      </trkpt>
      <trkpt lat="47.18371" lon="-1.7694">
        <ele>71</ele>
        <time>2021-07-25T07:27:27.000Z</time>
      </trkpt>
      <trkpt lat="47.18373" lon="-1.76957">
        <ele>72</ele>
        <time>2021-07-25T07:27:29.000Z</time>
      </trkpt>
      <trkpt lat="47.18375" lon="-1.76973">
        <ele>73</ele>
        <time>2021-07-25T07:27:31.000Z</time>
      </trkpt>
      <trkpt lat="47.18376" lon="-1.76989">
        <ele>73</ele>
        <time>2021-07-25T07:27:33.000Z</time>
      </trkpt>
      <trkpt lat="47.18377" lon="-1.77006">
        <ele>74</ele>
        <time>2021-07-25T07:27:35.000Z</time>
      </trkpt>
      <trkpt lat="47.18377" lon="-1.77023">
        <ele>74</ele>
        <time>2021-07-25T07:27:37.000Z</time>
      </trkpt>
      <trkpt lat="47.18377" lon="-1.77039">
        <ele>74</ele>
        <time>2021-07-25T07:27:39.000Z</time>
      </trkpt>
      <trkpt lat="47.18377" lon="-1.77056">
        <ele>74</ele>
        <time>2021-07-25T07:27:41.000Z</time>
      </trkpt>
      <trkpt lat="47.18376" lon="-1.77073">
        <ele>75</ele>
        <time>2021-07-25T07:27:43.000Z</time>
      </trkpt>
      <trkpt lat="47.18374" lon="-1.7709">
        <ele>75</ele>
        <time>2021-07-25T07:27:45.000Z</time>
      </trkpt>
      <trkpt lat="47.18373" lon="-1.77107">
        <ele>75</ele>
        <time>2021-07-25T07:27:47.000Z</time>
      </trkpt>
      <trkpt lat="47.18371" lon="-1.77122">
        <ele>75</ele>
        <time>2021-07-25T07:27:49.000Z</time>
      </trkpt>
      <trkpt lat="47.18369" lon="-1.77138">
        <ele>75</ele>
        <time>2021-07-25T07:27:51.000Z</time>
      </trkpt>
      <trkpt lat="47.18368" lon="-1.77155">
        <ele>75</ele>
        <time>2021-07-25T07:27:53.000Z</time>
      </trkpt>
      <trkpt lat="47.18366" lon="-1.77171">
        <ele>75</ele>
        <time>2021-07-25T07:27:55.000Z</time>
      </trkpt>
      <trkpt lat="47.18364" lon="-1.77188">
        <ele>75</ele>
        <time>2021-07-25T07:27:57.000Z</time>
      </trkpt>
      <trkpt lat="47.18363" lon="-1.77204">
        <ele>75</ele>
        <time>2021-07-25T07:27:59.000Z</time>
      </trkpt>
      <trkpt lat="47.18362" lon="-1.77221">
        <ele>75</ele>
        <time>2021-07-25T07:28:01.000Z</time>
      </trkpt>
      <trkpt lat="47.18363" lon="-1.77238">
        <ele>76</ele>
        <time>2021-07-25T07:28:03.000Z</time>
      </trkpt>
      <trkpt lat="47.18363" lon="-1.77255">
        <ele>76</ele>
        <time>2021-07-25T07:28:05.000Z</time>
      </trkpt>
      <trkpt lat="47.18364" lon="-1.77272">
        <ele>76</ele>
        <time>2021-07-25T07:28:07.000Z</time>
      </trkpt>
      <trkpt lat="47.18364" lon="-1.77288">
        <ele>76</ele>
        <time>2021-07-25T07:28:09.000Z</time>
      </trkpt>
      <trkpt lat="47.18365" lon="-1.77305">
        <ele>76</ele>
        <time>2021-07-25T07:28:11.000Z</time>
      </trkpt>
      <trkpt lat="47.18365" lon="-1.77322">
        <ele>75</ele>
        <time>2021-07-25T07:28:13.000Z</time>
      </trkpt>
      <trkpt lat="47.18366" lon="-1.77339">
        <ele>75</ele>
        <time>2021-07-25T07:28:15.000Z</time>
      </trkpt>
      <trkpt lat="47.18367" lon="-1.77356">
        <ele>75</ele>
        <time>2021-07-25T07:28:17.000Z</time>
      </trkpt>
      <trkpt lat="47.18368" lon="-1.77374">
        <ele>75</ele>
        <time>2021-07-25T07:28:19.000Z</time>
      </trkpt>
      <trkpt lat="47.18368" lon="-1.7739">
        <ele>75</ele>
        <time>2021-07-25T07:28:21.000Z</time>
      </trkpt>
      <trkpt lat="47.18369" lon="-1.77407">
        <ele>76</ele>
        <time>2021-07-25T07:28:23.000Z</time>
      </trkpt>
      <trkpt lat="47.1837" lon="-1.77425">
        <ele>75</ele>
        <time>2021-07-25T07:28:25.000Z</time>
      </trkpt>
      <trkpt lat="47.18371" lon="-1.77442">
        <ele>76</ele>
        <time>2021-07-25T07:28:27.000Z</time>
      </trkpt>
      <trkpt lat="47.18372" lon="-1.77459">
        <ele>76</ele>
        <time>2021-07-25T07:28:29.000Z</time>
      </trkpt>
      <trkpt lat="47.18373" lon="-1.77476">
        <ele>77</ele>
        <time>2021-07-25T07:28:31.000Z</time>
      </trkpt>
      <trkpt lat="47.18373" lon="-1.77493">
        <ele>77</ele>
        <time>2021-07-25T07:28:33.000Z</time>
      </trkpt>
      <trkpt lat="47.18372" lon="-1.7751">
        <ele>77</ele>
        <time>2021-07-25T07:28:35.000Z</time>
      </trkpt>
      <trkpt lat="47.18371" lon="-1.77526">
        <ele>77</ele>
        <time>2021-07-25T07:28:37.000Z</time>
      </trkpt>
      <trkpt lat="47.18369" lon="-1.77544">
        <ele>77</ele>
        <time>2021-07-25T07:28:39.000Z</time>
      </trkpt>
      <trkpt lat="47.18366" lon="-1.77562">
        <ele>76</ele>
        <time>2021-07-25T07:28:41.000Z</time>
      </trkpt>
      <trkpt lat="47.18363" lon="-1.77579">
        <ele>76</ele>
        <time>2021-07-25T07:28:43.000Z</time>
      </trkpt>
      <trkpt lat="47.18358" lon="-1.77595">
        <ele>76</ele>
        <time>2021-07-25T07:28:45.000Z</time>
      </trkpt>
      <trkpt lat="47.18354" lon="-1.77611">
        <ele>76</ele>
        <time>2021-07-25T07:28:47.000Z</time>
      </trkpt>
      <trkpt lat="47.18348" lon="-1.77628">
        <ele>75</ele>
        <time>2021-07-25T07:28:49.000Z</time>
      </trkpt>
      <trkpt lat="47.18343" lon="-1.77644">
        <ele>75</ele>
        <time>2021-07-25T07:28:51.000Z</time>
      </trkpt>
      <trkpt lat="47.18338" lon="-1.77661">
        <ele>75</ele>
        <time>2021-07-25T07:28:53.000Z</time>
      </trkpt>
      <trkpt lat="47.18332" lon="-1.77678">
        <ele>75</ele>
        <time>2021-07-25T07:28:55.000Z</time>
      </trkpt>
      <trkpt lat="47.18326" lon="-1.77696">
        <ele>74</ele>
        <time>2021-07-25T07:28:57.000Z</time>
      </trkpt>
      <trkpt lat="47.1832" lon="-1.77713">
        <ele>75</ele>
        <time>2021-07-25T07:28:59.000Z</time>
      </trkpt>
      <trkpt lat="47.18314" lon="-1.77731">
        <ele>75</ele>
        <time>2021-07-25T07:29:01.000Z</time>
      </trkpt>
      <trkpt lat="47.18309" lon="-1.77748">
        <ele>75</ele>
        <time>2021-07-25T07:29:03.000Z</time>
      </trkpt>
      <trkpt lat="47.18303" lon="-1.77765">
        <ele>75</ele>
        <time>2021-07-25T07:29:05.000Z</time>
      </trkpt>
      <trkpt lat="47.18298" lon="-1.77782">
        <ele>75</ele>
        <time>2021-07-25T07:29:07.000Z</time>
      </trkpt>
      <trkpt lat="47.18292" lon="-1.778">
        <ele>75</ele>
        <time>2021-07-25T07:29:09.000Z</time>
      </trkpt>
      <trkpt lat="47.18286" lon="-1.77817">
        <ele>75</ele>
        <time>2021-07-25T07:29:11.000Z</time>
      </trkpt>
      <trkpt lat="47.18281" lon="-1.77833">
        <ele>74</ele>
        <time>2021-07-25T07:29:13.000Z</time>
      </trkpt>
      <trkpt lat="47.18276" lon="-1.77849">
        <ele>74</ele>
        <time>2021-07-25T07:29:15.000Z</time>
      </trkpt>
      <trkpt lat="47.18275" lon="-1.77865">
        <ele>74</ele>
        <time>2021-07-25T07:29:17.000Z</time>
      </trkpt>
      <trkpt lat="47.18282" lon="-1.77877">
        <ele>75</ele>
        <time>2021-07-25T07:29:19.000Z</time>
      </trkpt>
      <trkpt lat="47.18293" lon="-1.77886">
        <ele>75</ele>
        <time>2021-07-25T07:29:21.000Z</time>
      </trkpt>
      <trkpt lat="47.18302" lon="-1.77895">
        <ele>75</ele>
        <time>2021-07-25T07:29:23.000Z</time>
      </trkpt>
      <trkpt lat="47.18314" lon="-1.77901">
        <ele>75</ele>
        <time>2021-07-25T07:29:25.000Z</time>
      </trkpt>
      <trkpt lat="47.18325" lon="-1.77902">
        <ele>76</ele>
        <time>2021-07-25T07:29:27.000Z</time>
      </trkpt>
      <trkpt lat="47.18336" lon="-1.77903">
        <ele>77</ele>
        <time>2021-07-25T07:29:29.000Z</time>
      </trkpt>
      <trkpt lat="47.18347" lon="-1.77904">
        <ele>77</ele>
        <time>2021-07-25T07:29:31.000Z</time>
      </trkpt>
      <trkpt lat="47.18358" lon="-1.77904">
        <ele>78</ele>
        <time>2021-07-25T07:29:33.000Z</time>
      </trkpt>
      <trkpt lat="47.18369" lon="-1.77903">
        <ele>78</ele>
        <time>2021-07-25T07:29:35.000Z</time>
      </trkpt>
      <trkpt lat="47.18381" lon="-1.77902">
        <ele>79</ele>
        <time>2021-07-25T07:29:37.000Z</time>
      </trkpt>
      <trkpt lat="47.18392" lon="-1.77902">
        <ele>79</ele>
        <time>2021-07-25T07:29:39.000Z</time>
      </trkpt>
      <trkpt lat="47.18403" lon="-1.77901">
        <ele>80</ele>
        <time>2021-07-25T07:29:41.000Z</time>
      </trkpt>
      <trkpt lat="47.18414" lon="-1.77902">
        <ele>80</ele>
        <time>2021-07-25T07:29:43.000Z</time>
      </trkpt>
      <trkpt lat="47.18425" lon="-1.77901">
        <ele>81</ele>
        <time>2021-07-25T07:29:45.000Z</time>
      </trkpt>
      <trkpt lat="47.18436" lon="-1.779">
        <ele>81</ele>
        <time>2021-07-25T07:29:47.000Z</time>
      </trkpt>
      <trkpt lat="47.18447" lon="-1.779">
        <ele>81</ele>
        <time>2021-07-25T07:29:49.000Z</time>
      </trkpt>
      <trkpt lat="47.18457" lon="-1.779">
        <ele>82</ele>
        <time>2021-07-25T07:29:51.000Z</time>
      </trkpt>
      <trkpt lat="47.18467" lon="-1.779">
        <ele>82</ele>
        <time>2021-07-25T07:29:53.000Z</time>
      </trkpt>
      <trkpt lat="47.18478" lon="-1.77899">
        <ele>82</ele>
        <time>2021-07-25T07:29:55.000Z</time>
      </trkpt>
      <trkpt lat="47.18489" lon="-1.77897">
        <ele>82</ele>
        <time>2021-07-25T07:29:57.000Z</time>
      </trkpt>
      <trkpt lat="47.18501" lon="-1.77892">
        <ele>82</ele>
        <time>2021-07-25T07:29:59.000Z</time>
      </trkpt>
      <trkpt lat="47.18512" lon="-1.77885">
        <ele>82</ele>
        <time>2021-07-25T07:30:01.000Z</time>
      </trkpt>
      <trkpt lat="47.18524" lon="-1.77879">
        <ele>82</ele>
        <time>2021-07-25T07:30:03.000Z</time>
      </trkpt>
      <trkpt lat="47.18536" lon="-1.77886">
        <ele>81</ele>
        <time>2021-07-25T07:30:05.000Z</time>
      </trkpt>
      <trkpt lat="47.18543" lon="-1.77902">
        <ele>81</ele>
        <time>2021-07-25T07:30:07.000Z</time>
      </trkpt>
      <trkpt lat="47.18547" lon="-1.77919">
        <ele>81</ele>
        <time>2021-07-25T07:30:09.000Z</time>
      </trkpt>
      <trkpt lat="47.18555" lon="-1.77934">
        <ele>80</ele>
        <time>2021-07-25T07:30:11.000Z</time>
      </trkpt>
      <trkpt lat="47.18559" lon="-1.77951">
        <ele>80</ele>
        <time>2021-07-25T07:30:13.000Z</time>
      </trkpt>
      <trkpt lat="47.18557" lon="-1.7797">
        <ele>80</ele>
        <time>2021-07-25T07:30:15.000Z</time>
      </trkpt>
      <trkpt lat="47.18548" lon="-1.77987">
        <ele>79</ele>
        <time>2021-07-25T07:30:17.000Z</time>
      </trkpt>
      <trkpt lat="47.18539" lon="-1.78001">
        <ele>78</ele>
        <time>2021-07-25T07:30:19.000Z</time>
      </trkpt>
      <trkpt lat="47.18532" lon="-1.7802">
        <ele>78</ele>
        <time>2021-07-25T07:30:21.000Z</time>
      </trkpt>
      <trkpt lat="47.18528" lon="-1.7804">
        <ele>77</ele>
        <time>2021-07-25T07:30:23.000Z</time>
      </trkpt>
      <trkpt lat="47.18526" lon="-1.7806">
        <ele>77</ele>
        <time>2021-07-25T07:30:25.000Z</time>
      </trkpt>
      <trkpt lat="47.18523" lon="-1.78081">
        <ele>77</ele>
        <time>2021-07-25T07:30:27.000Z</time>
      </trkpt>
      <trkpt lat="47.18521" lon="-1.78101">
        <ele>76</ele>
        <time>2021-07-25T07:30:29.000Z</time>
      </trkpt>
      <trkpt lat="47.18518" lon="-1.7812">
        <ele>76</ele>
        <time>2021-07-25T07:30:31.000Z</time>
      </trkpt>
      <trkpt lat="47.18516" lon="-1.78139">
        <ele>76</ele>
        <time>2021-07-25T07:30:33.000Z</time>
      </trkpt>
      <trkpt lat="47.18515" lon="-1.7816">
        <ele>76</ele>
        <time>2021-07-25T07:30:35.000Z</time>
      </trkpt>
      <trkpt lat="47.18515" lon="-1.7818">
        <ele>75</ele>
        <time>2021-07-25T07:30:37.000Z</time>
      </trkpt>
      <trkpt lat="47.18515" lon="-1.78201">
        <ele>75</ele>
        <time>2021-07-25T07:30:39.000Z</time>
      </trkpt>
      <trkpt lat="47.18515" lon="-1.7822">
        <ele>74</ele>
        <time>2021-07-25T07:30:41.000Z</time>
      </trkpt>
      <trkpt lat="47.18517" lon="-1.7824">
        <ele>74</ele>
        <time>2021-07-25T07:30:43.000Z</time>
      </trkpt>
      <trkpt lat="47.18518" lon="-1.7826">
        <ele>74</ele>
        <time>2021-07-25T07:30:45.000Z</time>
      </trkpt>
      <trkpt lat="47.1852" lon="-1.7828">
        <ele>74</ele>
        <time>2021-07-25T07:30:47.000Z</time>
      </trkpt>
      <trkpt lat="47.18522" lon="-1.783">
        <ele>74</ele>
        <time>2021-07-25T07:30:49.000Z</time>
      </trkpt>
      <trkpt lat="47.18526" lon="-1.78328">
        <ele>74</ele>
        <time>2021-07-25T07:30:52.000Z</time>
      </trkpt>
      <trkpt lat="47.18529" lon="-1.78357">
        <ele>73</ele>
        <time>2021-07-25T07:30:55.000Z</time>
      </trkpt>
      <trkpt lat="47.18533" lon="-1.78387">
        <ele>73</ele>
        <time>2021-07-25T07:30:58.000Z</time>
      </trkpt>
      <trkpt lat="47.18535" lon="-1.78407">
        <ele>73</ele>
        <time>2021-07-25T07:31:00.000Z</time>
      </trkpt>
      <trkpt lat="47.18539" lon="-1.78436">
        <ele>73</ele>
        <time>2021-07-25T07:31:03.000Z</time>
      </trkpt>
      <trkpt lat="47.18541" lon="-1.78456">
        <ele>73</ele>
        <time>2021-07-25T07:31:05.000Z</time>
      </trkpt>
      <trkpt lat="47.18543" lon="-1.78475">
        <ele>73</ele>
        <time>2021-07-25T07:31:07.000Z</time>
      </trkpt>
      <trkpt lat="47.18545" lon="-1.78495">
        <ele>74</ele>
        <time>2021-07-25T07:31:09.000Z</time>
      </trkpt>
      <trkpt lat="47.18548" lon="-1.78514">
        <ele>74</ele>
        <time>2021-07-25T07:31:11.000Z</time>
      </trkpt>
      <trkpt lat="47.18551" lon="-1.78533">
        <ele>74</ele>
        <time>2021-07-25T07:31:13.000Z</time>
      </trkpt>
      <trkpt lat="47.18555" lon="-1.78551">
        <ele>73</ele>
        <time>2021-07-25T07:31:15.000Z</time>
      </trkpt>
      <trkpt lat="47.18562" lon="-1.78576">
        <ele>74</ele>
        <time>2021-07-25T07:31:18.000Z</time>
      </trkpt>
      <trkpt lat="47.18572" lon="-1.786">
        <ele>74</ele>
        <time>2021-07-25T07:31:21.000Z</time>
      </trkpt>
      <trkpt lat="47.18578" lon="-1.78616">
        <ele>74</ele>
        <time>2021-07-25T07:31:23.000Z</time>
      </trkpt>
      <trkpt lat="47.18584" lon="-1.78633">
        <ele>73</ele>
        <time>2021-07-25T07:31:25.000Z</time>
      </trkpt>
      <trkpt lat="47.1859" lon="-1.78649">
        <ele>73</ele>
        <time>2021-07-25T07:31:27.000Z</time>
      </trkpt>
      <trkpt lat="47.18595" lon="-1.78666">
        <ele>74</ele>
        <time>2021-07-25T07:31:29.000Z</time>
      </trkpt>
      <trkpt lat="47.18599" lon="-1.78683">
        <ele>74</ele>
        <time>2021-07-25T07:31:31.000Z</time>
      </trkpt>
      <trkpt lat="47.18604" lon="-1.78701">
        <ele>74</ele>
        <time>2021-07-25T07:31:33.000Z</time>
      </trkpt>
      <trkpt lat="47.18608" lon="-1.78718">
        <ele>74</ele>
        <time>2021-07-25T07:31:35.000Z</time>
      </trkpt>
      <trkpt lat="47.18612" lon="-1.78736">
        <ele>74</ele>
        <time>2021-07-25T07:31:37.000Z</time>
      </trkpt>
      <trkpt lat="47.18617" lon="-1.78753">
        <ele>74</ele>
        <time>2021-07-25T07:31:39.000Z</time>
      </trkpt>
      <trkpt lat="47.18621" lon="-1.7877">
        <ele>74</ele>
        <time>2021-07-25T07:31:41.000Z</time>
      </trkpt>
      <trkpt lat="47.18625" lon="-1.78787">
        <ele>74</ele>
        <time>2021-07-25T07:31:43.000Z</time>
      </trkpt>
      <trkpt lat="47.18629" lon="-1.78805">
        <ele>74</ele>
        <time>2021-07-25T07:31:45.000Z</time>
      </trkpt>
      <trkpt lat="47.18635" lon="-1.78821">
        <ele>74</ele>
        <time>2021-07-25T07:31:47.000Z</time>
      </trkpt>
      <trkpt lat="47.18643" lon="-1.78835">
        <ele>74</ele>
        <time>2021-07-25T07:31:49.000Z</time>
      </trkpt>
      <trkpt lat="47.18652" lon="-1.78847">
        <ele>74</ele>
        <time>2021-07-25T07:31:51.000Z</time>
      </trkpt>
      <trkpt lat="47.18662" lon="-1.78857">
        <ele>74</ele>
        <time>2021-07-25T07:31:53.000Z</time>
      </trkpt>
      <trkpt lat="47.18673" lon="-1.78865">
        <ele>74</ele>
        <time>2021-07-25T07:31:55.000Z</time>
      </trkpt>
      <trkpt lat="47.18684" lon="-1.78872">
        <ele>74</ele>
        <time>2021-07-25T07:31:57.000Z</time>
      </trkpt>
      <trkpt lat="47.18695" lon="-1.78879">
        <ele>74</ele>
        <time>2021-07-25T07:31:59.000Z</time>
      </trkpt>
      <trkpt lat="47.18704" lon="-1.78887">
        <ele>74</ele>
        <time>2021-07-25T07:32:01.000Z</time>
      </trkpt>
      <trkpt lat="47.18715" lon="-1.78889">
        <ele>73</ele>
        <time>2021-07-25T07:32:03.000Z</time>
      </trkpt>
      <trkpt lat="47.18722" lon="-1.78876">
        <ele>73</ele>
        <time>2021-07-25T07:32:05.000Z</time>
      </trkpt>
      <trkpt lat="47.18728" lon="-1.78859">
        <ele>73</ele>
        <time>2021-07-25T07:32:07.000Z</time>
      </trkpt>
      <trkpt lat="47.18733" lon="-1.78842">
        <ele>73</ele>
        <time>2021-07-25T07:32:09.000Z</time>
      </trkpt>
      <trkpt lat="47.18739" lon="-1.78825">
        <ele>73</ele>
        <time>2021-07-25T07:32:11.000Z</time>
      </trkpt>
      <trkpt lat="47.18745" lon="-1.78808">
        <ele>73</ele>
        <time>2021-07-25T07:32:13.000Z</time>
      </trkpt>
      <trkpt lat="47.18751" lon="-1.78791">
        <ele>73</ele>
        <time>2021-07-25T07:32:15.000Z</time>
      </trkpt>
      <trkpt lat="47.18758" lon="-1.78775">
        <ele>74</ele>
        <time>2021-07-25T07:32:17.000Z</time>
      </trkpt>
      <trkpt lat="47.18765" lon="-1.7876">
        <ele>74</ele>
        <time>2021-07-25T07:32:19.000Z</time>
      </trkpt>
      <trkpt lat="47.18772" lon="-1.78746">
        <ele>75</ele>
        <time>2021-07-25T07:32:21.000Z</time>
      </trkpt>
      <trkpt lat="47.18781" lon="-1.78733">
        <ele>76</ele>
        <time>2021-07-25T07:32:23.000Z</time>
      </trkpt>
      <trkpt lat="47.18792" lon="-1.7872">
        <ele>76</ele>
        <time>2021-07-25T07:32:25.000Z</time>
      </trkpt>
      <trkpt lat="47.18802" lon="-1.78708">
        <ele>76</ele>
        <time>2021-07-25T07:32:27.000Z</time>
      </trkpt>
      <trkpt lat="47.18812" lon="-1.78697">
        <ele>77</ele>
        <time>2021-07-25T07:32:29.000Z</time>
      </trkpt>
      <trkpt lat="47.18823" lon="-1.78686">
        <ele>78</ele>
        <time>2021-07-25T07:32:31.000Z</time>
      </trkpt>
      <trkpt lat="47.18833" lon="-1.78675">
        <ele>78</ele>
        <time>2021-07-25T07:32:33.000Z</time>
      </trkpt>
      <trkpt lat="47.18844" lon="-1.78663">
        <ele>78</ele>
        <time>2021-07-25T07:32:35.000Z</time>
      </trkpt>
      <trkpt lat="47.18856" lon="-1.78661">
        <ele>78</ele>
        <time>2021-07-25T07:32:37.000Z</time>
      </trkpt>
      <trkpt lat="47.18866" lon="-1.78674">
        <ele>77</ele>
        <time>2021-07-25T07:32:39.000Z</time>
      </trkpt>
      <trkpt lat="47.18868" lon="-1.78695">
        <ele>76</ele>
        <time>2021-07-25T07:32:41.000Z</time>
      </trkpt>
      <trkpt lat="47.18871" lon="-1.78715">
        <ele>75</ele>
        <time>2021-07-25T07:32:43.000Z</time>
      </trkpt>
      <trkpt lat="47.18873" lon="-1.78735">
        <ele>75</ele>
        <time>2021-07-25T07:32:45.000Z</time>
      </trkpt>
      <trkpt lat="47.18875" lon="-1.78754">
        <ele>75</ele>
        <time>2021-07-25T07:32:47.000Z</time>
      </trkpt>
      <trkpt lat="47.18877" lon="-1.78774">
        <ele>75</ele>
        <time>2021-07-25T07:32:49.000Z</time>
      </trkpt>
      <trkpt lat="47.18879" lon="-1.78794">
        <ele>74</ele>
        <time>2021-07-25T07:32:51.000Z</time>
      </trkpt>
      <trkpt lat="47.18881" lon="-1.78814">
        <ele>74</ele>
        <time>2021-07-25T07:32:53.000Z</time>
      </trkpt>
      <trkpt lat="47.18882" lon="-1.78834">
        <ele>74</ele>
        <time>2021-07-25T07:32:55.000Z</time>
      </trkpt>
      <trkpt lat="47.18884" lon="-1.78854">
        <ele>74</ele>
        <time>2021-07-25T07:32:57.000Z</time>
      </trkpt>
      <trkpt lat="47.18886" lon="-1.78874">
        <ele>74</ele>
        <time>2021-07-25T07:32:59.000Z</time>
      </trkpt>
      <trkpt lat="47.18888" lon="-1.78893">
        <ele>74</ele>
        <time>2021-07-25T07:33:01.000Z</time>
      </trkpt>
      <trkpt lat="47.1889" lon="-1.78913">
        <ele>74</ele>
        <time>2021-07-25T07:33:03.000Z</time>
      </trkpt>
      <trkpt lat="47.18892" lon="-1.78932">
        <ele>74</ele>
        <time>2021-07-25T07:33:05.000Z</time>
      </trkpt>
      <trkpt lat="47.18893" lon="-1.78952">
        <ele>73</ele>
        <time>2021-07-25T07:33:07.000Z</time>
      </trkpt>
      <trkpt lat="47.18895" lon="-1.78971">
        <ele>73</ele>
        <time>2021-07-25T07:33:09.000Z</time>
      </trkpt>
      <trkpt lat="47.18897" lon="-1.78991">
        <ele>72</ele>
        <time>2021-07-25T07:33:11.000Z</time>
      </trkpt>
      <trkpt lat="47.18899" lon="-1.79011">
        <ele>72</ele>
        <time>2021-07-25T07:33:13.000Z</time>
      </trkpt>
      <trkpt lat="47.18901" lon="-1.79032">
        <ele>72</ele>
        <time>2021-07-25T07:33:15.000Z</time>
      </trkpt>
      <trkpt lat="47.18902" lon="-1.79052">
        <ele>72</ele>
        <time>2021-07-25T07:33:17.000Z</time>
      </trkpt>
      <trkpt lat="47.18904" lon="-1.79071">
        <ele>72</ele>
        <time>2021-07-25T07:33:19.000Z</time>
      </trkpt>
      <trkpt lat="47.18906" lon="-1.79092">
        <ele>72</ele>
        <time>2021-07-25T07:33:21.000Z</time>
      </trkpt>
      <trkpt lat="47.18908" lon="-1.79113">
        <ele>72</ele>
        <time>2021-07-25T07:33:23.000Z</time>
      </trkpt>
      <trkpt lat="47.18911" lon="-1.79133">
        <ele>72</ele>
        <time>2021-07-25T07:33:25.000Z</time>
      </trkpt>
      <trkpt lat="47.18913" lon="-1.79152">
        <ele>71</ele>
        <time>2021-07-25T07:33:27.000Z</time>
      </trkpt>
      <trkpt lat="47.18915" lon="-1.79172">
        <ele>71</ele>
        <time>2021-07-25T07:33:29.000Z</time>
      </trkpt>
      <trkpt lat="47.18919" lon="-1.79192">
        <ele>71</ele>
        <time>2021-07-25T07:33:31.000Z</time>
      </trkpt>
      <trkpt lat="47.18923" lon="-1.79212">
        <ele>71</ele>
        <time>2021-07-25T07:33:33.000Z</time>
      </trkpt>
      <trkpt lat="47.18928" lon="-1.79231">
        <ele>71</ele>
        <time>2021-07-25T07:33:35.000Z</time>
      </trkpt>
      <trkpt lat="47.18932" lon="-1.7925">
        <ele>71</ele>
        <time>2021-07-25T07:33:37.000Z</time>
      </trkpt>
      <trkpt lat="47.18936" lon="-1.79269">
        <ele>71</ele>
        <time>2021-07-25T07:33:39.000Z</time>
      </trkpt>
      <trkpt lat="47.1894" lon="-1.79289">
        <ele>71</ele>
        <time>2021-07-25T07:33:41.000Z</time>
      </trkpt>
      <trkpt lat="47.18944" lon="-1.79308">
        <ele>72</ele>
        <time>2021-07-25T07:33:43.000Z</time>
      </trkpt>
      <trkpt lat="47.18947" lon="-1.79327">
        <ele>71</ele>
        <time>2021-07-25T07:33:45.000Z</time>
      </trkpt>
      <trkpt lat="47.18949" lon="-1.79347">
        <ele>71</ele>
        <time>2021-07-25T07:33:47.000Z</time>
      </trkpt>
      <trkpt lat="47.18952" lon="-1.79364">
        <ele>72</ele>
        <time>2021-07-25T07:33:49.000Z</time>
      </trkpt>
      <trkpt lat="47.18954" lon="-1.79383">
        <ele>72</ele>
        <time>2021-07-25T07:33:51.000Z</time>
      </trkpt>
      <trkpt lat="47.18957" lon="-1.79402">
        <ele>72</ele>
        <time>2021-07-25T07:33:53.000Z</time>
      </trkpt>
      <trkpt lat="47.18961" lon="-1.79421">
        <ele>73</ele>
        <time>2021-07-25T07:33:55.000Z</time>
      </trkpt>
      <trkpt lat="47.18963" lon="-1.79438">
        <ele>73</ele>
        <time>2021-07-25T07:33:57.000Z</time>
      </trkpt>
      <trkpt lat="47.18967" lon="-1.79458">
        <ele>72</ele>
        <time>2021-07-25T07:33:59.000Z</time>
      </trkpt>
      <trkpt lat="47.18971" lon="-1.79478">
        <ele>72</ele>
        <time>2021-07-25T07:34:01.000Z</time>
      </trkpt>
      <trkpt lat="47.18974" lon="-1.79498">
        <ele>71</ele>
        <time>2021-07-25T07:34:03.000Z</time>
      </trkpt>
      <trkpt lat="47.18978" lon="-1.79517">
        <ele>71</ele>
        <time>2021-07-25T07:34:05.000Z</time>
      </trkpt>
      <trkpt lat="47.18982" lon="-1.79536">
        <ele>70</ele>
        <time>2021-07-25T07:34:07.000Z</time>
      </trkpt>
      <trkpt lat="47.18987" lon="-1.79555">
        <ele>70</ele>
        <time>2021-07-25T07:34:09.000Z</time>
      </trkpt>
      <trkpt lat="47.18991" lon="-1.79574">
        <ele>70</ele>
        <time>2021-07-25T07:34:11.000Z</time>
      </trkpt>
      <trkpt lat="47.18995" lon="-1.79592">
        <ele>70</ele>
        <time>2021-07-25T07:34:13.000Z</time>
      </trkpt>
      <trkpt lat="47.18999" lon="-1.7961">
        <ele>70</ele>
        <time>2021-07-25T07:34:15.000Z</time>
      </trkpt>
      <trkpt lat="47.19004" lon="-1.7963">
        <ele>69</ele>
        <time>2021-07-25T07:34:17.000Z</time>
      </trkpt>
      <trkpt lat="47.19008" lon="-1.79648">
        <ele>69</ele>
        <time>2021-07-25T07:34:19.000Z</time>
      </trkpt>
      <trkpt lat="47.19013" lon="-1.79667">
        <ele>69</ele>
        <time>2021-07-25T07:34:21.000Z</time>
      </trkpt>
      <trkpt lat="47.19017" lon="-1.79685">
        <ele>70</ele>
        <time>2021-07-25T07:34:23.000Z</time>
      </trkpt>
      <trkpt lat="47.19021" lon="-1.79702">
        <ele>70</ele>
        <time>2021-07-25T07:34:25.000Z</time>
      </trkpt>
      <trkpt lat="47.19026" lon="-1.79721">
        <ele>71</ele>
        <time>2021-07-25T07:34:27.000Z</time>
      </trkpt>
      <trkpt lat="47.19031" lon="-1.79739">
        <ele>71</ele>
        <time>2021-07-25T07:34:29.000Z</time>
      </trkpt>
      <trkpt lat="47.19037" lon="-1.79756">
        <ele>71</ele>
        <time>2021-07-25T07:34:31.000Z</time>
      </trkpt>
      <trkpt lat="47.19043" lon="-1.79773">
        <ele>71</ele>
        <time>2021-07-25T07:34:33.000Z</time>
      </trkpt>
      <trkpt lat="47.1905" lon="-1.7979">
        <ele>71</ele>
        <time>2021-07-25T07:34:35.000Z</time>
      </trkpt>
      <trkpt lat="47.19057" lon="-1.79806">
        <ele>71</ele>
        <time>2021-07-25T07:34:37.000Z</time>
      </trkpt>
      <trkpt lat="47.19064" lon="-1.79823">
        <ele>71</ele>
        <time>2021-07-25T07:34:39.000Z</time>
      </trkpt>
      <trkpt lat="47.19071" lon="-1.7984">
        <ele>70</ele>
        <time>2021-07-25T07:34:41.000Z</time>
      </trkpt>
      <trkpt lat="47.19078" lon="-1.79857">
        <ele>70</ele>
        <time>2021-07-25T07:34:43.000Z</time>
      </trkpt>
      <trkpt lat="47.19085" lon="-1.79873">
        <ele>70</ele>
        <time>2021-07-25T07:34:45.000Z</time>
      </trkpt>
      <trkpt lat="47.19092" lon="-1.79889">
        <ele>71</ele>
        <time>2021-07-25T07:34:47.000Z</time>
      </trkpt>
      <trkpt lat="47.19099" lon="-1.79904">
        <ele>71</ele>
        <time>2021-07-25T07:34:49.000Z</time>
      </trkpt>
      <trkpt lat="47.19106" lon="-1.79921">
        <ele>71</ele>
        <time>2021-07-25T07:34:51.000Z</time>
      </trkpt>
      <trkpt lat="47.19113" lon="-1.79937">
        <ele>71</ele>
        <time>2021-07-25T07:34:53.000Z</time>
      </trkpt>
      <trkpt lat="47.1912" lon="-1.79953">
        <ele>72</ele>
        <time>2021-07-25T07:34:55.000Z</time>
      </trkpt>
      <trkpt lat="47.19127" lon="-1.79968">
        <ele>71</ele>
        <time>2021-07-25T07:34:57.000Z</time>
      </trkpt>
      <trkpt lat="47.19134" lon="-1.79984">
        <ele>71</ele>
        <time>2021-07-25T07:34:59.000Z</time>
      </trkpt>
      <trkpt lat="47.19141" lon="-1.79999">
        <ele>70</ele>
        <time>2021-07-25T07:35:01.000Z</time>
      </trkpt>
      <trkpt lat="47.19146" lon="-1.80012">
        <ele>69</ele>
        <time>2021-07-25T07:35:03.000Z</time>
      </trkpt>
      <trkpt lat="47.19153" lon="-1.80025">
        <ele>69</ele>
        <time>2021-07-25T07:35:05.000Z</time>
      </trkpt>
      <trkpt lat="47.19161" lon="-1.80041">
        <ele>69</ele>
        <time>2021-07-25T07:35:07.000Z</time>
      </trkpt>
      <trkpt lat="47.19168" lon="-1.80056">
        <ele>69</ele>
        <time>2021-07-25T07:35:09.000Z</time>
      </trkpt>
      <trkpt lat="47.19176" lon="-1.80073">
        <ele>69</ele>
        <time>2021-07-25T07:35:11.000Z</time>
      </trkpt>
      <trkpt lat="47.19183" lon="-1.80089">
        <ele>69</ele>
        <time>2021-07-25T07:35:13.000Z</time>
      </trkpt>
      <trkpt lat="47.19191" lon="-1.80105">
        <ele>69</ele>
        <time>2021-07-25T07:35:15.000Z</time>
      </trkpt>
      <trkpt lat="47.19199" lon="-1.80122">
        <ele>69</ele>
        <time>2021-07-25T07:35:17.000Z</time>
      </trkpt>
      <trkpt lat="47.19206" lon="-1.80138">
        <ele>69</ele>
        <time>2021-07-25T07:35:19.000Z</time>
      </trkpt>
      <trkpt lat="47.19214" lon="-1.80154">
        <ele>69</ele>
        <time>2021-07-25T07:35:21.000Z</time>
      </trkpt>
      <trkpt lat="47.19221" lon="-1.80171">
        <ele>69</ele>
        <time>2021-07-25T07:35:23.000Z</time>
      </trkpt>
      <trkpt lat="47.19227" lon="-1.80188">
        <ele>70</ele>
        <time>2021-07-25T07:35:25.000Z</time>
      </trkpt>
      <trkpt lat="47.19233" lon="-1.80205">
        <ele>70</ele>
        <time>2021-07-25T07:35:27.000Z</time>
      </trkpt>
      <trkpt lat="47.19239" lon="-1.80223">
        <ele>71</ele>
        <time>2021-07-25T07:35:29.000Z</time>
      </trkpt>
      <trkpt lat="47.19244" lon="-1.80241">
        <ele>71</ele>
        <time>2021-07-25T07:35:31.000Z</time>
      </trkpt>
      <trkpt lat="47.19249" lon="-1.8026">
        <ele>71</ele>
        <time>2021-07-25T07:35:33.000Z</time>
      </trkpt>
      <trkpt lat="47.19255" lon="-1.80278">
        <ele>70</ele>
        <time>2021-07-25T07:35:35.000Z</time>
      </trkpt>
      <trkpt lat="47.1926" lon="-1.80297">
        <ele>70</ele>
        <time>2021-07-25T07:35:37.000Z</time>
      </trkpt>
      <trkpt lat="47.19265" lon="-1.80315">
        <ele>70</ele>
        <time>2021-07-25T07:35:39.000Z</time>
      </trkpt>
      <trkpt lat="47.1927" lon="-1.80333">
        <ele>70</ele>
        <time>2021-07-25T07:35:41.000Z</time>
      </trkpt>
      <trkpt lat="47.19276" lon="-1.80351">
        <ele>70</ele>
        <time>2021-07-25T07:35:43.000Z</time>
      </trkpt>
      <trkpt lat="47.19282" lon="-1.80369">
        <ele>69</ele>
        <time>2021-07-25T07:35:45.000Z</time>
      </trkpt>
      <trkpt lat="47.19288" lon="-1.80388">
        <ele>69</ele>
        <time>2021-07-25T07:35:47.000Z</time>
      </trkpt>
      <trkpt lat="47.19294" lon="-1.80406">
        <ele>68</ele>
        <time>2021-07-25T07:35:49.000Z</time>
      </trkpt>
      <trkpt lat="47.193" lon="-1.80425">
        <ele>68</ele>
        <time>2021-07-25T07:35:51.000Z</time>
      </trkpt>
      <trkpt lat="47.19306" lon="-1.80442">
        <ele>68</ele>
        <time>2021-07-25T07:35:53.000Z</time>
      </trkpt>
      <trkpt lat="47.19312" lon="-1.8046">
        <ele>67</ele>
        <time>2021-07-25T07:35:55.000Z</time>
      </trkpt>
      <trkpt lat="47.19318" lon="-1.80478">
        <ele>66</ele>
        <time>2021-07-25T07:35:57.000Z</time>
      </trkpt>
      <trkpt lat="47.19324" lon="-1.80496">
        <ele>66</ele>
        <time>2021-07-25T07:35:59.000Z</time>
      </trkpt>
      <trkpt lat="47.1933" lon="-1.80514">
        <ele>66</ele>
        <time>2021-07-25T07:36:01.000Z</time>
      </trkpt>
      <trkpt lat="47.19336" lon="-1.80534">
        <ele>65</ele>
        <time>2021-07-25T07:36:03.000Z</time>
      </trkpt>
      <trkpt lat="47.19341" lon="-1.80554">
        <ele>66</ele>
        <time>2021-07-25T07:36:05.000Z</time>
      </trkpt>
      <trkpt lat="47.19345" lon="-1.80573">
        <ele>67</ele>
        <time>2021-07-25T07:36:07.000Z</time>
      </trkpt>
      <trkpt lat="47.19348" lon="-1.80592">
        <ele>67</ele>
        <time>2021-07-25T07:36:09.000Z</time>
      </trkpt>
      <trkpt lat="47.1935" lon="-1.80611">
        <ele>67</ele>
        <time>2021-07-25T07:36:11.000Z</time>
      </trkpt>
      <trkpt lat="47.19352" lon="-1.80629">
        <ele>67</ele>
        <time>2021-07-25T07:36:13.000Z</time>
      </trkpt>
      <trkpt lat="47.19354" lon="-1.80645">
        <ele>67</ele>
        <time>2021-07-25T07:36:15.000Z</time>
      </trkpt>
      <trkpt lat="47.19355" lon="-1.80662">
        <ele>68</ele>
        <time>2021-07-25T07:36:17.000Z</time>
      </trkpt>
      <trkpt lat="47.19354" lon="-1.80681">
        <ele>68</ele>
        <time>2021-07-25T07:36:19.000Z</time>
      </trkpt>
      <trkpt lat="47.19352" lon="-1.80701">
        <ele>69</ele>
        <time>2021-07-25T07:36:21.000Z</time>
      </trkpt>
      <trkpt lat="47.19349" lon="-1.80719">
        <ele>70</ele>
        <time>2021-07-25T07:36:23.000Z</time>
      </trkpt>
      <trkpt lat="47.19347" lon="-1.80738">
        <ele>70</ele>
        <time>2021-07-25T07:36:25.000Z</time>
      </trkpt>
      <trkpt lat="47.19348" lon="-1.80758">
        <ele>70</ele>
        <time>2021-07-25T07:36:27.000Z</time>
      </trkpt>
      <trkpt lat="47.19352" lon="-1.80778">
        <ele>70</ele>
        <time>2021-07-25T07:36:29.000Z</time>
      </trkpt>
      <trkpt lat="47.19356" lon="-1.80798">
        <ele>69</ele>
        <time>2021-07-25T07:36:31.000Z</time>
      </trkpt>
      <trkpt lat="47.19362" lon="-1.80818">
        <ele>69</ele>
        <time>2021-07-25T07:36:33.000Z</time>
      </trkpt>
      <trkpt lat="47.19366" lon="-1.80839">
        <ele>68</ele>
        <time>2021-07-25T07:36:35.000Z</time>
      </trkpt>
      <trkpt lat="47.1937" lon="-1.80859">
        <ele>68</ele>
        <time>2021-07-25T07:36:37.000Z</time>
      </trkpt>
      <trkpt lat="47.19373" lon="-1.80878">
        <ele>68</ele>
        <time>2021-07-25T07:36:39.000Z</time>
      </trkpt>
      <trkpt lat="47.19375" lon="-1.80899">
        <ele>67</ele>
        <time>2021-07-25T07:36:41.000Z</time>
      </trkpt>
      <trkpt lat="47.19377" lon="-1.80919">
        <ele>66</ele>
        <time>2021-07-25T07:36:43.000Z</time>
      </trkpt>
      <trkpt lat="47.19378" lon="-1.80938">
        <ele>65</ele>
        <time>2021-07-25T07:36:45.000Z</time>
      </trkpt>
      <trkpt lat="47.1938" lon="-1.80959">
        <ele>64</ele>
        <time>2021-07-25T07:36:47.000Z</time>
      </trkpt>
      <trkpt lat="47.19383" lon="-1.80979">
        <ele>63</ele>
        <time>2021-07-25T07:36:49.000Z</time>
      </trkpt>
      <trkpt lat="47.19385" lon="-1.80999">
        <ele>63</ele>
        <time>2021-07-25T07:36:51.000Z</time>
      </trkpt>
      <trkpt lat="47.19387" lon="-1.81018">
        <ele>63</ele>
        <time>2021-07-25T07:36:53.000Z</time>
      </trkpt>
      <trkpt lat="47.19389" lon="-1.81038">
        <ele>63</ele>
        <time>2021-07-25T07:36:55.000Z</time>
      </trkpt>
      <trkpt lat="47.19392" lon="-1.81057">
        <ele>64</ele>
        <time>2021-07-25T07:36:57.000Z</time>
      </trkpt>
      <trkpt lat="47.19394" lon="-1.81075">
        <ele>64</ele>
        <time>2021-07-25T07:36:59.000Z</time>
      </trkpt>
      <trkpt lat="47.19397" lon="-1.81093">
        <ele>63</ele>
        <time>2021-07-25T07:37:01.000Z</time>
      </trkpt>
      <trkpt lat="47.194" lon="-1.81109">
        <ele>62</ele>
        <time>2021-07-25T07:37:03.000Z</time>
      </trkpt>
      <trkpt lat="47.19408" lon="-1.8112">
        <ele>61</ele>
        <time>2021-07-25T07:37:05.000Z</time>
      </trkpt>
      <trkpt lat="47.19419" lon="-1.81125">
        <ele>61</ele>
        <time>2021-07-25T07:37:07.000Z</time>
      </trkpt>
      <trkpt lat="47.19432" lon="-1.81125">
        <ele>62</ele>
        <time>2021-07-25T07:37:09.000Z</time>
      </trkpt>
      <trkpt lat="47.19445" lon="-1.81125">
        <ele>62</ele>
        <time>2021-07-25T07:37:11.000Z</time>
      </trkpt>
      <trkpt lat="47.19458" lon="-1.81125">
        <ele>63</ele>
        <time>2021-07-25T07:37:13.000Z</time>
      </trkpt>
      <trkpt lat="47.19472" lon="-1.81124">
        <ele>63</ele>
        <time>2021-07-25T07:37:15.000Z</time>
      </trkpt>
      <trkpt lat="47.19486" lon="-1.81123">
        <ele>63</ele>
        <time>2021-07-25T07:37:17.000Z</time>
      </trkpt>
      <trkpt lat="47.19499" lon="-1.81123">
        <ele>63</ele>
        <time>2021-07-25T07:37:19.000Z</time>
      </trkpt>
      <trkpt lat="47.19514" lon="-1.81122">
        <ele>63</ele>
        <time>2021-07-25T07:37:21.000Z</time>
      </trkpt>
      <trkpt lat="47.19528" lon="-1.81121">
        <ele>63</ele>
        <time>2021-07-25T07:37:23.000Z</time>
      </trkpt>
      <trkpt lat="47.19542" lon="-1.8112">
        <ele>63</ele>
        <time>2021-07-25T07:37:25.000Z</time>
      </trkpt>
      <trkpt lat="47.19556" lon="-1.81118">
        <ele>62</ele>
        <time>2021-07-25T07:37:27.000Z</time>
      </trkpt>
      <trkpt lat="47.19571" lon="-1.81117">
        <ele>61</ele>
        <time>2021-07-25T07:37:29.000Z</time>
      </trkpt>
      <trkpt lat="47.19585" lon="-1.81117">
        <ele>61</ele>
        <time>2021-07-25T07:37:31.000Z</time>
      </trkpt>
      <trkpt lat="47.19599" lon="-1.81117">
        <ele>60</ele>
        <time>2021-07-25T07:37:33.000Z</time>
      </trkpt>
      <trkpt lat="47.19612" lon="-1.81118">
        <ele>60</ele>
        <time>2021-07-25T07:37:35.000Z</time>
      </trkpt>
      <trkpt lat="47.19625" lon="-1.81119">
        <ele>60</ele>
        <time>2021-07-25T07:37:37.000Z</time>
      </trkpt>
      <trkpt lat="47.19639" lon="-1.81118">
        <ele>60</ele>
        <time>2021-07-25T07:37:39.000Z</time>
      </trkpt>
      <trkpt lat="47.19652" lon="-1.81119">
        <ele>59</ele>
        <time>2021-07-25T07:37:41.000Z</time>
      </trkpt>
      <trkpt lat="47.19666" lon="-1.81119">
        <ele>59</ele>
        <time>2021-07-25T07:37:43.000Z</time>
      </trkpt>
      <trkpt lat="47.19678" lon="-1.81119">
        <ele>58</ele>
        <time>2021-07-25T07:37:45.000Z</time>
      </trkpt>
      <trkpt lat="47.19688" lon="-1.81119">
        <ele>58</ele>
        <time>2021-07-25T07:37:47.000Z</time>
      </trkpt>
      <trkpt lat="47.19698" lon="-1.8112">
        <ele>57</ele>
        <time>2021-07-25T07:37:49.000Z</time>
      </trkpt>
      <trkpt lat="47.19704" lon="-1.81134">
        <ele>57</ele>
        <time>2021-07-25T07:37:51.000Z</time>
      </trkpt>
      <trkpt lat="47.19707" lon="-1.81151">
        <ele>57</ele>
        <time>2021-07-25T07:37:53.000Z</time>
      </trkpt>
      <trkpt lat="47.1971" lon="-1.8117">
        <ele>57</ele>
        <time>2021-07-25T07:37:55.000Z</time>
      </trkpt>
      <trkpt lat="47.19715" lon="-1.81189">
        <ele>56</ele>
        <time>2021-07-25T07:37:57.000Z</time>
      </trkpt>
      <trkpt lat="47.19721" lon="-1.81207">
        <ele>56</ele>
        <time>2021-07-25T07:37:59.000Z</time>
      </trkpt>
      <trkpt lat="47.19729" lon="-1.81223">
        <ele>56</ele>
        <time>2021-07-25T07:38:01.000Z</time>
      </trkpt>
      <trkpt lat="47.19738" lon="-1.81238">
        <ele>56</ele>
        <time>2021-07-25T07:38:03.000Z</time>
      </trkpt>
      <trkpt lat="47.19747" lon="-1.81251">
        <ele>56</ele>
        <time>2021-07-25T07:38:05.000Z</time>
      </trkpt>
      <trkpt lat="47.19756" lon="-1.81266">
        <ele>56</ele>
        <time>2021-07-25T07:38:07.000Z</time>
      </trkpt>
      <trkpt lat="47.19763" lon="-1.81281">
        <ele>56</ele>
        <time>2021-07-25T07:38:09.000Z</time>
      </trkpt>
      <trkpt lat="47.1977" lon="-1.81298">
        <ele>56</ele>
        <time>2021-07-25T07:38:11.000Z</time>
      </trkpt>
      <trkpt lat="47.19775" lon="-1.81314">
        <ele>56</ele>
        <time>2021-07-25T07:38:13.000Z</time>
      </trkpt>
      <trkpt lat="47.1978" lon="-1.81329">
        <ele>57</ele>
        <time>2021-07-25T07:38:15.000Z</time>
      </trkpt>
      <trkpt lat="47.19785" lon="-1.81344">
        <ele>57</ele>
        <time>2021-07-25T07:38:17.000Z</time>
      </trkpt>
      <trkpt lat="47.19789" lon="-1.8136">
        <ele>58</ele>
        <time>2021-07-25T07:38:19.000Z</time>
      </trkpt>
      <trkpt lat="47.19794" lon="-1.81376">
        <ele>59</ele>
        <time>2021-07-25T07:38:21.000Z</time>
      </trkpt>
      <trkpt lat="47.19799" lon="-1.81391">
        <ele>59</ele>
        <time>2021-07-25T07:38:23.000Z</time>
      </trkpt>
      <trkpt lat="47.19803" lon="-1.81407">
        <ele>59</ele>
        <time>2021-07-25T07:38:25.000Z</time>
      </trkpt>
      <trkpt lat="47.19808" lon="-1.81423">
        <ele>60</ele>
        <time>2021-07-25T07:38:27.000Z</time>
      </trkpt>
      <trkpt lat="47.19813" lon="-1.81438">
        <ele>60</ele>
        <time>2021-07-25T07:38:29.000Z</time>
      </trkpt>
      <trkpt lat="47.19818" lon="-1.81453">
        <ele>60</ele>
        <time>2021-07-25T07:38:31.000Z</time>
      </trkpt>
      <trkpt lat="47.19824" lon="-1.81468">
        <ele>60</ele>
        <time>2021-07-25T07:38:33.000Z</time>
      </trkpt>
      <trkpt lat="47.19829" lon="-1.81483">
        <ele>61</ele>
        <time>2021-07-25T07:38:35.000Z</time>
      </trkpt>
      <trkpt lat="47.19834" lon="-1.81497">
        <ele>60</ele>
        <time>2021-07-25T07:38:37.000Z</time>
      </trkpt>
      <trkpt lat="47.19839" lon="-1.81511">
        <ele>61</ele>
        <time>2021-07-25T07:38:39.000Z</time>
      </trkpt>
      <trkpt lat="47.19845" lon="-1.81525">
        <ele>61</ele>
        <time>2021-07-25T07:38:41.000Z</time>
      </trkpt>
      <trkpt lat="47.1985" lon="-1.8154">
        <ele>61</ele>
        <time>2021-07-25T07:38:43.000Z</time>
      </trkpt>
      <trkpt lat="47.19855" lon="-1.81555">
        <ele>61</ele>
        <time>2021-07-25T07:38:45.000Z</time>
      </trkpt>
      <trkpt lat="47.19861" lon="-1.81571">
        <ele>62</ele>
        <time>2021-07-25T07:38:47.000Z</time>
      </trkpt>
      <trkpt lat="47.19866" lon="-1.81586">
        <ele>62</ele>
        <time>2021-07-25T07:38:49.000Z</time>
      </trkpt>
      <trkpt lat="47.1987" lon="-1.81603">
        <ele>62</ele>
        <time>2021-07-25T07:38:51.000Z</time>
      </trkpt>
      <trkpt lat="47.19873" lon="-1.81619">
        <ele>63</ele>
        <time>2021-07-25T07:38:53.000Z</time>
      </trkpt>
      <trkpt lat="47.19876" lon="-1.81636">
        <ele>63</ele>
        <time>2021-07-25T07:38:55.000Z</time>
      </trkpt>
      <trkpt lat="47.19878" lon="-1.81654">
        <ele>63</ele>
        <time>2021-07-25T07:38:57.000Z</time>
      </trkpt>
      <trkpt lat="47.1988" lon="-1.81671">
        <ele>64</ele>
        <time>2021-07-25T07:38:59.000Z</time>
      </trkpt>
      <trkpt lat="47.19883" lon="-1.81689">
        <ele>64</ele>
        <time>2021-07-25T07:39:01.000Z</time>
      </trkpt>
      <trkpt lat="47.19885" lon="-1.81706">
        <ele>64</ele>
        <time>2021-07-25T07:39:03.000Z</time>
      </trkpt>
      <trkpt lat="47.19888" lon="-1.81724">
        <ele>64</ele>
        <time>2021-07-25T07:39:05.000Z</time>
      </trkpt>
      <trkpt lat="47.19891" lon="-1.81741">
        <ele>64</ele>
        <time>2021-07-25T07:39:07.000Z</time>
      </trkpt>
      <trkpt lat="47.19894" lon="-1.81758">
        <ele>64</ele>
        <time>2021-07-25T07:39:09.000Z</time>
      </trkpt>
      <trkpt lat="47.19898" lon="-1.81775">
        <ele>65</ele>
        <time>2021-07-25T07:39:11.000Z</time>
      </trkpt>
      <trkpt lat="47.19902" lon="-1.81791">
        <ele>65</ele>
        <time>2021-07-25T07:39:13.000Z</time>
      </trkpt>
      <trkpt lat="47.19906" lon="-1.81808">
        <ele>64</ele>
        <time>2021-07-25T07:39:15.000Z</time>
      </trkpt>
      <trkpt lat="47.19909" lon="-1.81825">
        <ele>65</ele>
        <time>2021-07-25T07:39:17.000Z</time>
      </trkpt>
      <trkpt lat="47.19913" lon="-1.81842">
        <ele>65</ele>
        <time>2021-07-25T07:39:19.000Z</time>
      </trkpt>
      <trkpt lat="47.19916" lon="-1.81859">
        <ele>65</ele>
        <time>2021-07-25T07:39:21.000Z</time>
      </trkpt>
      <trkpt lat="47.19919" lon="-1.81876">
        <ele>66</ele>
        <time>2021-07-25T07:39:23.000Z</time>
      </trkpt>
      <trkpt lat="47.19922" lon="-1.81893">
        <ele>66</ele>
        <time>2021-07-25T07:39:25.000Z</time>
      </trkpt>
      <trkpt lat="47.19926" lon="-1.81909">
        <ele>66</ele>
        <time>2021-07-25T07:39:27.000Z</time>
      </trkpt>
      <trkpt lat="47.19929" lon="-1.81925">
        <ele>66</ele>
        <time>2021-07-25T07:39:29.000Z</time>
      </trkpt>
      <trkpt lat="47.19932" lon="-1.81942">
        <ele>66</ele>
        <time>2021-07-25T07:39:31.000Z</time>
      </trkpt>
      <trkpt lat="47.19935" lon="-1.81959">
        <ele>66</ele>
        <time>2021-07-25T07:39:33.000Z</time>
      </trkpt>
      <trkpt lat="47.19937" lon="-1.81976">
        <ele>66</ele>
        <time>2021-07-25T07:39:35.000Z</time>
      </trkpt>
      <trkpt lat="47.19941" lon="-1.81992">
        <ele>66</ele>
        <time>2021-07-25T07:39:37.000Z</time>
      </trkpt>
      <trkpt lat="47.19943" lon="-1.82009">
        <ele>66</ele>
        <time>2021-07-25T07:39:39.000Z</time>
      </trkpt>
      <trkpt lat="47.19946" lon="-1.82025">
        <ele>66</ele>
        <time>2021-07-25T07:39:41.000Z</time>
      </trkpt>
      <trkpt lat="47.19949" lon="-1.82041">
        <ele>66</ele>
        <time>2021-07-25T07:39:43.000Z</time>
      </trkpt>
      <trkpt lat="47.19952" lon="-1.82057">
        <ele>66</ele>
        <time>2021-07-25T07:39:45.000Z</time>
      </trkpt>
      <trkpt lat="47.19954" lon="-1.82074">
        <ele>67</ele>
        <time>2021-07-25T07:39:47.000Z</time>
      </trkpt>
      <trkpt lat="47.19956" lon="-1.82091">
        <ele>67</ele>
        <time>2021-07-25T07:39:49.000Z</time>
      </trkpt>
      <trkpt lat="47.19958" lon="-1.82108">
        <ele>67</ele>
        <time>2021-07-25T07:39:51.000Z</time>
      </trkpt>
      <trkpt lat="47.19958" lon="-1.82126">
        <ele>67</ele>
        <time>2021-07-25T07:39:53.000Z</time>
      </trkpt>
      <trkpt lat="47.19955" lon="-1.82142">
        <ele>68</ele>
        <time>2021-07-25T07:39:55.000Z</time>
      </trkpt>
      <trkpt lat="47.19951" lon="-1.82158">
        <ele>68</ele>
        <time>2021-07-25T07:39:57.000Z</time>
      </trkpt>
      <trkpt lat="47.19946" lon="-1.82174">
        <ele>68</ele>
        <time>2021-07-25T07:39:59.000Z</time>
      </trkpt>
      <trkpt lat="47.1994" lon="-1.82189">
        <ele>68</ele>
        <time>2021-07-25T07:40:01.000Z</time>
      </trkpt>
      <trkpt lat="47.19933" lon="-1.82203">
        <ele>69</ele>
        <time>2021-07-25T07:40:03.000Z</time>
      </trkpt>
      <trkpt lat="47.19927" lon="-1.82218">
        <ele>69</ele>
        <time>2021-07-25T07:40:05.000Z</time>
      </trkpt>
      <trkpt lat="47.1992" lon="-1.82234">
        <ele>69</ele>
        <time>2021-07-25T07:40:07.000Z</time>
      </trkpt>
      <trkpt lat="47.19914" lon="-1.82248">
        <ele>69</ele>
        <time>2021-07-25T07:40:09.000Z</time>
      </trkpt>
      <trkpt lat="47.19908" lon="-1.82263">
        <ele>69</ele>
        <time>2021-07-25T07:40:11.000Z</time>
      </trkpt>
      <trkpt lat="47.19902" lon="-1.82278">
        <ele>70</ele>
        <time>2021-07-25T07:40:13.000Z</time>
      </trkpt>
      <trkpt lat="47.19895" lon="-1.82293">
        <ele>70</ele>
        <time>2021-07-25T07:40:15.000Z</time>
      </trkpt>
      <trkpt lat="47.19889" lon="-1.82309">
        <ele>71</ele>
        <time>2021-07-25T07:40:17.000Z</time>
      </trkpt>
      <trkpt lat="47.19883" lon="-1.82325">
        <ele>71</ele>
        <time>2021-07-25T07:40:19.000Z</time>
      </trkpt>
      <trkpt lat="47.19876" lon="-1.8234">
        <ele>70</ele>
        <time>2021-07-25T07:40:21.000Z</time>
      </trkpt>
      <trkpt lat="47.1987" lon="-1.82356">
        <ele>70</ele>
        <time>2021-07-25T07:40:23.000Z</time>
      </trkpt>
      <trkpt lat="47.19864" lon="-1.82372">
        <ele>70</ele>
        <time>2021-07-25T07:40:25.000Z</time>
      </trkpt>
      <trkpt lat="47.19858" lon="-1.82388">
        <ele>71</ele>
        <time>2021-07-25T07:40:27.000Z</time>
      </trkpt>
      <trkpt lat="47.19853" lon="-1.82403">
        <ele>71</ele>
        <time>2021-07-25T07:40:29.000Z</time>
      </trkpt>
      <trkpt lat="47.19847" lon="-1.82419">
        <ele>70</ele>
        <time>2021-07-25T07:40:31.000Z</time>
      </trkpt>
      <trkpt lat="47.19842" lon="-1.82434">
        <ele>71</ele>
        <time>2021-07-25T07:40:33.000Z</time>
      </trkpt>
      <trkpt lat="47.19836" lon="-1.82448">
        <ele>71</ele>
        <time>2021-07-25T07:40:35.000Z</time>
      </trkpt>
      <trkpt lat="47.19829" lon="-1.82462">
        <ele>71</ele>
        <time>2021-07-25T07:40:37.000Z</time>
      </trkpt>
      <trkpt lat="47.19822" lon="-1.82475">
        <ele>71</ele>
        <time>2021-07-25T07:40:39.000Z</time>
      </trkpt>
      <trkpt lat="47.19814" lon="-1.82489">
        <ele>71</ele>
        <time>2021-07-25T07:40:41.000Z</time>
      </trkpt>
      <trkpt lat="47.19806" lon="-1.82501">
        <ele>71</ele>
        <time>2021-07-25T07:40:43.000Z</time>
      </trkpt>
      <trkpt lat="47.19797" lon="-1.82514">
        <ele>71</ele>
        <time>2021-07-25T07:40:45.000Z</time>
      </trkpt>
      <trkpt lat="47.19789" lon="-1.82526">
        <ele>72</ele>
        <time>2021-07-25T07:40:47.000Z</time>
      </trkpt>
      <trkpt lat="47.19781" lon="-1.82539">
        <ele>72</ele>
        <time>2021-07-25T07:40:49.000Z</time>
      </trkpt>
      <trkpt lat="47.19773" lon="-1.82552">
        <ele>72</ele>
        <time>2021-07-25T07:40:51.000Z</time>
      </trkpt>
      <trkpt lat="47.19765" lon="-1.82565">
        <ele>72</ele>
        <time>2021-07-25T07:40:53.000Z</time>
      </trkpt>
      <trkpt lat="47.19757" lon="-1.82579">
        <ele>72</ele>
        <time>2021-07-25T07:40:55.000Z</time>
      </trkpt>
      <trkpt lat="47.19749" lon="-1.82591">
        <ele>72</ele>
        <time>2021-07-25T07:40:57.000Z</time>
      </trkpt>
      <trkpt lat="47.19741" lon="-1.82605">
        <ele>72</ele>
        <time>2021-07-25T07:40:59.000Z</time>
      </trkpt>
      <trkpt lat="47.19734" lon="-1.82619">
        <ele>72</ele>
        <time>2021-07-25T07:41:01.000Z</time>
      </trkpt>
      <trkpt lat="47.19728" lon="-1.82635">
        <ele>72</ele>
        <time>2021-07-25T07:41:03.000Z</time>
      </trkpt>
      <trkpt lat="47.19724" lon="-1.82652">
        <ele>71</ele>
        <time>2021-07-25T07:41:05.000Z</time>
      </trkpt>
      <trkpt lat="47.19719" lon="-1.82669">
        <ele>71</ele>
        <time>2021-07-25T07:41:07.000Z</time>
      </trkpt>
      <trkpt lat="47.19715" lon="-1.82685">
        <ele>71</ele>
        <time>2021-07-25T07:41:09.000Z</time>
      </trkpt>
      <trkpt lat="47.19711" lon="-1.82702">
        <ele>71</ele>
        <time>2021-07-25T07:41:11.000Z</time>
      </trkpt>
      <trkpt lat="47.19707" lon="-1.82719">
        <ele>71</ele>
        <time>2021-07-25T07:41:13.000Z</time>
      </trkpt>
      <trkpt lat="47.19703" lon="-1.82736">
        <ele>71</ele>
        <time>2021-07-25T07:41:15.000Z</time>
      </trkpt>
      <trkpt lat="47.197" lon="-1.82753">
        <ele>71</ele>
        <time>2021-07-25T07:41:17.000Z</time>
      </trkpt>
      <trkpt lat="47.19697" lon="-1.8277">
        <ele>72</ele>
        <time>2021-07-25T07:41:19.000Z</time>
      </trkpt>
      <trkpt lat="47.19693" lon="-1.82786">
        <ele>71</ele>
        <time>2021-07-25T07:41:21.000Z</time>
      </trkpt>
      <trkpt lat="47.19689" lon="-1.82803">
        <ele>72</ele>
        <time>2021-07-25T07:41:23.000Z</time>
      </trkpt>
      <trkpt lat="47.19686" lon="-1.8282">
        <ele>72</ele>
        <time>2021-07-25T07:41:25.000Z</time>
      </trkpt>
      <trkpt lat="47.19683" lon="-1.82837">
        <ele>72</ele>
        <time>2021-07-25T07:41:27.000Z</time>
      </trkpt>
      <trkpt lat="47.1968" lon="-1.82854">
        <ele>73</ele>
        <time>2021-07-25T07:41:29.000Z</time>
      </trkpt>
      <trkpt lat="47.19677" lon="-1.8287">
        <ele>72</ele>
        <time>2021-07-25T07:41:31.000Z</time>
      </trkpt>
      <trkpt lat="47.19674" lon="-1.82887">
        <ele>73</ele>
        <time>2021-07-25T07:41:33.000Z</time>
      </trkpt>
      <trkpt lat="47.19671" lon="-1.82904">
        <ele>73</ele>
        <time>2021-07-25T07:41:35.000Z</time>
      </trkpt>
      <trkpt lat="47.19668" lon="-1.82921">
        <ele>73</ele>
        <time>2021-07-25T07:41:37.000Z</time>
      </trkpt>
      <trkpt lat="47.19665" lon="-1.82938">
        <ele>73</ele>
        <time>2021-07-25T07:41:39.000Z</time>
      </trkpt>
      <trkpt lat="47.19662" lon="-1.82954">
        <ele>73</ele>
        <time>2021-07-25T07:41:41.000Z</time>
      </trkpt>
      <trkpt lat="47.19659" lon="-1.82971">
        <ele>72</ele>
        <time>2021-07-25T07:41:43.000Z</time>
      </trkpt>
      <trkpt lat="47.19656" lon="-1.82988">
        <ele>72</ele>
        <time>2021-07-25T07:41:45.000Z</time>
      </trkpt>
      <trkpt lat="47.19652" lon="-1.83005">
        <ele>71</ele>
        <time>2021-07-25T07:41:47.000Z</time>
      </trkpt>
      <trkpt lat="47.19648" lon="-1.83023">
        <ele>71</ele>
        <time>2021-07-25T07:41:49.000Z</time>
      </trkpt>
      <trkpt lat="47.19645" lon="-1.8304">
        <ele>71</ele>
        <time>2021-07-25T07:41:51.000Z</time>
      </trkpt>
      <trkpt lat="47.19641" lon="-1.83056">
        <ele>70</ele>
        <time>2021-07-25T07:41:53.000Z</time>
      </trkpt>
      <trkpt lat="47.19638" lon="-1.83074">
        <ele>70</ele>
        <time>2021-07-25T07:41:55.000Z</time>
      </trkpt>
      <trkpt lat="47.19635" lon="-1.83091">
        <ele>70</ele>
        <time>2021-07-25T07:41:57.000Z</time>
      </trkpt>
      <trkpt lat="47.19632" lon="-1.83108">
        <ele>70</ele>
        <time>2021-07-25T07:41:59.000Z</time>
      </trkpt>
      <trkpt lat="47.19628" lon="-1.83126">
        <ele>70</ele>
        <time>2021-07-25T07:42:01.000Z</time>
      </trkpt>
      <trkpt lat="47.19625" lon="-1.83145">
        <ele>69</ele>
        <time>2021-07-25T07:42:03.000Z</time>
      </trkpt>
      <trkpt lat="47.19623" lon="-1.83162">
        <ele>69</ele>
        <time>2021-07-25T07:42:05.000Z</time>
      </trkpt>
      <trkpt lat="47.19622" lon="-1.8318">
        <ele>69</ele>
        <time>2021-07-25T07:42:07.000Z</time>
      </trkpt>
      <trkpt lat="47.19621" lon="-1.83199">
        <ele>69</ele>
        <time>2021-07-25T07:42:09.000Z</time>
      </trkpt>
      <trkpt lat="47.19622" lon="-1.83218">
        <ele>68</ele>
        <time>2021-07-25T07:42:11.000Z</time>
      </trkpt>
      <trkpt lat="47.19622" lon="-1.83237">
        <ele>68</ele>
        <time>2021-07-25T07:42:13.000Z</time>
      </trkpt>
      <trkpt lat="47.19623" lon="-1.83255">
        <ele>69</ele>
        <time>2021-07-25T07:42:15.000Z</time>
      </trkpt>
      <trkpt lat="47.19624" lon="-1.83274">
        <ele>69</ele>
        <time>2021-07-25T07:42:17.000Z</time>
      </trkpt>
      <trkpt lat="47.19625" lon="-1.83292">
        <ele>69</ele>
        <time>2021-07-25T07:42:19.000Z</time>
      </trkpt>
      <trkpt lat="47.19626" lon="-1.83311">
        <ele>68</ele>
        <time>2021-07-25T07:42:21.000Z</time>
      </trkpt>
      <trkpt lat="47.19627" lon="-1.8333">
        <ele>69</ele>
        <time>2021-07-25T07:42:23.000Z</time>
      </trkpt>
      <trkpt lat="47.19628" lon="-1.83349">
        <ele>69</ele>
        <time>2021-07-25T07:42:25.000Z</time>
      </trkpt>
      <trkpt lat="47.19629" lon="-1.83367">
        <ele>69</ele>
        <time>2021-07-25T07:42:27.000Z</time>
      </trkpt>
      <trkpt lat="47.1963" lon="-1.83385">
        <ele>69</ele>
        <time>2021-07-25T07:42:29.000Z</time>
      </trkpt>
      <trkpt lat="47.19631" lon="-1.83403">
        <ele>69</ele>
        <time>2021-07-25T07:42:31.000Z</time>
      </trkpt>
      <trkpt lat="47.19632" lon="-1.83422">
        <ele>70</ele>
        <time>2021-07-25T07:42:33.000Z</time>
      </trkpt>
      <trkpt lat="47.19633" lon="-1.83439">
        <ele>70</ele>
        <time>2021-07-25T07:42:35.000Z</time>
      </trkpt>
      <trkpt lat="47.19634" lon="-1.83458">
        <ele>69</ele>
        <time>2021-07-25T07:42:37.000Z</time>
      </trkpt>
      <trkpt lat="47.19635" lon="-1.83476">
        <ele>70</ele>
        <time>2021-07-25T07:42:39.000Z</time>
      </trkpt>
      <trkpt lat="47.19635" lon="-1.83494">
        <ele>69</ele>
        <time>2021-07-25T07:42:41.000Z</time>
      </trkpt>
      <trkpt lat="47.19636" lon="-1.83511">
        <ele>69</ele>
        <time>2021-07-25T07:42:43.000Z</time>
      </trkpt>
      <trkpt lat="47.19637" lon="-1.83529">
        <ele>70</ele>
        <time>2021-07-25T07:42:45.000Z</time>
      </trkpt>
      <trkpt lat="47.19636" lon="-1.83547">
        <ele>70</ele>
        <time>2021-07-25T07:42:47.000Z</time>
      </trkpt>
      <trkpt lat="47.19634" lon="-1.83565">
        <ele>70</ele>
        <time>2021-07-25T07:42:49.000Z</time>
      </trkpt>
      <trkpt lat="47.19632" lon="-1.83581">
        <ele>70</ele>
        <time>2021-07-25T07:42:51.000Z</time>
      </trkpt>
      <trkpt lat="47.19628" lon="-1.83598">
        <ele>70</ele>
        <time>2021-07-25T07:42:53.000Z</time>
      </trkpt>
      <trkpt lat="47.19624" lon="-1.83616">
        <ele>70</ele>
        <time>2021-07-25T07:42:55.000Z</time>
      </trkpt>
      <trkpt lat="47.19619" lon="-1.83634">
        <ele>69</ele>
        <time>2021-07-25T07:42:57.000Z</time>
      </trkpt>
      <trkpt lat="47.19615" lon="-1.83653">
        <ele>69</ele>
        <time>2021-07-25T07:42:59.000Z</time>
      </trkpt>
      <trkpt lat="47.19613" lon="-1.83672">
        <ele>68</ele>
        <time>2021-07-25T07:43:01.000Z</time>
      </trkpt>
      <trkpt lat="47.19611" lon="-1.83692">
        <ele>67</ele>
        <time>2021-07-25T07:43:03.000Z</time>
      </trkpt>
      <trkpt lat="47.19612" lon="-1.83711">
        <ele>67</ele>
        <time>2021-07-25T07:43:05.000Z</time>
      </trkpt>
      <trkpt lat="47.19614" lon="-1.8373">
        <ele>67</ele>
        <time>2021-07-25T07:43:07.000Z</time>
      </trkpt>
      <trkpt lat="47.19618" lon="-1.83749">
        <ele>66</ele>
        <time>2021-07-25T07:43:09.000Z</time>
      </trkpt>
      <trkpt lat="47.19621" lon="-1.83767">
        <ele>66</ele>
        <time>2021-07-25T07:43:11.000Z</time>
      </trkpt>
      <trkpt lat="47.19624" lon="-1.83786">
        <ele>66</ele>
        <time>2021-07-25T07:43:13.000Z</time>
      </trkpt>
      <trkpt lat="47.19628" lon="-1.83804">
        <ele>66</ele>
        <time>2021-07-25T07:43:15.000Z</time>
      </trkpt>
      <trkpt lat="47.19631" lon="-1.83822">
        <ele>66</ele>
        <time>2021-07-25T07:43:17.000Z</time>
      </trkpt>
      <trkpt lat="47.19635" lon="-1.83841">
        <ele>66</ele>
        <time>2021-07-25T07:43:19.000Z</time>
      </trkpt>
      <trkpt lat="47.19638" lon="-1.83859">
        <ele>66</ele>
        <time>2021-07-25T07:43:21.000Z</time>
      </trkpt>
      <trkpt lat="47.19641" lon="-1.83877">
        <ele>67</ele>
        <time>2021-07-25T07:43:23.000Z</time>
      </trkpt>
      <trkpt lat="47.19645" lon="-1.83894">
        <ele>67</ele>
        <time>2021-07-25T07:43:25.000Z</time>
      </trkpt>
      <trkpt lat="47.19648" lon="-1.83912">
        <ele>67</ele>
        <time>2021-07-25T07:43:27.000Z</time>
      </trkpt>
      <trkpt lat="47.19651" lon="-1.83929">
        <ele>67</ele>
        <time>2021-07-25T07:43:29.000Z</time>
      </trkpt>
      <trkpt lat="47.19654" lon="-1.83947">
        <ele>67</ele>
        <time>2021-07-25T07:43:31.000Z</time>
      </trkpt>
      <trkpt lat="47.19657" lon="-1.83963">
        <ele>67</ele>
        <time>2021-07-25T07:43:33.000Z</time>
      </trkpt>
      <trkpt lat="47.1966" lon="-1.83981">
        <ele>67</ele>
        <time>2021-07-25T07:43:35.000Z</time>
      </trkpt>
      <trkpt lat="47.19663" lon="-1.83998">
        <ele>67</ele>
        <time>2021-07-25T07:43:37.000Z</time>
      </trkpt>
      <trkpt lat="47.19665" lon="-1.84015">
        <ele>67</ele>
        <time>2021-07-25T07:43:39.000Z</time>
      </trkpt>
      <trkpt lat="47.19665" lon="-1.84033">
        <ele>67</ele>
        <time>2021-07-25T07:43:41.000Z</time>
      </trkpt>
      <trkpt lat="47.19664" lon="-1.84051">
        <ele>68</ele>
        <time>2021-07-25T07:43:43.000Z</time>
      </trkpt>
      <trkpt lat="47.19662" lon="-1.8407">
        <ele>68</ele>
        <time>2021-07-25T07:43:45.000Z</time>
      </trkpt>
      <trkpt lat="47.19658" lon="-1.84086">
        <ele>68</ele>
        <time>2021-07-25T07:43:47.000Z</time>
      </trkpt>
      <trkpt lat="47.19653" lon="-1.84102">
        <ele>68</ele>
        <time>2021-07-25T07:43:49.000Z</time>
      </trkpt>
      <trkpt lat="47.19646" lon="-1.84118">
        <ele>68</ele>
        <time>2021-07-25T07:43:51.000Z</time>
      </trkpt>
      <trkpt lat="47.19639" lon="-1.84132">
        <ele>68</ele>
        <time>2021-07-25T07:43:53.000Z</time>
      </trkpt>
      <trkpt lat="47.19632" lon="-1.84147">
        <ele>67</ele>
        <time>2021-07-25T07:43:55.000Z</time>
      </trkpt>
      <trkpt lat="47.19623" lon="-1.84161">
        <ele>67</ele>
        <time>2021-07-25T07:43:57.000Z</time>
      </trkpt>
      <trkpt lat="47.19614" lon="-1.84176">
        <ele>67</ele>
        <time>2021-07-25T07:43:59.000Z</time>
      </trkpt>
      <trkpt lat="47.19606" lon="-1.8419">
        <ele>67</ele>
        <time>2021-07-25T07:44:01.000Z</time>
      </trkpt>
      <trkpt lat="47.19597" lon="-1.84204">
        <ele>67</ele>
        <time>2021-07-25T07:44:03.000Z</time>
      </trkpt>
      <trkpt lat="47.19589" lon="-1.84219">
        <ele>67</ele>
        <time>2021-07-25T07:44:05.000Z</time>
      </trkpt>
      <trkpt lat="47.1958" lon="-1.84235">
        <ele>67</ele>
        <time>2021-07-25T07:44:07.000Z</time>
      </trkpt>
      <trkpt lat="47.19572" lon="-1.84249">
        <ele>67</ele>
        <time>2021-07-25T07:44:09.000Z</time>
      </trkpt>
      <trkpt lat="47.19563" lon="-1.84264">
        <ele>66</ele>
        <time>2021-07-25T07:44:11.000Z</time>
      </trkpt>
      <trkpt lat="47.19554" lon="-1.84279">
        <ele>66</ele>
        <time>2021-07-25T07:44:13.000Z</time>
      </trkpt>
      <trkpt lat="47.19546" lon="-1.84294">
        <ele>66</ele>
        <time>2021-07-25T07:44:15.000Z</time>
      </trkpt>
      <trkpt lat="47.19537" lon="-1.84309">
        <ele>66</ele>
        <time>2021-07-25T07:44:17.000Z</time>
      </trkpt>
      <trkpt lat="47.19529" lon="-1.84325">
        <ele>66</ele>
        <time>2021-07-25T07:44:19.000Z</time>
      </trkpt>
      <trkpt lat="47.1952" lon="-1.8434">
        <ele>65</ele>
        <time>2021-07-25T07:44:21.000Z</time>
      </trkpt>
      <trkpt lat="47.19511" lon="-1.84355">
        <ele>65</ele>
        <time>2021-07-25T07:44:23.000Z</time>
      </trkpt>
      <trkpt lat="47.19497" lon="-1.84379">
        <ele>65</ele>
        <time>2021-07-25T07:44:26.000Z</time>
      </trkpt>
      <trkpt lat="47.19484" lon="-1.84402">
        <ele>64</ele>
        <time>2021-07-25T07:44:29.000Z</time>
      </trkpt>
      <trkpt lat="47.19475" lon="-1.84418">
        <ele>63</ele>
        <time>2021-07-25T07:44:31.000Z</time>
      </trkpt>
      <trkpt lat="47.19462" lon="-1.84441">
        <ele>63</ele>
        <time>2021-07-25T07:44:34.000Z</time>
      </trkpt>
      <trkpt lat="47.19454" lon="-1.84456">
        <ele>63</ele>
        <time>2021-07-25T07:44:36.000Z</time>
      </trkpt>
      <trkpt lat="47.19446" lon="-1.84471">
        <ele>63</ele>
        <time>2021-07-25T07:44:38.000Z</time>
      </trkpt>
      <trkpt lat="47.19437" lon="-1.84485">
        <ele>63</ele>
        <time>2021-07-25T07:44:40.000Z</time>
      </trkpt>
      <trkpt lat="47.19425" lon="-1.84508">
        <ele>64</ele>
        <time>2021-07-25T07:44:43.000Z</time>
      </trkpt>
      <trkpt lat="47.19417" lon="-1.84522">
        <ele>64</ele>
        <time>2021-07-25T07:44:45.000Z</time>
      </trkpt>
      <trkpt lat="47.19408" lon="-1.84536">
        <ele>63</ele>
        <time>2021-07-25T07:44:47.000Z</time>
      </trkpt>
      <trkpt lat="47.19398" lon="-1.84548">
        <ele>63</ele>
        <time>2021-07-25T07:44:49.000Z</time>
      </trkpt>
      <trkpt lat="47.19389" lon="-1.8456">
        <ele>63</ele>
        <time>2021-07-25T07:44:51.000Z</time>
      </trkpt>
      <trkpt lat="47.19378" lon="-1.8457">
        <ele>64</ele>
        <time>2021-07-25T07:44:53.000Z</time>
      </trkpt>
      <trkpt lat="47.19366" lon="-1.84576">
        <ele>64</ele>
        <time>2021-07-25T07:44:55.000Z</time>
      </trkpt>
      <trkpt lat="47.19352" lon="-1.84577">
        <ele>64</ele>
        <time>2021-07-25T07:44:57.000Z</time>
      </trkpt>
      <trkpt lat="47.1934" lon="-1.84587">
        <ele>63</ele>
        <time>2021-07-25T07:44:59.000Z</time>
      </trkpt>
      <trkpt lat="47.19333" lon="-1.84604">
        <ele>62</ele>
        <time>2021-07-25T07:45:01.000Z</time>
      </trkpt>
      <trkpt lat="47.19331" lon="-1.84623">
        <ele>62</ele>
        <time>2021-07-25T07:45:03.000Z</time>
      </trkpt>
      <trkpt lat="47.1933" lon="-1.84642">
        <ele>61</ele>
        <time>2021-07-25T07:45:05.000Z</time>
      </trkpt>
      <trkpt lat="47.19331" lon="-1.84662">
        <ele>61</ele>
        <time>2021-07-25T07:45:07.000Z</time>
      </trkpt>
      <trkpt lat="47.1933" lon="-1.84681">
        <ele>61</ele>
        <time>2021-07-25T07:45:09.000Z</time>
      </trkpt>
      <trkpt lat="47.1933" lon="-1.84701">
        <ele>61</ele>
        <time>2021-07-25T07:45:11.000Z</time>
      </trkpt>
      <trkpt lat="47.19329" lon="-1.8472">
        <ele>61</ele>
        <time>2021-07-25T07:45:13.000Z</time>
      </trkpt>
      <trkpt lat="47.19329" lon="-1.84739">
        <ele>61</ele>
        <time>2021-07-25T07:45:15.000Z</time>
      </trkpt>
      <trkpt lat="47.19328" lon="-1.84757">
        <ele>61</ele>
        <time>2021-07-25T07:45:17.000Z</time>
      </trkpt>
      <trkpt lat="47.19327" lon="-1.84776">
        <ele>61</ele>
        <time>2021-07-25T07:45:19.000Z</time>
      </trkpt>
      <trkpt lat="47.19326" lon="-1.84796">
        <ele>61</ele>
        <time>2021-07-25T07:45:21.000Z</time>
      </trkpt>
      <trkpt lat="47.19324" lon="-1.84815">
        <ele>61</ele>
        <time>2021-07-25T07:45:23.000Z</time>
      </trkpt>
      <trkpt lat="47.19321" lon="-1.84834">
        <ele>61</ele>
        <time>2021-07-25T07:45:25.000Z</time>
      </trkpt>
      <trkpt lat="47.19318" lon="-1.84852">
        <ele>61</ele>
        <time>2021-07-25T07:45:27.000Z</time>
      </trkpt>
      <trkpt lat="47.19313" lon="-1.8487">
        <ele>62</ele>
        <time>2021-07-25T07:45:29.000Z</time>
      </trkpt>
      <trkpt lat="47.19308" lon="-1.84889">
        <ele>61</ele>
        <time>2021-07-25T07:45:31.000Z</time>
      </trkpt>
      <trkpt lat="47.19302" lon="-1.84906">
        <ele>62</ele>
        <time>2021-07-25T07:45:33.000Z</time>
      </trkpt>
      <trkpt lat="47.19297" lon="-1.84924">
        <ele>62</ele>
        <time>2021-07-25T07:45:35.000Z</time>
      </trkpt>
      <trkpt lat="47.19291" lon="-1.8494">
        <ele>62</ele>
        <time>2021-07-25T07:45:37.000Z</time>
      </trkpt>
      <trkpt lat="47.19286" lon="-1.84957">
        <ele>62</ele>
        <time>2021-07-25T07:45:39.000Z</time>
      </trkpt>
      <trkpt lat="47.1928" lon="-1.84975">
        <ele>62</ele>
        <time>2021-07-25T07:45:41.000Z</time>
      </trkpt>
      <trkpt lat="47.19275" lon="-1.84992">
        <ele>62</ele>
        <time>2021-07-25T07:45:43.000Z</time>
      </trkpt>
      <trkpt lat="47.1927" lon="-1.8501">
        <ele>62</ele>
        <time>2021-07-25T07:45:45.000Z</time>
      </trkpt>
      <trkpt lat="47.19267" lon="-1.85029">
        <ele>62</ele>
        <time>2021-07-25T07:45:47.000Z</time>
      </trkpt>
      <trkpt lat="47.19265" lon="-1.85049">
        <ele>62</ele>
        <time>2021-07-25T07:45:49.000Z</time>
      </trkpt>
      <trkpt lat="47.19263" lon="-1.85068">
        <ele>62</ele>
        <time>2021-07-25T07:45:51.000Z</time>
      </trkpt>
      <trkpt lat="47.19262" lon="-1.85086">
        <ele>61</ele>
        <time>2021-07-25T07:45:53.000Z</time>
      </trkpt>
      <trkpt lat="47.19264" lon="-1.85103">
        <ele>61</ele>
        <time>2021-07-25T07:45:55.000Z</time>
      </trkpt>
      <trkpt lat="47.19267" lon="-1.8512">
        <ele>60</ele>
        <time>2021-07-25T07:45:57.000Z</time>
      </trkpt>
      <trkpt lat="47.19269" lon="-1.85139">
        <ele>60</ele>
        <time>2021-07-25T07:45:59.000Z</time>
      </trkpt>
      <trkpt lat="47.1927" lon="-1.8516">
        <ele>59</ele>
        <time>2021-07-25T07:46:01.000Z</time>
      </trkpt>
      <trkpt lat="47.19271" lon="-1.85182">
        <ele>58</ele>
        <time>2021-07-25T07:46:03.000Z</time>
      </trkpt>
      <trkpt lat="47.19272" lon="-1.85203">
        <ele>58</ele>
        <time>2021-07-25T07:46:05.000Z</time>
      </trkpt>
      <trkpt lat="47.19274" lon="-1.85221">
        <ele>58</ele>
        <time>2021-07-25T07:46:07.000Z</time>
      </trkpt>
      <trkpt lat="47.19278" lon="-1.85236">
        <ele>58</ele>
        <time>2021-07-25T07:46:09.000Z</time>
      </trkpt>
      <trkpt lat="47.19278" lon="-1.85251">
        <ele>58</ele>
        <time>2021-07-25T07:46:11.000Z</time>
      </trkpt>
      <trkpt lat="47.19274" lon="-1.85267">
        <ele>58</ele>
        <time>2021-07-25T07:46:13.000Z</time>
      </trkpt>
      <trkpt lat="47.19268" lon="-1.85285">
        <ele>58</ele>
        <time>2021-07-25T07:46:15.000Z</time>
      </trkpt>
      <trkpt lat="47.19263" lon="-1.85303">
        <ele>58</ele>
        <time>2021-07-25T07:46:17.000Z</time>
      </trkpt>
      <trkpt lat="47.19258" lon="-1.85321">
        <ele>57</ele>
        <time>2021-07-25T07:46:19.000Z</time>
      </trkpt>
      <trkpt lat="47.1925" lon="-1.85337">
        <ele>57</ele>
        <time>2021-07-25T07:46:21.000Z</time>
      </trkpt>
      <trkpt lat="47.19242" lon="-1.85353">
        <ele>56</ele>
        <time>2021-07-25T07:46:23.000Z</time>
      </trkpt>
      <trkpt lat="47.19234" lon="-1.85368">
        <ele>56</ele>
        <time>2021-07-25T07:46:25.000Z</time>
      </trkpt>
      <trkpt lat="47.19227" lon="-1.85384">
        <ele>55</ele>
        <time>2021-07-25T07:46:27.000Z</time>
      </trkpt>
      <trkpt lat="47.19216" lon="-1.85399">
        <ele>55</ele>
        <time>2021-07-25T07:46:29.000Z</time>
      </trkpt>
      <trkpt lat="47.19205" lon="-1.85413">
        <ele>55</ele>
        <time>2021-07-25T07:46:31.000Z</time>
      </trkpt>
      <trkpt lat="47.19194" lon="-1.85426">
        <ele>55</ele>
        <time>2021-07-25T07:46:33.000Z</time>
      </trkpt>
      <trkpt lat="47.19183" lon="-1.85439">
        <ele>55</ele>
        <time>2021-07-25T07:46:35.000Z</time>
      </trkpt>
      <trkpt lat="47.19173" lon="-1.85452">
        <ele>55</ele>
        <time>2021-07-25T07:46:37.000Z</time>
      </trkpt>
      <trkpt lat="47.19163" lon="-1.85466">
        <ele>55</ele>
        <time>2021-07-25T07:46:39.000Z</time>
      </trkpt>
      <trkpt lat="47.19154" lon="-1.85479">
        <ele>55</ele>
        <time>2021-07-25T07:46:41.000Z</time>
      </trkpt>
      <trkpt lat="47.19144" lon="-1.85493">
        <ele>56</ele>
        <time>2021-07-25T07:46:43.000Z</time>
      </trkpt>
      <trkpt lat="47.19134" lon="-1.85507">
        <ele>56</ele>
        <time>2021-07-25T07:46:45.000Z</time>
      </trkpt>
      <trkpt lat="47.19124" lon="-1.85519">
        <ele>56</ele>
        <time>2021-07-25T07:46:47.000Z</time>
      </trkpt>
      <trkpt lat="47.19113" lon="-1.85531">
        <ele>56</ele>
        <time>2021-07-25T07:46:49.000Z</time>
      </trkpt>
      <trkpt lat="47.19102" lon="-1.85542">
        <ele>56</ele>
        <time>2021-07-25T07:46:51.000Z</time>
      </trkpt>
      <trkpt lat="47.19091" lon="-1.85553">
        <ele>56</ele>
        <time>2021-07-25T07:46:53.000Z</time>
      </trkpt>
      <trkpt lat="47.1908" lon="-1.85563">
        <ele>56</ele>
        <time>2021-07-25T07:46:55.000Z</time>
      </trkpt>
      <trkpt lat="47.19069" lon="-1.85573">
        <ele>55</ele>
        <time>2021-07-25T07:46:57.000Z</time>
      </trkpt>
      <trkpt lat="47.19058" lon="-1.85583">
        <ele>55</ele>
        <time>2021-07-25T07:46:59.000Z</time>
      </trkpt>
      <trkpt lat="47.19047" lon="-1.85593">
        <ele>54</ele>
        <time>2021-07-25T07:47:01.000Z</time>
      </trkpt>
      <trkpt lat="47.19036" lon="-1.85604">
        <ele>54</ele>
        <time>2021-07-25T07:47:03.000Z</time>
      </trkpt>
      <trkpt lat="47.19024" lon="-1.85613">
        <ele>54</ele>
        <time>2021-07-25T07:47:05.000Z</time>
      </trkpt>
      <trkpt lat="47.19012" lon="-1.85624">
        <ele>54</ele>
        <time>2021-07-25T07:47:07.000Z</time>
      </trkpt>
      <trkpt lat="47.19001" lon="-1.85633">
        <ele>54</ele>
        <time>2021-07-25T07:47:09.000Z</time>
      </trkpt>
      <trkpt lat="47.18989" lon="-1.85642">
        <ele>54</ele>
        <time>2021-07-25T07:47:11.000Z</time>
      </trkpt>
      <trkpt lat="47.18977" lon="-1.8565">
        <ele>54</ele>
        <time>2021-07-25T07:47:13.000Z</time>
      </trkpt>
      <trkpt lat="47.18965" lon="-1.85659">
        <ele>54</ele>
        <time>2021-07-25T07:47:15.000Z</time>
      </trkpt>
      <trkpt lat="47.18952" lon="-1.85669">
        <ele>54</ele>
        <time>2021-07-25T07:47:17.000Z</time>
      </trkpt>
      <trkpt lat="47.1894" lon="-1.85679">
        <ele>53</ele>
        <time>2021-07-25T07:47:19.000Z</time>
      </trkpt>
      <trkpt lat="47.18927" lon="-1.85688">
        <ele>53</ele>
        <time>2021-07-25T07:47:21.000Z</time>
      </trkpt>
      <trkpt lat="47.18915" lon="-1.85696">
        <ele>53</ele>
        <time>2021-07-25T07:47:23.000Z</time>
      </trkpt>
      <trkpt lat="47.18902" lon="-1.85705">
        <ele>53</ele>
        <time>2021-07-25T07:47:25.000Z</time>
      </trkpt>
      <trkpt lat="47.1889" lon="-1.85713">
        <ele>53</ele>
        <time>2021-07-25T07:47:27.000Z</time>
      </trkpt>
      <trkpt lat="47.18878" lon="-1.85723">
        <ele>52</ele>
        <time>2021-07-25T07:47:29.000Z</time>
      </trkpt>
      <trkpt lat="47.18866" lon="-1.85732">
        <ele>52</ele>
        <time>2021-07-25T07:47:31.000Z</time>
      </trkpt>
      <trkpt lat="47.18853" lon="-1.85741">
        <ele>52</ele>
        <time>2021-07-25T07:47:33.000Z</time>
      </trkpt>
      <trkpt lat="47.1884" lon="-1.8575">
        <ele>52</ele>
        <time>2021-07-25T07:47:35.000Z</time>
      </trkpt>
      <trkpt lat="47.18828" lon="-1.85759">
        <ele>52</ele>
        <time>2021-07-25T07:47:37.000Z</time>
      </trkpt>
      <trkpt lat="47.18816" lon="-1.85768">
        <ele>52</ele>
        <time>2021-07-25T07:47:39.000Z</time>
      </trkpt>
      <trkpt lat="47.18803" lon="-1.85777">
        <ele>52</ele>
        <time>2021-07-25T07:47:41.000Z</time>
      </trkpt>
      <trkpt lat="47.18791" lon="-1.85786">
        <ele>51</ele>
        <time>2021-07-25T07:47:43.000Z</time>
      </trkpt>
      <trkpt lat="47.18778" lon="-1.85795">
        <ele>52</ele>
        <time>2021-07-25T07:47:45.000Z</time>
      </trkpt>
      <trkpt lat="47.18766" lon="-1.85804">
        <ele>52</ele>
        <time>2021-07-25T07:47:47.000Z</time>
      </trkpt>
      <trkpt lat="47.18754" lon="-1.85813">
        <ele>52</ele>
        <time>2021-07-25T07:47:49.000Z</time>
      </trkpt>
      <trkpt lat="47.18742" lon="-1.85821">
        <ele>52</ele>
        <time>2021-07-25T07:47:51.000Z</time>
      </trkpt>
      <trkpt lat="47.1873" lon="-1.85829">
        <ele>52</ele>
        <time>2021-07-25T07:47:53.000Z</time>
      </trkpt>
      <trkpt lat="47.18718" lon="-1.85838">
        <ele>52</ele>
        <time>2021-07-25T07:47:55.000Z</time>
      </trkpt>
      <trkpt lat="47.18706" lon="-1.85847">
        <ele>52</ele>
        <time>2021-07-25T07:47:57.000Z</time>
      </trkpt>
      <trkpt lat="47.18693" lon="-1.85856">
        <ele>52</ele>
        <time>2021-07-25T07:47:59.000Z</time>
      </trkpt>
      <trkpt lat="47.18682" lon="-1.85864">
        <ele>52</ele>
        <time>2021-07-25T07:48:01.000Z</time>
      </trkpt>
      <trkpt lat="47.1867" lon="-1.85871">
        <ele>51</ele>
        <time>2021-07-25T07:48:03.000Z</time>
      </trkpt>
      <trkpt lat="47.1866" lon="-1.85879">
        <ele>52</ele>
        <time>2021-07-25T07:48:05.000Z</time>
      </trkpt>
      <trkpt lat="47.1865" lon="-1.85887">
        <ele>53</ele>
        <time>2021-07-25T07:48:07.000Z</time>
      </trkpt>
      <trkpt lat="47.1864" lon="-1.85897">
        <ele>54</ele>
        <time>2021-07-25T07:48:09.000Z</time>
      </trkpt>
      <trkpt lat="47.18632" lon="-1.85908">
        <ele>55</ele>
        <time>2021-07-25T07:48:11.000Z</time>
      </trkpt>
      <trkpt lat="47.18622" lon="-1.85921">
        <ele>57</ele>
        <time>2021-07-25T07:48:14.000Z</time>
      </trkpt>
      <trkpt lat="47.18615" lon="-1.8593">
        <ele>58</ele>
        <time>2021-07-25T07:48:16.000Z</time>
      </trkpt>
      <trkpt lat="47.18607" lon="-1.85939">
        <ele>59</ele>
        <time>2021-07-25T07:48:18.000Z</time>
      </trkpt>
      <trkpt lat="47.186" lon="-1.85948">
        <ele>59</ele>
        <time>2021-07-25T07:48:20.000Z</time>
      </trkpt>
      <trkpt lat="47.18594" lon="-1.85958">
        <ele>59</ele>
        <time>2021-07-25T07:48:22.000Z</time>
      </trkpt>
      <trkpt lat="47.18588" lon="-1.85968">
        <ele>60</ele>
        <time>2021-07-25T07:48:24.000Z</time>
      </trkpt>
      <trkpt lat="47.18583" lon="-1.8598">
        <ele>60</ele>
        <time>2021-07-25T07:48:26.000Z</time>
      </trkpt>
      <trkpt lat="47.18578" lon="-1.85992">
        <ele>61</ele>
        <time>2021-07-25T07:48:28.000Z</time>
      </trkpt>
      <trkpt lat="47.18572" lon="-1.86004">
        <ele>62</ele>
        <time>2021-07-25T07:48:30.000Z</time>
      </trkpt>
      <trkpt lat="47.18567" lon="-1.86015">
        <ele>64</ele>
        <time>2021-07-25T07:48:32.000Z</time>
      </trkpt>
      <trkpt lat="47.18561" lon="-1.86027">
        <ele>64</ele>
        <time>2021-07-25T07:48:34.000Z</time>
      </trkpt>
      <trkpt lat="47.18555" lon="-1.86039">
        <ele>64</ele>
        <time>2021-07-25T07:48:36.000Z</time>
      </trkpt>
      <trkpt lat="47.1855" lon="-1.86051">
        <ele>65</ele>
        <time>2021-07-25T07:48:38.000Z</time>
      </trkpt>
      <trkpt lat="47.18544" lon="-1.86064">
        <ele>66</ele>
        <time>2021-07-25T07:48:40.000Z</time>
      </trkpt>
      <trkpt lat="47.18539" lon="-1.86076">
        <ele>66</ele>
        <time>2021-07-25T07:48:42.000Z</time>
      </trkpt>
      <trkpt lat="47.18534" lon="-1.86088">
        <ele>67</ele>
        <time>2021-07-25T07:48:44.000Z</time>
      </trkpt>
      <trkpt lat="47.18528" lon="-1.86099">
        <ele>67</ele>
        <time>2021-07-25T07:48:46.000Z</time>
      </trkpt>
      <trkpt lat="47.18521" lon="-1.86109">
        <ele>67</ele>
        <time>2021-07-25T07:48:48.000Z</time>
      </trkpt>
      <trkpt lat="47.18514" lon="-1.86118">
        <ele>67</ele>
        <time>2021-07-25T07:48:50.000Z</time>
      </trkpt>
      <trkpt lat="47.18511" lon="-1.86137">
        <ele>66</ele>
        <time>2021-07-25T07:48:53.000Z</time>
      </trkpt>
      <trkpt lat="47.18509" lon="-1.86151">
        <ele>66</ele>
        <time>2021-07-25T07:48:55.000Z</time>
      </trkpt>
      <trkpt lat="47.18504" lon="-1.86164">
        <ele>67</ele>
        <time>2021-07-25T07:48:57.000Z</time>
      </trkpt>
      <trkpt lat="47.185" lon="-1.86177">
        <ele>67</ele>
        <time>2021-07-25T07:48:59.000Z</time>
      </trkpt>
      <trkpt lat="47.18496" lon="-1.86191">
        <ele>67</ele>
        <time>2021-07-25T07:49:01.000Z</time>
      </trkpt>
      <trkpt lat="47.18491" lon="-1.86207">
        <ele>67</ele>
        <time>2021-07-25T07:49:03.000Z</time>
      </trkpt>
      <trkpt lat="47.18487" lon="-1.86222">
        <ele>67</ele>
        <time>2021-07-25T07:49:05.000Z</time>
      </trkpt>
      <trkpt lat="47.18482" lon="-1.86238">
        <ele>66</ele>
        <time>2021-07-25T07:49:07.000Z</time>
      </trkpt>
      <trkpt lat="47.18478" lon="-1.86255">
        <ele>66</ele>
        <time>2021-07-25T07:49:09.000Z</time>
      </trkpt>
      <trkpt lat="47.18477" lon="-1.86273">
        <ele>66</ele>
        <time>2021-07-25T07:49:11.000Z</time>
      </trkpt>
      <trkpt lat="47.18475" lon="-1.86291">
        <ele>66</ele>
        <time>2021-07-25T07:49:13.000Z</time>
      </trkpt>
      <trkpt lat="47.18475" lon="-1.86313">
        <ele>66</ele>
        <time>2021-07-25T07:49:15.000Z</time>
      </trkpt>
      <trkpt lat="47.18472" lon="-1.86338">
        <ele>64</ele>
        <time>2021-07-25T07:49:17.000Z</time>
      </trkpt>
      <trkpt lat="47.1847" lon="-1.86351">
        <ele>64</ele>
        <time>2021-07-25T07:49:18.000Z</time>
      </trkpt>
      <trkpt lat="47.18466" lon="-1.86363">
        <ele>63</ele>
        <time>2021-07-25T07:49:19.000Z</time>
      </trkpt>
      <trkpt lat="47.18462" lon="-1.86375">
        <ele>62</ele>
        <time>2021-07-25T07:49:20.000Z</time>
      </trkpt>
      <trkpt lat="47.18452" lon="-1.86396">
        <ele>62</ele>
        <time>2021-07-25T07:49:22.000Z</time>
      </trkpt>
      <trkpt lat="47.18439" lon="-1.86412">
        <ele>61</ele>
        <time>2021-07-25T07:49:24.000Z</time>
      </trkpt>
      <trkpt lat="47.18425" lon="-1.86424">
        <ele>60</ele>
        <time>2021-07-25T07:49:26.000Z</time>
      </trkpt>
      <trkpt lat="47.18413" lon="-1.86438">
        <ele>59</ele>
        <time>2021-07-25T07:49:28.000Z</time>
      </trkpt>
      <trkpt lat="47.18406" lon="-1.86457">
        <ele>58</ele>
        <time>2021-07-25T07:49:30.000Z</time>
      </trkpt>
      <trkpt lat="47.18406" lon="-1.86478">
        <ele>58</ele>
        <time>2021-07-25T07:49:32.000Z</time>
      </trkpt>
      <trkpt lat="47.18409" lon="-1.86497">
        <ele>57</ele>
        <time>2021-07-25T07:49:34.000Z</time>
      </trkpt>
      <trkpt lat="47.18412" lon="-1.86515">
        <ele>57</ele>
        <time>2021-07-25T07:49:36.000Z</time>
      </trkpt>
      <trkpt lat="47.18415" lon="-1.86534">
        <ele>57</ele>
        <time>2021-07-25T07:49:38.000Z</time>
      </trkpt>
      <trkpt lat="47.18418" lon="-1.86551">
        <ele>58</ele>
        <time>2021-07-25T07:49:40.000Z</time>
      </trkpt>
      <trkpt lat="47.1842" lon="-1.8657">
        <ele>58</ele>
        <time>2021-07-25T07:49:42.000Z</time>
      </trkpt>
      <trkpt lat="47.18421" lon="-1.86588">
        <ele>58</ele>
        <time>2021-07-25T07:49:44.000Z</time>
      </trkpt>
      <trkpt lat="47.18422" lon="-1.86606">
        <ele>59</ele>
        <time>2021-07-25T07:49:46.000Z</time>
      </trkpt>
      <trkpt lat="47.18422" lon="-1.86625">
        <ele>60</ele>
        <time>2021-07-25T07:49:48.000Z</time>
      </trkpt>
      <trkpt lat="47.18422" lon="-1.86643">
        <ele>61</ele>
        <time>2021-07-25T07:49:50.000Z</time>
      </trkpt>
      <trkpt lat="47.1842" lon="-1.86658">
        <ele>61</ele>
        <time>2021-07-25T07:49:52.000Z</time>
      </trkpt>
      <trkpt lat="47.1842" lon="-1.86673">
        <ele>62</ele>
        <time>2021-07-25T07:49:54.000Z</time>
      </trkpt>
      <trkpt lat="47.18419" lon="-1.86688">
        <ele>64</ele>
        <time>2021-07-25T07:49:56.000Z</time>
      </trkpt>
      <trkpt lat="47.18418" lon="-1.86703">
        <ele>65</ele>
        <time>2021-07-25T07:49:58.000Z</time>
      </trkpt>
      <trkpt lat="47.18415" lon="-1.86718">
        <ele>65</ele>
        <time>2021-07-25T07:50:00.000Z</time>
      </trkpt>
      <trkpt lat="47.18412" lon="-1.86735">
        <ele>66</ele>
        <time>2021-07-25T07:50:02.000Z</time>
      </trkpt>
      <trkpt lat="47.18409" lon="-1.86751">
        <ele>67</ele>
        <time>2021-07-25T07:50:04.000Z</time>
      </trkpt>
      <trkpt lat="47.18407" lon="-1.86768">
        <ele>67</ele>
        <time>2021-07-25T07:50:06.000Z</time>
      </trkpt>
      <trkpt lat="47.18405" lon="-1.86785">
        <ele>68</ele>
        <time>2021-07-25T07:50:08.000Z</time>
      </trkpt>
      <trkpt lat="47.18402" lon="-1.86799">
        <ele>68</ele>
        <time>2021-07-25T07:50:10.000Z</time>
      </trkpt>
      <trkpt lat="47.184" lon="-1.86815">
        <ele>68</ele>
        <time>2021-07-25T07:50:12.000Z</time>
      </trkpt>
      <trkpt lat="47.18399" lon="-1.86831">
        <ele>68</ele>
        <time>2021-07-25T07:50:14.000Z</time>
      </trkpt>
      <trkpt lat="47.18399" lon="-1.86845">
        <ele>69</ele>
        <time>2021-07-25T07:50:16.000Z</time>
      </trkpt>
      <trkpt lat="47.18399" lon="-1.8686">
        <ele>69</ele>
        <time>2021-07-25T07:50:18.000Z</time>
      </trkpt>
      <trkpt lat="47.18399" lon="-1.86875">
        <ele>69</ele>
        <time>2021-07-25T07:50:20.000Z</time>
      </trkpt>
      <trkpt lat="47.184" lon="-1.86891">
        <ele>69</ele>
        <time>2021-07-25T07:50:22.000Z</time>
      </trkpt>
      <trkpt lat="47.18402" lon="-1.86909">
        <ele>70</ele>
        <time>2021-07-25T07:50:24.000Z</time>
      </trkpt>
      <trkpt lat="47.18403" lon="-1.86928">
        <ele>70</ele>
        <time>2021-07-25T07:50:26.000Z</time>
      </trkpt>
      <trkpt lat="47.18404" lon="-1.86945">
        <ele>71</ele>
        <time>2021-07-25T07:50:28.000Z</time>
      </trkpt>
      <trkpt lat="47.18406" lon="-1.86962">
        <ele>71</ele>
        <time>2021-07-25T07:50:30.000Z</time>
      </trkpt>
      <trkpt lat="47.18407" lon="-1.86977">
        <ele>72</ele>
        <time>2021-07-25T07:50:32.000Z</time>
      </trkpt>
      <trkpt lat="47.18408" lon="-1.86993">
        <ele>72</ele>
        <time>2021-07-25T07:50:34.000Z</time>
      </trkpt>
      <trkpt lat="47.1841" lon="-1.87008">
        <ele>73</ele>
        <time>2021-07-25T07:50:36.000Z</time>
      </trkpt>
      <trkpt lat="47.18413" lon="-1.87026">
        <ele>73</ele>
        <time>2021-07-25T07:50:38.000Z</time>
      </trkpt>
      <trkpt lat="47.18416" lon="-1.87045">
        <ele>73</ele>
        <time>2021-07-25T07:50:40.000Z</time>
      </trkpt>
      <trkpt lat="47.18421" lon="-1.87067">
        <ele>73</ele>
        <time>2021-07-25T07:50:42.000Z</time>
      </trkpt>
      <trkpt lat="47.18426" lon="-1.87087">
        <ele>73</ele>
        <time>2021-07-25T07:50:44.000Z</time>
      </trkpt>
      <trkpt lat="47.18432" lon="-1.87108">
        <ele>72</ele>
        <time>2021-07-25T07:50:46.000Z</time>
      </trkpt>
      <trkpt lat="47.1844" lon="-1.8713">
        <ele>71</ele>
        <time>2021-07-25T07:50:48.000Z</time>
      </trkpt>
      <trkpt lat="47.18447" lon="-1.87153">
        <ele>70</ele>
        <time>2021-07-25T07:50:50.000Z</time>
      </trkpt>
      <trkpt lat="47.18454" lon="-1.87177">
        <ele>69</ele>
        <time>2021-07-25T07:50:52.000Z</time>
      </trkpt>
      <trkpt lat="47.1846" lon="-1.87199">
        <ele>68</ele>
        <time>2021-07-25T07:50:54.000Z</time>
      </trkpt>
      <trkpt lat="47.18465" lon="-1.87222">
        <ele>68</ele>
        <time>2021-07-25T07:50:56.000Z</time>
      </trkpt>
      <trkpt lat="47.18469" lon="-1.87242">
        <ele>67</ele>
        <time>2021-07-25T07:50:58.000Z</time>
      </trkpt>
      <trkpt lat="47.18472" lon="-1.87262">
        <ele>67</ele>
        <time>2021-07-25T07:51:00.000Z</time>
      </trkpt>
      <trkpt lat="47.18474" lon="-1.87278">
        <ele>67</ele>
        <time>2021-07-25T07:51:02.000Z</time>
      </trkpt>
      <trkpt lat="47.18476" lon="-1.87292">
        <ele>67</ele>
        <time>2021-07-25T07:51:04.000Z</time>
      </trkpt>
      <trkpt lat="47.18477" lon="-1.87307">
        <ele>68</ele>
        <time>2021-07-25T07:51:06.000Z</time>
      </trkpt>
      <trkpt lat="47.18479" lon="-1.8732">
        <ele>69</ele>
        <time>2021-07-25T07:51:08.000Z</time>
      </trkpt>
      <trkpt lat="47.1848" lon="-1.87333">
        <ele>69</ele>
        <time>2021-07-25T07:51:10.000Z</time>
      </trkpt>
      <trkpt lat="47.18482" lon="-1.87346">
        <ele>70</ele>
        <time>2021-07-25T07:51:12.000Z</time>
      </trkpt>
      <trkpt lat="47.18483" lon="-1.8736">
        <ele>70</ele>
        <time>2021-07-25T07:51:14.000Z</time>
      </trkpt>
      <trkpt lat="47.18485" lon="-1.87373">
        <ele>70</ele>
        <time>2021-07-25T07:51:16.000Z</time>
      </trkpt>
      <trkpt lat="47.18487" lon="-1.87386">
        <ele>71</ele>
        <time>2021-07-25T07:51:18.000Z</time>
      </trkpt>
      <trkpt lat="47.18489" lon="-1.874">
        <ele>72</ele>
        <time>2021-07-25T07:51:20.000Z</time>
      </trkpt>
      <trkpt lat="47.18491" lon="-1.87413">
        <ele>72</ele>
        <time>2021-07-25T07:51:22.000Z</time>
      </trkpt>
      <trkpt lat="47.18492" lon="-1.87426">
        <ele>73</ele>
        <time>2021-07-25T07:51:24.000Z</time>
      </trkpt>
      <trkpt lat="47.18491" lon="-1.87445">
        <ele>74</ele>
        <time>2021-07-25T07:51:27.000Z</time>
      </trkpt>
      <trkpt lat="47.18481" lon="-1.87459">
        <ele>75</ele>
        <time>2021-07-25T07:51:30.000Z</time>
      </trkpt>
      <trkpt lat="47.18474" lon="-1.87465">
        <ele>76</ele>
        <time>2021-07-25T07:51:32.000Z</time>
      </trkpt>
      <trkpt lat="47.18465" lon="-1.87473">
        <ele>76</ele>
        <time>2021-07-25T07:51:34.000Z</time>
      </trkpt>
      <trkpt lat="47.18457" lon="-1.8748">
        <ele>76</ele>
        <time>2021-07-25T07:51:36.000Z</time>
      </trkpt>
      <trkpt lat="47.18449" lon="-1.87488">
        <ele>76</ele>
        <time>2021-07-25T07:51:38.000Z</time>
      </trkpt>
      <trkpt lat="47.1844" lon="-1.87494">
        <ele>77</ele>
        <time>2021-07-25T07:51:40.000Z</time>
      </trkpt>
      <trkpt lat="47.18432" lon="-1.87499">
        <ele>77</ele>
        <time>2021-07-25T07:51:42.000Z</time>
      </trkpt>
      <trkpt lat="47.18422" lon="-1.87503">
        <ele>77</ele>
        <time>2021-07-25T07:51:44.000Z</time>
      </trkpt>
      <trkpt lat="47.18413" lon="-1.87507">
        <ele>77</ele>
        <time>2021-07-25T07:51:46.000Z</time>
      </trkpt>
      <trkpt lat="47.18404" lon="-1.8751">
        <ele>78</ele>
        <time>2021-07-25T07:51:48.000Z</time>
      </trkpt>
      <trkpt lat="47.18395" lon="-1.87513">
        <ele>78</ele>
        <time>2021-07-25T07:51:50.000Z</time>
      </trkpt>
      <trkpt lat="47.18385" lon="-1.87515">
        <ele>79</ele>
        <time>2021-07-25T07:51:52.000Z</time>
      </trkpt>
      <trkpt lat="47.18376" lon="-1.87516">
        <ele>79</ele>
        <time>2021-07-25T07:51:54.000Z</time>
      </trkpt>
      <trkpt lat="47.18367" lon="-1.87517">
        <ele>79</ele>
        <time>2021-07-25T07:51:56.000Z</time>
      </trkpt>
      <trkpt lat="47.18357" lon="-1.87519">
        <ele>79</ele>
        <time>2021-07-25T07:51:58.000Z</time>
      </trkpt>
      <trkpt lat="47.18348" lon="-1.87521">
        <ele>79</ele>
        <time>2021-07-25T07:52:00.000Z</time>
      </trkpt>
      <trkpt lat="47.18338" lon="-1.87522">
        <ele>79</ele>
        <time>2021-07-25T07:52:02.000Z</time>
      </trkpt>
      <trkpt lat="47.18329" lon="-1.87523">
        <ele>79</ele>
        <time>2021-07-25T07:52:04.000Z</time>
      </trkpt>
      <trkpt lat="47.18319" lon="-1.87524">
        <ele>79</ele>
        <time>2021-07-25T07:52:06.000Z</time>
      </trkpt>
      <trkpt lat="47.18309" lon="-1.87526">
        <ele>80</ele>
        <time>2021-07-25T07:52:08.000Z</time>
      </trkpt>
      <trkpt lat="47.183" lon="-1.87528">
        <ele>80</ele>
        <time>2021-07-25T07:52:10.000Z</time>
      </trkpt>
      <trkpt lat="47.1829" lon="-1.87531">
        <ele>79</ele>
        <time>2021-07-25T07:52:12.000Z</time>
      </trkpt>
      <trkpt lat="47.18281" lon="-1.87535">
        <ele>79</ele>
        <time>2021-07-25T07:52:14.000Z</time>
      </trkpt>
      <trkpt lat="47.18271" lon="-1.87539">
        <ele>79</ele>
        <time>2021-07-25T07:52:16.000Z</time>
      </trkpt>
      <trkpt lat="47.18262" lon="-1.87544">
        <ele>79</ele>
        <time>2021-07-25T07:52:18.000Z</time>
      </trkpt>
      <trkpt lat="47.18253" lon="-1.87551">
        <ele>79</ele>
        <time>2021-07-25T07:52:20.000Z</time>
      </trkpt>
      <trkpt lat="47.18243" lon="-1.87559">
        <ele>80</ele>
        <time>2021-07-25T07:52:22.000Z</time>
      </trkpt>
      <trkpt lat="47.18234" lon="-1.87567">
        <ele>80</ele>
        <time>2021-07-25T07:52:24.000Z</time>
      </trkpt>
      <trkpt lat="47.18225" lon="-1.87576">
        <ele>80</ele>
        <time>2021-07-25T07:52:26.000Z</time>
      </trkpt>
      <trkpt lat="47.18214" lon="-1.87585">
        <ele>80</ele>
        <time>2021-07-25T07:52:28.000Z</time>
      </trkpt>
      <trkpt lat="47.18205" lon="-1.87594">
        <ele>79</ele>
        <time>2021-07-25T07:52:30.000Z</time>
      </trkpt>
      <trkpt lat="47.18195" lon="-1.87603">
        <ele>79</ele>
        <time>2021-07-25T07:52:32.000Z</time>
      </trkpt>
      <trkpt lat="47.18185" lon="-1.87613">
        <ele>79</ele>
        <time>2021-07-25T07:52:34.000Z</time>
      </trkpt>
      <trkpt lat="47.18175" lon="-1.87622">
        <ele>80</ele>
        <time>2021-07-25T07:52:36.000Z</time>
      </trkpt>
      <trkpt lat="47.18165" lon="-1.8763">
        <ele>80</ele>
        <time>2021-07-25T07:52:38.000Z</time>
      </trkpt>
      <trkpt lat="47.18155" lon="-1.87637">
        <ele>80</ele>
        <time>2021-07-25T07:52:40.000Z</time>
      </trkpt>
      <trkpt lat="47.18144" lon="-1.87644">
        <ele>80</ele>
        <time>2021-07-25T07:52:42.000Z</time>
      </trkpt>
      <trkpt lat="47.18134" lon="-1.87651">
        <ele>81</ele>
        <time>2021-07-25T07:52:44.000Z</time>
      </trkpt>
      <trkpt lat="47.18123" lon="-1.87658">
        <ele>81</ele>
        <time>2021-07-25T07:52:46.000Z</time>
      </trkpt>
      <trkpt lat="47.18113" lon="-1.87664">
        <ele>81</ele>
        <time>2021-07-25T07:52:48.000Z</time>
      </trkpt>
      <trkpt lat="47.18103" lon="-1.8767">
        <ele>81</ele>
        <time>2021-07-25T07:52:50.000Z</time>
      </trkpt>
      <trkpt lat="47.18092" lon="-1.87677">
        <ele>81</ele>
        <time>2021-07-25T07:52:52.000Z</time>
      </trkpt>
      <trkpt lat="47.18082" lon="-1.87684">
        <ele>82</ele>
        <time>2021-07-25T07:52:54.000Z</time>
      </trkpt>
      <trkpt lat="47.18072" lon="-1.87692">
        <ele>82</ele>
        <time>2021-07-25T07:52:56.000Z</time>
      </trkpt>
      <trkpt lat="47.18062" lon="-1.877">
        <ele>82</ele>
        <time>2021-07-25T07:52:58.000Z</time>
      </trkpt>
      <trkpt lat="47.18053" lon="-1.87709">
        <ele>83</ele>
        <time>2021-07-25T07:53:00.000Z</time>
      </trkpt>
      <trkpt lat="47.18044" lon="-1.87718">
        <ele>84</ele>
        <time>2021-07-25T07:53:02.000Z</time>
      </trkpt>
      <trkpt lat="47.18035" lon="-1.87728">
        <ele>84</ele>
        <time>2021-07-25T07:53:04.000Z</time>
      </trkpt>
      <trkpt lat="47.18025" lon="-1.87737">
        <ele>84</ele>
        <time>2021-07-25T07:53:06.000Z</time>
      </trkpt>
      <trkpt lat="47.18015" lon="-1.87744">
        <ele>84</ele>
        <time>2021-07-25T07:53:08.000Z</time>
      </trkpt>
      <trkpt lat="47.18005" lon="-1.8775">
        <ele>84</ele>
        <time>2021-07-25T07:53:10.000Z</time>
      </trkpt>
      <trkpt lat="47.17995" lon="-1.87756">
        <ele>85</ele>
        <time>2021-07-25T07:53:12.000Z</time>
      </trkpt>
      <trkpt lat="47.17984" lon="-1.87762">
        <ele>85</ele>
        <time>2021-07-25T07:53:14.000Z</time>
      </trkpt>
      <trkpt lat="47.17974" lon="-1.87768">
        <ele>85</ele>
        <time>2021-07-25T07:53:16.000Z</time>
      </trkpt>
      <trkpt lat="47.17964" lon="-1.87773">
        <ele>86</ele>
        <time>2021-07-25T07:53:18.000Z</time>
      </trkpt>
      <trkpt lat="47.17954" lon="-1.87779">
        <ele>87</ele>
        <time>2021-07-25T07:53:20.000Z</time>
      </trkpt>
      <trkpt lat="47.17944" lon="-1.87785">
        <ele>87</ele>
        <time>2021-07-25T07:53:22.000Z</time>
      </trkpt>
      <trkpt lat="47.17934" lon="-1.8779">
        <ele>87</ele>
        <time>2021-07-25T07:53:24.000Z</time>
      </trkpt>
      <trkpt lat="47.17924" lon="-1.87796">
        <ele>88</ele>
        <time>2021-07-25T07:53:26.000Z</time>
      </trkpt>
      <trkpt lat="47.17914" lon="-1.87801">
        <ele>88</ele>
        <time>2021-07-25T07:53:28.000Z</time>
      </trkpt>
      <trkpt lat="47.17905" lon="-1.87806">
        <ele>89</ele>
        <time>2021-07-25T07:53:30.000Z</time>
      </trkpt>
      <trkpt lat="47.17895" lon="-1.87812">
        <ele>89</ele>
        <time>2021-07-25T07:53:32.000Z</time>
      </trkpt>
      <trkpt lat="47.17886" lon="-1.87816">
        <ele>89</ele>
        <time>2021-07-25T07:53:34.000Z</time>
      </trkpt>
      <trkpt lat="47.17877" lon="-1.87822">
        <ele>89</ele>
        <time>2021-07-25T07:53:36.000Z</time>
      </trkpt>
      <trkpt lat="47.17867" lon="-1.87827">
        <ele>90</ele>
        <time>2021-07-25T07:53:38.000Z</time>
      </trkpt>
      <trkpt lat="47.17857" lon="-1.87833">
        <ele>90</ele>
        <time>2021-07-25T07:53:40.000Z</time>
      </trkpt>
      <trkpt lat="47.17847" lon="-1.87837">
        <ele>91</ele>
        <time>2021-07-25T07:53:42.000Z</time>
      </trkpt>
      <trkpt lat="47.17838" lon="-1.87842">
        <ele>91</ele>
        <time>2021-07-25T07:53:44.000Z</time>
      </trkpt>
      <trkpt lat="47.17828" lon="-1.87847">
        <ele>92</ele>
        <time>2021-07-25T07:53:46.000Z</time>
      </trkpt>
      <trkpt lat="47.17818" lon="-1.87851">
        <ele>92</ele>
        <time>2021-07-25T07:53:48.000Z</time>
      </trkpt>
      <trkpt lat="47.17807" lon="-1.87856">
        <ele>92</ele>
        <time>2021-07-25T07:53:50.000Z</time>
      </trkpt>
      <trkpt lat="47.17797" lon="-1.8786">
        <ele>93</ele>
        <time>2021-07-25T07:53:52.000Z</time>
      </trkpt>
      <trkpt lat="47.17788" lon="-1.87864">
        <ele>94</ele>
        <time>2021-07-25T07:53:54.000Z</time>
      </trkpt>
      <trkpt lat="47.17778" lon="-1.87869">
        <ele>95</ele>
        <time>2021-07-25T07:53:56.000Z</time>
      </trkpt>
      <trkpt lat="47.17768" lon="-1.87874">
        <ele>95</ele>
        <time>2021-07-25T07:53:58.000Z</time>
      </trkpt>
      <trkpt lat="47.17758" lon="-1.87879">
        <ele>95</ele>
        <time>2021-07-25T07:54:00.000Z</time>
      </trkpt>
      <trkpt lat="47.17749" lon="-1.87885">
        <ele>95</ele>
        <time>2021-07-25T07:54:02.000Z</time>
      </trkpt>
      <trkpt lat="47.1774" lon="-1.87892">
        <ele>95</ele>
        <time>2021-07-25T07:54:04.000Z</time>
      </trkpt>
      <trkpt lat="47.17731" lon="-1.87899">
        <ele>96</ele>
        <time>2021-07-25T07:54:06.000Z</time>
      </trkpt>
      <trkpt lat="47.17721" lon="-1.87905">
        <ele>96</ele>
        <time>2021-07-25T07:54:08.000Z</time>
      </trkpt>
      <trkpt lat="47.17712" lon="-1.87911">
        <ele>96</ele>
        <time>2021-07-25T07:54:10.000Z</time>
      </trkpt>
      <trkpt lat="47.17702" lon="-1.87917">
        <ele>97</ele>
        <time>2021-07-25T07:54:12.000Z</time>
      </trkpt>
      <trkpt lat="47.17691" lon="-1.87921">
        <ele>98</ele>
        <time>2021-07-25T07:54:14.000Z</time>
      </trkpt>
      <trkpt lat="47.17681" lon="-1.87922">
        <ele>98</ele>
        <time>2021-07-25T07:54:16.000Z</time>
      </trkpt>
      <trkpt lat="47.1767" lon="-1.87924">
        <ele>98</ele>
        <time>2021-07-25T07:54:18.000Z</time>
      </trkpt>
      <trkpt lat="47.1766" lon="-1.87926">
        <ele>98</ele>
        <time>2021-07-25T07:54:20.000Z</time>
      </trkpt>
      <trkpt lat="47.1765" lon="-1.87929">
        <ele>99</ele>
        <time>2021-07-25T07:54:22.000Z</time>
      </trkpt>
      <trkpt lat="47.1764" lon="-1.87933">
        <ele>98</ele>
        <time>2021-07-25T07:54:24.000Z</time>
      </trkpt>
      <trkpt lat="47.17631" lon="-1.87937">
        <ele>98</ele>
        <time>2021-07-25T07:54:26.000Z</time>
      </trkpt>
      <trkpt lat="47.17622" lon="-1.87941">
        <ele>98</ele>
        <time>2021-07-25T07:54:28.000Z</time>
      </trkpt>
      <trkpt lat="47.17614" lon="-1.87945">
        <ele>98</ele>
        <time>2021-07-25T07:54:30.000Z</time>
      </trkpt>
      <trkpt lat="47.17605" lon="-1.8795">
        <ele>99</ele>
        <time>2021-07-25T07:54:32.000Z</time>
      </trkpt>
      <trkpt lat="47.17595" lon="-1.87955">
        <ele>99</ele>
        <time>2021-07-25T07:54:34.000Z</time>
      </trkpt>
      <trkpt lat="47.17586" lon="-1.87962">
        <ele>100</ele>
        <time>2021-07-25T07:54:36.000Z</time>
      </trkpt>
      <trkpt lat="47.17578" lon="-1.87969">
        <ele>101</ele>
        <time>2021-07-25T07:54:38.000Z</time>
      </trkpt>
      <trkpt lat="47.17568" lon="-1.87974">
        <ele>101</ele>
        <time>2021-07-25T07:54:40.000Z</time>
      </trkpt>
      <trkpt lat="47.17558" lon="-1.8798">
        <ele>102</ele>
        <time>2021-07-25T07:54:42.000Z</time>
      </trkpt>
      <trkpt lat="47.17548" lon="-1.87986">
        <ele>102</ele>
        <time>2021-07-25T07:54:44.000Z</time>
      </trkpt>
      <trkpt lat="47.1754" lon="-1.87993">
        <ele>103</ele>
        <time>2021-07-25T07:54:46.000Z</time>
      </trkpt>
      <trkpt lat="47.17531" lon="-1.87998">
        <ele>104</ele>
        <time>2021-07-25T07:54:48.000Z</time>
      </trkpt>
      <trkpt lat="47.17522" lon="-1.88004">
        <ele>105</ele>
        <time>2021-07-25T07:54:50.000Z</time>
      </trkpt>
      <trkpt lat="47.17513" lon="-1.88011">
        <ele>106</ele>
        <time>2021-07-25T07:54:52.000Z</time>
      </trkpt>
      <trkpt lat="47.17504" lon="-1.88016">
        <ele>106</ele>
        <time>2021-07-25T07:54:54.000Z</time>
      </trkpt>
      <trkpt lat="47.17495" lon="-1.88022">
        <ele>107</ele>
        <time>2021-07-25T07:54:56.000Z</time>
      </trkpt>
      <trkpt lat="47.17485" lon="-1.88028">
        <ele>107</ele>
        <time>2021-07-25T07:54:58.000Z</time>
      </trkpt>
      <trkpt lat="47.17476" lon="-1.88034">
        <ele>107</ele>
        <time>2021-07-25T07:55:00.000Z</time>
      </trkpt>
      <trkpt lat="47.17466" lon="-1.8804">
        <ele>108</ele>
        <time>2021-07-25T07:55:02.000Z</time>
      </trkpt>
      <trkpt lat="47.17458" lon="-1.88045">
        <ele>108</ele>
        <time>2021-07-25T07:55:04.000Z</time>
      </trkpt>
      <trkpt lat="47.17449" lon="-1.88052">
        <ele>108</ele>
        <time>2021-07-25T07:55:06.000Z</time>
      </trkpt>
      <trkpt lat="47.1744" lon="-1.88057">
        <ele>108</ele>
        <time>2021-07-25T07:55:08.000Z</time>
      </trkpt>
      <trkpt lat="47.17428" lon="-1.88063">
        <ele>108</ele>
        <time>2021-07-25T07:55:11.000Z</time>
      </trkpt>
      <trkpt lat="47.17415" lon="-1.88067">
        <ele>109</ele>
        <time>2021-07-25T07:55:14.000Z</time>
      </trkpt>
      <trkpt lat="47.17405" lon="-1.88071">
        <ele>109</ele>
        <time>2021-07-25T07:55:16.000Z</time>
      </trkpt>
      <trkpt lat="47.17396" lon="-1.88075">
        <ele>109</ele>
        <time>2021-07-25T07:55:18.000Z</time>
      </trkpt>
      <trkpt lat="47.17387" lon="-1.88082">
        <ele>109</ele>
        <time>2021-07-25T07:55:20.000Z</time>
      </trkpt>
      <trkpt lat="47.17379" lon="-1.88088">
        <ele>110</ele>
        <time>2021-07-25T07:55:22.000Z</time>
      </trkpt>
      <trkpt lat="47.17371" lon="-1.88093">
        <ele>110</ele>
        <time>2021-07-25T07:55:24.000Z</time>
      </trkpt>
      <trkpt lat="47.17362" lon="-1.88099">
        <ele>110</ele>
        <time>2021-07-25T07:55:26.000Z</time>
      </trkpt>
      <trkpt lat="47.17353" lon="-1.88107">
        <ele>110</ele>
        <time>2021-07-25T07:55:28.000Z</time>
      </trkpt>
      <trkpt lat="47.17346" lon="-1.88118">
        <ele>109</ele>
        <time>2021-07-25T07:55:30.000Z</time>
      </trkpt>
      <trkpt lat="47.17343" lon="-1.88132">
        <ele>109</ele>
        <time>2021-07-25T07:55:32.000Z</time>
      </trkpt>
      <trkpt lat="47.17343" lon="-1.88148">
        <ele>109</ele>
        <time>2021-07-25T07:55:34.000Z</time>
      </trkpt>
      <trkpt lat="47.17346" lon="-1.88163">
        <ele>108</ele>
        <time>2021-07-25T07:55:36.000Z</time>
      </trkpt>
      <trkpt lat="47.1735" lon="-1.88178">
        <ele>108</ele>
        <time>2021-07-25T07:55:38.000Z</time>
      </trkpt>
      <trkpt lat="47.17354" lon="-1.88193">
        <ele>108</ele>
        <time>2021-07-25T07:55:40.000Z</time>
      </trkpt>
      <trkpt lat="47.17359" lon="-1.88208">
        <ele>107</ele>
        <time>2021-07-25T07:55:42.000Z</time>
      </trkpt>
      <trkpt lat="47.17363" lon="-1.88224">
        <ele>107</ele>
        <time>2021-07-25T07:55:44.000Z</time>
      </trkpt>
      <trkpt lat="47.17366" lon="-1.88241">
        <ele>107</ele>
        <time>2021-07-25T07:55:46.000Z</time>
      </trkpt>
      <trkpt lat="47.17367" lon="-1.88258">
        <ele>107</ele>
        <time>2021-07-25T07:55:48.000Z</time>
      </trkpt>
      <trkpt lat="47.17369" lon="-1.88276">
        <ele>107</ele>
        <time>2021-07-25T07:55:50.000Z</time>
      </trkpt>
      <trkpt lat="47.17369" lon="-1.88293">
        <ele>107</ele>
        <time>2021-07-25T07:55:52.000Z</time>
      </trkpt>
      <trkpt lat="47.1737" lon="-1.88311">
        <ele>106</ele>
        <time>2021-07-25T07:55:54.000Z</time>
      </trkpt>
      <trkpt lat="47.17371" lon="-1.88329">
        <ele>106</ele>
        <time>2021-07-25T07:55:56.000Z</time>
      </trkpt>
      <trkpt lat="47.17372" lon="-1.88347">
        <ele>106</ele>
        <time>2021-07-25T07:55:58.000Z</time>
      </trkpt>
      <trkpt lat="47.17373" lon="-1.88366">
        <ele>106</ele>
        <time>2021-07-25T07:56:00.000Z</time>
      </trkpt>
      <trkpt lat="47.17374" lon="-1.88383">
        <ele>106</ele>
        <time>2021-07-25T07:56:02.000Z</time>
      </trkpt>
      <trkpt lat="47.17375" lon="-1.884">
        <ele>106</ele>
        <time>2021-07-25T07:56:04.000Z</time>
      </trkpt>
      <trkpt lat="47.17376" lon="-1.88416">
        <ele>106</ele>
        <time>2021-07-25T07:56:06.000Z</time>
      </trkpt>
      <trkpt lat="47.17377" lon="-1.88432">
        <ele>106</ele>
        <time>2021-07-25T07:56:08.000Z</time>
      </trkpt>
      <trkpt lat="47.17378" lon="-1.88449">
        <ele>106</ele>
        <time>2021-07-25T07:56:10.000Z</time>
      </trkpt>
      <trkpt lat="47.17379" lon="-1.88467">
        <ele>106</ele>
        <time>2021-07-25T07:56:12.000Z</time>
      </trkpt>
      <trkpt lat="47.1738" lon="-1.88484">
        <ele>106</ele>
        <time>2021-07-25T07:56:14.000Z</time>
      </trkpt>
      <trkpt lat="47.17381" lon="-1.88501">
        <ele>106</ele>
        <time>2021-07-25T07:56:16.000Z</time>
      </trkpt>
      <trkpt lat="47.17382" lon="-1.88518">
        <ele>106</ele>
        <time>2021-07-25T07:56:18.000Z</time>
      </trkpt>
      <trkpt lat="47.17383" lon="-1.88534">
        <ele>106</ele>
        <time>2021-07-25T07:56:20.000Z</time>
      </trkpt>
      <trkpt lat="47.17384" lon="-1.8855">
        <ele>106</ele>
        <time>2021-07-25T07:56:22.000Z</time>
      </trkpt>
      <trkpt lat="47.17385" lon="-1.88567">
        <ele>106</ele>
        <time>2021-07-25T07:56:24.000Z</time>
      </trkpt>
      <trkpt lat="47.17386" lon="-1.88584">
        <ele>106</ele>
        <time>2021-07-25T07:56:26.000Z</time>
      </trkpt>
      <trkpt lat="47.17387" lon="-1.88601">
        <ele>106</ele>
        <time>2021-07-25T07:56:28.000Z</time>
      </trkpt>
      <trkpt lat="47.17388" lon="-1.88618">
        <ele>106</ele>
        <time>2021-07-25T07:56:30.000Z</time>
      </trkpt>
      <trkpt lat="47.17389" lon="-1.88635">
        <ele>106</ele>
        <time>2021-07-25T07:56:32.000Z</time>
      </trkpt>
      <trkpt lat="47.1739" lon="-1.88651">
        <ele>106</ele>
        <time>2021-07-25T07:56:34.000Z</time>
      </trkpt>
      <trkpt lat="47.17391" lon="-1.88668">
        <ele>106</ele>
        <time>2021-07-25T07:56:36.000Z</time>
      </trkpt>
      <trkpt lat="47.17392" lon="-1.88684">
        <ele>106</ele>
        <time>2021-07-25T07:56:38.000Z</time>
      </trkpt>
      <trkpt lat="47.17393" lon="-1.887">
        <ele>106</ele>
        <time>2021-07-25T07:56:40.000Z</time>
      </trkpt>
      <trkpt lat="47.17393" lon="-1.88717">
        <ele>106</ele>
        <time>2021-07-25T07:56:42.000Z</time>
      </trkpt>
      <trkpt lat="47.17394" lon="-1.88733">
        <ele>105</ele>
        <time>2021-07-25T07:56:44.000Z</time>
      </trkpt>
      <trkpt lat="47.17394" lon="-1.88749">
        <ele>105</ele>
        <time>2021-07-25T07:56:46.000Z</time>
      </trkpt>
      <trkpt lat="47.17395" lon="-1.88764">
        <ele>105</ele>
        <time>2021-07-25T07:56:48.000Z</time>
      </trkpt>
      <trkpt lat="47.17396" lon="-1.8878">
        <ele>106</ele>
        <time>2021-07-25T07:56:50.000Z</time>
      </trkpt>
      <trkpt lat="47.17397" lon="-1.88796">
        <ele>106</ele>
        <time>2021-07-25T07:56:52.000Z</time>
      </trkpt>
      <trkpt lat="47.17399" lon="-1.88812">
        <ele>106</ele>
        <time>2021-07-25T07:56:54.000Z</time>
      </trkpt>
      <trkpt lat="47.17402" lon="-1.88828">
        <ele>106</ele>
        <time>2021-07-25T07:56:56.000Z</time>
      </trkpt>
      <trkpt lat="47.17406" lon="-1.88844">
        <ele>106</ele>
        <time>2021-07-25T07:56:58.000Z</time>
      </trkpt>
      <trkpt lat="47.17409" lon="-1.88859">
        <ele>106</ele>
        <time>2021-07-25T07:57:00.000Z</time>
      </trkpt>
      <trkpt lat="47.17412" lon="-1.88875">
        <ele>106</ele>
        <time>2021-07-25T07:57:02.000Z</time>
      </trkpt>
      <trkpt lat="47.17416" lon="-1.88891">
        <ele>106</ele>
        <time>2021-07-25T07:57:04.000Z</time>
      </trkpt>
      <trkpt lat="47.17419" lon="-1.88907">
        <ele>106</ele>
        <time>2021-07-25T07:57:06.000Z</time>
      </trkpt>
      <trkpt lat="47.17423" lon="-1.88922">
        <ele>106</ele>
        <time>2021-07-25T07:57:08.000Z</time>
      </trkpt>
      <trkpt lat="47.17427" lon="-1.88938">
        <ele>106</ele>
        <time>2021-07-25T07:57:10.000Z</time>
      </trkpt>
      <trkpt lat="47.1743" lon="-1.88954">
        <ele>106</ele>
        <time>2021-07-25T07:57:12.000Z</time>
      </trkpt>
      <trkpt lat="47.17434" lon="-1.88969">
        <ele>106</ele>
        <time>2021-07-25T07:57:14.000Z</time>
      </trkpt>
      <trkpt lat="47.17438" lon="-1.88985">
        <ele>106</ele>
        <time>2021-07-25T07:57:16.000Z</time>
      </trkpt>
      <trkpt lat="47.17441" lon="-1.89">
        <ele>106</ele>
        <time>2021-07-25T07:57:18.000Z</time>
      </trkpt>
      <trkpt lat="47.17444" lon="-1.89016">
        <ele>107</ele>
        <time>2021-07-25T07:57:20.000Z</time>
      </trkpt>
      <trkpt lat="47.17447" lon="-1.89031">
        <ele>106</ele>
        <time>2021-07-25T07:57:22.000Z</time>
      </trkpt>
      <trkpt lat="47.1745" lon="-1.89047">
        <ele>107</ele>
        <time>2021-07-25T07:57:24.000Z</time>
      </trkpt>
      <trkpt lat="47.17455" lon="-1.89069">
        <ele>107</ele>
        <time>2021-07-25T07:57:27.000Z</time>
      </trkpt>
      <trkpt lat="47.17458" lon="-1.89084">
        <ele>107</ele>
        <time>2021-07-25T07:57:29.000Z</time>
      </trkpt>
      <trkpt lat="47.17461" lon="-1.89099">
        <ele>108</ele>
        <time>2021-07-25T07:57:31.000Z</time>
      </trkpt>
      <trkpt lat="47.17465" lon="-1.89114">
        <ele>108</ele>
        <time>2021-07-25T07:57:33.000Z</time>
      </trkpt>
      <trkpt lat="47.17468" lon="-1.89129">
        <ele>108</ele>
        <time>2021-07-25T07:57:35.000Z</time>
      </trkpt>
      <trkpt lat="47.17471" lon="-1.89144">
        <ele>108</ele>
        <time>2021-07-25T07:57:37.000Z</time>
      </trkpt>
      <trkpt lat="47.17475" lon="-1.89159">
        <ele>108</ele>
        <time>2021-07-25T07:57:39.000Z</time>
      </trkpt>
      <trkpt lat="47.17477" lon="-1.89175">
        <ele>108</ele>
        <time>2021-07-25T07:57:41.000Z</time>
      </trkpt>
      <trkpt lat="47.1748" lon="-1.892">
        <ele>108</ele>
        <time>2021-07-25T07:57:44.000Z</time>
      </trkpt>
      <trkpt lat="47.17481" lon="-1.89217">
        <ele>108</ele>
        <time>2021-07-25T07:57:46.000Z</time>
      </trkpt>
      <trkpt lat="47.17481" lon="-1.89234">
        <ele>107</ele>
        <time>2021-07-25T07:57:48.000Z</time>
      </trkpt>
      <trkpt lat="47.1748" lon="-1.8925">
        <ele>107</ele>
        <time>2021-07-25T07:57:50.000Z</time>
      </trkpt>
      <trkpt lat="47.17478" lon="-1.89274">
        <ele>108</ele>
        <time>2021-07-25T07:57:53.000Z</time>
      </trkpt>
      <trkpt lat="47.17477" lon="-1.89291">
        <ele>108</ele>
        <time>2021-07-25T07:57:55.000Z</time>
      </trkpt>
      <trkpt lat="47.17476" lon="-1.89307">
        <ele>108</ele>
        <time>2021-07-25T07:57:57.000Z</time>
      </trkpt>
      <trkpt lat="47.17475" lon="-1.89324">
        <ele>108</ele>
        <time>2021-07-25T07:57:59.000Z</time>
      </trkpt>
      <trkpt lat="47.17474" lon="-1.89341">
        <ele>108</ele>
        <time>2021-07-25T07:58:01.000Z</time>
      </trkpt>
      <trkpt lat="47.17474" lon="-1.89358">
        <ele>109</ele>
        <time>2021-07-25T07:58:03.000Z</time>
      </trkpt>
      <trkpt lat="47.17474" lon="-1.89375">
        <ele>109</ele>
        <time>2021-07-25T07:58:05.000Z</time>
      </trkpt>
      <trkpt lat="47.17475" lon="-1.89392">
        <ele>109</ele>
        <time>2021-07-25T07:58:07.000Z</time>
      </trkpt>
      <trkpt lat="47.17477" lon="-1.89409">
        <ele>109</ele>
        <time>2021-07-25T07:58:09.000Z</time>
      </trkpt>
      <trkpt lat="47.17478" lon="-1.89426">
        <ele>109</ele>
        <time>2021-07-25T07:58:11.000Z</time>
      </trkpt>
      <trkpt lat="47.1748" lon="-1.89443">
        <ele>109</ele>
        <time>2021-07-25T07:58:13.000Z</time>
      </trkpt>
      <trkpt lat="47.17481" lon="-1.8946">
        <ele>109</ele>
        <time>2021-07-25T07:58:15.000Z</time>
      </trkpt>
      <trkpt lat="47.17483" lon="-1.89477">
        <ele>110</ele>
        <time>2021-07-25T07:58:17.000Z</time>
      </trkpt>
      <trkpt lat="47.17484" lon="-1.89494">
        <ele>110</ele>
        <time>2021-07-25T07:58:19.000Z</time>
      </trkpt>
      <trkpt lat="47.17486" lon="-1.8951">
        <ele>110</ele>
        <time>2021-07-25T07:58:21.000Z</time>
      </trkpt>
      <trkpt lat="47.17487" lon="-1.89527">
        <ele>110</ele>
        <time>2021-07-25T07:58:23.000Z</time>
      </trkpt>
      <trkpt lat="47.17488" lon="-1.89544">
        <ele>109</ele>
        <time>2021-07-25T07:58:25.000Z</time>
      </trkpt>
      <trkpt lat="47.17488" lon="-1.89561">
        <ele>109</ele>
        <time>2021-07-25T07:58:27.000Z</time>
      </trkpt>
      <trkpt lat="47.17488" lon="-1.89578">
        <ele>109</ele>
        <time>2021-07-25T07:58:29.000Z</time>
      </trkpt>
      <trkpt lat="47.17487" lon="-1.89596">
        <ele>109</ele>
        <time>2021-07-25T07:58:31.000Z</time>
      </trkpt>
      <trkpt lat="47.17484" lon="-1.89613">
        <ele>108</ele>
        <time>2021-07-25T07:58:33.000Z</time>
      </trkpt>
      <trkpt lat="47.17482" lon="-1.8963">
        <ele>109</ele>
        <time>2021-07-25T07:58:35.000Z</time>
      </trkpt>
      <trkpt lat="47.17479" lon="-1.89647">
        <ele>109</ele>
        <time>2021-07-25T07:58:37.000Z</time>
      </trkpt>
      <trkpt lat="47.17476" lon="-1.89664">
        <ele>109</ele>
        <time>2021-07-25T07:58:39.000Z</time>
      </trkpt>
      <trkpt lat="47.17472" lon="-1.89681">
        <ele>109</ele>
        <time>2021-07-25T07:58:41.000Z</time>
      </trkpt>
      <trkpt lat="47.17468" lon="-1.89697">
        <ele>109</ele>
        <time>2021-07-25T07:58:43.000Z</time>
      </trkpt>
      <trkpt lat="47.17464" lon="-1.89713">
        <ele>109</ele>
        <time>2021-07-25T07:58:45.000Z</time>
      </trkpt>
      <trkpt lat="47.17461" lon="-1.89729">
        <ele>109</ele>
        <time>2021-07-25T07:58:47.000Z</time>
      </trkpt>
      <trkpt lat="47.17458" lon="-1.89746">
        <ele>110</ele>
        <time>2021-07-25T07:58:49.000Z</time>
      </trkpt>
      <trkpt lat="47.17454" lon="-1.89763">
        <ele>110</ele>
        <time>2021-07-25T07:58:51.000Z</time>
      </trkpt>
      <trkpt lat="47.1745" lon="-1.89779">
        <ele>109</ele>
        <time>2021-07-25T07:58:53.000Z</time>
      </trkpt>
      <trkpt lat="47.17447" lon="-1.89796">
        <ele>110</ele>
        <time>2021-07-25T07:58:55.000Z</time>
      </trkpt>
      <trkpt lat="47.17443" lon="-1.89812">
        <ele>110</ele>
        <time>2021-07-25T07:58:57.000Z</time>
      </trkpt>
      <trkpt lat="47.17439" lon="-1.89828">
        <ele>110</ele>
        <time>2021-07-25T07:58:59.000Z</time>
      </trkpt>
      <trkpt lat="47.17436" lon="-1.89843">
        <ele>110</ele>
        <time>2021-07-25T07:59:01.000Z</time>
      </trkpt>
      <trkpt lat="47.17433" lon="-1.89859">
        <ele>110</ele>
        <time>2021-07-25T07:59:03.000Z</time>
      </trkpt>
      <trkpt lat="47.1743" lon="-1.89874">
        <ele>110</ele>
        <time>2021-07-25T07:59:05.000Z</time>
      </trkpt>
      <trkpt lat="47.17426" lon="-1.89889">
        <ele>110</ele>
        <time>2021-07-25T07:59:07.000Z</time>
      </trkpt>
      <trkpt lat="47.17423" lon="-1.89905">
        <ele>110</ele>
        <time>2021-07-25T07:59:09.000Z</time>
      </trkpt>
      <trkpt lat="47.17419" lon="-1.89921">
        <ele>110</ele>
        <time>2021-07-25T07:59:11.000Z</time>
      </trkpt>
      <trkpt lat="47.17415" lon="-1.89935">
        <ele>109</ele>
        <time>2021-07-25T07:59:13.000Z</time>
      </trkpt>
      <trkpt lat="47.17413" lon="-1.89949">
        <ele>109</ele>
        <time>2021-07-25T07:59:15.000Z</time>
      </trkpt>
      <trkpt lat="47.1741" lon="-1.89967">
        <ele>109</ele>
        <time>2021-07-25T07:59:18.000Z</time>
      </trkpt>
      <trkpt lat="47.17406" lon="-1.89981">
        <ele>109</ele>
        <time>2021-07-25T07:59:20.000Z</time>
      </trkpt>
      <trkpt lat="47.17401" lon="-1.89997">
        <ele>109</ele>
        <time>2021-07-25T07:59:22.000Z</time>
      </trkpt>
      <trkpt lat="47.17396" lon="-1.90014">
        <ele>109</ele>
        <time>2021-07-25T07:59:24.000Z</time>
      </trkpt>
      <trkpt lat="47.17391" lon="-1.90031">
        <ele>109</ele>
        <time>2021-07-25T07:59:26.000Z</time>
      </trkpt>
      <trkpt lat="47.17385" lon="-1.90048">
        <ele>109</ele>
        <time>2021-07-25T07:59:28.000Z</time>
      </trkpt>
      <trkpt lat="47.17381" lon="-1.90066">
        <ele>109</ele>
        <time>2021-07-25T07:59:30.000Z</time>
      </trkpt>
      <trkpt lat="47.17375" lon="-1.90083">
        <ele>109</ele>
        <time>2021-07-25T07:59:32.000Z</time>
      </trkpt>
      <trkpt lat="47.17371" lon="-1.901">
        <ele>109</ele>
        <time>2021-07-25T07:59:34.000Z</time>
      </trkpt>
      <trkpt lat="47.17366" lon="-1.90118">
        <ele>109</ele>
        <time>2021-07-25T07:59:36.000Z</time>
      </trkpt>
      <trkpt lat="47.17361" lon="-1.90136">
        <ele>110</ele>
        <time>2021-07-25T07:59:38.000Z</time>
      </trkpt>
      <trkpt lat="47.17356" lon="-1.90155">
        <ele>109</ele>
        <time>2021-07-25T07:59:40.000Z</time>
      </trkpt>
      <trkpt lat="47.17351" lon="-1.90172">
        <ele>110</ele>
        <time>2021-07-25T07:59:42.000Z</time>
      </trkpt>
      <trkpt lat="47.17347" lon="-1.9019">
        <ele>110</ele>
        <time>2021-07-25T07:59:44.000Z</time>
      </trkpt>
      <trkpt lat="47.17342" lon="-1.90208">
        <ele>109</ele>
        <time>2021-07-25T07:59:46.000Z</time>
      </trkpt>
      <trkpt lat="47.17337" lon="-1.90226">
        <ele>109</ele>
        <time>2021-07-25T07:59:48.000Z</time>
      </trkpt>
      <trkpt lat="47.17331" lon="-1.90244">
        <ele>109</ele>
        <time>2021-07-25T07:59:50.000Z</time>
      </trkpt>
      <trkpt lat="47.17327" lon="-1.90262">
        <ele>109</ele>
        <time>2021-07-25T07:59:52.000Z</time>
      </trkpt>
      <trkpt lat="47.17322" lon="-1.9028">
        <ele>109</ele>
        <time>2021-07-25T07:59:54.000Z</time>
      </trkpt>
      <trkpt lat="47.17317" lon="-1.90298">
        <ele>109</ele>
        <time>2021-07-25T07:59:56.000Z</time>
      </trkpt>
      <trkpt lat="47.17312" lon="-1.90316">
        <ele>108</ele>
        <time>2021-07-25T07:59:58.000Z</time>
      </trkpt>
      <trkpt lat="47.17306" lon="-1.90333">
        <ele>108</ele>
        <time>2021-07-25T08:00:00.000Z</time>
      </trkpt>
      <trkpt lat="47.17302" lon="-1.90351">
        <ele>108</ele>
        <time>2021-07-25T08:00:02.000Z</time>
      </trkpt>
      <trkpt lat="47.17298" lon="-1.90368">
        <ele>108</ele>
        <time>2021-07-25T08:00:04.000Z</time>
      </trkpt>
      <trkpt lat="47.17294" lon="-1.90385">
        <ele>108</ele>
        <time>2021-07-25T08:00:06.000Z</time>
      </trkpt>
      <trkpt lat="47.17291" lon="-1.90404">
        <ele>108</ele>
        <time>2021-07-25T08:00:08.000Z</time>
      </trkpt>
      <trkpt lat="47.17289" lon="-1.90422">
        <ele>108</ele>
        <time>2021-07-25T08:00:10.000Z</time>
      </trkpt>
      <trkpt lat="47.17287" lon="-1.9044">
        <ele>109</ele>
        <time>2021-07-25T08:00:12.000Z</time>
      </trkpt>
      <trkpt lat="47.17286" lon="-1.90459">
        <ele>109</ele>
        <time>2021-07-25T08:00:14.000Z</time>
      </trkpt>
      <trkpt lat="47.17285" lon="-1.90478">
        <ele>109</ele>
        <time>2021-07-25T08:00:16.000Z</time>
      </trkpt>
      <trkpt lat="47.17284" lon="-1.90496">
        <ele>109</ele>
        <time>2021-07-25T08:00:18.000Z</time>
      </trkpt>
      <trkpt lat="47.17282" lon="-1.90514">
        <ele>109</ele>
        <time>2021-07-25T08:00:20.000Z</time>
      </trkpt>
      <trkpt lat="47.1728" lon="-1.90532">
        <ele>109</ele>
        <time>2021-07-25T08:00:22.000Z</time>
      </trkpt>
      <trkpt lat="47.17279" lon="-1.90552">
        <ele>108</ele>
        <time>2021-07-25T08:00:24.000Z</time>
      </trkpt>
      <trkpt lat="47.17278" lon="-1.90571">
        <ele>108</ele>
        <time>2021-07-25T08:00:26.000Z</time>
      </trkpt>
      <trkpt lat="47.17277" lon="-1.90589">
        <ele>108</ele>
        <time>2021-07-25T08:00:28.000Z</time>
      </trkpt>
      <trkpt lat="47.17276" lon="-1.90607">
        <ele>108</ele>
        <time>2021-07-25T08:00:30.000Z</time>
      </trkpt>
      <trkpt lat="47.17274" lon="-1.90626">
        <ele>109</ele>
        <time>2021-07-25T08:00:32.000Z</time>
      </trkpt>
      <trkpt lat="47.17273" lon="-1.90643">
        <ele>109</ele>
        <time>2021-07-25T08:00:34.000Z</time>
      </trkpt>
      <trkpt lat="47.17271" lon="-1.9066">
        <ele>109</ele>
        <time>2021-07-25T08:00:36.000Z</time>
      </trkpt>
      <trkpt lat="47.1727" lon="-1.90678">
        <ele>109</ele>
        <time>2021-07-25T08:00:38.000Z</time>
      </trkpt>
      <trkpt lat="47.17268" lon="-1.90696">
        <ele>109</ele>
        <time>2021-07-25T08:00:40.000Z</time>
      </trkpt>
      <trkpt lat="47.17267" lon="-1.90714">
        <ele>109</ele>
        <time>2021-07-25T08:00:42.000Z</time>
      </trkpt>
      <trkpt lat="47.17266" lon="-1.90733">
        <ele>109</ele>
        <time>2021-07-25T08:00:44.000Z</time>
      </trkpt>
      <trkpt lat="47.17265" lon="-1.90751">
        <ele>109</ele>
        <time>2021-07-25T08:00:46.000Z</time>
      </trkpt>
      <trkpt lat="47.17263" lon="-1.9077">
        <ele>109</ele>
        <time>2021-07-25T08:00:48.000Z</time>
      </trkpt>
      <trkpt lat="47.17261" lon="-1.90788">
        <ele>109</ele>
        <time>2021-07-25T08:00:50.000Z</time>
      </trkpt>
      <trkpt lat="47.17258" lon="-1.90806">
        <ele>110</ele>
        <time>2021-07-25T08:00:52.000Z</time>
      </trkpt>
      <trkpt lat="47.17253" lon="-1.90825">
        <ele>109</ele>
        <time>2021-07-25T08:00:54.000Z</time>
      </trkpt>
      <trkpt lat="47.17248" lon="-1.90843">
        <ele>109</ele>
        <time>2021-07-25T08:00:56.000Z</time>
      </trkpt>
      <trkpt lat="47.17244" lon="-1.90862">
        <ele>109</ele>
        <time>2021-07-25T08:00:58.000Z</time>
      </trkpt>
      <trkpt lat="47.1724" lon="-1.90879">
        <ele>108</ele>
        <time>2021-07-25T08:01:00.000Z</time>
      </trkpt>
      <trkpt lat="47.17235" lon="-1.90896">
        <ele>109</ele>
        <time>2021-07-25T08:01:02.000Z</time>
      </trkpt>
      <trkpt lat="47.1723" lon="-1.90913">
        <ele>110</ele>
        <time>2021-07-25T08:01:04.000Z</time>
      </trkpt>
      <trkpt lat="47.17223" lon="-1.90931">
        <ele>109</ele>
        <time>2021-07-25T08:01:06.000Z</time>
      </trkpt>
      <trkpt lat="47.17217" lon="-1.90949">
        <ele>109</ele>
        <time>2021-07-25T08:01:08.000Z</time>
      </trkpt>
      <trkpt lat="47.17209" lon="-1.90966">
        <ele>108</ele>
        <time>2021-07-25T08:01:10.000Z</time>
      </trkpt>
      <trkpt lat="47.17201" lon="-1.90982">
        <ele>108</ele>
        <time>2021-07-25T08:01:12.000Z</time>
      </trkpt>
      <trkpt lat="47.17192" lon="-1.90996">
        <ele>107</ele>
        <time>2021-07-25T08:01:14.000Z</time>
      </trkpt>
      <trkpt lat="47.17182" lon="-1.9101">
        <ele>106</ele>
        <time>2021-07-25T08:01:16.000Z</time>
      </trkpt>
      <trkpt lat="47.17173" lon="-1.91023">
        <ele>106</ele>
        <time>2021-07-25T08:01:18.000Z</time>
      </trkpt>
      <trkpt lat="47.17164" lon="-1.91036">
        <ele>106</ele>
        <time>2021-07-25T08:01:20.000Z</time>
      </trkpt>
      <trkpt lat="47.17155" lon="-1.9105">
        <ele>105</ele>
        <time>2021-07-25T08:01:22.000Z</time>
      </trkpt>
      <trkpt lat="47.17146" lon="-1.91063">
        <ele>105</ele>
        <time>2021-07-25T08:01:24.000Z</time>
      </trkpt>
      <trkpt lat="47.17137" lon="-1.91077">
        <ele>105</ele>
        <time>2021-07-25T08:01:26.000Z</time>
      </trkpt>
      <trkpt lat="47.17128" lon="-1.9109">
        <ele>104</ele>
        <time>2021-07-25T08:01:28.000Z</time>
      </trkpt>
      <trkpt lat="47.17119" lon="-1.91104">
        <ele>104</ele>
        <time>2021-07-25T08:01:30.000Z</time>
      </trkpt>
      <trkpt lat="47.1711" lon="-1.91118">
        <ele>104</ele>
        <time>2021-07-25T08:01:32.000Z</time>
      </trkpt>
      <trkpt lat="47.17102" lon="-1.91131">
        <ele>104</ele>
        <time>2021-07-25T08:01:34.000Z</time>
      </trkpt>
      <trkpt lat="47.17092" lon="-1.91145">
        <ele>104</ele>
        <time>2021-07-25T08:01:36.000Z</time>
      </trkpt>
      <trkpt lat="47.17084" lon="-1.91158">
        <ele>104</ele>
        <time>2021-07-25T08:01:38.000Z</time>
      </trkpt>
      <trkpt lat="47.17075" lon="-1.91171">
        <ele>103</ele>
        <time>2021-07-25T08:01:40.000Z</time>
      </trkpt>
      <trkpt lat="47.17065" lon="-1.91185">
        <ele>103</ele>
        <time>2021-07-25T08:01:42.000Z</time>
      </trkpt>
      <trkpt lat="47.17057" lon="-1.91198">
        <ele>103</ele>
        <time>2021-07-25T08:01:44.000Z</time>
      </trkpt>
      <trkpt lat="47.17048" lon="-1.91212">
        <ele>103</ele>
        <time>2021-07-25T08:01:46.000Z</time>
      </trkpt>
      <trkpt lat="47.17039" lon="-1.91226">
        <ele>103</ele>
        <time>2021-07-25T08:01:48.000Z</time>
      </trkpt>
      <trkpt lat="47.17029" lon="-1.91238">
        <ele>103</ele>
        <time>2021-07-25T08:01:50.000Z</time>
      </trkpt>
      <trkpt lat="47.17018" lon="-1.9125">
        <ele>103</ele>
        <time>2021-07-25T08:01:52.000Z</time>
      </trkpt>
      <trkpt lat="47.17007" lon="-1.9126">
        <ele>103</ele>
        <time>2021-07-25T08:01:54.000Z</time>
      </trkpt>
      <trkpt lat="47.16995" lon="-1.91268">
        <ele>104</ele>
        <time>2021-07-25T08:01:56.000Z</time>
      </trkpt>
      <trkpt lat="47.16982" lon="-1.91276">
        <ele>103</ele>
        <time>2021-07-25T08:01:58.000Z</time>
      </trkpt>
      <trkpt lat="47.16969" lon="-1.91282">
        <ele>103</ele>
        <time>2021-07-25T08:02:00.000Z</time>
      </trkpt>
      <trkpt lat="47.16956" lon="-1.91289">
        <ele>103</ele>
        <time>2021-07-25T08:02:02.000Z</time>
      </trkpt>
      <trkpt lat="47.16944" lon="-1.91296">
        <ele>103</ele>
        <time>2021-07-25T08:02:04.000Z</time>
      </trkpt>
      <trkpt lat="47.16932" lon="-1.91303">
        <ele>103</ele>
        <time>2021-07-25T08:02:06.000Z</time>
      </trkpt>
      <trkpt lat="47.1692" lon="-1.9131">
        <ele>103</ele>
        <time>2021-07-25T08:02:08.000Z</time>
      </trkpt>
      <trkpt lat="47.16908" lon="-1.91317">
        <ele>102</ele>
        <time>2021-07-25T08:02:10.000Z</time>
      </trkpt>
      <trkpt lat="47.16897" lon="-1.91327">
        <ele>102</ele>
        <time>2021-07-25T08:02:12.000Z</time>
      </trkpt>
      <trkpt lat="47.16887" lon="-1.91339">
        <ele>102</ele>
        <time>2021-07-25T08:02:14.000Z</time>
      </trkpt>
      <trkpt lat="47.16879" lon="-1.91353">
        <ele>102</ele>
        <time>2021-07-25T08:02:16.000Z</time>
      </trkpt>
      <trkpt lat="47.16872" lon="-1.91369">
        <ele>101</ele>
        <time>2021-07-25T08:02:18.000Z</time>
      </trkpt>
      <trkpt lat="47.16866" lon="-1.91386">
        <ele>101</ele>
        <time>2021-07-25T08:02:20.000Z</time>
      </trkpt>
      <trkpt lat="47.1686" lon="-1.91404">
        <ele>100</ele>
        <time>2021-07-25T08:02:22.000Z</time>
      </trkpt>
      <trkpt lat="47.16855" lon="-1.9142">
        <ele>100</ele>
        <time>2021-07-25T08:02:24.000Z</time>
      </trkpt>
      <trkpt lat="47.1685" lon="-1.91437">
        <ele>101</ele>
        <time>2021-07-25T08:02:26.000Z</time>
      </trkpt>
      <trkpt lat="47.16845" lon="-1.91453">
        <ele>101</ele>
        <time>2021-07-25T08:02:28.000Z</time>
      </trkpt>
      <trkpt lat="47.1684" lon="-1.9147">
        <ele>101</ele>
        <time>2021-07-25T08:02:30.000Z</time>
      </trkpt>
      <trkpt lat="47.16835" lon="-1.91487">
        <ele>101</ele>
        <time>2021-07-25T08:02:32.000Z</time>
      </trkpt>
      <trkpt lat="47.1683" lon="-1.91504">
        <ele>102</ele>
        <time>2021-07-25T08:02:34.000Z</time>
      </trkpt>
      <trkpt lat="47.16824" lon="-1.91521">
        <ele>102</ele>
        <time>2021-07-25T08:02:36.000Z</time>
      </trkpt>
      <trkpt lat="47.16817" lon="-1.91538">
        <ele>102</ele>
        <time>2021-07-25T08:02:38.000Z</time>
      </trkpt>
      <trkpt lat="47.1681" lon="-1.91553">
        <ele>102</ele>
        <time>2021-07-25T08:02:40.000Z</time>
      </trkpt>
      <trkpt lat="47.16803" lon="-1.91568">
        <ele>103</ele>
        <time>2021-07-25T08:02:42.000Z</time>
      </trkpt>
      <trkpt lat="47.16795" lon="-1.91583">
        <ele>103</ele>
        <time>2021-07-25T08:02:44.000Z</time>
      </trkpt>
      <trkpt lat="47.16786" lon="-1.91598">
        <ele>103</ele>
        <time>2021-07-25T08:02:46.000Z</time>
      </trkpt>
      <trkpt lat="47.16777" lon="-1.91613">
        <ele>103</ele>
        <time>2021-07-25T08:02:48.000Z</time>
      </trkpt>
      <trkpt lat="47.16769" lon="-1.91627">
        <ele>103</ele>
        <time>2021-07-25T08:02:50.000Z</time>
      </trkpt>
      <trkpt lat="47.16761" lon="-1.91641">
        <ele>103</ele>
        <time>2021-07-25T08:02:52.000Z</time>
      </trkpt>
      <trkpt lat="47.16754" lon="-1.91654">
        <ele>103</ele>
        <time>2021-07-25T08:02:54.000Z</time>
      </trkpt>
      <trkpt lat="47.16745" lon="-1.91668">
        <ele>103</ele>
        <time>2021-07-25T08:02:56.000Z</time>
      </trkpt>
      <trkpt lat="47.16737" lon="-1.91681">
        <ele>104</ele>
        <time>2021-07-25T08:02:58.000Z</time>
      </trkpt>
      <trkpt lat="47.16729" lon="-1.91695">
        <ele>104</ele>
        <time>2021-07-25T08:03:00.000Z</time>
      </trkpt>
      <trkpt lat="47.16721" lon="-1.9171">
        <ele>104</ele>
        <time>2021-07-25T08:03:02.000Z</time>
      </trkpt>
      <trkpt lat="47.16713" lon="-1.91725">
        <ele>104</ele>
        <time>2021-07-25T08:03:04.000Z</time>
      </trkpt>
      <trkpt lat="47.16705" lon="-1.91739">
        <ele>103</ele>
        <time>2021-07-25T08:03:06.000Z</time>
      </trkpt>
      <trkpt lat="47.16696" lon="-1.91753">
        <ele>103</ele>
        <time>2021-07-25T08:03:08.000Z</time>
      </trkpt>
      <trkpt lat="47.16688" lon="-1.91768">
        <ele>102</ele>
        <time>2021-07-25T08:03:10.000Z</time>
      </trkpt>
      <trkpt lat="47.1668" lon="-1.91782">
        <ele>102</ele>
        <time>2021-07-25T08:03:12.000Z</time>
      </trkpt>
      <trkpt lat="47.16672" lon="-1.91798">
        <ele>101</ele>
        <time>2021-07-25T08:03:14.000Z</time>
      </trkpt>
      <trkpt lat="47.16664" lon="-1.91812">
        <ele>101</ele>
        <time>2021-07-25T08:03:16.000Z</time>
      </trkpt>
      <trkpt lat="47.16657" lon="-1.91828">
        <ele>101</ele>
        <time>2021-07-25T08:03:18.000Z</time>
      </trkpt>
      <trkpt lat="47.1665" lon="-1.91844">
        <ele>101</ele>
        <time>2021-07-25T08:03:20.000Z</time>
      </trkpt>
      <trkpt lat="47.16643" lon="-1.91859">
        <ele>101</ele>
        <time>2021-07-25T08:03:22.000Z</time>
      </trkpt>
      <trkpt lat="47.16636" lon="-1.91875">
        <ele>101</ele>
        <time>2021-07-25T08:03:24.000Z</time>
      </trkpt>
      <trkpt lat="47.16628" lon="-1.91891">
        <ele>101</ele>
        <time>2021-07-25T08:03:26.000Z</time>
      </trkpt>
      <trkpt lat="47.1662" lon="-1.91907">
        <ele>102</ele>
        <time>2021-07-25T08:03:28.000Z</time>
      </trkpt>
      <trkpt lat="47.16613" lon="-1.91922">
        <ele>102</ele>
        <time>2021-07-25T08:03:30.000Z</time>
      </trkpt>
      <trkpt lat="47.16606" lon="-1.91937">
        <ele>102</ele>
        <time>2021-07-25T08:03:32.000Z</time>
      </trkpt>
      <trkpt lat="47.16599" lon="-1.91951">
        <ele>102</ele>
        <time>2021-07-25T08:03:34.000Z</time>
      </trkpt>
      <trkpt lat="47.16594" lon="-1.91968">
        <ele>101</ele>
        <time>2021-07-25T08:03:36.000Z</time>
      </trkpt>
      <trkpt lat="47.16588" lon="-1.91984">
        <ele>102</ele>
        <time>2021-07-25T08:03:38.000Z</time>
      </trkpt>
      <trkpt lat="47.1658" lon="-1.92">
        <ele>102</ele>
        <time>2021-07-25T08:03:40.000Z</time>
      </trkpt>
      <trkpt lat="47.16574" lon="-1.92016">
        <ele>102</ele>
        <time>2021-07-25T08:03:42.000Z</time>
      </trkpt>
      <trkpt lat="47.16567" lon="-1.92031">
        <ele>102</ele>
        <time>2021-07-25T08:03:44.000Z</time>
      </trkpt>
      <trkpt lat="47.1656" lon="-1.92047">
        <ele>101</ele>
        <time>2021-07-25T08:03:46.000Z</time>
      </trkpt>
      <trkpt lat="47.16553" lon="-1.92063">
        <ele>102</ele>
        <time>2021-07-25T08:03:48.000Z</time>
      </trkpt>
      <trkpt lat="47.16548" lon="-1.92079">
        <ele>102</ele>
        <time>2021-07-25T08:03:50.000Z</time>
      </trkpt>
      <trkpt lat="47.16542" lon="-1.92096">
        <ele>103</ele>
        <time>2021-07-25T08:03:52.000Z</time>
      </trkpt>
      <trkpt lat="47.16536" lon="-1.92113">
        <ele>103</ele>
        <time>2021-07-25T08:03:54.000Z</time>
      </trkpt>
      <trkpt lat="47.1653" lon="-1.9213">
        <ele>103</ele>
        <time>2021-07-25T08:03:56.000Z</time>
      </trkpt>
      <trkpt lat="47.16525" lon="-1.92147">
        <ele>103</ele>
        <time>2021-07-25T08:03:58.000Z</time>
      </trkpt>
      <trkpt lat="47.16522" lon="-1.92165">
        <ele>104</ele>
        <time>2021-07-25T08:04:00.000Z</time>
      </trkpt>
      <trkpt lat="47.1652" lon="-1.92184">
        <ele>104</ele>
        <time>2021-07-25T08:04:02.000Z</time>
      </trkpt>
      <trkpt lat="47.16521" lon="-1.92202">
        <ele>104</ele>
        <time>2021-07-25T08:04:04.000Z</time>
      </trkpt>
      <trkpt lat="47.16524" lon="-1.9222">
        <ele>104</ele>
        <time>2021-07-25T08:04:06.000Z</time>
      </trkpt>
      <trkpt lat="47.16526" lon="-1.92238">
        <ele>105</ele>
        <time>2021-07-25T08:04:08.000Z</time>
      </trkpt>
      <trkpt lat="47.16529" lon="-1.92256">
        <ele>105</ele>
        <time>2021-07-25T08:04:10.000Z</time>
      </trkpt>
      <trkpt lat="47.16532" lon="-1.92274">
        <ele>105</ele>
        <time>2021-07-25T08:04:12.000Z</time>
      </trkpt>
      <trkpt lat="47.16535" lon="-1.92293">
        <ele>104</ele>
        <time>2021-07-25T08:04:14.000Z</time>
      </trkpt>
      <trkpt lat="47.16538" lon="-1.92311">
        <ele>104</ele>
        <time>2021-07-25T08:04:16.000Z</time>
      </trkpt>
      <trkpt lat="47.16542" lon="-1.92328">
        <ele>105</ele>
        <time>2021-07-25T08:04:18.000Z</time>
      </trkpt>
      <trkpt lat="47.16545" lon="-1.92346">
        <ele>105</ele>
        <time>2021-07-25T08:04:20.000Z</time>
      </trkpt>
      <trkpt lat="47.16549" lon="-1.92365">
        <ele>105</ele>
        <time>2021-07-25T08:04:22.000Z</time>
      </trkpt>
      <trkpt lat="47.16552" lon="-1.92383">
        <ele>105</ele>
        <time>2021-07-25T08:04:24.000Z</time>
      </trkpt>
      <trkpt lat="47.16555" lon="-1.92402">
        <ele>104</ele>
        <time>2021-07-25T08:04:26.000Z</time>
      </trkpt>
      <trkpt lat="47.16559" lon="-1.92421">
        <ele>104</ele>
        <time>2021-07-25T08:04:28.000Z</time>
      </trkpt>
      <trkpt lat="47.16561" lon="-1.9244">
        <ele>104</ele>
        <time>2021-07-25T08:04:30.000Z</time>
      </trkpt>
      <trkpt lat="47.16562" lon="-1.92458">
        <ele>104</ele>
        <time>2021-07-25T08:04:32.000Z</time>
      </trkpt>
      <trkpt lat="47.16561" lon="-1.92479">
        <ele>103</ele>
        <time>2021-07-25T08:04:34.000Z</time>
      </trkpt>
      <trkpt lat="47.16557" lon="-1.92499">
        <ele>102</ele>
        <time>2021-07-25T08:04:36.000Z</time>
      </trkpt>
      <trkpt lat="47.1655" lon="-1.92517">
        <ele>101</ele>
        <time>2021-07-25T08:04:38.000Z</time>
      </trkpt>
      <trkpt lat="47.16542" lon="-1.92534">
        <ele>101</ele>
        <time>2021-07-25T08:04:40.000Z</time>
      </trkpt>
      <trkpt lat="47.16532" lon="-1.92549">
        <ele>100</ele>
        <time>2021-07-25T08:04:42.000Z</time>
      </trkpt>
      <trkpt lat="47.16521" lon="-1.92563">
        <ele>100</ele>
        <time>2021-07-25T08:04:44.000Z</time>
      </trkpt>
      <trkpt lat="47.1651" lon="-1.92576">
        <ele>99</ele>
        <time>2021-07-25T08:04:46.000Z</time>
      </trkpt>
      <trkpt lat="47.16498" lon="-1.92587">
        <ele>98</ele>
        <time>2021-07-25T08:04:48.000Z</time>
      </trkpt>
      <trkpt lat="47.16486" lon="-1.92598">
        <ele>98</ele>
        <time>2021-07-25T08:04:50.000Z</time>
      </trkpt>
      <trkpt lat="47.16473" lon="-1.9261">
        <ele>98</ele>
        <time>2021-07-25T08:04:52.000Z</time>
      </trkpt>
      <trkpt lat="47.16461" lon="-1.92622">
        <ele>97</ele>
        <time>2021-07-25T08:04:54.000Z</time>
      </trkpt>
      <trkpt lat="47.16449" lon="-1.92633">
        <ele>96</ele>
        <time>2021-07-25T08:04:56.000Z</time>
      </trkpt>
      <trkpt lat="47.16437" lon="-1.92645">
        <ele>95</ele>
        <time>2021-07-25T08:04:58.000Z</time>
      </trkpt>
      <trkpt lat="47.16425" lon="-1.92659">
        <ele>94</ele>
        <time>2021-07-25T08:05:00.000Z</time>
      </trkpt>
      <trkpt lat="47.16414" lon="-1.92674">
        <ele>94</ele>
        <time>2021-07-25T08:05:02.000Z</time>
      </trkpt>
      <trkpt lat="47.16403" lon="-1.92691">
        <ele>94</ele>
        <time>2021-07-25T08:05:04.000Z</time>
      </trkpt>
      <trkpt lat="47.16393" lon="-1.92707">
        <ele>94</ele>
        <time>2021-07-25T08:05:06.000Z</time>
      </trkpt>
      <trkpt lat="47.16382" lon="-1.92724">
        <ele>93</ele>
        <time>2021-07-25T08:05:08.000Z</time>
      </trkpt>
      <trkpt lat="47.16372" lon="-1.9274">
        <ele>94</ele>
        <time>2021-07-25T08:05:10.000Z</time>
      </trkpt>
      <trkpt lat="47.16362" lon="-1.92756">
        <ele>94</ele>
        <time>2021-07-25T08:05:12.000Z</time>
      </trkpt>
      <trkpt lat="47.16352" lon="-1.92772">
        <ele>94</ele>
        <time>2021-07-25T08:05:14.000Z</time>
      </trkpt>
      <trkpt lat="47.16342" lon="-1.92788">
        <ele>95</ele>
        <time>2021-07-25T08:05:16.000Z</time>
      </trkpt>
      <trkpt lat="47.1633" lon="-1.92804">
        <ele>95</ele>
        <time>2021-07-25T08:05:18.000Z</time>
      </trkpt>
      <trkpt lat="47.16319" lon="-1.92818">
        <ele>95</ele>
        <time>2021-07-25T08:05:20.000Z</time>
      </trkpt>
      <trkpt lat="47.16308" lon="-1.92833">
        <ele>95</ele>
        <time>2021-07-25T08:05:22.000Z</time>
      </trkpt>
      <trkpt lat="47.16297" lon="-1.92847">
        <ele>95</ele>
        <time>2021-07-25T08:05:24.000Z</time>
      </trkpt>
      <trkpt lat="47.16285" lon="-1.92861">
        <ele>94</ele>
        <time>2021-07-25T08:05:26.000Z</time>
      </trkpt>
      <trkpt lat="47.16273" lon="-1.92874">
        <ele>94</ele>
        <time>2021-07-25T08:05:28.000Z</time>
      </trkpt>
      <trkpt lat="47.16261" lon="-1.92887">
        <ele>94</ele>
        <time>2021-07-25T08:05:30.000Z</time>
      </trkpt>
      <trkpt lat="47.16248" lon="-1.92898">
        <ele>93</ele>
        <time>2021-07-25T08:05:32.000Z</time>
      </trkpt>
      <trkpt lat="47.16236" lon="-1.9291">
        <ele>92</ele>
        <time>2021-07-25T08:05:34.000Z</time>
      </trkpt>
      <trkpt lat="47.16224" lon="-1.92921">
        <ele>91</ele>
        <time>2021-07-25T08:05:36.000Z</time>
      </trkpt>
      <trkpt lat="47.16212" lon="-1.92933">
        <ele>90</ele>
        <time>2021-07-25T08:05:38.000Z</time>
      </trkpt>
      <trkpt lat="47.162" lon="-1.92944">
        <ele>89</ele>
        <time>2021-07-25T08:05:40.000Z</time>
      </trkpt>
      <trkpt lat="47.16187" lon="-1.92956">
        <ele>89</ele>
        <time>2021-07-25T08:05:42.000Z</time>
      </trkpt>
      <trkpt lat="47.16175" lon="-1.92966">
        <ele>89</ele>
        <time>2021-07-25T08:05:44.000Z</time>
      </trkpt>
      <trkpt lat="47.16163" lon="-1.92976">
        <ele>89</ele>
        <time>2021-07-25T08:05:46.000Z</time>
      </trkpt>
      <trkpt lat="47.16151" lon="-1.92983">
        <ele>89</ele>
        <time>2021-07-25T08:05:48.000Z</time>
      </trkpt>
      <trkpt lat="47.16139" lon="-1.9299">
        <ele>89</ele>
        <time>2021-07-25T08:05:50.000Z</time>
      </trkpt>
      <trkpt lat="47.16125" lon="-1.92998">
        <ele>89</ele>
        <time>2021-07-25T08:05:52.000Z</time>
      </trkpt>
      <trkpt lat="47.16113" lon="-1.93006">
        <ele>88</ele>
        <time>2021-07-25T08:05:54.000Z</time>
      </trkpt>
      <trkpt lat="47.161" lon="-1.93013">
        <ele>88</ele>
        <time>2021-07-25T08:05:56.000Z</time>
      </trkpt>
      <trkpt lat="47.16087" lon="-1.93019">
        <ele>88</ele>
        <time>2021-07-25T08:05:58.000Z</time>
      </trkpt>
      <trkpt lat="47.16074" lon="-1.93026">
        <ele>88</ele>
        <time>2021-07-25T08:06:00.000Z</time>
      </trkpt>
      <trkpt lat="47.16061" lon="-1.93033">
        <ele>88</ele>
        <time>2021-07-25T08:06:02.000Z</time>
      </trkpt>
      <trkpt lat="47.16049" lon="-1.93039">
        <ele>89</ele>
        <time>2021-07-25T08:06:04.000Z</time>
      </trkpt>
      <trkpt lat="47.16036" lon="-1.93047">
        <ele>89</ele>
        <time>2021-07-25T08:06:06.000Z</time>
      </trkpt>
      <trkpt lat="47.16023" lon="-1.93054">
        <ele>88</ele>
        <time>2021-07-25T08:06:08.000Z</time>
      </trkpt>
      <trkpt lat="47.16011" lon="-1.93065">
        <ele>88</ele>
        <time>2021-07-25T08:06:10.000Z</time>
      </trkpt>
      <trkpt lat="47.16001" lon="-1.93082">
        <ele>87</ele>
        <time>2021-07-25T08:06:12.000Z</time>
      </trkpt>
      <trkpt lat="47.15995" lon="-1.93101">
        <ele>86</ele>
        <time>2021-07-25T08:06:14.000Z</time>
      </trkpt>
      <trkpt lat="47.15992" lon="-1.93122">
        <ele>86</ele>
        <time>2021-07-25T08:06:16.000Z</time>
      </trkpt>
      <trkpt lat="47.15993" lon="-1.93143">
        <ele>88</ele>
        <time>2021-07-25T08:06:18.000Z</time>
      </trkpt>
      <trkpt lat="47.15994" lon="-1.93161">
        <ele>88</ele>
        <time>2021-07-25T08:06:20.000Z</time>
      </trkpt>
      <trkpt lat="47.15996" lon="-1.93178">
        <ele>88</ele>
        <time>2021-07-25T08:06:22.000Z</time>
      </trkpt>
      <trkpt lat="47.15998" lon="-1.93196">
        <ele>89</ele>
        <time>2021-07-25T08:06:24.000Z</time>
      </trkpt>
      <trkpt lat="47.16" lon="-1.93214">
        <ele>90</ele>
        <time>2021-07-25T08:06:26.000Z</time>
      </trkpt>
      <trkpt lat="47.16002" lon="-1.93231">
        <ele>90</ele>
        <time>2021-07-25T08:06:28.000Z</time>
      </trkpt>
      <trkpt lat="47.16003" lon="-1.93248">
        <ele>90</ele>
        <time>2021-07-25T08:06:30.000Z</time>
      </trkpt>
      <trkpt lat="47.16005" lon="-1.93264">
        <ele>91</ele>
        <time>2021-07-25T08:06:32.000Z</time>
      </trkpt>
      <trkpt lat="47.16007" lon="-1.93282">
        <ele>91</ele>
        <time>2021-07-25T08:06:34.000Z</time>
      </trkpt>
      <trkpt lat="47.16009" lon="-1.933">
        <ele>91</ele>
        <time>2021-07-25T08:06:36.000Z</time>
      </trkpt>
      <trkpt lat="47.1601" lon="-1.93318">
        <ele>92</ele>
        <time>2021-07-25T08:06:38.000Z</time>
      </trkpt>
      <trkpt lat="47.1601" lon="-1.93337">
        <ele>93</ele>
        <time>2021-07-25T08:06:40.000Z</time>
      </trkpt>
      <trkpt lat="47.16009" lon="-1.93355">
        <ele>93</ele>
        <time>2021-07-25T08:06:42.000Z</time>
      </trkpt>
      <trkpt lat="47.16006" lon="-1.93373">
        <ele>94</ele>
        <time>2021-07-25T08:06:44.000Z</time>
      </trkpt>
      <trkpt lat="47.16001" lon="-1.93389">
        <ele>94</ele>
        <time>2021-07-25T08:06:46.000Z</time>
      </trkpt>
      <trkpt lat="47.15997" lon="-1.93404">
        <ele>95</ele>
        <time>2021-07-25T08:06:48.000Z</time>
      </trkpt>
      <trkpt lat="47.15991" lon="-1.93418">
        <ele>95</ele>
        <time>2021-07-25T08:06:50.000Z</time>
      </trkpt>
      <trkpt lat="47.15986" lon="-1.93433">
        <ele>95</ele>
        <time>2021-07-25T08:06:52.000Z</time>
      </trkpt>
      <trkpt lat="47.15979" lon="-1.93448">
        <ele>94</ele>
        <time>2021-07-25T08:06:54.000Z</time>
      </trkpt>
      <trkpt lat="47.1597" lon="-1.93462">
        <ele>94</ele>
        <time>2021-07-25T08:06:56.000Z</time>
      </trkpt>
      <trkpt lat="47.15962" lon="-1.93473">
        <ele>94</ele>
        <time>2021-07-25T08:06:58.000Z</time>
      </trkpt>
      <trkpt lat="47.15953" lon="-1.93485">
        <ele>95</ele>
        <time>2021-07-25T08:07:00.000Z</time>
      </trkpt>
      <trkpt lat="47.15944" lon="-1.93496">
        <ele>95</ele>
        <time>2021-07-25T08:07:02.000Z</time>
      </trkpt>
      <trkpt lat="47.15935" lon="-1.93508">
        <ele>95</ele>
        <time>2021-07-25T08:07:04.000Z</time>
      </trkpt>
      <trkpt lat="47.15926" lon="-1.93519">
        <ele>96</ele>
        <time>2021-07-25T08:07:06.000Z</time>
      </trkpt>
      <trkpt lat="47.15916" lon="-1.93529">
        <ele>95</ele>
        <time>2021-07-25T08:07:08.000Z</time>
      </trkpt>
      <trkpt lat="47.15905" lon="-1.93538">
        <ele>95</ele>
        <time>2021-07-25T08:07:10.000Z</time>
      </trkpt>
      <trkpt lat="47.15894" lon="-1.93542">
        <ele>95</ele>
        <time>2021-07-25T08:07:12.000Z</time>
      </trkpt>
      <trkpt lat="47.15882" lon="-1.93546">
        <ele>94</ele>
        <time>2021-07-25T08:07:14.000Z</time>
      </trkpt>
      <trkpt lat="47.15869" lon="-1.93551">
        <ele>93</ele>
        <time>2021-07-25T08:07:16.000Z</time>
      </trkpt>
      <trkpt lat="47.15856" lon="-1.93556">
        <ele>93</ele>
        <time>2021-07-25T08:07:18.000Z</time>
      </trkpt>
      <trkpt lat="47.15844" lon="-1.93561">
        <ele>92</ele>
        <time>2021-07-25T08:07:20.000Z</time>
      </trkpt>
      <trkpt lat="47.15831" lon="-1.93567">
        <ele>91</ele>
        <time>2021-07-25T08:07:22.000Z</time>
      </trkpt>
      <trkpt lat="47.15818" lon="-1.93574">
        <ele>90</ele>
        <time>2021-07-25T08:07:24.000Z</time>
      </trkpt>
      <trkpt lat="47.15805" lon="-1.9358">
        <ele>90</ele>
        <time>2021-07-25T08:07:26.000Z</time>
      </trkpt>
      <trkpt lat="47.15793" lon="-1.93587">
        <ele>89</ele>
        <time>2021-07-25T08:07:28.000Z</time>
      </trkpt>
      <trkpt lat="47.15781" lon="-1.93593">
        <ele>89</ele>
        <time>2021-07-25T08:07:30.000Z</time>
      </trkpt>
      <trkpt lat="47.15772" lon="-1.93609">
        <ele>89</ele>
        <time>2021-07-25T08:07:32.000Z</time>
      </trkpt>
      <trkpt lat="47.15774" lon="-1.93629">
        <ele>88</ele>
        <time>2021-07-25T08:07:34.000Z</time>
      </trkpt>
      <trkpt lat="47.15779" lon="-1.93648">
        <ele>87</ele>
        <time>2021-07-25T08:07:36.000Z</time>
      </trkpt>
      <trkpt lat="47.15783" lon="-1.93668">
        <ele>88</ele>
        <time>2021-07-25T08:07:38.000Z</time>
      </trkpt>
      <trkpt lat="47.15787" lon="-1.93688">
        <ele>87</ele>
        <time>2021-07-25T08:07:40.000Z</time>
      </trkpt>
      <trkpt lat="47.15791" lon="-1.93708">
        <ele>87</ele>
        <time>2021-07-25T08:07:42.000Z</time>
      </trkpt>
      <trkpt lat="47.15794" lon="-1.93728">
        <ele>86</ele>
        <time>2021-07-25T08:07:44.000Z</time>
      </trkpt>
      <trkpt lat="47.15797" lon="-1.93748">
        <ele>86</ele>
        <time>2021-07-25T08:07:46.000Z</time>
      </trkpt>
      <trkpt lat="47.15801" lon="-1.93769">
        <ele>86</ele>
        <time>2021-07-25T08:07:48.000Z</time>
      </trkpt>
      <trkpt lat="47.15805" lon="-1.9379">
        <ele>85</ele>
        <time>2021-07-25T08:07:50.000Z</time>
      </trkpt>
      <trkpt lat="47.15808" lon="-1.9381">
        <ele>84</ele>
        <time>2021-07-25T08:07:52.000Z</time>
      </trkpt>
      <trkpt lat="47.15812" lon="-1.93829">
        <ele>83</ele>
        <time>2021-07-25T08:07:54.000Z</time>
      </trkpt>
      <trkpt lat="47.15816" lon="-1.9385">
        <ele>83</ele>
        <time>2021-07-25T08:07:56.000Z</time>
      </trkpt>
      <trkpt lat="47.15819" lon="-1.93868">
        <ele>83</ele>
        <time>2021-07-25T08:07:58.000Z</time>
      </trkpt>
      <trkpt lat="47.15822" lon="-1.93887">
        <ele>83</ele>
        <time>2021-07-25T08:08:00.000Z</time>
      </trkpt>
      <trkpt lat="47.15825" lon="-1.93905">
        <ele>83</ele>
        <time>2021-07-25T08:08:02.000Z</time>
      </trkpt>
      <trkpt lat="47.15829" lon="-1.93923">
        <ele>84</ele>
        <time>2021-07-25T08:08:04.000Z</time>
      </trkpt>
      <trkpt lat="47.15832" lon="-1.93941">
        <ele>83</ele>
        <time>2021-07-25T08:08:06.000Z</time>
      </trkpt>
      <trkpt lat="47.15835" lon="-1.93958">
        <ele>84</ele>
        <time>2021-07-25T08:08:08.000Z</time>
      </trkpt>
      <trkpt lat="47.15838" lon="-1.93976">
        <ele>84</ele>
        <time>2021-07-25T08:08:10.000Z</time>
      </trkpt>
      <trkpt lat="47.1584" lon="-1.93994">
        <ele>84</ele>
        <time>2021-07-25T08:08:12.000Z</time>
      </trkpt>
      <trkpt lat="47.15842" lon="-1.94012">
        <ele>84</ele>
        <time>2021-07-25T08:08:14.000Z</time>
      </trkpt>
      <trkpt lat="47.15845" lon="-1.9403">
        <ele>84</ele>
        <time>2021-07-25T08:08:16.000Z</time>
      </trkpt>
      <trkpt lat="47.15847" lon="-1.94047">
        <ele>85</ele>
        <time>2021-07-25T08:08:18.000Z</time>
      </trkpt>
      <trkpt lat="47.15849" lon="-1.94065">
        <ele>85</ele>
        <time>2021-07-25T08:08:20.000Z</time>
      </trkpt>
      <trkpt lat="47.15851" lon="-1.94081">
        <ele>86</ele>
        <time>2021-07-25T08:08:22.000Z</time>
      </trkpt>
      <trkpt lat="47.15853" lon="-1.94098">
        <ele>86</ele>
        <time>2021-07-25T08:08:24.000Z</time>
      </trkpt>
      <trkpt lat="47.15854" lon="-1.94115">
        <ele>87</ele>
        <time>2021-07-25T08:08:26.000Z</time>
      </trkpt>
      <trkpt lat="47.15856" lon="-1.94132">
        <ele>87</ele>
        <time>2021-07-25T08:08:28.000Z</time>
      </trkpt>
      <trkpt lat="47.15857" lon="-1.9415">
        <ele>88</ele>
        <time>2021-07-25T08:08:30.000Z</time>
      </trkpt>
      <trkpt lat="47.15859" lon="-1.94167">
        <ele>88</ele>
        <time>2021-07-25T08:08:32.000Z</time>
      </trkpt>
      <trkpt lat="47.15861" lon="-1.94185">
        <ele>88</ele>
        <time>2021-07-25T08:08:34.000Z</time>
      </trkpt>
      <trkpt lat="47.15863" lon="-1.94202">
        <ele>88</ele>
        <time>2021-07-25T08:08:36.000Z</time>
      </trkpt>
      <trkpt lat="47.15864" lon="-1.94219">
        <ele>89</ele>
        <time>2021-07-25T08:08:38.000Z</time>
      </trkpt>
      <trkpt lat="47.15866" lon="-1.94236">
        <ele>89</ele>
        <time>2021-07-25T08:08:40.000Z</time>
      </trkpt>
      <trkpt lat="47.15868" lon="-1.94253">
        <ele>89</ele>
        <time>2021-07-25T08:08:42.000Z</time>
      </trkpt>
      <trkpt lat="47.1587" lon="-1.94271">
        <ele>90</ele>
        <time>2021-07-25T08:08:44.000Z</time>
      </trkpt>
      <trkpt lat="47.15872" lon="-1.94288">
        <ele>90</ele>
        <time>2021-07-25T08:08:46.000Z</time>
      </trkpt>
      <trkpt lat="47.15874" lon="-1.94305">
        <ele>90</ele>
        <time>2021-07-25T08:08:48.000Z</time>
      </trkpt>
      <trkpt lat="47.15876" lon="-1.94323">
        <ele>90</ele>
        <time>2021-07-25T08:08:50.000Z</time>
      </trkpt>
      <trkpt lat="47.15878" lon="-1.94341">
        <ele>91</ele>
        <time>2021-07-25T08:08:52.000Z</time>
      </trkpt>
      <trkpt lat="47.15881" lon="-1.94358">
        <ele>91</ele>
        <time>2021-07-25T08:08:54.000Z</time>
      </trkpt>
      <trkpt lat="47.15883" lon="-1.94375">
        <ele>92</ele>
        <time>2021-07-25T08:08:56.000Z</time>
      </trkpt>
      <trkpt lat="47.15885" lon="-1.94393">
        <ele>91</ele>
        <time>2021-07-25T08:08:58.000Z</time>
      </trkpt>
      <trkpt lat="47.15886" lon="-1.9441">
        <ele>91</ele>
        <time>2021-07-25T08:09:00.000Z</time>
      </trkpt>
      <trkpt lat="47.15888" lon="-1.94425">
        <ele>91</ele>
        <time>2021-07-25T08:09:02.000Z</time>
      </trkpt>
      <trkpt lat="47.1589" lon="-1.94441">
        <ele>92</ele>
        <time>2021-07-25T08:09:04.000Z</time>
      </trkpt>
      <trkpt lat="47.15892" lon="-1.94457">
        <ele>92</ele>
        <time>2021-07-25T08:09:06.000Z</time>
      </trkpt>
      <trkpt lat="47.15893" lon="-1.94473">
        <ele>92</ele>
        <time>2021-07-25T08:09:08.000Z</time>
      </trkpt>
      <trkpt lat="47.15895" lon="-1.94489">
        <ele>92</ele>
        <time>2021-07-25T08:09:10.000Z</time>
      </trkpt>
      <trkpt lat="47.15897" lon="-1.94506">
        <ele>92</ele>
        <time>2021-07-25T08:09:12.000Z</time>
      </trkpt>
      <trkpt lat="47.15898" lon="-1.94522">
        <ele>92</ele>
        <time>2021-07-25T08:09:14.000Z</time>
      </trkpt>
      <trkpt lat="47.159" lon="-1.94538">
        <ele>92</ele>
        <time>2021-07-25T08:09:16.000Z</time>
      </trkpt>
      <trkpt lat="47.15901" lon="-1.94554">
        <ele>92</ele>
        <time>2021-07-25T08:09:18.000Z</time>
      </trkpt>
      <trkpt lat="47.15903" lon="-1.94571">
        <ele>92</ele>
        <time>2021-07-25T08:09:20.000Z</time>
      </trkpt>
      <trkpt lat="47.15904" lon="-1.94587">
        <ele>92</ele>
        <time>2021-07-25T08:09:22.000Z</time>
      </trkpt>
      <trkpt lat="47.15906" lon="-1.94602">
        <ele>92</ele>
        <time>2021-07-25T08:09:24.000Z</time>
      </trkpt>
      <trkpt lat="47.15909" lon="-1.94617">
        <ele>92</ele>
        <time>2021-07-25T08:09:26.000Z</time>
      </trkpt>
      <trkpt lat="47.1591" lon="-1.94631">
        <ele>93</ele>
        <time>2021-07-25T08:09:28.000Z</time>
      </trkpt>
      <trkpt lat="47.15913" lon="-1.94647">
        <ele>93</ele>
        <time>2021-07-25T08:09:31.000Z</time>
      </trkpt>
      <trkpt lat="47.15913" lon="-1.94667">
        <ele>93</ele>
        <time>2021-07-25T08:09:34.000Z</time>
      </trkpt>
      <trkpt lat="47.15914" lon="-1.94684">
        <ele>92</ele>
        <time>2021-07-25T08:09:36.000Z</time>
      </trkpt>
      <trkpt lat="47.15915" lon="-1.94701">
        <ele>92</ele>
        <time>2021-07-25T08:09:38.000Z</time>
      </trkpt>
      <trkpt lat="47.15916" lon="-1.94718">
        <ele>92</ele>
        <time>2021-07-25T08:09:40.000Z</time>
      </trkpt>
      <trkpt lat="47.15917" lon="-1.94735">
        <ele>93</ele>
        <time>2021-07-25T08:09:42.000Z</time>
      </trkpt>
      <trkpt lat="47.15918" lon="-1.94753">
        <ele>93</ele>
        <time>2021-07-25T08:09:44.000Z</time>
      </trkpt>
      <trkpt lat="47.1592" lon="-1.94769">
        <ele>93</ele>
        <time>2021-07-25T08:09:46.000Z</time>
      </trkpt>
      <trkpt lat="47.15921" lon="-1.94786">
        <ele>93</ele>
        <time>2021-07-25T08:09:48.000Z</time>
      </trkpt>
      <trkpt lat="47.15922" lon="-1.94802">
        <ele>93</ele>
        <time>2021-07-25T08:09:50.000Z</time>
      </trkpt>
      <trkpt lat="47.15923" lon="-1.94821">
        <ele>93</ele>
        <time>2021-07-25T08:09:52.000Z</time>
      </trkpt>
      <trkpt lat="47.15925" lon="-1.94839">
        <ele>94</ele>
        <time>2021-07-25T08:09:54.000Z</time>
      </trkpt>
      <trkpt lat="47.15927" lon="-1.94857">
        <ele>94</ele>
        <time>2021-07-25T08:09:56.000Z</time>
      </trkpt>
      <trkpt lat="47.15928" lon="-1.94875">
        <ele>93</ele>
        <time>2021-07-25T08:09:58.000Z</time>
      </trkpt>
      <trkpt lat="47.15929" lon="-1.94893">
        <ele>93</ele>
        <time>2021-07-25T08:10:00.000Z</time>
      </trkpt>
      <trkpt lat="47.15929" lon="-1.94911">
        <ele>93</ele>
        <time>2021-07-25T08:10:02.000Z</time>
      </trkpt>
      <trkpt lat="47.15927" lon="-1.94929">
        <ele>93</ele>
        <time>2021-07-25T08:10:04.000Z</time>
      </trkpt>
      <trkpt lat="47.15925" lon="-1.94947">
        <ele>93</ele>
        <time>2021-07-25T08:10:06.000Z</time>
      </trkpt>
      <trkpt lat="47.15922" lon="-1.94965">
        <ele>92</ele>
        <time>2021-07-25T08:10:08.000Z</time>
      </trkpt>
      <trkpt lat="47.1592" lon="-1.94982">
        <ele>92</ele>
        <time>2021-07-25T08:10:10.000Z</time>
      </trkpt>
      <trkpt lat="47.15919" lon="-1.95001">
        <ele>92</ele>
        <time>2021-07-25T08:10:12.000Z</time>
      </trkpt>
      <trkpt lat="47.15917" lon="-1.95019">
        <ele>92</ele>
        <time>2021-07-25T08:10:14.000Z</time>
      </trkpt>
      <trkpt lat="47.15916" lon="-1.95038">
        <ele>92</ele>
        <time>2021-07-25T08:10:16.000Z</time>
      </trkpt>
      <trkpt lat="47.15915" lon="-1.95055">
        <ele>92</ele>
        <time>2021-07-25T08:10:18.000Z</time>
      </trkpt>
      <trkpt lat="47.15914" lon="-1.95074">
        <ele>91</ele>
        <time>2021-07-25T08:10:20.000Z</time>
      </trkpt>
      <trkpt lat="47.15913" lon="-1.95092">
        <ele>91</ele>
        <time>2021-07-25T08:10:22.000Z</time>
      </trkpt>
      <trkpt lat="47.15912" lon="-1.9511">
        <ele>91</ele>
        <time>2021-07-25T08:10:24.000Z</time>
      </trkpt>
      <trkpt lat="47.1591" lon="-1.95129">
        <ele>91</ele>
        <time>2021-07-25T08:10:26.000Z</time>
      </trkpt>
      <trkpt lat="47.15908" lon="-1.95146">
        <ele>91</ele>
        <time>2021-07-25T08:10:28.000Z</time>
      </trkpt>
      <trkpt lat="47.15905" lon="-1.95165">
        <ele>90</ele>
        <time>2021-07-25T08:10:30.000Z</time>
      </trkpt>
      <trkpt lat="47.15901" lon="-1.95183">
        <ele>90</ele>
        <time>2021-07-25T08:10:32.000Z</time>
      </trkpt>
      <trkpt lat="47.15899" lon="-1.95202">
        <ele>89</ele>
        <time>2021-07-25T08:10:34.000Z</time>
      </trkpt>
      <trkpt lat="47.15897" lon="-1.95221">
        <ele>89</ele>
        <time>2021-07-25T08:10:36.000Z</time>
      </trkpt>
      <trkpt lat="47.15897" lon="-1.9524">
        <ele>88</ele>
        <time>2021-07-25T08:10:38.000Z</time>
      </trkpt>
      <trkpt lat="47.15897" lon="-1.9526">
        <ele>88</ele>
        <time>2021-07-25T08:10:40.000Z</time>
      </trkpt>
      <trkpt lat="47.15897" lon="-1.9528">
        <ele>88</ele>
        <time>2021-07-25T08:10:42.000Z</time>
      </trkpt>
      <trkpt lat="47.15897" lon="-1.953">
        <ele>88</ele>
        <time>2021-07-25T08:10:44.000Z</time>
      </trkpt>
      <trkpt lat="47.15897" lon="-1.9532">
        <ele>87</ele>
        <time>2021-07-25T08:10:46.000Z</time>
      </trkpt>
      <trkpt lat="47.15896" lon="-1.9534">
        <ele>87</ele>
        <time>2021-07-25T08:10:48.000Z</time>
      </trkpt>
      <trkpt lat="47.15896" lon="-1.95362">
        <ele>86</ele>
        <time>2021-07-25T08:10:50.000Z</time>
      </trkpt>
      <trkpt lat="47.15896" lon="-1.95383">
        <ele>85</ele>
        <time>2021-07-25T08:10:52.000Z</time>
      </trkpt>
      <trkpt lat="47.15896" lon="-1.95404">
        <ele>85</ele>
        <time>2021-07-25T08:10:54.000Z</time>
      </trkpt>
      <trkpt lat="47.15895" lon="-1.95427">
        <ele>85</ele>
        <time>2021-07-25T08:10:56.000Z</time>
      </trkpt>
      <trkpt lat="47.15895" lon="-1.9545">
        <ele>84</ele>
        <time>2021-07-25T08:10:58.000Z</time>
      </trkpt>
      <trkpt lat="47.15896" lon="-1.95482">
        <ele>84</ele>
        <time>2021-07-25T08:11:01.000Z</time>
      </trkpt>
      <trkpt lat="47.15897" lon="-1.95504">
        <ele>84</ele>
        <time>2021-07-25T08:11:03.000Z</time>
      </trkpt>
      <trkpt lat="47.15898" lon="-1.95526">
        <ele>83</ele>
        <time>2021-07-25T08:11:05.000Z</time>
      </trkpt>
      <trkpt lat="47.15899" lon="-1.95549">
        <ele>82</ele>
        <time>2021-07-25T08:11:07.000Z</time>
      </trkpt>
      <trkpt lat="47.15901" lon="-1.9557">
        <ele>82</ele>
        <time>2021-07-25T08:11:09.000Z</time>
      </trkpt>
      <trkpt lat="47.15904" lon="-1.95589">
        <ele>81</ele>
        <time>2021-07-25T08:11:11.000Z</time>
      </trkpt>
      <trkpt lat="47.15909" lon="-1.95608">
        <ele>81</ele>
        <time>2021-07-25T08:11:13.000Z</time>
      </trkpt>
      <trkpt lat="47.15914" lon="-1.95625">
        <ele>82</ele>
        <time>2021-07-25T08:11:15.000Z</time>
      </trkpt>
      <trkpt lat="47.15919" lon="-1.95642">
        <ele>82</ele>
        <time>2021-07-25T08:11:17.000Z</time>
      </trkpt>
      <trkpt lat="47.15924" lon="-1.95657">
        <ele>82</ele>
        <time>2021-07-25T08:11:19.000Z</time>
      </trkpt>
      <trkpt lat="47.15929" lon="-1.95673">
        <ele>82</ele>
        <time>2021-07-25T08:11:21.000Z</time>
      </trkpt>
      <trkpt lat="47.15934" lon="-1.95689">
        <ele>83</ele>
        <time>2021-07-25T08:11:23.000Z</time>
      </trkpt>
      <trkpt lat="47.15938" lon="-1.95705">
        <ele>84</ele>
        <time>2021-07-25T08:11:25.000Z</time>
      </trkpt>
      <trkpt lat="47.15943" lon="-1.95721">
        <ele>85</ele>
        <time>2021-07-25T08:11:27.000Z</time>
      </trkpt>
      <trkpt lat="47.15946" lon="-1.95736">
        <ele>86</ele>
        <time>2021-07-25T08:11:29.000Z</time>
      </trkpt>
      <trkpt lat="47.15951" lon="-1.95752">
        <ele>87</ele>
        <time>2021-07-25T08:11:31.000Z</time>
      </trkpt>
      <trkpt lat="47.15955" lon="-1.95767">
        <ele>87</ele>
        <time>2021-07-25T08:11:33.000Z</time>
      </trkpt>
      <trkpt lat="47.1596" lon="-1.95792">
        <ele>89</ele>
        <time>2021-07-25T08:11:36.000Z</time>
      </trkpt>
      <trkpt lat="47.15964" lon="-1.9581">
        <ele>89</ele>
        <time>2021-07-25T08:11:38.000Z</time>
      </trkpt>
      <trkpt lat="47.15967" lon="-1.95828">
        <ele>89</ele>
        <time>2021-07-25T08:11:40.000Z</time>
      </trkpt>
      <trkpt lat="47.15972" lon="-1.95846">
        <ele>90</ele>
        <time>2021-07-25T08:11:42.000Z</time>
      </trkpt>
      <trkpt lat="47.15979" lon="-1.9587">
        <ele>90</ele>
        <time>2021-07-25T08:11:45.000Z</time>
      </trkpt>
      <trkpt lat="47.15986" lon="-1.95886">
        <ele>90</ele>
        <time>2021-07-25T08:11:47.000Z</time>
      </trkpt>
      <trkpt lat="47.15994" lon="-1.95899">
        <ele>90</ele>
        <time>2021-07-25T08:11:49.000Z</time>
      </trkpt>
      <trkpt lat="47.16002" lon="-1.95912">
        <ele>90</ele>
        <time>2021-07-25T08:11:51.000Z</time>
      </trkpt>
      <trkpt lat="47.16009" lon="-1.95924">
        <ele>90</ele>
        <time>2021-07-25T08:11:53.000Z</time>
      </trkpt>
      <trkpt lat="47.16016" lon="-1.95935">
        <ele>89</ele>
        <time>2021-07-25T08:11:55.000Z</time>
      </trkpt>
      <trkpt lat="47.16023" lon="-1.95947">
        <ele>89</ele>
        <time>2021-07-25T08:11:57.000Z</time>
      </trkpt>
      <trkpt lat="47.1603" lon="-1.95957">
        <ele>89</ele>
        <time>2021-07-25T08:11:59.000Z</time>
      </trkpt>
      <trkpt lat="47.16037" lon="-1.95968">
        <ele>89</ele>
        <time>2021-07-25T08:12:02.000Z</time>
      </trkpt>
      <trkpt lat="47.16034" lon="-1.95987">
        <ele>89</ele>
        <time>2021-07-25T08:12:05.000Z</time>
      </trkpt>
      <trkpt lat="47.16029" lon="-1.96001">
        <ele>89</ele>
        <time>2021-07-25T08:12:07.000Z</time>
      </trkpt>
      <trkpt lat="47.16021" lon="-1.96016">
        <ele>89</ele>
        <time>2021-07-25T08:12:09.000Z</time>
      </trkpt>
      <trkpt lat="47.16014" lon="-1.96031">
        <ele>89</ele>
        <time>2021-07-25T08:12:11.000Z</time>
      </trkpt>
      <trkpt lat="47.16007" lon="-1.96047">
        <ele>89</ele>
        <time>2021-07-25T08:12:13.000Z</time>
      </trkpt>
      <trkpt lat="47.16" lon="-1.96064">
        <ele>90</ele>
        <time>2021-07-25T08:12:15.000Z</time>
      </trkpt>
      <trkpt lat="47.15992" lon="-1.96081">
        <ele>90</ele>
        <time>2021-07-25T08:12:17.000Z</time>
      </trkpt>
      <trkpt lat="47.15986" lon="-1.96099">
        <ele>90</ele>
        <time>2021-07-25T08:12:19.000Z</time>
      </trkpt>
      <trkpt lat="47.15982" lon="-1.96116">
        <ele>91</ele>
        <time>2021-07-25T08:12:21.000Z</time>
      </trkpt>
      <trkpt lat="47.15978" lon="-1.96134">
        <ele>92</ele>
        <time>2021-07-25T08:12:23.000Z</time>
      </trkpt>
      <trkpt lat="47.15973" lon="-1.96153">
        <ele>92</ele>
        <time>2021-07-25T08:12:25.000Z</time>
      </trkpt>
      <trkpt lat="47.15967" lon="-1.96173">
        <ele>92</ele>
        <time>2021-07-25T08:12:27.000Z</time>
      </trkpt>
      <trkpt lat="47.1596" lon="-1.96194">
        <ele>92</ele>
        <time>2021-07-25T08:12:29.000Z</time>
      </trkpt>
      <trkpt lat="47.15953" lon="-1.96214">
        <ele>91</ele>
        <time>2021-07-25T08:12:31.000Z</time>
      </trkpt>
      <trkpt lat="47.15945" lon="-1.96233">
        <ele>91</ele>
        <time>2021-07-25T08:12:33.000Z</time>
      </trkpt>
      <trkpt lat="47.15935" lon="-1.96251">
        <ele>91</ele>
        <time>2021-07-25T08:12:35.000Z</time>
      </trkpt>
      <trkpt lat="47.15926" lon="-1.9627">
        <ele>90</ele>
        <time>2021-07-25T08:12:37.000Z</time>
      </trkpt>
      <trkpt lat="47.15916" lon="-1.96288">
        <ele>88</ele>
        <time>2021-07-25T08:12:39.000Z</time>
      </trkpt>
      <trkpt lat="47.15906" lon="-1.96305">
        <ele>88</ele>
        <time>2021-07-25T08:12:41.000Z</time>
      </trkpt>
      <trkpt lat="47.15896" lon="-1.96323">
        <ele>87</ele>
        <time>2021-07-25T08:12:43.000Z</time>
      </trkpt>
      <trkpt lat="47.15886" lon="-1.96342">
        <ele>87</ele>
        <time>2021-07-25T08:12:45.000Z</time>
      </trkpt>
      <trkpt lat="47.15877" lon="-1.96359">
        <ele>87</ele>
        <time>2021-07-25T08:12:47.000Z</time>
      </trkpt>
      <trkpt lat="47.15867" lon="-1.96376">
        <ele>87</ele>
        <time>2021-07-25T08:12:49.000Z</time>
      </trkpt>
      <trkpt lat="47.15857" lon="-1.96395">
        <ele>87</ele>
        <time>2021-07-25T08:12:51.000Z</time>
      </trkpt>
      <trkpt lat="47.15847" lon="-1.96412">
        <ele>88</ele>
        <time>2021-07-25T08:12:53.000Z</time>
      </trkpt>
      <trkpt lat="47.15838" lon="-1.9643">
        <ele>88</ele>
        <time>2021-07-25T08:12:55.000Z</time>
      </trkpt>
      <trkpt lat="47.15828" lon="-1.96448">
        <ele>88</ele>
        <time>2021-07-25T08:12:57.000Z</time>
      </trkpt>
      <trkpt lat="47.15818" lon="-1.96465">
        <ele>89</ele>
        <time>2021-07-25T08:12:59.000Z</time>
      </trkpt>
      <trkpt lat="47.15808" lon="-1.96482">
        <ele>88</ele>
        <time>2021-07-25T08:13:01.000Z</time>
      </trkpt>
      <trkpt lat="47.15798" lon="-1.965">
        <ele>88</ele>
        <time>2021-07-25T08:13:03.000Z</time>
      </trkpt>
      <trkpt lat="47.15788" lon="-1.96518">
        <ele>88</ele>
        <time>2021-07-25T08:13:05.000Z</time>
      </trkpt>
      <trkpt lat="47.15778" lon="-1.96535">
        <ele>88</ele>
        <time>2021-07-25T08:13:07.000Z</time>
      </trkpt>
      <trkpt lat="47.15768" lon="-1.96553">
        <ele>88</ele>
        <time>2021-07-25T08:13:09.000Z</time>
      </trkpt>
      <trkpt lat="47.15758" lon="-1.96571">
        <ele>88</ele>
        <time>2021-07-25T08:13:11.000Z</time>
      </trkpt>
      <trkpt lat="47.15748" lon="-1.96589">
        <ele>88</ele>
        <time>2021-07-25T08:13:13.000Z</time>
      </trkpt>
      <trkpt lat="47.15737" lon="-1.96607">
        <ele>87</ele>
        <time>2021-07-25T08:13:15.000Z</time>
      </trkpt>
      <trkpt lat="47.15727" lon="-1.96626">
        <ele>88</ele>
        <time>2021-07-25T08:13:17.000Z</time>
      </trkpt>
      <trkpt lat="47.15716" lon="-1.96644">
        <ele>87</ele>
        <time>2021-07-25T08:13:19.000Z</time>
      </trkpt>
      <trkpt lat="47.15705" lon="-1.96662">
        <ele>87</ele>
        <time>2021-07-25T08:13:21.000Z</time>
      </trkpt>
      <trkpt lat="47.15695" lon="-1.96681">
        <ele>87</ele>
        <time>2021-07-25T08:13:23.000Z</time>
      </trkpt>
      <trkpt lat="47.15684" lon="-1.96699">
        <ele>87</ele>
        <time>2021-07-25T08:13:25.000Z</time>
      </trkpt>
      <trkpt lat="47.15674" lon="-1.96718">
        <ele>86</ele>
        <time>2021-07-25T08:13:27.000Z</time>
      </trkpt>
      <trkpt lat="47.15665" lon="-1.96737">
        <ele>86</ele>
        <time>2021-07-25T08:13:29.000Z</time>
      </trkpt>
      <trkpt lat="47.15656" lon="-1.96757">
        <ele>86</ele>
        <time>2021-07-25T08:13:31.000Z</time>
      </trkpt>
      <trkpt lat="47.15648" lon="-1.96777">
        <ele>86</ele>
        <time>2021-07-25T08:13:33.000Z</time>
      </trkpt>
      <trkpt lat="47.15641" lon="-1.96798">
        <ele>85</ele>
        <time>2021-07-25T08:13:35.000Z</time>
      </trkpt>
      <trkpt lat="47.15636" lon="-1.9682">
        <ele>85</ele>
        <time>2021-07-25T08:13:37.000Z</time>
      </trkpt>
      <trkpt lat="47.15631" lon="-1.96843">
        <ele>85</ele>
        <time>2021-07-25T08:13:39.000Z</time>
      </trkpt>
      <trkpt lat="47.15627" lon="-1.96865">
        <ele>85</ele>
        <time>2021-07-25T08:13:41.000Z</time>
      </trkpt>
      <trkpt lat="47.15623" lon="-1.96888">
        <ele>84</ele>
        <time>2021-07-25T08:13:43.000Z</time>
      </trkpt>
      <trkpt lat="47.15618" lon="-1.96911">
        <ele>84</ele>
        <time>2021-07-25T08:13:45.000Z</time>
      </trkpt>
      <trkpt lat="47.15615" lon="-1.96934">
        <ele>84</ele>
        <time>2021-07-25T08:13:47.000Z</time>
      </trkpt>
      <trkpt lat="47.15611" lon="-1.96957">
        <ele>84</ele>
        <time>2021-07-25T08:13:49.000Z</time>
      </trkpt>
      <trkpt lat="47.15606" lon="-1.9698">
        <ele>84</ele>
        <time>2021-07-25T08:13:51.000Z</time>
      </trkpt>
      <trkpt lat="47.15602" lon="-1.97003">
        <ele>84</ele>
        <time>2021-07-25T08:13:53.000Z</time>
      </trkpt>
      <trkpt lat="47.15598" lon="-1.97026">
        <ele>84</ele>
        <time>2021-07-25T08:13:55.000Z</time>
      </trkpt>
      <trkpt lat="47.15594" lon="-1.97048">
        <ele>84</ele>
        <time>2021-07-25T08:13:57.000Z</time>
      </trkpt>
      <trkpt lat="47.15589" lon="-1.97071">
        <ele>84</ele>
        <time>2021-07-25T08:13:59.000Z</time>
      </trkpt>
      <trkpt lat="47.15584" lon="-1.97093">
        <ele>83</ele>
        <time>2021-07-25T08:14:01.000Z</time>
      </trkpt>
      <trkpt lat="47.15579" lon="-1.97115">
        <ele>83</ele>
        <time>2021-07-25T08:14:03.000Z</time>
      </trkpt>
      <trkpt lat="47.15574" lon="-1.97137">
        <ele>83</ele>
        <time>2021-07-25T08:14:05.000Z</time>
      </trkpt>
      <trkpt lat="47.15569" lon="-1.97159">
        <ele>83</ele>
        <time>2021-07-25T08:14:07.000Z</time>
      </trkpt>
      <trkpt lat="47.15565" lon="-1.97182">
        <ele>83</ele>
        <time>2021-07-25T08:14:09.000Z</time>
      </trkpt>
      <trkpt lat="47.1556" lon="-1.97204">
        <ele>82</ele>
        <time>2021-07-25T08:14:11.000Z</time>
      </trkpt>
      <trkpt lat="47.15555" lon="-1.97226">
        <ele>82</ele>
        <time>2021-07-25T08:14:13.000Z</time>
      </trkpt>
      <trkpt lat="47.15551" lon="-1.97249">
        <ele>82</ele>
        <time>2021-07-25T08:14:15.000Z</time>
      </trkpt>
      <trkpt lat="47.15546" lon="-1.97272">
        <ele>82</ele>
        <time>2021-07-25T08:14:17.000Z</time>
      </trkpt>
      <trkpt lat="47.15541" lon="-1.97294">
        <ele>82</ele>
        <time>2021-07-25T08:14:19.000Z</time>
      </trkpt>
      <trkpt lat="47.15537" lon="-1.97318">
        <ele>82</ele>
        <time>2021-07-25T08:14:21.000Z</time>
      </trkpt>
      <trkpt lat="47.15533" lon="-1.97341">
        <ele>81</ele>
        <time>2021-07-25T08:14:23.000Z</time>
      </trkpt>
      <trkpt lat="47.1553" lon="-1.97364">
        <ele>82</ele>
        <time>2021-07-25T08:14:25.000Z</time>
      </trkpt>
      <trkpt lat="47.15526" lon="-1.97388">
        <ele>82</ele>
        <time>2021-07-25T08:14:27.000Z</time>
      </trkpt>
      <trkpt lat="47.15522" lon="-1.9741">
        <ele>81</ele>
        <time>2021-07-25T08:14:29.000Z</time>
      </trkpt>
      <trkpt lat="47.15518" lon="-1.97433">
        <ele>81</ele>
        <time>2021-07-25T08:14:31.000Z</time>
      </trkpt>
      <trkpt lat="47.15514" lon="-1.97456">
        <ele>81</ele>
        <time>2021-07-25T08:14:33.000Z</time>
      </trkpt>
      <trkpt lat="47.15509" lon="-1.97479">
        <ele>82</ele>
        <time>2021-07-25T08:14:35.000Z</time>
      </trkpt>
      <trkpt lat="47.15505" lon="-1.97503">
        <ele>81</ele>
        <time>2021-07-25T08:14:37.000Z</time>
      </trkpt>
      <trkpt lat="47.15501" lon="-1.97526">
        <ele>81</ele>
        <time>2021-07-25T08:14:39.000Z</time>
      </trkpt>
      <trkpt lat="47.15496" lon="-1.97549">
        <ele>81</ele>
        <time>2021-07-25T08:14:41.000Z</time>
      </trkpt>
      <trkpt lat="47.15491" lon="-1.97572">
        <ele>81</ele>
        <time>2021-07-25T08:14:43.000Z</time>
      </trkpt>
      <trkpt lat="47.15487" lon="-1.97596">
        <ele>81</ele>
        <time>2021-07-25T08:14:45.000Z</time>
      </trkpt>
      <trkpt lat="47.15483" lon="-1.97619">
        <ele>81</ele>
        <time>2021-07-25T08:14:47.000Z</time>
      </trkpt>
      <trkpt lat="47.15478" lon="-1.97642">
        <ele>81</ele>
        <time>2021-07-25T08:14:49.000Z</time>
      </trkpt>
      <trkpt lat="47.15474" lon="-1.97664">
        <ele>81</ele>
        <time>2021-07-25T08:14:51.000Z</time>
      </trkpt>
      <trkpt lat="47.1547" lon="-1.97687">
        <ele>81</ele>
        <time>2021-07-25T08:14:53.000Z</time>
      </trkpt>
      <trkpt lat="47.15466" lon="-1.97709">
        <ele>81</ele>
        <time>2021-07-25T08:14:55.000Z</time>
      </trkpt>
      <trkpt lat="47.15462" lon="-1.97731">
        <ele>81</ele>
        <time>2021-07-25T08:14:57.000Z</time>
      </trkpt>
      <trkpt lat="47.15458" lon="-1.97752">
        <ele>81</ele>
        <time>2021-07-25T08:14:59.000Z</time>
      </trkpt>
      <trkpt lat="47.15454" lon="-1.97774">
        <ele>81</ele>
        <time>2021-07-25T08:15:01.000Z</time>
      </trkpt>
      <trkpt lat="47.15452" lon="-1.97797">
        <ele>81</ele>
        <time>2021-07-25T08:15:03.000Z</time>
      </trkpt>
      <trkpt lat="47.15447" lon="-1.97818">
        <ele>81</ele>
        <time>2021-07-25T08:15:05.000Z</time>
      </trkpt>
      <trkpt lat="47.15444" lon="-1.9784">
        <ele>81</ele>
        <time>2021-07-25T08:15:07.000Z</time>
      </trkpt>
      <trkpt lat="47.15442" lon="-1.97863">
        <ele>81</ele>
        <time>2021-07-25T08:15:09.000Z</time>
      </trkpt>
      <trkpt lat="47.1544" lon="-1.97885">
        <ele>81</ele>
        <time>2021-07-25T08:15:11.000Z</time>
      </trkpt>
      <trkpt lat="47.15439" lon="-1.97908">
        <ele>81</ele>
        <time>2021-07-25T08:15:13.000Z</time>
      </trkpt>
      <trkpt lat="47.15439" lon="-1.9793">
        <ele>81</ele>
        <time>2021-07-25T08:15:15.000Z</time>
      </trkpt>
      <trkpt lat="47.15438" lon="-1.97953">
        <ele>81</ele>
        <time>2021-07-25T08:15:17.000Z</time>
      </trkpt>
      <trkpt lat="47.15437" lon="-1.97975">
        <ele>81</ele>
        <time>2021-07-25T08:15:19.000Z</time>
      </trkpt>
      <trkpt lat="47.15437" lon="-1.97997">
        <ele>80</ele>
        <time>2021-07-25T08:15:21.000Z</time>
      </trkpt>
      <trkpt lat="47.15435" lon="-1.98019">
        <ele>80</ele>
        <time>2021-07-25T08:15:23.000Z</time>
      </trkpt>
      <trkpt lat="47.15435" lon="-1.9804">
        <ele>81</ele>
        <time>2021-07-25T08:15:25.000Z</time>
      </trkpt>
      <trkpt lat="47.15434" lon="-1.98061">
        <ele>81</ele>
        <time>2021-07-25T08:15:27.000Z</time>
      </trkpt>
      <trkpt lat="47.15434" lon="-1.98082">
        <ele>81</ele>
        <time>2021-07-25T08:15:29.000Z</time>
      </trkpt>
      <trkpt lat="47.15433" lon="-1.98103">
        <ele>80</ele>
        <time>2021-07-25T08:15:31.000Z</time>
      </trkpt>
      <trkpt lat="47.15432" lon="-1.98125">
        <ele>80</ele>
        <time>2021-07-25T08:15:33.000Z</time>
      </trkpt>
      <trkpt lat="47.15431" lon="-1.98146">
        <ele>80</ele>
        <time>2021-07-25T08:15:35.000Z</time>
      </trkpt>
      <trkpt lat="47.15431" lon="-1.98167">
        <ele>81</ele>
        <time>2021-07-25T08:15:37.000Z</time>
      </trkpt>
      <trkpt lat="47.1543" lon="-1.98188">
        <ele>81</ele>
        <time>2021-07-25T08:15:39.000Z</time>
      </trkpt>
      <trkpt lat="47.15429" lon="-1.98208">
        <ele>81</ele>
        <time>2021-07-25T08:15:41.000Z</time>
      </trkpt>
      <trkpt lat="47.15428" lon="-1.98229">
        <ele>81</ele>
        <time>2021-07-25T08:15:43.000Z</time>
      </trkpt>
      <trkpt lat="47.15427" lon="-1.98252">
        <ele>80</ele>
        <time>2021-07-25T08:15:45.000Z</time>
      </trkpt>
      <trkpt lat="47.15426" lon="-1.98274">
        <ele>81</ele>
        <time>2021-07-25T08:15:47.000Z</time>
      </trkpt>
      <trkpt lat="47.15423" lon="-1.98296">
        <ele>81</ele>
        <time>2021-07-25T08:15:49.000Z</time>
      </trkpt>
      <trkpt lat="47.15419" lon="-1.98317">
        <ele>81</ele>
        <time>2021-07-25T08:15:51.000Z</time>
      </trkpt>
      <trkpt lat="47.15414" lon="-1.98336">
        <ele>81</ele>
        <time>2021-07-25T08:15:53.000Z</time>
      </trkpt>
      <trkpt lat="47.15407" lon="-1.98355">
        <ele>81</ele>
        <time>2021-07-25T08:15:55.000Z</time>
      </trkpt>
      <trkpt lat="47.15398" lon="-1.98373">
        <ele>80</ele>
        <time>2021-07-25T08:15:57.000Z</time>
      </trkpt>
      <trkpt lat="47.15387" lon="-1.98388">
        <ele>80</ele>
        <time>2021-07-25T08:15:59.000Z</time>
      </trkpt>
      <trkpt lat="47.15374" lon="-1.98401">
        <ele>80</ele>
        <time>2021-07-25T08:16:01.000Z</time>
      </trkpt>
      <trkpt lat="47.15361" lon="-1.98414">
        <ele>80</ele>
        <time>2021-07-25T08:16:03.000Z</time>
      </trkpt>
      <trkpt lat="47.15349" lon="-1.98426">
        <ele>80</ele>
        <time>2021-07-25T08:16:05.000Z</time>
      </trkpt>
      <trkpt lat="47.15335" lon="-1.98438">
        <ele>80</ele>
        <time>2021-07-25T08:16:07.000Z</time>
      </trkpt>
      <trkpt lat="47.15321" lon="-1.98449">
        <ele>80</ele>
        <time>2021-07-25T08:16:09.000Z</time>
      </trkpt>
      <trkpt lat="47.15306" lon="-1.98457">
        <ele>79</ele>
        <time>2021-07-25T08:16:11.000Z</time>
      </trkpt>
      <trkpt lat="47.15291" lon="-1.98462">
        <ele>79</ele>
        <time>2021-07-25T08:16:13.000Z</time>
      </trkpt>
      <trkpt lat="47.15276" lon="-1.98469">
        <ele>79</ele>
        <time>2021-07-25T08:16:15.000Z</time>
      </trkpt>
      <trkpt lat="47.15261" lon="-1.98475">
        <ele>79</ele>
        <time>2021-07-25T08:16:17.000Z</time>
      </trkpt>
      <trkpt lat="47.15246" lon="-1.98482">
        <ele>79</ele>
        <time>2021-07-25T08:16:19.000Z</time>
      </trkpt>
      <trkpt lat="47.15232" lon="-1.98487">
        <ele>79</ele>
        <time>2021-07-25T08:16:21.000Z</time>
      </trkpt>
      <trkpt lat="47.15218" lon="-1.98493">
        <ele>79</ele>
        <time>2021-07-25T08:16:23.000Z</time>
      </trkpt>
      <trkpt lat="47.15205" lon="-1.98498">
        <ele>79</ele>
        <time>2021-07-25T08:16:25.000Z</time>
      </trkpt>
      <trkpt lat="47.15191" lon="-1.98503">
        <ele>78</ele>
        <time>2021-07-25T08:16:27.000Z</time>
      </trkpt>
      <trkpt lat="47.15177" lon="-1.98509">
        <ele>78</ele>
        <time>2021-07-25T08:16:29.000Z</time>
      </trkpt>
      <trkpt lat="47.15164" lon="-1.98513">
        <ele>78</ele>
        <time>2021-07-25T08:16:31.000Z</time>
      </trkpt>
      <trkpt lat="47.15151" lon="-1.98517">
        <ele>78</ele>
        <time>2021-07-25T08:16:33.000Z</time>
      </trkpt>
      <trkpt lat="47.15141" lon="-1.98522">
        <ele>79</ele>
        <time>2021-07-25T08:16:35.000Z</time>
      </trkpt>
      <trkpt lat="47.15133" lon="-1.98528">
        <ele>79</ele>
        <time>2021-07-25T08:16:37.000Z</time>
      </trkpt>
      <trkpt lat="47.15132" lon="-1.98544">
        <ele>80</ele>
        <time>2021-07-25T08:16:39.000Z</time>
      </trkpt>
      <trkpt lat="47.15133" lon="-1.98561">
        <ele>80</ele>
        <time>2021-07-25T08:16:41.000Z</time>
      </trkpt>
      <trkpt lat="47.15134" lon="-1.9858">
        <ele>80</ele>
        <time>2021-07-25T08:16:43.000Z</time>
      </trkpt>
      <trkpt lat="47.15133" lon="-1.986">
        <ele>80</ele>
        <time>2021-07-25T08:16:45.000Z</time>
      </trkpt>
      <trkpt lat="47.15132" lon="-1.98619">
        <ele>80</ele>
        <time>2021-07-25T08:16:47.000Z</time>
      </trkpt>
      <trkpt lat="47.15129" lon="-1.98635">
        <ele>80</ele>
        <time>2021-07-25T08:16:49.000Z</time>
      </trkpt>
      <trkpt lat="47.15124" lon="-1.98651">
        <ele>80</ele>
        <time>2021-07-25T08:16:51.000Z</time>
      </trkpt>
      <trkpt lat="47.15112" lon="-1.98664">
        <ele>80</ele>
        <time>2021-07-25T08:16:53.000Z</time>
      </trkpt>
      <trkpt lat="47.151" lon="-1.98675">
        <ele>80</ele>
        <time>2021-07-25T08:16:55.000Z</time>
      </trkpt>
      <trkpt lat="47.15087" lon="-1.98687">
        <ele>80</ele>
        <time>2021-07-25T08:16:57.000Z</time>
      </trkpt>
      <trkpt lat="47.15074" lon="-1.98699">
        <ele>79</ele>
        <time>2021-07-25T08:16:59.000Z</time>
      </trkpt>
      <trkpt lat="47.15061" lon="-1.98711">
        <ele>79</ele>
        <time>2021-07-25T08:17:01.000Z</time>
      </trkpt>
      <trkpt lat="47.15047" lon="-1.98723">
        <ele>79</ele>
        <time>2021-07-25T08:17:03.000Z</time>
      </trkpt>
      <trkpt lat="47.15034" lon="-1.98735">
        <ele>78</ele>
        <time>2021-07-25T08:17:05.000Z</time>
      </trkpt>
      <trkpt lat="47.15021" lon="-1.98749">
        <ele>78</ele>
        <time>2021-07-25T08:17:07.000Z</time>
      </trkpt>
      <trkpt lat="47.15008" lon="-1.98762">
        <ele>77</ele>
        <time>2021-07-25T08:17:09.000Z</time>
      </trkpt>
      <trkpt lat="47.14994" lon="-1.98775">
        <ele>77</ele>
        <time>2021-07-25T08:17:11.000Z</time>
      </trkpt>
      <trkpt lat="47.1498" lon="-1.98789">
        <ele>76</ele>
        <time>2021-07-25T08:17:13.000Z</time>
      </trkpt>
      <trkpt lat="47.14973" lon="-1.98796">
        <ele>76</ele>
        <time>2021-07-25T08:17:14.000Z</time>
      </trkpt>
      <trkpt lat="47.14965" lon="-1.98804">
        <ele>76</ele>
        <time>2021-07-25T08:17:15.000Z</time>
      </trkpt>
      <trkpt lat="47.14958" lon="-1.98813">
        <ele>76</ele>
        <time>2021-07-25T08:17:16.000Z</time>
      </trkpt>
      <trkpt lat="47.14951" lon="-1.98821">
        <ele>76</ele>
        <time>2021-07-25T08:17:17.000Z</time>
      </trkpt>
      <trkpt lat="47.14944" lon="-1.9883">
        <ele>75</ele>
        <time>2021-07-25T08:17:18.000Z</time>
      </trkpt>
      <trkpt lat="47.14938" lon="-1.9884">
        <ele>75</ele>
        <time>2021-07-25T08:17:19.000Z</time>
      </trkpt>
      <trkpt lat="47.14925" lon="-1.98858">
        <ele>74</ele>
        <time>2021-07-25T08:17:21.000Z</time>
      </trkpt>
      <trkpt lat="47.14912" lon="-1.98877">
        <ele>73</ele>
        <time>2021-07-25T08:17:23.000Z</time>
      </trkpt>
      <trkpt lat="47.14906" lon="-1.98886">
        <ele>73</ele>
        <time>2021-07-25T08:17:24.000Z</time>
      </trkpt>
      <trkpt lat="47.14899" lon="-1.98896">
        <ele>72</ele>
        <time>2021-07-25T08:17:25.000Z</time>
      </trkpt>
      <trkpt lat="47.14886" lon="-1.98914">
        <ele>72</ele>
        <time>2021-07-25T08:17:27.000Z</time>
      </trkpt>
      <trkpt lat="47.14879" lon="-1.98923">
        <ele>72</ele>
        <time>2021-07-25T08:17:28.000Z</time>
      </trkpt>
      <trkpt lat="47.14872" lon="-1.98932">
        <ele>72</ele>
        <time>2021-07-25T08:17:29.000Z</time>
      </trkpt>
      <trkpt lat="47.14865" lon="-1.98941">
        <ele>72</ele>
        <time>2021-07-25T08:17:30.000Z</time>
      </trkpt>
      <trkpt lat="47.14852" lon="-1.98959">
        <ele>71</ele>
        <time>2021-07-25T08:17:32.000Z</time>
      </trkpt>
      <trkpt lat="47.14845" lon="-1.98968">
        <ele>71</ele>
        <time>2021-07-25T08:17:33.000Z</time>
      </trkpt>
      <trkpt lat="47.14838" lon="-1.98977">
        <ele>71</ele>
        <time>2021-07-25T08:17:34.000Z</time>
      </trkpt>
      <trkpt lat="47.14832" lon="-1.98987">
        <ele>71</ele>
        <time>2021-07-25T08:17:35.000Z</time>
      </trkpt>
      <trkpt lat="47.14825" lon="-1.98997">
        <ele>70</ele>
        <time>2021-07-25T08:17:36.000Z</time>
      </trkpt>
      <trkpt lat="47.14819" lon="-1.99006">
        <ele>70</ele>
        <time>2021-07-25T08:17:37.000Z</time>
      </trkpt>
      <trkpt lat="47.14812" lon="-1.99016">
        <ele>71</ele>
        <time>2021-07-25T08:17:38.000Z</time>
      </trkpt>
      <trkpt lat="47.14806" lon="-1.99026">
        <ele>71</ele>
        <time>2021-07-25T08:17:39.000Z</time>
      </trkpt>
      <trkpt lat="47.148" lon="-1.99035">
        <ele>71</ele>
        <time>2021-07-25T08:17:40.000Z</time>
      </trkpt>
      <trkpt lat="47.14788" lon="-1.99055">
        <ele>70</ele>
        <time>2021-07-25T08:17:42.000Z</time>
      </trkpt>
      <trkpt lat="47.14776" lon="-1.99073">
        <ele>70</ele>
        <time>2021-07-25T08:17:44.000Z</time>
      </trkpt>
      <trkpt lat="47.14766" lon="-1.99091">
        <ele>70</ele>
        <time>2021-07-25T08:17:46.000Z</time>
      </trkpt>
      <trkpt lat="47.14754" lon="-1.99108">
        <ele>71</ele>
        <time>2021-07-25T08:17:48.000Z</time>
      </trkpt>
      <trkpt lat="47.14743" lon="-1.99125">
        <ele>71</ele>
        <time>2021-07-25T08:17:50.000Z</time>
      </trkpt>
      <trkpt lat="47.14733" lon="-1.99142">
        <ele>71</ele>
        <time>2021-07-25T08:17:52.000Z</time>
      </trkpt>
      <trkpt lat="47.14723" lon="-1.99159">
        <ele>71</ele>
        <time>2021-07-25T08:17:54.000Z</time>
      </trkpt>
      <trkpt lat="47.14713" lon="-1.99176">
        <ele>71</ele>
        <time>2021-07-25T08:17:56.000Z</time>
      </trkpt>
      <trkpt lat="47.14703" lon="-1.99194">
        <ele>71</ele>
        <time>2021-07-25T08:17:58.000Z</time>
      </trkpt>
      <trkpt lat="47.14693" lon="-1.99211">
        <ele>71</ele>
        <time>2021-07-25T08:18:00.000Z</time>
      </trkpt>
      <trkpt lat="47.14683" lon="-1.99229">
        <ele>71</ele>
        <time>2021-07-25T08:18:02.000Z</time>
      </trkpt>
      <trkpt lat="47.14674" lon="-1.99247">
        <ele>71</ele>
        <time>2021-07-25T08:18:04.000Z</time>
      </trkpt>
      <trkpt lat="47.14665" lon="-1.99266">
        <ele>71</ele>
        <time>2021-07-25T08:18:06.000Z</time>
      </trkpt>
      <trkpt lat="47.14655" lon="-1.99283">
        <ele>71</ele>
        <time>2021-07-25T08:18:08.000Z</time>
      </trkpt>
      <trkpt lat="47.14645" lon="-1.99301">
        <ele>70</ele>
        <time>2021-07-25T08:18:10.000Z</time>
      </trkpt>
      <trkpt lat="47.14635" lon="-1.9932">
        <ele>70</ele>
        <time>2021-07-25T08:18:12.000Z</time>
      </trkpt>
      <trkpt lat="47.14625" lon="-1.99338">
        <ele>70</ele>
        <time>2021-07-25T08:18:14.000Z</time>
      </trkpt>
      <trkpt lat="47.14616" lon="-1.99357">
        <ele>70</ele>
        <time>2021-07-25T08:18:16.000Z</time>
      </trkpt>
      <trkpt lat="47.14606" lon="-1.99375">
        <ele>70</ele>
        <time>2021-07-25T08:18:18.000Z</time>
      </trkpt>
      <trkpt lat="47.14596" lon="-1.99394">
        <ele>70</ele>
        <time>2021-07-25T08:18:20.000Z</time>
      </trkpt>
      <trkpt lat="47.14585" lon="-1.99412">
        <ele>70</ele>
        <time>2021-07-25T08:18:22.000Z</time>
      </trkpt>
      <trkpt lat="47.14575" lon="-1.99431">
        <ele>69</ele>
        <time>2021-07-25T08:18:24.000Z</time>
      </trkpt>
      <trkpt lat="47.14565" lon="-1.99449">
        <ele>69</ele>
        <time>2021-07-25T08:18:26.000Z</time>
      </trkpt>
      <trkpt lat="47.14555" lon="-1.99466">
        <ele>70</ele>
        <time>2021-07-25T08:18:28.000Z</time>
      </trkpt>
      <trkpt lat="47.14545" lon="-1.99484">
        <ele>69</ele>
        <time>2021-07-25T08:18:30.000Z</time>
      </trkpt>
      <trkpt lat="47.14535" lon="-1.99503">
        <ele>69</ele>
        <time>2021-07-25T08:18:32.000Z</time>
      </trkpt>
      <trkpt lat="47.14525" lon="-1.99521">
        <ele>69</ele>
        <time>2021-07-25T08:18:34.000Z</time>
      </trkpt>
      <trkpt lat="47.14515" lon="-1.9954">
        <ele>69</ele>
        <time>2021-07-25T08:18:36.000Z</time>
      </trkpt>
      <trkpt lat="47.14505" lon="-1.99559">
        <ele>69</ele>
        <time>2021-07-25T08:18:38.000Z</time>
      </trkpt>
      <trkpt lat="47.14495" lon="-1.99578">
        <ele>68</ele>
        <time>2021-07-25T08:18:40.000Z</time>
      </trkpt>
      <trkpt lat="47.14484" lon="-1.99597">
        <ele>68</ele>
        <time>2021-07-25T08:18:42.000Z</time>
      </trkpt>
      <trkpt lat="47.14473" lon="-1.99617">
        <ele>69</ele>
        <time>2021-07-25T08:18:44.000Z</time>
      </trkpt>
      <trkpt lat="47.14462" lon="-1.99636">
        <ele>68</ele>
        <time>2021-07-25T08:18:46.000Z</time>
      </trkpt>
      <trkpt lat="47.14452" lon="-1.99656">
        <ele>68</ele>
        <time>2021-07-25T08:18:48.000Z</time>
      </trkpt>
      <trkpt lat="47.14441" lon="-1.99675">
        <ele>68</ele>
        <time>2021-07-25T08:18:50.000Z</time>
      </trkpt>
      <trkpt lat="47.14431" lon="-1.99695">
        <ele>68</ele>
        <time>2021-07-25T08:18:52.000Z</time>
      </trkpt>
      <trkpt lat="47.1442" lon="-1.99714">
        <ele>67</ele>
        <time>2021-07-25T08:18:54.000Z</time>
      </trkpt>
      <trkpt lat="47.14408" lon="-1.99733">
        <ele>68</ele>
        <time>2021-07-25T08:18:56.000Z</time>
      </trkpt>
      <trkpt lat="47.14397" lon="-1.99752">
        <ele>67</ele>
        <time>2021-07-25T08:18:58.000Z</time>
      </trkpt>
      <trkpt lat="47.14385" lon="-1.9977">
        <ele>67</ele>
        <time>2021-07-25T08:19:00.000Z</time>
      </trkpt>
      <trkpt lat="47.14374" lon="-1.99789">
        <ele>67</ele>
        <time>2021-07-25T08:19:02.000Z</time>
      </trkpt>
      <trkpt lat="47.14363" lon="-1.99807">
        <ele>67</ele>
        <time>2021-07-25T08:19:04.000Z</time>
      </trkpt>
      <trkpt lat="47.14351" lon="-1.99825">
        <ele>67</ele>
        <time>2021-07-25T08:19:06.000Z</time>
      </trkpt>
      <trkpt lat="47.14339" lon="-1.99843">
        <ele>67</ele>
        <time>2021-07-25T08:19:08.000Z</time>
      </trkpt>
      <trkpt lat="47.14328" lon="-1.99862">
        <ele>67</ele>
        <time>2021-07-25T08:19:10.000Z</time>
      </trkpt>
      <trkpt lat="47.14316" lon="-1.99881">
        <ele>66</ele>
        <time>2021-07-25T08:19:12.000Z</time>
      </trkpt>
      <trkpt lat="47.14305" lon="-1.99899">
        <ele>67</ele>
        <time>2021-07-25T08:19:14.000Z</time>
      </trkpt>
      <trkpt lat="47.14294" lon="-1.99918">
        <ele>67</ele>
        <time>2021-07-25T08:19:16.000Z</time>
      </trkpt>
      <trkpt lat="47.14283" lon="-1.99936">
        <ele>66</ele>
        <time>2021-07-25T08:19:18.000Z</time>
      </trkpt>
      <trkpt lat="47.14271" lon="-1.99953">
        <ele>66</ele>
        <time>2021-07-25T08:19:20.000Z</time>
      </trkpt>
      <trkpt lat="47.1426" lon="-1.99971">
        <ele>67</ele>
        <time>2021-07-25T08:19:22.000Z</time>
      </trkpt>
      <trkpt lat="47.14249" lon="-1.9999">
        <ele>67</ele>
        <time>2021-07-25T08:19:24.000Z</time>
      </trkpt>
      <trkpt lat="47.14237" lon="-2.00009">
        <ele>67</ele>
        <time>2021-07-25T08:19:26.000Z</time>
      </trkpt>
      <trkpt lat="47.14226" lon="-2.00028">
        <ele>66</ele>
        <time>2021-07-25T08:19:28.000Z</time>
      </trkpt>
      <trkpt lat="47.14215" lon="-2.00047">
        <ele>66</ele>
        <time>2021-07-25T08:19:30.000Z</time>
      </trkpt>
      <trkpt lat="47.14203" lon="-2.00067">
        <ele>65</ele>
        <time>2021-07-25T08:19:32.000Z</time>
      </trkpt>
      <trkpt lat="47.14192" lon="-2.00086">
        <ele>65</ele>
        <time>2021-07-25T08:19:34.000Z</time>
      </trkpt>
      <trkpt lat="47.14181" lon="-2.00105">
        <ele>65</ele>
        <time>2021-07-25T08:19:36.000Z</time>
      </trkpt>
      <trkpt lat="47.14174" lon="-2.00114">
        <ele>65</ele>
        <time>2021-07-25T08:19:37.000Z</time>
      </trkpt>
      <trkpt lat="47.14162" lon="-2.00133">
        <ele>65</ele>
        <time>2021-07-25T08:19:39.000Z</time>
      </trkpt>
      <trkpt lat="47.14151" lon="-2.00152">
        <ele>65</ele>
        <time>2021-07-25T08:19:41.000Z</time>
      </trkpt>
      <trkpt lat="47.14139" lon="-2.00171">
        <ele>64</ele>
        <time>2021-07-25T08:19:43.000Z</time>
      </trkpt>
      <trkpt lat="47.14128" lon="-2.00189">
        <ele>64</ele>
        <time>2021-07-25T08:19:45.000Z</time>
      </trkpt>
      <trkpt lat="47.14116" lon="-2.00207">
        <ele>65</ele>
        <time>2021-07-25T08:19:47.000Z</time>
      </trkpt>
      <trkpt lat="47.14105" lon="-2.00226">
        <ele>64</ele>
        <time>2021-07-25T08:19:49.000Z</time>
      </trkpt>
      <trkpt lat="47.14093" lon="-2.00245">
        <ele>65</ele>
        <time>2021-07-25T08:19:51.000Z</time>
      </trkpt>
      <trkpt lat="47.14083" lon="-2.00265">
        <ele>64</ele>
        <time>2021-07-25T08:19:53.000Z</time>
      </trkpt>
      <trkpt lat="47.14073" lon="-2.00285">
        <ele>64</ele>
        <time>2021-07-25T08:19:55.000Z</time>
      </trkpt>
      <trkpt lat="47.14063" lon="-2.00306">
        <ele>64</ele>
        <time>2021-07-25T08:19:57.000Z</time>
      </trkpt>
      <trkpt lat="47.14053" lon="-2.00327">
        <ele>63</ele>
        <time>2021-07-25T08:19:59.000Z</time>
      </trkpt>
      <trkpt lat="47.14043" lon="-2.00347">
        <ele>64</ele>
        <time>2021-07-25T08:20:01.000Z</time>
      </trkpt>
      <trkpt lat="47.14033" lon="-2.00367">
        <ele>64</ele>
        <time>2021-07-25T08:20:03.000Z</time>
      </trkpt>
      <trkpt lat="47.14023" lon="-2.00388">
        <ele>64</ele>
        <time>2021-07-25T08:20:05.000Z</time>
      </trkpt>
      <trkpt lat="47.14014" lon="-2.00408">
        <ele>63</ele>
        <time>2021-07-25T08:20:07.000Z</time>
      </trkpt>
      <trkpt lat="47.14004" lon="-2.0043">
        <ele>63</ele>
        <time>2021-07-25T08:20:09.000Z</time>
      </trkpt>
      <trkpt lat="47.13994" lon="-2.0045">
        <ele>63</ele>
        <time>2021-07-25T08:20:11.000Z</time>
      </trkpt>
      <trkpt lat="47.13984" lon="-2.00471">
        <ele>63</ele>
        <time>2021-07-25T08:20:13.000Z</time>
      </trkpt>
      <trkpt lat="47.13974" lon="-2.00491">
        <ele>63</ele>
        <time>2021-07-25T08:20:15.000Z</time>
      </trkpt>
      <trkpt lat="47.13964" lon="-2.00512">
        <ele>63</ele>
        <time>2021-07-25T08:20:17.000Z</time>
      </trkpt>
      <trkpt lat="47.13955" lon="-2.00532">
        <ele>63</ele>
        <time>2021-07-25T08:20:19.000Z</time>
      </trkpt>
      <trkpt lat="47.13945" lon="-2.00553">
        <ele>63</ele>
        <time>2021-07-25T08:20:21.000Z</time>
      </trkpt>
      <trkpt lat="47.13936" lon="-2.00574">
        <ele>63</ele>
        <time>2021-07-25T08:20:23.000Z</time>
      </trkpt>
      <trkpt lat="47.13926" lon="-2.00594">
        <ele>64</ele>
        <time>2021-07-25T08:20:25.000Z</time>
      </trkpt>
      <trkpt lat="47.13916" lon="-2.00614">
        <ele>64</ele>
        <time>2021-07-25T08:20:27.000Z</time>
      </trkpt>
      <trkpt lat="47.13907" lon="-2.00634">
        <ele>64</ele>
        <time>2021-07-25T08:20:29.000Z</time>
      </trkpt>
      <trkpt lat="47.13898" lon="-2.00654">
        <ele>64</ele>
        <time>2021-07-25T08:20:31.000Z</time>
      </trkpt>
      <trkpt lat="47.13889" lon="-2.00674">
        <ele>64</ele>
        <time>2021-07-25T08:20:33.000Z</time>
      </trkpt>
      <trkpt lat="47.13879" lon="-2.00694">
        <ele>64</ele>
        <time>2021-07-25T08:20:35.000Z</time>
      </trkpt>
      <trkpt lat="47.1387" lon="-2.00713">
        <ele>64</ele>
        <time>2021-07-25T08:20:37.000Z</time>
      </trkpt>
      <trkpt lat="47.13861" lon="-2.00732">
        <ele>64</ele>
        <time>2021-07-25T08:20:39.000Z</time>
      </trkpt>
      <trkpt lat="47.13852" lon="-2.00751">
        <ele>64</ele>
        <time>2021-07-25T08:20:41.000Z</time>
      </trkpt>
      <trkpt lat="47.13843" lon="-2.0077">
        <ele>64</ele>
        <time>2021-07-25T08:20:43.000Z</time>
      </trkpt>
      <trkpt lat="47.13833" lon="-2.0079">
        <ele>64</ele>
        <time>2021-07-25T08:20:45.000Z</time>
      </trkpt>
      <trkpt lat="47.13824" lon="-2.00809">
        <ele>65</ele>
        <time>2021-07-25T08:20:47.000Z</time>
      </trkpt>
      <trkpt lat="47.13816" lon="-2.00828">
        <ele>65</ele>
        <time>2021-07-25T08:20:49.000Z</time>
      </trkpt>
      <trkpt lat="47.13807" lon="-2.00846">
        <ele>65</ele>
        <time>2021-07-25T08:20:51.000Z</time>
      </trkpt>
      <trkpt lat="47.13798" lon="-2.00865">
        <ele>65</ele>
        <time>2021-07-25T08:20:53.000Z</time>
      </trkpt>
      <trkpt lat="47.13789" lon="-2.00884">
        <ele>65</ele>
        <time>2021-07-25T08:20:55.000Z</time>
      </trkpt>
      <trkpt lat="47.1378" lon="-2.00902">
        <ele>65</ele>
        <time>2021-07-25T08:20:57.000Z</time>
      </trkpt>
      <trkpt lat="47.13772" lon="-2.00921">
        <ele>65</ele>
        <time>2021-07-25T08:20:59.000Z</time>
      </trkpt>
      <trkpt lat="47.13763" lon="-2.00939">
        <ele>65</ele>
        <time>2021-07-25T08:21:01.000Z</time>
      </trkpt>
      <trkpt lat="47.13754" lon="-2.00958">
        <ele>65</ele>
        <time>2021-07-25T08:21:03.000Z</time>
      </trkpt>
      <trkpt lat="47.13746" lon="-2.00977">
        <ele>65</ele>
        <time>2021-07-25T08:21:05.000Z</time>
      </trkpt>
      <trkpt lat="47.13738" lon="-2.00996">
        <ele>65</ele>
        <time>2021-07-25T08:21:07.000Z</time>
      </trkpt>
      <trkpt lat="47.13731" lon="-2.01016">
        <ele>65</ele>
        <time>2021-07-25T08:21:09.000Z</time>
      </trkpt>
      <trkpt lat="47.13725" lon="-2.01037">
        <ele>65</ele>
        <time>2021-07-25T08:21:11.000Z</time>
      </trkpt>
      <trkpt lat="47.13719" lon="-2.01057">
        <ele>65</ele>
        <time>2021-07-25T08:21:13.000Z</time>
      </trkpt>
      <trkpt lat="47.13712" lon="-2.01078">
        <ele>65</ele>
        <time>2021-07-25T08:21:15.000Z</time>
      </trkpt>
      <trkpt lat="47.13706" lon="-2.01098">
        <ele>65</ele>
        <time>2021-07-25T08:21:17.000Z</time>
      </trkpt>
      <trkpt lat="47.137" lon="-2.01119">
        <ele>65</ele>
        <time>2021-07-25T08:21:19.000Z</time>
      </trkpt>
      <trkpt lat="47.13693" lon="-2.01139">
        <ele>65</ele>
        <time>2021-07-25T08:21:21.000Z</time>
      </trkpt>
      <trkpt lat="47.13687" lon="-2.01159">
        <ele>65</ele>
        <time>2021-07-25T08:21:23.000Z</time>
      </trkpt>
      <trkpt lat="47.13681" lon="-2.0118">
        <ele>65</ele>
        <time>2021-07-25T08:21:25.000Z</time>
      </trkpt>
      <trkpt lat="47.13675" lon="-2.01201">
        <ele>65</ele>
        <time>2021-07-25T08:21:27.000Z</time>
      </trkpt>
      <trkpt lat="47.13668" lon="-2.01222">
        <ele>65</ele>
        <time>2021-07-25T08:21:29.000Z</time>
      </trkpt>
      <trkpt lat="47.13662" lon="-2.01243">
        <ele>65</ele>
        <time>2021-07-25T08:21:31.000Z</time>
      </trkpt>
      <trkpt lat="47.13656" lon="-2.01263">
        <ele>65</ele>
        <time>2021-07-25T08:21:33.000Z</time>
      </trkpt>
      <trkpt lat="47.13649" lon="-2.01283">
        <ele>65</ele>
        <time>2021-07-25T08:21:35.000Z</time>
      </trkpt>
      <trkpt lat="47.13642" lon="-2.01305">
        <ele>65</ele>
        <time>2021-07-25T08:21:37.000Z</time>
      </trkpt>
      <trkpt lat="47.13636" lon="-2.01326">
        <ele>65</ele>
        <time>2021-07-25T08:21:39.000Z</time>
      </trkpt>
      <trkpt lat="47.13629" lon="-2.01347">
        <ele>65</ele>
        <time>2021-07-25T08:21:41.000Z</time>
      </trkpt>
      <trkpt lat="47.13622" lon="-2.01369">
        <ele>65</ele>
        <time>2021-07-25T08:21:43.000Z</time>
      </trkpt>
      <trkpt lat="47.13616" lon="-2.0139">
        <ele>65</ele>
        <time>2021-07-25T08:21:45.000Z</time>
      </trkpt>
      <trkpt lat="47.13609" lon="-2.01411">
        <ele>65</ele>
        <time>2021-07-25T08:21:47.000Z</time>
      </trkpt>
      <trkpt lat="47.13603" lon="-2.01433">
        <ele>65</ele>
        <time>2021-07-25T08:21:49.000Z</time>
      </trkpt>
      <trkpt lat="47.13596" lon="-2.01454">
        <ele>65</ele>
        <time>2021-07-25T08:21:51.000Z</time>
      </trkpt>
      <trkpt lat="47.13589" lon="-2.01475">
        <ele>65</ele>
        <time>2021-07-25T08:21:53.000Z</time>
      </trkpt>
      <trkpt lat="47.13583" lon="-2.01497">
        <ele>65</ele>
        <time>2021-07-25T08:21:55.000Z</time>
      </trkpt>
      <trkpt lat="47.13577" lon="-2.01518">
        <ele>65</ele>
        <time>2021-07-25T08:21:57.000Z</time>
      </trkpt>
      <trkpt lat="47.1357" lon="-2.0154">
        <ele>65</ele>
        <time>2021-07-25T08:21:59.000Z</time>
      </trkpt>
      <trkpt lat="47.13565" lon="-2.01561">
        <ele>65</ele>
        <time>2021-07-25T08:22:01.000Z</time>
      </trkpt>
      <trkpt lat="47.1356" lon="-2.01584">
        <ele>65</ele>
        <time>2021-07-25T08:22:03.000Z</time>
      </trkpt>
      <trkpt lat="47.13556" lon="-2.01606">
        <ele>65</ele>
        <time>2021-07-25T08:22:05.000Z</time>
      </trkpt>
      <trkpt lat="47.13553" lon="-2.0163">
        <ele>64</ele>
        <time>2021-07-25T08:22:07.000Z</time>
      </trkpt>
      <trkpt lat="47.1355" lon="-2.01653">
        <ele>64</ele>
        <time>2021-07-25T08:22:09.000Z</time>
      </trkpt>
      <trkpt lat="47.13547" lon="-2.01677">
        <ele>64</ele>
        <time>2021-07-25T08:22:11.000Z</time>
      </trkpt>
      <trkpt lat="47.13545" lon="-2.01701">
        <ele>64</ele>
        <time>2021-07-25T08:22:13.000Z</time>
      </trkpt>
      <trkpt lat="47.13542" lon="-2.01725">
        <ele>64</ele>
        <time>2021-07-25T08:22:15.000Z</time>
      </trkpt>
      <trkpt lat="47.1354" lon="-2.01749">
        <ele>64</ele>
        <time>2021-07-25T08:22:17.000Z</time>
      </trkpt>
      <trkpt lat="47.13537" lon="-2.01774">
        <ele>64</ele>
        <time>2021-07-25T08:22:19.000Z</time>
      </trkpt>
      <trkpt lat="47.13533" lon="-2.01799">
        <ele>63</ele>
        <time>2021-07-25T08:22:21.000Z</time>
      </trkpt>
      <trkpt lat="47.13532" lon="-2.01812">
        <ele>63</ele>
        <time>2021-07-25T08:22:22.000Z</time>
      </trkpt>
      <trkpt lat="47.13529" lon="-2.01838">
        <ele>63</ele>
        <time>2021-07-25T08:22:24.000Z</time>
      </trkpt>
      <trkpt lat="47.13526" lon="-2.01863">
        <ele>63</ele>
        <time>2021-07-25T08:22:26.000Z</time>
      </trkpt>
      <trkpt lat="47.13523" lon="-2.01888">
        <ele>62</ele>
        <time>2021-07-25T08:22:28.000Z</time>
      </trkpt>
      <trkpt lat="47.13521" lon="-2.01914">
        <ele>62</ele>
        <time>2021-07-25T08:22:30.000Z</time>
      </trkpt>
      <trkpt lat="47.13518" lon="-2.0194">
        <ele>62</ele>
        <time>2021-07-25T08:22:32.000Z</time>
      </trkpt>
      <trkpt lat="47.13515" lon="-2.01966">
        <ele>62</ele>
        <time>2021-07-25T08:22:34.000Z</time>
      </trkpt>
      <trkpt lat="47.13513" lon="-2.01991">
        <ele>62</ele>
        <time>2021-07-25T08:22:36.000Z</time>
      </trkpt>
      <trkpt lat="47.1351" lon="-2.02016">
        <ele>63</ele>
        <time>2021-07-25T08:22:38.000Z</time>
      </trkpt>
      <trkpt lat="47.13507" lon="-2.0204">
        <ele>62</ele>
        <time>2021-07-25T08:22:40.000Z</time>
      </trkpt>
      <trkpt lat="47.13504" lon="-2.02065">
        <ele>62</ele>
        <time>2021-07-25T08:22:42.000Z</time>
      </trkpt>
      <trkpt lat="47.13501" lon="-2.0209">
        <ele>62</ele>
        <time>2021-07-25T08:22:44.000Z</time>
      </trkpt>
      <trkpt lat="47.13498" lon="-2.02115">
        <ele>62</ele>
        <time>2021-07-25T08:22:46.000Z</time>
      </trkpt>
      <trkpt lat="47.13495" lon="-2.0214">
        <ele>62</ele>
        <time>2021-07-25T08:22:48.000Z</time>
      </trkpt>
      <trkpt lat="47.13492" lon="-2.02165">
        <ele>62</ele>
        <time>2021-07-25T08:22:50.000Z</time>
      </trkpt>
      <trkpt lat="47.13489" lon="-2.02189">
        <ele>62</ele>
        <time>2021-07-25T08:22:52.000Z</time>
      </trkpt>
      <trkpt lat="47.13485" lon="-2.02213">
        <ele>62</ele>
        <time>2021-07-25T08:22:54.000Z</time>
      </trkpt>
      <trkpt lat="47.1348" lon="-2.02238">
        <ele>62</ele>
        <time>2021-07-25T08:22:56.000Z</time>
      </trkpt>
      <trkpt lat="47.13474" lon="-2.02261">
        <ele>62</ele>
        <time>2021-07-25T08:22:58.000Z</time>
      </trkpt>
      <trkpt lat="47.13469" lon="-2.02284">
        <ele>62</ele>
        <time>2021-07-25T08:23:00.000Z</time>
      </trkpt>
      <trkpt lat="47.13463" lon="-2.02307">
        <ele>62</ele>
        <time>2021-07-25T08:23:02.000Z</time>
      </trkpt>
      <trkpt lat="47.13456" lon="-2.02329">
        <ele>61</ele>
        <time>2021-07-25T08:23:04.000Z</time>
      </trkpt>
      <trkpt lat="47.13449" lon="-2.0235">
        <ele>61</ele>
        <time>2021-07-25T08:23:06.000Z</time>
      </trkpt>
      <trkpt lat="47.13441" lon="-2.02372">
        <ele>61</ele>
        <time>2021-07-25T08:23:08.000Z</time>
      </trkpt>
      <trkpt lat="47.13432" lon="-2.02393">
        <ele>62</ele>
        <time>2021-07-25T08:23:10.000Z</time>
      </trkpt>
      <trkpt lat="47.13423" lon="-2.02413">
        <ele>62</ele>
        <time>2021-07-25T08:23:12.000Z</time>
      </trkpt>
      <trkpt lat="47.13414" lon="-2.02434">
        <ele>62</ele>
        <time>2021-07-25T08:23:14.000Z</time>
      </trkpt>
      <trkpt lat="47.13406" lon="-2.02454">
        <ele>62</ele>
        <time>2021-07-25T08:23:16.000Z</time>
      </trkpt>
      <trkpt lat="47.13397" lon="-2.02473">
        <ele>62</ele>
        <time>2021-07-25T08:23:18.000Z</time>
      </trkpt>
      <trkpt lat="47.13389" lon="-2.02493">
        <ele>62</ele>
        <time>2021-07-25T08:23:20.000Z</time>
      </trkpt>
      <trkpt lat="47.13381" lon="-2.02512">
        <ele>61</ele>
        <time>2021-07-25T08:23:22.000Z</time>
      </trkpt>
      <trkpt lat="47.13373" lon="-2.02531">
        <ele>62</ele>
        <time>2021-07-25T08:23:24.000Z</time>
      </trkpt>
      <trkpt lat="47.13364" lon="-2.0255">
        <ele>62</ele>
        <time>2021-07-25T08:23:26.000Z</time>
      </trkpt>
      <trkpt lat="47.13356" lon="-2.0257">
        <ele>63</ele>
        <time>2021-07-25T08:23:28.000Z</time>
      </trkpt>
      <trkpt lat="47.13348" lon="-2.0259">
        <ele>63</ele>
        <time>2021-07-25T08:23:30.000Z</time>
      </trkpt>
      <trkpt lat="47.1334" lon="-2.0261">
        <ele>63</ele>
        <time>2021-07-25T08:23:32.000Z</time>
      </trkpt>
      <trkpt lat="47.13331" lon="-2.0263">
        <ele>63</ele>
        <time>2021-07-25T08:23:34.000Z</time>
      </trkpt>
      <trkpt lat="47.13323" lon="-2.02649">
        <ele>64</ele>
        <time>2021-07-25T08:23:36.000Z</time>
      </trkpt>
      <trkpt lat="47.13315" lon="-2.02668">
        <ele>64</ele>
        <time>2021-07-25T08:23:38.000Z</time>
      </trkpt>
      <trkpt lat="47.13307" lon="-2.02687">
        <ele>64</ele>
        <time>2021-07-25T08:23:40.000Z</time>
      </trkpt>
      <trkpt lat="47.13299" lon="-2.02707">
        <ele>64</ele>
        <time>2021-07-25T08:23:42.000Z</time>
      </trkpt>
      <trkpt lat="47.13291" lon="-2.02727">
        <ele>64</ele>
        <time>2021-07-25T08:23:44.000Z</time>
      </trkpt>
      <trkpt lat="47.13284" lon="-2.02746">
        <ele>64</ele>
        <time>2021-07-25T08:23:46.000Z</time>
      </trkpt>
      <trkpt lat="47.13277" lon="-2.02767">
        <ele>64</ele>
        <time>2021-07-25T08:23:48.000Z</time>
      </trkpt>
      <trkpt lat="47.13271" lon="-2.02787">
        <ele>64</ele>
        <time>2021-07-25T08:23:50.000Z</time>
      </trkpt>
      <trkpt lat="47.13265" lon="-2.02807">
        <ele>64</ele>
        <time>2021-07-25T08:23:52.000Z</time>
      </trkpt>
      <trkpt lat="47.13261" lon="-2.02829">
        <ele>64</ele>
        <time>2021-07-25T08:23:54.000Z</time>
      </trkpt>
      <trkpt lat="47.13255" lon="-2.0285">
        <ele>63</ele>
        <time>2021-07-25T08:23:56.000Z</time>
      </trkpt>
      <trkpt lat="47.1325" lon="-2.02872">
        <ele>63</ele>
        <time>2021-07-25T08:23:58.000Z</time>
      </trkpt>
      <trkpt lat="47.13245" lon="-2.02894">
        <ele>63</ele>
        <time>2021-07-25T08:24:00.000Z</time>
      </trkpt>
      <trkpt lat="47.1324" lon="-2.02915">
        <ele>63</ele>
        <time>2021-07-25T08:24:02.000Z</time>
      </trkpt>
      <trkpt lat="47.13234" lon="-2.02936">
        <ele>63</ele>
        <time>2021-07-25T08:24:04.000Z</time>
      </trkpt>
      <trkpt lat="47.13229" lon="-2.02958">
        <ele>62</ele>
        <time>2021-07-25T08:24:06.000Z</time>
      </trkpt>
      <trkpt lat="47.13223" lon="-2.0298">
        <ele>62</ele>
        <time>2021-07-25T08:24:08.000Z</time>
      </trkpt>
      <trkpt lat="47.13217" lon="-2.03001">
        <ele>62</ele>
        <time>2021-07-25T08:24:10.000Z</time>
      </trkpt>
      <trkpt lat="47.13212" lon="-2.03023">
        <ele>61</ele>
        <time>2021-07-25T08:24:12.000Z</time>
      </trkpt>
      <trkpt lat="47.13205" lon="-2.03045">
        <ele>60</ele>
        <time>2021-07-25T08:24:14.000Z</time>
      </trkpt>
      <trkpt lat="47.13199" lon="-2.03065">
        <ele>60</ele>
        <time>2021-07-25T08:24:16.000Z</time>
      </trkpt>
      <trkpt lat="47.13192" lon="-2.03086">
        <ele>60</ele>
        <time>2021-07-25T08:24:18.000Z</time>
      </trkpt>
      <trkpt lat="47.13185" lon="-2.03107">
        <ele>60</ele>
        <time>2021-07-25T08:24:20.000Z</time>
      </trkpt>
      <trkpt lat="47.13178" lon="-2.03127">
        <ele>60</ele>
        <time>2021-07-25T08:24:22.000Z</time>
      </trkpt>
      <trkpt lat="47.13171" lon="-2.03148">
        <ele>59</ele>
        <time>2021-07-25T08:24:24.000Z</time>
      </trkpt>
      <trkpt lat="47.13164" lon="-2.0317">
        <ele>59</ele>
        <time>2021-07-25T08:24:26.000Z</time>
      </trkpt>
      <trkpt lat="47.13157" lon="-2.0319">
        <ele>59</ele>
        <time>2021-07-25T08:24:28.000Z</time>
      </trkpt>
      <trkpt lat="47.1315" lon="-2.0321">
        <ele>59</ele>
        <time>2021-07-25T08:24:30.000Z</time>
      </trkpt>
      <trkpt lat="47.13144" lon="-2.03231">
        <ele>58</ele>
        <time>2021-07-25T08:24:32.000Z</time>
      </trkpt>
      <trkpt lat="47.13137" lon="-2.03252">
        <ele>58</ele>
        <time>2021-07-25T08:24:34.000Z</time>
      </trkpt>
      <trkpt lat="47.1313" lon="-2.03273">
        <ele>58</ele>
        <time>2021-07-25T08:24:36.000Z</time>
      </trkpt>
      <trkpt lat="47.13123" lon="-2.03295">
        <ele>58</ele>
        <time>2021-07-25T08:24:38.000Z</time>
      </trkpt>
      <trkpt lat="47.13115" lon="-2.03316">
        <ele>58</ele>
        <time>2021-07-25T08:24:40.000Z</time>
      </trkpt>
      <trkpt lat="47.13109" lon="-2.03337">
        <ele>58</ele>
        <time>2021-07-25T08:24:42.000Z</time>
      </trkpt>
      <trkpt lat="47.13098" lon="-2.0337">
        <ele>58</ele>
        <time>2021-07-25T08:24:45.000Z</time>
      </trkpt>
      <trkpt lat="47.13094" lon="-2.03395">
        <ele>58</ele>
        <time>2021-07-25T08:24:47.000Z</time>
      </trkpt>
      <trkpt lat="47.13089" lon="-2.03418">
        <ele>59</ele>
        <time>2021-07-25T08:24:49.000Z</time>
      </trkpt>
      <trkpt lat="47.13085" lon="-2.03455">
        <ele>59</ele>
        <time>2021-07-25T08:24:52.000Z</time>
      </trkpt>
      <trkpt lat="47.13081" lon="-2.03479">
        <ele>59</ele>
        <time>2021-07-25T08:24:54.000Z</time>
      </trkpt>
      <trkpt lat="47.13076" lon="-2.03516">
        <ele>59</ele>
        <time>2021-07-25T08:24:57.000Z</time>
      </trkpt>
      <trkpt lat="47.13072" lon="-2.03541">
        <ele>59</ele>
        <time>2021-07-25T08:24:59.000Z</time>
      </trkpt>
      <trkpt lat="47.13068" lon="-2.03565">
        <ele>59</ele>
        <time>2021-07-25T08:25:01.000Z</time>
      </trkpt>
      <trkpt lat="47.13063" lon="-2.03588">
        <ele>59</ele>
        <time>2021-07-25T08:25:03.000Z</time>
      </trkpt>
      <trkpt lat="47.13054" lon="-2.03609">
        <ele>59</ele>
        <time>2021-07-25T08:25:05.000Z</time>
      </trkpt>
      <trkpt lat="47.13045" lon="-2.0363">
        <ele>59</ele>
        <time>2021-07-25T08:25:07.000Z</time>
      </trkpt>
      <trkpt lat="47.13035" lon="-2.03652">
        <ele>59</ele>
        <time>2021-07-25T08:25:09.000Z</time>
      </trkpt>
      <trkpt lat="47.13026" lon="-2.03687">
        <ele>58</ele>
        <time>2021-07-25T08:25:12.000Z</time>
      </trkpt>
      <trkpt lat="47.13029" lon="-2.03712">
        <ele>58</ele>
        <time>2021-07-25T08:25:14.000Z</time>
      </trkpt>
      <trkpt lat="47.13035" lon="-2.03734">
        <ele>57</ele>
        <time>2021-07-25T08:25:16.000Z</time>
      </trkpt>
      <trkpt lat="47.13041" lon="-2.03756">
        <ele>57</ele>
        <time>2021-07-25T08:25:18.000Z</time>
      </trkpt>
      <trkpt lat="47.13047" lon="-2.03778">
        <ele>57</ele>
        <time>2021-07-25T08:25:20.000Z</time>
      </trkpt>
      <trkpt lat="47.13056" lon="-2.0381">
        <ele>57</ele>
        <time>2021-07-25T08:25:23.000Z</time>
      </trkpt>
      <trkpt lat="47.13062" lon="-2.03831">
        <ele>56</ele>
        <time>2021-07-25T08:25:25.000Z</time>
      </trkpt>
      <trkpt lat="47.13067" lon="-2.03852">
        <ele>56</ele>
        <time>2021-07-25T08:25:27.000Z</time>
      </trkpt>
      <trkpt lat="47.13071" lon="-2.03874">
        <ele>56</ele>
        <time>2021-07-25T08:25:29.000Z</time>
      </trkpt>
      <trkpt lat="47.13074" lon="-2.03896">
        <ele>56</ele>
        <time>2021-07-25T08:25:31.000Z</time>
      </trkpt>
      <trkpt lat="47.13076" lon="-2.03919">
        <ele>56</ele>
        <time>2021-07-25T08:25:33.000Z</time>
      </trkpt>
      <trkpt lat="47.13078" lon="-2.03942">
        <ele>56</ele>
        <time>2021-07-25T08:25:35.000Z</time>
      </trkpt>
      <trkpt lat="47.1308" lon="-2.03966">
        <ele>56</ele>
        <time>2021-07-25T08:25:37.000Z</time>
      </trkpt>
      <trkpt lat="47.13082" lon="-2.03989">
        <ele>55</ele>
        <time>2021-07-25T08:25:39.000Z</time>
      </trkpt>
      <trkpt lat="47.13084" lon="-2.04011">
        <ele>56</ele>
        <time>2021-07-25T08:25:41.000Z</time>
      </trkpt>
      <trkpt lat="47.13085" lon="-2.04035">
        <ele>56</ele>
        <time>2021-07-25T08:25:43.000Z</time>
      </trkpt>
      <trkpt lat="47.13087" lon="-2.04059">
        <ele>56</ele>
        <time>2021-07-25T08:25:45.000Z</time>
      </trkpt>
      <trkpt lat="47.13088" lon="-2.04082">
        <ele>56</ele>
        <time>2021-07-25T08:25:47.000Z</time>
      </trkpt>
      <trkpt lat="47.13089" lon="-2.04105">
        <ele>56</ele>
        <time>2021-07-25T08:25:49.000Z</time>
      </trkpt>
      <trkpt lat="47.13091" lon="-2.04128">
        <ele>55</ele>
        <time>2021-07-25T08:25:51.000Z</time>
      </trkpt>
      <trkpt lat="47.13093" lon="-2.0415">
        <ele>55</ele>
        <time>2021-07-25T08:25:53.000Z</time>
      </trkpt>
      <trkpt lat="47.13095" lon="-2.04172">
        <ele>55</ele>
        <time>2021-07-25T08:25:55.000Z</time>
      </trkpt>
      <trkpt lat="47.13096" lon="-2.04196">
        <ele>56</ele>
        <time>2021-07-25T08:25:57.000Z</time>
      </trkpt>
      <trkpt lat="47.13098" lon="-2.04218">
        <ele>56</ele>
        <time>2021-07-25T08:25:59.000Z</time>
      </trkpt>
      <trkpt lat="47.131" lon="-2.0424">
        <ele>57</ele>
        <time>2021-07-25T08:26:01.000Z</time>
      </trkpt>
      <trkpt lat="47.13102" lon="-2.04263">
        <ele>56</ele>
        <time>2021-07-25T08:26:03.000Z</time>
      </trkpt>
      <trkpt lat="47.13104" lon="-2.04285">
        <ele>56</ele>
        <time>2021-07-25T08:26:05.000Z</time>
      </trkpt>
      <trkpt lat="47.13106" lon="-2.04308">
        <ele>56</ele>
        <time>2021-07-25T08:26:07.000Z</time>
      </trkpt>
      <trkpt lat="47.13107" lon="-2.04331">
        <ele>56</ele>
        <time>2021-07-25T08:26:09.000Z</time>
      </trkpt>
      <trkpt lat="47.13107" lon="-2.04354">
        <ele>57</ele>
        <time>2021-07-25T08:26:11.000Z</time>
      </trkpt>
      <trkpt lat="47.13104" lon="-2.04377">
        <ele>57</ele>
        <time>2021-07-25T08:26:13.000Z</time>
      </trkpt>
      <trkpt lat="47.13097" lon="-2.04398">
        <ele>56</ele>
        <time>2021-07-25T08:26:15.000Z</time>
      </trkpt>
      <trkpt lat="47.13088" lon="-2.04416">
        <ele>56</ele>
        <time>2021-07-25T08:26:17.000Z</time>
      </trkpt>
      <trkpt lat="47.1308" lon="-2.04434">
        <ele>57</ele>
        <time>2021-07-25T08:26:19.000Z</time>
      </trkpt>
      <trkpt lat="47.13069" lon="-2.04452">
        <ele>57</ele>
        <time>2021-07-25T08:26:21.000Z</time>
      </trkpt>
      <trkpt lat="47.13057" lon="-2.04468">
        <ele>57</ele>
        <time>2021-07-25T08:26:23.000Z</time>
      </trkpt>
      <trkpt lat="47.13047" lon="-2.04485">
        <ele>57</ele>
        <time>2021-07-25T08:26:25.000Z</time>
      </trkpt>
      <trkpt lat="47.13035" lon="-2.04502">
        <ele>57</ele>
        <time>2021-07-25T08:26:27.000Z</time>
      </trkpt>
      <trkpt lat="47.13025" lon="-2.04519">
        <ele>57</ele>
        <time>2021-07-25T08:26:29.000Z</time>
      </trkpt>
      <trkpt lat="47.13014" lon="-2.04537">
        <ele>57</ele>
        <time>2021-07-25T08:26:31.000Z</time>
      </trkpt>
      <trkpt lat="47.13004" lon="-2.04553">
        <ele>57</ele>
        <time>2021-07-25T08:26:33.000Z</time>
      </trkpt>
      <trkpt lat="47.12993" lon="-2.0457">
        <ele>57</ele>
        <time>2021-07-25T08:26:35.000Z</time>
      </trkpt>
      <trkpt lat="47.12982" lon="-2.04587">
        <ele>57</ele>
        <time>2021-07-25T08:26:37.000Z</time>
      </trkpt>
      <trkpt lat="47.12973" lon="-2.04604">
        <ele>57</ele>
        <time>2021-07-25T08:26:39.000Z</time>
      </trkpt>
      <trkpt lat="47.12964" lon="-2.04622">
        <ele>58</ele>
        <time>2021-07-25T08:26:41.000Z</time>
      </trkpt>
      <trkpt lat="47.12956" lon="-2.04641">
        <ele>58</ele>
        <time>2021-07-25T08:26:43.000Z</time>
      </trkpt>
      <trkpt lat="47.12951" lon="-2.04661">
        <ele>58</ele>
        <time>2021-07-25T08:26:45.000Z</time>
      </trkpt>
      <trkpt lat="47.1295" lon="-2.0468">
        <ele>58</ele>
        <time>2021-07-25T08:26:47.000Z</time>
      </trkpt>
      <trkpt lat="47.12949" lon="-2.04698">
        <ele>58</ele>
        <time>2021-07-25T08:26:49.000Z</time>
      </trkpt>
      <trkpt lat="47.12948" lon="-2.04715">
        <ele>58</ele>
        <time>2021-07-25T08:26:51.000Z</time>
      </trkpt>
      <trkpt lat="47.12948" lon="-2.04732">
        <ele>57</ele>
        <time>2021-07-25T08:26:53.000Z</time>
      </trkpt>
      <trkpt lat="47.12948" lon="-2.04747">
        <ele>58</ele>
        <time>2021-07-25T08:26:55.000Z</time>
      </trkpt>
      <trkpt lat="47.12949" lon="-2.04763">
        <ele>58</ele>
        <time>2021-07-25T08:26:58.000Z</time>
      </trkpt>
      <trkpt lat="47.12951" lon="-2.04778">
        <ele>59</ele>
        <time>2021-07-25T08:27:03.000Z</time>
      </trkpt>
      <trkpt lat="47.12952" lon="-2.04792">
        <ele>60</ele>
        <time>2021-07-25T08:27:05.000Z</time>
      </trkpt>
      <trkpt lat="47.12952" lon="-2.04807">
        <ele>60</ele>
        <time>2021-07-25T08:27:07.000Z</time>
      </trkpt>
      <trkpt lat="47.12952" lon="-2.04823">
        <ele>60</ele>
        <time>2021-07-25T08:27:09.000Z</time>
      </trkpt>
      <trkpt lat="47.12953" lon="-2.0484">
        <ele>60</ele>
        <time>2021-07-25T08:27:11.000Z</time>
      </trkpt>
      <trkpt lat="47.12954" lon="-2.04857">
        <ele>60</ele>
        <time>2021-07-25T08:27:13.000Z</time>
      </trkpt>
      <trkpt lat="47.12954" lon="-2.04874">
        <ele>60</ele>
        <time>2021-07-25T08:27:15.000Z</time>
      </trkpt>
      <trkpt lat="47.12955" lon="-2.04891">
        <ele>59</ele>
        <time>2021-07-25T08:27:17.000Z</time>
      </trkpt>
      <trkpt lat="47.12957" lon="-2.04908">
        <ele>60</ele>
        <time>2021-07-25T08:27:19.000Z</time>
      </trkpt>
      <trkpt lat="47.12961" lon="-2.04924">
        <ele>60</ele>
        <time>2021-07-25T08:27:21.000Z</time>
      </trkpt>
      <trkpt lat="47.12967" lon="-2.0494">
        <ele>60</ele>
        <time>2021-07-25T08:27:23.000Z</time>
      </trkpt>
      <trkpt lat="47.12973" lon="-2.04954">
        <ele>61</ele>
        <time>2021-07-25T08:27:25.000Z</time>
      </trkpt>
      <trkpt lat="47.12981" lon="-2.04968">
        <ele>62</ele>
        <time>2021-07-25T08:27:27.000Z</time>
      </trkpt>
      <trkpt lat="47.12988" lon="-2.04981">
        <ele>62</ele>
        <time>2021-07-25T08:27:29.000Z</time>
      </trkpt>
      <trkpt lat="47.12996" lon="-2.04995">
        <ele>62</ele>
        <time>2021-07-25T08:27:31.000Z</time>
      </trkpt>
      <trkpt lat="47.13003" lon="-2.05009">
        <ele>62</ele>
        <time>2021-07-25T08:27:33.000Z</time>
      </trkpt>
      <trkpt lat="47.13009" lon="-2.05022">
        <ele>62</ele>
        <time>2021-07-25T08:27:35.000Z</time>
      </trkpt>
      <trkpt lat="47.13016" lon="-2.05036">
        <ele>62</ele>
        <time>2021-07-25T08:27:37.000Z</time>
      </trkpt>
      <trkpt lat="47.13023" lon="-2.05052">
        <ele>61</ele>
        <time>2021-07-25T08:27:39.000Z</time>
      </trkpt>
      <trkpt lat="47.13029" lon="-2.05069">
        <ele>61</ele>
        <time>2021-07-25T08:27:41.000Z</time>
      </trkpt>
      <trkpt lat="47.13033" lon="-2.05088">
        <ele>60</ele>
        <time>2021-07-25T08:27:43.000Z</time>
      </trkpt>
      <trkpt lat="47.13034" lon="-2.05109">
        <ele>60</ele>
        <time>2021-07-25T08:27:45.000Z</time>
      </trkpt>
      <trkpt lat="47.13035" lon="-2.05132">
        <ele>60</ele>
        <time>2021-07-25T08:27:47.000Z</time>
      </trkpt>
      <trkpt lat="47.13036" lon="-2.05154">
        <ele>59</ele>
        <time>2021-07-25T08:27:49.000Z</time>
      </trkpt>
      <trkpt lat="47.13036" lon="-2.05175">
        <ele>59</ele>
        <time>2021-07-25T08:27:51.000Z</time>
      </trkpt>
      <trkpt lat="47.13036" lon="-2.05198">
        <ele>59</ele>
        <time>2021-07-25T08:27:53.000Z</time>
      </trkpt>
      <trkpt lat="47.13036" lon="-2.0522">
        <ele>58</ele>
        <time>2021-07-25T08:27:55.000Z</time>
      </trkpt>
      <trkpt lat="47.13037" lon="-2.05243">
        <ele>58</ele>
        <time>2021-07-25T08:27:57.000Z</time>
      </trkpt>
      <trkpt lat="47.13037" lon="-2.05265">
        <ele>57</ele>
        <time>2021-07-25T08:27:59.000Z</time>
      </trkpt>
      <trkpt lat="47.13038" lon="-2.05287">
        <ele>57</ele>
        <time>2021-07-25T08:28:01.000Z</time>
      </trkpt>
      <trkpt lat="47.13038" lon="-2.05307">
        <ele>57</ele>
        <time>2021-07-25T08:28:03.000Z</time>
      </trkpt>
      <trkpt lat="47.13038" lon="-2.05327">
        <ele>58</ele>
        <time>2021-07-25T08:28:05.000Z</time>
      </trkpt>
      <trkpt lat="47.13039" lon="-2.05348">
        <ele>57</ele>
        <time>2021-07-25T08:28:07.000Z</time>
      </trkpt>
      <trkpt lat="47.1304" lon="-2.05369">
        <ele>57</ele>
        <time>2021-07-25T08:28:09.000Z</time>
      </trkpt>
      <trkpt lat="47.13041" lon="-2.05388">
        <ele>57</ele>
        <time>2021-07-25T08:28:11.000Z</time>
      </trkpt>
      <trkpt lat="47.13041" lon="-2.05408">
        <ele>56</ele>
        <time>2021-07-25T08:28:13.000Z</time>
      </trkpt>
      <trkpt lat="47.13041" lon="-2.05426">
        <ele>56</ele>
        <time>2021-07-25T08:28:15.000Z</time>
      </trkpt>
      <trkpt lat="47.13039" lon="-2.05446">
        <ele>57</ele>
        <time>2021-07-25T08:28:17.000Z</time>
      </trkpt>
      <trkpt lat="47.13038" lon="-2.05465">
        <ele>56</ele>
        <time>2021-07-25T08:28:19.000Z</time>
      </trkpt>
      <trkpt lat="47.13035" lon="-2.05483">
        <ele>56</ele>
        <time>2021-07-25T08:28:21.000Z</time>
      </trkpt>
      <trkpt lat="47.1303" lon="-2.05501">
        <ele>57</ele>
        <time>2021-07-25T08:28:23.000Z</time>
      </trkpt>
      <trkpt lat="47.13025" lon="-2.0552">
        <ele>58</ele>
        <time>2021-07-25T08:28:25.000Z</time>
      </trkpt>
      <trkpt lat="47.1302" lon="-2.05538">
        <ele>58</ele>
        <time>2021-07-25T08:28:27.000Z</time>
      </trkpt>
      <trkpt lat="47.13013" lon="-2.05555">
        <ele>58</ele>
        <time>2021-07-25T08:28:29.000Z</time>
      </trkpt>
      <trkpt lat="47.13007" lon="-2.05572">
        <ele>58</ele>
        <time>2021-07-25T08:28:31.000Z</time>
      </trkpt>
      <trkpt lat="47.13002" lon="-2.0559">
        <ele>58</ele>
        <time>2021-07-25T08:28:33.000Z</time>
      </trkpt>
      <trkpt lat="47.12997" lon="-2.05608">
        <ele>58</ele>
        <time>2021-07-25T08:28:35.000Z</time>
      </trkpt>
      <trkpt lat="47.12992" lon="-2.05626">
        <ele>59</ele>
        <time>2021-07-25T08:28:37.000Z</time>
      </trkpt>
      <trkpt lat="47.12987" lon="-2.05643">
        <ele>59</ele>
        <time>2021-07-25T08:28:39.000Z</time>
      </trkpt>
      <trkpt lat="47.12984" lon="-2.05661">
        <ele>58</ele>
        <time>2021-07-25T08:28:41.000Z</time>
      </trkpt>
      <trkpt lat="47.1298" lon="-2.05679">
        <ele>59</ele>
        <time>2021-07-25T08:28:43.000Z</time>
      </trkpt>
      <trkpt lat="47.12977" lon="-2.05696">
        <ele>59</ele>
        <time>2021-07-25T08:28:45.000Z</time>
      </trkpt>
      <trkpt lat="47.12975" lon="-2.05713">
        <ele>59</ele>
        <time>2021-07-25T08:28:47.000Z</time>
      </trkpt>
      <trkpt lat="47.12973" lon="-2.0573">
        <ele>59</ele>
        <time>2021-07-25T08:28:49.000Z</time>
      </trkpt>
      <trkpt lat="47.12971" lon="-2.05746">
        <ele>60</ele>
        <time>2021-07-25T08:28:51.000Z</time>
      </trkpt>
      <trkpt lat="47.1297" lon="-2.05764">
        <ele>61</ele>
        <time>2021-07-25T08:28:53.000Z</time>
      </trkpt>
      <trkpt lat="47.12968" lon="-2.05782">
        <ele>62</ele>
        <time>2021-07-25T08:28:55.000Z</time>
      </trkpt>
      <trkpt lat="47.12967" lon="-2.058">
        <ele>62</ele>
        <time>2021-07-25T08:28:57.000Z</time>
      </trkpt>
      <trkpt lat="47.12965" lon="-2.05818">
        <ele>63</ele>
        <time>2021-07-25T08:28:59.000Z</time>
      </trkpt>
      <trkpt lat="47.12964" lon="-2.05836">
        <ele>64</ele>
        <time>2021-07-25T08:29:01.000Z</time>
      </trkpt>
      <trkpt lat="47.12962" lon="-2.05854">
        <ele>65</ele>
        <time>2021-07-25T08:29:03.000Z</time>
      </trkpt>
      <trkpt lat="47.12959" lon="-2.05872">
        <ele>65</ele>
        <time>2021-07-25T08:29:05.000Z</time>
      </trkpt>
      <trkpt lat="47.12957" lon="-2.05888">
        <ele>65</ele>
        <time>2021-07-25T08:29:07.000Z</time>
      </trkpt>
      <trkpt lat="47.12954" lon="-2.05904">
        <ele>65</ele>
        <time>2021-07-25T08:29:09.000Z</time>
      </trkpt>
      <trkpt lat="47.12951" lon="-2.05919">
        <ele>65</ele>
        <time>2021-07-25T08:29:11.000Z</time>
      </trkpt>
      <trkpt lat="47.12948" lon="-2.05936">
        <ele>64</ele>
        <time>2021-07-25T08:29:13.000Z</time>
      </trkpt>
      <trkpt lat="47.12945" lon="-2.05953">
        <ele>64</ele>
        <time>2021-07-25T08:29:15.000Z</time>
      </trkpt>
      <trkpt lat="47.12942" lon="-2.0597">
        <ele>64</ele>
        <time>2021-07-25T08:29:17.000Z</time>
      </trkpt>
      <trkpt lat="47.12939" lon="-2.05988">
        <ele>63</ele>
        <time>2021-07-25T08:29:19.000Z</time>
      </trkpt>
      <trkpt lat="47.12935" lon="-2.06006">
        <ele>63</ele>
        <time>2021-07-25T08:29:21.000Z</time>
      </trkpt>
      <trkpt lat="47.12931" lon="-2.06024">
        <ele>62</ele>
        <time>2021-07-25T08:29:23.000Z</time>
      </trkpt>
      <trkpt lat="47.12927" lon="-2.06041">
        <ele>61</ele>
        <time>2021-07-25T08:29:25.000Z</time>
      </trkpt>
      <trkpt lat="47.12922" lon="-2.06059">
        <ele>61</ele>
        <time>2021-07-25T08:29:27.000Z</time>
      </trkpt>
      <trkpt lat="47.12916" lon="-2.06078">
        <ele>60</ele>
        <time>2021-07-25T08:29:29.000Z</time>
      </trkpt>
      <trkpt lat="47.12909" lon="-2.06095">
        <ele>59</ele>
        <time>2021-07-25T08:29:31.000Z</time>
      </trkpt>
      <trkpt lat="47.129" lon="-2.06112">
        <ele>59</ele>
        <time>2021-07-25T08:29:33.000Z</time>
      </trkpt>
      <trkpt lat="47.12889" lon="-2.06127">
        <ele>59</ele>
        <time>2021-07-25T08:29:35.000Z</time>
      </trkpt>
      <trkpt lat="47.12879" lon="-2.06142">
        <ele>58</ele>
        <time>2021-07-25T08:29:37.000Z</time>
      </trkpt>
      <trkpt lat="47.12867" lon="-2.06156">
        <ele>58</ele>
        <time>2021-07-25T08:29:39.000Z</time>
      </trkpt>
      <trkpt lat="47.12855" lon="-2.0617">
        <ele>57</ele>
        <time>2021-07-25T08:29:41.000Z</time>
      </trkpt>
      <trkpt lat="47.12843" lon="-2.06184">
        <ele>57</ele>
        <time>2021-07-25T08:29:43.000Z</time>
      </trkpt>
      <trkpt lat="47.12831" lon="-2.06197">
        <ele>57</ele>
        <time>2021-07-25T08:29:45.000Z</time>
      </trkpt>
      <trkpt lat="47.12818" lon="-2.06207">
        <ele>56</ele>
        <time>2021-07-25T08:29:47.000Z</time>
      </trkpt>
      <trkpt lat="47.12804" lon="-2.06218">
        <ele>56</ele>
        <time>2021-07-25T08:29:49.000Z</time>
      </trkpt>
      <trkpt lat="47.1279" lon="-2.0623">
        <ele>55</ele>
        <time>2021-07-25T08:29:51.000Z</time>
      </trkpt>
      <trkpt lat="47.12777" lon="-2.06242">
        <ele>56</ele>
        <time>2021-07-25T08:29:53.000Z</time>
      </trkpt>
      <trkpt lat="47.12766" lon="-2.06256">
        <ele>55</ele>
        <time>2021-07-25T08:29:55.000Z</time>
      </trkpt>
      <trkpt lat="47.12755" lon="-2.0627">
        <ele>55</ele>
        <time>2021-07-25T08:29:57.000Z</time>
      </trkpt>
      <trkpt lat="47.12747" lon="-2.06286">
        <ele>54</ele>
        <time>2021-07-25T08:29:59.000Z</time>
      </trkpt>
      <trkpt lat="47.12741" lon="-2.06303">
        <ele>54</ele>
        <time>2021-07-25T08:30:01.000Z</time>
      </trkpt>
      <trkpt lat="47.12736" lon="-2.06322">
        <ele>54</ele>
        <time>2021-07-25T08:30:03.000Z</time>
      </trkpt>
      <trkpt lat="47.12733" lon="-2.06339">
        <ele>54</ele>
        <time>2021-07-25T08:30:05.000Z</time>
      </trkpt>
      <trkpt lat="47.1273" lon="-2.06357">
        <ele>54</ele>
        <time>2021-07-25T08:30:07.000Z</time>
      </trkpt>
      <trkpt lat="47.12728" lon="-2.06375">
        <ele>54</ele>
        <time>2021-07-25T08:30:09.000Z</time>
      </trkpt>
      <trkpt lat="47.12725" lon="-2.06393">
        <ele>55</ele>
        <time>2021-07-25T08:30:11.000Z</time>
      </trkpt>
      <trkpt lat="47.12722" lon="-2.0641">
        <ele>56</ele>
        <time>2021-07-25T08:30:13.000Z</time>
      </trkpt>
      <trkpt lat="47.12719" lon="-2.06425">
        <ele>56</ele>
        <time>2021-07-25T08:30:15.000Z</time>
      </trkpt>
      <trkpt lat="47.12716" lon="-2.06442">
        <ele>57</ele>
        <time>2021-07-25T08:30:17.000Z</time>
      </trkpt>
      <trkpt lat="47.12711" lon="-2.06459">
        <ele>57</ele>
        <time>2021-07-25T08:30:19.000Z</time>
      </trkpt>
      <trkpt lat="47.12705" lon="-2.06475">
        <ele>57</ele>
        <time>2021-07-25T08:30:21.000Z</time>
      </trkpt>
      <trkpt lat="47.12698" lon="-2.0649">
        <ele>57</ele>
        <time>2021-07-25T08:30:23.000Z</time>
      </trkpt>
      <trkpt lat="47.12691" lon="-2.06505">
        <ele>57</ele>
        <time>2021-07-25T08:30:25.000Z</time>
      </trkpt>
      <trkpt lat="47.12685" lon="-2.0652">
        <ele>58</ele>
        <time>2021-07-25T08:30:27.000Z</time>
      </trkpt>
      <trkpt lat="47.12679" lon="-2.06536">
        <ele>59</ele>
        <time>2021-07-25T08:30:29.000Z</time>
      </trkpt>
      <trkpt lat="47.12675" lon="-2.06552">
        <ele>59</ele>
        <time>2021-07-25T08:30:31.000Z</time>
      </trkpt>
      <trkpt lat="47.12672" lon="-2.06568">
        <ele>59</ele>
        <time>2021-07-25T08:30:33.000Z</time>
      </trkpt>
      <trkpt lat="47.12669" lon="-2.06584">
        <ele>59</ele>
        <time>2021-07-25T08:30:35.000Z</time>
      </trkpt>
      <trkpt lat="47.12665" lon="-2.06601">
        <ele>59</ele>
        <time>2021-07-25T08:30:37.000Z</time>
      </trkpt>
      <trkpt lat="47.12661" lon="-2.06618">
        <ele>59</ele>
        <time>2021-07-25T08:30:39.000Z</time>
      </trkpt>
      <trkpt lat="47.12658" lon="-2.06635">
        <ele>59</ele>
        <time>2021-07-25T08:30:41.000Z</time>
      </trkpt>
      <trkpt lat="47.12654" lon="-2.06651">
        <ele>59</ele>
        <time>2021-07-25T08:30:43.000Z</time>
      </trkpt>
      <trkpt lat="47.12651" lon="-2.06667">
        <ele>60</ele>
        <time>2021-07-25T08:30:45.000Z</time>
      </trkpt>
      <trkpt lat="47.12648" lon="-2.06684">
        <ele>60</ele>
        <time>2021-07-25T08:30:47.000Z</time>
      </trkpt>
      <trkpt lat="47.12645" lon="-2.06702">
        <ele>59</ele>
        <time>2021-07-25T08:30:49.000Z</time>
      </trkpt>
      <trkpt lat="47.12642" lon="-2.0672">
        <ele>59</ele>
        <time>2021-07-25T08:30:51.000Z</time>
      </trkpt>
      <trkpt lat="47.1264" lon="-2.06737">
        <ele>59</ele>
        <time>2021-07-25T08:30:53.000Z</time>
      </trkpt>
      <trkpt lat="47.12637" lon="-2.06753">
        <ele>59</ele>
        <time>2021-07-25T08:30:55.000Z</time>
      </trkpt>
      <trkpt lat="47.12635" lon="-2.06767">
        <ele>60</ele>
        <time>2021-07-25T08:30:57.000Z</time>
      </trkpt>
      <trkpt lat="47.12632" lon="-2.0678">
        <ele>60</ele>
        <time>2021-07-25T08:30:59.000Z</time>
      </trkpt>
      <trkpt lat="47.1263" lon="-2.06795">
        <ele>61</ele>
        <time>2021-07-25T08:31:01.000Z</time>
      </trkpt>
      <trkpt lat="47.12628" lon="-2.06811">
        <ele>61</ele>
        <time>2021-07-25T08:31:03.000Z</time>
      </trkpt>
      <trkpt lat="47.12625" lon="-2.06826">
        <ele>61</ele>
        <time>2021-07-25T08:31:05.000Z</time>
      </trkpt>
      <trkpt lat="47.12622" lon="-2.06842">
        <ele>61</ele>
        <time>2021-07-25T08:31:07.000Z</time>
      </trkpt>
      <trkpt lat="47.12619" lon="-2.06859">
        <ele>61</ele>
        <time>2021-07-25T08:31:09.000Z</time>
      </trkpt>
      <trkpt lat="47.12616" lon="-2.06876">
        <ele>61</ele>
        <time>2021-07-25T08:31:11.000Z</time>
      </trkpt>
      <trkpt lat="47.12614" lon="-2.06892">
        <ele>61</ele>
        <time>2021-07-25T08:31:13.000Z</time>
      </trkpt>
      <trkpt lat="47.12611" lon="-2.06908">
        <ele>62</ele>
        <time>2021-07-25T08:31:15.000Z</time>
      </trkpt>
      <trkpt lat="47.12608" lon="-2.06923">
        <ele>63</ele>
        <time>2021-07-25T08:31:17.000Z</time>
      </trkpt>
      <trkpt lat="47.12605" lon="-2.06938">
        <ele>63</ele>
        <time>2021-07-25T08:31:19.000Z</time>
      </trkpt>
      <trkpt lat="47.12602" lon="-2.06953">
        <ele>63</ele>
        <time>2021-07-25T08:31:21.000Z</time>
      </trkpt>
      <trkpt lat="47.12599" lon="-2.06968">
        <ele>64</ele>
        <time>2021-07-25T08:31:23.000Z</time>
      </trkpt>
      <trkpt lat="47.12598" lon="-2.06984">
        <ele>64</ele>
        <time>2021-07-25T08:31:25.000Z</time>
      </trkpt>
      <trkpt lat="47.12595" lon="-2.06999">
        <ele>64</ele>
        <time>2021-07-25T08:31:27.000Z</time>
      </trkpt>
      <trkpt lat="47.12593" lon="-2.07014">
        <ele>65</ele>
        <time>2021-07-25T08:31:29.000Z</time>
      </trkpt>
      <trkpt lat="47.1259" lon="-2.0703">
        <ele>65</ele>
        <time>2021-07-25T08:31:31.000Z</time>
      </trkpt>
      <trkpt lat="47.12589" lon="-2.07045">
        <ele>65</ele>
        <time>2021-07-25T08:31:33.000Z</time>
      </trkpt>
      <trkpt lat="47.12587" lon="-2.0706">
        <ele>65</ele>
        <time>2021-07-25T08:31:35.000Z</time>
      </trkpt>
      <trkpt lat="47.12587" lon="-2.07076">
        <ele>65</ele>
        <time>2021-07-25T08:31:37.000Z</time>
      </trkpt>
      <trkpt lat="47.12588" lon="-2.0709">
        <ele>65</ele>
        <time>2021-07-25T08:31:39.000Z</time>
      </trkpt>
      <trkpt lat="47.12589" lon="-2.07106">
        <ele>65</ele>
        <time>2021-07-25T08:31:41.000Z</time>
      </trkpt>
      <trkpt lat="47.12591" lon="-2.07121">
        <ele>66</ele>
        <time>2021-07-25T08:31:43.000Z</time>
      </trkpt>
      <trkpt lat="47.12594" lon="-2.07137">
        <ele>65</ele>
        <time>2021-07-25T08:31:45.000Z</time>
      </trkpt>
      <trkpt lat="47.12596" lon="-2.07153">
        <ele>66</ele>
        <time>2021-07-25T08:31:47.000Z</time>
      </trkpt>
      <trkpt lat="47.126" lon="-2.07168">
        <ele>66</ele>
        <time>2021-07-25T08:31:49.000Z</time>
      </trkpt>
      <trkpt lat="47.12602" lon="-2.07183">
        <ele>66</ele>
        <time>2021-07-25T08:31:51.000Z</time>
      </trkpt>
      <trkpt lat="47.12605" lon="-2.07199">
        <ele>66</ele>
        <time>2021-07-25T08:31:53.000Z</time>
      </trkpt>
      <trkpt lat="47.12608" lon="-2.07215">
        <ele>66</ele>
        <time>2021-07-25T08:31:55.000Z</time>
      </trkpt>
      <trkpt lat="47.12612" lon="-2.0723">
        <ele>67</ele>
        <time>2021-07-25T08:31:57.000Z</time>
      </trkpt>
      <trkpt lat="47.12614" lon="-2.07246">
        <ele>67</ele>
        <time>2021-07-25T08:31:59.000Z</time>
      </trkpt>
      <trkpt lat="47.12617" lon="-2.07262">
        <ele>67</ele>
        <time>2021-07-25T08:32:01.000Z</time>
      </trkpt>
      <trkpt lat="47.12621" lon="-2.07277">
        <ele>67</ele>
        <time>2021-07-25T08:32:03.000Z</time>
      </trkpt>
      <trkpt lat="47.12624" lon="-2.07293">
        <ele>67</ele>
        <time>2021-07-25T08:32:05.000Z</time>
      </trkpt>
      <trkpt lat="47.12626" lon="-2.07309">
        <ele>67</ele>
        <time>2021-07-25T08:32:07.000Z</time>
      </trkpt>
      <trkpt lat="47.12629" lon="-2.07324">
        <ele>67</ele>
        <time>2021-07-25T08:32:09.000Z</time>
      </trkpt>
      <trkpt lat="47.1263" lon="-2.07339">
        <ele>68</ele>
        <time>2021-07-25T08:32:11.000Z</time>
      </trkpt>
      <trkpt lat="47.12631" lon="-2.07354">
        <ele>68</ele>
        <time>2021-07-25T08:32:13.000Z</time>
      </trkpt>
      <trkpt lat="47.12632" lon="-2.07371">
        <ele>68</ele>
        <time>2021-07-25T08:32:15.000Z</time>
      </trkpt>
      <trkpt lat="47.12632" lon="-2.07387">
        <ele>68</ele>
        <time>2021-07-25T08:32:17.000Z</time>
      </trkpt>
      <trkpt lat="47.12632" lon="-2.07404">
        <ele>67</ele>
        <time>2021-07-25T08:32:19.000Z</time>
      </trkpt>
      <trkpt lat="47.12631" lon="-2.0742">
        <ele>67</ele>
        <time>2021-07-25T08:32:21.000Z</time>
      </trkpt>
      <trkpt lat="47.1263" lon="-2.07437">
        <ele>67</ele>
        <time>2021-07-25T08:32:23.000Z</time>
      </trkpt>
      <trkpt lat="47.12629" lon="-2.07454">
        <ele>67</ele>
        <time>2021-07-25T08:32:25.000Z</time>
      </trkpt>
      <trkpt lat="47.12628" lon="-2.07471">
        <ele>67</ele>
        <time>2021-07-25T08:32:27.000Z</time>
      </trkpt>
      <trkpt lat="47.12627" lon="-2.07487">
        <ele>66</ele>
        <time>2021-07-25T08:32:29.000Z</time>
      </trkpt>
      <trkpt lat="47.12627" lon="-2.07505">
        <ele>66</ele>
        <time>2021-07-25T08:32:31.000Z</time>
      </trkpt>
      <trkpt lat="47.12626" lon="-2.07522">
        <ele>66</ele>
        <time>2021-07-25T08:32:33.000Z</time>
      </trkpt>
      <trkpt lat="47.12625" lon="-2.07538">
        <ele>66</ele>
        <time>2021-07-25T08:32:35.000Z</time>
      </trkpt>
      <trkpt lat="47.12624" lon="-2.07555">
        <ele>66</ele>
        <time>2021-07-25T08:32:37.000Z</time>
      </trkpt>
      <trkpt lat="47.12622" lon="-2.07572">
        <ele>65</ele>
        <time>2021-07-25T08:32:39.000Z</time>
      </trkpt>
      <trkpt lat="47.1262" lon="-2.07589">
        <ele>64</ele>
        <time>2021-07-25T08:32:41.000Z</time>
      </trkpt>
      <trkpt lat="47.12618" lon="-2.07606">
        <ele>64</ele>
        <time>2021-07-25T08:32:43.000Z</time>
      </trkpt>
      <trkpt lat="47.12615" lon="-2.07624">
        <ele>64</ele>
        <time>2021-07-25T08:32:45.000Z</time>
      </trkpt>
      <trkpt lat="47.12611" lon="-2.07642">
        <ele>64</ele>
        <time>2021-07-25T08:32:47.000Z</time>
      </trkpt>
      <trkpt lat="47.12608" lon="-2.07662">
        <ele>63</ele>
        <time>2021-07-25T08:32:49.000Z</time>
      </trkpt>
      <trkpt lat="47.12604" lon="-2.07682">
        <ele>62</ele>
        <time>2021-07-25T08:32:51.000Z</time>
      </trkpt>
      <trkpt lat="47.12601" lon="-2.07704">
        <ele>61</ele>
        <time>2021-07-25T08:32:53.000Z</time>
      </trkpt>
      <trkpt lat="47.12596" lon="-2.07727">
        <ele>59</ele>
        <time>2021-07-25T08:32:55.000Z</time>
      </trkpt>
      <trkpt lat="47.12592" lon="-2.0775">
        <ele>59</ele>
        <time>2021-07-25T08:32:57.000Z</time>
      </trkpt>
      <trkpt lat="47.12588" lon="-2.07773">
        <ele>59</ele>
        <time>2021-07-25T08:32:59.000Z</time>
      </trkpt>
      <trkpt lat="47.12584" lon="-2.07794">
        <ele>59</ele>
        <time>2021-07-25T08:33:01.000Z</time>
      </trkpt>
      <trkpt lat="47.1258" lon="-2.07813">
        <ele>60</ele>
        <time>2021-07-25T08:33:03.000Z</time>
      </trkpt>
      <trkpt lat="47.12577" lon="-2.0783">
        <ele>60</ele>
        <time>2021-07-25T08:33:05.000Z</time>
      </trkpt>
      <trkpt lat="47.12574" lon="-2.07846">
        <ele>60</ele>
        <time>2021-07-25T08:33:07.000Z</time>
      </trkpt>
      <trkpt lat="47.12571" lon="-2.07862">
        <ele>61</ele>
        <time>2021-07-25T08:33:09.000Z</time>
      </trkpt>
      <trkpt lat="47.12568" lon="-2.07879">
        <ele>61</ele>
        <time>2021-07-25T08:33:11.000Z</time>
      </trkpt>
      <trkpt lat="47.12565" lon="-2.07895">
        <ele>62</ele>
        <time>2021-07-25T08:33:13.000Z</time>
      </trkpt>
      <trkpt lat="47.12563" lon="-2.07911">
        <ele>63</ele>
        <time>2021-07-25T08:33:15.000Z</time>
      </trkpt>
      <trkpt lat="47.1256" lon="-2.07928">
        <ele>64</ele>
        <time>2021-07-25T08:33:17.000Z</time>
      </trkpt>
      <trkpt lat="47.12557" lon="-2.07943">
        <ele>64</ele>
        <time>2021-07-25T08:33:19.000Z</time>
      </trkpt>
      <trkpt lat="47.12554" lon="-2.07961">
        <ele>65</ele>
        <time>2021-07-25T08:33:21.000Z</time>
      </trkpt>
      <trkpt lat="47.1255" lon="-2.07977">
        <ele>64</ele>
        <time>2021-07-25T08:33:23.000Z</time>
      </trkpt>
      <trkpt lat="47.12547" lon="-2.07994">
        <ele>65</ele>
        <time>2021-07-25T08:33:25.000Z</time>
      </trkpt>
      <trkpt lat="47.12543" lon="-2.08012">
        <ele>65</ele>
        <time>2021-07-25T08:33:27.000Z</time>
      </trkpt>
      <trkpt lat="47.12539" lon="-2.08027">
        <ele>66</ele>
        <time>2021-07-25T08:33:29.000Z</time>
      </trkpt>
      <trkpt lat="47.12533" lon="-2.08041">
        <ele>67</ele>
        <time>2021-07-25T08:33:31.000Z</time>
      </trkpt>
      <trkpt lat="47.12528" lon="-2.08055">
        <ele>67</ele>
        <time>2021-07-25T08:33:33.000Z</time>
      </trkpt>
      <trkpt lat="47.12523" lon="-2.08069">
        <ele>67</ele>
        <time>2021-07-25T08:33:35.000Z</time>
      </trkpt>
      <trkpt lat="47.12519" lon="-2.08083">
        <ele>68</ele>
        <time>2021-07-25T08:33:37.000Z</time>
      </trkpt>
      <trkpt lat="47.12514" lon="-2.08097">
        <ele>68</ele>
        <time>2021-07-25T08:33:39.000Z</time>
      </trkpt>
      <trkpt lat="47.12509" lon="-2.0811">
        <ele>69</ele>
        <time>2021-07-25T08:33:41.000Z</time>
      </trkpt>
      <trkpt lat="47.12503" lon="-2.08124">
        <ele>69</ele>
        <time>2021-07-25T08:33:43.000Z</time>
      </trkpt>
      <trkpt lat="47.12498" lon="-2.08138">
        <ele>70</ele>
        <time>2021-07-25T08:33:45.000Z</time>
      </trkpt>
      <trkpt lat="47.12492" lon="-2.08153">
        <ele>71</ele>
        <time>2021-07-25T08:33:47.000Z</time>
      </trkpt>
      <trkpt lat="47.12486" lon="-2.08165">
        <ele>71</ele>
        <time>2021-07-25T08:33:49.000Z</time>
      </trkpt>
      <trkpt lat="47.12479" lon="-2.08177">
        <ele>72</ele>
        <time>2021-07-25T08:33:51.000Z</time>
      </trkpt>
      <trkpt lat="47.12472" lon="-2.08189">
        <ele>71</ele>
        <time>2021-07-25T08:33:53.000Z</time>
      </trkpt>
      <trkpt lat="47.12465" lon="-2.08202">
        <ele>71</ele>
        <time>2021-07-25T08:33:55.000Z</time>
      </trkpt>
      <trkpt lat="47.12456" lon="-2.08213">
        <ele>71</ele>
        <time>2021-07-25T08:33:57.000Z</time>
      </trkpt>
      <trkpt lat="47.12448" lon="-2.08223">
        <ele>72</ele>
        <time>2021-07-25T08:33:59.000Z</time>
      </trkpt>
      <trkpt lat="47.12438" lon="-2.08231">
        <ele>72</ele>
        <time>2021-07-25T08:34:01.000Z</time>
      </trkpt>
      <trkpt lat="47.12429" lon="-2.0824">
        <ele>72</ele>
        <time>2021-07-25T08:34:03.000Z</time>
      </trkpt>
      <trkpt lat="47.12419" lon="-2.08247">
        <ele>73</ele>
        <time>2021-07-25T08:34:05.000Z</time>
      </trkpt>
      <trkpt lat="47.12409" lon="-2.08253">
        <ele>73</ele>
        <time>2021-07-25T08:34:07.000Z</time>
      </trkpt>
      <trkpt lat="47.12398" lon="-2.0826">
        <ele>73</ele>
        <time>2021-07-25T08:34:09.000Z</time>
      </trkpt>
      <trkpt lat="47.12388" lon="-2.08267">
        <ele>73</ele>
        <time>2021-07-25T08:34:11.000Z</time>
      </trkpt>
      <trkpt lat="47.12377" lon="-2.08274">
        <ele>72</ele>
        <time>2021-07-25T08:34:13.000Z</time>
      </trkpt>
      <trkpt lat="47.12366" lon="-2.08281">
        <ele>72</ele>
        <time>2021-07-25T08:34:15.000Z</time>
      </trkpt>
      <trkpt lat="47.12356" lon="-2.08287">
        <ele>72</ele>
        <time>2021-07-25T08:34:17.000Z</time>
      </trkpt>
      <trkpt lat="47.12345" lon="-2.08293">
        <ele>72</ele>
        <time>2021-07-25T08:34:19.000Z</time>
      </trkpt>
      <trkpt lat="47.12335" lon="-2.08299">
        <ele>72</ele>
        <time>2021-07-25T08:34:21.000Z</time>
      </trkpt>
      <trkpt lat="47.12324" lon="-2.08306">
        <ele>72</ele>
        <time>2021-07-25T08:34:23.000Z</time>
      </trkpt>
      <trkpt lat="47.12314" lon="-2.08313">
        <ele>73</ele>
        <time>2021-07-25T08:34:25.000Z</time>
      </trkpt>
      <trkpt lat="47.12304" lon="-2.0832">
        <ele>73</ele>
        <time>2021-07-25T08:34:27.000Z</time>
      </trkpt>
      <trkpt lat="47.12294" lon="-2.08327">
        <ele>73</ele>
        <time>2021-07-25T08:34:29.000Z</time>
      </trkpt>
      <trkpt lat="47.12284" lon="-2.08334">
        <ele>73</ele>
        <time>2021-07-25T08:34:31.000Z</time>
      </trkpt>
      <trkpt lat="47.12274" lon="-2.08341">
        <ele>74</ele>
        <time>2021-07-25T08:34:33.000Z</time>
      </trkpt>
      <trkpt lat="47.12265" lon="-2.08349">
        <ele>73</ele>
        <time>2021-07-25T08:34:35.000Z</time>
      </trkpt>
      <trkpt lat="47.12255" lon="-2.08356">
        <ele>73</ele>
        <time>2021-07-25T08:34:37.000Z</time>
      </trkpt>
      <trkpt lat="47.12246" lon="-2.08364">
        <ele>73</ele>
        <time>2021-07-25T08:34:39.000Z</time>
      </trkpt>
      <trkpt lat="47.12236" lon="-2.08373">
        <ele>73</ele>
        <time>2021-07-25T08:34:41.000Z</time>
      </trkpt>
      <trkpt lat="47.12227" lon="-2.08382">
        <ele>73</ele>
        <time>2021-07-25T08:34:43.000Z</time>
      </trkpt>
      <trkpt lat="47.12218" lon="-2.08392">
        <ele>73</ele>
        <time>2021-07-25T08:34:45.000Z</time>
      </trkpt>
      <trkpt lat="47.1221" lon="-2.08404">
        <ele>72</ele>
        <time>2021-07-25T08:34:47.000Z</time>
      </trkpt>
      <trkpt lat="47.12206" lon="-2.08418">
        <ele>73</ele>
        <time>2021-07-25T08:34:49.000Z</time>
      </trkpt>
      <trkpt lat="47.12202" lon="-2.08433">
        <ele>73</ele>
        <time>2021-07-25T08:34:51.000Z</time>
      </trkpt>
      <trkpt lat="47.12199" lon="-2.08449">
        <ele>73</ele>
        <time>2021-07-25T08:34:53.000Z</time>
      </trkpt>
      <trkpt lat="47.12195" lon="-2.08464">
        <ele>73</ele>
        <time>2021-07-25T08:34:55.000Z</time>
      </trkpt>
      <trkpt lat="47.12188" lon="-2.08475">
        <ele>74</ele>
        <time>2021-07-25T08:34:57.000Z</time>
      </trkpt>
      <trkpt lat="47.1218" lon="-2.08487">
        <ele>75</ele>
        <time>2021-07-25T08:34:59.000Z</time>
      </trkpt>
      <trkpt lat="47.12172" lon="-2.08498">
        <ele>75</ele>
        <time>2021-07-25T08:35:01.000Z</time>
      </trkpt>
      <trkpt lat="47.12163" lon="-2.08506">
        <ele>75</ele>
        <time>2021-07-25T08:35:03.000Z</time>
      </trkpt>
      <trkpt lat="47.12152" lon="-2.08511">
        <ele>74</ele>
        <time>2021-07-25T08:35:05.000Z</time>
      </trkpt>
      <trkpt lat="47.12142" lon="-2.0852">
        <ele>74</ele>
        <time>2021-07-25T08:35:07.000Z</time>
      </trkpt>
      <trkpt lat="47.12135" lon="-2.08532">
        <ele>74</ele>
        <time>2021-07-25T08:35:09.000Z</time>
      </trkpt>
      <trkpt lat="47.12128" lon="-2.08545">
        <ele>74</ele>
        <time>2021-07-25T08:35:11.000Z</time>
      </trkpt>
      <trkpt lat="47.12121" lon="-2.08559">
        <ele>74</ele>
        <time>2021-07-25T08:35:13.000Z</time>
      </trkpt>
      <trkpt lat="47.12114" lon="-2.08573">
        <ele>74</ele>
        <time>2021-07-25T08:35:15.000Z</time>
      </trkpt>
      <trkpt lat="47.12107" lon="-2.08586">
        <ele>74</ele>
        <time>2021-07-25T08:35:17.000Z</time>
      </trkpt>
      <trkpt lat="47.121" lon="-2.08599">
        <ele>74</ele>
        <time>2021-07-25T08:35:19.000Z</time>
      </trkpt>
      <trkpt lat="47.12094" lon="-2.08613">
        <ele>74</ele>
        <time>2021-07-25T08:35:21.000Z</time>
      </trkpt>
      <trkpt lat="47.12088" lon="-2.08627">
        <ele>75</ele>
        <time>2021-07-25T08:35:23.000Z</time>
      </trkpt>
      <trkpt lat="47.12084" lon="-2.08642">
        <ele>75</ele>
        <time>2021-07-25T08:35:25.000Z</time>
      </trkpt>
      <trkpt lat="47.12078" lon="-2.08657">
        <ele>75</ele>
        <time>2021-07-25T08:35:27.000Z</time>
      </trkpt>
      <trkpt lat="47.12073" lon="-2.08671">
        <ele>76</ele>
        <time>2021-07-25T08:35:29.000Z</time>
      </trkpt>
      <trkpt lat="47.1207" lon="-2.08686">
        <ele>76</ele>
        <time>2021-07-25T08:35:31.000Z</time>
      </trkpt>
      <trkpt lat="47.12067" lon="-2.08702">
        <ele>76</ele>
        <time>2021-07-25T08:35:33.000Z</time>
      </trkpt>
      <trkpt lat="47.12066" lon="-2.0872">
        <ele>75</ele>
        <time>2021-07-25T08:35:35.000Z</time>
      </trkpt>
      <trkpt lat="47.12065" lon="-2.08737">
        <ele>74</ele>
        <time>2021-07-25T08:35:37.000Z</time>
      </trkpt>
      <trkpt lat="47.12065" lon="-2.08757">
        <ele>74</ele>
        <time>2021-07-25T08:35:39.000Z</time>
      </trkpt>
      <trkpt lat="47.12063" lon="-2.08779">
        <ele>73</ele>
        <time>2021-07-25T08:35:41.000Z</time>
      </trkpt>
      <trkpt lat="47.12059" lon="-2.08802">
        <ele>73</ele>
        <time>2021-07-25T08:35:43.000Z</time>
      </trkpt>
      <trkpt lat="47.12055" lon="-2.08815">
        <ele>72</ele>
        <time>2021-07-25T08:35:44.000Z</time>
      </trkpt>
      <trkpt lat="47.12051" lon="-2.08828">
        <ele>71</ele>
        <time>2021-07-25T08:35:45.000Z</time>
      </trkpt>
      <trkpt lat="47.12046" lon="-2.0884">
        <ele>70</ele>
        <time>2021-07-25T08:35:46.000Z</time>
      </trkpt>
      <trkpt lat="47.12042" lon="-2.08854">
        <ele>69</ele>
        <time>2021-07-25T08:35:47.000Z</time>
      </trkpt>
      <trkpt lat="47.12037" lon="-2.08867">
        <ele>68</ele>
        <time>2021-07-25T08:35:48.000Z</time>
      </trkpt>
      <trkpt lat="47.12031" lon="-2.0888">
        <ele>68</ele>
        <time>2021-07-25T08:35:49.000Z</time>
      </trkpt>
      <trkpt lat="47.12025" lon="-2.08892">
        <ele>66</ele>
        <time>2021-07-25T08:35:50.000Z</time>
      </trkpt>
      <trkpt lat="47.12019" lon="-2.08905">
        <ele>65</ele>
        <time>2021-07-25T08:35:51.000Z</time>
      </trkpt>
      <trkpt lat="47.12012" lon="-2.08918">
        <ele>64</ele>
        <time>2021-07-25T08:35:52.000Z</time>
      </trkpt>
      <trkpt lat="47.12004" lon="-2.0893">
        <ele>63</ele>
        <time>2021-07-25T08:35:53.000Z</time>
      </trkpt>
      <trkpt lat="47.11996" lon="-2.0894">
        <ele>62</ele>
        <time>2021-07-25T08:35:54.000Z</time>
      </trkpt>
      <trkpt lat="47.11987" lon="-2.08951">
        <ele>61</ele>
        <time>2021-07-25T08:35:55.000Z</time>
      </trkpt>
      <trkpt lat="47.11979" lon="-2.08962">
        <ele>60</ele>
        <time>2021-07-25T08:35:56.000Z</time>
      </trkpt>
      <trkpt lat="47.11971" lon="-2.08974">
        <ele>58</ele>
        <time>2021-07-25T08:35:57.000Z</time>
      </trkpt>
      <trkpt lat="47.11964" lon="-2.08987">
        <ele>57</ele>
        <time>2021-07-25T08:35:58.000Z</time>
      </trkpt>
      <trkpt lat="47.11958" lon="-2.09001">
        <ele>57</ele>
        <time>2021-07-25T08:35:59.000Z</time>
      </trkpt>
      <trkpt lat="47.11952" lon="-2.09014">
        <ele>56</ele>
        <time>2021-07-25T08:36:00.000Z</time>
      </trkpt>
      <trkpt lat="47.11947" lon="-2.09026">
        <ele>56</ele>
        <time>2021-07-25T08:36:01.000Z</time>
      </trkpt>
      <trkpt lat="47.11941" lon="-2.09042">
        <ele>56</ele>
        <time>2021-07-25T08:36:03.000Z</time>
      </trkpt>
      <trkpt lat="47.1193" lon="-2.09047">
        <ele>56</ele>
        <time>2021-07-25T08:36:06.000Z</time>
      </trkpt>
      <trkpt lat="47.11928" lon="-2.09063">
        <ele>56</ele>
        <time>2021-07-25T08:36:09.000Z</time>
      </trkpt>
      <trkpt lat="47.11923" lon="-2.09082">
        <ele>56</ele>
        <time>2021-07-25T08:36:12.000Z</time>
      </trkpt>
      <trkpt lat="47.11919" lon="-2.09096">
        <ele>56</ele>
        <time>2021-07-25T08:36:14.000Z</time>
      </trkpt>
      <trkpt lat="47.11914" lon="-2.09152">
        <ele>58</ele>
        <time>2021-07-25T08:36:21.000Z</time>
      </trkpt>
      <trkpt lat="47.11905" lon="-2.09159">
        <ele>64</ele>
        <time>2021-07-25T08:36:24.000Z</time>
      </trkpt>
      <trkpt lat="47.11905" lon="-2.09176">
        <ele>66</ele>
        <time>2021-07-25T08:36:27.000Z</time>
      </trkpt>
      <trkpt lat="47.11903" lon="-2.09189">
        <ele>69</ele>
        <time>2021-07-25T08:36:30.000Z</time>
      </trkpt>
      <trkpt lat="47.11905" lon="-2.09202">
        <ele>73</ele>
        <time>2021-07-25T08:36:34.000Z</time>
      </trkpt>
      <trkpt lat="47.11905" lon="-2.0922">
        <ele>69</ele>
        <time>2021-07-25T08:36:37.000Z</time>
      </trkpt>
      <trkpt lat="47.11902" lon="-2.09234">
        <ele>69</ele>
        <time>2021-07-25T08:36:39.000Z</time>
      </trkpt>
      <trkpt lat="47.11898" lon="-2.09247">
        <ele>69</ele>
        <time>2021-07-25T08:36:41.000Z</time>
      </trkpt>
      <trkpt lat="47.11897" lon="-2.09261">
        <ele>70</ele>
        <time>2021-07-25T08:36:43.000Z</time>
      </trkpt>
      <trkpt lat="47.11894" lon="-2.09274">
        <ele>70</ele>
        <time>2021-07-25T08:36:45.000Z</time>
      </trkpt>
      <trkpt lat="47.11891" lon="-2.09292">
        <ele>72</ele>
        <time>2021-07-25T08:36:48.000Z</time>
      </trkpt>
      <trkpt lat="47.11888" lon="-2.09309">
        <ele>70</ele>
        <time>2021-07-25T08:36:51.000Z</time>
      </trkpt>
      <trkpt lat="47.11884" lon="-2.09327">
        <ele>70</ele>
        <time>2021-07-25T08:36:54.000Z</time>
      </trkpt>
      <trkpt lat="47.11874" lon="-2.09336">
        <ele>69</ele>
        <time>2021-07-25T08:36:57.000Z</time>
      </trkpt>
      <trkpt lat="47.11865" lon="-2.09333">
        <ele>68</ele>
        <time>2021-07-25T08:36:59.000Z</time>
      </trkpt>
      <trkpt lat="47.11855" lon="-2.09327">
        <ele>68</ele>
        <time>2021-07-25T08:37:01.000Z</time>
      </trkpt>
      <trkpt lat="47.11844" lon="-2.09319">
        <ele>67</ele>
        <time>2021-07-25T08:37:03.000Z</time>
      </trkpt>
      <trkpt lat="47.11833" lon="-2.09312">
        <ele>66</ele>
        <time>2021-07-25T08:37:05.000Z</time>
      </trkpt>
      <trkpt lat="47.11821" lon="-2.09305">
        <ele>65</ele>
        <time>2021-07-25T08:37:07.000Z</time>
      </trkpt>
      <trkpt lat="47.11808" lon="-2.09297">
        <ele>64</ele>
        <time>2021-07-25T08:37:09.000Z</time>
      </trkpt>
      <trkpt lat="47.11797" lon="-2.09289">
        <ele>64</ele>
        <time>2021-07-25T08:37:11.000Z</time>
      </trkpt>
      <trkpt lat="47.11784" lon="-2.09282">
        <ele>64</ele>
        <time>2021-07-25T08:37:13.000Z</time>
      </trkpt>
      <trkpt lat="47.11771" lon="-2.09274">
        <ele>63</ele>
        <time>2021-07-25T08:37:15.000Z</time>
      </trkpt>
      <trkpt lat="47.11758" lon="-2.09268">
        <ele>63</ele>
        <time>2021-07-25T08:37:17.000Z</time>
      </trkpt>
      <trkpt lat="47.11745" lon="-2.09262">
        <ele>62</ele>
        <time>2021-07-25T08:37:19.000Z</time>
      </trkpt>
      <trkpt lat="47.11731" lon="-2.09257">
        <ele>62</ele>
        <time>2021-07-25T08:37:21.000Z</time>
      </trkpt>
      <trkpt lat="47.11717" lon="-2.09254">
        <ele>60</ele>
        <time>2021-07-25T08:37:23.000Z</time>
      </trkpt>
      <trkpt lat="47.11702" lon="-2.09251">
        <ele>60</ele>
        <time>2021-07-25T08:37:25.000Z</time>
      </trkpt>
      <trkpt lat="47.11687" lon="-2.09248">
        <ele>59</ele>
        <time>2021-07-25T08:37:27.000Z</time>
      </trkpt>
      <trkpt lat="47.11673" lon="-2.09246">
        <ele>58</ele>
        <time>2021-07-25T08:37:29.000Z</time>
      </trkpt>
      <trkpt lat="47.11662" lon="-2.09248">
        <ele>57</ele>
        <time>2021-07-25T08:37:31.000Z</time>
      </trkpt>
      <trkpt lat="47.11652" lon="-2.09252">
        <ele>56</ele>
        <time>2021-07-25T08:37:33.000Z</time>
      </trkpt>
      <trkpt lat="47.11642" lon="-2.09252">
        <ele>56</ele>
        <time>2021-07-25T08:37:35.000Z</time>
      </trkpt>
      <trkpt lat="47.11631" lon="-2.09256">
        <ele>56</ele>
        <time>2021-07-25T08:37:37.000Z</time>
      </trkpt>
      <trkpt lat="47.1162" lon="-2.09263">
        <ele>56</ele>
        <time>2021-07-25T08:37:39.000Z</time>
      </trkpt>
      <trkpt lat="47.1161" lon="-2.09269">
        <ele>56</ele>
        <time>2021-07-25T08:37:41.000Z</time>
      </trkpt>
      <trkpt lat="47.11599" lon="-2.09276">
        <ele>55</ele>
        <time>2021-07-25T08:37:43.000Z</time>
      </trkpt>
      <trkpt lat="47.11589" lon="-2.09282">
        <ele>55</ele>
        <time>2021-07-25T08:37:45.000Z</time>
      </trkpt>
      <trkpt lat="47.1158" lon="-2.09288">
        <ele>55</ele>
        <time>2021-07-25T08:37:47.000Z</time>
      </trkpt>
      <trkpt lat="47.11567" lon="-2.09294">
        <ele>55</ele>
        <time>2021-07-25T08:37:50.000Z</time>
      </trkpt>
      <trkpt lat="47.11559" lon="-2.09302">
        <ele>54</ele>
        <time>2021-07-25T08:37:52.000Z</time>
      </trkpt>
      <trkpt lat="47.1155" lon="-2.09311">
        <ele>54</ele>
        <time>2021-07-25T08:37:54.000Z</time>
      </trkpt>
      <trkpt lat="47.11541" lon="-2.09319">
        <ele>54</ele>
        <time>2021-07-25T08:37:56.000Z</time>
      </trkpt>
      <trkpt lat="47.11534" lon="-2.09327">
        <ele>55</ele>
        <time>2021-07-25T08:37:58.000Z</time>
      </trkpt>
      <trkpt lat="47.11526" lon="-2.09334">
        <ele>55</ele>
        <time>2021-07-25T08:38:00.000Z</time>
      </trkpt>
      <trkpt lat="47.11517" lon="-2.09341">
        <ele>55</ele>
        <time>2021-07-25T08:38:02.000Z</time>
      </trkpt>
      <trkpt lat="47.11508" lon="-2.09349">
        <ele>54</ele>
        <time>2021-07-25T08:38:04.000Z</time>
      </trkpt>
      <trkpt lat="47.11504" lon="-2.09361">
        <ele>54</ele>
        <time>2021-07-25T08:38:06.000Z</time>
      </trkpt>
      <trkpt lat="47.11502" lon="-2.09383">
        <ele>55</ele>
        <time>2021-07-25T08:38:09.000Z</time>
      </trkpt>
      <trkpt lat="47.11496" lon="-2.09395">
        <ele>55</ele>
        <time>2021-07-25T08:38:11.000Z</time>
      </trkpt>
      <trkpt lat="47.1149" lon="-2.09406">
        <ele>55</ele>
        <time>2021-07-25T08:38:13.000Z</time>
      </trkpt>
      <trkpt lat="47.11485" lon="-2.0942">
        <ele>55</ele>
        <time>2021-07-25T08:38:15.000Z</time>
      </trkpt>
      <trkpt lat="47.11485" lon="-2.09434">
        <ele>55</ele>
        <time>2021-07-25T08:38:17.000Z</time>
      </trkpt>
      <trkpt lat="47.11489" lon="-2.09452">
        <ele>55</ele>
        <time>2021-07-25T08:38:20.000Z</time>
      </trkpt>
      <trkpt lat="47.1149" lon="-2.09471">
        <ele>55</ele>
        <time>2021-07-25T08:38:23.000Z</time>
      </trkpt>
      <trkpt lat="47.11489" lon="-2.09486">
        <ele>56</ele>
        <time>2021-07-25T08:38:25.000Z</time>
      </trkpt>
      <trkpt lat="47.11489" lon="-2.09501">
        <ele>56</ele>
        <time>2021-07-25T08:38:27.000Z</time>
      </trkpt>
      <trkpt lat="47.11488" lon="-2.09516">
        <ele>56</ele>
        <time>2021-07-25T08:38:29.000Z</time>
      </trkpt>
      <trkpt lat="47.11487" lon="-2.09537">
        <ele>56</ele>
        <time>2021-07-25T08:38:32.000Z</time>
      </trkpt>
      <trkpt lat="47.11487" lon="-2.09551">
        <ele>56</ele>
        <time>2021-07-25T08:38:34.000Z</time>
      </trkpt>
      <trkpt lat="47.11487" lon="-2.09565">
        <ele>56</ele>
        <time>2021-07-25T08:38:36.000Z</time>
      </trkpt>
      <trkpt lat="47.11488" lon="-2.09585">
        <ele>56</ele>
        <time>2021-07-25T08:38:39.000Z</time>
      </trkpt>
      <trkpt lat="47.11488" lon="-2.09599">
        <ele>56</ele>
        <time>2021-07-25T08:38:41.000Z</time>
      </trkpt>
      <trkpt lat="47.11486" lon="-2.09621">
        <ele>55</ele>
        <time>2021-07-25T08:38:45.000Z</time>
      </trkpt>
      <trkpt lat="47.11486" lon="-2.09636">
        <ele>55</ele>
        <time>2021-07-25T08:38:48.000Z</time>
      </trkpt>
      <trkpt lat="47.11485" lon="-2.09649">
        <ele>55</ele>
        <time>2021-07-25T08:38:50.000Z</time>
      </trkpt>
      <trkpt lat="47.11484" lon="-2.09664">
        <ele>56</ele>
        <time>2021-07-25T08:38:52.000Z</time>
      </trkpt>
      <trkpt lat="47.11484" lon="-2.09681">
        <ele>56</ele>
        <time>2021-07-25T08:38:54.000Z</time>
      </trkpt>
      <trkpt lat="47.11484" lon="-2.09696">
        <ele>56</ele>
        <time>2021-07-25T08:38:56.000Z</time>
      </trkpt>
      <trkpt lat="47.11484" lon="-2.09712">
        <ele>56</ele>
        <time>2021-07-25T08:38:58.000Z</time>
      </trkpt>
      <trkpt lat="47.11484" lon="-2.09728">
        <ele>56</ele>
        <time>2021-07-25T08:39:00.000Z</time>
      </trkpt>
      <trkpt lat="47.11484" lon="-2.09742">
        <ele>56</ele>
        <time>2021-07-25T08:39:02.000Z</time>
      </trkpt>
      <trkpt lat="47.11485" lon="-2.09757">
        <ele>55</ele>
        <time>2021-07-25T08:39:04.000Z</time>
      </trkpt>
      <trkpt lat="47.11484" lon="-2.09771">
        <ele>56</ele>
        <time>2021-07-25T08:39:06.000Z</time>
      </trkpt>
      <trkpt lat="47.11484" lon="-2.09785">
        <ele>56</ele>
        <time>2021-07-25T08:39:08.000Z</time>
      </trkpt>
      <trkpt lat="47.11484" lon="-2.098">
        <ele>56</ele>
        <time>2021-07-25T08:39:10.000Z</time>
      </trkpt>
      <trkpt lat="47.11482" lon="-2.09813">
        <ele>56</ele>
        <time>2021-07-25T08:39:12.000Z</time>
      </trkpt>
      <trkpt lat="47.11476" lon="-2.09829">
        <ele>56</ele>
        <time>2021-07-25T08:39:15.000Z</time>
      </trkpt>
      <trkpt lat="47.11474" lon="-2.09844">
        <ele>57</ele>
        <time>2021-07-25T08:39:19.000Z</time>
      </trkpt>
      <trkpt lat="47.11468" lon="-2.09855">
        <ele>57</ele>
        <time>2021-07-25T08:39:25.000Z</time>
      </trkpt>
      <trkpt lat="47.11459" lon="-2.09871">
        <ele>57</ele>
        <time>2021-07-25T08:39:28.000Z</time>
      </trkpt>
      <trkpt lat="47.11455" lon="-2.09883">
        <ele>56</ele>
        <time>2021-07-25T08:39:30.000Z</time>
      </trkpt>
      <trkpt lat="47.11453" lon="-2.099">
        <ele>56</ele>
        <time>2021-07-25T08:39:32.000Z</time>
      </trkpt>
      <trkpt lat="47.1145" lon="-2.09916">
        <ele>56</ele>
        <time>2021-07-25T08:39:34.000Z</time>
      </trkpt>
      <trkpt lat="47.11447" lon="-2.09933">
        <ele>56</ele>
        <time>2021-07-25T08:39:36.000Z</time>
      </trkpt>
      <trkpt lat="47.11444" lon="-2.09949">
        <ele>57</ele>
        <time>2021-07-25T08:39:38.000Z</time>
      </trkpt>
      <trkpt lat="47.11442" lon="-2.09966">
        <ele>57</ele>
        <time>2021-07-25T08:39:40.000Z</time>
      </trkpt>
      <trkpt lat="47.11439" lon="-2.09981">
        <ele>57</ele>
        <time>2021-07-25T08:39:42.000Z</time>
      </trkpt>
      <trkpt lat="47.11435" lon="-2.09995">
        <ele>57</ele>
        <time>2021-07-25T08:39:44.000Z</time>
      </trkpt>
      <trkpt lat="47.11434" lon="-2.10012">
        <ele>57</ele>
        <time>2021-07-25T08:39:46.000Z</time>
      </trkpt>
      <trkpt lat="47.11431" lon="-2.10029">
        <ele>57</ele>
        <time>2021-07-25T08:39:48.000Z</time>
      </trkpt>
      <trkpt lat="47.11428" lon="-2.10046">
        <ele>57</ele>
        <time>2021-07-25T08:39:50.000Z</time>
      </trkpt>
      <trkpt lat="47.11427" lon="-2.1006">
        <ele>56</ele>
        <time>2021-07-25T08:39:52.000Z</time>
      </trkpt>
      <trkpt lat="47.11428" lon="-2.10076">
        <ele>56</ele>
        <time>2021-07-25T08:39:54.000Z</time>
      </trkpt>
      <trkpt lat="47.11428" lon="-2.10093">
        <ele>56</ele>
        <time>2021-07-25T08:39:56.000Z</time>
      </trkpt>
      <trkpt lat="47.11427" lon="-2.10109">
        <ele>56</ele>
        <time>2021-07-25T08:39:58.000Z</time>
      </trkpt>
      <trkpt lat="47.11425" lon="-2.10125">
        <ele>56</ele>
        <time>2021-07-25T08:40:00.000Z</time>
      </trkpt>
      <trkpt lat="47.11422" lon="-2.1014">
        <ele>56</ele>
        <time>2021-07-25T08:40:02.000Z</time>
      </trkpt>
      <trkpt lat="47.11419" lon="-2.10155">
        <ele>57</ele>
        <time>2021-07-25T08:40:04.000Z</time>
      </trkpt>
      <trkpt lat="47.11416" lon="-2.1017">
        <ele>57</ele>
        <time>2021-07-25T08:40:06.000Z</time>
      </trkpt>
      <trkpt lat="47.11413" lon="-2.10185">
        <ele>58</ele>
        <time>2021-07-25T08:40:08.000Z</time>
      </trkpt>
      <trkpt lat="47.11411" lon="-2.102">
        <ele>58</ele>
        <time>2021-07-25T08:40:10.000Z</time>
      </trkpt>
      <trkpt lat="47.11408" lon="-2.10216">
        <ele>57</ele>
        <time>2021-07-25T08:40:12.000Z</time>
      </trkpt>
      <trkpt lat="47.11405" lon="-2.10231">
        <ele>57</ele>
        <time>2021-07-25T08:40:14.000Z</time>
      </trkpt>
      <trkpt lat="47.114" lon="-2.10244">
        <ele>56</ele>
        <time>2021-07-25T08:40:16.000Z</time>
      </trkpt>
      <trkpt lat="47.11393" lon="-2.10257">
        <ele>56</ele>
        <time>2021-07-25T08:40:18.000Z</time>
      </trkpt>
      <trkpt lat="47.11383" lon="-2.10267">
        <ele>56</ele>
        <time>2021-07-25T08:40:20.000Z</time>
      </trkpt>
      <trkpt lat="47.11373" lon="-2.10278">
        <ele>55</ele>
        <time>2021-07-25T08:40:22.000Z</time>
      </trkpt>
      <trkpt lat="47.11365" lon="-2.10291">
        <ele>55</ele>
        <time>2021-07-25T08:40:24.000Z</time>
      </trkpt>
      <trkpt lat="47.11357" lon="-2.10303">
        <ele>55</ele>
        <time>2021-07-25T08:40:26.000Z</time>
      </trkpt>
      <trkpt lat="47.11349" lon="-2.10315">
        <ele>55</ele>
        <time>2021-07-25T08:40:28.000Z</time>
      </trkpt>
      <trkpt lat="47.11341" lon="-2.10325">
        <ele>55</ele>
        <time>2021-07-25T08:40:30.000Z</time>
      </trkpt>
      <trkpt lat="47.11333" lon="-2.10334">
        <ele>55</ele>
        <time>2021-07-25T08:40:32.000Z</time>
      </trkpt>
      <trkpt lat="47.11324" lon="-2.10341">
        <ele>55</ele>
        <time>2021-07-25T08:40:34.000Z</time>
      </trkpt>
      <trkpt lat="47.11315" lon="-2.10348">
        <ele>55</ele>
        <time>2021-07-25T08:40:36.000Z</time>
      </trkpt>
      <trkpt lat="47.11306" lon="-2.10355">
        <ele>55</ele>
        <time>2021-07-25T08:40:38.000Z</time>
      </trkpt>
      <trkpt lat="47.11297" lon="-2.10362">
        <ele>56</ele>
        <time>2021-07-25T08:40:40.000Z</time>
      </trkpt>
      <trkpt lat="47.11288" lon="-2.10367">
        <ele>56</ele>
        <time>2021-07-25T08:40:42.000Z</time>
      </trkpt>
      <trkpt lat="47.11278" lon="-2.10371">
        <ele>57</ele>
        <time>2021-07-25T08:40:44.000Z</time>
      </trkpt>
      <trkpt lat="47.11268" lon="-2.10376">
        <ele>58</ele>
        <time>2021-07-25T08:40:46.000Z</time>
      </trkpt>
      <trkpt lat="47.11257" lon="-2.10379">
        <ele>59</ele>
        <time>2021-07-25T08:40:48.000Z</time>
      </trkpt>
      <trkpt lat="47.11247" lon="-2.10383">
        <ele>60</ele>
        <time>2021-07-25T08:40:50.000Z</time>
      </trkpt>
      <trkpt lat="47.11238" lon="-2.1039">
        <ele>59</ele>
        <time>2021-07-25T08:40:52.000Z</time>
      </trkpt>
      <trkpt lat="47.1123" lon="-2.104">
        <ele>60</ele>
        <time>2021-07-25T08:40:54.000Z</time>
      </trkpt>
      <trkpt lat="47.11222" lon="-2.10413">
        <ele>60</ele>
        <time>2021-07-25T08:40:56.000Z</time>
      </trkpt>
      <trkpt lat="47.11216" lon="-2.10426">
        <ele>61</ele>
        <time>2021-07-25T08:40:58.000Z</time>
      </trkpt>
      <trkpt lat="47.11209" lon="-2.10436">
        <ele>61</ele>
        <time>2021-07-25T08:41:00.000Z</time>
      </trkpt>
      <trkpt lat="47.112" lon="-2.10443">
        <ele>61</ele>
        <time>2021-07-25T08:41:02.000Z</time>
      </trkpt>
      <trkpt lat="47.1119" lon="-2.10446">
        <ele>60</ele>
        <time>2021-07-25T08:41:04.000Z</time>
      </trkpt>
      <trkpt lat="47.1118" lon="-2.10449">
        <ele>60</ele>
        <time>2021-07-25T08:41:06.000Z</time>
      </trkpt>
      <trkpt lat="47.11169" lon="-2.10451">
        <ele>61</ele>
        <time>2021-07-25T08:41:08.000Z</time>
      </trkpt>
      <trkpt lat="47.11159" lon="-2.10449">
        <ele>61</ele>
        <time>2021-07-25T08:41:10.000Z</time>
      </trkpt>
      <trkpt lat="47.11149" lon="-2.10442">
        <ele>61</ele>
        <time>2021-07-25T08:41:12.000Z</time>
      </trkpt>
      <trkpt lat="47.1114" lon="-2.10432">
        <ele>61</ele>
        <time>2021-07-25T08:41:14.000Z</time>
      </trkpt>
      <trkpt lat="47.11131" lon="-2.10423">
        <ele>60</ele>
        <time>2021-07-25T08:41:16.000Z</time>
      </trkpt>
      <trkpt lat="47.1112" lon="-2.10417">
        <ele>60</ele>
        <time>2021-07-25T08:41:18.000Z</time>
      </trkpt>
      <trkpt lat="47.11109" lon="-2.10421">
        <ele>60</ele>
        <time>2021-07-25T08:41:20.000Z</time>
      </trkpt>
      <trkpt lat="47.11099" lon="-2.10431">
        <ele>60</ele>
        <time>2021-07-25T08:41:22.000Z</time>
      </trkpt>
      <trkpt lat="47.11091" lon="-2.10444">
        <ele>60</ele>
        <time>2021-07-25T08:41:24.000Z</time>
      </trkpt>
      <trkpt lat="47.11085" lon="-2.1046">
        <ele>60</ele>
        <time>2021-07-25T08:41:26.000Z</time>
      </trkpt>
      <trkpt lat="47.11081" lon="-2.10476">
        <ele>61</ele>
        <time>2021-07-25T08:41:28.000Z</time>
      </trkpt>
      <trkpt lat="47.11076" lon="-2.10492">
        <ele>62</ele>
        <time>2021-07-25T08:41:30.000Z</time>
      </trkpt>
      <trkpt lat="47.1107" lon="-2.10507">
        <ele>62</ele>
        <time>2021-07-25T08:41:32.000Z</time>
      </trkpt>
      <trkpt lat="47.11062" lon="-2.10519">
        <ele>63</ele>
        <time>2021-07-25T08:41:34.000Z</time>
      </trkpt>
      <trkpt lat="47.11053" lon="-2.1053">
        <ele>64</ele>
        <time>2021-07-25T08:41:36.000Z</time>
      </trkpt>
      <trkpt lat="47.11045" lon="-2.1054">
        <ele>64</ele>
        <time>2021-07-25T08:41:38.000Z</time>
      </trkpt>
      <trkpt lat="47.11036" lon="-2.1055">
        <ele>63</ele>
        <time>2021-07-25T08:41:40.000Z</time>
      </trkpt>
      <trkpt lat="47.11026" lon="-2.1056">
        <ele>63</ele>
        <time>2021-07-25T08:41:42.000Z</time>
      </trkpt>
      <trkpt lat="47.11015" lon="-2.1057">
        <ele>62</ele>
        <time>2021-07-25T08:41:44.000Z</time>
      </trkpt>
      <trkpt lat="47.11004" lon="-2.10583">
        <ele>61</ele>
        <time>2021-07-25T08:41:46.000Z</time>
      </trkpt>
      <trkpt lat="47.10997" lon="-2.10599">
        <ele>62</ele>
        <time>2021-07-25T08:41:48.000Z</time>
      </trkpt>
      <trkpt lat="47.10991" lon="-2.10614">
        <ele>62</ele>
        <time>2021-07-25T08:41:50.000Z</time>
      </trkpt>
      <trkpt lat="47.10988" lon="-2.10631">
        <ele>61</ele>
        <time>2021-07-25T08:41:52.000Z</time>
      </trkpt>
      <trkpt lat="47.10992" lon="-2.10648">
        <ele>61</ele>
        <time>2021-07-25T08:41:54.000Z</time>
      </trkpt>
      <trkpt lat="47.10993" lon="-2.10667">
        <ele>61</ele>
        <time>2021-07-25T08:41:56.000Z</time>
      </trkpt>
      <trkpt lat="47.10992" lon="-2.10686">
        <ele>62</ele>
        <time>2021-07-25T08:41:58.000Z</time>
      </trkpt>
      <trkpt lat="47.10983" lon="-2.10698">
        <ele>62</ele>
        <time>2021-07-25T08:42:00.000Z</time>
      </trkpt>
      <trkpt lat="47.10973" lon="-2.10706">
        <ele>61</ele>
        <time>2021-07-25T08:42:02.000Z</time>
      </trkpt>
      <trkpt lat="47.10964" lon="-2.10715">
        <ele>60</ele>
        <time>2021-07-25T08:42:04.000Z</time>
      </trkpt>
      <trkpt lat="47.10957" lon="-2.10728">
        <ele>60</ele>
        <time>2021-07-25T08:42:06.000Z</time>
      </trkpt>
      <trkpt lat="47.10949" lon="-2.10739">
        <ele>59</ele>
        <time>2021-07-25T08:42:08.000Z</time>
      </trkpt>
      <trkpt lat="47.10937" lon="-2.10745">
        <ele>59</ele>
        <time>2021-07-25T08:42:10.000Z</time>
      </trkpt>
      <trkpt lat="47.10925" lon="-2.10742">
        <ele>59</ele>
        <time>2021-07-25T08:42:12.000Z</time>
      </trkpt>
      <trkpt lat="47.10915" lon="-2.10732">
        <ele>59</ele>
        <time>2021-07-25T08:42:14.000Z</time>
      </trkpt>
      <trkpt lat="47.10905" lon="-2.10722">
        <ele>59</ele>
        <time>2021-07-25T08:42:16.000Z</time>
      </trkpt>
      <trkpt lat="47.10894" lon="-2.10722">
        <ele>59</ele>
        <time>2021-07-25T08:42:18.000Z</time>
      </trkpt>
      <trkpt lat="47.10883" lon="-2.10726">
        <ele>59</ele>
        <time>2021-07-25T08:42:20.000Z</time>
      </trkpt>
      <trkpt lat="47.10872" lon="-2.10731">
        <ele>59</ele>
        <time>2021-07-25T08:42:22.000Z</time>
      </trkpt>
      <trkpt lat="47.1086" lon="-2.10734">
        <ele>58</ele>
        <time>2021-07-25T08:42:24.000Z</time>
      </trkpt>
      <trkpt lat="47.10849" lon="-2.10729">
        <ele>59</ele>
        <time>2021-07-25T08:42:26.000Z</time>
      </trkpt>
      <trkpt lat="47.10842" lon="-2.10715">
        <ele>59</ele>
        <time>2021-07-25T08:42:28.000Z</time>
      </trkpt>
      <trkpt lat="47.10834" lon="-2.10703">
        <ele>58</ele>
        <time>2021-07-25T08:42:30.000Z</time>
      </trkpt>
      <trkpt lat="47.10825" lon="-2.10692">
        <ele>58</ele>
        <time>2021-07-25T08:42:32.000Z</time>
      </trkpt>
      <trkpt lat="47.10816" lon="-2.1068">
        <ele>58</ele>
        <time>2021-07-25T08:42:34.000Z</time>
      </trkpt>
      <trkpt lat="47.10808" lon="-2.10665">
        <ele>58</ele>
        <time>2021-07-25T08:42:36.000Z</time>
      </trkpt>
      <trkpt lat="47.10799" lon="-2.10651">
        <ele>58</ele>
        <time>2021-07-25T08:42:38.000Z</time>
      </trkpt>
      <trkpt lat="47.10789" lon="-2.1064">
        <ele>58</ele>
        <time>2021-07-25T08:42:40.000Z</time>
      </trkpt>
      <trkpt lat="47.10779" lon="-2.10631">
        <ele>58</ele>
        <time>2021-07-25T08:42:42.000Z</time>
      </trkpt>
      <trkpt lat="47.10768" lon="-2.10622">
        <ele>58</ele>
        <time>2021-07-25T08:42:44.000Z</time>
      </trkpt>
      <trkpt lat="47.10758" lon="-2.10612">
        <ele>59</ele>
        <time>2021-07-25T08:42:46.000Z</time>
      </trkpt>
      <trkpt lat="47.1075" lon="-2.10599">
        <ele>59</ele>
        <time>2021-07-25T08:42:48.000Z</time>
      </trkpt>
      <trkpt lat="47.10744" lon="-2.10585">
        <ele>59</ele>
        <time>2021-07-25T08:42:50.000Z</time>
      </trkpt>
      <trkpt lat="47.10742" lon="-2.10568">
        <ele>60</ele>
        <time>2021-07-25T08:42:52.000Z</time>
      </trkpt>
      <trkpt lat="47.10748" lon="-2.10553">
        <ele>60</ele>
        <time>2021-07-25T08:42:54.000Z</time>
      </trkpt>
      <trkpt lat="47.10754" lon="-2.10538">
        <ele>60</ele>
        <time>2021-07-25T08:42:56.000Z</time>
      </trkpt>
      <trkpt lat="47.1076" lon="-2.10524">
        <ele>61</ele>
        <time>2021-07-25T08:42:58.000Z</time>
      </trkpt>
      <trkpt lat="47.10766" lon="-2.1051">
        <ele>62</ele>
        <time>2021-07-25T08:43:00.000Z</time>
      </trkpt>
      <trkpt lat="47.10772" lon="-2.10497">
        <ele>63</ele>
        <time>2021-07-25T08:43:02.000Z</time>
      </trkpt>
      <trkpt lat="47.10778" lon="-2.10484">
        <ele>63</ele>
        <time>2021-07-25T08:43:04.000Z</time>
      </trkpt>
      <trkpt lat="47.10782" lon="-2.10472">
        <ele>64</ele>
        <time>2021-07-25T08:43:06.000Z</time>
      </trkpt>
      <trkpt lat="47.10785" lon="-2.10459">
        <ele>66</ele>
        <time>2021-07-25T08:43:08.000Z</time>
      </trkpt>
      <trkpt lat="47.10776" lon="-2.10446">
        <ele>66</ele>
        <time>2021-07-25T08:43:11.000Z</time>
      </trkpt>
      <trkpt lat="47.10767" lon="-2.10438">
        <ele>66</ele>
        <time>2021-07-25T08:43:13.000Z</time>
      </trkpt>
      <trkpt lat="47.10758" lon="-2.1043">
        <ele>66</ele>
        <time>2021-07-25T08:43:15.000Z</time>
      </trkpt>
      <trkpt lat="47.10749" lon="-2.10421">
        <ele>66</ele>
        <time>2021-07-25T08:43:17.000Z</time>
      </trkpt>
      <trkpt lat="47.10743" lon="-2.10407">
        <ele>66</ele>
        <time>2021-07-25T08:43:19.000Z</time>
      </trkpt>
      <trkpt lat="47.10739" lon="-2.10392">
        <ele>66</ele>
        <time>2021-07-25T08:43:21.000Z</time>
      </trkpt>
      <trkpt lat="47.1074" lon="-2.10379">
        <ele>65</ele>
        <time>2021-07-25T08:43:23.000Z</time>
      </trkpt>
      <trkpt lat="47.10748" lon="-2.1037">
        <ele>66</ele>
        <time>2021-07-25T08:43:25.000Z</time>
      </trkpt>
      <trkpt lat="47.10757" lon="-2.10363">
        <ele>66</ele>
        <time>2021-07-25T08:43:27.000Z</time>
      </trkpt>
      <trkpt lat="47.10765" lon="-2.10356">
        <ele>67</ele>
        <time>2021-07-25T08:43:29.000Z</time>
      </trkpt>
      <trkpt lat="47.10775" lon="-2.1035">
        <ele>68</ele>
        <time>2021-07-25T08:43:31.000Z</time>
      </trkpt>
      <trkpt lat="47.10784" lon="-2.10341">
        <ele>68</ele>
        <time>2021-07-25T08:43:33.000Z</time>
      </trkpt>
      <trkpt lat="47.10791" lon="-2.10329">
        <ele>68</ele>
        <time>2021-07-25T08:43:35.000Z</time>
      </trkpt>
      <trkpt lat="47.10798" lon="-2.10318">
        <ele>68</ele>
        <time>2021-07-25T08:43:37.000Z</time>
      </trkpt>
      <trkpt lat="47.10805" lon="-2.10306">
        <ele>69</ele>
        <time>2021-07-25T08:43:39.000Z</time>
      </trkpt>
      <trkpt lat="47.10812" lon="-2.10295">
        <ele>69</ele>
        <time>2021-07-25T08:43:41.000Z</time>
      </trkpt>
      <trkpt lat="47.10818" lon="-2.10284">
        <ele>70</ele>
        <time>2021-07-25T08:43:43.000Z</time>
      </trkpt>
      <trkpt lat="47.10824" lon="-2.10271">
        <ele>70</ele>
        <time>2021-07-25T08:43:46.000Z</time>
      </trkpt>
      <trkpt lat="47.10824" lon="-2.10257">
        <ele>71</ele>
        <time>2021-07-25T08:43:48.000Z</time>
      </trkpt>
      <trkpt lat="47.10822" lon="-2.10242">
        <ele>72</ele>
        <time>2021-07-25T08:43:50.000Z</time>
      </trkpt>
      <trkpt lat="47.1082" lon="-2.10227">
        <ele>72</ele>
        <time>2021-07-25T08:43:52.000Z</time>
      </trkpt>
      <trkpt lat="47.10818" lon="-2.10212">
        <ele>71</ele>
        <time>2021-07-25T08:43:54.000Z</time>
      </trkpt>
      <trkpt lat="47.10816" lon="-2.10197">
        <ele>71</ele>
        <time>2021-07-25T08:43:56.000Z</time>
      </trkpt>
      <trkpt lat="47.10813" lon="-2.10182">
        <ele>72</ele>
        <time>2021-07-25T08:43:58.000Z</time>
      </trkpt>
      <trkpt lat="47.10811" lon="-2.10167">
        <ele>72</ele>
        <time>2021-07-25T08:44:00.000Z</time>
      </trkpt>
      <trkpt lat="47.10808" lon="-2.10152">
        <ele>71</ele>
        <time>2021-07-25T08:44:02.000Z</time>
      </trkpt>
      <trkpt lat="47.10805" lon="-2.10136">
        <ele>71</ele>
        <time>2021-07-25T08:44:04.000Z</time>
      </trkpt>
      <trkpt lat="47.10804" lon="-2.1012">
        <ele>71</ele>
        <time>2021-07-25T08:44:06.000Z</time>
      </trkpt>
      <trkpt lat="47.10801" lon="-2.10106">
        <ele>71</ele>
        <time>2021-07-25T08:44:08.000Z</time>
      </trkpt>
      <trkpt lat="47.10799" lon="-2.10091">
        <ele>71</ele>
        <time>2021-07-25T08:44:10.000Z</time>
      </trkpt>
      <trkpt lat="47.10797" lon="-2.10078">
        <ele>71</ele>
        <time>2021-07-25T08:44:12.000Z</time>
      </trkpt>
      <trkpt lat="47.10795" lon="-2.10063">
        <ele>72</ele>
        <time>2021-07-25T08:44:14.000Z</time>
      </trkpt>
      <trkpt lat="47.10793" lon="-2.10048">
        <ele>72</ele>
        <time>2021-07-25T08:44:16.000Z</time>
      </trkpt>
      <trkpt lat="47.10793" lon="-2.10031">
        <ele>72</ele>
        <time>2021-07-25T08:44:18.000Z</time>
      </trkpt>
      <trkpt lat="47.10792" lon="-2.10014">
        <ele>72</ele>
        <time>2021-07-25T08:44:20.000Z</time>
      </trkpt>
      <trkpt lat="47.1079" lon="-2.09998">
        <ele>72</ele>
        <time>2021-07-25T08:44:22.000Z</time>
      </trkpt>
      <trkpt lat="47.10788" lon="-2.0998">
        <ele>72</ele>
        <time>2021-07-25T08:44:24.000Z</time>
      </trkpt>
      <trkpt lat="47.10787" lon="-2.09963">
        <ele>72</ele>
        <time>2021-07-25T08:44:26.000Z</time>
      </trkpt>
      <trkpt lat="47.10787" lon="-2.09947">
        <ele>72</ele>
        <time>2021-07-25T08:44:28.000Z</time>
      </trkpt>
      <trkpt lat="47.10785" lon="-2.09931">
        <ele>72</ele>
        <time>2021-07-25T08:44:30.000Z</time>
      </trkpt>
      <trkpt lat="47.10784" lon="-2.09914">
        <ele>71</ele>
        <time>2021-07-25T08:44:32.000Z</time>
      </trkpt>
      <trkpt lat="47.10784" lon="-2.09899">
        <ele>71</ele>
        <time>2021-07-25T08:44:34.000Z</time>
      </trkpt>
      <trkpt lat="47.10783" lon="-2.09884">
        <ele>71</ele>
        <time>2021-07-25T08:44:36.000Z</time>
      </trkpt>
      <trkpt lat="47.10782" lon="-2.09869">
        <ele>71</ele>
        <time>2021-07-25T08:44:38.000Z</time>
      </trkpt>
      <trkpt lat="47.10781" lon="-2.09855">
        <ele>71</ele>
        <time>2021-07-25T08:44:40.000Z</time>
      </trkpt>
      <trkpt lat="47.10781" lon="-2.09841">
        <ele>71</ele>
        <time>2021-07-25T08:44:42.000Z</time>
      </trkpt>
      <trkpt lat="47.10781" lon="-2.09824">
        <ele>70</ele>
        <time>2021-07-25T08:44:45.000Z</time>
      </trkpt>
      <trkpt lat="47.10782" lon="-2.0981">
        <ele>70</ele>
        <time>2021-07-25T08:44:48.000Z</time>
      </trkpt>
      <trkpt lat="47.10781" lon="-2.09795">
        <ele>70</ele>
        <time>2021-07-25T08:44:53.000Z</time>
      </trkpt>
      <trkpt lat="47.10784" lon="-2.09782">
        <ele>70</ele>
        <time>2021-07-25T08:44:55.000Z</time>
      </trkpt>
      <trkpt lat="47.10784" lon="-2.09762">
        <ele>69</ele>
        <time>2021-07-25T08:44:57.000Z</time>
      </trkpt>
      <trkpt lat="47.10782" lon="-2.09742">
        <ele>68</ele>
        <time>2021-07-25T08:44:59.000Z</time>
      </trkpt>
      <trkpt lat="47.10778" lon="-2.09723">
        <ele>69</ele>
        <time>2021-07-25T08:45:01.000Z</time>
      </trkpt>
      <trkpt lat="47.10773" lon="-2.09708">
        <ele>69</ele>
        <time>2021-07-25T08:45:03.000Z</time>
      </trkpt>
      <trkpt lat="47.1077" lon="-2.09693">
        <ele>69</ele>
        <time>2021-07-25T08:45:05.000Z</time>
      </trkpt>
      <trkpt lat="47.10767" lon="-2.09679">
        <ele>69</ele>
        <time>2021-07-25T08:45:07.000Z</time>
      </trkpt>
      <trkpt lat="47.10764" lon="-2.09666">
        <ele>69</ele>
        <time>2021-07-25T08:45:09.000Z</time>
      </trkpt>
      <trkpt lat="47.10761" lon="-2.09653">
        <ele>69</ele>
        <time>2021-07-25T08:45:11.000Z</time>
      </trkpt>
      <trkpt lat="47.10756" lon="-2.09635">
        <ele>69</ele>
        <time>2021-07-25T08:45:14.000Z</time>
      </trkpt>
      <trkpt lat="47.1075" lon="-2.09618">
        <ele>70</ele>
        <time>2021-07-25T08:45:17.000Z</time>
      </trkpt>
      <trkpt lat="47.10754" lon="-2.09606">
        <ele>70</ele>
        <time>2021-07-25T08:45:23.000Z</time>
      </trkpt>
      <trkpt lat="47.10759" lon="-2.0959">
        <ele>70</ele>
        <time>2021-07-25T08:45:27.000Z</time>
      </trkpt>
      <trkpt lat="47.10753" lon="-2.09578">
        <ele>70</ele>
        <time>2021-07-25T08:45:29.000Z</time>
      </trkpt>
      <trkpt lat="47.10747" lon="-2.09565">
        <ele>71</ele>
        <time>2021-07-25T08:45:31.000Z</time>
      </trkpt>
      <trkpt lat="47.10741" lon="-2.09551">
        <ele>71</ele>
        <time>2021-07-25T08:45:33.000Z</time>
      </trkpt>
      <trkpt lat="47.10736" lon="-2.09537">
        <ele>72</ele>
        <time>2021-07-25T08:45:35.000Z</time>
      </trkpt>
      <trkpt lat="47.10728" lon="-2.09525">
        <ele>72</ele>
        <time>2021-07-25T08:45:37.000Z</time>
      </trkpt>
      <trkpt lat="47.10719" lon="-2.09515">
        <ele>73</ele>
        <time>2021-07-25T08:45:39.000Z</time>
      </trkpt>
      <trkpt lat="47.10711" lon="-2.09504">
        <ele>73</ele>
        <time>2021-07-25T08:45:41.000Z</time>
      </trkpt>
      <trkpt lat="47.10707" lon="-2.09491">
        <ele>74</ele>
        <time>2021-07-25T08:45:43.000Z</time>
      </trkpt>
      <trkpt lat="47.10712" lon="-2.09478">
        <ele>74</ele>
        <time>2021-07-25T08:45:45.000Z</time>
      </trkpt>
      <trkpt lat="47.10721" lon="-2.09469">
        <ele>74</ele>
        <time>2021-07-25T08:45:47.000Z</time>
      </trkpt>
      <trkpt lat="47.1073" lon="-2.09459">
        <ele>73</ele>
        <time>2021-07-25T08:45:49.000Z</time>
      </trkpt>
      <trkpt lat="47.10736" lon="-2.09446">
        <ele>74</ele>
        <time>2021-07-25T08:45:51.000Z</time>
      </trkpt>
      <trkpt lat="47.10731" lon="-2.09432">
        <ele>74</ele>
        <time>2021-07-25T08:45:53.000Z</time>
      </trkpt>
      <trkpt lat="47.10724" lon="-2.09416">
        <ele>74</ele>
        <time>2021-07-25T08:45:55.000Z</time>
      </trkpt>
      <trkpt lat="47.10717" lon="-2.09399">
        <ele>73</ele>
        <time>2021-07-25T08:45:57.000Z</time>
      </trkpt>
      <trkpt lat="47.1071" lon="-2.09381">
        <ele>72</ele>
        <time>2021-07-25T08:45:59.000Z</time>
      </trkpt>
      <trkpt lat="47.10702" lon="-2.09362">
        <ele>71</ele>
        <time>2021-07-25T08:46:01.000Z</time>
      </trkpt>
      <trkpt lat="47.10697" lon="-2.09342">
        <ele>71</ele>
        <time>2021-07-25T08:46:03.000Z</time>
      </trkpt>
      <trkpt lat="47.10693" lon="-2.0932">
        <ele>70</ele>
        <time>2021-07-25T08:46:05.000Z</time>
      </trkpt>
      <trkpt lat="47.1069" lon="-2.09301">
        <ele>71</ele>
        <time>2021-07-25T08:46:07.000Z</time>
      </trkpt>
      <trkpt lat="47.10688" lon="-2.09282">
        <ele>71</ele>
        <time>2021-07-25T08:46:09.000Z</time>
      </trkpt>
      <trkpt lat="47.10686" lon="-2.09263">
        <ele>72</ele>
        <time>2021-07-25T08:46:11.000Z</time>
      </trkpt>
      <trkpt lat="47.10683" lon="-2.09244">
        <ele>72</ele>
        <time>2021-07-25T08:46:13.000Z</time>
      </trkpt>
      <trkpt lat="47.10682" lon="-2.09225">
        <ele>73</ele>
        <time>2021-07-25T08:46:15.000Z</time>
      </trkpt>
      <trkpt lat="47.10679" lon="-2.09206">
        <ele>74</ele>
        <time>2021-07-25T08:46:17.000Z</time>
      </trkpt>
      <trkpt lat="47.10677" lon="-2.09189">
        <ele>74</ele>
        <time>2021-07-25T08:46:19.000Z</time>
      </trkpt>
      <trkpt lat="47.10674" lon="-2.09172">
        <ele>74</ele>
        <time>2021-07-25T08:46:21.000Z</time>
      </trkpt>
      <trkpt lat="47.10672" lon="-2.09155">
        <ele>75</ele>
        <time>2021-07-25T08:46:23.000Z</time>
      </trkpt>
      <trkpt lat="47.10669" lon="-2.0914">
        <ele>75</ele>
        <time>2021-07-25T08:46:25.000Z</time>
      </trkpt>
      <trkpt lat="47.10665" lon="-2.09125">
        <ele>74</ele>
        <time>2021-07-25T08:46:27.000Z</time>
      </trkpt>
      <trkpt lat="47.10662" lon="-2.0911">
        <ele>74</ele>
        <time>2021-07-25T08:46:29.000Z</time>
      </trkpt>
      <trkpt lat="47.10667" lon="-2.09093">
        <ele>75</ele>
        <time>2021-07-25T08:46:32.000Z</time>
      </trkpt>
      <trkpt lat="47.10678" lon="-2.09088">
        <ele>75</ele>
        <time>2021-07-25T08:46:34.000Z</time>
      </trkpt>
      <trkpt lat="47.10689" lon="-2.09086">
        <ele>76</ele>
        <time>2021-07-25T08:46:36.000Z</time>
      </trkpt>
      <trkpt lat="47.10702" lon="-2.09083">
        <ele>76</ele>
        <time>2021-07-25T08:46:38.000Z</time>
      </trkpt>
      <trkpt lat="47.10715" lon="-2.0908">
        <ele>77</ele>
        <time>2021-07-25T08:46:40.000Z</time>
      </trkpt>
      <trkpt lat="47.10727" lon="-2.09078">
        <ele>77</ele>
        <time>2021-07-25T08:46:42.000Z</time>
      </trkpt>
      <trkpt lat="47.10739" lon="-2.09076">
        <ele>77</ele>
        <time>2021-07-25T08:46:44.000Z</time>
      </trkpt>
      <trkpt lat="47.1075" lon="-2.09074">
        <ele>77</ele>
        <time>2021-07-25T08:46:46.000Z</time>
      </trkpt>
      <trkpt lat="47.10759" lon="-2.09061">
        <ele>78</ele>
        <time>2021-07-25T08:46:49.000Z</time>
      </trkpt>
      <trkpt lat="47.10755" lon="-2.09042">
        <ele>78</ele>
        <time>2021-07-25T08:46:51.000Z</time>
      </trkpt>
      <trkpt lat="47.10751" lon="-2.09025">
        <ele>78</ele>
        <time>2021-07-25T08:46:53.000Z</time>
      </trkpt>
      <trkpt lat="47.10747" lon="-2.09007">
        <ele>77</ele>
        <time>2021-07-25T08:46:55.000Z</time>
      </trkpt>
      <trkpt lat="47.10743" lon="-2.08989">
        <ele>76</ele>
        <time>2021-07-25T08:46:57.000Z</time>
      </trkpt>
      <trkpt lat="47.1074" lon="-2.0897">
        <ele>76</ele>
        <time>2021-07-25T08:46:59.000Z</time>
      </trkpt>
      <trkpt lat="47.10739" lon="-2.08952">
        <ele>76</ele>
        <time>2021-07-25T08:47:01.000Z</time>
      </trkpt>
      <trkpt lat="47.10741" lon="-2.08934">
        <ele>77</ele>
        <time>2021-07-25T08:47:03.000Z</time>
      </trkpt>
      <trkpt lat="47.10747" lon="-2.08917">
        <ele>77</ele>
        <time>2021-07-25T08:47:05.000Z</time>
      </trkpt>
      <trkpt lat="47.10753" lon="-2.08902">
        <ele>77</ele>
        <time>2021-07-25T08:47:07.000Z</time>
      </trkpt>
      <trkpt lat="47.1076" lon="-2.08887">
        <ele>78</ele>
        <time>2021-07-25T08:47:09.000Z</time>
      </trkpt>
      <trkpt lat="47.10766" lon="-2.08872">
        <ele>78</ele>
        <time>2021-07-25T08:47:11.000Z</time>
      </trkpt>
      <trkpt lat="47.1077" lon="-2.08855">
        <ele>78</ele>
        <time>2021-07-25T08:47:13.000Z</time>
      </trkpt>
      <trkpt lat="47.10773" lon="-2.08837">
        <ele>78</ele>
        <time>2021-07-25T08:47:15.000Z</time>
      </trkpt>
      <trkpt lat="47.10771" lon="-2.08819">
        <ele>78</ele>
        <time>2021-07-25T08:47:17.000Z</time>
      </trkpt>
      <trkpt lat="47.10767" lon="-2.08801">
        <ele>78</ele>
        <time>2021-07-25T08:47:19.000Z</time>
      </trkpt>
      <trkpt lat="47.10762" lon="-2.08784">
        <ele>77</ele>
        <time>2021-07-25T08:47:21.000Z</time>
      </trkpt>
      <trkpt lat="47.10756" lon="-2.08766">
        <ele>77</ele>
        <time>2021-07-25T08:47:23.000Z</time>
      </trkpt>
      <trkpt lat="47.10751" lon="-2.0875">
        <ele>77</ele>
        <time>2021-07-25T08:47:25.000Z</time>
      </trkpt>
      <trkpt lat="47.10746" lon="-2.08733">
        <ele>77</ele>
        <time>2021-07-25T08:47:27.000Z</time>
      </trkpt>
      <trkpt lat="47.10743" lon="-2.08716">
        <ele>77</ele>
        <time>2021-07-25T08:47:29.000Z</time>
      </trkpt>
      <trkpt lat="47.1074" lon="-2.087">
        <ele>77</ele>
        <time>2021-07-25T08:47:31.000Z</time>
      </trkpt>
      <trkpt lat="47.10738" lon="-2.08685">
        <ele>77</ele>
        <time>2021-07-25T08:47:33.000Z</time>
      </trkpt>
      <trkpt lat="47.10735" lon="-2.0867">
        <ele>76</ele>
        <time>2021-07-25T08:47:35.000Z</time>
      </trkpt>
      <trkpt lat="47.10729" lon="-2.08657">
        <ele>76</ele>
        <time>2021-07-25T08:47:37.000Z</time>
      </trkpt>
      <trkpt lat="47.10722" lon="-2.08642">
        <ele>75</ele>
        <time>2021-07-25T08:47:39.000Z</time>
      </trkpt>
      <trkpt lat="47.10717" lon="-2.08626">
        <ele>75</ele>
        <time>2021-07-25T08:47:41.000Z</time>
      </trkpt>
      <trkpt lat="47.10714" lon="-2.08608">
        <ele>76</ele>
        <time>2021-07-25T08:47:43.000Z</time>
      </trkpt>
      <trkpt lat="47.10711" lon="-2.08588">
        <ele>75</ele>
        <time>2021-07-25T08:47:45.000Z</time>
      </trkpt>
      <trkpt lat="47.10709" lon="-2.08568">
        <ele>74</ele>
        <time>2021-07-25T08:47:47.000Z</time>
      </trkpt>
      <trkpt lat="47.10708" lon="-2.08546">
        <ele>74</ele>
        <time>2021-07-25T08:47:49.000Z</time>
      </trkpt>
      <trkpt lat="47.10706" lon="-2.08524">
        <ele>73</ele>
        <time>2021-07-25T08:47:51.000Z</time>
      </trkpt>
      <trkpt lat="47.10703" lon="-2.08503">
        <ele>73</ele>
        <time>2021-07-25T08:47:53.000Z</time>
      </trkpt>
      <trkpt lat="47.10699" lon="-2.08482">
        <ele>73</ele>
        <time>2021-07-25T08:47:55.000Z</time>
      </trkpt>
      <trkpt lat="47.10692" lon="-2.08465">
        <ele>73</ele>
        <time>2021-07-25T08:47:57.000Z</time>
      </trkpt>
      <trkpt lat="47.10683" lon="-2.08447">
        <ele>73</ele>
        <time>2021-07-25T08:47:59.000Z</time>
      </trkpt>
      <trkpt lat="47.10674" lon="-2.08429">
        <ele>73</ele>
        <time>2021-07-25T08:48:01.000Z</time>
      </trkpt>
      <trkpt lat="47.10665" lon="-2.08413">
        <ele>73</ele>
        <time>2021-07-25T08:48:03.000Z</time>
      </trkpt>
      <trkpt lat="47.10656" lon="-2.08397">
        <ele>73</ele>
        <time>2021-07-25T08:48:05.000Z</time>
      </trkpt>
      <trkpt lat="47.10646" lon="-2.08382">
        <ele>74</ele>
        <time>2021-07-25T08:48:07.000Z</time>
      </trkpt>
      <trkpt lat="47.10638" lon="-2.08366">
        <ele>75</ele>
        <time>2021-07-25T08:48:09.000Z</time>
      </trkpt>
      <trkpt lat="47.10629" lon="-2.08351">
        <ele>75</ele>
        <time>2021-07-25T08:48:11.000Z</time>
      </trkpt>
      <trkpt lat="47.10621" lon="-2.08337">
        <ele>75</ele>
        <time>2021-07-25T08:48:13.000Z</time>
      </trkpt>
      <trkpt lat="47.10613" lon="-2.08322">
        <ele>76</ele>
        <time>2021-07-25T08:48:15.000Z</time>
      </trkpt>
      <trkpt lat="47.10604" lon="-2.08306">
        <ele>75</ele>
        <time>2021-07-25T08:48:17.000Z</time>
      </trkpt>
      <trkpt lat="47.10595" lon="-2.0829">
        <ele>75</ele>
        <time>2021-07-25T08:48:19.000Z</time>
      </trkpt>
      <trkpt lat="47.10587" lon="-2.08275">
        <ele>75</ele>
        <time>2021-07-25T08:48:21.000Z</time>
      </trkpt>
      <trkpt lat="47.10579" lon="-2.0826">
        <ele>75</ele>
        <time>2021-07-25T08:48:23.000Z</time>
      </trkpt>
      <trkpt lat="47.10571" lon="-2.08243">
        <ele>75</ele>
        <time>2021-07-25T08:48:25.000Z</time>
      </trkpt>
      <trkpt lat="47.10563" lon="-2.08227">
        <ele>75</ele>
        <time>2021-07-25T08:48:27.000Z</time>
      </trkpt>
      <trkpt lat="47.10556" lon="-2.0821">
        <ele>75</ele>
        <time>2021-07-25T08:48:29.000Z</time>
      </trkpt>
      <trkpt lat="47.10548" lon="-2.08194">
        <ele>74</ele>
        <time>2021-07-25T08:48:31.000Z</time>
      </trkpt>
      <trkpt lat="47.1054" lon="-2.08177">
        <ele>73</ele>
        <time>2021-07-25T08:48:33.000Z</time>
      </trkpt>
      <trkpt lat="47.10531" lon="-2.0816">
        <ele>73</ele>
        <time>2021-07-25T08:48:35.000Z</time>
      </trkpt>
      <trkpt lat="47.10523" lon="-2.08143">
        <ele>72</ele>
        <time>2021-07-25T08:48:37.000Z</time>
      </trkpt>
      <trkpt lat="47.10515" lon="-2.08125">
        <ele>73</ele>
        <time>2021-07-25T08:48:39.000Z</time>
      </trkpt>
      <trkpt lat="47.10507" lon="-2.08109">
        <ele>73</ele>
        <time>2021-07-25T08:48:41.000Z</time>
      </trkpt>
      <trkpt lat="47.10499" lon="-2.08094">
        <ele>74</ele>
        <time>2021-07-25T08:48:43.000Z</time>
      </trkpt>
      <trkpt lat="47.10491" lon="-2.08078">
        <ele>74</ele>
        <time>2021-07-25T08:48:45.000Z</time>
      </trkpt>
      <trkpt lat="47.10483" lon="-2.08064">
        <ele>75</ele>
        <time>2021-07-25T08:48:47.000Z</time>
      </trkpt>
      <trkpt lat="47.10475" lon="-2.08049">
        <ele>74</ele>
        <time>2021-07-25T08:48:49.000Z</time>
      </trkpt>
      <trkpt lat="47.10465" lon="-2.08037">
        <ele>74</ele>
        <time>2021-07-25T08:48:51.000Z</time>
      </trkpt>
      <trkpt lat="47.10455" lon="-2.08025">
        <ele>74</ele>
        <time>2021-07-25T08:48:53.000Z</time>
      </trkpt>
      <trkpt lat="47.10444" lon="-2.08013">
        <ele>73</ele>
        <time>2021-07-25T08:48:55.000Z</time>
      </trkpt>
      <trkpt lat="47.10433" lon="-2.08001">
        <ele>73</ele>
        <time>2021-07-25T08:48:57.000Z</time>
      </trkpt>
      <trkpt lat="47.10423" lon="-2.07987">
        <ele>73</ele>
        <time>2021-07-25T08:48:59.000Z</time>
      </trkpt>
      <trkpt lat="47.10417" lon="-2.07967">
        <ele>73</ele>
        <time>2021-07-25T08:49:01.000Z</time>
      </trkpt>
      <trkpt lat="47.10411" lon="-2.07946">
        <ele>72</ele>
        <time>2021-07-25T08:49:03.000Z</time>
      </trkpt>
      <trkpt lat="47.10403" lon="-2.07926">
        <ele>72</ele>
        <time>2021-07-25T08:49:05.000Z</time>
      </trkpt>
      <trkpt lat="47.10397" lon="-2.07905">
        <ele>71</ele>
        <time>2021-07-25T08:49:07.000Z</time>
      </trkpt>
      <trkpt lat="47.10393" lon="-2.07883">
        <ele>71</ele>
        <time>2021-07-25T08:49:09.000Z</time>
      </trkpt>
      <trkpt lat="47.10389" lon="-2.07863">
        <ele>71</ele>
        <time>2021-07-25T08:49:11.000Z</time>
      </trkpt>
      <trkpt lat="47.10389" lon="-2.07843">
        <ele>72</ele>
        <time>2021-07-25T08:49:13.000Z</time>
      </trkpt>
      <trkpt lat="47.1039" lon="-2.07823">
        <ele>72</ele>
        <time>2021-07-25T08:49:15.000Z</time>
      </trkpt>
      <trkpt lat="47.10391" lon="-2.07803">
        <ele>72</ele>
        <time>2021-07-25T08:49:17.000Z</time>
      </trkpt>
      <trkpt lat="47.10394" lon="-2.07783">
        <ele>72</ele>
        <time>2021-07-25T08:49:19.000Z</time>
      </trkpt>
      <trkpt lat="47.10398" lon="-2.07764">
        <ele>72</ele>
        <time>2021-07-25T08:49:21.000Z</time>
      </trkpt>
      <trkpt lat="47.10403" lon="-2.07744">
        <ele>72</ele>
        <time>2021-07-25T08:49:23.000Z</time>
      </trkpt>
      <trkpt lat="47.10408" lon="-2.07726">
        <ele>73</ele>
        <time>2021-07-25T08:49:25.000Z</time>
      </trkpt>
      <trkpt lat="47.10413" lon="-2.07708">
        <ele>73</ele>
        <time>2021-07-25T08:49:27.000Z</time>
      </trkpt>
      <trkpt lat="47.10414" lon="-2.07689">
        <ele>73</ele>
        <time>2021-07-25T08:49:29.000Z</time>
      </trkpt>
      <trkpt lat="47.10412" lon="-2.0767">
        <ele>73</ele>
        <time>2021-07-25T08:49:31.000Z</time>
      </trkpt>
      <trkpt lat="47.10409" lon="-2.07653">
        <ele>74</ele>
        <time>2021-07-25T08:49:33.000Z</time>
      </trkpt>
      <trkpt lat="47.10405" lon="-2.07639">
        <ele>73</ele>
        <time>2021-07-25T08:49:35.000Z</time>
      </trkpt>
      <trkpt lat="47.10398" lon="-2.07622">
        <ele>73</ele>
        <time>2021-07-25T08:49:37.000Z</time>
      </trkpt>
      <trkpt lat="47.10393" lon="-2.07603">
        <ele>73</ele>
        <time>2021-07-25T08:49:39.000Z</time>
      </trkpt>
      <trkpt lat="47.10389" lon="-2.07583">
        <ele>73</ele>
        <time>2021-07-25T08:49:41.000Z</time>
      </trkpt>
      <trkpt lat="47.10383" lon="-2.07564">
        <ele>73</ele>
        <time>2021-07-25T08:49:43.000Z</time>
      </trkpt>
      <trkpt lat="47.10378" lon="-2.07545">
        <ele>73</ele>
        <time>2021-07-25T08:49:45.000Z</time>
      </trkpt>
      <trkpt lat="47.10372" lon="-2.07525">
        <ele>71</ele>
        <time>2021-07-25T08:49:47.000Z</time>
      </trkpt>
      <trkpt lat="47.10364" lon="-2.07507">
        <ele>70</ele>
        <time>2021-07-25T08:49:49.000Z</time>
      </trkpt>
      <trkpt lat="47.10355" lon="-2.07488">
        <ele>70</ele>
        <time>2021-07-25T08:49:51.000Z</time>
      </trkpt>
      <trkpt lat="47.10352" lon="-2.07468">
        <ele>69</ele>
        <time>2021-07-25T08:49:53.000Z</time>
      </trkpt>
      <trkpt lat="47.10358" lon="-2.07454">
        <ele>69</ele>
        <time>2021-07-25T08:49:55.000Z</time>
      </trkpt>
      <trkpt lat="47.10364" lon="-2.07437">
        <ele>69</ele>
        <time>2021-07-25T08:49:57.000Z</time>
      </trkpt>
      <trkpt lat="47.10367" lon="-2.07418">
        <ele>70</ele>
        <time>2021-07-25T08:49:59.000Z</time>
      </trkpt>
      <trkpt lat="47.1037" lon="-2.074">
        <ele>71</ele>
        <time>2021-07-25T08:50:01.000Z</time>
      </trkpt>
      <trkpt lat="47.10374" lon="-2.07385">
        <ele>72</ele>
        <time>2021-07-25T08:50:03.000Z</time>
      </trkpt>
      <trkpt lat="47.10376" lon="-2.07372">
        <ele>73</ele>
        <time>2021-07-25T08:50:05.000Z</time>
      </trkpt>
      <trkpt lat="47.10378" lon="-2.07357">
        <ele>74</ele>
        <time>2021-07-25T08:50:07.000Z</time>
      </trkpt>
      <trkpt lat="47.1038" lon="-2.07341">
        <ele>74</ele>
        <time>2021-07-25T08:50:09.000Z</time>
      </trkpt>
      <trkpt lat="47.10382" lon="-2.07328">
        <ele>75</ele>
        <time>2021-07-25T08:50:11.000Z</time>
      </trkpt>
      <trkpt lat="47.10386" lon="-2.07312">
        <ele>76</ele>
        <time>2021-07-25T08:50:13.000Z</time>
      </trkpt>
      <trkpt lat="47.10392" lon="-2.07298">
        <ele>77</ele>
        <time>2021-07-25T08:50:15.000Z</time>
      </trkpt>
      <trkpt lat="47.10399" lon="-2.07285">
        <ele>78</ele>
        <time>2021-07-25T08:50:17.000Z</time>
      </trkpt>
      <trkpt lat="47.10406" lon="-2.07273">
        <ele>79</ele>
        <time>2021-07-25T08:50:19.000Z</time>
      </trkpt>
      <trkpt lat="47.10413" lon="-2.0726">
        <ele>79</ele>
        <time>2021-07-25T08:50:21.000Z</time>
      </trkpt>
      <trkpt lat="47.10419" lon="-2.07247">
        <ele>80</ele>
        <time>2021-07-25T08:50:23.000Z</time>
      </trkpt>
      <trkpt lat="47.10424" lon="-2.07234">
        <ele>80</ele>
        <time>2021-07-25T08:50:25.000Z</time>
      </trkpt>
      <trkpt lat="47.10429" lon="-2.07219">
        <ele>81</ele>
        <time>2021-07-25T08:50:27.000Z</time>
      </trkpt>
      <trkpt lat="47.10434" lon="-2.07205">
        <ele>81</ele>
        <time>2021-07-25T08:50:29.000Z</time>
      </trkpt>
      <trkpt lat="47.10438" lon="-2.0719">
        <ele>81</ele>
        <time>2021-07-25T08:50:31.000Z</time>
      </trkpt>
      <trkpt lat="47.1044" lon="-2.07174">
        <ele>82</ele>
        <time>2021-07-25T08:50:33.000Z</time>
      </trkpt>
      <trkpt lat="47.1044" lon="-2.07158">
        <ele>82</ele>
        <time>2021-07-25T08:50:35.000Z</time>
      </trkpt>
      <trkpt lat="47.1044" lon="-2.07142">
        <ele>82</ele>
        <time>2021-07-25T08:50:37.000Z</time>
      </trkpt>
      <trkpt lat="47.10441" lon="-2.07127">
        <ele>82</ele>
        <time>2021-07-25T08:50:39.000Z</time>
      </trkpt>
      <trkpt lat="47.10442" lon="-2.07111">
        <ele>82</ele>
        <time>2021-07-25T08:50:41.000Z</time>
      </trkpt>
      <trkpt lat="47.10443" lon="-2.07095">
        <ele>83</ele>
        <time>2021-07-25T08:50:43.000Z</time>
      </trkpt>
      <trkpt lat="47.10445" lon="-2.07081">
        <ele>83</ele>
        <time>2021-07-25T08:50:45.000Z</time>
      </trkpt>
      <trkpt lat="47.10448" lon="-2.07065">
        <ele>83</ele>
        <time>2021-07-25T08:50:47.000Z</time>
      </trkpt>
      <trkpt lat="47.10452" lon="-2.0705">
        <ele>82</ele>
        <time>2021-07-25T08:50:49.000Z</time>
      </trkpt>
      <trkpt lat="47.10456" lon="-2.07035">
        <ele>82</ele>
        <time>2021-07-25T08:50:51.000Z</time>
      </trkpt>
      <trkpt lat="47.1046" lon="-2.0702">
        <ele>82</ele>
        <time>2021-07-25T08:50:53.000Z</time>
      </trkpt>
      <trkpt lat="47.10464" lon="-2.07005">
        <ele>82</ele>
        <time>2021-07-25T08:50:55.000Z</time>
      </trkpt>
      <trkpt lat="47.10469" lon="-2.06991">
        <ele>83</ele>
        <time>2021-07-25T08:50:57.000Z</time>
      </trkpt>
      <trkpt lat="47.10474" lon="-2.06977">
        <ele>83</ele>
        <time>2021-07-25T08:50:59.000Z</time>
      </trkpt>
      <trkpt lat="47.10479" lon="-2.06963">
        <ele>83</ele>
        <time>2021-07-25T08:51:01.000Z</time>
      </trkpt>
      <trkpt lat="47.10484" lon="-2.0695">
        <ele>83</ele>
        <time>2021-07-25T08:51:03.000Z</time>
      </trkpt>
      <trkpt lat="47.1049" lon="-2.06937">
        <ele>83</ele>
        <time>2021-07-25T08:51:05.000Z</time>
      </trkpt>
      <trkpt lat="47.10495" lon="-2.06923">
        <ele>84</ele>
        <time>2021-07-25T08:51:07.000Z</time>
      </trkpt>
      <trkpt lat="47.105" lon="-2.06912">
        <ele>84</ele>
        <time>2021-07-25T08:51:09.000Z</time>
      </trkpt>
      <trkpt lat="47.10502" lon="-2.06898">
        <ele>84</ele>
        <time>2021-07-25T08:51:11.000Z</time>
      </trkpt>
      <trkpt lat="47.10498" lon="-2.06883">
        <ele>84</ele>
        <time>2021-07-25T08:51:13.000Z</time>
      </trkpt>
      <trkpt lat="47.10494" lon="-2.06867">
        <ele>84</ele>
        <time>2021-07-25T08:51:15.000Z</time>
      </trkpt>
      <trkpt lat="47.1049" lon="-2.06851">
        <ele>84</ele>
        <time>2021-07-25T08:51:17.000Z</time>
      </trkpt>
      <trkpt lat="47.10485" lon="-2.06835">
        <ele>84</ele>
        <time>2021-07-25T08:51:19.000Z</time>
      </trkpt>
      <trkpt lat="47.10481" lon="-2.06819">
        <ele>85</ele>
        <time>2021-07-25T08:51:21.000Z</time>
      </trkpt>
      <trkpt lat="47.10476" lon="-2.06803">
        <ele>85</ele>
        <time>2021-07-25T08:51:23.000Z</time>
      </trkpt>
      <trkpt lat="47.10472" lon="-2.06788">
        <ele>85</ele>
        <time>2021-07-25T08:51:25.000Z</time>
      </trkpt>
      <trkpt lat="47.10467" lon="-2.06771">
        <ele>85</ele>
        <time>2021-07-25T08:51:27.000Z</time>
      </trkpt>
      <trkpt lat="47.10463" lon="-2.06755">
        <ele>85</ele>
        <time>2021-07-25T08:51:29.000Z</time>
      </trkpt>
      <trkpt lat="47.10458" lon="-2.06738">
        <ele>85</ele>
        <time>2021-07-25T08:51:31.000Z</time>
      </trkpt>
      <trkpt lat="47.10453" lon="-2.06721">
        <ele>85</ele>
        <time>2021-07-25T08:51:33.000Z</time>
      </trkpt>
      <trkpt lat="47.10448" lon="-2.06704">
        <ele>86</ele>
        <time>2021-07-25T08:51:35.000Z</time>
      </trkpt>
      <trkpt lat="47.10443" lon="-2.06687">
        <ele>85</ele>
        <time>2021-07-25T08:51:37.000Z</time>
      </trkpt>
      <trkpt lat="47.10438" lon="-2.0667">
        <ele>85</ele>
        <time>2021-07-25T08:51:39.000Z</time>
      </trkpt>
      <trkpt lat="47.10434" lon="-2.06654">
        <ele>85</ele>
        <time>2021-07-25T08:51:41.000Z</time>
      </trkpt>
      <trkpt lat="47.10429" lon="-2.06637">
        <ele>85</ele>
        <time>2021-07-25T08:51:43.000Z</time>
      </trkpt>
      <trkpt lat="47.10423" lon="-2.06614">
        <ele>85</ele>
        <time>2021-07-25T08:51:46.000Z</time>
      </trkpt>
      <trkpt lat="47.10416" lon="-2.06598">
        <ele>86</ele>
        <time>2021-07-25T08:51:48.000Z</time>
      </trkpt>
      <trkpt lat="47.1041" lon="-2.06569">
        <ele>86</ele>
        <time>2021-07-25T08:51:51.000Z</time>
      </trkpt>
      <trkpt lat="47.10404" lon="-2.06552">
        <ele>86</ele>
        <time>2021-07-25T08:51:53.000Z</time>
      </trkpt>
      <trkpt lat="47.10399" lon="-2.06534">
        <ele>86</ele>
        <time>2021-07-25T08:51:55.000Z</time>
      </trkpt>
      <trkpt lat="47.10394" lon="-2.06515">
        <ele>86</ele>
        <time>2021-07-25T08:51:57.000Z</time>
      </trkpt>
      <trkpt lat="47.10388" lon="-2.06496">
        <ele>86</ele>
        <time>2021-07-25T08:51:59.000Z</time>
      </trkpt>
      <trkpt lat="47.10383" lon="-2.06478">
        <ele>86</ele>
        <time>2021-07-25T08:52:01.000Z</time>
      </trkpt>
      <trkpt lat="47.10378" lon="-2.06459">
        <ele>86</ele>
        <time>2021-07-25T08:52:03.000Z</time>
      </trkpt>
      <trkpt lat="47.10372" lon="-2.0644">
        <ele>85</ele>
        <time>2021-07-25T08:52:05.000Z</time>
      </trkpt>
      <trkpt lat="47.10367" lon="-2.06421">
        <ele>85</ele>
        <time>2021-07-25T08:52:07.000Z</time>
      </trkpt>
      <trkpt lat="47.10361" lon="-2.06402">
        <ele>85</ele>
        <time>2021-07-25T08:52:09.000Z</time>
      </trkpt>
      <trkpt lat="47.10355" lon="-2.06383">
        <ele>86</ele>
        <time>2021-07-25T08:52:11.000Z</time>
      </trkpt>
      <trkpt lat="47.1035" lon="-2.06365">
        <ele>86</ele>
        <time>2021-07-25T08:52:13.000Z</time>
      </trkpt>
      <trkpt lat="47.10344" lon="-2.06346">
        <ele>86</ele>
        <time>2021-07-25T08:52:15.000Z</time>
      </trkpt>
      <trkpt lat="47.10339" lon="-2.06327">
        <ele>86</ele>
        <time>2021-07-25T08:52:17.000Z</time>
      </trkpt>
      <trkpt lat="47.10334" lon="-2.0631">
        <ele>86</ele>
        <time>2021-07-25T08:52:19.000Z</time>
      </trkpt>
      <trkpt lat="47.10329" lon="-2.06291">
        <ele>87</ele>
        <time>2021-07-25T08:52:21.000Z</time>
      </trkpt>
      <trkpt lat="47.10324" lon="-2.06273">
        <ele>87</ele>
        <time>2021-07-25T08:52:23.000Z</time>
      </trkpt>
      <trkpt lat="47.10318" lon="-2.06253">
        <ele>87</ele>
        <time>2021-07-25T08:52:25.000Z</time>
      </trkpt>
      <trkpt lat="47.10313" lon="-2.06235">
        <ele>87</ele>
        <time>2021-07-25T08:52:27.000Z</time>
      </trkpt>
      <trkpt lat="47.10308" lon="-2.06217">
        <ele>88</ele>
        <time>2021-07-25T08:52:29.000Z</time>
      </trkpt>
      <trkpt lat="47.10302" lon="-2.06198">
        <ele>88</ele>
        <time>2021-07-25T08:52:31.000Z</time>
      </trkpt>
      <trkpt lat="47.10296" lon="-2.0618">
        <ele>88</ele>
        <time>2021-07-25T08:52:33.000Z</time>
      </trkpt>
      <trkpt lat="47.1029" lon="-2.06161">
        <ele>87</ele>
        <time>2021-07-25T08:52:35.000Z</time>
      </trkpt>
      <trkpt lat="47.10285" lon="-2.06143">
        <ele>88</ele>
        <time>2021-07-25T08:52:37.000Z</time>
      </trkpt>
      <trkpt lat="47.10279" lon="-2.06125">
        <ele>88</ele>
        <time>2021-07-25T08:52:39.000Z</time>
      </trkpt>
      <trkpt lat="47.10273" lon="-2.06108">
        <ele>88</ele>
        <time>2021-07-25T08:52:41.000Z</time>
      </trkpt>
      <trkpt lat="47.10268" lon="-2.06091">
        <ele>88</ele>
        <time>2021-07-25T08:52:43.000Z</time>
      </trkpt>
      <trkpt lat="47.10262" lon="-2.06073">
        <ele>88</ele>
        <time>2021-07-25T08:52:45.000Z</time>
      </trkpt>
      <trkpt lat="47.10256" lon="-2.06055">
        <ele>89</ele>
        <time>2021-07-25T08:52:47.000Z</time>
      </trkpt>
      <trkpt lat="47.1025" lon="-2.06037">
        <ele>89</ele>
        <time>2021-07-25T08:52:49.000Z</time>
      </trkpt>
      <trkpt lat="47.10244" lon="-2.06019">
        <ele>89</ele>
        <time>2021-07-25T08:52:51.000Z</time>
      </trkpt>
      <trkpt lat="47.10238" lon="-2.06002">
        <ele>89</ele>
        <time>2021-07-25T08:52:53.000Z</time>
      </trkpt>
      <trkpt lat="47.10232" lon="-2.05984">
        <ele>89</ele>
        <time>2021-07-25T08:52:55.000Z</time>
      </trkpt>
      <trkpt lat="47.10227" lon="-2.05967">
        <ele>89</ele>
        <time>2021-07-25T08:52:57.000Z</time>
      </trkpt>
      <trkpt lat="47.10222" lon="-2.05949">
        <ele>89</ele>
        <time>2021-07-25T08:52:59.000Z</time>
      </trkpt>
      <trkpt lat="47.10216" lon="-2.05932">
        <ele>89</ele>
        <time>2021-07-25T08:53:01.000Z</time>
      </trkpt>
      <trkpt lat="47.10209" lon="-2.05914">
        <ele>89</ele>
        <time>2021-07-25T08:53:03.000Z</time>
      </trkpt>
      <trkpt lat="47.10204" lon="-2.05896">
        <ele>88</ele>
        <time>2021-07-25T08:53:05.000Z</time>
      </trkpt>
      <trkpt lat="47.10198" lon="-2.05879">
        <ele>88</ele>
        <time>2021-07-25T08:53:07.000Z</time>
      </trkpt>
      <trkpt lat="47.10192" lon="-2.05861">
        <ele>88</ele>
        <time>2021-07-25T08:53:09.000Z</time>
      </trkpt>
      <trkpt lat="47.10187" lon="-2.05844">
        <ele>88</ele>
        <time>2021-07-25T08:53:11.000Z</time>
      </trkpt>
      <trkpt lat="47.10181" lon="-2.05827">
        <ele>88</ele>
        <time>2021-07-25T08:53:13.000Z</time>
      </trkpt>
      <trkpt lat="47.10175" lon="-2.05809">
        <ele>88</ele>
        <time>2021-07-25T08:53:15.000Z</time>
      </trkpt>
      <trkpt lat="47.10168" lon="-2.05791">
        <ele>88</ele>
        <time>2021-07-25T08:53:17.000Z</time>
      </trkpt>
      <trkpt lat="47.10162" lon="-2.05774">
        <ele>88</ele>
        <time>2021-07-25T08:53:19.000Z</time>
      </trkpt>
      <trkpt lat="47.10156" lon="-2.05756">
        <ele>88</ele>
        <time>2021-07-25T08:53:21.000Z</time>
      </trkpt>
      <trkpt lat="47.1015" lon="-2.05738">
        <ele>89</ele>
        <time>2021-07-25T08:53:23.000Z</time>
      </trkpt>
      <trkpt lat="47.10145" lon="-2.05721">
        <ele>89</ele>
        <time>2021-07-25T08:53:25.000Z</time>
      </trkpt>
      <trkpt lat="47.10139" lon="-2.05703">
        <ele>90</ele>
        <time>2021-07-25T08:53:27.000Z</time>
      </trkpt>
      <trkpt lat="47.10134" lon="-2.05686">
        <ele>90</ele>
        <time>2021-07-25T08:53:29.000Z</time>
      </trkpt>
      <trkpt lat="47.10127" lon="-2.05667">
        <ele>90</ele>
        <time>2021-07-25T08:53:31.000Z</time>
      </trkpt>
      <trkpt lat="47.10121" lon="-2.05649">
        <ele>90</ele>
        <time>2021-07-25T08:53:33.000Z</time>
      </trkpt>
      <trkpt lat="47.10115" lon="-2.0563">
        <ele>90</ele>
        <time>2021-07-25T08:53:35.000Z</time>
      </trkpt>
      <trkpt lat="47.10109" lon="-2.05612">
        <ele>90</ele>
        <time>2021-07-25T08:53:37.000Z</time>
      </trkpt>
      <trkpt lat="47.10103" lon="-2.05594">
        <ele>90</ele>
        <time>2021-07-25T08:53:39.000Z</time>
      </trkpt>
      <trkpt lat="47.10097" lon="-2.05576">
        <ele>90</ele>
        <time>2021-07-25T08:53:41.000Z</time>
      </trkpt>
      <trkpt lat="47.1009" lon="-2.05558">
        <ele>90</ele>
        <time>2021-07-25T08:53:43.000Z</time>
      </trkpt>
      <trkpt lat="47.10084" lon="-2.05539">
        <ele>90</ele>
        <time>2021-07-25T08:53:45.000Z</time>
      </trkpt>
      <trkpt lat="47.10079" lon="-2.0552">
        <ele>90</ele>
        <time>2021-07-25T08:53:47.000Z</time>
      </trkpt>
      <trkpt lat="47.10072" lon="-2.05502">
        <ele>90</ele>
        <time>2021-07-25T08:53:49.000Z</time>
      </trkpt>
      <trkpt lat="47.10066" lon="-2.05484">
        <ele>90</ele>
        <time>2021-07-25T08:53:51.000Z</time>
      </trkpt>
      <trkpt lat="47.1006" lon="-2.05466">
        <ele>90</ele>
        <time>2021-07-25T08:53:53.000Z</time>
      </trkpt>
      <trkpt lat="47.10054" lon="-2.05449">
        <ele>90</ele>
        <time>2021-07-25T08:53:55.000Z</time>
      </trkpt>
      <trkpt lat="47.10048" lon="-2.05429">
        <ele>89</ele>
        <time>2021-07-25T08:53:57.000Z</time>
      </trkpt>
      <trkpt lat="47.10042" lon="-2.05411">
        <ele>89</ele>
        <time>2021-07-25T08:53:59.000Z</time>
      </trkpt>
      <trkpt lat="47.10036" lon="-2.05392">
        <ele>89</ele>
        <time>2021-07-25T08:54:01.000Z</time>
      </trkpt>
      <trkpt lat="47.1003" lon="-2.05375">
        <ele>89</ele>
        <time>2021-07-25T08:54:03.000Z</time>
      </trkpt>
      <trkpt lat="47.10024" lon="-2.05356">
        <ele>90</ele>
        <time>2021-07-25T08:54:05.000Z</time>
      </trkpt>
      <trkpt lat="47.10018" lon="-2.05337">
        <ele>90</ele>
        <time>2021-07-25T08:54:07.000Z</time>
      </trkpt>
      <trkpt lat="47.10012" lon="-2.05319">
        <ele>90</ele>
        <time>2021-07-25T08:54:09.000Z</time>
      </trkpt>
      <trkpt lat="47.10006" lon="-2.05301">
        <ele>90</ele>
        <time>2021-07-25T08:54:11.000Z</time>
      </trkpt>
      <trkpt lat="47.1" lon="-2.05282">
        <ele>89</ele>
        <time>2021-07-25T08:54:13.000Z</time>
      </trkpt>
      <trkpt lat="47.09994" lon="-2.05263">
        <ele>88</ele>
        <time>2021-07-25T08:54:15.000Z</time>
      </trkpt>
      <trkpt lat="47.09987" lon="-2.05245">
        <ele>88</ele>
        <time>2021-07-25T08:54:17.000Z</time>
      </trkpt>
      <trkpt lat="47.09981" lon="-2.05226">
        <ele>87</ele>
        <time>2021-07-25T08:54:19.000Z</time>
      </trkpt>
      <trkpt lat="47.09975" lon="-2.05208">
        <ele>87</ele>
        <time>2021-07-25T08:54:21.000Z</time>
      </trkpt>
      <trkpt lat="47.09969" lon="-2.0519">
        <ele>87</ele>
        <time>2021-07-25T08:54:23.000Z</time>
      </trkpt>
      <trkpt lat="47.09963" lon="-2.05171">
        <ele>87</ele>
        <time>2021-07-25T08:54:25.000Z</time>
      </trkpt>
      <trkpt lat="47.09958" lon="-2.05153">
        <ele>87</ele>
        <time>2021-07-25T08:54:27.000Z</time>
      </trkpt>
      <trkpt lat="47.09952" lon="-2.05134">
        <ele>87</ele>
        <time>2021-07-25T08:54:29.000Z</time>
      </trkpt>
      <trkpt lat="47.09945" lon="-2.05116">
        <ele>87</ele>
        <time>2021-07-25T08:54:31.000Z</time>
      </trkpt>
      <trkpt lat="47.09939" lon="-2.05097">
        <ele>86</ele>
        <time>2021-07-25T08:54:33.000Z</time>
      </trkpt>
      <trkpt lat="47.09933" lon="-2.05079">
        <ele>86</ele>
        <time>2021-07-25T08:54:35.000Z</time>
      </trkpt>
      <trkpt lat="47.09927" lon="-2.05061">
        <ele>86</ele>
        <time>2021-07-25T08:54:37.000Z</time>
      </trkpt>
      <trkpt lat="47.09921" lon="-2.05042">
        <ele>86</ele>
        <time>2021-07-25T08:54:39.000Z</time>
      </trkpt>
      <trkpt lat="47.09914" lon="-2.05023">
        <ele>86</ele>
        <time>2021-07-25T08:54:41.000Z</time>
      </trkpt>
      <trkpt lat="47.09909" lon="-2.05004">
        <ele>85</ele>
        <time>2021-07-25T08:54:43.000Z</time>
      </trkpt>
      <trkpt lat="47.09903" lon="-2.04985">
        <ele>86</ele>
        <time>2021-07-25T08:54:45.000Z</time>
      </trkpt>
      <trkpt lat="47.09896" lon="-2.04965">
        <ele>85</ele>
        <time>2021-07-25T08:54:47.000Z</time>
      </trkpt>
      <trkpt lat="47.0989" lon="-2.04945">
        <ele>85</ele>
        <time>2021-07-25T08:54:49.000Z</time>
      </trkpt>
      <trkpt lat="47.09884" lon="-2.04925">
        <ele>85</ele>
        <time>2021-07-25T08:54:51.000Z</time>
      </trkpt>
      <trkpt lat="47.09877" lon="-2.04904">
        <ele>84</ele>
        <time>2021-07-25T08:54:53.000Z</time>
      </trkpt>
      <trkpt lat="47.09871" lon="-2.04884">
        <ele>85</ele>
        <time>2021-07-25T08:54:55.000Z</time>
      </trkpt>
      <trkpt lat="47.09865" lon="-2.04864">
        <ele>84</ele>
        <time>2021-07-25T08:54:57.000Z</time>
      </trkpt>
      <trkpt lat="47.09859" lon="-2.04843">
        <ele>84</ele>
        <time>2021-07-25T08:54:59.000Z</time>
      </trkpt>
      <trkpt lat="47.09854" lon="-2.04822">
        <ele>84</ele>
        <time>2021-07-25T08:55:01.000Z</time>
      </trkpt>
      <trkpt lat="47.09849" lon="-2.04802">
        <ele>83</ele>
        <time>2021-07-25T08:55:03.000Z</time>
      </trkpt>
      <trkpt lat="47.09844" lon="-2.04782">
        <ele>84</ele>
        <time>2021-07-25T08:55:05.000Z</time>
      </trkpt>
      <trkpt lat="47.09839" lon="-2.04763">
        <ele>83</ele>
        <time>2021-07-25T08:55:07.000Z</time>
      </trkpt>
      <trkpt lat="47.09833" lon="-2.04744">
        <ele>83</ele>
        <time>2021-07-25T08:55:09.000Z</time>
      </trkpt>
      <trkpt lat="47.09826" lon="-2.04726">
        <ele>83</ele>
        <time>2021-07-25T08:55:11.000Z</time>
      </trkpt>
      <trkpt lat="47.09816" lon="-2.04711">
        <ele>84</ele>
        <time>2021-07-25T08:55:13.000Z</time>
      </trkpt>
      <trkpt lat="47.09805" lon="-2.04699">
        <ele>84</ele>
        <time>2021-07-25T08:55:15.000Z</time>
      </trkpt>
      <trkpt lat="47.09793" lon="-2.04689">
        <ele>83</ele>
        <time>2021-07-25T08:55:17.000Z</time>
      </trkpt>
      <trkpt lat="47.0978" lon="-2.04681">
        <ele>83</ele>
        <time>2021-07-25T08:55:19.000Z</time>
      </trkpt>
      <trkpt lat="47.09766" lon="-2.04676">
        <ele>83</ele>
        <time>2021-07-25T08:55:21.000Z</time>
      </trkpt>
      <trkpt lat="47.09751" lon="-2.04673">
        <ele>82</ele>
        <time>2021-07-25T08:55:23.000Z</time>
      </trkpt>
      <trkpt lat="47.09737" lon="-2.0467">
        <ele>82</ele>
        <time>2021-07-25T08:55:25.000Z</time>
      </trkpt>
      <trkpt lat="47.09723" lon="-2.04666">
        <ele>82</ele>
        <time>2021-07-25T08:55:27.000Z</time>
      </trkpt>
      <trkpt lat="47.09709" lon="-2.04662">
        <ele>83</ele>
        <time>2021-07-25T08:55:29.000Z</time>
      </trkpt>
      <trkpt lat="47.09695" lon="-2.04658">
        <ele>83</ele>
        <time>2021-07-25T08:55:31.000Z</time>
      </trkpt>
      <trkpt lat="47.09682" lon="-2.04655">
        <ele>84</ele>
        <time>2021-07-25T08:55:33.000Z</time>
      </trkpt>
      <trkpt lat="47.09668" lon="-2.04651">
        <ele>84</ele>
        <time>2021-07-25T08:55:35.000Z</time>
      </trkpt>
      <trkpt lat="47.09655" lon="-2.04647">
        <ele>84</ele>
        <time>2021-07-25T08:55:37.000Z</time>
      </trkpt>
      <trkpt lat="47.09642" lon="-2.04643">
        <ele>84</ele>
        <time>2021-07-25T08:55:39.000Z</time>
      </trkpt>
      <trkpt lat="47.09629" lon="-2.04639">
        <ele>83</ele>
        <time>2021-07-25T08:55:41.000Z</time>
      </trkpt>
      <trkpt lat="47.09615" lon="-2.04635">
        <ele>84</ele>
        <time>2021-07-25T08:55:43.000Z</time>
      </trkpt>
      <trkpt lat="47.09601" lon="-2.04631">
        <ele>84</ele>
        <time>2021-07-25T08:55:45.000Z</time>
      </trkpt>
      <trkpt lat="47.09588" lon="-2.04627">
        <ele>84</ele>
        <time>2021-07-25T08:55:47.000Z</time>
      </trkpt>
      <trkpt lat="47.09575" lon="-2.04623">
        <ele>84</ele>
        <time>2021-07-25T08:55:49.000Z</time>
      </trkpt>
      <trkpt lat="47.09562" lon="-2.04619">
        <ele>85</ele>
        <time>2021-07-25T08:55:51.000Z</time>
      </trkpt>
      <trkpt lat="47.09549" lon="-2.04616">
        <ele>85</ele>
        <time>2021-07-25T08:55:53.000Z</time>
      </trkpt>
      <trkpt lat="47.09536" lon="-2.04613">
        <ele>84</ele>
        <time>2021-07-25T08:55:55.000Z</time>
      </trkpt>
      <trkpt lat="47.09523" lon="-2.04609">
        <ele>84</ele>
        <time>2021-07-25T08:55:57.000Z</time>
      </trkpt>
      <trkpt lat="47.0951" lon="-2.04604">
        <ele>84</ele>
        <time>2021-07-25T08:55:59.000Z</time>
      </trkpt>
      <trkpt lat="47.09496" lon="-2.046">
        <ele>83</ele>
        <time>2021-07-25T08:56:01.000Z</time>
      </trkpt>
      <trkpt lat="47.09483" lon="-2.04597">
        <ele>83</ele>
        <time>2021-07-25T08:56:03.000Z</time>
      </trkpt>
      <trkpt lat="47.09468" lon="-2.04593">
        <ele>82</ele>
        <time>2021-07-25T08:56:05.000Z</time>
      </trkpt>
      <trkpt lat="47.09454" lon="-2.04589">
        <ele>82</ele>
        <time>2021-07-25T08:56:07.000Z</time>
      </trkpt>
      <trkpt lat="47.09439" lon="-2.04585">
        <ele>81</ele>
        <time>2021-07-25T08:56:09.000Z</time>
      </trkpt>
      <trkpt lat="47.09423" lon="-2.04582">
        <ele>81</ele>
        <time>2021-07-25T08:56:11.000Z</time>
      </trkpt>
      <trkpt lat="47.09407" lon="-2.0458">
        <ele>80</ele>
        <time>2021-07-25T08:56:13.000Z</time>
      </trkpt>
      <trkpt lat="47.09391" lon="-2.0458">
        <ele>80</ele>
        <time>2021-07-25T08:56:15.000Z</time>
      </trkpt>
      <trkpt lat="47.09375" lon="-2.04583">
        <ele>80</ele>
        <time>2021-07-25T08:56:17.000Z</time>
      </trkpt>
      <trkpt lat="47.0936" lon="-2.04586">
        <ele>80</ele>
        <time>2021-07-25T08:56:19.000Z</time>
      </trkpt>
      <trkpt lat="47.09344" lon="-2.04589">
        <ele>80</ele>
        <time>2021-07-25T08:56:21.000Z</time>
      </trkpt>
      <trkpt lat="47.0933" lon="-2.04598">
        <ele>80</ele>
        <time>2021-07-25T08:56:23.000Z</time>
      </trkpt>
      <trkpt lat="47.09317" lon="-2.04606">
        <ele>80</ele>
        <time>2021-07-25T08:56:25.000Z</time>
      </trkpt>
      <trkpt lat="47.09305" lon="-2.04618">
        <ele>80</ele>
        <time>2021-07-25T08:56:27.000Z</time>
      </trkpt>
      <trkpt lat="47.09293" lon="-2.04629">
        <ele>80</ele>
        <time>2021-07-25T08:56:29.000Z</time>
      </trkpt>
      <trkpt lat="47.09281" lon="-2.04639">
        <ele>80</ele>
        <time>2021-07-25T08:56:31.000Z</time>
      </trkpt>
      <trkpt lat="47.0927" lon="-2.04649">
        <ele>80</ele>
        <time>2021-07-25T08:56:33.000Z</time>
      </trkpt>
      <trkpt lat="47.09259" lon="-2.04659">
        <ele>80</ele>
        <time>2021-07-25T08:56:35.000Z</time>
      </trkpt>
      <trkpt lat="47.09247" lon="-2.04667">
        <ele>80</ele>
        <time>2021-07-25T08:56:37.000Z</time>
      </trkpt>
      <trkpt lat="47.09235" lon="-2.04678">
        <ele>80</ele>
        <time>2021-07-25T08:56:39.000Z</time>
      </trkpt>
      <trkpt lat="47.09224" lon="-2.04688">
        <ele>81</ele>
        <time>2021-07-25T08:56:41.000Z</time>
      </trkpt>
      <trkpt lat="47.09213" lon="-2.04698">
        <ele>81</ele>
        <time>2021-07-25T08:56:43.000Z</time>
      </trkpt>
      <trkpt lat="47.09202" lon="-2.04707">
        <ele>81</ele>
        <time>2021-07-25T08:56:45.000Z</time>
      </trkpt>
      <trkpt lat="47.09192" lon="-2.04716">
        <ele>81</ele>
        <time>2021-07-25T08:56:47.000Z</time>
      </trkpt>
      <trkpt lat="47.09181" lon="-2.04724">
        <ele>81</ele>
        <time>2021-07-25T08:56:49.000Z</time>
      </trkpt>
      <trkpt lat="47.09171" lon="-2.04733">
        <ele>81</ele>
        <time>2021-07-25T08:56:51.000Z</time>
      </trkpt>
      <trkpt lat="47.09161" lon="-2.04742">
        <ele>81</ele>
        <time>2021-07-25T08:56:53.000Z</time>
      </trkpt>
      <trkpt lat="47.09151" lon="-2.04751">
        <ele>81</ele>
        <time>2021-07-25T08:56:55.000Z</time>
      </trkpt>
      <trkpt lat="47.09141" lon="-2.0476">
        <ele>82</ele>
        <time>2021-07-25T08:56:57.000Z</time>
      </trkpt>
      <trkpt lat="47.09131" lon="-2.04768">
        <ele>82</ele>
        <time>2021-07-25T08:56:59.000Z</time>
      </trkpt>
      <trkpt lat="47.09121" lon="-2.04776">
        <ele>81</ele>
        <time>2021-07-25T08:57:01.000Z</time>
      </trkpt>
      <trkpt lat="47.09112" lon="-2.04784">
        <ele>82</ele>
        <time>2021-07-25T08:57:03.000Z</time>
      </trkpt>
      <trkpt lat="47.09101" lon="-2.04792">
        <ele>82</ele>
        <time>2021-07-25T08:57:05.000Z</time>
      </trkpt>
      <trkpt lat="47.0909" lon="-2.048">
        <ele>81</ele>
        <time>2021-07-25T08:57:07.000Z</time>
      </trkpt>
      <trkpt lat="47.0908" lon="-2.04808">
        <ele>80</ele>
        <time>2021-07-25T08:57:09.000Z</time>
      </trkpt>
      <trkpt lat="47.09068" lon="-2.04815">
        <ele>80</ele>
        <time>2021-07-25T08:57:11.000Z</time>
      </trkpt>
      <trkpt lat="47.09056" lon="-2.04822">
        <ele>81</ele>
        <time>2021-07-25T08:57:13.000Z</time>
      </trkpt>
      <trkpt lat="47.09043" lon="-2.04826">
        <ele>81</ele>
        <time>2021-07-25T08:57:15.000Z</time>
      </trkpt>
      <trkpt lat="47.09031" lon="-2.0483">
        <ele>82</ele>
        <time>2021-07-25T08:57:17.000Z</time>
      </trkpt>
      <trkpt lat="47.09019" lon="-2.04834">
        <ele>82</ele>
        <time>2021-07-25T08:57:19.000Z</time>
      </trkpt>
      <trkpt lat="47.09003" lon="-2.04833">
        <ele>82</ele>
        <time>2021-07-25T08:57:21.000Z</time>
      </trkpt>
      <trkpt lat="47.08988" lon="-2.04832">
        <ele>81</ele>
        <time>2021-07-25T08:57:23.000Z</time>
      </trkpt>
      <trkpt lat="47.08973" lon="-2.04829">
        <ele>81</ele>
        <time>2021-07-25T08:57:25.000Z</time>
      </trkpt>
      <trkpt lat="47.08959" lon="-2.04824">
        <ele>80</ele>
        <time>2021-07-25T08:57:27.000Z</time>
      </trkpt>
      <trkpt lat="47.08944" lon="-2.04817">
        <ele>80</ele>
        <time>2021-07-25T08:57:29.000Z</time>
      </trkpt>
      <trkpt lat="47.08931" lon="-2.04809">
        <ele>79</ele>
        <time>2021-07-25T08:57:31.000Z</time>
      </trkpt>
      <trkpt lat="47.08918" lon="-2.04801">
        <ele>78</ele>
        <time>2021-07-25T08:57:33.000Z</time>
      </trkpt>
      <trkpt lat="47.08905" lon="-2.04791">
        <ele>78</ele>
        <time>2021-07-25T08:57:35.000Z</time>
      </trkpt>
      <trkpt lat="47.08893" lon="-2.04779">
        <ele>77</ele>
        <time>2021-07-25T08:57:37.000Z</time>
      </trkpt>
      <trkpt lat="47.0888" lon="-2.04768">
        <ele>77</ele>
        <time>2021-07-25T08:57:39.000Z</time>
      </trkpt>
      <trkpt lat="47.08869" lon="-2.04756">
        <ele>76</ele>
        <time>2021-07-25T08:57:41.000Z</time>
      </trkpt>
      <trkpt lat="47.08857" lon="-2.04743">
        <ele>75</ele>
        <time>2021-07-25T08:57:43.000Z</time>
      </trkpt>
      <trkpt lat="47.08845" lon="-2.0473">
        <ele>75</ele>
        <time>2021-07-25T08:57:45.000Z</time>
      </trkpt>
      <trkpt lat="47.08833" lon="-2.04717">
        <ele>74</ele>
        <time>2021-07-25T08:57:47.000Z</time>
      </trkpt>
      <trkpt lat="47.08821" lon="-2.04704">
        <ele>74</ele>
        <time>2021-07-25T08:57:49.000Z</time>
      </trkpt>
      <trkpt lat="47.08808" lon="-2.04692">
        <ele>75</ele>
        <time>2021-07-25T08:57:51.000Z</time>
      </trkpt>
      <trkpt lat="47.08796" lon="-2.0468">
        <ele>75</ele>
        <time>2021-07-25T08:57:53.000Z</time>
      </trkpt>
      <trkpt lat="47.08783" lon="-2.04666">
        <ele>74</ele>
        <time>2021-07-25T08:57:55.000Z</time>
      </trkpt>
      <trkpt lat="47.08769" lon="-2.04651">
        <ele>73</ele>
        <time>2021-07-25T08:57:57.000Z</time>
      </trkpt>
      <trkpt lat="47.08757" lon="-2.04638">
        <ele>72</ele>
        <time>2021-07-25T08:57:59.000Z</time>
      </trkpt>
      <trkpt lat="47.08744" lon="-2.04624">
        <ele>71</ele>
        <time>2021-07-25T08:58:01.000Z</time>
      </trkpt>
      <trkpt lat="47.08731" lon="-2.0461">
        <ele>71</ele>
        <time>2021-07-25T08:58:03.000Z</time>
      </trkpt>
      <trkpt lat="47.08718" lon="-2.04596">
        <ele>71</ele>
        <time>2021-07-25T08:58:05.000Z</time>
      </trkpt>
      <trkpt lat="47.08705" lon="-2.04582">
        <ele>70</ele>
        <time>2021-07-25T08:58:07.000Z</time>
      </trkpt>
      <trkpt lat="47.08693" lon="-2.04569">
        <ele>69</ele>
        <time>2021-07-25T08:58:09.000Z</time>
      </trkpt>
      <trkpt lat="47.08684" lon="-2.04561">
        <ele>69</ele>
        <time>2021-07-25T08:58:11.000Z</time>
      </trkpt>
      <trkpt lat="47.08677" lon="-2.04552">
        <ele>69</ele>
        <time>2021-07-25T08:58:14.000Z</time>
      </trkpt>
      <trkpt lat="47.08668" lon="-2.04544">
        <ele>69</ele>
        <time>2021-07-25T08:58:16.000Z</time>
      </trkpt>
      <trkpt lat="47.08658" lon="-2.04534">
        <ele>69</ele>
        <time>2021-07-25T08:58:18.000Z</time>
      </trkpt>
      <trkpt lat="47.08647" lon="-2.04524">
        <ele>69</ele>
        <time>2021-07-25T08:58:20.000Z</time>
      </trkpt>
      <trkpt lat="47.08636" lon="-2.04512">
        <ele>69</ele>
        <time>2021-07-25T08:58:22.000Z</time>
      </trkpt>
      <trkpt lat="47.08625" lon="-2.04501">
        <ele>69</ele>
        <time>2021-07-25T08:58:24.000Z</time>
      </trkpt>
      <trkpt lat="47.08614" lon="-2.0449">
        <ele>69</ele>
        <time>2021-07-25T08:58:26.000Z</time>
      </trkpt>
      <trkpt lat="47.08604" lon="-2.04479">
        <ele>70</ele>
        <time>2021-07-25T08:58:28.000Z</time>
      </trkpt>
      <trkpt lat="47.08594" lon="-2.04468">
        <ele>70</ele>
        <time>2021-07-25T08:58:30.000Z</time>
      </trkpt>
      <trkpt lat="47.08584" lon="-2.04455">
        <ele>70</ele>
        <time>2021-07-25T08:58:32.000Z</time>
      </trkpt>
      <trkpt lat="47.08575" lon="-2.04443">
        <ele>71</ele>
        <time>2021-07-25T08:58:34.000Z</time>
      </trkpt>
      <trkpt lat="47.08566" lon="-2.04431">
        <ele>71</ele>
        <time>2021-07-25T08:58:36.000Z</time>
      </trkpt>
      <trkpt lat="47.08557" lon="-2.04418">
        <ele>71</ele>
        <time>2021-07-25T08:58:38.000Z</time>
      </trkpt>
      <trkpt lat="47.08549" lon="-2.04404">
        <ele>71</ele>
        <time>2021-07-25T08:58:40.000Z</time>
      </trkpt>
      <trkpt lat="47.08541" lon="-2.0439">
        <ele>71</ele>
        <time>2021-07-25T08:58:42.000Z</time>
      </trkpt>
      <trkpt lat="47.08533" lon="-2.04375">
        <ele>70</ele>
        <time>2021-07-25T08:58:44.000Z</time>
      </trkpt>
      <trkpt lat="47.08524" lon="-2.0436">
        <ele>70</ele>
        <time>2021-07-25T08:58:46.000Z</time>
      </trkpt>
      <trkpt lat="47.08516" lon="-2.04345">
        <ele>70</ele>
        <time>2021-07-25T08:58:48.000Z</time>
      </trkpt>
      <trkpt lat="47.08507" lon="-2.0433">
        <ele>69</ele>
        <time>2021-07-25T08:58:50.000Z</time>
      </trkpt>
      <trkpt lat="47.08499" lon="-2.04315">
        <ele>69</ele>
        <time>2021-07-25T08:58:52.000Z</time>
      </trkpt>
      <trkpt lat="47.08491" lon="-2.043">
        <ele>69</ele>
        <time>2021-07-25T08:58:54.000Z</time>
      </trkpt>
      <trkpt lat="47.08484" lon="-2.04284">
        <ele>69</ele>
        <time>2021-07-25T08:58:56.000Z</time>
      </trkpt>
      <trkpt lat="47.08476" lon="-2.04269">
        <ele>68</ele>
        <time>2021-07-25T08:58:58.000Z</time>
      </trkpt>
      <trkpt lat="47.08468" lon="-2.04253">
        <ele>68</ele>
        <time>2021-07-25T08:59:00.000Z</time>
      </trkpt>
      <trkpt lat="47.08461" lon="-2.0424">
        <ele>68</ele>
        <time>2021-07-25T08:59:02.000Z</time>
      </trkpt>
      <trkpt lat="47.08452" lon="-2.04224">
        <ele>68</ele>
        <time>2021-07-25T08:59:05.000Z</time>
      </trkpt>
      <trkpt lat="47.08445" lon="-2.04211">
        <ele>68</ele>
        <time>2021-07-25T08:59:07.000Z</time>
      </trkpt>
      <trkpt lat="47.08436" lon="-2.04198">
        <ele>68</ele>
        <time>2021-07-25T08:59:09.000Z</time>
      </trkpt>
      <trkpt lat="47.08427" lon="-2.04183">
        <ele>68</ele>
        <time>2021-07-25T08:59:11.000Z</time>
      </trkpt>
      <trkpt lat="47.08419" lon="-2.04168">
        <ele>67</ele>
        <time>2021-07-25T08:59:13.000Z</time>
      </trkpt>
      <trkpt lat="47.0841" lon="-2.04154">
        <ele>67</ele>
        <time>2021-07-25T08:59:15.000Z</time>
      </trkpt>
      <trkpt lat="47.08399" lon="-2.04142">
        <ele>67</ele>
        <time>2021-07-25T08:59:17.000Z</time>
      </trkpt>
      <trkpt lat="47.08389" lon="-2.04129">
        <ele>67</ele>
        <time>2021-07-25T08:59:19.000Z</time>
      </trkpt>
      <trkpt lat="47.08377" lon="-2.04116">
        <ele>66</ele>
        <time>2021-07-25T08:59:21.000Z</time>
      </trkpt>
      <trkpt lat="47.08366" lon="-2.04105">
        <ele>66</ele>
        <time>2021-07-25T08:59:23.000Z</time>
      </trkpt>
      <trkpt lat="47.08354" lon="-2.04094">
        <ele>66</ele>
        <time>2021-07-25T08:59:25.000Z</time>
      </trkpt>
      <trkpt lat="47.08342" lon="-2.04081">
        <ele>65</ele>
        <time>2021-07-25T08:59:27.000Z</time>
      </trkpt>
      <trkpt lat="47.0833" lon="-2.04068">
        <ele>65</ele>
        <time>2021-07-25T08:59:29.000Z</time>
      </trkpt>
      <trkpt lat="47.08319" lon="-2.04057">
        <ele>65</ele>
        <time>2021-07-25T08:59:31.000Z</time>
      </trkpt>
      <trkpt lat="47.08312" lon="-2.04048">
        <ele>65</ele>
        <time>2021-07-25T08:59:33.000Z</time>
      </trkpt>
      <trkpt lat="47.08303" lon="-2.0404">
        <ele>64</ele>
        <time>2021-07-25T08:59:37.000Z</time>
      </trkpt>
      <trkpt lat="47.08294" lon="-2.04031">
        <ele>64</ele>
        <time>2021-07-25T08:59:40.000Z</time>
      </trkpt>
      <trkpt lat="47.08284" lon="-2.04021">
        <ele>65</ele>
        <time>2021-07-25T08:59:42.000Z</time>
      </trkpt>
      <trkpt lat="47.08274" lon="-2.04011">
        <ele>65</ele>
        <time>2021-07-25T08:59:44.000Z</time>
      </trkpt>
      <trkpt lat="47.08264" lon="-2.04">
        <ele>64</ele>
        <time>2021-07-25T08:59:46.000Z</time>
      </trkpt>
      <trkpt lat="47.08253" lon="-2.03988">
        <ele>65</ele>
        <time>2021-07-25T08:59:48.000Z</time>
      </trkpt>
      <trkpt lat="47.08242" lon="-2.03976">
        <ele>65</ele>
        <time>2021-07-25T08:59:50.000Z</time>
      </trkpt>
      <trkpt lat="47.08231" lon="-2.03963">
        <ele>64</ele>
        <time>2021-07-25T08:59:52.000Z</time>
      </trkpt>
      <trkpt lat="47.0822" lon="-2.0395">
        <ele>64</ele>
        <time>2021-07-25T08:59:54.000Z</time>
      </trkpt>
      <trkpt lat="47.08208" lon="-2.03937">
        <ele>63</ele>
        <time>2021-07-25T08:59:56.000Z</time>
      </trkpt>
      <trkpt lat="47.08197" lon="-2.03925">
        <ele>63</ele>
        <time>2021-07-25T08:59:58.000Z</time>
      </trkpt>
      <trkpt lat="47.08185" lon="-2.03912">
        <ele>63</ele>
        <time>2021-07-25T09:00:00.000Z</time>
      </trkpt>
      <trkpt lat="47.08174" lon="-2.03899">
        <ele>62</ele>
        <time>2021-07-25T09:00:02.000Z</time>
      </trkpt>
      <trkpt lat="47.08162" lon="-2.03887">
        <ele>62</ele>
        <time>2021-07-25T09:00:04.000Z</time>
      </trkpt>
      <trkpt lat="47.0815" lon="-2.03874">
        <ele>61</ele>
        <time>2021-07-25T09:00:06.000Z</time>
      </trkpt>
      <trkpt lat="47.08142" lon="-2.03864">
        <ele>61</ele>
        <time>2021-07-25T09:00:08.000Z</time>
      </trkpt>
      <trkpt lat="47.08133" lon="-2.03855">
        <ele>61</ele>
        <time>2021-07-25T09:00:11.000Z</time>
      </trkpt>
      <trkpt lat="47.08123" lon="-2.03842">
        <ele>61</ele>
        <time>2021-07-25T09:00:14.000Z</time>
      </trkpt>
      <trkpt lat="47.08113" lon="-2.03832">
        <ele>61</ele>
        <time>2021-07-25T09:00:17.000Z</time>
      </trkpt>
      <trkpt lat="47.08104" lon="-2.03823">
        <ele>61</ele>
        <time>2021-07-25T09:00:22.000Z</time>
      </trkpt>
      <trkpt lat="47.08096" lon="-2.03814">
        <ele>61</ele>
        <time>2021-07-25T09:00:25.000Z</time>
      </trkpt>
      <trkpt lat="47.08088" lon="-2.03804">
        <ele>61</ele>
        <time>2021-07-25T09:00:28.000Z</time>
      </trkpt>
      <trkpt lat="47.0808" lon="-2.03795">
        <ele>62</ele>
        <time>2021-07-25T09:00:31.000Z</time>
      </trkpt>
      <trkpt lat="47.08069" lon="-2.03781">
        <ele>62</ele>
        <time>2021-07-25T09:00:34.000Z</time>
      </trkpt>
      <trkpt lat="47.08059" lon="-2.0377">
        <ele>62</ele>
        <time>2021-07-25T09:00:36.000Z</time>
      </trkpt>
      <trkpt lat="47.08049" lon="-2.03759">
        <ele>62</ele>
        <time>2021-07-25T09:00:38.000Z</time>
      </trkpt>
      <trkpt lat="47.0804" lon="-2.03751">
        <ele>61</ele>
        <time>2021-07-25T09:00:40.000Z</time>
      </trkpt>
      <trkpt lat="47.0803" lon="-2.03739">
        <ele>62</ele>
        <time>2021-07-25T09:00:43.000Z</time>
      </trkpt>
      <trkpt lat="47.08022" lon="-2.0373">
        <ele>62</ele>
        <time>2021-07-25T09:00:45.000Z</time>
      </trkpt>
      <trkpt lat="47.08012" lon="-2.03718">
        <ele>62</ele>
        <time>2021-07-25T09:00:47.000Z</time>
      </trkpt>
      <trkpt lat="47.08003" lon="-2.03705">
        <ele>62</ele>
        <time>2021-07-25T09:00:49.000Z</time>
      </trkpt>
      <trkpt lat="47.07994" lon="-2.03691">
        <ele>62</ele>
        <time>2021-07-25T09:00:51.000Z</time>
      </trkpt>
      <trkpt lat="47.07985" lon="-2.03679">
        <ele>62</ele>
        <time>2021-07-25T09:00:53.000Z</time>
      </trkpt>
      <trkpt lat="47.07977" lon="-2.03668">
        <ele>61</ele>
        <time>2021-07-25T09:00:55.000Z</time>
      </trkpt>
      <trkpt lat="47.07969" lon="-2.03657">
        <ele>61</ele>
        <time>2021-07-25T09:00:58.000Z</time>
      </trkpt>
      <trkpt lat="47.07962" lon="-2.03648">
        <ele>62</ele>
        <time>2021-07-25T09:01:02.000Z</time>
      </trkpt>
      <trkpt lat="47.07954" lon="-2.03636">
        <ele>62</ele>
        <time>2021-07-25T09:01:05.000Z</time>
      </trkpt>
      <trkpt lat="47.07946" lon="-2.03626">
        <ele>62</ele>
        <time>2021-07-25T09:01:07.000Z</time>
      </trkpt>
      <trkpt lat="47.07938" lon="-2.03615">
        <ele>62</ele>
        <time>2021-07-25T09:01:09.000Z</time>
      </trkpt>
      <trkpt lat="47.07929" lon="-2.03603">
        <ele>61</ele>
        <time>2021-07-25T09:01:12.000Z</time>
      </trkpt>
      <trkpt lat="47.0792" lon="-2.03593">
        <ele>61</ele>
        <time>2021-07-25T09:01:15.000Z</time>
      </trkpt>
      <trkpt lat="47.07913" lon="-2.03583">
        <ele>61</ele>
        <time>2021-07-25T09:01:17.000Z</time>
      </trkpt>
      <trkpt lat="47.07904" lon="-2.0357">
        <ele>61</ele>
        <time>2021-07-25T09:01:19.000Z</time>
      </trkpt>
      <trkpt lat="47.07893" lon="-2.03557">
        <ele>61</ele>
        <time>2021-07-25T09:01:21.000Z</time>
      </trkpt>
      <trkpt lat="47.07883" lon="-2.03543">
        <ele>61</ele>
        <time>2021-07-25T09:01:23.000Z</time>
      </trkpt>
      <trkpt lat="47.07873" lon="-2.03529">
        <ele>60</ele>
        <time>2021-07-25T09:01:25.000Z</time>
      </trkpt>
      <trkpt lat="47.07864" lon="-2.03518">
        <ele>60</ele>
        <time>2021-07-25T09:01:27.000Z</time>
      </trkpt>
      <trkpt lat="47.07857" lon="-2.03509">
        <ele>59</ele>
        <time>2021-07-25T09:01:29.000Z</time>
      </trkpt>
      <trkpt lat="47.07849" lon="-2.03501">
        <ele>59</ele>
        <time>2021-07-25T09:01:31.000Z</time>
      </trkpt>
      <trkpt lat="47.07841" lon="-2.03488">
        <ele>59</ele>
        <time>2021-07-25T09:01:33.000Z</time>
      </trkpt>
      <trkpt lat="47.07833" lon="-2.03473">
        <ele>60</ele>
        <time>2021-07-25T09:01:35.000Z</time>
      </trkpt>
      <trkpt lat="47.07824" lon="-2.03457">
        <ele>60</ele>
        <time>2021-07-25T09:01:37.000Z</time>
      </trkpt>
      <trkpt lat="47.07815" lon="-2.03441">
        <ele>60</ele>
        <time>2021-07-25T09:01:39.000Z</time>
      </trkpt>
      <trkpt lat="47.07805" lon="-2.03424">
        <ele>60</ele>
        <time>2021-07-25T09:01:41.000Z</time>
      </trkpt>
      <trkpt lat="47.07797" lon="-2.03408">
        <ele>59</ele>
        <time>2021-07-25T09:01:43.000Z</time>
      </trkpt>
      <trkpt lat="47.07788" lon="-2.0339">
        <ele>59</ele>
        <time>2021-07-25T09:01:45.000Z</time>
      </trkpt>
      <trkpt lat="47.0778" lon="-2.03373">
        <ele>59</ele>
        <time>2021-07-25T09:01:47.000Z</time>
      </trkpt>
      <trkpt lat="47.07772" lon="-2.03354">
        <ele>59</ele>
        <time>2021-07-25T09:01:49.000Z</time>
      </trkpt>
      <trkpt lat="47.07765" lon="-2.03336">
        <ele>58</ele>
        <time>2021-07-25T09:01:51.000Z</time>
      </trkpt>
      <trkpt lat="47.07758" lon="-2.03318">
        <ele>58</ele>
        <time>2021-07-25T09:01:53.000Z</time>
      </trkpt>
      <trkpt lat="47.0775" lon="-2.03299">
        <ele>58</ele>
        <time>2021-07-25T09:01:55.000Z</time>
      </trkpt>
      <trkpt lat="47.07743" lon="-2.03281">
        <ele>58</ele>
        <time>2021-07-25T09:01:57.000Z</time>
      </trkpt>
      <trkpt lat="47.07736" lon="-2.03262">
        <ele>58</ele>
        <time>2021-07-25T09:01:59.000Z</time>
      </trkpt>
      <trkpt lat="47.07728" lon="-2.03244">
        <ele>58</ele>
        <time>2021-07-25T09:02:01.000Z</time>
      </trkpt>
      <trkpt lat="47.07721" lon="-2.03225">
        <ele>58</ele>
        <time>2021-07-25T09:02:03.000Z</time>
      </trkpt>
      <trkpt lat="47.07712" lon="-2.03207">
        <ele>59</ele>
        <time>2021-07-25T09:02:05.000Z</time>
      </trkpt>
      <trkpt lat="47.07705" lon="-2.03189">
        <ele>59</ele>
        <time>2021-07-25T09:02:07.000Z</time>
      </trkpt>
      <trkpt lat="47.07698" lon="-2.0317">
        <ele>59</ele>
        <time>2021-07-25T09:02:09.000Z</time>
      </trkpt>
      <trkpt lat="47.0769" lon="-2.03151">
        <ele>59</ele>
        <time>2021-07-25T09:02:11.000Z</time>
      </trkpt>
      <trkpt lat="47.07683" lon="-2.03132">
        <ele>59</ele>
        <time>2021-07-25T09:02:13.000Z</time>
      </trkpt>
      <trkpt lat="47.07675" lon="-2.03115">
        <ele>59</ele>
        <time>2021-07-25T09:02:15.000Z</time>
      </trkpt>
      <trkpt lat="47.07669" lon="-2.03096">
        <ele>59</ele>
        <time>2021-07-25T09:02:17.000Z</time>
      </trkpt>
      <trkpt lat="47.07662" lon="-2.03079">
        <ele>59</ele>
        <time>2021-07-25T09:02:19.000Z</time>
      </trkpt>
      <trkpt lat="47.07655" lon="-2.03062">
        <ele>59</ele>
        <time>2021-07-25T09:02:21.000Z</time>
      </trkpt>
      <trkpt lat="47.07647" lon="-2.03044">
        <ele>59</ele>
        <time>2021-07-25T09:02:23.000Z</time>
      </trkpt>
      <trkpt lat="47.0764" lon="-2.03026">
        <ele>59</ele>
        <time>2021-07-25T09:02:25.000Z</time>
      </trkpt>
      <trkpt lat="47.07632" lon="-2.03008">
        <ele>59</ele>
        <time>2021-07-25T09:02:27.000Z</time>
      </trkpt>
      <trkpt lat="47.07625" lon="-2.0299">
        <ele>59</ele>
        <time>2021-07-25T09:02:29.000Z</time>
      </trkpt>
      <trkpt lat="47.07618" lon="-2.02971">
        <ele>59</ele>
        <time>2021-07-25T09:02:31.000Z</time>
      </trkpt>
      <trkpt lat="47.0761" lon="-2.02954">
        <ele>59</ele>
        <time>2021-07-25T09:02:33.000Z</time>
      </trkpt>
      <trkpt lat="47.07603" lon="-2.02935">
        <ele>58</ele>
        <time>2021-07-25T09:02:35.000Z</time>
      </trkpt>
      <trkpt lat="47.07595" lon="-2.02917">
        <ele>58</ele>
        <time>2021-07-25T09:02:37.000Z</time>
      </trkpt>
      <trkpt lat="47.07588" lon="-2.02899">
        <ele>58</ele>
        <time>2021-07-25T09:02:39.000Z</time>
      </trkpt>
      <trkpt lat="47.0758" lon="-2.02881">
        <ele>59</ele>
        <time>2021-07-25T09:02:41.000Z</time>
      </trkpt>
      <trkpt lat="47.07574" lon="-2.02864">
        <ele>59</ele>
        <time>2021-07-25T09:02:43.000Z</time>
      </trkpt>
      <trkpt lat="47.07566" lon="-2.02846">
        <ele>59</ele>
        <time>2021-07-25T09:02:45.000Z</time>
      </trkpt>
      <trkpt lat="47.07558" lon="-2.02827">
        <ele>58</ele>
        <time>2021-07-25T09:02:47.000Z</time>
      </trkpt>
      <trkpt lat="47.0755" lon="-2.02809">
        <ele>58</ele>
        <time>2021-07-25T09:02:49.000Z</time>
      </trkpt>
      <trkpt lat="47.07543" lon="-2.0279">
        <ele>58</ele>
        <time>2021-07-25T09:02:51.000Z</time>
      </trkpt>
      <trkpt lat="47.07536" lon="-2.02772">
        <ele>58</ele>
        <time>2021-07-25T09:02:53.000Z</time>
      </trkpt>
      <trkpt lat="47.07528" lon="-2.02754">
        <ele>57</ele>
        <time>2021-07-25T09:02:55.000Z</time>
      </trkpt>
      <trkpt lat="47.0752" lon="-2.02736">
        <ele>57</ele>
        <time>2021-07-25T09:02:57.000Z</time>
      </trkpt>
      <trkpt lat="47.07513" lon="-2.02717">
        <ele>58</ele>
        <time>2021-07-25T09:02:59.000Z</time>
      </trkpt>
      <trkpt lat="47.07506" lon="-2.02699">
        <ele>58</ele>
        <time>2021-07-25T09:03:01.000Z</time>
      </trkpt>
      <trkpt lat="47.07498" lon="-2.02681">
        <ele>58</ele>
        <time>2021-07-25T09:03:03.000Z</time>
      </trkpt>
      <trkpt lat="47.0749" lon="-2.02662">
        <ele>58</ele>
        <time>2021-07-25T09:03:05.000Z</time>
      </trkpt>
      <trkpt lat="47.07483" lon="-2.02643">
        <ele>57</ele>
        <time>2021-07-25T09:03:07.000Z</time>
      </trkpt>
      <trkpt lat="47.07476" lon="-2.02625">
        <ele>58</ele>
        <time>2021-07-25T09:03:09.000Z</time>
      </trkpt>
      <trkpt lat="47.07469" lon="-2.02608">
        <ele>58</ele>
        <time>2021-07-25T09:03:11.000Z</time>
      </trkpt>
      <trkpt lat="47.07462" lon="-2.0259">
        <ele>59</ele>
        <time>2021-07-25T09:03:13.000Z</time>
      </trkpt>
      <trkpt lat="47.07454" lon="-2.02572">
        <ele>59</ele>
        <time>2021-07-25T09:03:15.000Z</time>
      </trkpt>
      <trkpt lat="47.07447" lon="-2.02555">
        <ele>59</ele>
        <time>2021-07-25T09:03:17.000Z</time>
      </trkpt>
      <trkpt lat="47.07439" lon="-2.02537">
        <ele>59</ele>
        <time>2021-07-25T09:03:19.000Z</time>
      </trkpt>
      <trkpt lat="47.07433" lon="-2.0252">
        <ele>60</ele>
        <time>2021-07-25T09:03:21.000Z</time>
      </trkpt>
      <trkpt lat="47.07426" lon="-2.02503">
        <ele>60</ele>
        <time>2021-07-25T09:03:23.000Z</time>
      </trkpt>
      <trkpt lat="47.07419" lon="-2.02485">
        <ele>61</ele>
        <time>2021-07-25T09:03:25.000Z</time>
      </trkpt>
      <trkpt lat="47.07412" lon="-2.02467">
        <ele>61</ele>
        <time>2021-07-25T09:03:27.000Z</time>
      </trkpt>
      <trkpt lat="47.07405" lon="-2.0245">
        <ele>61</ele>
        <time>2021-07-25T09:03:29.000Z</time>
      </trkpt>
      <trkpt lat="47.07398" lon="-2.02432">
        <ele>61</ele>
        <time>2021-07-25T09:03:31.000Z</time>
      </trkpt>
      <trkpt lat="47.07391" lon="-2.02414">
        <ele>61</ele>
        <time>2021-07-25T09:03:33.000Z</time>
      </trkpt>
      <trkpt lat="47.07384" lon="-2.02397">
        <ele>62</ele>
        <time>2021-07-25T09:03:35.000Z</time>
      </trkpt>
      <trkpt lat="47.07376" lon="-2.0238">
        <ele>62</ele>
        <time>2021-07-25T09:03:37.000Z</time>
      </trkpt>
      <trkpt lat="47.07369" lon="-2.02363">
        <ele>63</ele>
        <time>2021-07-25T09:03:39.000Z</time>
      </trkpt>
      <trkpt lat="47.07361" lon="-2.02346">
        <ele>62</ele>
        <time>2021-07-25T09:03:41.000Z</time>
      </trkpt>
      <trkpt lat="47.07354" lon="-2.02329">
        <ele>62</ele>
        <time>2021-07-25T09:03:43.000Z</time>
      </trkpt>
      <trkpt lat="47.07347" lon="-2.02311">
        <ele>62</ele>
        <time>2021-07-25T09:03:45.000Z</time>
      </trkpt>
      <trkpt lat="47.0734" lon="-2.02294">
        <ele>62</ele>
        <time>2021-07-25T09:03:47.000Z</time>
      </trkpt>
      <trkpt lat="47.07333" lon="-2.02276">
        <ele>62</ele>
        <time>2021-07-25T09:03:49.000Z</time>
      </trkpt>
      <trkpt lat="47.07326" lon="-2.02259">
        <ele>62</ele>
        <time>2021-07-25T09:03:51.000Z</time>
      </trkpt>
      <trkpt lat="47.07319" lon="-2.02241">
        <ele>61</ele>
        <time>2021-07-25T09:03:53.000Z</time>
      </trkpt>
      <trkpt lat="47.07312" lon="-2.02223">
        <ele>61</ele>
        <time>2021-07-25T09:03:55.000Z</time>
      </trkpt>
      <trkpt lat="47.07305" lon="-2.02206">
        <ele>62</ele>
        <time>2021-07-25T09:03:57.000Z</time>
      </trkpt>
      <trkpt lat="47.07297" lon="-2.02189">
        <ele>62</ele>
        <time>2021-07-25T09:03:59.000Z</time>
      </trkpt>
      <trkpt lat="47.07289" lon="-2.02172">
        <ele>62</ele>
        <time>2021-07-25T09:04:01.000Z</time>
      </trkpt>
      <trkpt lat="47.07282" lon="-2.02155">
        <ele>62</ele>
        <time>2021-07-25T09:04:03.000Z</time>
      </trkpt>
      <trkpt lat="47.07274" lon="-2.02138">
        <ele>62</ele>
        <time>2021-07-25T09:04:05.000Z</time>
      </trkpt>
      <trkpt lat="47.07266" lon="-2.02121">
        <ele>62</ele>
        <time>2021-07-25T09:04:07.000Z</time>
      </trkpt>
      <trkpt lat="47.07258" lon="-2.02104">
        <ele>62</ele>
        <time>2021-07-25T09:04:09.000Z</time>
      </trkpt>
      <trkpt lat="47.0725" lon="-2.02086">
        <ele>62</ele>
        <time>2021-07-25T09:04:11.000Z</time>
      </trkpt>
      <trkpt lat="47.07241" lon="-2.0207">
        <ele>62</ele>
        <time>2021-07-25T09:04:13.000Z</time>
      </trkpt>
      <trkpt lat="47.07233" lon="-2.02052">
        <ele>62</ele>
        <time>2021-07-25T09:04:15.000Z</time>
      </trkpt>
      <trkpt lat="47.07226" lon="-2.02035">
        <ele>61</ele>
        <time>2021-07-25T09:04:17.000Z</time>
      </trkpt>
      <trkpt lat="47.07218" lon="-2.02018">
        <ele>61</ele>
        <time>2021-07-25T09:04:19.000Z</time>
      </trkpt>
      <trkpt lat="47.0721" lon="-2.02">
        <ele>62</ele>
        <time>2021-07-25T09:04:21.000Z</time>
      </trkpt>
      <trkpt lat="47.07202" lon="-2.01983">
        <ele>62</ele>
        <time>2021-07-25T09:04:23.000Z</time>
      </trkpt>
      <trkpt lat="47.07195" lon="-2.01965">
        <ele>62</ele>
        <time>2021-07-25T09:04:25.000Z</time>
      </trkpt>
      <trkpt lat="47.07186" lon="-2.01948">
        <ele>62</ele>
        <time>2021-07-25T09:04:27.000Z</time>
      </trkpt>
      <trkpt lat="47.07178" lon="-2.01931">
        <ele>62</ele>
        <time>2021-07-25T09:04:29.000Z</time>
      </trkpt>
      <trkpt lat="47.07169" lon="-2.01912">
        <ele>62</ele>
        <time>2021-07-25T09:04:31.000Z</time>
      </trkpt>
      <trkpt lat="47.07161" lon="-2.01894">
        <ele>62</ele>
        <time>2021-07-25T09:04:33.000Z</time>
      </trkpt>
      <trkpt lat="47.07153" lon="-2.01877">
        <ele>62</ele>
        <time>2021-07-25T09:04:35.000Z</time>
      </trkpt>
      <trkpt lat="47.07145" lon="-2.01858">
        <ele>62</ele>
        <time>2021-07-25T09:04:37.000Z</time>
      </trkpt>
      <trkpt lat="47.07137" lon="-2.01841">
        <ele>62</ele>
        <time>2021-07-25T09:04:39.000Z</time>
      </trkpt>
      <trkpt lat="47.07129" lon="-2.01823">
        <ele>62</ele>
        <time>2021-07-25T09:04:41.000Z</time>
      </trkpt>
      <trkpt lat="47.07121" lon="-2.01805">
        <ele>62</ele>
        <time>2021-07-25T09:04:43.000Z</time>
      </trkpt>
      <trkpt lat="47.07113" lon="-2.01787">
        <ele>62</ele>
        <time>2021-07-25T09:04:45.000Z</time>
      </trkpt>
      <trkpt lat="47.07104" lon="-2.01769">
        <ele>62</ele>
        <time>2021-07-25T09:04:47.000Z</time>
      </trkpt>
      <trkpt lat="47.07096" lon="-2.01751">
        <ele>63</ele>
        <time>2021-07-25T09:04:49.000Z</time>
      </trkpt>
      <trkpt lat="47.07087" lon="-2.01732">
        <ele>62</ele>
        <time>2021-07-25T09:04:51.000Z</time>
      </trkpt>
      <trkpt lat="47.07079" lon="-2.01714">
        <ele>63</ele>
        <time>2021-07-25T09:04:53.000Z</time>
      </trkpt>
      <trkpt lat="47.0707" lon="-2.01696">
        <ele>63</ele>
        <time>2021-07-25T09:04:55.000Z</time>
      </trkpt>
      <trkpt lat="47.07062" lon="-2.01678">
        <ele>63</ele>
        <time>2021-07-25T09:04:57.000Z</time>
      </trkpt>
      <trkpt lat="47.07054" lon="-2.01661">
        <ele>64</ele>
        <time>2021-07-25T09:04:59.000Z</time>
      </trkpt>
      <trkpt lat="47.07046" lon="-2.01643">
        <ele>64</ele>
        <time>2021-07-25T09:05:01.000Z</time>
      </trkpt>
      <trkpt lat="47.07039" lon="-2.01626">
        <ele>63</ele>
        <time>2021-07-25T09:05:03.000Z</time>
      </trkpt>
      <trkpt lat="47.07031" lon="-2.01608">
        <ele>63</ele>
        <time>2021-07-25T09:05:05.000Z</time>
      </trkpt>
      <trkpt lat="47.07023" lon="-2.01591">
        <ele>63</ele>
        <time>2021-07-25T09:05:07.000Z</time>
      </trkpt>
      <trkpt lat="47.07015" lon="-2.01574">
        <ele>64</ele>
        <time>2021-07-25T09:05:09.000Z</time>
      </trkpt>
      <trkpt lat="47.07007" lon="-2.01557">
        <ele>64</ele>
        <time>2021-07-25T09:05:11.000Z</time>
      </trkpt>
      <trkpt lat="47.06999" lon="-2.0154">
        <ele>63</ele>
        <time>2021-07-25T09:05:13.000Z</time>
      </trkpt>
      <trkpt lat="47.06992" lon="-2.01523">
        <ele>64</ele>
        <time>2021-07-25T09:05:15.000Z</time>
      </trkpt>
      <trkpt lat="47.06983" lon="-2.01507">
        <ele>64</ele>
        <time>2021-07-25T09:05:17.000Z</time>
      </trkpt>
      <trkpt lat="47.06976" lon="-2.01491">
        <ele>64</ele>
        <time>2021-07-25T09:05:19.000Z</time>
      </trkpt>
      <trkpt lat="47.06969" lon="-2.01474">
        <ele>64</ele>
        <time>2021-07-25T09:05:21.000Z</time>
      </trkpt>
      <trkpt lat="47.0696" lon="-2.01457">
        <ele>64</ele>
        <time>2021-07-25T09:05:23.000Z</time>
      </trkpt>
      <trkpt lat="47.06953" lon="-2.01441">
        <ele>64</ele>
        <time>2021-07-25T09:05:25.000Z</time>
      </trkpt>
      <trkpt lat="47.06945" lon="-2.01424">
        <ele>65</ele>
        <time>2021-07-25T09:05:27.000Z</time>
      </trkpt>
      <trkpt lat="47.06938" lon="-2.01407">
        <ele>64</ele>
        <time>2021-07-25T09:05:29.000Z</time>
      </trkpt>
      <trkpt lat="47.0693" lon="-2.01391">
        <ele>64</ele>
        <time>2021-07-25T09:05:31.000Z</time>
      </trkpt>
      <trkpt lat="47.06923" lon="-2.01375">
        <ele>64</ele>
        <time>2021-07-25T09:05:33.000Z</time>
      </trkpt>
      <trkpt lat="47.06915" lon="-2.01358">
        <ele>64</ele>
        <time>2021-07-25T09:05:35.000Z</time>
      </trkpt>
      <trkpt lat="47.06908" lon="-2.01341">
        <ele>64</ele>
        <time>2021-07-25T09:05:37.000Z</time>
      </trkpt>
      <trkpt lat="47.069" lon="-2.01324">
        <ele>64</ele>
        <time>2021-07-25T09:05:39.000Z</time>
      </trkpt>
      <trkpt lat="47.06888" lon="-2.013">
        <ele>64</ele>
        <time>2021-07-25T09:05:42.000Z</time>
      </trkpt>
      <trkpt lat="47.0688" lon="-2.01283">
        <ele>64</ele>
        <time>2021-07-25T09:05:44.000Z</time>
      </trkpt>
      <trkpt lat="47.06872" lon="-2.01265">
        <ele>64</ele>
        <time>2021-07-25T09:05:46.000Z</time>
      </trkpt>
      <trkpt lat="47.0686" lon="-2.01238">
        <ele>63</ele>
        <time>2021-07-25T09:05:49.000Z</time>
      </trkpt>
      <trkpt lat="47.06851" lon="-2.0122">
        <ele>63</ele>
        <time>2021-07-25T09:05:51.000Z</time>
      </trkpt>
      <trkpt lat="47.06842" lon="-2.01202">
        <ele>63</ele>
        <time>2021-07-25T09:05:53.000Z</time>
      </trkpt>
      <trkpt lat="47.06835" lon="-2.01183">
        <ele>63</ele>
        <time>2021-07-25T09:05:55.000Z</time>
      </trkpt>
      <trkpt lat="47.06827" lon="-2.01164">
        <ele>63</ele>
        <time>2021-07-25T09:05:57.000Z</time>
      </trkpt>
      <trkpt lat="47.06814" lon="-2.01137">
        <ele>62</ele>
        <time>2021-07-25T09:06:00.000Z</time>
      </trkpt>
      <trkpt lat="47.06805" lon="-2.01117">
        <ele>62</ele>
        <time>2021-07-25T09:06:02.000Z</time>
      </trkpt>
      <trkpt lat="47.06796" lon="-2.01098">
        <ele>62</ele>
        <time>2021-07-25T09:06:04.000Z</time>
      </trkpt>
      <trkpt lat="47.06788" lon="-2.01079">
        <ele>62</ele>
        <time>2021-07-25T09:06:06.000Z</time>
      </trkpt>
      <trkpt lat="47.06779" lon="-2.01059">
        <ele>63</ele>
        <time>2021-07-25T09:06:08.000Z</time>
      </trkpt>
      <trkpt lat="47.06763" lon="-2.01029">
        <ele>61</ele>
        <time>2021-07-25T09:06:11.000Z</time>
      </trkpt>
      <trkpt lat="47.06754" lon="-2.01008">
        <ele>60</ele>
        <time>2021-07-25T09:06:13.000Z</time>
      </trkpt>
      <trkpt lat="47.06744" lon="-2.00988">
        <ele>59</ele>
        <time>2021-07-25T09:06:15.000Z</time>
      </trkpt>
      <trkpt lat="47.06735" lon="-2.00969">
        <ele>58</ele>
        <time>2021-07-25T09:06:17.000Z</time>
      </trkpt>
      <trkpt lat="47.06726" lon="-2.00948">
        <ele>57</ele>
        <time>2021-07-25T09:06:19.000Z</time>
      </trkpt>
      <trkpt lat="47.06717" lon="-2.00928">
        <ele>57</ele>
        <time>2021-07-25T09:06:21.000Z</time>
      </trkpt>
      <trkpt lat="47.06708" lon="-2.00907">
        <ele>57</ele>
        <time>2021-07-25T09:06:23.000Z</time>
      </trkpt>
      <trkpt lat="47.06698" lon="-2.00886">
        <ele>57</ele>
        <time>2021-07-25T09:06:25.000Z</time>
      </trkpt>
      <trkpt lat="47.06689" lon="-2.00867">
        <ele>56</ele>
        <time>2021-07-25T09:06:27.000Z</time>
      </trkpt>
      <trkpt lat="47.06679" lon="-2.00847">
        <ele>56</ele>
        <time>2021-07-25T09:06:29.000Z</time>
      </trkpt>
      <trkpt lat="47.06669" lon="-2.00828">
        <ele>56</ele>
        <time>2021-07-25T09:06:31.000Z</time>
      </trkpt>
      <trkpt lat="47.0666" lon="-2.00809">
        <ele>56</ele>
        <time>2021-07-25T09:06:33.000Z</time>
      </trkpt>
      <trkpt lat="47.06651" lon="-2.0079">
        <ele>57</ele>
        <time>2021-07-25T09:06:35.000Z</time>
      </trkpt>
      <trkpt lat="47.06643" lon="-2.00771">
        <ele>57</ele>
        <time>2021-07-25T09:06:37.000Z</time>
      </trkpt>
      <trkpt lat="47.06635" lon="-2.00752">
        <ele>57</ele>
        <time>2021-07-25T09:06:39.000Z</time>
      </trkpt>
      <trkpt lat="47.06627" lon="-2.00733">
        <ele>57</ele>
        <time>2021-07-25T09:06:41.000Z</time>
      </trkpt>
      <trkpt lat="47.06619" lon="-2.00714">
        <ele>57</ele>
        <time>2021-07-25T09:06:43.000Z</time>
      </trkpt>
      <trkpt lat="47.06611" lon="-2.00695">
        <ele>57</ele>
        <time>2021-07-25T09:06:45.000Z</time>
      </trkpt>
      <trkpt lat="47.06603" lon="-2.00676">
        <ele>57</ele>
        <time>2021-07-25T09:06:47.000Z</time>
      </trkpt>
      <trkpt lat="47.06594" lon="-2.00657">
        <ele>58</ele>
        <time>2021-07-25T09:06:49.000Z</time>
      </trkpt>
      <trkpt lat="47.06586" lon="-2.00639">
        <ele>57</ele>
        <time>2021-07-25T09:06:51.000Z</time>
      </trkpt>
      <trkpt lat="47.06577" lon="-2.00621">
        <ele>58</ele>
        <time>2021-07-25T09:06:53.000Z</time>
      </trkpt>
      <trkpt lat="47.06569" lon="-2.00603">
        <ele>58</ele>
        <time>2021-07-25T09:06:55.000Z</time>
      </trkpt>
      <trkpt lat="47.06561" lon="-2.00586">
        <ele>59</ele>
        <time>2021-07-25T09:06:57.000Z</time>
      </trkpt>
      <trkpt lat="47.06552" lon="-2.00569">
        <ele>59</ele>
        <time>2021-07-25T09:06:59.000Z</time>
      </trkpt>
      <trkpt lat="47.06544" lon="-2.00552">
        <ele>59</ele>
        <time>2021-07-25T09:07:01.000Z</time>
      </trkpt>
      <trkpt lat="47.06537" lon="-2.00535">
        <ele>59</ele>
        <time>2021-07-25T09:07:03.000Z</time>
      </trkpt>
      <trkpt lat="47.06529" lon="-2.00519">
        <ele>60</ele>
        <time>2021-07-25T09:07:05.000Z</time>
      </trkpt>
      <trkpt lat="47.06521" lon="-2.00503">
        <ele>60</ele>
        <time>2021-07-25T09:07:07.000Z</time>
      </trkpt>
      <trkpt lat="47.06514" lon="-2.00488">
        <ele>59</ele>
        <time>2021-07-25T09:07:09.000Z</time>
      </trkpt>
      <trkpt lat="47.06507" lon="-2.00472">
        <ele>59</ele>
        <time>2021-07-25T09:07:11.000Z</time>
      </trkpt>
      <trkpt lat="47.065" lon="-2.00456">
        <ele>59</ele>
        <time>2021-07-25T09:07:13.000Z</time>
      </trkpt>
      <trkpt lat="47.06493" lon="-2.0044">
        <ele>59</ele>
        <time>2021-07-25T09:07:15.000Z</time>
      </trkpt>
      <trkpt lat="47.06485" lon="-2.00424">
        <ele>59</ele>
        <time>2021-07-25T09:07:17.000Z</time>
      </trkpt>
      <trkpt lat="47.06478" lon="-2.00407">
        <ele>58</ele>
        <time>2021-07-25T09:07:19.000Z</time>
      </trkpt>
      <trkpt lat="47.0647" lon="-2.0039">
        <ele>58</ele>
        <time>2021-07-25T09:07:21.000Z</time>
      </trkpt>
      <trkpt lat="47.06461" lon="-2.00372">
        <ele>58</ele>
        <time>2021-07-25T09:07:23.000Z</time>
      </trkpt>
      <trkpt lat="47.06453" lon="-2.00355">
        <ele>57</ele>
        <time>2021-07-25T09:07:25.000Z</time>
      </trkpt>
      <trkpt lat="47.06445" lon="-2.00336">
        <ele>57</ele>
        <time>2021-07-25T09:07:27.000Z</time>
      </trkpt>
      <trkpt lat="47.06436" lon="-2.00317">
        <ele>56</ele>
        <time>2021-07-25T09:07:29.000Z</time>
      </trkpt>
      <trkpt lat="47.06426" lon="-2.00299">
        <ele>56</ele>
        <time>2021-07-25T09:07:31.000Z</time>
      </trkpt>
      <trkpt lat="47.06417" lon="-2.00281">
        <ele>56</ele>
        <time>2021-07-25T09:07:33.000Z</time>
      </trkpt>
      <trkpt lat="47.06406" lon="-2.00263">
        <ele>55</ele>
        <time>2021-07-25T09:07:35.000Z</time>
      </trkpt>
      <trkpt lat="47.06397" lon="-2.00244">
        <ele>55</ele>
        <time>2021-07-25T09:07:37.000Z</time>
      </trkpt>
      <trkpt lat="47.0639" lon="-2.00224">
        <ele>55</ele>
        <time>2021-07-25T09:07:39.000Z</time>
      </trkpt>
      <trkpt lat="47.06384" lon="-2.00204">
        <ele>56</ele>
        <time>2021-07-25T09:07:41.000Z</time>
      </trkpt>
      <trkpt lat="47.06378" lon="-2.00184">
        <ele>56</ele>
        <time>2021-07-25T09:07:43.000Z</time>
      </trkpt>
      <trkpt lat="47.06371" lon="-2.00164">
        <ele>56</ele>
        <time>2021-07-25T09:07:45.000Z</time>
      </trkpt>
      <trkpt lat="47.06365" lon="-2.00145">
        <ele>55</ele>
        <time>2021-07-25T09:07:47.000Z</time>
      </trkpt>
      <trkpt lat="47.06359" lon="-2.00125">
        <ele>55</ele>
        <time>2021-07-25T09:07:49.000Z</time>
      </trkpt>
      <trkpt lat="47.06356" lon="-2.00106">
        <ele>56</ele>
        <time>2021-07-25T09:07:51.000Z</time>
      </trkpt>
      <trkpt lat="47.06354" lon="-2.00086">
        <ele>56</ele>
        <time>2021-07-25T09:07:53.000Z</time>
      </trkpt>
      <trkpt lat="47.06354" lon="-2.00065">
        <ele>56</ele>
        <time>2021-07-25T09:07:55.000Z</time>
      </trkpt>
      <trkpt lat="47.06354" lon="-2.00044">
        <ele>56</ele>
        <time>2021-07-25T09:07:57.000Z</time>
      </trkpt>
      <trkpt lat="47.06353" lon="-2.00023">
        <ele>56</ele>
        <time>2021-07-25T09:07:59.000Z</time>
      </trkpt>
      <trkpt lat="47.06353" lon="-2.00001">
        <ele>57</ele>
        <time>2021-07-25T09:08:01.000Z</time>
      </trkpt>
      <trkpt lat="47.06353" lon="-1.99979">
        <ele>57</ele>
        <time>2021-07-25T09:08:03.000Z</time>
      </trkpt>
      <trkpt lat="47.06353" lon="-1.99958">
        <ele>57</ele>
        <time>2021-07-25T09:08:05.000Z</time>
      </trkpt>
      <trkpt lat="47.06357" lon="-1.99938">
        <ele>57</ele>
        <time>2021-07-25T09:08:07.000Z</time>
      </trkpt>
      <trkpt lat="47.0636" lon="-1.99918">
        <ele>57</ele>
        <time>2021-07-25T09:08:09.000Z</time>
      </trkpt>
      <trkpt lat="47.06364" lon="-1.99898">
        <ele>58</ele>
        <time>2021-07-25T09:08:11.000Z</time>
      </trkpt>
      <trkpt lat="47.06368" lon="-1.9988">
        <ele>58</ele>
        <time>2021-07-25T09:08:13.000Z</time>
      </trkpt>
      <trkpt lat="47.06372" lon="-1.99861">
        <ele>58</ele>
        <time>2021-07-25T09:08:15.000Z</time>
      </trkpt>
      <trkpt lat="47.06375" lon="-1.99841">
        <ele>58</ele>
        <time>2021-07-25T09:08:17.000Z</time>
      </trkpt>
      <trkpt lat="47.06379" lon="-1.9982">
        <ele>58</ele>
        <time>2021-07-25T09:08:19.000Z</time>
      </trkpt>
      <trkpt lat="47.06382" lon="-1.998">
        <ele>58</ele>
        <time>2021-07-25T09:08:21.000Z</time>
      </trkpt>
      <trkpt lat="47.06386" lon="-1.9978">
        <ele>58</ele>
        <time>2021-07-25T09:08:23.000Z</time>
      </trkpt>
      <trkpt lat="47.06389" lon="-1.99759">
        <ele>58</ele>
        <time>2021-07-25T09:08:25.000Z</time>
      </trkpt>
      <trkpt lat="47.06389" lon="-1.99739">
        <ele>58</ele>
        <time>2021-07-25T09:08:27.000Z</time>
      </trkpt>
      <trkpt lat="47.0639" lon="-1.99718">
        <ele>58</ele>
        <time>2021-07-25T09:08:29.000Z</time>
      </trkpt>
      <trkpt lat="47.06389" lon="-1.99699">
        <ele>58</ele>
        <time>2021-07-25T09:08:31.000Z</time>
      </trkpt>
      <trkpt lat="47.06389" lon="-1.99679">
        <ele>58</ele>
        <time>2021-07-25T09:08:33.000Z</time>
      </trkpt>
      <trkpt lat="47.06388" lon="-1.99659">
        <ele>58</ele>
        <time>2021-07-25T09:08:35.000Z</time>
      </trkpt>
      <trkpt lat="47.06387" lon="-1.99638">
        <ele>58</ele>
        <time>2021-07-25T09:08:37.000Z</time>
      </trkpt>
      <trkpt lat="47.06386" lon="-1.99618">
        <ele>58</ele>
        <time>2021-07-25T09:08:39.000Z</time>
      </trkpt>
      <trkpt lat="47.06385" lon="-1.99597">
        <ele>58</ele>
        <time>2021-07-25T09:08:41.000Z</time>
      </trkpt>
      <trkpt lat="47.06385" lon="-1.99576">
        <ele>58</ele>
        <time>2021-07-25T09:08:43.000Z</time>
      </trkpt>
      <trkpt lat="47.06386" lon="-1.99555">
        <ele>58</ele>
        <time>2021-07-25T09:08:45.000Z</time>
      </trkpt>
      <trkpt lat="47.06386" lon="-1.99533">
        <ele>58</ele>
        <time>2021-07-25T09:08:47.000Z</time>
      </trkpt>
      <trkpt lat="47.06383" lon="-1.99513">
        <ele>57</ele>
        <time>2021-07-25T09:08:49.000Z</time>
      </trkpt>
      <trkpt lat="47.06381" lon="-1.99491">
        <ele>57</ele>
        <time>2021-07-25T09:08:51.000Z</time>
      </trkpt>
      <trkpt lat="47.0638" lon="-1.9947">
        <ele>57</ele>
        <time>2021-07-25T09:08:53.000Z</time>
      </trkpt>
      <trkpt lat="47.06379" lon="-1.99449">
        <ele>56</ele>
        <time>2021-07-25T09:08:55.000Z</time>
      </trkpt>
      <trkpt lat="47.06378" lon="-1.99428">
        <ele>56</ele>
        <time>2021-07-25T09:08:57.000Z</time>
      </trkpt>
      <trkpt lat="47.06377" lon="-1.99407">
        <ele>56</ele>
        <time>2021-07-25T09:08:59.000Z</time>
      </trkpt>
      <trkpt lat="47.06374" lon="-1.99386">
        <ele>55</ele>
        <time>2021-07-25T09:09:01.000Z</time>
      </trkpt>
      <trkpt lat="47.06373" lon="-1.99366">
        <ele>55</ele>
        <time>2021-07-25T09:09:03.000Z</time>
      </trkpt>
      <trkpt lat="47.06372" lon="-1.99345">
        <ele>56</ele>
        <time>2021-07-25T09:09:05.000Z</time>
      </trkpt>
      <trkpt lat="47.06372" lon="-1.99325">
        <ele>56</ele>
        <time>2021-07-25T09:09:07.000Z</time>
      </trkpt>
      <trkpt lat="47.06373" lon="-1.99303">
        <ele>56</ele>
        <time>2021-07-25T09:09:09.000Z</time>
      </trkpt>
      <trkpt lat="47.06373" lon="-1.99282">
        <ele>56</ele>
        <time>2021-07-25T09:09:11.000Z</time>
      </trkpt>
      <trkpt lat="47.06373" lon="-1.99261">
        <ele>55</ele>
        <time>2021-07-25T09:09:13.000Z</time>
      </trkpt>
      <trkpt lat="47.06373" lon="-1.99239">
        <ele>55</ele>
        <time>2021-07-25T09:09:15.000Z</time>
      </trkpt>
      <trkpt lat="47.06375" lon="-1.99218">
        <ele>56</ele>
        <time>2021-07-25T09:09:17.000Z</time>
      </trkpt>
      <trkpt lat="47.06379" lon="-1.99198">
        <ele>55</ele>
        <time>2021-07-25T09:09:19.000Z</time>
      </trkpt>
      <trkpt lat="47.06383" lon="-1.99179">
        <ele>56</ele>
        <time>2021-07-25T09:09:21.000Z</time>
      </trkpt>
      <trkpt lat="47.06385" lon="-1.99159">
        <ele>56</ele>
        <time>2021-07-25T09:09:23.000Z</time>
      </trkpt>
      <trkpt lat="47.06385" lon="-1.9914">
        <ele>56</ele>
        <time>2021-07-25T09:09:25.000Z</time>
      </trkpt>
      <trkpt lat="47.06382" lon="-1.99119">
        <ele>56</ele>
        <time>2021-07-25T09:09:27.000Z</time>
      </trkpt>
      <trkpt lat="47.0638" lon="-1.99099">
        <ele>56</ele>
        <time>2021-07-25T09:09:29.000Z</time>
      </trkpt>
      <trkpt lat="47.06377" lon="-1.99079">
        <ele>56</ele>
        <time>2021-07-25T09:09:31.000Z</time>
      </trkpt>
      <trkpt lat="47.06374" lon="-1.99059">
        <ele>56</ele>
        <time>2021-07-25T09:09:33.000Z</time>
      </trkpt>
      <trkpt lat="47.06372" lon="-1.99039">
        <ele>55</ele>
        <time>2021-07-25T09:09:35.000Z</time>
      </trkpt>
      <trkpt lat="47.06369" lon="-1.99019">
        <ele>56</ele>
        <time>2021-07-25T09:09:37.000Z</time>
      </trkpt>
      <trkpt lat="47.06367" lon="-1.98999">
        <ele>55</ele>
        <time>2021-07-25T09:09:39.000Z</time>
      </trkpt>
      <trkpt lat="47.06366" lon="-1.98979">
        <ele>55</ele>
        <time>2021-07-25T09:09:41.000Z</time>
      </trkpt>
      <trkpt lat="47.06366" lon="-1.98958">
        <ele>55</ele>
        <time>2021-07-25T09:09:43.000Z</time>
      </trkpt>
      <trkpt lat="47.06367" lon="-1.98938">
        <ele>55</ele>
        <time>2021-07-25T09:09:45.000Z</time>
      </trkpt>
      <trkpt lat="47.0637" lon="-1.98918">
        <ele>56</ele>
        <time>2021-07-25T09:09:47.000Z</time>
      </trkpt>
      <trkpt lat="47.06373" lon="-1.98898">
        <ele>55</ele>
        <time>2021-07-25T09:09:49.000Z</time>
      </trkpt>
      <trkpt lat="47.06376" lon="-1.98878">
        <ele>55</ele>
        <time>2021-07-25T09:09:51.000Z</time>
      </trkpt>
      <trkpt lat="47.0638" lon="-1.98858">
        <ele>55</ele>
        <time>2021-07-25T09:09:53.000Z</time>
      </trkpt>
      <trkpt lat="47.06383" lon="-1.98838">
        <ele>56</ele>
        <time>2021-07-25T09:09:55.000Z</time>
      </trkpt>
      <trkpt lat="47.06387" lon="-1.98818">
        <ele>56</ele>
        <time>2021-07-25T09:09:57.000Z</time>
      </trkpt>
      <trkpt lat="47.06391" lon="-1.98798">
        <ele>56</ele>
        <time>2021-07-25T09:09:59.000Z</time>
      </trkpt>
      <trkpt lat="47.06395" lon="-1.98777">
        <ele>56</ele>
        <time>2021-07-25T09:10:01.000Z</time>
      </trkpt>
      <trkpt lat="47.06399" lon="-1.98757">
        <ele>56</ele>
        <time>2021-07-25T09:10:03.000Z</time>
      </trkpt>
      <trkpt lat="47.06403" lon="-1.98737">
        <ele>57</ele>
        <time>2021-07-25T09:10:05.000Z</time>
      </trkpt>
      <trkpt lat="47.06408" lon="-1.98718">
        <ele>57</ele>
        <time>2021-07-25T09:10:07.000Z</time>
      </trkpt>
      <trkpt lat="47.06411" lon="-1.98698">
        <ele>58</ele>
        <time>2021-07-25T09:10:09.000Z</time>
      </trkpt>
      <trkpt lat="47.06414" lon="-1.98679">
        <ele>59</ele>
        <time>2021-07-25T09:10:11.000Z</time>
      </trkpt>
      <trkpt lat="47.06418" lon="-1.9866">
        <ele>59</ele>
        <time>2021-07-25T09:10:13.000Z</time>
      </trkpt>
      <trkpt lat="47.06424" lon="-1.98643">
        <ele>60</ele>
        <time>2021-07-25T09:10:15.000Z</time>
      </trkpt>
      <trkpt lat="47.06431" lon="-1.98626">
        <ele>60</ele>
        <time>2021-07-25T09:10:17.000Z</time>
      </trkpt>
      <trkpt lat="47.06439" lon="-1.98611">
        <ele>60</ele>
        <time>2021-07-25T09:10:19.000Z</time>
      </trkpt>
      <trkpt lat="47.06447" lon="-1.98597">
        <ele>61</ele>
        <time>2021-07-25T09:10:21.000Z</time>
      </trkpt>
      <trkpt lat="47.06456" lon="-1.98582">
        <ele>61</ele>
        <time>2021-07-25T09:10:23.000Z</time>
      </trkpt>
      <trkpt lat="47.06463" lon="-1.98567">
        <ele>61</ele>
        <time>2021-07-25T09:10:25.000Z</time>
      </trkpt>
      <trkpt lat="47.06469" lon="-1.98552">
        <ele>62</ele>
        <time>2021-07-25T09:10:27.000Z</time>
      </trkpt>
      <trkpt lat="47.06475" lon="-1.98536">
        <ele>62</ele>
        <time>2021-07-25T09:10:29.000Z</time>
      </trkpt>
      <trkpt lat="47.0648" lon="-1.98521">
        <ele>61</ele>
        <time>2021-07-25T09:10:31.000Z</time>
      </trkpt>
      <trkpt lat="47.06485" lon="-1.98503">
        <ele>61</ele>
        <time>2021-07-25T09:10:33.000Z</time>
      </trkpt>
      <trkpt lat="47.06488" lon="-1.98484">
        <ele>60</ele>
        <time>2021-07-25T09:10:35.000Z</time>
      </trkpt>
      <trkpt lat="47.06491" lon="-1.98461">
        <ele>59</ele>
        <time>2021-07-25T09:10:37.000Z</time>
      </trkpt>
      <trkpt lat="47.06494" lon="-1.98438">
        <ele>58</ele>
        <time>2021-07-25T09:10:39.000Z</time>
      </trkpt>
      <trkpt lat="47.06496" lon="-1.98414">
        <ele>58</ele>
        <time>2021-07-25T09:10:41.000Z</time>
      </trkpt>
      <trkpt lat="47.06498" lon="-1.98391">
        <ele>58</ele>
        <time>2021-07-25T09:10:43.000Z</time>
      </trkpt>
      <trkpt lat="47.06501" lon="-1.98369">
        <ele>58</ele>
        <time>2021-07-25T09:10:45.000Z</time>
      </trkpt>
      <trkpt lat="47.06502" lon="-1.98348">
        <ele>59</ele>
        <time>2021-07-25T09:10:47.000Z</time>
      </trkpt>
      <trkpt lat="47.06505" lon="-1.98329">
        <ele>59</ele>
        <time>2021-07-25T09:10:49.000Z</time>
      </trkpt>
      <trkpt lat="47.06509" lon="-1.98311">
        <ele>58</ele>
        <time>2021-07-25T09:10:51.000Z</time>
      </trkpt>
      <trkpt lat="47.06514" lon="-1.98293">
        <ele>59</ele>
        <time>2021-07-25T09:10:53.000Z</time>
      </trkpt>
      <trkpt lat="47.06519" lon="-1.98276">
        <ele>59</ele>
        <time>2021-07-25T09:10:55.000Z</time>
      </trkpt>
      <trkpt lat="47.06523" lon="-1.9826">
        <ele>59</ele>
        <time>2021-07-25T09:10:57.000Z</time>
      </trkpt>
      <trkpt lat="47.06524" lon="-1.98242">
        <ele>59</ele>
        <time>2021-07-25T09:10:59.000Z</time>
      </trkpt>
      <trkpt lat="47.06521" lon="-1.98223">
        <ele>58</ele>
        <time>2021-07-25T09:11:01.000Z</time>
      </trkpt>
      <trkpt lat="47.06518" lon="-1.98203">
        <ele>58</ele>
        <time>2021-07-25T09:11:03.000Z</time>
      </trkpt>
      <trkpt lat="47.06515" lon="-1.98182">
        <ele>57</ele>
        <time>2021-07-25T09:11:05.000Z</time>
      </trkpt>
      <trkpt lat="47.06511" lon="-1.98159">
        <ele>56</ele>
        <time>2021-07-25T09:11:07.000Z</time>
      </trkpt>
      <trkpt lat="47.06507" lon="-1.98136">
        <ele>56</ele>
        <time>2021-07-25T09:11:09.000Z</time>
      </trkpt>
      <trkpt lat="47.06506" lon="-1.98111">
        <ele>55</ele>
        <time>2021-07-25T09:11:11.000Z</time>
      </trkpt>
      <trkpt lat="47.06509" lon="-1.98085">
        <ele>54</ele>
        <time>2021-07-25T09:11:13.000Z</time>
      </trkpt>
      <trkpt lat="47.06513" lon="-1.98061">
        <ele>54</ele>
        <time>2021-07-25T09:11:15.000Z</time>
      </trkpt>
      <trkpt lat="47.06512" lon="-1.98037">
        <ele>54</ele>
        <time>2021-07-25T09:11:17.000Z</time>
      </trkpt>
      <trkpt lat="47.06507" lon="-1.98015">
        <ele>55</ele>
        <time>2021-07-25T09:11:19.000Z</time>
      </trkpt>
      <trkpt lat="47.06501" lon="-1.97995">
        <ele>55</ele>
        <time>2021-07-25T09:11:21.000Z</time>
      </trkpt>
      <trkpt lat="47.06497" lon="-1.97976">
        <ele>56</ele>
        <time>2021-07-25T09:11:23.000Z</time>
      </trkpt>
      <trkpt lat="47.06492" lon="-1.97959">
        <ele>55</ele>
        <time>2021-07-25T09:11:25.000Z</time>
      </trkpt>
      <trkpt lat="47.06488" lon="-1.97943">
        <ele>56</ele>
        <time>2021-07-25T09:11:27.000Z</time>
      </trkpt>
      <trkpt lat="47.06485" lon="-1.97927">
        <ele>57</ele>
        <time>2021-07-25T09:11:29.000Z</time>
      </trkpt>
      <trkpt lat="47.06484" lon="-1.97911">
        <ele>57</ele>
        <time>2021-07-25T09:11:31.000Z</time>
      </trkpt>
      <trkpt lat="47.06482" lon="-1.97897">
        <ele>58</ele>
        <time>2021-07-25T09:11:33.000Z</time>
      </trkpt>
      <trkpt lat="47.06482" lon="-1.97882">
        <ele>58</ele>
        <time>2021-07-25T09:11:35.000Z</time>
      </trkpt>
      <trkpt lat="47.0648" lon="-1.97869">
        <ele>59</ele>
        <time>2021-07-25T09:11:37.000Z</time>
      </trkpt>
      <trkpt lat="47.06478" lon="-1.97854">
        <ele>59</ele>
        <time>2021-07-25T09:11:39.000Z</time>
      </trkpt>
      <trkpt lat="47.06477" lon="-1.97841">
        <ele>60</ele>
        <time>2021-07-25T09:11:41.000Z</time>
      </trkpt>
      <trkpt lat="47.06476" lon="-1.97827">
        <ele>61</ele>
        <time>2021-07-25T09:11:43.000Z</time>
      </trkpt>
      <trkpt lat="47.06474" lon="-1.97811">
        <ele>61</ele>
        <time>2021-07-25T09:11:45.000Z</time>
      </trkpt>
      <trkpt lat="47.06473" lon="-1.97796">
        <ele>61</ele>
        <time>2021-07-25T09:11:47.000Z</time>
      </trkpt>
      <trkpt lat="47.06474" lon="-1.97778">
        <ele>61</ele>
        <time>2021-07-25T09:11:49.000Z</time>
      </trkpt>
      <trkpt lat="47.06473" lon="-1.97761">
        <ele>62</ele>
        <time>2021-07-25T09:11:51.000Z</time>
      </trkpt>
      <trkpt lat="47.06473" lon="-1.97746">
        <ele>63</ele>
        <time>2021-07-25T09:11:53.000Z</time>
      </trkpt>
      <trkpt lat="47.06472" lon="-1.9773">
        <ele>64</ele>
        <time>2021-07-25T09:11:55.000Z</time>
      </trkpt>
      <trkpt lat="47.06471" lon="-1.97714">
        <ele>65</ele>
        <time>2021-07-25T09:11:57.000Z</time>
      </trkpt>
      <trkpt lat="47.06471" lon="-1.97698">
        <ele>65</ele>
        <time>2021-07-25T09:11:59.000Z</time>
      </trkpt>
      <trkpt lat="47.06471" lon="-1.97682">
        <ele>65</ele>
        <time>2021-07-25T09:12:01.000Z</time>
      </trkpt>
      <trkpt lat="47.06473" lon="-1.97666">
        <ele>66</ele>
        <time>2021-07-25T09:12:03.000Z</time>
      </trkpt>
      <trkpt lat="47.06476" lon="-1.9765">
        <ele>67</ele>
        <time>2021-07-25T09:12:05.000Z</time>
      </trkpt>
      <trkpt lat="47.06483" lon="-1.97637">
        <ele>67</ele>
        <time>2021-07-25T09:12:07.000Z</time>
      </trkpt>
      <trkpt lat="47.06492" lon="-1.97627">
        <ele>67</ele>
        <time>2021-07-25T09:12:09.000Z</time>
      </trkpt>
      <trkpt lat="47.06502" lon="-1.97618">
        <ele>67</ele>
        <time>2021-07-25T09:12:11.000Z</time>
      </trkpt>
      <trkpt lat="47.0651" lon="-1.97606">
        <ele>67</ele>
        <time>2021-07-25T09:12:13.000Z</time>
      </trkpt>
      <trkpt lat="47.06513" lon="-1.97589">
        <ele>67</ele>
        <time>2021-07-25T09:12:15.000Z</time>
      </trkpt>
      <trkpt lat="47.06513" lon="-1.97571">
        <ele>67</ele>
        <time>2021-07-25T09:12:17.000Z</time>
      </trkpt>
      <trkpt lat="47.06511" lon="-1.97553">
        <ele>68</ele>
        <time>2021-07-25T09:12:19.000Z</time>
      </trkpt>
      <trkpt lat="47.06508" lon="-1.97535">
        <ele>68</ele>
        <time>2021-07-25T09:12:21.000Z</time>
      </trkpt>
      <trkpt lat="47.06505" lon="-1.97517">
        <ele>68</ele>
        <time>2021-07-25T09:12:23.000Z</time>
      </trkpt>
      <trkpt lat="47.06501" lon="-1.97501">
        <ele>68</ele>
        <time>2021-07-25T09:12:25.000Z</time>
      </trkpt>
      <trkpt lat="47.06497" lon="-1.97485">
        <ele>68</ele>
        <time>2021-07-25T09:12:27.000Z</time>
      </trkpt>
      <trkpt lat="47.06493" lon="-1.97468">
        <ele>68</ele>
        <time>2021-07-25T09:12:29.000Z</time>
      </trkpt>
      <trkpt lat="47.06489" lon="-1.97452">
        <ele>68</ele>
        <time>2021-07-25T09:12:31.000Z</time>
      </trkpt>
      <trkpt lat="47.06486" lon="-1.97435">
        <ele>68</ele>
        <time>2021-07-25T09:12:33.000Z</time>
      </trkpt>
      <trkpt lat="47.06483" lon="-1.97418">
        <ele>68</ele>
        <time>2021-07-25T09:12:35.000Z</time>
      </trkpt>
      <trkpt lat="47.0648" lon="-1.974">
        <ele>68</ele>
        <time>2021-07-25T09:12:37.000Z</time>
      </trkpt>
      <trkpt lat="47.06478" lon="-1.97383">
        <ele>68</ele>
        <time>2021-07-25T09:12:39.000Z</time>
      </trkpt>
      <trkpt lat="47.06476" lon="-1.97365">
        <ele>68</ele>
        <time>2021-07-25T09:12:41.000Z</time>
      </trkpt>
      <trkpt lat="47.06473" lon="-1.97347">
        <ele>69</ele>
        <time>2021-07-25T09:12:43.000Z</time>
      </trkpt>
      <trkpt lat="47.06472" lon="-1.97328">
        <ele>68</ele>
        <time>2021-07-25T09:12:45.000Z</time>
      </trkpt>
      <trkpt lat="47.06472" lon="-1.97312">
        <ele>68</ele>
        <time>2021-07-25T09:12:47.000Z</time>
      </trkpt>
      <trkpt lat="47.06475" lon="-1.97294">
        <ele>68</ele>
        <time>2021-07-25T09:12:49.000Z</time>
      </trkpt>
      <trkpt lat="47.06483" lon="-1.97278">
        <ele>68</ele>
        <time>2021-07-25T09:12:51.000Z</time>
      </trkpt>
      <trkpt lat="47.06493" lon="-1.97267">
        <ele>68</ele>
        <time>2021-07-25T09:12:53.000Z</time>
      </trkpt>
      <trkpt lat="47.06505" lon="-1.9726">
        <ele>68</ele>
        <time>2021-07-25T09:12:55.000Z</time>
      </trkpt>
      <trkpt lat="47.06517" lon="-1.97255">
        <ele>69</ele>
        <time>2021-07-25T09:12:57.000Z</time>
      </trkpt>
      <trkpt lat="47.0653" lon="-1.9725">
        <ele>69</ele>
        <time>2021-07-25T09:12:59.000Z</time>
      </trkpt>
      <trkpt lat="47.06542" lon="-1.97247">
        <ele>69</ele>
        <time>2021-07-25T09:13:01.000Z</time>
      </trkpt>
      <trkpt lat="47.06554" lon="-1.97244">
        <ele>69</ele>
        <time>2021-07-25T09:13:03.000Z</time>
      </trkpt>
      <trkpt lat="47.06567" lon="-1.97241">
        <ele>70</ele>
        <time>2021-07-25T09:13:05.000Z</time>
      </trkpt>
      <trkpt lat="47.0658" lon="-1.97239">
        <ele>70</ele>
        <time>2021-07-25T09:13:07.000Z</time>
      </trkpt>
      <trkpt lat="47.06593" lon="-1.97236">
        <ele>70</ele>
        <time>2021-07-25T09:13:09.000Z</time>
      </trkpt>
      <trkpt lat="47.06606" lon="-1.97234">
        <ele>69</ele>
        <time>2021-07-25T09:13:11.000Z</time>
      </trkpt>
      <trkpt lat="47.06619" lon="-1.97232">
        <ele>70</ele>
        <time>2021-07-25T09:13:13.000Z</time>
      </trkpt>
      <trkpt lat="47.06633" lon="-1.97229">
        <ele>69</ele>
        <time>2021-07-25T09:13:15.000Z</time>
      </trkpt>
      <trkpt lat="47.06645" lon="-1.97223">
        <ele>69</ele>
        <time>2021-07-25T09:13:17.000Z</time>
      </trkpt>
      <trkpt lat="47.06658" lon="-1.97215">
        <ele>68</ele>
        <time>2021-07-25T09:13:19.000Z</time>
      </trkpt>
      <trkpt lat="47.0667" lon="-1.97206">
        <ele>68</ele>
        <time>2021-07-25T09:13:21.000Z</time>
      </trkpt>
      <trkpt lat="47.06683" lon="-1.97197">
        <ele>67</ele>
        <time>2021-07-25T09:13:23.000Z</time>
      </trkpt>
      <trkpt lat="47.06696" lon="-1.97189">
        <ele>67</ele>
        <time>2021-07-25T09:13:25.000Z</time>
      </trkpt>
      <trkpt lat="47.0671" lon="-1.97181">
        <ele>68</ele>
        <time>2021-07-25T09:13:27.000Z</time>
      </trkpt>
      <trkpt lat="47.06724" lon="-1.97175">
        <ele>67</ele>
        <time>2021-07-25T09:13:29.000Z</time>
      </trkpt>
      <trkpt lat="47.06739" lon="-1.97171">
        <ele>68</ele>
        <time>2021-07-25T09:13:31.000Z</time>
      </trkpt>
      <trkpt lat="47.06754" lon="-1.97168">
        <ele>68</ele>
        <time>2021-07-25T09:13:33.000Z</time>
      </trkpt>
      <trkpt lat="47.0677" lon="-1.97165">
        <ele>67</ele>
        <time>2021-07-25T09:13:35.000Z</time>
      </trkpt>
      <trkpt lat="47.06786" lon="-1.97162">
        <ele>68</ele>
        <time>2021-07-25T09:13:37.000Z</time>
      </trkpt>
      <trkpt lat="47.068" lon="-1.97156">
        <ele>67</ele>
        <time>2021-07-25T09:13:39.000Z</time>
      </trkpt>
      <trkpt lat="47.06813" lon="-1.97145">
        <ele>66</ele>
        <time>2021-07-25T09:13:41.000Z</time>
      </trkpt>
      <trkpt lat="47.06823" lon="-1.97127">
        <ele>65</ele>
        <time>2021-07-25T09:13:43.000Z</time>
      </trkpt>
      <trkpt lat="47.0683" lon="-1.97106">
        <ele>65</ele>
        <time>2021-07-25T09:13:45.000Z</time>
      </trkpt>
      <trkpt lat="47.06835" lon="-1.97086">
        <ele>65</ele>
        <time>2021-07-25T09:13:47.000Z</time>
      </trkpt>
      <trkpt lat="47.0684" lon="-1.97066">
        <ele>65</ele>
        <time>2021-07-25T09:13:49.000Z</time>
      </trkpt>
      <trkpt lat="47.06846" lon="-1.97046">
        <ele>66</ele>
        <time>2021-07-25T09:13:51.000Z</time>
      </trkpt>
      <trkpt lat="47.06853" lon="-1.97027">
        <ele>66</ele>
        <time>2021-07-25T09:13:53.000Z</time>
      </trkpt>
      <trkpt lat="47.06859" lon="-1.97008">
        <ele>67</ele>
        <time>2021-07-25T09:13:55.000Z</time>
      </trkpt>
      <trkpt lat="47.06866" lon="-1.9699">
        <ele>68</ele>
        <time>2021-07-25T09:13:57.000Z</time>
      </trkpt>
      <trkpt lat="47.06872" lon="-1.96971">
        <ele>68</ele>
        <time>2021-07-25T09:13:59.000Z</time>
      </trkpt>
      <trkpt lat="47.06878" lon="-1.96951">
        <ele>68</ele>
        <time>2021-07-25T09:14:01.000Z</time>
      </trkpt>
      <trkpt lat="47.06882" lon="-1.96931">
        <ele>68</ele>
        <time>2021-07-25T09:14:03.000Z</time>
      </trkpt>
      <trkpt lat="47.06886" lon="-1.96911">
        <ele>68</ele>
        <time>2021-07-25T09:14:05.000Z</time>
      </trkpt>
      <trkpt lat="47.0689" lon="-1.96892">
        <ele>69</ele>
        <time>2021-07-25T09:14:07.000Z</time>
      </trkpt>
      <trkpt lat="47.06896" lon="-1.96873">
        <ele>69</ele>
        <time>2021-07-25T09:14:09.000Z</time>
      </trkpt>
      <trkpt lat="47.06904" lon="-1.96857">
        <ele>69</ele>
        <time>2021-07-25T09:14:11.000Z</time>
      </trkpt>
      <trkpt lat="47.06913" lon="-1.96841">
        <ele>70</ele>
        <time>2021-07-25T09:14:13.000Z</time>
      </trkpt>
      <trkpt lat="47.06922" lon="-1.96825">
        <ele>70</ele>
        <time>2021-07-25T09:14:15.000Z</time>
      </trkpt>
      <trkpt lat="47.06931" lon="-1.96809">
        <ele>70</ele>
        <time>2021-07-25T09:14:17.000Z</time>
      </trkpt>
      <trkpt lat="47.06939" lon="-1.96793">
        <ele>70</ele>
        <time>2021-07-25T09:14:19.000Z</time>
      </trkpt>
      <trkpt lat="47.06947" lon="-1.96778">
        <ele>71</ele>
        <time>2021-07-25T09:14:21.000Z</time>
      </trkpt>
      <trkpt lat="47.06953" lon="-1.96762">
        <ele>71</ele>
        <time>2021-07-25T09:14:23.000Z</time>
      </trkpt>
      <trkpt lat="47.06958" lon="-1.96747">
        <ele>71</ele>
        <time>2021-07-25T09:14:25.000Z</time>
      </trkpt>
      <trkpt lat="47.06962" lon="-1.96731">
        <ele>71</ele>
        <time>2021-07-25T09:14:27.000Z</time>
      </trkpt>
      <trkpt lat="47.06966" lon="-1.96716">
        <ele>71</ele>
        <time>2021-07-25T09:14:29.000Z</time>
      </trkpt>
      <trkpt lat="47.06971" lon="-1.96698">
        <ele>71</ele>
        <time>2021-07-25T09:14:31.000Z</time>
      </trkpt>
      <trkpt lat="47.06976" lon="-1.96682">
        <ele>71</ele>
        <time>2021-07-25T09:14:33.000Z</time>
      </trkpt>
      <trkpt lat="47.06982" lon="-1.96667">
        <ele>71</ele>
        <time>2021-07-25T09:14:35.000Z</time>
      </trkpt>
      <trkpt lat="47.06989" lon="-1.96651">
        <ele>72</ele>
        <time>2021-07-25T09:14:37.000Z</time>
      </trkpt>
      <trkpt lat="47.06996" lon="-1.96636">
        <ele>72</ele>
        <time>2021-07-25T09:14:39.000Z</time>
      </trkpt>
      <trkpt lat="47.07004" lon="-1.96622">
        <ele>73</ele>
        <time>2021-07-25T09:14:41.000Z</time>
      </trkpt>
      <trkpt lat="47.07012" lon="-1.96609">
        <ele>73</ele>
        <time>2021-07-25T09:14:43.000Z</time>
      </trkpt>
      <trkpt lat="47.07021" lon="-1.96598">
        <ele>72</ele>
        <time>2021-07-25T09:14:45.000Z</time>
      </trkpt>
      <trkpt lat="47.07024" lon="-1.96582">
        <ele>73</ele>
        <time>2021-07-25T09:14:47.000Z</time>
      </trkpt>
      <trkpt lat="47.07021" lon="-1.96564">
        <ele>73</ele>
        <time>2021-07-25T09:14:49.000Z</time>
      </trkpt>
      <trkpt lat="47.07017" lon="-1.96547">
        <ele>73</ele>
        <time>2021-07-25T09:14:51.000Z</time>
      </trkpt>
      <trkpt lat="47.07012" lon="-1.96531">
        <ele>73</ele>
        <time>2021-07-25T09:14:53.000Z</time>
      </trkpt>
      <trkpt lat="47.07006" lon="-1.96516">
        <ele>74</ele>
        <time>2021-07-25T09:14:55.000Z</time>
      </trkpt>
      <trkpt lat="47.06999" lon="-1.96501">
        <ele>74</ele>
        <time>2021-07-25T09:14:57.000Z</time>
      </trkpt>
      <trkpt lat="47.06992" lon="-1.96486">
        <ele>73</ele>
        <time>2021-07-25T09:14:59.000Z</time>
      </trkpt>
      <trkpt lat="47.06986" lon="-1.9647">
        <ele>73</ele>
        <time>2021-07-25T09:15:01.000Z</time>
      </trkpt>
      <trkpt lat="47.06979" lon="-1.96455">
        <ele>73</ele>
        <time>2021-07-25T09:15:03.000Z</time>
      </trkpt>
      <trkpt lat="47.06972" lon="-1.96439">
        <ele>72</ele>
        <time>2021-07-25T09:15:05.000Z</time>
      </trkpt>
      <trkpt lat="47.06966" lon="-1.96422">
        <ele>72</ele>
        <time>2021-07-25T09:15:07.000Z</time>
      </trkpt>
      <trkpt lat="47.06959" lon="-1.96404">
        <ele>72</ele>
        <time>2021-07-25T09:15:09.000Z</time>
      </trkpt>
      <trkpt lat="47.06953" lon="-1.96386">
        <ele>72</ele>
        <time>2021-07-25T09:15:11.000Z</time>
      </trkpt>
      <trkpt lat="47.0695" lon="-1.96365">
        <ele>72</ele>
        <time>2021-07-25T09:15:13.000Z</time>
      </trkpt>
      <trkpt lat="47.06954" lon="-1.96344">
        <ele>72</ele>
        <time>2021-07-25T09:15:15.000Z</time>
      </trkpt>
      <trkpt lat="47.06962" lon="-1.96325">
        <ele>72</ele>
        <time>2021-07-25T09:15:17.000Z</time>
      </trkpt>
      <trkpt lat="47.0697" lon="-1.96307">
        <ele>72</ele>
        <time>2021-07-25T09:15:19.000Z</time>
      </trkpt>
      <trkpt lat="47.06979" lon="-1.96289">
        <ele>73</ele>
        <time>2021-07-25T09:15:21.000Z</time>
      </trkpt>
      <trkpt lat="47.06987" lon="-1.96272">
        <ele>72</ele>
        <time>2021-07-25T09:15:23.000Z</time>
      </trkpt>
      <trkpt lat="47.06995" lon="-1.96255">
        <ele>72</ele>
        <time>2021-07-25T09:15:25.000Z</time>
      </trkpt>
      <trkpt lat="47.07003" lon="-1.96239">
        <ele>73</ele>
        <time>2021-07-25T09:15:27.000Z</time>
      </trkpt>
      <trkpt lat="47.0701" lon="-1.96222">
        <ele>73</ele>
        <time>2021-07-25T09:15:29.000Z</time>
      </trkpt>
      <trkpt lat="47.07018" lon="-1.96205">
        <ele>72</ele>
        <time>2021-07-25T09:15:31.000Z</time>
      </trkpt>
      <trkpt lat="47.07026" lon="-1.9619">
        <ele>72</ele>
        <time>2021-07-25T09:15:33.000Z</time>
      </trkpt>
      <trkpt lat="47.07034" lon="-1.96173">
        <ele>73</ele>
        <time>2021-07-25T09:15:35.000Z</time>
      </trkpt>
      <trkpt lat="47.07041" lon="-1.96156">
        <ele>72</ele>
        <time>2021-07-25T09:15:37.000Z</time>
      </trkpt>
      <trkpt lat="47.07048" lon="-1.9614">
        <ele>72</ele>
        <time>2021-07-25T09:15:39.000Z</time>
      </trkpt>
      <trkpt lat="47.07053" lon="-1.96122">
        <ele>72</ele>
        <time>2021-07-25T09:15:41.000Z</time>
      </trkpt>
      <trkpt lat="47.07059" lon="-1.96103">
        <ele>73</ele>
        <time>2021-07-25T09:15:43.000Z</time>
      </trkpt>
      <trkpt lat="47.07064" lon="-1.96085">
        <ele>73</ele>
        <time>2021-07-25T09:15:45.000Z</time>
      </trkpt>
      <trkpt lat="47.07072" lon="-1.96067">
        <ele>73</ele>
        <time>2021-07-25T09:15:47.000Z</time>
      </trkpt>
      <trkpt lat="47.07079" lon="-1.9605">
        <ele>73</ele>
        <time>2021-07-25T09:15:49.000Z</time>
      </trkpt>
      <trkpt lat="47.07086" lon="-1.96033">
        <ele>73</ele>
        <time>2021-07-25T09:15:51.000Z</time>
      </trkpt>
      <trkpt lat="47.07094" lon="-1.96016">
        <ele>74</ele>
        <time>2021-07-25T09:15:53.000Z</time>
      </trkpt>
      <trkpt lat="47.07101" lon="-1.96">
        <ele>75</ele>
        <time>2021-07-25T09:15:55.000Z</time>
      </trkpt>
      <trkpt lat="47.07109" lon="-1.95983">
        <ele>75</ele>
        <time>2021-07-25T09:15:57.000Z</time>
      </trkpt>
      <trkpt lat="47.07115" lon="-1.95966">
        <ele>75</ele>
        <time>2021-07-25T09:15:59.000Z</time>
      </trkpt>
      <trkpt lat="47.0712" lon="-1.95949">
        <ele>74</ele>
        <time>2021-07-25T09:16:01.000Z</time>
      </trkpt>
      <trkpt lat="47.07125" lon="-1.95931">
        <ele>74</ele>
        <time>2021-07-25T09:16:03.000Z</time>
      </trkpt>
      <trkpt lat="47.07129" lon="-1.95912">
        <ele>75</ele>
        <time>2021-07-25T09:16:05.000Z</time>
      </trkpt>
      <trkpt lat="47.07134" lon="-1.95893">
        <ele>74</ele>
        <time>2021-07-25T09:16:07.000Z</time>
      </trkpt>
      <trkpt lat="47.07139" lon="-1.95875">
        <ele>74</ele>
        <time>2021-07-25T09:16:09.000Z</time>
      </trkpt>
      <trkpt lat="47.07143" lon="-1.95856">
        <ele>74</ele>
        <time>2021-07-25T09:16:11.000Z</time>
      </trkpt>
      <trkpt lat="47.07148" lon="-1.95838">
        <ele>74</ele>
        <time>2021-07-25T09:16:13.000Z</time>
      </trkpt>
      <trkpt lat="47.07152" lon="-1.95818">
        <ele>74</ele>
        <time>2021-07-25T09:16:15.000Z</time>
      </trkpt>
      <trkpt lat="47.07155" lon="-1.95799">
        <ele>74</ele>
        <time>2021-07-25T09:16:17.000Z</time>
      </trkpt>
      <trkpt lat="47.07158" lon="-1.9578">
        <ele>74</ele>
        <time>2021-07-25T09:16:19.000Z</time>
      </trkpt>
      <trkpt lat="47.07162" lon="-1.95761">
        <ele>74</ele>
        <time>2021-07-25T09:16:21.000Z</time>
      </trkpt>
      <trkpt lat="47.07167" lon="-1.95742">
        <ele>74</ele>
        <time>2021-07-25T09:16:23.000Z</time>
      </trkpt>
      <trkpt lat="47.07171" lon="-1.95723">
        <ele>73</ele>
        <time>2021-07-25T09:16:25.000Z</time>
      </trkpt>
      <trkpt lat="47.07176" lon="-1.95705">
        <ele>73</ele>
        <time>2021-07-25T09:16:27.000Z</time>
      </trkpt>
      <trkpt lat="47.07181" lon="-1.95686">
        <ele>73</ele>
        <time>2021-07-25T09:16:29.000Z</time>
      </trkpt>
      <trkpt lat="47.07187" lon="-1.95668">
        <ele>73</ele>
        <time>2021-07-25T09:16:31.000Z</time>
      </trkpt>
      <trkpt lat="47.07192" lon="-1.95649">
        <ele>73</ele>
        <time>2021-07-25T09:16:33.000Z</time>
      </trkpt>
      <trkpt lat="47.07198" lon="-1.9563">
        <ele>73</ele>
        <time>2021-07-25T09:16:35.000Z</time>
      </trkpt>
      <trkpt lat="47.07203" lon="-1.95611">
        <ele>73</ele>
        <time>2021-07-25T09:16:37.000Z</time>
      </trkpt>
      <trkpt lat="47.07208" lon="-1.95593">
        <ele>73</ele>
        <time>2021-07-25T09:16:39.000Z</time>
      </trkpt>
      <trkpt lat="47.07213" lon="-1.95574">
        <ele>73</ele>
        <time>2021-07-25T09:16:41.000Z</time>
      </trkpt>
      <trkpt lat="47.07218" lon="-1.95556">
        <ele>73</ele>
        <time>2021-07-25T09:16:43.000Z</time>
      </trkpt>
      <trkpt lat="47.07223" lon="-1.95537">
        <ele>73</ele>
        <time>2021-07-25T09:16:45.000Z</time>
      </trkpt>
      <trkpt lat="47.07227" lon="-1.95518">
        <ele>73</ele>
        <time>2021-07-25T09:16:47.000Z</time>
      </trkpt>
      <trkpt lat="47.07232" lon="-1.95499">
        <ele>73</ele>
        <time>2021-07-25T09:16:49.000Z</time>
      </trkpt>
      <trkpt lat="47.07236" lon="-1.9548">
        <ele>74</ele>
        <time>2021-07-25T09:16:51.000Z</time>
      </trkpt>
      <trkpt lat="47.07239" lon="-1.95461">
        <ele>73</ele>
        <time>2021-07-25T09:16:53.000Z</time>
      </trkpt>
      <trkpt lat="47.07244" lon="-1.95442">
        <ele>73</ele>
        <time>2021-07-25T09:16:55.000Z</time>
      </trkpt>
      <trkpt lat="47.07248" lon="-1.95422">
        <ele>73</ele>
        <time>2021-07-25T09:16:57.000Z</time>
      </trkpt>
      <trkpt lat="47.07254" lon="-1.95404">
        <ele>73</ele>
        <time>2021-07-25T09:16:59.000Z</time>
      </trkpt>
      <trkpt lat="47.07259" lon="-1.95386">
        <ele>73</ele>
        <time>2021-07-25T09:17:01.000Z</time>
      </trkpt>
      <trkpt lat="47.07265" lon="-1.95367">
        <ele>73</ele>
        <time>2021-07-25T09:17:03.000Z</time>
      </trkpt>
      <trkpt lat="47.0727" lon="-1.95348">
        <ele>73</ele>
        <time>2021-07-25T09:17:05.000Z</time>
      </trkpt>
      <trkpt lat="47.07276" lon="-1.9533">
        <ele>74</ele>
        <time>2021-07-25T09:17:07.000Z</time>
      </trkpt>
      <trkpt lat="47.07283" lon="-1.95312">
        <ele>73</ele>
        <time>2021-07-25T09:17:09.000Z</time>
      </trkpt>
      <trkpt lat="47.0729" lon="-1.95294">
        <ele>73</ele>
        <time>2021-07-25T09:17:11.000Z</time>
      </trkpt>
      <trkpt lat="47.07297" lon="-1.95276">
        <ele>73</ele>
        <time>2021-07-25T09:17:13.000Z</time>
      </trkpt>
      <trkpt lat="47.07304" lon="-1.95258">
        <ele>73</ele>
        <time>2021-07-25T09:17:15.000Z</time>
      </trkpt>
      <trkpt lat="47.07311" lon="-1.9524">
        <ele>73</ele>
        <time>2021-07-25T09:17:17.000Z</time>
      </trkpt>
      <trkpt lat="47.07317" lon="-1.95223">
        <ele>72</ele>
        <time>2021-07-25T09:17:19.000Z</time>
      </trkpt>
      <trkpt lat="47.07323" lon="-1.95206">
        <ele>72</ele>
        <time>2021-07-25T09:17:21.000Z</time>
      </trkpt>
      <trkpt lat="47.07329" lon="-1.95189">
        <ele>72</ele>
        <time>2021-07-25T09:17:23.000Z</time>
      </trkpt>
      <trkpt lat="47.07336" lon="-1.95171">
        <ele>72</ele>
        <time>2021-07-25T09:17:25.000Z</time>
      </trkpt>
      <trkpt lat="47.07342" lon="-1.95153">
        <ele>73</ele>
        <time>2021-07-25T09:17:27.000Z</time>
      </trkpt>
      <trkpt lat="47.07349" lon="-1.95135">
        <ele>73</ele>
        <time>2021-07-25T09:17:29.000Z</time>
      </trkpt>
      <trkpt lat="47.07354" lon="-1.95116">
        <ele>73</ele>
        <time>2021-07-25T09:17:31.000Z</time>
      </trkpt>
      <trkpt lat="47.07359" lon="-1.95097">
        <ele>73</ele>
        <time>2021-07-25T09:17:33.000Z</time>
      </trkpt>
      <trkpt lat="47.07364" lon="-1.95078">
        <ele>72</ele>
        <time>2021-07-25T09:17:35.000Z</time>
      </trkpt>
      <trkpt lat="47.07369" lon="-1.95059">
        <ele>72</ele>
        <time>2021-07-25T09:17:37.000Z</time>
      </trkpt>
      <trkpt lat="47.07374" lon="-1.9504">
        <ele>72</ele>
        <time>2021-07-25T09:17:39.000Z</time>
      </trkpt>
      <trkpt lat="47.07379" lon="-1.95022">
        <ele>72</ele>
        <time>2021-07-25T09:17:41.000Z</time>
      </trkpt>
      <trkpt lat="47.07384" lon="-1.95003">
        <ele>72</ele>
        <time>2021-07-25T09:17:43.000Z</time>
      </trkpt>
      <trkpt lat="47.07388" lon="-1.94984">
        <ele>72</ele>
        <time>2021-07-25T09:17:45.000Z</time>
      </trkpt>
      <trkpt lat="47.07393" lon="-1.94965">
        <ele>72</ele>
        <time>2021-07-25T09:17:47.000Z</time>
      </trkpt>
      <trkpt lat="47.07398" lon="-1.94946">
        <ele>72</ele>
        <time>2021-07-25T09:17:49.000Z</time>
      </trkpt>
      <trkpt lat="47.07402" lon="-1.94927">
        <ele>72</ele>
        <time>2021-07-25T09:17:51.000Z</time>
      </trkpt>
      <trkpt lat="47.07407" lon="-1.94909">
        <ele>72</ele>
        <time>2021-07-25T09:17:53.000Z</time>
      </trkpt>
      <trkpt lat="47.07412" lon="-1.9489">
        <ele>72</ele>
        <time>2021-07-25T09:17:55.000Z</time>
      </trkpt>
      <trkpt lat="47.07418" lon="-1.94872">
        <ele>72</ele>
        <time>2021-07-25T09:17:57.000Z</time>
      </trkpt>
      <trkpt lat="47.07424" lon="-1.94854">
        <ele>73</ele>
        <time>2021-07-25T09:17:59.000Z</time>
      </trkpt>
      <trkpt lat="47.0743" lon="-1.94835">
        <ele>72</ele>
        <time>2021-07-25T09:18:01.000Z</time>
      </trkpt>
      <trkpt lat="47.07437" lon="-1.94817">
        <ele>72</ele>
        <time>2021-07-25T09:18:03.000Z</time>
      </trkpt>
      <trkpt lat="47.07444" lon="-1.94799">
        <ele>72</ele>
        <time>2021-07-25T09:18:05.000Z</time>
      </trkpt>
      <trkpt lat="47.0745" lon="-1.94781">
        <ele>72</ele>
        <time>2021-07-25T09:18:07.000Z</time>
      </trkpt>
      <trkpt lat="47.07455" lon="-1.94762">
        <ele>72</ele>
        <time>2021-07-25T09:18:09.000Z</time>
      </trkpt>
      <trkpt lat="47.07458" lon="-1.94742">
        <ele>72</ele>
        <time>2021-07-25T09:18:11.000Z</time>
      </trkpt>
      <trkpt lat="47.0746" lon="-1.9472">
        <ele>72</ele>
        <time>2021-07-25T09:18:13.000Z</time>
      </trkpt>
      <trkpt lat="47.07461" lon="-1.94699">
        <ele>72</ele>
        <time>2021-07-25T09:18:15.000Z</time>
      </trkpt>
      <trkpt lat="47.07462" lon="-1.94678">
        <ele>71</ele>
        <time>2021-07-25T09:18:17.000Z</time>
      </trkpt>
      <trkpt lat="47.07462" lon="-1.94656">
        <ele>71</ele>
        <time>2021-07-25T09:18:19.000Z</time>
      </trkpt>
      <trkpt lat="47.07463" lon="-1.94636">
        <ele>71</ele>
        <time>2021-07-25T09:18:21.000Z</time>
      </trkpt>
      <trkpt lat="47.07464" lon="-1.94615">
        <ele>71</ele>
        <time>2021-07-25T09:18:23.000Z</time>
      </trkpt>
      <trkpt lat="47.07465" lon="-1.94595">
        <ele>71</ele>
        <time>2021-07-25T09:18:25.000Z</time>
      </trkpt>
      <trkpt lat="47.07466" lon="-1.94575">
        <ele>70</ele>
        <time>2021-07-25T09:18:27.000Z</time>
      </trkpt>
      <trkpt lat="47.07467" lon="-1.94555">
        <ele>70</ele>
        <time>2021-07-25T09:18:29.000Z</time>
      </trkpt>
      <trkpt lat="47.07469" lon="-1.94535">
        <ele>70</ele>
        <time>2021-07-25T09:18:31.000Z</time>
      </trkpt>
      <trkpt lat="47.07472" lon="-1.94514">
        <ele>70</ele>
        <time>2021-07-25T09:18:33.000Z</time>
      </trkpt>
      <trkpt lat="47.07476" lon="-1.94495">
        <ele>70</ele>
        <time>2021-07-25T09:18:35.000Z</time>
      </trkpt>
      <trkpt lat="47.07481" lon="-1.94475">
        <ele>70</ele>
        <time>2021-07-25T09:18:37.000Z</time>
      </trkpt>
      <trkpt lat="47.07486" lon="-1.94457">
        <ele>71</ele>
        <time>2021-07-25T09:18:39.000Z</time>
      </trkpt>
      <trkpt lat="47.07491" lon="-1.94437">
        <ele>71</ele>
        <time>2021-07-25T09:18:41.000Z</time>
      </trkpt>
      <trkpt lat="47.07496" lon="-1.94418">
        <ele>71</ele>
        <time>2021-07-25T09:18:43.000Z</time>
      </trkpt>
      <trkpt lat="47.075" lon="-1.94399">
        <ele>71</ele>
        <time>2021-07-25T09:18:45.000Z</time>
      </trkpt>
      <trkpt lat="47.07504" lon="-1.94379">
        <ele>71</ele>
        <time>2021-07-25T09:18:47.000Z</time>
      </trkpt>
      <trkpt lat="47.07511" lon="-1.9435">
        <ele>71</ele>
        <time>2021-07-25T09:18:50.000Z</time>
      </trkpt>
      <trkpt lat="47.07515" lon="-1.9433">
        <ele>71</ele>
        <time>2021-07-25T09:18:52.000Z</time>
      </trkpt>
      <trkpt lat="47.07518" lon="-1.94312">
        <ele>71</ele>
        <time>2021-07-25T09:18:54.000Z</time>
      </trkpt>
      <trkpt lat="47.07522" lon="-1.94292">
        <ele>71</ele>
        <time>2021-07-25T09:18:56.000Z</time>
      </trkpt>
      <trkpt lat="47.07527" lon="-1.94273">
        <ele>71</ele>
        <time>2021-07-25T09:18:58.000Z</time>
      </trkpt>
      <trkpt lat="47.07531" lon="-1.94253">
        <ele>71</ele>
        <time>2021-07-25T09:19:00.000Z</time>
      </trkpt>
      <trkpt lat="47.07534" lon="-1.94234">
        <ele>71</ele>
        <time>2021-07-25T09:19:02.000Z</time>
      </trkpt>
      <trkpt lat="47.07539" lon="-1.94204">
        <ele>71</ele>
        <time>2021-07-25T09:19:05.000Z</time>
      </trkpt>
      <trkpt lat="47.07541" lon="-1.94184">
        <ele>71</ele>
        <time>2021-07-25T09:19:07.000Z</time>
      </trkpt>
      <trkpt lat="47.07541" lon="-1.94163">
        <ele>71</ele>
        <time>2021-07-25T09:19:09.000Z</time>
      </trkpt>
      <trkpt lat="47.07538" lon="-1.94143">
        <ele>71</ele>
        <time>2021-07-25T09:19:11.000Z</time>
      </trkpt>
      <trkpt lat="47.07536" lon="-1.94122">
        <ele>72</ele>
        <time>2021-07-25T09:19:13.000Z</time>
      </trkpt>
      <trkpt lat="47.07535" lon="-1.94101">
        <ele>72</ele>
        <time>2021-07-25T09:19:15.000Z</time>
      </trkpt>
      <trkpt lat="47.07533" lon="-1.94081">
        <ele>72</ele>
        <time>2021-07-25T09:19:17.000Z</time>
      </trkpt>
      <trkpt lat="47.07531" lon="-1.9405">
        <ele>71</ele>
        <time>2021-07-25T09:19:20.000Z</time>
      </trkpt>
      <trkpt lat="47.0753" lon="-1.9403">
        <ele>71</ele>
        <time>2021-07-25T09:19:22.000Z</time>
      </trkpt>
      <trkpt lat="47.07527" lon="-1.94">
        <ele>71</ele>
        <time>2021-07-25T09:19:25.000Z</time>
      </trkpt>
      <trkpt lat="47.07525" lon="-1.9398">
        <ele>71</ele>
        <time>2021-07-25T09:19:27.000Z</time>
      </trkpt>
      <trkpt lat="47.07522" lon="-1.93961">
        <ele>71</ele>
        <time>2021-07-25T09:19:29.000Z</time>
      </trkpt>
      <trkpt lat="47.0752" lon="-1.93942">
        <ele>71</ele>
        <time>2021-07-25T09:19:31.000Z</time>
      </trkpt>
      <trkpt lat="47.07517" lon="-1.93922">
        <ele>70</ele>
        <time>2021-07-25T09:19:33.000Z</time>
      </trkpt>
      <trkpt lat="47.07515" lon="-1.93901">
        <ele>70</ele>
        <time>2021-07-25T09:19:35.000Z</time>
      </trkpt>
      <trkpt lat="47.07512" lon="-1.93881">
        <ele>70</ele>
        <time>2021-07-25T09:19:37.000Z</time>
      </trkpt>
      <trkpt lat="47.0751" lon="-1.93861">
        <ele>70</ele>
        <time>2021-07-25T09:19:39.000Z</time>
      </trkpt>
      <trkpt lat="47.07507" lon="-1.93841">
        <ele>70</ele>
        <time>2021-07-25T09:19:41.000Z</time>
      </trkpt>
      <trkpt lat="47.07505" lon="-1.93822">
        <ele>70</ele>
        <time>2021-07-25T09:19:43.000Z</time>
      </trkpt>
      <trkpt lat="47.07503" lon="-1.93802">
        <ele>70</ele>
        <time>2021-07-25T09:19:45.000Z</time>
      </trkpt>
      <trkpt lat="47.075" lon="-1.93782">
        <ele>69</ele>
        <time>2021-07-25T09:19:47.000Z</time>
      </trkpt>
      <trkpt lat="47.07497" lon="-1.93763">
        <ele>69</ele>
        <time>2021-07-25T09:19:49.000Z</time>
      </trkpt>
      <trkpt lat="47.07495" lon="-1.93744">
        <ele>70</ele>
        <time>2021-07-25T09:19:51.000Z</time>
      </trkpt>
      <trkpt lat="47.07492" lon="-1.93724">
        <ele>70</ele>
        <time>2021-07-25T09:19:53.000Z</time>
      </trkpt>
      <trkpt lat="47.07489" lon="-1.93705">
        <ele>71</ele>
        <time>2021-07-25T09:19:55.000Z</time>
      </trkpt>
      <trkpt lat="47.07487" lon="-1.93687">
        <ele>71</ele>
        <time>2021-07-25T09:19:57.000Z</time>
      </trkpt>
      <trkpt lat="47.07484" lon="-1.93669">
        <ele>72</ele>
        <time>2021-07-25T09:19:59.000Z</time>
      </trkpt>
      <trkpt lat="47.07482" lon="-1.93651">
        <ele>72</ele>
        <time>2021-07-25T09:20:01.000Z</time>
      </trkpt>
      <trkpt lat="47.07479" lon="-1.93636">
        <ele>72</ele>
        <time>2021-07-25T09:20:03.000Z</time>
      </trkpt>
      <trkpt lat="47.07477" lon="-1.9362">
        <ele>73</ele>
        <time>2021-07-25T09:20:05.000Z</time>
      </trkpt>
      <trkpt lat="47.07475" lon="-1.93607">
        <ele>73</ele>
        <time>2021-07-25T09:20:07.000Z</time>
      </trkpt>
      <trkpt lat="47.07473" lon="-1.93594">
        <ele>73</ele>
        <time>2021-07-25T09:20:10.000Z</time>
      </trkpt>
      <trkpt lat="47.0747" lon="-1.93574">
        <ele>73</ele>
        <time>2021-07-25T09:20:14.000Z</time>
      </trkpt>
      <trkpt lat="47.07469" lon="-1.9356">
        <ele>73</ele>
        <time>2021-07-25T09:20:16.000Z</time>
      </trkpt>
      <trkpt lat="47.07466" lon="-1.93544">
        <ele>73</ele>
        <time>2021-07-25T09:20:18.000Z</time>
      </trkpt>
      <trkpt lat="47.07464" lon="-1.93527">
        <ele>73</ele>
        <time>2021-07-25T09:20:20.000Z</time>
      </trkpt>
      <trkpt lat="47.07462" lon="-1.93511">
        <ele>73</ele>
        <time>2021-07-25T09:20:22.000Z</time>
      </trkpt>
      <trkpt lat="47.07459" lon="-1.93496">
        <ele>73</ele>
        <time>2021-07-25T09:20:24.000Z</time>
      </trkpt>
      <trkpt lat="47.07456" lon="-1.93479">
        <ele>74</ele>
        <time>2021-07-25T09:20:26.000Z</time>
      </trkpt>
      <trkpt lat="47.07455" lon="-1.93462">
        <ele>74</ele>
        <time>2021-07-25T09:20:28.000Z</time>
      </trkpt>
      <trkpt lat="47.07453" lon="-1.93445">
        <ele>74</ele>
        <time>2021-07-25T09:20:30.000Z</time>
      </trkpt>
      <trkpt lat="47.07451" lon="-1.93427">
        <ele>74</ele>
        <time>2021-07-25T09:20:32.000Z</time>
      </trkpt>
      <trkpt lat="47.07449" lon="-1.93409">
        <ele>74</ele>
        <time>2021-07-25T09:20:34.000Z</time>
      </trkpt>
      <trkpt lat="47.07447" lon="-1.93392">
        <ele>74</ele>
        <time>2021-07-25T09:20:36.000Z</time>
      </trkpt>
      <trkpt lat="47.07445" lon="-1.93374">
        <ele>74</ele>
        <time>2021-07-25T09:20:38.000Z</time>
      </trkpt>
      <trkpt lat="47.07443" lon="-1.93356">
        <ele>74</ele>
        <time>2021-07-25T09:20:40.000Z</time>
      </trkpt>
      <trkpt lat="47.07441" lon="-1.93338">
        <ele>74</ele>
        <time>2021-07-25T09:20:42.000Z</time>
      </trkpt>
      <trkpt lat="47.07438" lon="-1.93321">
        <ele>74</ele>
        <time>2021-07-25T09:20:44.000Z</time>
      </trkpt>
      <trkpt lat="47.07434" lon="-1.93303">
        <ele>74</ele>
        <time>2021-07-25T09:20:46.000Z</time>
      </trkpt>
      <trkpt lat="47.07431" lon="-1.93286">
        <ele>74</ele>
        <time>2021-07-25T09:20:48.000Z</time>
      </trkpt>
      <trkpt lat="47.07427" lon="-1.93269">
        <ele>74</ele>
        <time>2021-07-25T09:20:50.000Z</time>
      </trkpt>
      <trkpt lat="47.07423" lon="-1.93252">
        <ele>74</ele>
        <time>2021-07-25T09:20:52.000Z</time>
      </trkpt>
      <trkpt lat="47.07419" lon="-1.93235">
        <ele>74</ele>
        <time>2021-07-25T09:20:54.000Z</time>
      </trkpt>
      <trkpt lat="47.07416" lon="-1.93218">
        <ele>74</ele>
        <time>2021-07-25T09:20:56.000Z</time>
      </trkpt>
      <trkpt lat="47.07413" lon="-1.93201">
        <ele>74</ele>
        <time>2021-07-25T09:20:58.000Z</time>
      </trkpt>
      <trkpt lat="47.07411" lon="-1.93183">
        <ele>75</ele>
        <time>2021-07-25T09:21:00.000Z</time>
      </trkpt>
      <trkpt lat="47.07411" lon="-1.93165">
        <ele>75</ele>
        <time>2021-07-25T09:21:02.000Z</time>
      </trkpt>
      <trkpt lat="47.07413" lon="-1.93148">
        <ele>75</ele>
        <time>2021-07-25T09:21:04.000Z</time>
      </trkpt>
      <trkpt lat="47.07415" lon="-1.9313">
        <ele>75</ele>
        <time>2021-07-25T09:21:06.000Z</time>
      </trkpt>
      <trkpt lat="47.07418" lon="-1.93112">
        <ele>75</ele>
        <time>2021-07-25T09:21:08.000Z</time>
      </trkpt>
      <trkpt lat="47.07422" lon="-1.93095">
        <ele>75</ele>
        <time>2021-07-25T09:21:10.000Z</time>
      </trkpt>
      <trkpt lat="47.07425" lon="-1.93078">
        <ele>76</ele>
        <time>2021-07-25T09:21:12.000Z</time>
      </trkpt>
      <trkpt lat="47.07426" lon="-1.93059">
        <ele>75</ele>
        <time>2021-07-25T09:21:14.000Z</time>
      </trkpt>
      <trkpt lat="47.07426" lon="-1.93041">
        <ele>75</ele>
        <time>2021-07-25T09:21:16.000Z</time>
      </trkpt>
      <trkpt lat="47.07426" lon="-1.93022">
        <ele>75</ele>
        <time>2021-07-25T09:21:18.000Z</time>
      </trkpt>
      <trkpt lat="47.07427" lon="-1.93003">
        <ele>75</ele>
        <time>2021-07-25T09:21:20.000Z</time>
      </trkpt>
      <trkpt lat="47.07427" lon="-1.92985">
        <ele>75</ele>
        <time>2021-07-25T09:21:22.000Z</time>
      </trkpt>
      <trkpt lat="47.07428" lon="-1.92966">
        <ele>75</ele>
        <time>2021-07-25T09:21:24.000Z</time>
      </trkpt>
      <trkpt lat="47.07428" lon="-1.92948">
        <ele>75</ele>
        <time>2021-07-25T09:21:26.000Z</time>
      </trkpt>
      <trkpt lat="47.07428" lon="-1.92928">
        <ele>75</ele>
        <time>2021-07-25T09:21:28.000Z</time>
      </trkpt>
      <trkpt lat="47.07428" lon="-1.92909">
        <ele>75</ele>
        <time>2021-07-25T09:21:30.000Z</time>
      </trkpt>
      <trkpt lat="47.07428" lon="-1.92891">
        <ele>75</ele>
        <time>2021-07-25T09:21:32.000Z</time>
      </trkpt>
      <trkpt lat="47.07428" lon="-1.92873">
        <ele>75</ele>
        <time>2021-07-25T09:21:34.000Z</time>
      </trkpt>
      <trkpt lat="47.07428" lon="-1.92854">
        <ele>74</ele>
        <time>2021-07-25T09:21:36.000Z</time>
      </trkpt>
      <trkpt lat="47.07427" lon="-1.92835">
        <ele>74</ele>
        <time>2021-07-25T09:21:38.000Z</time>
      </trkpt>
      <trkpt lat="47.07426" lon="-1.92816">
        <ele>74</ele>
        <time>2021-07-25T09:21:40.000Z</time>
      </trkpt>
      <trkpt lat="47.07423" lon="-1.92797">
        <ele>74</ele>
        <time>2021-07-25T09:21:42.000Z</time>
      </trkpt>
      <trkpt lat="47.0742" lon="-1.92779">
        <ele>74</ele>
        <time>2021-07-25T09:21:44.000Z</time>
      </trkpt>
      <trkpt lat="47.07419" lon="-1.92761">
        <ele>74</ele>
        <time>2021-07-25T09:21:46.000Z</time>
      </trkpt>
      <trkpt lat="47.07418" lon="-1.92742">
        <ele>75</ele>
        <time>2021-07-25T09:21:48.000Z</time>
      </trkpt>
      <trkpt lat="47.07416" lon="-1.92724">
        <ele>75</ele>
        <time>2021-07-25T09:21:50.000Z</time>
      </trkpt>
      <trkpt lat="47.07416" lon="-1.92705">
        <ele>75</ele>
        <time>2021-07-25T09:21:52.000Z</time>
      </trkpt>
      <trkpt lat="47.07415" lon="-1.92687">
        <ele>74</ele>
        <time>2021-07-25T09:21:54.000Z</time>
      </trkpt>
      <trkpt lat="47.07414" lon="-1.92669">
        <ele>75</ele>
        <time>2021-07-25T09:21:56.000Z</time>
      </trkpt>
      <trkpt lat="47.07414" lon="-1.9265">
        <ele>75</ele>
        <time>2021-07-25T09:21:58.000Z</time>
      </trkpt>
      <trkpt lat="47.07413" lon="-1.92632">
        <ele>75</ele>
        <time>2021-07-25T09:22:00.000Z</time>
      </trkpt>
      <trkpt lat="47.0741" lon="-1.92614">
        <ele>75</ele>
        <time>2021-07-25T09:22:02.000Z</time>
      </trkpt>
      <trkpt lat="47.07408" lon="-1.92596">
        <ele>75</ele>
        <time>2021-07-25T09:22:04.000Z</time>
      </trkpt>
      <trkpt lat="47.07407" lon="-1.92578">
        <ele>75</ele>
        <time>2021-07-25T09:22:06.000Z</time>
      </trkpt>
      <trkpt lat="47.07406" lon="-1.92561">
        <ele>75</ele>
        <time>2021-07-25T09:22:08.000Z</time>
      </trkpt>
      <trkpt lat="47.07406" lon="-1.92543">
        <ele>76</ele>
        <time>2021-07-25T09:22:10.000Z</time>
      </trkpt>
      <trkpt lat="47.07405" lon="-1.92525">
        <ele>76</ele>
        <time>2021-07-25T09:22:12.000Z</time>
      </trkpt>
      <trkpt lat="47.07405" lon="-1.92508">
        <ele>76</ele>
        <time>2021-07-25T09:22:14.000Z</time>
      </trkpt>
      <trkpt lat="47.07406" lon="-1.92489">
        <ele>76</ele>
        <time>2021-07-25T09:22:16.000Z</time>
      </trkpt>
      <trkpt lat="47.07407" lon="-1.92471">
        <ele>76</ele>
        <time>2021-07-25T09:22:18.000Z</time>
      </trkpt>
      <trkpt lat="47.07408" lon="-1.92453">
        <ele>75</ele>
        <time>2021-07-25T09:22:20.000Z</time>
      </trkpt>
      <trkpt lat="47.07409" lon="-1.92436">
        <ele>75</ele>
        <time>2021-07-25T09:22:22.000Z</time>
      </trkpt>
      <trkpt lat="47.0741" lon="-1.92417">
        <ele>75</ele>
        <time>2021-07-25T09:22:24.000Z</time>
      </trkpt>
      <trkpt lat="47.07412" lon="-1.924">
        <ele>75</ele>
        <time>2021-07-25T09:22:26.000Z</time>
      </trkpt>
      <trkpt lat="47.07413" lon="-1.92382">
        <ele>76</ele>
        <time>2021-07-25T09:22:28.000Z</time>
      </trkpt>
      <trkpt lat="47.07414" lon="-1.92364">
        <ele>75</ele>
        <time>2021-07-25T09:22:30.000Z</time>
      </trkpt>
      <trkpt lat="47.07416" lon="-1.92346">
        <ele>75</ele>
        <time>2021-07-25T09:22:32.000Z</time>
      </trkpt>
      <trkpt lat="47.07417" lon="-1.92327">
        <ele>75</ele>
        <time>2021-07-25T09:22:34.000Z</time>
      </trkpt>
      <trkpt lat="47.07419" lon="-1.92308">
        <ele>75</ele>
        <time>2021-07-25T09:22:36.000Z</time>
      </trkpt>
      <trkpt lat="47.0742" lon="-1.9229">
        <ele>75</ele>
        <time>2021-07-25T09:22:38.000Z</time>
      </trkpt>
      <trkpt lat="47.07422" lon="-1.92272">
        <ele>75</ele>
        <time>2021-07-25T09:22:40.000Z</time>
      </trkpt>
      <trkpt lat="47.07423" lon="-1.92254">
        <ele>76</ele>
        <time>2021-07-25T09:22:42.000Z</time>
      </trkpt>
      <trkpt lat="47.07424" lon="-1.92235">
        <ele>76</ele>
        <time>2021-07-25T09:22:44.000Z</time>
      </trkpt>
      <trkpt lat="47.07425" lon="-1.92217">
        <ele>76</ele>
        <time>2021-07-25T09:22:46.000Z</time>
      </trkpt>
      <trkpt lat="47.07426" lon="-1.92199">
        <ele>76</ele>
        <time>2021-07-25T09:22:48.000Z</time>
      </trkpt>
      <trkpt lat="47.07427" lon="-1.92181">
        <ele>76</ele>
        <time>2021-07-25T09:22:50.000Z</time>
      </trkpt>
      <trkpt lat="47.07428" lon="-1.92162">
        <ele>76</ele>
        <time>2021-07-25T09:22:52.000Z</time>
      </trkpt>
      <trkpt lat="47.07428" lon="-1.92144">
        <ele>76</ele>
        <time>2021-07-25T09:22:54.000Z</time>
      </trkpt>
      <trkpt lat="47.0743" lon="-1.92125">
        <ele>76</ele>
        <time>2021-07-25T09:22:56.000Z</time>
      </trkpt>
      <trkpt lat="47.07431" lon="-1.92107">
        <ele>76</ele>
        <time>2021-07-25T09:22:58.000Z</time>
      </trkpt>
      <trkpt lat="47.07432" lon="-1.92088">
        <ele>76</ele>
        <time>2021-07-25T09:23:00.000Z</time>
      </trkpt>
      <trkpt lat="47.07434" lon="-1.9207">
        <ele>75</ele>
        <time>2021-07-25T09:23:02.000Z</time>
      </trkpt>
      <trkpt lat="47.07435" lon="-1.92051">
        <ele>75</ele>
        <time>2021-07-25T09:23:04.000Z</time>
      </trkpt>
      <trkpt lat="47.07436" lon="-1.92033">
        <ele>75</ele>
        <time>2021-07-25T09:23:06.000Z</time>
      </trkpt>
      <trkpt lat="47.07437" lon="-1.92013">
        <ele>75</ele>
        <time>2021-07-25T09:23:08.000Z</time>
      </trkpt>
      <trkpt lat="47.07437" lon="-1.91995">
        <ele>75</ele>
        <time>2021-07-25T09:23:10.000Z</time>
      </trkpt>
      <trkpt lat="47.07438" lon="-1.91976">
        <ele>75</ele>
        <time>2021-07-25T09:23:12.000Z</time>
      </trkpt>
      <trkpt lat="47.0744" lon="-1.91957">
        <ele>75</ele>
        <time>2021-07-25T09:23:14.000Z</time>
      </trkpt>
      <trkpt lat="47.0744" lon="-1.91939">
        <ele>75</ele>
        <time>2021-07-25T09:23:16.000Z</time>
      </trkpt>
      <trkpt lat="47.07442" lon="-1.91921">
        <ele>75</ele>
        <time>2021-07-25T09:23:18.000Z</time>
      </trkpt>
      <trkpt lat="47.07444" lon="-1.91902">
        <ele>74</ele>
        <time>2021-07-25T09:23:20.000Z</time>
      </trkpt>
      <trkpt lat="47.07445" lon="-1.91883">
        <ele>74</ele>
        <time>2021-07-25T09:23:22.000Z</time>
      </trkpt>
      <trkpt lat="47.07446" lon="-1.91865">
        <ele>74</ele>
        <time>2021-07-25T09:23:24.000Z</time>
      </trkpt>
      <trkpt lat="47.07448" lon="-1.91845">
        <ele>74</ele>
        <time>2021-07-25T09:23:26.000Z</time>
      </trkpt>
      <trkpt lat="47.07451" lon="-1.91827">
        <ele>74</ele>
        <time>2021-07-25T09:23:28.000Z</time>
      </trkpt>
      <trkpt lat="47.07453" lon="-1.91809">
        <ele>74</ele>
        <time>2021-07-25T09:23:30.000Z</time>
      </trkpt>
      <trkpt lat="47.07455" lon="-1.9179">
        <ele>74</ele>
        <time>2021-07-25T09:23:32.000Z</time>
      </trkpt>
      <trkpt lat="47.07456" lon="-1.91771">
        <ele>74</ele>
        <time>2021-07-25T09:23:34.000Z</time>
      </trkpt>
      <trkpt lat="47.07458" lon="-1.91752">
        <ele>74</ele>
        <time>2021-07-25T09:23:36.000Z</time>
      </trkpt>
      <trkpt lat="47.07459" lon="-1.91734">
        <ele>74</ele>
        <time>2021-07-25T09:23:38.000Z</time>
      </trkpt>
      <trkpt lat="47.07461" lon="-1.91715">
        <ele>74</ele>
        <time>2021-07-25T09:23:40.000Z</time>
      </trkpt>
      <trkpt lat="47.07463" lon="-1.91696">
        <ele>74</ele>
        <time>2021-07-25T09:23:42.000Z</time>
      </trkpt>
      <trkpt lat="47.07464" lon="-1.91677">
        <ele>74</ele>
        <time>2021-07-25T09:23:44.000Z</time>
      </trkpt>
      <trkpt lat="47.07466" lon="-1.91659">
        <ele>73</ele>
        <time>2021-07-25T09:23:46.000Z</time>
      </trkpt>
      <trkpt lat="47.07466" lon="-1.91641">
        <ele>73</ele>
        <time>2021-07-25T09:23:48.000Z</time>
      </trkpt>
      <trkpt lat="47.07468" lon="-1.91623">
        <ele>73</ele>
        <time>2021-07-25T09:23:50.000Z</time>
      </trkpt>
      <trkpt lat="47.0747" lon="-1.91604">
        <ele>73</ele>
        <time>2021-07-25T09:23:52.000Z</time>
      </trkpt>
      <trkpt lat="47.07473" lon="-1.91586">
        <ele>73</ele>
        <time>2021-07-25T09:23:54.000Z</time>
      </trkpt>
      <trkpt lat="47.07476" lon="-1.91568">
        <ele>73</ele>
        <time>2021-07-25T09:23:56.000Z</time>
      </trkpt>
      <trkpt lat="47.07479" lon="-1.91551">
        <ele>73</ele>
        <time>2021-07-25T09:23:58.000Z</time>
      </trkpt>
      <trkpt lat="47.07482" lon="-1.91537">
        <ele>73</ele>
        <time>2021-07-25T09:24:00.000Z</time>
      </trkpt>
      <trkpt lat="47.07485" lon="-1.91522">
        <ele>73</ele>
        <time>2021-07-25T09:24:02.000Z</time>
      </trkpt>
      <trkpt lat="47.07488" lon="-1.91504">
        <ele>73</ele>
        <time>2021-07-25T09:24:05.000Z</time>
      </trkpt>
      <trkpt lat="47.07492" lon="-1.91492">
        <ele>73</ele>
        <time>2021-07-25T09:24:08.000Z</time>
      </trkpt>
      <trkpt lat="47.07498" lon="-1.91481">
        <ele>73</ele>
        <time>2021-07-25T09:24:11.000Z</time>
      </trkpt>
      <trkpt lat="47.07505" lon="-1.9147">
        <ele>73</ele>
        <time>2021-07-25T09:24:14.000Z</time>
      </trkpt>
      <trkpt lat="47.07513" lon="-1.91459">
        <ele>73</ele>
        <time>2021-07-25T09:24:18.000Z</time>
      </trkpt>
      <trkpt lat="47.07521" lon="-1.91453">
        <ele>73</ele>
        <time>2021-07-25T09:24:30.000Z</time>
      </trkpt>
      <trkpt lat="47.0753" lon="-1.91447">
        <ele>73</ele>
        <time>2021-07-25T09:25:16.000Z</time>
      </trkpt>
      <trkpt lat="47.0754" lon="-1.91438">
        <ele>74</ele>
        <time>2021-07-25T09:25:20.000Z</time>
      </trkpt>
      <trkpt lat="47.07549" lon="-1.91426">
        <ele>76</ele>
        <time>2021-07-25T09:25:23.000Z</time>
      </trkpt>
      <trkpt lat="47.07556" lon="-1.91411">
        <ele>78</ele>
        <time>2021-07-25T09:25:25.000Z</time>
      </trkpt>
      <trkpt lat="47.07563" lon="-1.91398">
        <ele>78</ele>
        <time>2021-07-25T09:25:27.000Z</time>
      </trkpt>
      <trkpt lat="47.07569" lon="-1.91385">
        <ele>78</ele>
        <time>2021-07-25T09:25:29.000Z</time>
      </trkpt>
      <trkpt lat="47.07575" lon="-1.91372">
        <ele>78</ele>
        <time>2021-07-25T09:25:31.000Z</time>
      </trkpt>
      <trkpt lat="47.0758" lon="-1.91359">
        <ele>78</ele>
        <time>2021-07-25T09:25:33.000Z</time>
      </trkpt>
      <trkpt lat="47.07586" lon="-1.91348">
        <ele>78</ele>
        <time>2021-07-25T09:25:35.000Z</time>
      </trkpt>
      <trkpt lat="47.07593" lon="-1.91336">
        <ele>78</ele>
        <time>2021-07-25T09:25:37.000Z</time>
      </trkpt>
      <trkpt lat="47.076" lon="-1.91323">
        <ele>78</ele>
        <time>2021-07-25T09:25:39.000Z</time>
      </trkpt>
      <trkpt lat="47.07607" lon="-1.91312">
        <ele>77</ele>
        <time>2021-07-25T09:25:41.000Z</time>
      </trkpt>
      <trkpt lat="47.07613" lon="-1.913">
        <ele>78</ele>
        <time>2021-07-25T09:25:43.000Z</time>
      </trkpt>
      <trkpt lat="47.07622" lon="-1.91284">
        <ele>80</ele>
        <time>2021-07-25T09:25:46.000Z</time>
      </trkpt>
      <trkpt lat="47.0763" lon="-1.91273">
        <ele>81</ele>
        <time>2021-07-25T09:25:48.000Z</time>
      </trkpt>
      <trkpt lat="47.0764" lon="-1.91261">
        <ele>81</ele>
        <time>2021-07-25T09:25:50.000Z</time>
      </trkpt>
      <trkpt lat="47.07648" lon="-1.91253">
        <ele>81</ele>
        <time>2021-07-25T09:25:52.000Z</time>
      </trkpt>
      <trkpt lat="47.07658" lon="-1.91244">
        <ele>82</ele>
        <time>2021-07-25T09:25:55.000Z</time>
      </trkpt>
      <trkpt lat="47.07669" lon="-1.91236">
        <ele>81</ele>
        <time>2021-07-25T09:25:58.000Z</time>
      </trkpt>
      <trkpt lat="47.07679" lon="-1.91227">
        <ele>80</ele>
        <time>2021-07-25T09:26:01.000Z</time>
      </trkpt>
      <trkpt lat="47.07691" lon="-1.91216">
        <ele>79</ele>
        <time>2021-07-25T09:26:04.000Z</time>
      </trkpt>
      <trkpt lat="47.077" lon="-1.91202">
        <ele>79</ele>
        <time>2021-07-25T09:26:07.000Z</time>
      </trkpt>
      <trkpt lat="47.07708" lon="-1.91188">
        <ele>79</ele>
        <time>2021-07-25T09:26:10.000Z</time>
      </trkpt>
      <trkpt lat="47.07713" lon="-1.91175">
        <ele>79</ele>
        <time>2021-07-25T09:26:12.000Z</time>
      </trkpt>
      <trkpt lat="47.07719" lon="-1.91163">
        <ele>78</ele>
        <time>2021-07-25T09:26:14.000Z</time>
      </trkpt>
      <trkpt lat="47.07726" lon="-1.91147">
        <ele>78</ele>
        <time>2021-07-25T09:26:17.000Z</time>
      </trkpt>
      <trkpt lat="47.07732" lon="-1.91134">
        <ele>78</ele>
        <time>2021-07-25T09:26:20.000Z</time>
      </trkpt>
      <trkpt lat="47.07739" lon="-1.91119">
        <ele>79</ele>
        <time>2021-07-25T09:26:23.000Z</time>
      </trkpt>
      <trkpt lat="47.07744" lon="-1.91107">
        <ele>79</ele>
        <time>2021-07-25T09:26:26.000Z</time>
      </trkpt>
      <trkpt lat="47.0775" lon="-1.91096">
        <ele>79</ele>
        <time>2021-07-25T09:26:30.000Z</time>
      </trkpt>
      <trkpt lat="47.07759" lon="-1.91082">
        <ele>80</ele>
        <time>2021-07-25T09:26:33.000Z</time>
      </trkpt>
      <trkpt lat="47.07765" lon="-1.9107">
        <ele>80</ele>
        <time>2021-07-25T09:26:35.000Z</time>
      </trkpt>
      <trkpt lat="47.0777" lon="-1.91055">
        <ele>80</ele>
        <time>2021-07-25T09:26:37.000Z</time>
      </trkpt>
      <trkpt lat="47.07776" lon="-1.91041">
        <ele>79</ele>
        <time>2021-07-25T09:26:39.000Z</time>
      </trkpt>
      <trkpt lat="47.07782" lon="-1.91025">
        <ele>79</ele>
        <time>2021-07-25T09:26:41.000Z</time>
      </trkpt>
      <trkpt lat="47.07788" lon="-1.91009">
        <ele>78</ele>
        <time>2021-07-25T09:26:43.000Z</time>
      </trkpt>
      <trkpt lat="47.07795" lon="-1.90993">
        <ele>78</ele>
        <time>2021-07-25T09:26:45.000Z</time>
      </trkpt>
      <trkpt lat="47.078" lon="-1.90977">
        <ele>78</ele>
        <time>2021-07-25T09:26:47.000Z</time>
      </trkpt>
      <trkpt lat="47.07806" lon="-1.90961">
        <ele>78</ele>
        <time>2021-07-25T09:26:49.000Z</time>
      </trkpt>
      <trkpt lat="47.07812" lon="-1.90945">
        <ele>78</ele>
        <time>2021-07-25T09:26:51.000Z</time>
      </trkpt>
      <trkpt lat="47.07818" lon="-1.90929">
        <ele>78</ele>
        <time>2021-07-25T09:26:53.000Z</time>
      </trkpt>
      <trkpt lat="47.07825" lon="-1.90913">
        <ele>79</ele>
        <time>2021-07-25T09:26:55.000Z</time>
      </trkpt>
      <trkpt lat="47.07832" lon="-1.90897">
        <ele>79</ele>
        <time>2021-07-25T09:26:57.000Z</time>
      </trkpt>
      <trkpt lat="47.07839" lon="-1.90882">
        <ele>79</ele>
        <time>2021-07-25T09:26:59.000Z</time>
      </trkpt>
      <trkpt lat="47.07847" lon="-1.90867">
        <ele>79</ele>
        <time>2021-07-25T09:27:01.000Z</time>
      </trkpt>
      <trkpt lat="47.07855" lon="-1.90852">
        <ele>78</ele>
        <time>2021-07-25T09:27:03.000Z</time>
      </trkpt>
      <trkpt lat="47.07864" lon="-1.90838">
        <ele>78</ele>
        <time>2021-07-25T09:27:05.000Z</time>
      </trkpt>
      <trkpt lat="47.07873" lon="-1.90825">
        <ele>79</ele>
        <time>2021-07-25T09:27:07.000Z</time>
      </trkpt>
      <trkpt lat="47.07882" lon="-1.90811">
        <ele>79</ele>
        <time>2021-07-25T09:27:09.000Z</time>
      </trkpt>
      <trkpt lat="47.07891" lon="-1.90799">
        <ele>79</ele>
        <time>2021-07-25T09:27:11.000Z</time>
      </trkpt>
      <trkpt lat="47.079" lon="-1.90785">
        <ele>79</ele>
        <time>2021-07-25T09:27:13.000Z</time>
      </trkpt>
      <trkpt lat="47.07909" lon="-1.90771">
        <ele>79</ele>
        <time>2021-07-25T09:27:15.000Z</time>
      </trkpt>
      <trkpt lat="47.07919" lon="-1.90757">
        <ele>79</ele>
        <time>2021-07-25T09:27:17.000Z</time>
      </trkpt>
      <trkpt lat="47.07928" lon="-1.90742">
        <ele>79</ele>
        <time>2021-07-25T09:27:19.000Z</time>
      </trkpt>
      <trkpt lat="47.07937" lon="-1.90727">
        <ele>79</ele>
        <time>2021-07-25T09:27:21.000Z</time>
      </trkpt>
      <trkpt lat="47.07945" lon="-1.90712">
        <ele>79</ele>
        <time>2021-07-25T09:27:23.000Z</time>
      </trkpt>
      <trkpt lat="47.07954" lon="-1.90695">
        <ele>78</ele>
        <time>2021-07-25T09:27:25.000Z</time>
      </trkpt>
      <trkpt lat="47.07961" lon="-1.9068">
        <ele>78</ele>
        <time>2021-07-25T09:27:27.000Z</time>
      </trkpt>
      <trkpt lat="47.07969" lon="-1.90664">
        <ele>78</ele>
        <time>2021-07-25T09:27:29.000Z</time>
      </trkpt>
      <trkpt lat="47.07976" lon="-1.90648">
        <ele>78</ele>
        <time>2021-07-25T09:27:31.000Z</time>
      </trkpt>
      <trkpt lat="47.07982" lon="-1.90631">
        <ele>78</ele>
        <time>2021-07-25T09:27:33.000Z</time>
      </trkpt>
      <trkpt lat="47.07983" lon="-1.90614">
        <ele>77</ele>
        <time>2021-07-25T09:27:35.000Z</time>
      </trkpt>
      <trkpt lat="47.07977" lon="-1.90597">
        <ele>77</ele>
        <time>2021-07-25T09:27:37.000Z</time>
      </trkpt>
      <trkpt lat="47.07969" lon="-1.90583">
        <ele>77</ele>
        <time>2021-07-25T09:27:39.000Z</time>
      </trkpt>
      <trkpt lat="47.07958" lon="-1.90571">
        <ele>77</ele>
        <time>2021-07-25T09:27:41.000Z</time>
      </trkpt>
      <trkpt lat="47.07947" lon="-1.90561">
        <ele>77</ele>
        <time>2021-07-25T09:27:43.000Z</time>
      </trkpt>
      <trkpt lat="47.07936" lon="-1.90554">
        <ele>78</ele>
        <time>2021-07-25T09:27:45.000Z</time>
      </trkpt>
      <trkpt lat="47.07923" lon="-1.90546">
        <ele>77</ele>
        <time>2021-07-25T09:27:47.000Z</time>
      </trkpt>
      <trkpt lat="47.07911" lon="-1.90541">
        <ele>77</ele>
        <time>2021-07-25T09:27:49.000Z</time>
      </trkpt>
      <trkpt lat="47.07898" lon="-1.90536">
        <ele>77</ele>
        <time>2021-07-25T09:27:51.000Z</time>
      </trkpt>
      <trkpt lat="47.07887" lon="-1.90529">
        <ele>77</ele>
        <time>2021-07-25T09:27:53.000Z</time>
      </trkpt>
      <trkpt lat="47.07876" lon="-1.9052">
        <ele>78</ele>
        <time>2021-07-25T09:27:55.000Z</time>
      </trkpt>
      <trkpt lat="47.07866" lon="-1.90509">
        <ele>78</ele>
        <time>2021-07-25T09:27:57.000Z</time>
      </trkpt>
      <trkpt lat="47.07857" lon="-1.90495">
        <ele>78</ele>
        <time>2021-07-25T09:27:59.000Z</time>
      </trkpt>
      <trkpt lat="47.07847" lon="-1.90481">
        <ele>77</ele>
        <time>2021-07-25T09:28:01.000Z</time>
      </trkpt>
      <trkpt lat="47.07838" lon="-1.90467">
        <ele>77</ele>
        <time>2021-07-25T09:28:03.000Z</time>
      </trkpt>
      <trkpt lat="47.0783" lon="-1.90453">
        <ele>77</ele>
        <time>2021-07-25T09:28:05.000Z</time>
      </trkpt>
      <trkpt lat="47.07821" lon="-1.90438">
        <ele>77</ele>
        <time>2021-07-25T09:28:07.000Z</time>
      </trkpt>
      <trkpt lat="47.07815" lon="-1.90423">
        <ele>77</ele>
        <time>2021-07-25T09:28:09.000Z</time>
      </trkpt>
      <trkpt lat="47.0781" lon="-1.90406">
        <ele>77</ele>
        <time>2021-07-25T09:28:11.000Z</time>
      </trkpt>
      <trkpt lat="47.0781" lon="-1.90387">
        <ele>77</ele>
        <time>2021-07-25T09:28:13.000Z</time>
      </trkpt>
      <trkpt lat="47.07815" lon="-1.90369">
        <ele>77</ele>
        <time>2021-07-25T09:28:15.000Z</time>
      </trkpt>
      <trkpt lat="47.07824" lon="-1.90355">
        <ele>77</ele>
        <time>2021-07-25T09:28:17.000Z</time>
      </trkpt>
      <trkpt lat="47.07834" lon="-1.90344">
        <ele>77</ele>
        <time>2021-07-25T09:28:19.000Z</time>
      </trkpt>
      <trkpt lat="47.07845" lon="-1.90333">
        <ele>77</ele>
        <time>2021-07-25T09:28:21.000Z</time>
      </trkpt>
      <trkpt lat="47.07856" lon="-1.90321">
        <ele>77</ele>
        <time>2021-07-25T09:28:23.000Z</time>
      </trkpt>
      <trkpt lat="47.07866" lon="-1.9031">
        <ele>77</ele>
        <time>2021-07-25T09:28:25.000Z</time>
      </trkpt>
      <trkpt lat="47.07878" lon="-1.90299">
        <ele>78</ele>
        <time>2021-07-25T09:28:27.000Z</time>
      </trkpt>
      <trkpt lat="47.07889" lon="-1.90288">
        <ele>78</ele>
        <time>2021-07-25T09:28:29.000Z</time>
      </trkpt>
      <trkpt lat="47.079" lon="-1.90276">
        <ele>78</ele>
        <time>2021-07-25T09:28:31.000Z</time>
      </trkpt>
      <trkpt lat="47.07911" lon="-1.90266">
        <ele>78</ele>
        <time>2021-07-25T09:28:33.000Z</time>
      </trkpt>
      <trkpt lat="47.07922" lon="-1.90254">
        <ele>77</ele>
        <time>2021-07-25T09:28:35.000Z</time>
      </trkpt>
      <trkpt lat="47.07934" lon="-1.90245">
        <ele>77</ele>
        <time>2021-07-25T09:28:37.000Z</time>
      </trkpt>
      <trkpt lat="47.07945" lon="-1.90233">
        <ele>77</ele>
        <time>2021-07-25T09:28:39.000Z</time>
      </trkpt>
      <trkpt lat="47.07956" lon="-1.90222">
        <ele>77</ele>
        <time>2021-07-25T09:28:41.000Z</time>
      </trkpt>
      <trkpt lat="47.07968" lon="-1.9021">
        <ele>76</ele>
        <time>2021-07-25T09:28:43.000Z</time>
      </trkpt>
      <trkpt lat="47.07979" lon="-1.902">
        <ele>76</ele>
        <time>2021-07-25T09:28:45.000Z</time>
      </trkpt>
      <trkpt lat="47.0799" lon="-1.90189">
        <ele>76</ele>
        <time>2021-07-25T09:28:47.000Z</time>
      </trkpt>
      <trkpt lat="47.08001" lon="-1.90178">
        <ele>76</ele>
        <time>2021-07-25T09:28:49.000Z</time>
      </trkpt>
      <trkpt lat="47.08012" lon="-1.90166">
        <ele>76</ele>
        <time>2021-07-25T09:28:51.000Z</time>
      </trkpt>
      <trkpt lat="47.08023" lon="-1.90155">
        <ele>76</ele>
        <time>2021-07-25T09:28:53.000Z</time>
      </trkpt>
      <trkpt lat="47.08034" lon="-1.90143">
        <ele>77</ele>
        <time>2021-07-25T09:28:55.000Z</time>
      </trkpt>
      <trkpt lat="47.08046" lon="-1.9013">
        <ele>77</ele>
        <time>2021-07-25T09:28:57.000Z</time>
      </trkpt>
      <trkpt lat="47.08057" lon="-1.90118">
        <ele>76</ele>
        <time>2021-07-25T09:28:59.000Z</time>
      </trkpt>
      <trkpt lat="47.08068" lon="-1.90106">
        <ele>76</ele>
        <time>2021-07-25T09:29:01.000Z</time>
      </trkpt>
      <trkpt lat="47.0808" lon="-1.90093">
        <ele>76</ele>
        <time>2021-07-25T09:29:03.000Z</time>
      </trkpt>
      <trkpt lat="47.08091" lon="-1.9008">
        <ele>75</ele>
        <time>2021-07-25T09:29:05.000Z</time>
      </trkpt>
      <trkpt lat="47.08103" lon="-1.90067">
        <ele>76</ele>
        <time>2021-07-25T09:29:07.000Z</time>
      </trkpt>
      <trkpt lat="47.08115" lon="-1.90054">
        <ele>75</ele>
        <time>2021-07-25T09:29:09.000Z</time>
      </trkpt>
      <trkpt lat="47.08126" lon="-1.90041">
        <ele>76</ele>
        <time>2021-07-25T09:29:11.000Z</time>
      </trkpt>
      <trkpt lat="47.08138" lon="-1.90029">
        <ele>76</ele>
        <time>2021-07-25T09:29:13.000Z</time>
      </trkpt>
      <trkpt lat="47.0815" lon="-1.90017">
        <ele>76</ele>
        <time>2021-07-25T09:29:15.000Z</time>
      </trkpt>
      <trkpt lat="47.08162" lon="-1.90007">
        <ele>76</ele>
        <time>2021-07-25T09:29:17.000Z</time>
      </trkpt>
      <trkpt lat="47.08175" lon="-1.89996">
        <ele>76</ele>
        <time>2021-07-25T09:29:19.000Z</time>
      </trkpt>
      <trkpt lat="47.08187" lon="-1.89986">
        <ele>76</ele>
        <time>2021-07-25T09:29:21.000Z</time>
      </trkpt>
      <trkpt lat="47.082" lon="-1.89976">
        <ele>76</ele>
        <time>2021-07-25T09:29:23.000Z</time>
      </trkpt>
      <trkpt lat="47.08212" lon="-1.89966">
        <ele>76</ele>
        <time>2021-07-25T09:29:25.000Z</time>
      </trkpt>
      <trkpt lat="47.08225" lon="-1.89956">
        <ele>75</ele>
        <time>2021-07-25T09:29:27.000Z</time>
      </trkpt>
      <trkpt lat="47.08237" lon="-1.89945">
        <ele>75</ele>
        <time>2021-07-25T09:29:29.000Z</time>
      </trkpt>
      <trkpt lat="47.08249" lon="-1.89935">
        <ele>76</ele>
        <time>2021-07-25T09:29:31.000Z</time>
      </trkpt>
      <trkpt lat="47.08261" lon="-1.89925">
        <ele>76</ele>
        <time>2021-07-25T09:29:33.000Z</time>
      </trkpt>
      <trkpt lat="47.08274" lon="-1.89914">
        <ele>76</ele>
        <time>2021-07-25T09:29:35.000Z</time>
      </trkpt>
      <trkpt lat="47.08286" lon="-1.89904">
        <ele>76</ele>
        <time>2021-07-25T09:29:37.000Z</time>
      </trkpt>
      <trkpt lat="47.08298" lon="-1.89893">
        <ele>75</ele>
        <time>2021-07-25T09:29:39.000Z</time>
      </trkpt>
      <trkpt lat="47.0831" lon="-1.89882">
        <ele>75</ele>
        <time>2021-07-25T09:29:41.000Z</time>
      </trkpt>
      <trkpt lat="47.08321" lon="-1.89869">
        <ele>75</ele>
        <time>2021-07-25T09:29:43.000Z</time>
      </trkpt>
      <trkpt lat="47.08332" lon="-1.89857">
        <ele>75</ele>
        <time>2021-07-25T09:29:45.000Z</time>
      </trkpt>
      <trkpt lat="47.08343" lon="-1.89844">
        <ele>74</ele>
        <time>2021-07-25T09:29:47.000Z</time>
      </trkpt>
      <trkpt lat="47.08354" lon="-1.8983">
        <ele>73</ele>
        <time>2021-07-25T09:29:49.000Z</time>
      </trkpt>
      <trkpt lat="47.08364" lon="-1.89818">
        <ele>73</ele>
        <time>2021-07-25T09:29:51.000Z</time>
      </trkpt>
      <trkpt lat="47.08373" lon="-1.89804">
        <ele>73</ele>
        <time>2021-07-25T09:29:53.000Z</time>
      </trkpt>
      <trkpt lat="47.08379" lon="-1.89786">
        <ele>73</ele>
        <time>2021-07-25T09:29:55.000Z</time>
      </trkpt>
      <trkpt lat="47.08379" lon="-1.89765">
        <ele>72</ele>
        <time>2021-07-25T09:29:57.000Z</time>
      </trkpt>
      <trkpt lat="47.08373" lon="-1.89747">
        <ele>72</ele>
        <time>2021-07-25T09:29:59.000Z</time>
      </trkpt>
      <trkpt lat="47.08362" lon="-1.89733">
        <ele>72</ele>
        <time>2021-07-25T09:30:01.000Z</time>
      </trkpt>
      <trkpt lat="47.0835" lon="-1.89723">
        <ele>72</ele>
        <time>2021-07-25T09:30:03.000Z</time>
      </trkpt>
      <trkpt lat="47.08339" lon="-1.89712">
        <ele>71</ele>
        <time>2021-07-25T09:30:05.000Z</time>
      </trkpt>
      <trkpt lat="47.08327" lon="-1.897">
        <ele>71</ele>
        <time>2021-07-25T09:30:07.000Z</time>
      </trkpt>
      <trkpt lat="47.08316" lon="-1.89689">
        <ele>71</ele>
        <time>2021-07-25T09:30:09.000Z</time>
      </trkpt>
      <trkpt lat="47.08304" lon="-1.89677">
        <ele>71</ele>
        <time>2021-07-25T09:30:11.000Z</time>
      </trkpt>
      <trkpt lat="47.08292" lon="-1.89667">
        <ele>71</ele>
        <time>2021-07-25T09:30:13.000Z</time>
      </trkpt>
      <trkpt lat="47.0828" lon="-1.89656">
        <ele>71</ele>
        <time>2021-07-25T09:30:15.000Z</time>
      </trkpt>
      <trkpt lat="47.08268" lon="-1.89644">
        <ele>71</ele>
        <time>2021-07-25T09:30:17.000Z</time>
      </trkpt>
      <trkpt lat="47.08257" lon="-1.89633">
        <ele>72</ele>
        <time>2021-07-25T09:30:19.000Z</time>
      </trkpt>
      <trkpt lat="47.08245" lon="-1.89621">
        <ele>72</ele>
        <time>2021-07-25T09:30:21.000Z</time>
      </trkpt>
      <trkpt lat="47.08235" lon="-1.89607">
        <ele>72</ele>
        <time>2021-07-25T09:30:23.000Z</time>
      </trkpt>
      <trkpt lat="47.08228" lon="-1.89588">
        <ele>71</ele>
        <time>2021-07-25T09:30:25.000Z</time>
      </trkpt>
      <trkpt lat="47.08224" lon="-1.89567">
        <ele>71</ele>
        <time>2021-07-25T09:30:27.000Z</time>
      </trkpt>
      <trkpt lat="47.08223" lon="-1.89546">
        <ele>71</ele>
        <time>2021-07-25T09:30:29.000Z</time>
      </trkpt>
      <trkpt lat="47.08222" lon="-1.89524">
        <ele>70</ele>
        <time>2021-07-25T09:30:31.000Z</time>
      </trkpt>
      <trkpt lat="47.08218" lon="-1.89503">
        <ele>69</ele>
        <time>2021-07-25T09:30:33.000Z</time>
      </trkpt>
      <trkpt lat="47.08208" lon="-1.89486">
        <ele>69</ele>
        <time>2021-07-25T09:30:35.000Z</time>
      </trkpt>
      <trkpt lat="47.08196" lon="-1.89473">
        <ele>69</ele>
        <time>2021-07-25T09:30:37.000Z</time>
      </trkpt>
      <trkpt lat="47.08184" lon="-1.89462">
        <ele>69</ele>
        <time>2021-07-25T09:30:39.000Z</time>
      </trkpt>
      <trkpt lat="47.08171" lon="-1.89451">
        <ele>69</ele>
        <time>2021-07-25T09:30:41.000Z</time>
      </trkpt>
      <trkpt lat="47.08159" lon="-1.89439">
        <ele>69</ele>
        <time>2021-07-25T09:30:43.000Z</time>
      </trkpt>
      <trkpt lat="47.08147" lon="-1.89428">
        <ele>69</ele>
        <time>2021-07-25T09:30:45.000Z</time>
      </trkpt>
      <trkpt lat="47.08135" lon="-1.89415">
        <ele>68</ele>
        <time>2021-07-25T09:30:47.000Z</time>
      </trkpt>
      <trkpt lat="47.08123" lon="-1.89403">
        <ele>68</ele>
        <time>2021-07-25T09:30:49.000Z</time>
      </trkpt>
      <trkpt lat="47.08114" lon="-1.89386">
        <ele>68</ele>
        <time>2021-07-25T09:30:51.000Z</time>
      </trkpt>
      <trkpt lat="47.08107" lon="-1.89366">
        <ele>68</ele>
        <time>2021-07-25T09:30:53.000Z</time>
      </trkpt>
      <trkpt lat="47.08104" lon="-1.89345">
        <ele>67</ele>
        <time>2021-07-25T09:30:55.000Z</time>
      </trkpt>
      <trkpt lat="47.08103" lon="-1.89323">
        <ele>67</ele>
        <time>2021-07-25T09:30:57.000Z</time>
      </trkpt>
      <trkpt lat="47.08101" lon="-1.89302">
        <ele>67</ele>
        <time>2021-07-25T09:30:59.000Z</time>
      </trkpt>
      <trkpt lat="47.08099" lon="-1.8928">
        <ele>68</ele>
        <time>2021-07-25T09:31:01.000Z</time>
      </trkpt>
      <trkpt lat="47.08099" lon="-1.89259">
        <ele>69</ele>
        <time>2021-07-25T09:31:03.000Z</time>
      </trkpt>
      <trkpt lat="47.08101" lon="-1.89237">
        <ele>68</ele>
        <time>2021-07-25T09:31:05.000Z</time>
      </trkpt>
      <trkpt lat="47.08107" lon="-1.89217">
        <ele>68</ele>
        <time>2021-07-25T09:31:07.000Z</time>
      </trkpt>
      <trkpt lat="47.08114" lon="-1.89199">
        <ele>68</ele>
        <time>2021-07-25T09:31:09.000Z</time>
      </trkpt>
      <trkpt lat="47.08121" lon="-1.89181">
        <ele>69</ele>
        <time>2021-07-25T09:31:11.000Z</time>
      </trkpt>
      <trkpt lat="47.08128" lon="-1.89164">
        <ele>69</ele>
        <time>2021-07-25T09:31:13.000Z</time>
      </trkpt>
      <trkpt lat="47.08134" lon="-1.89147">
        <ele>70</ele>
        <time>2021-07-25T09:31:15.000Z</time>
      </trkpt>
      <trkpt lat="47.0814" lon="-1.8913">
        <ele>70</ele>
        <time>2021-07-25T09:31:17.000Z</time>
      </trkpt>
      <trkpt lat="47.08148" lon="-1.89113">
        <ele>71</ele>
        <time>2021-07-25T09:31:19.000Z</time>
      </trkpt>
      <trkpt lat="47.08157" lon="-1.89097">
        <ele>72</ele>
        <time>2021-07-25T09:31:21.000Z</time>
      </trkpt>
      <trkpt lat="47.08165" lon="-1.8908">
        <ele>72</ele>
        <time>2021-07-25T09:31:23.000Z</time>
      </trkpt>
      <trkpt lat="47.08173" lon="-1.89064">
        <ele>73</ele>
        <time>2021-07-25T09:31:25.000Z</time>
      </trkpt>
      <trkpt lat="47.08181" lon="-1.8905">
        <ele>74</ele>
        <time>2021-07-25T09:31:27.000Z</time>
      </trkpt>
      <trkpt lat="47.0819" lon="-1.89035">
        <ele>74</ele>
        <time>2021-07-25T09:31:29.000Z</time>
      </trkpt>
      <trkpt lat="47.08197" lon="-1.89018">
        <ele>75</ele>
        <time>2021-07-25T09:31:31.000Z</time>
      </trkpt>
      <trkpt lat="47.08203" lon="-1.89">
        <ele>75</ele>
        <time>2021-07-25T09:31:33.000Z</time>
      </trkpt>
      <trkpt lat="47.08205" lon="-1.88981">
        <ele>76</ele>
        <time>2021-07-25T09:31:35.000Z</time>
      </trkpt>
      <trkpt lat="47.08201" lon="-1.88961">
        <ele>76</ele>
        <time>2021-07-25T09:31:37.000Z</time>
      </trkpt>
      <trkpt lat="47.08197" lon="-1.88943">
        <ele>76</ele>
        <time>2021-07-25T09:31:39.000Z</time>
      </trkpt>
      <trkpt lat="47.08192" lon="-1.88924">
        <ele>77</ele>
        <time>2021-07-25T09:31:41.000Z</time>
      </trkpt>
      <trkpt lat="47.08187" lon="-1.88906">
        <ele>76</ele>
        <time>2021-07-25T09:31:43.000Z</time>
      </trkpt>
      <trkpt lat="47.08182" lon="-1.88886">
        <ele>77</ele>
        <time>2021-07-25T09:31:45.000Z</time>
      </trkpt>
      <trkpt lat="47.08178" lon="-1.88867">
        <ele>77</ele>
        <time>2021-07-25T09:31:47.000Z</time>
      </trkpt>
      <trkpt lat="47.08173" lon="-1.88849">
        <ele>77</ele>
        <time>2021-07-25T09:31:49.000Z</time>
      </trkpt>
      <trkpt lat="47.08169" lon="-1.88829">
        <ele>77</ele>
        <time>2021-07-25T09:31:51.000Z</time>
      </trkpt>
      <trkpt lat="47.08166" lon="-1.88811">
        <ele>77</ele>
        <time>2021-07-25T09:31:53.000Z</time>
      </trkpt>
      <trkpt lat="47.08163" lon="-1.88793">
        <ele>78</ele>
        <time>2021-07-25T09:31:55.000Z</time>
      </trkpt>
      <trkpt lat="47.08162" lon="-1.88774">
        <ele>78</ele>
        <time>2021-07-25T09:31:57.000Z</time>
      </trkpt>
      <trkpt lat="47.08162" lon="-1.88754">
        <ele>78</ele>
        <time>2021-07-25T09:31:59.000Z</time>
      </trkpt>
      <trkpt lat="47.08162" lon="-1.88734">
        <ele>78</ele>
        <time>2021-07-25T09:32:01.000Z</time>
      </trkpt>
      <trkpt lat="47.08162" lon="-1.88714">
        <ele>78</ele>
        <time>2021-07-25T09:32:03.000Z</time>
      </trkpt>
      <trkpt lat="47.08162" lon="-1.88693">
        <ele>78</ele>
        <time>2021-07-25T09:32:05.000Z</time>
      </trkpt>
      <trkpt lat="47.08163" lon="-1.88673">
        <ele>78</ele>
        <time>2021-07-25T09:32:07.000Z</time>
      </trkpt>
      <trkpt lat="47.08163" lon="-1.88654">
        <ele>78</ele>
        <time>2021-07-25T09:32:09.000Z</time>
      </trkpt>
      <trkpt lat="47.08165" lon="-1.88634">
        <ele>78</ele>
        <time>2021-07-25T09:32:11.000Z</time>
      </trkpt>
      <trkpt lat="47.08168" lon="-1.88616">
        <ele>77</ele>
        <time>2021-07-25T09:32:13.000Z</time>
      </trkpt>
      <trkpt lat="47.08172" lon="-1.88598">
        <ele>77</ele>
        <time>2021-07-25T09:32:15.000Z</time>
      </trkpt>
      <trkpt lat="47.08177" lon="-1.8858">
        <ele>77</ele>
        <time>2021-07-25T09:32:17.000Z</time>
      </trkpt>
      <trkpt lat="47.08183" lon="-1.88562">
        <ele>77</ele>
        <time>2021-07-25T09:32:19.000Z</time>
      </trkpt>
      <trkpt lat="47.08187" lon="-1.88545">
        <ele>77</ele>
        <time>2021-07-25T09:32:21.000Z</time>
      </trkpt>
      <trkpt lat="47.08191" lon="-1.88528">
        <ele>78</ele>
        <time>2021-07-25T09:32:23.000Z</time>
      </trkpt>
      <trkpt lat="47.08195" lon="-1.88512">
        <ele>78</ele>
        <time>2021-07-25T09:32:25.000Z</time>
      </trkpt>
      <trkpt lat="47.08197" lon="-1.88498">
        <ele>78</ele>
        <time>2021-07-25T09:32:30.000Z</time>
      </trkpt>
      <trkpt lat="47.08196" lon="-1.88483">
        <ele>78</ele>
        <time>2021-07-25T09:32:33.000Z</time>
      </trkpt>
      <trkpt lat="47.08195" lon="-1.88468">
        <ele>78</ele>
        <time>2021-07-25T09:32:35.000Z</time>
      </trkpt>
      <trkpt lat="47.08194" lon="-1.88449">
        <ele>78</ele>
        <time>2021-07-25T09:32:37.000Z</time>
      </trkpt>
      <trkpt lat="47.08193" lon="-1.88428">
        <ele>78</ele>
        <time>2021-07-25T09:32:39.000Z</time>
      </trkpt>
      <trkpt lat="47.08191" lon="-1.88408">
        <ele>77</ele>
        <time>2021-07-25T09:32:41.000Z</time>
      </trkpt>
      <trkpt lat="47.0819" lon="-1.88376">
        <ele>77</ele>
        <time>2021-07-25T09:32:44.000Z</time>
      </trkpt>
      <trkpt lat="47.08188" lon="-1.88356">
        <ele>77</ele>
        <time>2021-07-25T09:32:46.000Z</time>
      </trkpt>
      <trkpt lat="47.08189" lon="-1.88335">
        <ele>77</ele>
        <time>2021-07-25T09:32:48.000Z</time>
      </trkpt>
      <trkpt lat="47.0819" lon="-1.88314">
        <ele>77</ele>
        <time>2021-07-25T09:32:50.000Z</time>
      </trkpt>
      <trkpt lat="47.08192" lon="-1.88293">
        <ele>77</ele>
        <time>2021-07-25T09:32:52.000Z</time>
      </trkpt>
      <trkpt lat="47.08194" lon="-1.88272">
        <ele>77</ele>
        <time>2021-07-25T09:32:54.000Z</time>
      </trkpt>
      <trkpt lat="47.08197" lon="-1.88251">
        <ele>77</ele>
        <time>2021-07-25T09:32:56.000Z</time>
      </trkpt>
      <trkpt lat="47.08199" lon="-1.88231">
        <ele>77</ele>
        <time>2021-07-25T09:32:58.000Z</time>
      </trkpt>
      <trkpt lat="47.08204" lon="-1.88201">
        <ele>77</ele>
        <time>2021-07-25T09:33:01.000Z</time>
      </trkpt>
      <trkpt lat="47.08206" lon="-1.8818">
        <ele>77</ele>
        <time>2021-07-25T09:33:03.000Z</time>
      </trkpt>
      <trkpt lat="47.08209" lon="-1.88159">
        <ele>77</ele>
        <time>2021-07-25T09:33:05.000Z</time>
      </trkpt>
      <trkpt lat="47.0821" lon="-1.88137">
        <ele>76</ele>
        <time>2021-07-25T09:33:07.000Z</time>
      </trkpt>
      <trkpt lat="47.08211" lon="-1.88116">
        <ele>76</ele>
        <time>2021-07-25T09:33:09.000Z</time>
      </trkpt>
      <trkpt lat="47.08211" lon="-1.88095">
        <ele>76</ele>
        <time>2021-07-25T09:33:11.000Z</time>
      </trkpt>
      <trkpt lat="47.08211" lon="-1.88074">
        <ele>76</ele>
        <time>2021-07-25T09:33:13.000Z</time>
      </trkpt>
      <trkpt lat="47.08213" lon="-1.88052">
        <ele>76</ele>
        <time>2021-07-25T09:33:15.000Z</time>
      </trkpt>
      <trkpt lat="47.08213" lon="-1.88031">
        <ele>76</ele>
        <time>2021-07-25T09:33:17.000Z</time>
      </trkpt>
      <trkpt lat="47.08216" lon="-1.88009">
        <ele>76</ele>
        <time>2021-07-25T09:33:19.000Z</time>
      </trkpt>
      <trkpt lat="47.0822" lon="-1.87988">
        <ele>76</ele>
        <time>2021-07-25T09:33:21.000Z</time>
      </trkpt>
      <trkpt lat="47.08227" lon="-1.87968">
        <ele>77</ele>
        <time>2021-07-25T09:33:23.000Z</time>
      </trkpt>
      <trkpt lat="47.08234" lon="-1.8795">
        <ele>78</ele>
        <time>2021-07-25T09:33:25.000Z</time>
      </trkpt>
      <trkpt lat="47.08243" lon="-1.87931">
        <ele>78</ele>
        <time>2021-07-25T09:33:27.000Z</time>
      </trkpt>
      <trkpt lat="47.08251" lon="-1.87913">
        <ele>78</ele>
        <time>2021-07-25T09:33:29.000Z</time>
      </trkpt>
      <trkpt lat="47.08259" lon="-1.87894">
        <ele>78</ele>
        <time>2021-07-25T09:33:31.000Z</time>
      </trkpt>
      <trkpt lat="47.08268" lon="-1.87875">
        <ele>77</ele>
        <time>2021-07-25T09:33:33.000Z</time>
      </trkpt>
      <trkpt lat="47.08276" lon="-1.87856">
        <ele>78</ele>
        <time>2021-07-25T09:33:35.000Z</time>
      </trkpt>
      <trkpt lat="47.08284" lon="-1.87839">
        <ele>78</ele>
        <time>2021-07-25T09:33:37.000Z</time>
      </trkpt>
      <trkpt lat="47.08293" lon="-1.8782">
        <ele>77</ele>
        <time>2021-07-25T09:33:39.000Z</time>
      </trkpt>
      <trkpt lat="47.08301" lon="-1.87802">
        <ele>77</ele>
        <time>2021-07-25T09:33:41.000Z</time>
      </trkpt>
      <trkpt lat="47.08309" lon="-1.87783">
        <ele>76</ele>
        <time>2021-07-25T09:33:43.000Z</time>
      </trkpt>
      <trkpt lat="47.08318" lon="-1.87765">
        <ele>76</ele>
        <time>2021-07-25T09:33:45.000Z</time>
      </trkpt>
      <trkpt lat="47.08327" lon="-1.87747">
        <ele>76</ele>
        <time>2021-07-25T09:33:47.000Z</time>
      </trkpt>
      <trkpt lat="47.08336" lon="-1.87731">
        <ele>76</ele>
        <time>2021-07-25T09:33:49.000Z</time>
      </trkpt>
      <trkpt lat="47.08345" lon="-1.87714">
        <ele>76</ele>
        <time>2021-07-25T09:33:51.000Z</time>
      </trkpt>
      <trkpt lat="47.08354" lon="-1.87696">
        <ele>75</ele>
        <time>2021-07-25T09:33:53.000Z</time>
      </trkpt>
      <trkpt lat="47.08361" lon="-1.87677">
        <ele>75</ele>
        <time>2021-07-25T09:33:55.000Z</time>
      </trkpt>
      <trkpt lat="47.08368" lon="-1.87658">
        <ele>75</ele>
        <time>2021-07-25T09:33:57.000Z</time>
      </trkpt>
      <trkpt lat="47.08373" lon="-1.87638">
        <ele>74</ele>
        <time>2021-07-25T09:33:59.000Z</time>
      </trkpt>
      <trkpt lat="47.08378" lon="-1.87617">
        <ele>74</ele>
        <time>2021-07-25T09:34:01.000Z</time>
      </trkpt>
      <trkpt lat="47.08383" lon="-1.87596">
        <ele>74</ele>
        <time>2021-07-25T09:34:03.000Z</time>
      </trkpt>
      <trkpt lat="47.08388" lon="-1.87576">
        <ele>74</ele>
        <time>2021-07-25T09:34:05.000Z</time>
      </trkpt>
      <trkpt lat="47.08393" lon="-1.87556">
        <ele>73</ele>
        <time>2021-07-25T09:34:07.000Z</time>
      </trkpt>
      <trkpt lat="47.08398" lon="-1.87537">
        <ele>73</ele>
        <time>2021-07-25T09:34:09.000Z</time>
      </trkpt>
      <trkpt lat="47.08404" lon="-1.87517">
        <ele>73</ele>
        <time>2021-07-25T09:34:11.000Z</time>
      </trkpt>
      <trkpt lat="47.08408" lon="-1.87498">
        <ele>73</ele>
        <time>2021-07-25T09:34:13.000Z</time>
      </trkpt>
      <trkpt lat="47.08413" lon="-1.87478">
        <ele>73</ele>
        <time>2021-07-25T09:34:15.000Z</time>
      </trkpt>
      <trkpt lat="47.08415" lon="-1.87457">
        <ele>73</ele>
        <time>2021-07-25T09:34:17.000Z</time>
      </trkpt>
      <trkpt lat="47.08416" lon="-1.87437">
        <ele>73</ele>
        <time>2021-07-25T09:34:19.000Z</time>
      </trkpt>
      <trkpt lat="47.08415" lon="-1.87415">
        <ele>73</ele>
        <time>2021-07-25T09:34:21.000Z</time>
      </trkpt>
      <trkpt lat="47.08413" lon="-1.87395">
        <ele>72</ele>
        <time>2021-07-25T09:34:23.000Z</time>
      </trkpt>
      <trkpt lat="47.08414" lon="-1.87373">
        <ele>73</ele>
        <time>2021-07-25T09:34:25.000Z</time>
      </trkpt>
      <trkpt lat="47.08419" lon="-1.87353">
        <ele>73</ele>
        <time>2021-07-25T09:34:27.000Z</time>
      </trkpt>
      <trkpt lat="47.08427" lon="-1.87335">
        <ele>72</ele>
        <time>2021-07-25T09:34:29.000Z</time>
      </trkpt>
      <trkpt lat="47.08437" lon="-1.87322">
        <ele>73</ele>
        <time>2021-07-25T09:34:31.000Z</time>
      </trkpt>
      <trkpt lat="47.08449" lon="-1.87309">
        <ele>73</ele>
        <time>2021-07-25T09:34:33.000Z</time>
      </trkpt>
      <trkpt lat="47.08461" lon="-1.87296">
        <ele>73</ele>
        <time>2021-07-25T09:34:35.000Z</time>
      </trkpt>
      <trkpt lat="47.08472" lon="-1.87282">
        <ele>73</ele>
        <time>2021-07-25T09:34:37.000Z</time>
      </trkpt>
      <trkpt lat="47.08484" lon="-1.87269">
        <ele>74</ele>
        <time>2021-07-25T09:34:39.000Z</time>
      </trkpt>
      <trkpt lat="47.08496" lon="-1.87258">
        <ele>74</ele>
        <time>2021-07-25T09:34:41.000Z</time>
      </trkpt>
      <trkpt lat="47.08508" lon="-1.87247">
        <ele>74</ele>
        <time>2021-07-25T09:34:43.000Z</time>
      </trkpt>
      <trkpt lat="47.0852" lon="-1.87236">
        <ele>75</ele>
        <time>2021-07-25T09:34:45.000Z</time>
      </trkpt>
      <trkpt lat="47.08531" lon="-1.87225">
        <ele>75</ele>
        <time>2021-07-25T09:34:47.000Z</time>
      </trkpt>
      <trkpt lat="47.08543" lon="-1.87214">
        <ele>75</ele>
        <time>2021-07-25T09:34:49.000Z</time>
      </trkpt>
      <trkpt lat="47.08555" lon="-1.87204">
        <ele>75</ele>
        <time>2021-07-25T09:34:51.000Z</time>
      </trkpt>
      <trkpt lat="47.08568" lon="-1.87192">
        <ele>75</ele>
        <time>2021-07-25T09:34:53.000Z</time>
      </trkpt>
      <trkpt lat="47.08581" lon="-1.87179">
        <ele>74</ele>
        <time>2021-07-25T09:34:55.000Z</time>
      </trkpt>
      <trkpt lat="47.08593" lon="-1.87167">
        <ele>74</ele>
        <time>2021-07-25T09:34:57.000Z</time>
      </trkpt>
      <trkpt lat="47.08605" lon="-1.87156">
        <ele>74</ele>
        <time>2021-07-25T09:34:59.000Z</time>
      </trkpt>
      <trkpt lat="47.08617" lon="-1.87145">
        <ele>74</ele>
        <time>2021-07-25T09:35:01.000Z</time>
      </trkpt>
      <trkpt lat="47.08629" lon="-1.87134">
        <ele>73</ele>
        <time>2021-07-25T09:35:03.000Z</time>
      </trkpt>
      <trkpt lat="47.08641" lon="-1.87125">
        <ele>74</ele>
        <time>2021-07-25T09:35:05.000Z</time>
      </trkpt>
      <trkpt lat="47.08653" lon="-1.87115">
        <ele>74</ele>
        <time>2021-07-25T09:35:07.000Z</time>
      </trkpt>
      <trkpt lat="47.08667" lon="-1.87108">
        <ele>74</ele>
        <time>2021-07-25T09:35:09.000Z</time>
      </trkpt>
      <trkpt lat="47.0868" lon="-1.87102">
        <ele>74</ele>
        <time>2021-07-25T09:35:11.000Z</time>
      </trkpt>
      <trkpt lat="47.08693" lon="-1.87097">
        <ele>75</ele>
        <time>2021-07-25T09:35:13.000Z</time>
      </trkpt>
      <trkpt lat="47.08707" lon="-1.87093">
        <ele>75</ele>
        <time>2021-07-25T09:35:15.000Z</time>
      </trkpt>
      <trkpt lat="47.08721" lon="-1.87091">
        <ele>75</ele>
        <time>2021-07-25T09:35:17.000Z</time>
      </trkpt>
      <trkpt lat="47.08735" lon="-1.87091">
        <ele>75</ele>
        <time>2021-07-25T09:35:19.000Z</time>
      </trkpt>
      <trkpt lat="47.08749" lon="-1.87092">
        <ele>75</ele>
        <time>2021-07-25T09:35:21.000Z</time>
      </trkpt>
      <trkpt lat="47.08762" lon="-1.87093">
        <ele>75</ele>
        <time>2021-07-25T09:35:23.000Z</time>
      </trkpt>
      <trkpt lat="47.08776" lon="-1.87095">
        <ele>75</ele>
        <time>2021-07-25T09:35:25.000Z</time>
      </trkpt>
      <trkpt lat="47.08789" lon="-1.87097">
        <ele>75</ele>
        <time>2021-07-25T09:35:27.000Z</time>
      </trkpt>
      <trkpt lat="47.08803" lon="-1.87098">
        <ele>75</ele>
        <time>2021-07-25T09:35:29.000Z</time>
      </trkpt>
      <trkpt lat="47.08817" lon="-1.87098">
        <ele>75</ele>
        <time>2021-07-25T09:35:31.000Z</time>
      </trkpt>
      <trkpt lat="47.08831" lon="-1.87099">
        <ele>74</ele>
        <time>2021-07-25T09:35:33.000Z</time>
      </trkpt>
      <trkpt lat="47.08846" lon="-1.87099">
        <ele>74</ele>
        <time>2021-07-25T09:35:35.000Z</time>
      </trkpt>
      <trkpt lat="47.08859" lon="-1.87099">
        <ele>74</ele>
        <time>2021-07-25T09:35:37.000Z</time>
      </trkpt>
      <trkpt lat="47.08872" lon="-1.87099">
        <ele>74</ele>
        <time>2021-07-25T09:35:39.000Z</time>
      </trkpt>
      <trkpt lat="47.08886" lon="-1.87099">
        <ele>74</ele>
        <time>2021-07-25T09:35:41.000Z</time>
      </trkpt>
      <trkpt lat="47.089" lon="-1.87099">
        <ele>74</ele>
        <time>2021-07-25T09:35:43.000Z</time>
      </trkpt>
      <trkpt lat="47.08914" lon="-1.87099">
        <ele>74</ele>
        <time>2021-07-25T09:35:45.000Z</time>
      </trkpt>
      <trkpt lat="47.08927" lon="-1.87099">
        <ele>73</ele>
        <time>2021-07-25T09:35:47.000Z</time>
      </trkpt>
      <trkpt lat="47.0894" lon="-1.87098">
        <ele>73</ele>
        <time>2021-07-25T09:35:49.000Z</time>
      </trkpt>
      <trkpt lat="47.08953" lon="-1.87091">
        <ele>73</ele>
        <time>2021-07-25T09:35:51.000Z</time>
      </trkpt>
      <trkpt lat="47.08962" lon="-1.87077">
        <ele>72</ele>
        <time>2021-07-25T09:35:53.000Z</time>
      </trkpt>
      <trkpt lat="47.08967" lon="-1.87057">
        <ele>72</ele>
        <time>2021-07-25T09:35:55.000Z</time>
      </trkpt>
      <trkpt lat="47.08968" lon="-1.87037">
        <ele>72</ele>
        <time>2021-07-25T09:35:57.000Z</time>
      </trkpt>
      <trkpt lat="47.08967" lon="-1.87015">
        <ele>72</ele>
        <time>2021-07-25T09:35:59.000Z</time>
      </trkpt>
      <trkpt lat="47.08966" lon="-1.86995">
        <ele>71</ele>
        <time>2021-07-25T09:36:01.000Z</time>
      </trkpt>
      <trkpt lat="47.08965" lon="-1.86974">
        <ele>71</ele>
        <time>2021-07-25T09:36:03.000Z</time>
      </trkpt>
      <trkpt lat="47.08963" lon="-1.86954">
        <ele>71</ele>
        <time>2021-07-25T09:36:05.000Z</time>
      </trkpt>
      <trkpt lat="47.0896" lon="-1.86934">
        <ele>71</ele>
        <time>2021-07-25T09:36:07.000Z</time>
      </trkpt>
      <trkpt lat="47.08957" lon="-1.86914">
        <ele>70</ele>
        <time>2021-07-25T09:36:09.000Z</time>
      </trkpt>
      <trkpt lat="47.08954" lon="-1.86894">
        <ele>70</ele>
        <time>2021-07-25T09:36:11.000Z</time>
      </trkpt>
      <trkpt lat="47.08952" lon="-1.86873">
        <ele>69</ele>
        <time>2021-07-25T09:36:13.000Z</time>
      </trkpt>
      <trkpt lat="47.08953" lon="-1.86853">
        <ele>69</ele>
        <time>2021-07-25T09:36:15.000Z</time>
      </trkpt>
      <trkpt lat="47.08959" lon="-1.86834">
        <ele>69</ele>
        <time>2021-07-25T09:36:17.000Z</time>
      </trkpt>
      <trkpt lat="47.08965" lon="-1.86815">
        <ele>69</ele>
        <time>2021-07-25T09:36:19.000Z</time>
      </trkpt>
      <trkpt lat="47.08972" lon="-1.86796">
        <ele>69</ele>
        <time>2021-07-25T09:36:21.000Z</time>
      </trkpt>
      <trkpt lat="47.08978" lon="-1.86778">
        <ele>69</ele>
        <time>2021-07-25T09:36:23.000Z</time>
      </trkpt>
      <trkpt lat="47.08984" lon="-1.86759">
        <ele>69</ele>
        <time>2021-07-25T09:36:25.000Z</time>
      </trkpt>
      <trkpt lat="47.08992" lon="-1.86741">
        <ele>69</ele>
        <time>2021-07-25T09:36:27.000Z</time>
      </trkpt>
      <trkpt lat="47.08999" lon="-1.86723">
        <ele>69</ele>
        <time>2021-07-25T09:36:29.000Z</time>
      </trkpt>
      <trkpt lat="47.09007" lon="-1.86706">
        <ele>69</ele>
        <time>2021-07-25T09:36:31.000Z</time>
      </trkpt>
      <trkpt lat="47.09016" lon="-1.8669">
        <ele>69</ele>
        <time>2021-07-25T09:36:33.000Z</time>
      </trkpt>
      <trkpt lat="47.09026" lon="-1.86675">
        <ele>69</ele>
        <time>2021-07-25T09:36:35.000Z</time>
      </trkpt>
      <trkpt lat="47.09036" lon="-1.8666">
        <ele>69</ele>
        <time>2021-07-25T09:36:37.000Z</time>
      </trkpt>
      <trkpt lat="47.09045" lon="-1.86645">
        <ele>69</ele>
        <time>2021-07-25T09:36:39.000Z</time>
      </trkpt>
      <trkpt lat="47.09051" lon="-1.86628">
        <ele>69</ele>
        <time>2021-07-25T09:36:41.000Z</time>
      </trkpt>
      <trkpt lat="47.09051" lon="-1.86606">
        <ele>69</ele>
        <time>2021-07-25T09:36:43.000Z</time>
      </trkpt>
      <trkpt lat="47.09048" lon="-1.86585">
        <ele>68</ele>
        <time>2021-07-25T09:36:45.000Z</time>
      </trkpt>
      <trkpt lat="47.09044" lon="-1.86566">
        <ele>68</ele>
        <time>2021-07-25T09:36:47.000Z</time>
      </trkpt>
      <trkpt lat="47.09041" lon="-1.86546">
        <ele>68</ele>
        <time>2021-07-25T09:36:49.000Z</time>
      </trkpt>
      <trkpt lat="47.09038" lon="-1.86526">
        <ele>68</ele>
        <time>2021-07-25T09:36:51.000Z</time>
      </trkpt>
      <trkpt lat="47.09036" lon="-1.86506">
        <ele>68</ele>
        <time>2021-07-25T09:36:53.000Z</time>
      </trkpt>
      <trkpt lat="47.09033" lon="-1.86486">
        <ele>68</ele>
        <time>2021-07-25T09:36:55.000Z</time>
      </trkpt>
      <trkpt lat="47.0903" lon="-1.86465">
        <ele>67</ele>
        <time>2021-07-25T09:36:57.000Z</time>
      </trkpt>
      <trkpt lat="47.09032" lon="-1.86444">
        <ele>67</ele>
        <time>2021-07-25T09:36:59.000Z</time>
      </trkpt>
      <trkpt lat="47.09042" lon="-1.86431">
        <ele>66</ele>
        <time>2021-07-25T09:37:01.000Z</time>
      </trkpt>
      <trkpt lat="47.09056" lon="-1.86427">
        <ele>66</ele>
        <time>2021-07-25T09:37:03.000Z</time>
      </trkpt>
      <trkpt lat="47.0907" lon="-1.86427">
        <ele>67</ele>
        <time>2021-07-25T09:37:05.000Z</time>
      </trkpt>
      <trkpt lat="47.09085" lon="-1.86427">
        <ele>67</ele>
        <time>2021-07-25T09:37:07.000Z</time>
      </trkpt>
      <trkpt lat="47.09099" lon="-1.86428">
        <ele>67</ele>
        <time>2021-07-25T09:37:09.000Z</time>
      </trkpt>
      <trkpt lat="47.09113" lon="-1.8643">
        <ele>67</ele>
        <time>2021-07-25T09:37:11.000Z</time>
      </trkpt>
      <trkpt lat="47.09127" lon="-1.86431">
        <ele>67</ele>
        <time>2021-07-25T09:37:13.000Z</time>
      </trkpt>
      <trkpt lat="47.09141" lon="-1.86431">
        <ele>67</ele>
        <time>2021-07-25T09:37:15.000Z</time>
      </trkpt>
      <trkpt lat="47.09154" lon="-1.8643">
        <ele>68</ele>
        <time>2021-07-25T09:37:17.000Z</time>
      </trkpt>
      <trkpt lat="47.09167" lon="-1.86426">
        <ele>68</ele>
        <time>2021-07-25T09:37:19.000Z</time>
      </trkpt>
      <trkpt lat="47.0918" lon="-1.86422">
        <ele>67</ele>
        <time>2021-07-25T09:37:21.000Z</time>
      </trkpt>
      <trkpt lat="47.09192" lon="-1.86415">
        <ele>67</ele>
        <time>2021-07-25T09:37:23.000Z</time>
      </trkpt>
      <trkpt lat="47.09204" lon="-1.86408">
        <ele>68</ele>
        <time>2021-07-25T09:37:25.000Z</time>
      </trkpt>
      <trkpt lat="47.09217" lon="-1.864">
        <ele>68</ele>
        <time>2021-07-25T09:37:27.000Z</time>
      </trkpt>
      <trkpt lat="47.09231" lon="-1.86391">
        <ele>68</ele>
        <time>2021-07-25T09:37:29.000Z</time>
      </trkpt>
      <trkpt lat="47.09245" lon="-1.86382">
        <ele>68</ele>
        <time>2021-07-25T09:37:31.000Z</time>
      </trkpt>
      <trkpt lat="47.09258" lon="-1.86374">
        <ele>68</ele>
        <time>2021-07-25T09:37:33.000Z</time>
      </trkpt>
      <trkpt lat="47.09271" lon="-1.86364">
        <ele>68</ele>
        <time>2021-07-25T09:37:35.000Z</time>
      </trkpt>
      <trkpt lat="47.09281" lon="-1.86352">
        <ele>68</ele>
        <time>2021-07-25T09:37:37.000Z</time>
      </trkpt>
      <trkpt lat="47.09285" lon="-1.8634">
        <ele>67</ele>
        <time>2021-07-25T09:37:39.000Z</time>
      </trkpt>
      <trkpt lat="47.0928" lon="-1.86326">
        <ele>67</ele>
        <time>2021-07-25T09:37:41.000Z</time>
      </trkpt>
      <trkpt lat="47.09272" lon="-1.86314">
        <ele>66</ele>
        <time>2021-07-25T09:37:43.000Z</time>
      </trkpt>
      <trkpt lat="47.09266" lon="-1.86297">
        <ele>66</ele>
        <time>2021-07-25T09:37:45.000Z</time>
      </trkpt>
      <trkpt lat="47.09262" lon="-1.86277">
        <ele>65</ele>
        <time>2021-07-25T09:37:47.000Z</time>
      </trkpt>
      <trkpt lat="47.09258" lon="-1.86259">
        <ele>66</ele>
        <time>2021-07-25T09:37:49.000Z</time>
      </trkpt>
      <trkpt lat="47.09254" lon="-1.8624">
        <ele>66</ele>
        <time>2021-07-25T09:37:51.000Z</time>
      </trkpt>
      <trkpt lat="47.09251" lon="-1.8622">
        <ele>66</ele>
        <time>2021-07-25T09:37:53.000Z</time>
      </trkpt>
      <trkpt lat="47.09248" lon="-1.86199">
        <ele>67</ele>
        <time>2021-07-25T09:37:55.000Z</time>
      </trkpt>
      <trkpt lat="47.09244" lon="-1.8618">
        <ele>67</ele>
        <time>2021-07-25T09:37:57.000Z</time>
      </trkpt>
      <trkpt lat="47.0924" lon="-1.86161">
        <ele>67</ele>
        <time>2021-07-25T09:37:59.000Z</time>
      </trkpt>
      <trkpt lat="47.09236" lon="-1.86142">
        <ele>68</ele>
        <time>2021-07-25T09:38:01.000Z</time>
      </trkpt>
      <trkpt lat="47.09232" lon="-1.86124">
        <ele>68</ele>
        <time>2021-07-25T09:38:03.000Z</time>
      </trkpt>
      <trkpt lat="47.09228" lon="-1.86106">
        <ele>68</ele>
        <time>2021-07-25T09:38:05.000Z</time>
      </trkpt>
      <trkpt lat="47.09224" lon="-1.86087">
        <ele>69</ele>
        <time>2021-07-25T09:38:07.000Z</time>
      </trkpt>
      <trkpt lat="47.09218" lon="-1.86071">
        <ele>69</ele>
        <time>2021-07-25T09:38:09.000Z</time>
      </trkpt>
      <trkpt lat="47.09211" lon="-1.86056">
        <ele>69</ele>
        <time>2021-07-25T09:38:11.000Z</time>
      </trkpt>
      <trkpt lat="47.0921" lon="-1.86038">
        <ele>69</ele>
        <time>2021-07-25T09:38:13.000Z</time>
      </trkpt>
      <trkpt lat="47.09208" lon="-1.86019">
        <ele>69</ele>
        <time>2021-07-25T09:38:15.000Z</time>
      </trkpt>
      <trkpt lat="47.09205" lon="-1.86">
        <ele>69</ele>
        <time>2021-07-25T09:38:17.000Z</time>
      </trkpt>
      <trkpt lat="47.09203" lon="-1.85981">
        <ele>69</ele>
        <time>2021-07-25T09:38:19.000Z</time>
      </trkpt>
      <trkpt lat="47.092" lon="-1.85963">
        <ele>69</ele>
        <time>2021-07-25T09:38:21.000Z</time>
      </trkpt>
      <trkpt lat="47.09198" lon="-1.85943">
        <ele>69</ele>
        <time>2021-07-25T09:38:23.000Z</time>
      </trkpt>
      <trkpt lat="47.09194" lon="-1.85924">
        <ele>69</ele>
        <time>2021-07-25T09:38:25.000Z</time>
      </trkpt>
      <trkpt lat="47.0919" lon="-1.85905">
        <ele>69</ele>
        <time>2021-07-25T09:38:27.000Z</time>
      </trkpt>
      <trkpt lat="47.09186" lon="-1.85885">
        <ele>68</ele>
        <time>2021-07-25T09:38:29.000Z</time>
      </trkpt>
      <trkpt lat="47.09182" lon="-1.85866">
        <ele>68</ele>
        <time>2021-07-25T09:38:31.000Z</time>
      </trkpt>
      <trkpt lat="47.09178" lon="-1.85849">
        <ele>68</ele>
        <time>2021-07-25T09:38:33.000Z</time>
      </trkpt>
      <trkpt lat="47.09174" lon="-1.85832">
        <ele>68</ele>
        <time>2021-07-25T09:38:35.000Z</time>
      </trkpt>
      <trkpt lat="47.0917" lon="-1.85814">
        <ele>68</ele>
        <time>2021-07-25T09:38:37.000Z</time>
      </trkpt>
      <trkpt lat="47.09165" lon="-1.85796">
        <ele>68</ele>
        <time>2021-07-25T09:38:39.000Z</time>
      </trkpt>
      <trkpt lat="47.09159" lon="-1.85777">
        <ele>68</ele>
        <time>2021-07-25T09:38:41.000Z</time>
      </trkpt>
      <trkpt lat="47.09154" lon="-1.85758">
        <ele>68</ele>
        <time>2021-07-25T09:38:43.000Z</time>
      </trkpt>
      <trkpt lat="47.09149" lon="-1.85739">
        <ele>68</ele>
        <time>2021-07-25T09:38:45.000Z</time>
      </trkpt>
      <trkpt lat="47.09144" lon="-1.8572">
        <ele>67</ele>
        <time>2021-07-25T09:38:47.000Z</time>
      </trkpt>
      <trkpt lat="47.09138" lon="-1.857">
        <ele>67</ele>
        <time>2021-07-25T09:38:49.000Z</time>
      </trkpt>
      <trkpt lat="47.09133" lon="-1.85681">
        <ele>67</ele>
        <time>2021-07-25T09:38:51.000Z</time>
      </trkpt>
      <trkpt lat="47.09128" lon="-1.85663">
        <ele>67</ele>
        <time>2021-07-25T09:38:53.000Z</time>
      </trkpt>
      <trkpt lat="47.09123" lon="-1.85643">
        <ele>67</ele>
        <time>2021-07-25T09:38:55.000Z</time>
      </trkpt>
      <trkpt lat="47.09124" lon="-1.85623">
        <ele>67</ele>
        <time>2021-07-25T09:38:57.000Z</time>
      </trkpt>
      <trkpt lat="47.09132" lon="-1.85608">
        <ele>67</ele>
        <time>2021-07-25T09:38:59.000Z</time>
      </trkpt>
      <trkpt lat="47.09144" lon="-1.85594">
        <ele>67</ele>
        <time>2021-07-25T09:39:01.000Z</time>
      </trkpt>
      <trkpt lat="47.09155" lon="-1.8558">
        <ele>67</ele>
        <time>2021-07-25T09:39:03.000Z</time>
      </trkpt>
      <trkpt lat="47.09166" lon="-1.85567">
        <ele>68</ele>
        <time>2021-07-25T09:39:05.000Z</time>
      </trkpt>
      <trkpt lat="47.09178" lon="-1.85555">
        <ele>68</ele>
        <time>2021-07-25T09:39:07.000Z</time>
      </trkpt>
      <trkpt lat="47.0919" lon="-1.85542">
        <ele>68</ele>
        <time>2021-07-25T09:39:09.000Z</time>
      </trkpt>
      <trkpt lat="47.09201" lon="-1.85529">
        <ele>68</ele>
        <time>2021-07-25T09:39:11.000Z</time>
      </trkpt>
      <trkpt lat="47.09212" lon="-1.85514">
        <ele>68</ele>
        <time>2021-07-25T09:39:13.000Z</time>
      </trkpt>
      <trkpt lat="47.09223" lon="-1.85497">
        <ele>68</ele>
        <time>2021-07-25T09:39:15.000Z</time>
      </trkpt>
      <trkpt lat="47.09228" lon="-1.85475">
        <ele>68</ele>
        <time>2021-07-25T09:39:17.000Z</time>
      </trkpt>
      <trkpt lat="47.0923" lon="-1.85453">
        <ele>68</ele>
        <time>2021-07-25T09:39:19.000Z</time>
      </trkpt>
      <trkpt lat="47.0923" lon="-1.85431">
        <ele>67</ele>
        <time>2021-07-25T09:39:21.000Z</time>
      </trkpt>
      <trkpt lat="47.0923" lon="-1.85408">
        <ele>67</ele>
        <time>2021-07-25T09:39:23.000Z</time>
      </trkpt>
      <trkpt lat="47.0923" lon="-1.85386">
        <ele>67</ele>
        <time>2021-07-25T09:39:25.000Z</time>
      </trkpt>
      <trkpt lat="47.09231" lon="-1.85364">
        <ele>67</ele>
        <time>2021-07-25T09:39:27.000Z</time>
      </trkpt>
      <trkpt lat="47.09231" lon="-1.85342">
        <ele>67</ele>
        <time>2021-07-25T09:39:29.000Z</time>
      </trkpt>
      <trkpt lat="47.09232" lon="-1.8532">
        <ele>67</ele>
        <time>2021-07-25T09:39:31.000Z</time>
      </trkpt>
      <trkpt lat="47.09233" lon="-1.85298">
        <ele>66</ele>
        <time>2021-07-25T09:39:33.000Z</time>
      </trkpt>
      <trkpt lat="47.09233" lon="-1.85276">
        <ele>66</ele>
        <time>2021-07-25T09:39:35.000Z</time>
      </trkpt>
      <trkpt lat="47.09234" lon="-1.85253">
        <ele>66</ele>
        <time>2021-07-25T09:39:37.000Z</time>
      </trkpt>
      <trkpt lat="47.09235" lon="-1.8523">
        <ele>66</ele>
        <time>2021-07-25T09:39:39.000Z</time>
      </trkpt>
      <trkpt lat="47.09237" lon="-1.85209">
        <ele>66</ele>
        <time>2021-07-25T09:39:41.000Z</time>
      </trkpt>
      <trkpt lat="47.09242" lon="-1.85189">
        <ele>66</ele>
        <time>2021-07-25T09:39:43.000Z</time>
      </trkpt>
      <trkpt lat="47.0925" lon="-1.85171">
        <ele>66</ele>
        <time>2021-07-25T09:39:45.000Z</time>
      </trkpt>
      <trkpt lat="47.09259" lon="-1.85154">
        <ele>67</ele>
        <time>2021-07-25T09:39:47.000Z</time>
      </trkpt>
      <trkpt lat="47.09269" lon="-1.85139">
        <ele>67</ele>
        <time>2021-07-25T09:39:49.000Z</time>
      </trkpt>
      <trkpt lat="47.0928" lon="-1.85125">
        <ele>68</ele>
        <time>2021-07-25T09:39:51.000Z</time>
      </trkpt>
      <trkpt lat="47.09291" lon="-1.85111">
        <ele>68</ele>
        <time>2021-07-25T09:39:53.000Z</time>
      </trkpt>
      <trkpt lat="47.09302" lon="-1.85097">
        <ele>68</ele>
        <time>2021-07-25T09:39:55.000Z</time>
      </trkpt>
      <trkpt lat="47.09314" lon="-1.85086">
        <ele>69</ele>
        <time>2021-07-25T09:39:57.000Z</time>
      </trkpt>
      <trkpt lat="47.09327" lon="-1.85075">
        <ele>70</ele>
        <time>2021-07-25T09:39:59.000Z</time>
      </trkpt>
      <trkpt lat="47.09341" lon="-1.85068">
        <ele>71</ele>
        <time>2021-07-25T09:40:01.000Z</time>
      </trkpt>
      <trkpt lat="47.09354" lon="-1.8506">
        <ele>71</ele>
        <time>2021-07-25T09:40:03.000Z</time>
      </trkpt>
      <trkpt lat="47.09369" lon="-1.85053">
        <ele>71</ele>
        <time>2021-07-25T09:40:05.000Z</time>
      </trkpt>
      <trkpt lat="47.09382" lon="-1.85046">
        <ele>71</ele>
        <time>2021-07-25T09:40:07.000Z</time>
      </trkpt>
      <trkpt lat="47.09395" lon="-1.85038">
        <ele>71</ele>
        <time>2021-07-25T09:40:09.000Z</time>
      </trkpt>
      <trkpt lat="47.09409" lon="-1.85029">
        <ele>71</ele>
        <time>2021-07-25T09:40:11.000Z</time>
      </trkpt>
      <trkpt lat="47.09422" lon="-1.85021">
        <ele>71</ele>
        <time>2021-07-25T09:40:13.000Z</time>
      </trkpt>
      <trkpt lat="47.09434" lon="-1.85012">
        <ele>71</ele>
        <time>2021-07-25T09:40:15.000Z</time>
      </trkpt>
      <trkpt lat="47.09446" lon="-1.85004">
        <ele>71</ele>
        <time>2021-07-25T09:40:17.000Z</time>
      </trkpt>
      <trkpt lat="47.09458" lon="-1.84995">
        <ele>71</ele>
        <time>2021-07-25T09:40:19.000Z</time>
      </trkpt>
      <trkpt lat="47.0947" lon="-1.84986">
        <ele>71</ele>
        <time>2021-07-25T09:40:21.000Z</time>
      </trkpt>
      <trkpt lat="47.09482" lon="-1.84978">
        <ele>71</ele>
        <time>2021-07-25T09:40:23.000Z</time>
      </trkpt>
      <trkpt lat="47.09494" lon="-1.84969">
        <ele>72</ele>
        <time>2021-07-25T09:40:25.000Z</time>
      </trkpt>
      <trkpt lat="47.09505" lon="-1.8496">
        <ele>71</ele>
        <time>2021-07-25T09:40:27.000Z</time>
      </trkpt>
      <trkpt lat="47.09518" lon="-1.84952">
        <ele>71</ele>
        <time>2021-07-25T09:40:29.000Z</time>
      </trkpt>
      <trkpt lat="47.0953" lon="-1.84944">
        <ele>71</ele>
        <time>2021-07-25T09:40:31.000Z</time>
      </trkpt>
      <trkpt lat="47.09545" lon="-1.8494">
        <ele>71</ele>
        <time>2021-07-25T09:40:33.000Z</time>
      </trkpt>
      <trkpt lat="47.09559" lon="-1.84936">
        <ele>71</ele>
        <time>2021-07-25T09:40:35.000Z</time>
      </trkpt>
      <trkpt lat="47.09574" lon="-1.84933">
        <ele>72</ele>
        <time>2021-07-25T09:40:37.000Z</time>
      </trkpt>
      <trkpt lat="47.09588" lon="-1.84931">
        <ele>72</ele>
        <time>2021-07-25T09:40:39.000Z</time>
      </trkpt>
      <trkpt lat="47.09603" lon="-1.8493">
        <ele>71</ele>
        <time>2021-07-25T09:40:41.000Z</time>
      </trkpt>
      <trkpt lat="47.09617" lon="-1.8493">
        <ele>71</ele>
        <time>2021-07-25T09:40:43.000Z</time>
      </trkpt>
      <trkpt lat="47.09631" lon="-1.8493">
        <ele>71</ele>
        <time>2021-07-25T09:40:45.000Z</time>
      </trkpt>
      <trkpt lat="47.09646" lon="-1.84931">
        <ele>71</ele>
        <time>2021-07-25T09:40:47.000Z</time>
      </trkpt>
      <trkpt lat="47.0966" lon="-1.84932">
        <ele>71</ele>
        <time>2021-07-25T09:40:49.000Z</time>
      </trkpt>
      <trkpt lat="47.09675" lon="-1.84934">
        <ele>71</ele>
        <time>2021-07-25T09:40:51.000Z</time>
      </trkpt>
      <trkpt lat="47.0969" lon="-1.84936">
        <ele>71</ele>
        <time>2021-07-25T09:40:53.000Z</time>
      </trkpt>
      <trkpt lat="47.09705" lon="-1.84938">
        <ele>71</ele>
        <time>2021-07-25T09:40:55.000Z</time>
      </trkpt>
      <trkpt lat="47.09719" lon="-1.84939">
        <ele>70</ele>
        <time>2021-07-25T09:40:57.000Z</time>
      </trkpt>
      <trkpt lat="47.09735" lon="-1.8494">
        <ele>70</ele>
        <time>2021-07-25T09:40:59.000Z</time>
      </trkpt>
      <trkpt lat="47.0975" lon="-1.84941">
        <ele>71</ele>
        <time>2021-07-25T09:41:01.000Z</time>
      </trkpt>
      <trkpt lat="47.09765" lon="-1.84943">
        <ele>70</ele>
        <time>2021-07-25T09:41:03.000Z</time>
      </trkpt>
      <trkpt lat="47.09779" lon="-1.84944">
        <ele>70</ele>
        <time>2021-07-25T09:41:05.000Z</time>
      </trkpt>
      <trkpt lat="47.09794" lon="-1.84944">
        <ele>71</ele>
        <time>2021-07-25T09:41:07.000Z</time>
      </trkpt>
      <trkpt lat="47.09808" lon="-1.84942">
        <ele>71</ele>
        <time>2021-07-25T09:41:09.000Z</time>
      </trkpt>
      <trkpt lat="47.09822" lon="-1.8494">
        <ele>72</ele>
        <time>2021-07-25T09:41:11.000Z</time>
      </trkpt>
      <trkpt lat="47.09836" lon="-1.84938">
        <ele>72</ele>
        <time>2021-07-25T09:41:13.000Z</time>
      </trkpt>
      <trkpt lat="47.09851" lon="-1.84938">
        <ele>72</ele>
        <time>2021-07-25T09:41:15.000Z</time>
      </trkpt>
      <trkpt lat="47.09864" lon="-1.84938">
        <ele>72</ele>
        <time>2021-07-25T09:41:17.000Z</time>
      </trkpt>
      <trkpt lat="47.09878" lon="-1.84939">
        <ele>71</ele>
        <time>2021-07-25T09:41:19.000Z</time>
      </trkpt>
      <trkpt lat="47.09892" lon="-1.84941">
        <ele>70</ele>
        <time>2021-07-25T09:41:21.000Z</time>
      </trkpt>
      <trkpt lat="47.09905" lon="-1.84943">
        <ele>70</ele>
        <time>2021-07-25T09:41:23.000Z</time>
      </trkpt>
      <trkpt lat="47.09916" lon="-1.84943">
        <ele>70</ele>
        <time>2021-07-25T09:41:25.000Z</time>
      </trkpt>
      <trkpt lat="47.09922" lon="-1.84932">
        <ele>69</ele>
        <time>2021-07-25T09:41:27.000Z</time>
      </trkpt>
      <trkpt lat="47.0992" lon="-1.84914">
        <ele>69</ele>
        <time>2021-07-25T09:41:29.000Z</time>
      </trkpt>
      <trkpt lat="47.09919" lon="-1.84893">
        <ele>68</ele>
        <time>2021-07-25T09:41:31.000Z</time>
      </trkpt>
      <trkpt lat="47.09918" lon="-1.84872">
        <ele>68</ele>
        <time>2021-07-25T09:41:33.000Z</time>
      </trkpt>
      <trkpt lat="47.09917" lon="-1.84852">
        <ele>68</ele>
        <time>2021-07-25T09:41:35.000Z</time>
      </trkpt>
      <trkpt lat="47.09915" lon="-1.84832">
        <ele>68</ele>
        <time>2021-07-25T09:41:37.000Z</time>
      </trkpt>
      <trkpt lat="47.09914" lon="-1.84811">
        <ele>68</ele>
        <time>2021-07-25T09:41:39.000Z</time>
      </trkpt>
      <trkpt lat="47.09913" lon="-1.84791">
        <ele>69</ele>
        <time>2021-07-25T09:41:41.000Z</time>
      </trkpt>
      <trkpt lat="47.09912" lon="-1.84771">
        <ele>68</ele>
        <time>2021-07-25T09:41:43.000Z</time>
      </trkpt>
      <trkpt lat="47.09911" lon="-1.84751">
        <ele>68</ele>
        <time>2021-07-25T09:41:45.000Z</time>
      </trkpt>
      <trkpt lat="47.0991" lon="-1.84731">
        <ele>69</ele>
        <time>2021-07-25T09:41:47.000Z</time>
      </trkpt>
      <trkpt lat="47.09909" lon="-1.84712">
        <ele>68</ele>
        <time>2021-07-25T09:41:49.000Z</time>
      </trkpt>
      <trkpt lat="47.09908" lon="-1.84693">
        <ele>69</ele>
        <time>2021-07-25T09:41:51.000Z</time>
      </trkpt>
      <trkpt lat="47.09907" lon="-1.84674">
        <ele>70</ele>
        <time>2021-07-25T09:41:53.000Z</time>
      </trkpt>
      <trkpt lat="47.09905" lon="-1.84654">
        <ele>70</ele>
        <time>2021-07-25T09:41:55.000Z</time>
      </trkpt>
      <trkpt lat="47.09904" lon="-1.84634">
        <ele>70</ele>
        <time>2021-07-25T09:41:57.000Z</time>
      </trkpt>
      <trkpt lat="47.09903" lon="-1.84614">
        <ele>70</ele>
        <time>2021-07-25T09:41:59.000Z</time>
      </trkpt>
      <trkpt lat="47.09902" lon="-1.84595">
        <ele>70</ele>
        <time>2021-07-25T09:42:01.000Z</time>
      </trkpt>
      <trkpt lat="47.09901" lon="-1.84575">
        <ele>70</ele>
        <time>2021-07-25T09:42:03.000Z</time>
      </trkpt>
      <trkpt lat="47.099" lon="-1.84557">
        <ele>69</ele>
        <time>2021-07-25T09:42:05.000Z</time>
      </trkpt>
      <trkpt lat="47.09899" lon="-1.84537">
        <ele>68</ele>
        <time>2021-07-25T09:42:07.000Z</time>
      </trkpt>
      <trkpt lat="47.09896" lon="-1.84519">
        <ele>68</ele>
        <time>2021-07-25T09:42:09.000Z</time>
      </trkpt>
      <trkpt lat="47.09893" lon="-1.845">
        <ele>69</ele>
        <time>2021-07-25T09:42:11.000Z</time>
      </trkpt>
      <trkpt lat="47.09891" lon="-1.84481">
        <ele>69</ele>
        <time>2021-07-25T09:42:13.000Z</time>
      </trkpt>
      <trkpt lat="47.09889" lon="-1.84461">
        <ele>69</ele>
        <time>2021-07-25T09:42:15.000Z</time>
      </trkpt>
      <trkpt lat="47.09887" lon="-1.8444">
        <ele>70</ele>
        <time>2021-07-25T09:42:17.000Z</time>
      </trkpt>
      <trkpt lat="47.09887" lon="-1.84419">
        <ele>70</ele>
        <time>2021-07-25T09:42:19.000Z</time>
      </trkpt>
      <trkpt lat="47.09887" lon="-1.84398">
        <ele>70</ele>
        <time>2021-07-25T09:42:21.000Z</time>
      </trkpt>
      <trkpt lat="47.09888" lon="-1.84377">
        <ele>69</ele>
        <time>2021-07-25T09:42:23.000Z</time>
      </trkpt>
      <trkpt lat="47.09888" lon="-1.84356">
        <ele>69</ele>
        <time>2021-07-25T09:42:25.000Z</time>
      </trkpt>
      <trkpt lat="47.09889" lon="-1.84335">
        <ele>69</ele>
        <time>2021-07-25T09:42:27.000Z</time>
      </trkpt>
      <trkpt lat="47.09888" lon="-1.84313">
        <ele>69</ele>
        <time>2021-07-25T09:42:29.000Z</time>
      </trkpt>
      <trkpt lat="47.09888" lon="-1.84292">
        <ele>69</ele>
        <time>2021-07-25T09:42:31.000Z</time>
      </trkpt>
      <trkpt lat="47.09888" lon="-1.84271">
        <ele>68</ele>
        <time>2021-07-25T09:42:33.000Z</time>
      </trkpt>
      <trkpt lat="47.09887" lon="-1.84251">
        <ele>68</ele>
        <time>2021-07-25T09:42:35.000Z</time>
      </trkpt>
      <trkpt lat="47.09885" lon="-1.8423">
        <ele>68</ele>
        <time>2021-07-25T09:42:37.000Z</time>
      </trkpt>
      <trkpt lat="47.09883" lon="-1.84209">
        <ele>67</ele>
        <time>2021-07-25T09:42:39.000Z</time>
      </trkpt>
      <trkpt lat="47.0988" lon="-1.84188">
        <ele>67</ele>
        <time>2021-07-25T09:42:41.000Z</time>
      </trkpt>
      <trkpt lat="47.09877" lon="-1.84167">
        <ele>67</ele>
        <time>2021-07-25T09:42:43.000Z</time>
      </trkpt>
      <trkpt lat="47.09874" lon="-1.84147">
        <ele>67</ele>
        <time>2021-07-25T09:42:45.000Z</time>
      </trkpt>
      <trkpt lat="47.09871" lon="-1.84126">
        <ele>67</ele>
        <time>2021-07-25T09:42:47.000Z</time>
      </trkpt>
      <trkpt lat="47.09867" lon="-1.84105">
        <ele>67</ele>
        <time>2021-07-25T09:42:49.000Z</time>
      </trkpt>
      <trkpt lat="47.09863" lon="-1.84084">
        <ele>66</ele>
        <time>2021-07-25T09:42:51.000Z</time>
      </trkpt>
      <trkpt lat="47.0986" lon="-1.84063">
        <ele>66</ele>
        <time>2021-07-25T09:42:53.000Z</time>
      </trkpt>
      <trkpt lat="47.09856" lon="-1.84042">
        <ele>66</ele>
        <time>2021-07-25T09:42:55.000Z</time>
      </trkpt>
      <trkpt lat="47.09853" lon="-1.84021">
        <ele>66</ele>
        <time>2021-07-25T09:42:57.000Z</time>
      </trkpt>
      <trkpt lat="47.0985" lon="-1.83998">
        <ele>66</ele>
        <time>2021-07-25T09:42:59.000Z</time>
      </trkpt>
      <trkpt lat="47.09849" lon="-1.83976">
        <ele>66</ele>
        <time>2021-07-25T09:43:01.000Z</time>
      </trkpt>
      <trkpt lat="47.09848" lon="-1.83954">
        <ele>65</ele>
        <time>2021-07-25T09:43:03.000Z</time>
      </trkpt>
      <trkpt lat="47.09849" lon="-1.83932">
        <ele>65</ele>
        <time>2021-07-25T09:43:05.000Z</time>
      </trkpt>
      <trkpt lat="47.09851" lon="-1.83911">
        <ele>65</ele>
        <time>2021-07-25T09:43:07.000Z</time>
      </trkpt>
      <trkpt lat="47.09853" lon="-1.83888">
        <ele>65</ele>
        <time>2021-07-25T09:43:09.000Z</time>
      </trkpt>
      <trkpt lat="47.09855" lon="-1.83867">
        <ele>65</ele>
        <time>2021-07-25T09:43:11.000Z</time>
      </trkpt>
      <trkpt lat="47.09856" lon="-1.83845">
        <ele>64</ele>
        <time>2021-07-25T09:43:13.000Z</time>
      </trkpt>
      <trkpt lat="47.09857" lon="-1.83824">
        <ele>64</ele>
        <time>2021-07-25T09:43:15.000Z</time>
      </trkpt>
      <trkpt lat="47.09858" lon="-1.83802">
        <ele>64</ele>
        <time>2021-07-25T09:43:17.000Z</time>
      </trkpt>
      <trkpt lat="47.09858" lon="-1.8378">
        <ele>64</ele>
        <time>2021-07-25T09:43:19.000Z</time>
      </trkpt>
      <trkpt lat="47.09859" lon="-1.83759">
        <ele>64</ele>
        <time>2021-07-25T09:43:21.000Z</time>
      </trkpt>
      <trkpt lat="47.09859" lon="-1.83739">
        <ele>64</ele>
        <time>2021-07-25T09:43:23.000Z</time>
      </trkpt>
      <trkpt lat="47.0986" lon="-1.83719">
        <ele>64</ele>
        <time>2021-07-25T09:43:25.000Z</time>
      </trkpt>
      <trkpt lat="47.0986" lon="-1.83697">
        <ele>64</ele>
        <time>2021-07-25T09:43:27.000Z</time>
      </trkpt>
      <trkpt lat="47.09861" lon="-1.83676">
        <ele>64</ele>
        <time>2021-07-25T09:43:29.000Z</time>
      </trkpt>
      <trkpt lat="47.09861" lon="-1.83656">
        <ele>64</ele>
        <time>2021-07-25T09:43:31.000Z</time>
      </trkpt>
      <trkpt lat="47.09861" lon="-1.83634">
        <ele>64</ele>
        <time>2021-07-25T09:43:33.000Z</time>
      </trkpt>
      <trkpt lat="47.0986" lon="-1.83614">
        <ele>63</ele>
        <time>2021-07-25T09:43:35.000Z</time>
      </trkpt>
      <trkpt lat="47.09859" lon="-1.83593">
        <ele>63</ele>
        <time>2021-07-25T09:43:37.000Z</time>
      </trkpt>
      <trkpt lat="47.09858" lon="-1.83571">
        <ele>63</ele>
        <time>2021-07-25T09:43:39.000Z</time>
      </trkpt>
      <trkpt lat="47.09856" lon="-1.83551">
        <ele>63</ele>
        <time>2021-07-25T09:43:41.000Z</time>
      </trkpt>
      <trkpt lat="47.09854" lon="-1.8353">
        <ele>63</ele>
        <time>2021-07-25T09:43:43.000Z</time>
      </trkpt>
      <trkpt lat="47.09852" lon="-1.83509">
        <ele>63</ele>
        <time>2021-07-25T09:43:45.000Z</time>
      </trkpt>
      <trkpt lat="47.09851" lon="-1.83489">
        <ele>63</ele>
        <time>2021-07-25T09:43:47.000Z</time>
      </trkpt>
      <trkpt lat="47.09852" lon="-1.83468">
        <ele>63</ele>
        <time>2021-07-25T09:43:49.000Z</time>
      </trkpt>
      <trkpt lat="47.09853" lon="-1.83447">
        <ele>63</ele>
        <time>2021-07-25T09:43:51.000Z</time>
      </trkpt>
      <trkpt lat="47.09856" lon="-1.83427">
        <ele>64</ele>
        <time>2021-07-25T09:43:53.000Z</time>
      </trkpt>
      <trkpt lat="47.0986" lon="-1.83407">
        <ele>64</ele>
        <time>2021-07-25T09:43:55.000Z</time>
      </trkpt>
      <trkpt lat="47.09863" lon="-1.83388">
        <ele>63</ele>
        <time>2021-07-25T09:43:57.000Z</time>
      </trkpt>
      <trkpt lat="47.09868" lon="-1.83368">
        <ele>63</ele>
        <time>2021-07-25T09:43:59.000Z</time>
      </trkpt>
      <trkpt lat="47.09872" lon="-1.83348">
        <ele>64</ele>
        <time>2021-07-25T09:44:01.000Z</time>
      </trkpt>
      <trkpt lat="47.09875" lon="-1.83328">
        <ele>64</ele>
        <time>2021-07-25T09:44:03.000Z</time>
      </trkpt>
      <trkpt lat="47.09878" lon="-1.83308">
        <ele>64</ele>
        <time>2021-07-25T09:44:05.000Z</time>
      </trkpt>
      <trkpt lat="47.0988" lon="-1.83289">
        <ele>64</ele>
        <time>2021-07-25T09:44:07.000Z</time>
      </trkpt>
      <trkpt lat="47.09882" lon="-1.83269">
        <ele>64</ele>
        <time>2021-07-25T09:44:09.000Z</time>
      </trkpt>
      <trkpt lat="47.09882" lon="-1.8325">
        <ele>64</ele>
        <time>2021-07-25T09:44:11.000Z</time>
      </trkpt>
      <trkpt lat="47.09883" lon="-1.83232">
        <ele>66</ele>
        <time>2021-07-25T09:44:13.000Z</time>
      </trkpt>
      <trkpt lat="47.09882" lon="-1.83215">
        <ele>66</ele>
        <time>2021-07-25T09:44:15.000Z</time>
      </trkpt>
      <trkpt lat="47.0988" lon="-1.83197">
        <ele>67</ele>
        <time>2021-07-25T09:44:17.000Z</time>
      </trkpt>
      <trkpt lat="47.09878" lon="-1.83179">
        <ele>67</ele>
        <time>2021-07-25T09:44:19.000Z</time>
      </trkpt>
      <trkpt lat="47.09876" lon="-1.83161">
        <ele>67</ele>
        <time>2021-07-25T09:44:21.000Z</time>
      </trkpt>
      <trkpt lat="47.09874" lon="-1.83143">
        <ele>68</ele>
        <time>2021-07-25T09:44:23.000Z</time>
      </trkpt>
      <trkpt lat="47.09873" lon="-1.83126">
        <ele>68</ele>
        <time>2021-07-25T09:44:25.000Z</time>
      </trkpt>
      <trkpt lat="47.09871" lon="-1.83108">
        <ele>68</ele>
        <time>2021-07-25T09:44:27.000Z</time>
      </trkpt>
      <trkpt lat="47.09868" lon="-1.8309">
        <ele>68</ele>
        <time>2021-07-25T09:44:29.000Z</time>
      </trkpt>
      <trkpt lat="47.09866" lon="-1.83073">
        <ele>68</ele>
        <time>2021-07-25T09:44:31.000Z</time>
      </trkpt>
      <trkpt lat="47.09864" lon="-1.83054">
        <ele>68</ele>
        <time>2021-07-25T09:44:33.000Z</time>
      </trkpt>
      <trkpt lat="47.09863" lon="-1.83036">
        <ele>68</ele>
        <time>2021-07-25T09:44:35.000Z</time>
      </trkpt>
      <trkpt lat="47.09861" lon="-1.83018">
        <ele>69</ele>
        <time>2021-07-25T09:44:37.000Z</time>
      </trkpt>
      <trkpt lat="47.09859" lon="-1.83">
        <ele>69</ele>
        <time>2021-07-25T09:44:39.000Z</time>
      </trkpt>
      <trkpt lat="47.09856" lon="-1.82982">
        <ele>69</ele>
        <time>2021-07-25T09:44:41.000Z</time>
      </trkpt>
      <trkpt lat="47.09855" lon="-1.82963">
        <ele>69</ele>
        <time>2021-07-25T09:44:43.000Z</time>
      </trkpt>
      <trkpt lat="47.09853" lon="-1.82944">
        <ele>69</ele>
        <time>2021-07-25T09:44:45.000Z</time>
      </trkpt>
      <trkpt lat="47.09851" lon="-1.82926">
        <ele>69</ele>
        <time>2021-07-25T09:44:47.000Z</time>
      </trkpt>
      <trkpt lat="47.0985" lon="-1.82908">
        <ele>70</ele>
        <time>2021-07-25T09:44:49.000Z</time>
      </trkpt>
      <trkpt lat="47.09848" lon="-1.8289">
        <ele>70</ele>
        <time>2021-07-25T09:44:51.000Z</time>
      </trkpt>
      <trkpt lat="47.09847" lon="-1.82872">
        <ele>70</ele>
        <time>2021-07-25T09:44:53.000Z</time>
      </trkpt>
      <trkpt lat="47.09846" lon="-1.82855">
        <ele>71</ele>
        <time>2021-07-25T09:44:55.000Z</time>
      </trkpt>
      <trkpt lat="47.09847" lon="-1.82836">
        <ele>70</ele>
        <time>2021-07-25T09:44:57.000Z</time>
      </trkpt>
      <trkpt lat="47.09847" lon="-1.82818">
        <ele>71</ele>
        <time>2021-07-25T09:44:59.000Z</time>
      </trkpt>
      <trkpt lat="47.09848" lon="-1.82799">
        <ele>71</ele>
        <time>2021-07-25T09:45:01.000Z</time>
      </trkpt>
      <trkpt lat="47.09848" lon="-1.82781">
        <ele>71</ele>
        <time>2021-07-25T09:45:03.000Z</time>
      </trkpt>
      <trkpt lat="47.09847" lon="-1.82763">
        <ele>71</ele>
        <time>2021-07-25T09:45:05.000Z</time>
      </trkpt>
      <trkpt lat="47.09843" lon="-1.82745">
        <ele>71</ele>
        <time>2021-07-25T09:45:07.000Z</time>
      </trkpt>
      <trkpt lat="47.09839" lon="-1.82727">
        <ele>71</ele>
        <time>2021-07-25T09:45:09.000Z</time>
      </trkpt>
      <trkpt lat="47.09834" lon="-1.82707">
        <ele>71</ele>
        <time>2021-07-25T09:45:11.000Z</time>
      </trkpt>
      <trkpt lat="47.0983" lon="-1.82688">
        <ele>71</ele>
        <time>2021-07-25T09:45:13.000Z</time>
      </trkpt>
      <trkpt lat="47.09826" lon="-1.82669">
        <ele>71</ele>
        <time>2021-07-25T09:45:15.000Z</time>
      </trkpt>
      <trkpt lat="47.09822" lon="-1.8265">
        <ele>71</ele>
        <time>2021-07-25T09:45:17.000Z</time>
      </trkpt>
      <trkpt lat="47.09819" lon="-1.82632">
        <ele>70</ele>
        <time>2021-07-25T09:45:19.000Z</time>
      </trkpt>
      <trkpt lat="47.09815" lon="-1.82612">
        <ele>70</ele>
        <time>2021-07-25T09:45:21.000Z</time>
      </trkpt>
      <trkpt lat="47.09812" lon="-1.82593">
        <ele>70</ele>
        <time>2021-07-25T09:45:23.000Z</time>
      </trkpt>
      <trkpt lat="47.09809" lon="-1.82574">
        <ele>70</ele>
        <time>2021-07-25T09:45:25.000Z</time>
      </trkpt>
      <trkpt lat="47.09806" lon="-1.82554">
        <ele>70</ele>
        <time>2021-07-25T09:45:27.000Z</time>
      </trkpt>
      <trkpt lat="47.09804" lon="-1.82534">
        <ele>71</ele>
        <time>2021-07-25T09:45:29.000Z</time>
      </trkpt>
      <trkpt lat="47.09801" lon="-1.82514">
        <ele>71</ele>
        <time>2021-07-25T09:45:31.000Z</time>
      </trkpt>
      <trkpt lat="47.09799" lon="-1.82495">
        <ele>71</ele>
        <time>2021-07-25T09:45:33.000Z</time>
      </trkpt>
      <trkpt lat="47.09796" lon="-1.82474">
        <ele>71</ele>
        <time>2021-07-25T09:45:35.000Z</time>
      </trkpt>
      <trkpt lat="47.09794" lon="-1.82454">
        <ele>70</ele>
        <time>2021-07-25T09:45:37.000Z</time>
      </trkpt>
      <trkpt lat="47.09792" lon="-1.82433">
        <ele>70</ele>
        <time>2021-07-25T09:45:39.000Z</time>
      </trkpt>
      <trkpt lat="47.09789" lon="-1.82413">
        <ele>70</ele>
        <time>2021-07-25T09:45:41.000Z</time>
      </trkpt>
      <trkpt lat="47.09785" lon="-1.82393">
        <ele>70</ele>
        <time>2021-07-25T09:45:43.000Z</time>
      </trkpt>
      <trkpt lat="47.0978" lon="-1.82374">
        <ele>70</ele>
        <time>2021-07-25T09:45:45.000Z</time>
      </trkpt>
      <trkpt lat="47.09775" lon="-1.82356">
        <ele>70</ele>
        <time>2021-07-25T09:45:47.000Z</time>
      </trkpt>
      <trkpt lat="47.09769" lon="-1.82338">
        <ele>70</ele>
        <time>2021-07-25T09:45:49.000Z</time>
      </trkpt>
      <trkpt lat="47.09762" lon="-1.8232">
        <ele>69</ele>
        <time>2021-07-25T09:45:51.000Z</time>
      </trkpt>
      <trkpt lat="47.09756" lon="-1.82303">
        <ele>69</ele>
        <time>2021-07-25T09:45:53.000Z</time>
      </trkpt>
      <trkpt lat="47.09749" lon="-1.82287">
        <ele>69</ele>
        <time>2021-07-25T09:45:55.000Z</time>
      </trkpt>
      <trkpt lat="47.09742" lon="-1.82271">
        <ele>70</ele>
        <time>2021-07-25T09:45:57.000Z</time>
      </trkpt>
      <trkpt lat="47.09735" lon="-1.82254">
        <ele>70</ele>
        <time>2021-07-25T09:45:59.000Z</time>
      </trkpt>
      <trkpt lat="47.09728" lon="-1.82238">
        <ele>69</ele>
        <time>2021-07-25T09:46:01.000Z</time>
      </trkpt>
      <trkpt lat="47.0972" lon="-1.82222">
        <ele>70</ele>
        <time>2021-07-25T09:46:03.000Z</time>
      </trkpt>
      <trkpt lat="47.09714" lon="-1.82208">
        <ele>70</ele>
        <time>2021-07-25T09:46:05.000Z</time>
      </trkpt>
      <trkpt lat="47.09708" lon="-1.82194">
        <ele>69</ele>
        <time>2021-07-25T09:46:07.000Z</time>
      </trkpt>
      <trkpt lat="47.09703" lon="-1.82181">
        <ele>69</ele>
        <time>2021-07-25T09:46:09.000Z</time>
      </trkpt>
      <trkpt lat="47.09696" lon="-1.82167">
        <ele>69</ele>
        <time>2021-07-25T09:46:12.000Z</time>
      </trkpt>
      <trkpt lat="47.09691" lon="-1.8215">
        <ele>70</ele>
        <time>2021-07-25T09:46:31.000Z</time>
      </trkpt>
      <trkpt lat="47.09694" lon="-1.82134">
        <ele>71</ele>
        <time>2021-07-25T09:46:33.000Z</time>
      </trkpt>
      <trkpt lat="47.097" lon="-1.82116">
        <ele>71</ele>
        <time>2021-07-25T09:46:35.000Z</time>
      </trkpt>
      <trkpt lat="47.09706" lon="-1.82097">
        <ele>71</ele>
        <time>2021-07-25T09:46:37.000Z</time>
      </trkpt>
      <trkpt lat="47.09712" lon="-1.82076">
        <ele>70</ele>
        <time>2021-07-25T09:46:39.000Z</time>
      </trkpt>
      <trkpt lat="47.09719" lon="-1.82055">
        <ele>70</ele>
        <time>2021-07-25T09:46:41.000Z</time>
      </trkpt>
      <trkpt lat="47.09725" lon="-1.82034">
        <ele>70</ele>
        <time>2021-07-25T09:46:43.000Z</time>
      </trkpt>
      <trkpt lat="47.09731" lon="-1.82013">
        <ele>70</ele>
        <time>2021-07-25T09:46:45.000Z</time>
      </trkpt>
      <trkpt lat="47.09737" lon="-1.81992">
        <ele>70</ele>
        <time>2021-07-25T09:46:47.000Z</time>
      </trkpt>
      <trkpt lat="47.09744" lon="-1.8197">
        <ele>70</ele>
        <time>2021-07-25T09:46:49.000Z</time>
      </trkpt>
      <trkpt lat="47.09751" lon="-1.8195">
        <ele>69</ele>
        <time>2021-07-25T09:46:51.000Z</time>
      </trkpt>
      <trkpt lat="47.09758" lon="-1.8193">
        <ele>69</ele>
        <time>2021-07-25T09:46:53.000Z</time>
      </trkpt>
      <trkpt lat="47.09766" lon="-1.81911">
        <ele>69</ele>
        <time>2021-07-25T09:46:55.000Z</time>
      </trkpt>
      <trkpt lat="47.09775" lon="-1.81892">
        <ele>69</ele>
        <time>2021-07-25T09:46:57.000Z</time>
      </trkpt>
      <trkpt lat="47.09783" lon="-1.81872">
        <ele>69</ele>
        <time>2021-07-25T09:46:59.000Z</time>
      </trkpt>
      <trkpt lat="47.09791" lon="-1.81853">
        <ele>69</ele>
        <time>2021-07-25T09:47:01.000Z</time>
      </trkpt>
      <trkpt lat="47.09799" lon="-1.81833">
        <ele>69</ele>
        <time>2021-07-25T09:47:03.000Z</time>
      </trkpt>
      <trkpt lat="47.09803" lon="-1.81812">
        <ele>69</ele>
        <time>2021-07-25T09:47:05.000Z</time>
      </trkpt>
      <trkpt lat="47.09807" lon="-1.81791">
        <ele>69</ele>
        <time>2021-07-25T09:47:07.000Z</time>
      </trkpt>
      <trkpt lat="47.09819" lon="-1.81776">
        <ele>69</ele>
        <time>2021-07-25T09:47:09.000Z</time>
      </trkpt>
      <trkpt lat="47.09831" lon="-1.8176">
        <ele>68</ele>
        <time>2021-07-25T09:47:11.000Z</time>
      </trkpt>
      <trkpt lat="47.09839" lon="-1.81738">
        <ele>67</ele>
        <time>2021-07-25T09:47:13.000Z</time>
      </trkpt>
      <trkpt lat="47.09849" lon="-1.81717">
        <ele>67</ele>
        <time>2021-07-25T09:47:15.000Z</time>
      </trkpt>
      <trkpt lat="47.09857" lon="-1.81696">
        <ele>67</ele>
        <time>2021-07-25T09:47:17.000Z</time>
      </trkpt>
      <trkpt lat="47.09866" lon="-1.81676">
        <ele>67</ele>
        <time>2021-07-25T09:47:19.000Z</time>
      </trkpt>
      <trkpt lat="47.09874" lon="-1.81654">
        <ele>67</ele>
        <time>2021-07-25T09:47:21.000Z</time>
      </trkpt>
      <trkpt lat="47.09882" lon="-1.81632">
        <ele>67</ele>
        <time>2021-07-25T09:47:23.000Z</time>
      </trkpt>
      <trkpt lat="47.09891" lon="-1.8161">
        <ele>67</ele>
        <time>2021-07-25T09:47:25.000Z</time>
      </trkpt>
      <trkpt lat="47.09899" lon="-1.81589">
        <ele>67</ele>
        <time>2021-07-25T09:47:27.000Z</time>
      </trkpt>
      <trkpt lat="47.09907" lon="-1.81567">
        <ele>67</ele>
        <time>2021-07-25T09:47:29.000Z</time>
      </trkpt>
      <trkpt lat="47.09916" lon="-1.81545">
        <ele>67</ele>
        <time>2021-07-25T09:47:31.000Z</time>
      </trkpt>
      <trkpt lat="47.09926" lon="-1.81524">
        <ele>66</ele>
        <time>2021-07-25T09:47:33.000Z</time>
      </trkpt>
      <trkpt lat="47.09937" lon="-1.81504">
        <ele>66</ele>
        <time>2021-07-25T09:47:35.000Z</time>
      </trkpt>
      <trkpt lat="47.0995" lon="-1.81486">
        <ele>65</ele>
        <time>2021-07-25T09:47:37.000Z</time>
      </trkpt>
      <trkpt lat="47.09962" lon="-1.81468">
        <ele>65</ele>
        <time>2021-07-25T09:47:39.000Z</time>
      </trkpt>
      <trkpt lat="47.09975" lon="-1.8145">
        <ele>65</ele>
        <time>2021-07-25T09:47:41.000Z</time>
      </trkpt>
      <trkpt lat="47.09988" lon="-1.81431">
        <ele>64</ele>
        <time>2021-07-25T09:47:43.000Z</time>
      </trkpt>
      <trkpt lat="47.09994" lon="-1.81422">
        <ele>64</ele>
        <time>2021-07-25T09:47:44.000Z</time>
      </trkpt>
      <trkpt lat="47.10007" lon="-1.81405">
        <ele>64</ele>
        <time>2021-07-25T09:47:46.000Z</time>
      </trkpt>
      <trkpt lat="47.1002" lon="-1.81388">
        <ele>64</ele>
        <time>2021-07-25T09:47:48.000Z</time>
      </trkpt>
      <trkpt lat="47.10032" lon="-1.81372">
        <ele>63</ele>
        <time>2021-07-25T09:47:50.000Z</time>
      </trkpt>
      <trkpt lat="47.10044" lon="-1.81356">
        <ele>63</ele>
        <time>2021-07-25T09:47:52.000Z</time>
      </trkpt>
      <trkpt lat="47.10055" lon="-1.8134">
        <ele>63</ele>
        <time>2021-07-25T09:47:54.000Z</time>
      </trkpt>
      <trkpt lat="47.10065" lon="-1.81326">
        <ele>63</ele>
        <time>2021-07-25T09:47:56.000Z</time>
      </trkpt>
      <trkpt lat="47.10074" lon="-1.81314">
        <ele>63</ele>
        <time>2021-07-25T09:47:58.000Z</time>
      </trkpt>
      <trkpt lat="47.10084" lon="-1.81302">
        <ele>64</ele>
        <time>2021-07-25T09:48:00.000Z</time>
      </trkpt>
      <trkpt lat="47.10093" lon="-1.81289">
        <ele>63</ele>
        <time>2021-07-25T09:48:02.000Z</time>
      </trkpt>
      <trkpt lat="47.10104" lon="-1.81276">
        <ele>63</ele>
        <time>2021-07-25T09:48:04.000Z</time>
      </trkpt>
      <trkpt lat="47.10116" lon="-1.81263">
        <ele>63</ele>
        <time>2021-07-25T09:48:06.000Z</time>
      </trkpt>
      <trkpt lat="47.10131" lon="-1.81252">
        <ele>63</ele>
        <time>2021-07-25T09:48:08.000Z</time>
      </trkpt>
      <trkpt lat="47.10145" lon="-1.81242">
        <ele>63</ele>
        <time>2021-07-25T09:48:10.000Z</time>
      </trkpt>
      <trkpt lat="47.10159" lon="-1.81231">
        <ele>63</ele>
        <time>2021-07-25T09:48:12.000Z</time>
      </trkpt>
      <trkpt lat="47.10174" lon="-1.81219">
        <ele>64</ele>
        <time>2021-07-25T09:48:14.000Z</time>
      </trkpt>
      <trkpt lat="47.10187" lon="-1.81208">
        <ele>64</ele>
        <time>2021-07-25T09:48:16.000Z</time>
      </trkpt>
      <trkpt lat="47.10201" lon="-1.81196">
        <ele>65</ele>
        <time>2021-07-25T09:48:18.000Z</time>
      </trkpt>
      <trkpt lat="47.10215" lon="-1.81182">
        <ele>65</ele>
        <time>2021-07-25T09:48:20.000Z</time>
      </trkpt>
      <trkpt lat="47.10228" lon="-1.81169">
        <ele>65</ele>
        <time>2021-07-25T09:48:22.000Z</time>
      </trkpt>
      <trkpt lat="47.10242" lon="-1.81156">
        <ele>65</ele>
        <time>2021-07-25T09:48:24.000Z</time>
      </trkpt>
      <trkpt lat="47.10255" lon="-1.81145">
        <ele>65</ele>
        <time>2021-07-25T09:48:26.000Z</time>
      </trkpt>
      <trkpt lat="47.10267" lon="-1.81133">
        <ele>65</ele>
        <time>2021-07-25T09:48:28.000Z</time>
      </trkpt>
      <trkpt lat="47.10279" lon="-1.81123">
        <ele>66</ele>
        <time>2021-07-25T09:48:30.000Z</time>
      </trkpt>
      <trkpt lat="47.10291" lon="-1.81112">
        <ele>66</ele>
        <time>2021-07-25T09:48:32.000Z</time>
      </trkpt>
      <trkpt lat="47.10302" lon="-1.81102">
        <ele>66</ele>
        <time>2021-07-25T09:48:34.000Z</time>
      </trkpt>
      <trkpt lat="47.10312" lon="-1.81092">
        <ele>66</ele>
        <time>2021-07-25T09:48:36.000Z</time>
      </trkpt>
      <trkpt lat="47.10321" lon="-1.81083">
        <ele>66</ele>
        <time>2021-07-25T09:48:38.000Z</time>
      </trkpt>
      <trkpt lat="47.10332" lon="-1.81073">
        <ele>67</ele>
        <time>2021-07-25T09:48:41.000Z</time>
      </trkpt>
      <trkpt lat="47.10342" lon="-1.81063">
        <ele>67</ele>
        <time>2021-07-25T09:48:44.000Z</time>
      </trkpt>
      <trkpt lat="47.10352" lon="-1.81053">
        <ele>67</ele>
        <time>2021-07-25T09:48:47.000Z</time>
      </trkpt>
      <trkpt lat="47.10358" lon="-1.81038">
        <ele>67</ele>
        <time>2021-07-25T09:48:49.000Z</time>
      </trkpt>
      <trkpt lat="47.10364" lon="-1.81022">
        <ele>68</ele>
        <time>2021-07-25T09:48:51.000Z</time>
      </trkpt>
      <trkpt lat="47.10369" lon="-1.81003">
        <ele>67</ele>
        <time>2021-07-25T09:48:53.000Z</time>
      </trkpt>
      <trkpt lat="47.10371" lon="-1.80982">
        <ele>67</ele>
        <time>2021-07-25T09:48:55.000Z</time>
      </trkpt>
      <trkpt lat="47.10369" lon="-1.80961">
        <ele>66</ele>
        <time>2021-07-25T09:48:57.000Z</time>
      </trkpt>
      <trkpt lat="47.10364" lon="-1.8094">
        <ele>66</ele>
        <time>2021-07-25T09:48:59.000Z</time>
      </trkpt>
      <trkpt lat="47.10359" lon="-1.80918">
        <ele>65</ele>
        <time>2021-07-25T09:49:01.000Z</time>
      </trkpt>
      <trkpt lat="47.10355" lon="-1.80896">
        <ele>64</ele>
        <time>2021-07-25T09:49:03.000Z</time>
      </trkpt>
      <trkpt lat="47.10355" lon="-1.80874">
        <ele>64</ele>
        <time>2021-07-25T09:49:05.000Z</time>
      </trkpt>
      <trkpt lat="47.10354" lon="-1.80851">
        <ele>63</ele>
        <time>2021-07-25T09:49:07.000Z</time>
      </trkpt>
      <trkpt lat="47.10354" lon="-1.80829">
        <ele>64</ele>
        <time>2021-07-25T09:49:09.000Z</time>
      </trkpt>
      <trkpt lat="47.10353" lon="-1.80808">
        <ele>65</ele>
        <time>2021-07-25T09:49:11.000Z</time>
      </trkpt>
      <trkpt lat="47.10353" lon="-1.80786">
        <ele>66</ele>
        <time>2021-07-25T09:49:13.000Z</time>
      </trkpt>
      <trkpt lat="47.10353" lon="-1.80766">
        <ele>66</ele>
        <time>2021-07-25T09:49:15.000Z</time>
      </trkpt>
      <trkpt lat="47.10353" lon="-1.80745">
        <ele>66</ele>
        <time>2021-07-25T09:49:17.000Z</time>
      </trkpt>
      <trkpt lat="47.10352" lon="-1.80725">
        <ele>67</ele>
        <time>2021-07-25T09:49:19.000Z</time>
      </trkpt>
      <trkpt lat="47.10352" lon="-1.80706">
        <ele>68</ele>
        <time>2021-07-25T09:49:21.000Z</time>
      </trkpt>
      <trkpt lat="47.10351" lon="-1.80686">
        <ele>68</ele>
        <time>2021-07-25T09:49:23.000Z</time>
      </trkpt>
      <trkpt lat="47.10351" lon="-1.80666">
        <ele>68</ele>
        <time>2021-07-25T09:49:25.000Z</time>
      </trkpt>
      <trkpt lat="47.10351" lon="-1.80647">
        <ele>68</ele>
        <time>2021-07-25T09:49:27.000Z</time>
      </trkpt>
      <trkpt lat="47.1035" lon="-1.80626">
        <ele>68</ele>
        <time>2021-07-25T09:49:29.000Z</time>
      </trkpt>
      <trkpt lat="47.1035" lon="-1.80607">
        <ele>69</ele>
        <time>2021-07-25T09:49:31.000Z</time>
      </trkpt>
      <trkpt lat="47.10349" lon="-1.80588">
        <ele>69</ele>
        <time>2021-07-25T09:49:33.000Z</time>
      </trkpt>
      <trkpt lat="47.10349" lon="-1.80569">
        <ele>70</ele>
        <time>2021-07-25T09:49:35.000Z</time>
      </trkpt>
      <trkpt lat="47.10348" lon="-1.80551">
        <ele>70</ele>
        <time>2021-07-25T09:49:37.000Z</time>
      </trkpt>
      <trkpt lat="47.10345" lon="-1.80533">
        <ele>70</ele>
        <time>2021-07-25T09:49:39.000Z</time>
      </trkpt>
      <trkpt lat="47.10343" lon="-1.80514">
        <ele>70</ele>
        <time>2021-07-25T09:49:41.000Z</time>
      </trkpt>
      <trkpt lat="47.10341" lon="-1.80496">
        <ele>70</ele>
        <time>2021-07-25T09:49:43.000Z</time>
      </trkpt>
      <trkpt lat="47.10339" lon="-1.80477">
        <ele>70</ele>
        <time>2021-07-25T09:49:45.000Z</time>
      </trkpt>
      <trkpt lat="47.10337" lon="-1.80459">
        <ele>70</ele>
        <time>2021-07-25T09:49:47.000Z</time>
      </trkpt>
      <trkpt lat="47.10335" lon="-1.80441">
        <ele>71</ele>
        <time>2021-07-25T09:49:49.000Z</time>
      </trkpt>
      <trkpt lat="47.10332" lon="-1.80422">
        <ele>71</ele>
        <time>2021-07-25T09:49:51.000Z</time>
      </trkpt>
      <trkpt lat="47.1033" lon="-1.80404">
        <ele>71</ele>
        <time>2021-07-25T09:49:53.000Z</time>
      </trkpt>
      <trkpt lat="47.10328" lon="-1.80387">
        <ele>71</ele>
        <time>2021-07-25T09:49:55.000Z</time>
      </trkpt>
      <trkpt lat="47.10325" lon="-1.80371">
        <ele>72</ele>
        <time>2021-07-25T09:49:57.000Z</time>
      </trkpt>
      <trkpt lat="47.10321" lon="-1.80357">
        <ele>71</ele>
        <time>2021-07-25T09:49:59.000Z</time>
      </trkpt>
      <trkpt lat="47.10319" lon="-1.80341">
        <ele>72</ele>
        <time>2021-07-25T09:50:01.000Z</time>
      </trkpt>
      <trkpt lat="47.10321" lon="-1.80323">
        <ele>72</ele>
        <time>2021-07-25T09:50:03.000Z</time>
      </trkpt>
      <trkpt lat="47.10321" lon="-1.80303">
        <ele>72</ele>
        <time>2021-07-25T09:50:05.000Z</time>
      </trkpt>
      <trkpt lat="47.1032" lon="-1.80283">
        <ele>72</ele>
        <time>2021-07-25T09:50:07.000Z</time>
      </trkpt>
      <trkpt lat="47.1032" lon="-1.80264">
        <ele>72</ele>
        <time>2021-07-25T09:50:09.000Z</time>
      </trkpt>
      <trkpt lat="47.1032" lon="-1.80245">
        <ele>72</ele>
        <time>2021-07-25T09:50:11.000Z</time>
      </trkpt>
      <trkpt lat="47.10319" lon="-1.80225">
        <ele>72</ele>
        <time>2021-07-25T09:50:13.000Z</time>
      </trkpt>
      <trkpt lat="47.10319" lon="-1.80206">
        <ele>72</ele>
        <time>2021-07-25T09:50:15.000Z</time>
      </trkpt>
      <trkpt lat="47.10318" lon="-1.80188">
        <ele>72</ele>
        <time>2021-07-25T09:50:17.000Z</time>
      </trkpt>
      <trkpt lat="47.10317" lon="-1.80168">
        <ele>72</ele>
        <time>2021-07-25T09:50:19.000Z</time>
      </trkpt>
      <trkpt lat="47.10315" lon="-1.80149">
        <ele>72</ele>
        <time>2021-07-25T09:50:21.000Z</time>
      </trkpt>
      <trkpt lat="47.10314" lon="-1.80131">
        <ele>72</ele>
        <time>2021-07-25T09:50:23.000Z</time>
      </trkpt>
      <trkpt lat="47.10311" lon="-1.80112">
        <ele>72</ele>
        <time>2021-07-25T09:50:25.000Z</time>
      </trkpt>
      <trkpt lat="47.1031" lon="-1.80094">
        <ele>72</ele>
        <time>2021-07-25T09:50:27.000Z</time>
      </trkpt>
      <trkpt lat="47.10309" lon="-1.80073">
        <ele>72</ele>
        <time>2021-07-25T09:50:29.000Z</time>
      </trkpt>
      <trkpt lat="47.10309" lon="-1.80053">
        <ele>71</ele>
        <time>2021-07-25T09:50:31.000Z</time>
      </trkpt>
      <trkpt lat="47.10309" lon="-1.80032">
        <ele>71</ele>
        <time>2021-07-25T09:50:33.000Z</time>
      </trkpt>
      <trkpt lat="47.10311" lon="-1.8001">
        <ele>71</ele>
        <time>2021-07-25T09:50:35.000Z</time>
      </trkpt>
      <trkpt lat="47.10312" lon="-1.79989">
        <ele>71</ele>
        <time>2021-07-25T09:50:37.000Z</time>
      </trkpt>
      <trkpt lat="47.10315" lon="-1.79968">
        <ele>71</ele>
        <time>2021-07-25T09:50:39.000Z</time>
      </trkpt>
      <trkpt lat="47.10318" lon="-1.79948">
        <ele>70</ele>
        <time>2021-07-25T09:50:41.000Z</time>
      </trkpt>
      <trkpt lat="47.10321" lon="-1.79927">
        <ele>70</ele>
        <time>2021-07-25T09:50:43.000Z</time>
      </trkpt>
      <trkpt lat="47.10325" lon="-1.79907">
        <ele>70</ele>
        <time>2021-07-25T09:50:45.000Z</time>
      </trkpt>
      <trkpt lat="47.10329" lon="-1.79887">
        <ele>70</ele>
        <time>2021-07-25T09:50:47.000Z</time>
      </trkpt>
      <trkpt lat="47.10334" lon="-1.79867">
        <ele>70</ele>
        <time>2021-07-25T09:50:49.000Z</time>
      </trkpt>
      <trkpt lat="47.10338" lon="-1.79846">
        <ele>70</ele>
        <time>2021-07-25T09:50:51.000Z</time>
      </trkpt>
      <trkpt lat="47.10342" lon="-1.79826">
        <ele>69</ele>
        <time>2021-07-25T09:50:53.000Z</time>
      </trkpt>
      <trkpt lat="47.10346" lon="-1.79806">
        <ele>69</ele>
        <time>2021-07-25T09:50:55.000Z</time>
      </trkpt>
      <trkpt lat="47.1035" lon="-1.79786">
        <ele>69</ele>
        <time>2021-07-25T09:50:57.000Z</time>
      </trkpt>
      <trkpt lat="47.10354" lon="-1.79765">
        <ele>69</ele>
        <time>2021-07-25T09:50:59.000Z</time>
      </trkpt>
      <trkpt lat="47.10358" lon="-1.79745">
        <ele>69</ele>
        <time>2021-07-25T09:51:01.000Z</time>
      </trkpt>
      <trkpt lat="47.10361" lon="-1.79724">
        <ele>68</ele>
        <time>2021-07-25T09:51:03.000Z</time>
      </trkpt>
      <trkpt lat="47.10365" lon="-1.79703">
        <ele>68</ele>
        <time>2021-07-25T09:51:05.000Z</time>
      </trkpt>
      <trkpt lat="47.10368" lon="-1.79681">
        <ele>68</ele>
        <time>2021-07-25T09:51:07.000Z</time>
      </trkpt>
      <trkpt lat="47.10371" lon="-1.7966">
        <ele>68</ele>
        <time>2021-07-25T09:51:09.000Z</time>
      </trkpt>
      <trkpt lat="47.10373" lon="-1.79638">
        <ele>68</ele>
        <time>2021-07-25T09:51:11.000Z</time>
      </trkpt>
      <trkpt lat="47.10374" lon="-1.79616">
        <ele>68</ele>
        <time>2021-07-25T09:51:13.000Z</time>
      </trkpt>
      <trkpt lat="47.10376" lon="-1.79595">
        <ele>68</ele>
        <time>2021-07-25T09:51:15.000Z</time>
      </trkpt>
      <trkpt lat="47.10377" lon="-1.79573">
        <ele>68</ele>
        <time>2021-07-25T09:51:17.000Z</time>
      </trkpt>
      <trkpt lat="47.10379" lon="-1.79551">
        <ele>68</ele>
        <time>2021-07-25T09:51:19.000Z</time>
      </trkpt>
      <trkpt lat="47.1038" lon="-1.7953">
        <ele>68</ele>
        <time>2021-07-25T09:51:21.000Z</time>
      </trkpt>
      <trkpt lat="47.10383" lon="-1.79509">
        <ele>68</ele>
        <time>2021-07-25T09:51:23.000Z</time>
      </trkpt>
      <trkpt lat="47.10386" lon="-1.79488">
        <ele>67</ele>
        <time>2021-07-25T09:51:25.000Z</time>
      </trkpt>
      <trkpt lat="47.10389" lon="-1.79467">
        <ele>67</ele>
        <time>2021-07-25T09:51:27.000Z</time>
      </trkpt>
      <trkpt lat="47.10394" lon="-1.79447">
        <ele>66</ele>
        <time>2021-07-25T09:51:29.000Z</time>
      </trkpt>
      <trkpt lat="47.10399" lon="-1.79428">
        <ele>67</ele>
        <time>2021-07-25T09:51:31.000Z</time>
      </trkpt>
      <trkpt lat="47.10406" lon="-1.79408">
        <ele>67</ele>
        <time>2021-07-25T09:51:33.000Z</time>
      </trkpt>
      <trkpt lat="47.10412" lon="-1.79389">
        <ele>66</ele>
        <time>2021-07-25T09:51:35.000Z</time>
      </trkpt>
      <trkpt lat="47.1042" lon="-1.79369">
        <ele>66</ele>
        <time>2021-07-25T09:51:37.000Z</time>
      </trkpt>
      <trkpt lat="47.10428" lon="-1.7935">
        <ele>66</ele>
        <time>2021-07-25T09:51:39.000Z</time>
      </trkpt>
      <trkpt lat="47.10435" lon="-1.7933">
        <ele>65</ele>
        <time>2021-07-25T09:51:41.000Z</time>
      </trkpt>
      <trkpt lat="47.10442" lon="-1.7931">
        <ele>65</ele>
        <time>2021-07-25T09:51:43.000Z</time>
      </trkpt>
      <trkpt lat="47.10445" lon="-1.79287">
        <ele>64</ele>
        <time>2021-07-25T09:51:45.000Z</time>
      </trkpt>
      <trkpt lat="47.10435" lon="-1.79268">
        <ele>64</ele>
        <time>2021-07-25T09:51:47.000Z</time>
      </trkpt>
      <trkpt lat="47.10423" lon="-1.79254">
        <ele>64</ele>
        <time>2021-07-25T09:51:49.000Z</time>
      </trkpt>
      <trkpt lat="47.10412" lon="-1.79241">
        <ele>65</ele>
        <time>2021-07-25T09:51:51.000Z</time>
      </trkpt>
      <trkpt lat="47.10401" lon="-1.79228">
        <ele>66</ele>
        <time>2021-07-25T09:51:53.000Z</time>
      </trkpt>
      <trkpt lat="47.10391" lon="-1.79214">
        <ele>66</ele>
        <time>2021-07-25T09:51:55.000Z</time>
      </trkpt>
      <trkpt lat="47.10381" lon="-1.79201">
        <ele>67</ele>
        <time>2021-07-25T09:51:57.000Z</time>
      </trkpt>
      <trkpt lat="47.10371" lon="-1.79188">
        <ele>67</ele>
        <time>2021-07-25T09:51:59.000Z</time>
      </trkpt>
      <trkpt lat="47.10361" lon="-1.79175">
        <ele>67</ele>
        <time>2021-07-25T09:52:01.000Z</time>
      </trkpt>
      <trkpt lat="47.10352" lon="-1.79163">
        <ele>67</ele>
        <time>2021-07-25T09:52:03.000Z</time>
      </trkpt>
      <trkpt lat="47.10344" lon="-1.79149">
        <ele>67</ele>
        <time>2021-07-25T09:52:05.000Z</time>
      </trkpt>
      <trkpt lat="47.10338" lon="-1.79139">
        <ele>67</ele>
        <time>2021-07-25T09:52:07.000Z</time>
      </trkpt>
      <trkpt lat="47.10334" lon="-1.79126">
        <ele>67</ele>
        <time>2021-07-25T09:52:14.000Z</time>
      </trkpt>
      <trkpt lat="47.10334" lon="-1.79112">
        <ele>67</ele>
        <time>2021-07-25T09:52:16.000Z</time>
      </trkpt>
      <trkpt lat="47.10328" lon="-1.79098">
        <ele>68</ele>
        <time>2021-07-25T09:52:18.000Z</time>
      </trkpt>
      <trkpt lat="47.10318" lon="-1.79086">
        <ele>68</ele>
        <time>2021-07-25T09:52:20.000Z</time>
      </trkpt>
      <trkpt lat="47.10309" lon="-1.79073">
        <ele>68</ele>
        <time>2021-07-25T09:52:22.000Z</time>
      </trkpt>
      <trkpt lat="47.10299" lon="-1.79061">
        <ele>68</ele>
        <time>2021-07-25T09:52:24.000Z</time>
      </trkpt>
      <trkpt lat="47.10289" lon="-1.79049">
        <ele>69</ele>
        <time>2021-07-25T09:52:26.000Z</time>
      </trkpt>
      <trkpt lat="47.10278" lon="-1.79036">
        <ele>71</ele>
        <time>2021-07-25T09:52:28.000Z</time>
      </trkpt>
      <trkpt lat="47.10269" lon="-1.79024">
        <ele>71</ele>
        <time>2021-07-25T09:52:30.000Z</time>
      </trkpt>
      <trkpt lat="47.10259" lon="-1.79011">
        <ele>71</ele>
        <time>2021-07-25T09:52:32.000Z</time>
      </trkpt>
      <trkpt lat="47.1025" lon="-1.78997">
        <ele>72</ele>
        <time>2021-07-25T09:52:34.000Z</time>
      </trkpt>
      <trkpt lat="47.10243" lon="-1.78979">
        <ele>72</ele>
        <time>2021-07-25T09:52:36.000Z</time>
      </trkpt>
      <trkpt lat="47.10238" lon="-1.7896">
        <ele>71</ele>
        <time>2021-07-25T09:52:38.000Z</time>
      </trkpt>
      <trkpt lat="47.10236" lon="-1.7894">
        <ele>71</ele>
        <time>2021-07-25T09:52:40.000Z</time>
      </trkpt>
      <trkpt lat="47.10237" lon="-1.78922">
        <ele>71</ele>
        <time>2021-07-25T09:52:42.000Z</time>
      </trkpt>
      <trkpt lat="47.10241" lon="-1.78904">
        <ele>71</ele>
        <time>2021-07-25T09:52:44.000Z</time>
      </trkpt>
      <trkpt lat="47.10248" lon="-1.78886">
        <ele>71</ele>
        <time>2021-07-25T09:52:46.000Z</time>
      </trkpt>
      <trkpt lat="47.10255" lon="-1.7887">
        <ele>71</ele>
        <time>2021-07-25T09:52:48.000Z</time>
      </trkpt>
      <trkpt lat="47.10262" lon="-1.78852">
        <ele>70</ele>
        <time>2021-07-25T09:52:50.000Z</time>
      </trkpt>
      <trkpt lat="47.10268" lon="-1.78836">
        <ele>70</ele>
        <time>2021-07-25T09:52:52.000Z</time>
      </trkpt>
      <trkpt lat="47.10275" lon="-1.78819">
        <ele>69</ele>
        <time>2021-07-25T09:52:54.000Z</time>
      </trkpt>
      <trkpt lat="47.10282" lon="-1.78803">
        <ele>69</ele>
        <time>2021-07-25T09:52:56.000Z</time>
      </trkpt>
      <trkpt lat="47.10289" lon="-1.78784">
        <ele>69</ele>
        <time>2021-07-25T09:52:58.000Z</time>
      </trkpt>
      <trkpt lat="47.10293" lon="-1.78763">
        <ele>68</ele>
        <time>2021-07-25T09:53:00.000Z</time>
      </trkpt>
      <trkpt lat="47.10297" lon="-1.78741">
        <ele>67</ele>
        <time>2021-07-25T09:53:02.000Z</time>
      </trkpt>
      <trkpt lat="47.103" lon="-1.78716">
        <ele>65</ele>
        <time>2021-07-25T09:53:04.000Z</time>
      </trkpt>
      <trkpt lat="47.103" lon="-1.78703">
        <ele>64</ele>
        <time>2021-07-25T09:53:05.000Z</time>
      </trkpt>
      <trkpt lat="47.10301" lon="-1.78689">
        <ele>63</ele>
        <time>2021-07-25T09:53:06.000Z</time>
      </trkpt>
      <trkpt lat="47.10302" lon="-1.78676">
        <ele>62</ele>
        <time>2021-07-25T09:53:07.000Z</time>
      </trkpt>
      <trkpt lat="47.10303" lon="-1.78662">
        <ele>61</ele>
        <time>2021-07-25T09:53:08.000Z</time>
      </trkpt>
      <trkpt lat="47.10304" lon="-1.78648">
        <ele>60</ele>
        <time>2021-07-25T09:53:09.000Z</time>
      </trkpt>
      <trkpt lat="47.10304" lon="-1.78634">
        <ele>59</ele>
        <time>2021-07-25T09:53:10.000Z</time>
      </trkpt>
      <trkpt lat="47.10304" lon="-1.78621">
        <ele>59</ele>
        <time>2021-07-25T09:53:11.000Z</time>
      </trkpt>
      <trkpt lat="47.10304" lon="-1.78608">
        <ele>58</ele>
        <time>2021-07-25T09:53:12.000Z</time>
      </trkpt>
      <trkpt lat="47.10306" lon="-1.78581">
        <ele>58</ele>
        <time>2021-07-25T09:53:14.000Z</time>
      </trkpt>
      <trkpt lat="47.10307" lon="-1.78556">
        <ele>57</ele>
        <time>2021-07-25T09:53:16.000Z</time>
      </trkpt>
      <trkpt lat="47.10308" lon="-1.78533">
        <ele>57</ele>
        <time>2021-07-25T09:53:18.000Z</time>
      </trkpt>
      <trkpt lat="47.10309" lon="-1.78509">
        <ele>57</ele>
        <time>2021-07-25T09:53:20.000Z</time>
      </trkpt>
      <trkpt lat="47.10311" lon="-1.78487">
        <ele>57</ele>
        <time>2021-07-25T09:53:22.000Z</time>
      </trkpt>
      <trkpt lat="47.10314" lon="-1.78465">
        <ele>57</ele>
        <time>2021-07-25T09:53:24.000Z</time>
      </trkpt>
      <trkpt lat="47.10317" lon="-1.78445">
        <ele>58</ele>
        <time>2021-07-25T09:53:26.000Z</time>
      </trkpt>
      <trkpt lat="47.1032" lon="-1.78426">
        <ele>59</ele>
        <time>2021-07-25T09:53:28.000Z</time>
      </trkpt>
      <trkpt lat="47.10323" lon="-1.78408">
        <ele>60</ele>
        <time>2021-07-25T09:53:30.000Z</time>
      </trkpt>
      <trkpt lat="47.10326" lon="-1.7839">
        <ele>60</ele>
        <time>2021-07-25T09:53:32.000Z</time>
      </trkpt>
      <trkpt lat="47.10329" lon="-1.78372">
        <ele>61</ele>
        <time>2021-07-25T09:53:34.000Z</time>
      </trkpt>
      <trkpt lat="47.10331" lon="-1.78354">
        <ele>62</ele>
        <time>2021-07-25T09:53:36.000Z</time>
      </trkpt>
      <trkpt lat="47.10332" lon="-1.78338">
        <ele>63</ele>
        <time>2021-07-25T09:53:38.000Z</time>
      </trkpt>
      <trkpt lat="47.10333" lon="-1.78319">
        <ele>64</ele>
        <time>2021-07-25T09:53:40.000Z</time>
      </trkpt>
      <trkpt lat="47.10334" lon="-1.78301">
        <ele>65</ele>
        <time>2021-07-25T09:53:42.000Z</time>
      </trkpt>
      <trkpt lat="47.10333" lon="-1.78284">
        <ele>66</ele>
        <time>2021-07-25T09:53:44.000Z</time>
      </trkpt>
      <trkpt lat="47.10333" lon="-1.78266">
        <ele>68</ele>
        <time>2021-07-25T09:53:46.000Z</time>
      </trkpt>
      <trkpt lat="47.10332" lon="-1.78247">
        <ele>68</ele>
        <time>2021-07-25T09:53:48.000Z</time>
      </trkpt>
      <trkpt lat="47.10332" lon="-1.78229">
        <ele>69</ele>
        <time>2021-07-25T09:53:50.000Z</time>
      </trkpt>
      <trkpt lat="47.10334" lon="-1.7821">
        <ele>69</ele>
        <time>2021-07-25T09:53:52.000Z</time>
      </trkpt>
      <trkpt lat="47.10336" lon="-1.78192">
        <ele>69</ele>
        <time>2021-07-25T09:53:54.000Z</time>
      </trkpt>
      <trkpt lat="47.10337" lon="-1.78174">
        <ele>69</ele>
        <time>2021-07-25T09:53:56.000Z</time>
      </trkpt>
      <trkpt lat="47.10339" lon="-1.78158">
        <ele>69</ele>
        <time>2021-07-25T09:53:58.000Z</time>
      </trkpt>
      <trkpt lat="47.10342" lon="-1.78141">
        <ele>69</ele>
        <time>2021-07-25T09:54:00.000Z</time>
      </trkpt>
      <trkpt lat="47.10343" lon="-1.78125">
        <ele>69</ele>
        <time>2021-07-25T09:54:02.000Z</time>
      </trkpt>
      <trkpt lat="47.10344" lon="-1.78107">
        <ele>68</ele>
        <time>2021-07-25T09:54:04.000Z</time>
      </trkpt>
      <trkpt lat="47.10345" lon="-1.7809">
        <ele>68</ele>
        <time>2021-07-25T09:54:06.000Z</time>
      </trkpt>
      <trkpt lat="47.10347" lon="-1.78072">
        <ele>67</ele>
        <time>2021-07-25T09:54:08.000Z</time>
      </trkpt>
      <trkpt lat="47.1035" lon="-1.78053">
        <ele>67</ele>
        <time>2021-07-25T09:54:10.000Z</time>
      </trkpt>
      <trkpt lat="47.10353" lon="-1.78034">
        <ele>67</ele>
        <time>2021-07-25T09:54:12.000Z</time>
      </trkpt>
      <trkpt lat="47.10357" lon="-1.78013">
        <ele>66</ele>
        <time>2021-07-25T09:54:14.000Z</time>
      </trkpt>
      <trkpt lat="47.10363" lon="-1.77992">
        <ele>65</ele>
        <time>2021-07-25T09:54:16.000Z</time>
      </trkpt>
      <trkpt lat="47.10369" lon="-1.77971">
        <ele>65</ele>
        <time>2021-07-25T09:54:18.000Z</time>
      </trkpt>
      <trkpt lat="47.10376" lon="-1.77949">
        <ele>64</ele>
        <time>2021-07-25T09:54:20.000Z</time>
      </trkpt>
      <trkpt lat="47.10382" lon="-1.77928">
        <ele>63</ele>
        <time>2021-07-25T09:54:22.000Z</time>
      </trkpt>
      <trkpt lat="47.10388" lon="-1.77905">
        <ele>63</ele>
        <time>2021-07-25T09:54:24.000Z</time>
      </trkpt>
      <trkpt lat="47.10392" lon="-1.77881">
        <ele>62</ele>
        <time>2021-07-25T09:54:26.000Z</time>
      </trkpt>
      <trkpt lat="47.10395" lon="-1.77857">
        <ele>61</ele>
        <time>2021-07-25T09:54:28.000Z</time>
      </trkpt>
      <trkpt lat="47.10397" lon="-1.77834">
        <ele>60</ele>
        <time>2021-07-25T09:54:30.000Z</time>
      </trkpt>
      <trkpt lat="47.10398" lon="-1.7781">
        <ele>60</ele>
        <time>2021-07-25T09:54:32.000Z</time>
      </trkpt>
      <trkpt lat="47.10397" lon="-1.77786">
        <ele>60</ele>
        <time>2021-07-25T09:54:34.000Z</time>
      </trkpt>
      <trkpt lat="47.10397" lon="-1.77761">
        <ele>59</ele>
        <time>2021-07-25T09:54:36.000Z</time>
      </trkpt>
      <trkpt lat="47.10397" lon="-1.77737">
        <ele>59</ele>
        <time>2021-07-25T09:54:38.000Z</time>
      </trkpt>
      <trkpt lat="47.10396" lon="-1.77712">
        <ele>59</ele>
        <time>2021-07-25T09:54:40.000Z</time>
      </trkpt>
      <trkpt lat="47.10395" lon="-1.77689">
        <ele>58</ele>
        <time>2021-07-25T09:54:42.000Z</time>
      </trkpt>
      <trkpt lat="47.10394" lon="-1.77665">
        <ele>58</ele>
        <time>2021-07-25T09:54:44.000Z</time>
      </trkpt>
      <trkpt lat="47.10393" lon="-1.77642">
        <ele>58</ele>
        <time>2021-07-25T09:54:46.000Z</time>
      </trkpt>
      <trkpt lat="47.10391" lon="-1.77619">
        <ele>58</ele>
        <time>2021-07-25T09:54:48.000Z</time>
      </trkpt>
      <trkpt lat="47.10389" lon="-1.77596">
        <ele>58</ele>
        <time>2021-07-25T09:54:50.000Z</time>
      </trkpt>
      <trkpt lat="47.10387" lon="-1.77575">
        <ele>58</ele>
        <time>2021-07-25T09:54:52.000Z</time>
      </trkpt>
      <trkpt lat="47.10385" lon="-1.77554">
        <ele>59</ele>
        <time>2021-07-25T09:54:54.000Z</time>
      </trkpt>
      <trkpt lat="47.10383" lon="-1.77533">
        <ele>59</ele>
        <time>2021-07-25T09:54:56.000Z</time>
      </trkpt>
      <trkpt lat="47.10382" lon="-1.77512">
        <ele>59</ele>
        <time>2021-07-25T09:54:58.000Z</time>
      </trkpt>
      <trkpt lat="47.1038" lon="-1.77492">
        <ele>60</ele>
        <time>2021-07-25T09:55:00.000Z</time>
      </trkpt>
      <trkpt lat="47.10379" lon="-1.77472">
        <ele>60</ele>
        <time>2021-07-25T09:55:02.000Z</time>
      </trkpt>
      <trkpt lat="47.10379" lon="-1.77453">
        <ele>61</ele>
        <time>2021-07-25T09:55:04.000Z</time>
      </trkpt>
      <trkpt lat="47.10384" lon="-1.77439">
        <ele>61</ele>
        <time>2021-07-25T09:55:06.000Z</time>
      </trkpt>
      <trkpt lat="47.10395" lon="-1.7743">
        <ele>61</ele>
        <time>2021-07-25T09:55:08.000Z</time>
      </trkpt>
      <trkpt lat="47.10406" lon="-1.77418">
        <ele>61</ele>
        <time>2021-07-25T09:55:10.000Z</time>
      </trkpt>
      <trkpt lat="47.10415" lon="-1.77402">
        <ele>60</ele>
        <time>2021-07-25T09:55:12.000Z</time>
      </trkpt>
      <trkpt lat="47.1042" lon="-1.77382">
        <ele>60</ele>
        <time>2021-07-25T09:55:14.000Z</time>
      </trkpt>
      <trkpt lat="47.10423" lon="-1.77362">
        <ele>60</ele>
        <time>2021-07-25T09:55:16.000Z</time>
      </trkpt>
      <trkpt lat="47.10426" lon="-1.77341">
        <ele>60</ele>
        <time>2021-07-25T09:55:18.000Z</time>
      </trkpt>
      <trkpt lat="47.10428" lon="-1.7732">
        <ele>60</ele>
        <time>2021-07-25T09:55:20.000Z</time>
      </trkpt>
      <trkpt lat="47.10432" lon="-1.77299">
        <ele>60</ele>
        <time>2021-07-25T09:55:22.000Z</time>
      </trkpt>
      <trkpt lat="47.10435" lon="-1.77278">
        <ele>60</ele>
        <time>2021-07-25T09:55:24.000Z</time>
      </trkpt>
      <trkpt lat="47.10438" lon="-1.77258">
        <ele>60</ele>
        <time>2021-07-25T09:55:26.000Z</time>
      </trkpt>
      <trkpt lat="47.10442" lon="-1.77237">
        <ele>60</ele>
        <time>2021-07-25T09:55:28.000Z</time>
      </trkpt>
      <trkpt lat="47.10446" lon="-1.77217">
        <ele>60</ele>
        <time>2021-07-25T09:55:30.000Z</time>
      </trkpt>
      <trkpt lat="47.10451" lon="-1.77197">
        <ele>59</ele>
        <time>2021-07-25T09:55:32.000Z</time>
      </trkpt>
      <trkpt lat="47.10457" lon="-1.77178">
        <ele>60</ele>
        <time>2021-07-25T09:55:34.000Z</time>
      </trkpt>
      <trkpt lat="47.10465" lon="-1.7716">
        <ele>60</ele>
        <time>2021-07-25T09:55:36.000Z</time>
      </trkpt>
      <trkpt lat="47.10473" lon="-1.77141">
        <ele>59</ele>
        <time>2021-07-25T09:55:38.000Z</time>
      </trkpt>
      <trkpt lat="47.10482" lon="-1.77124">
        <ele>59</ele>
        <time>2021-07-25T09:55:40.000Z</time>
      </trkpt>
      <trkpt lat="47.1049" lon="-1.77106">
        <ele>59</ele>
        <time>2021-07-25T09:55:42.000Z</time>
      </trkpt>
      <trkpt lat="47.10498" lon="-1.77088">
        <ele>59</ele>
        <time>2021-07-25T09:55:44.000Z</time>
      </trkpt>
      <trkpt lat="47.10506" lon="-1.77069">
        <ele>59</ele>
        <time>2021-07-25T09:55:46.000Z</time>
      </trkpt>
      <trkpt lat="47.10514" lon="-1.77051">
        <ele>59</ele>
        <time>2021-07-25T09:55:48.000Z</time>
      </trkpt>
      <trkpt lat="47.10522" lon="-1.77033">
        <ele>59</ele>
        <time>2021-07-25T09:55:50.000Z</time>
      </trkpt>
      <trkpt lat="47.10529" lon="-1.77016">
        <ele>59</ele>
        <time>2021-07-25T09:55:52.000Z</time>
      </trkpt>
      <trkpt lat="47.10537" lon="-1.76998">
        <ele>59</ele>
        <time>2021-07-25T09:55:54.000Z</time>
      </trkpt>
      <trkpt lat="47.10545" lon="-1.7698">
        <ele>59</ele>
        <time>2021-07-25T09:55:56.000Z</time>
      </trkpt>
      <trkpt lat="47.10554" lon="-1.76963">
        <ele>58</ele>
        <time>2021-07-25T09:55:58.000Z</time>
      </trkpt>
      <trkpt lat="47.10564" lon="-1.76947">
        <ele>58</ele>
        <time>2021-07-25T09:56:00.000Z</time>
      </trkpt>
      <trkpt lat="47.10574" lon="-1.76931">
        <ele>58</ele>
        <time>2021-07-25T09:56:02.000Z</time>
      </trkpt>
      <trkpt lat="47.10586" lon="-1.76917">
        <ele>58</ele>
        <time>2021-07-25T09:56:04.000Z</time>
      </trkpt>
      <trkpt lat="47.10598" lon="-1.76904">
        <ele>58</ele>
        <time>2021-07-25T09:56:06.000Z</time>
      </trkpt>
      <trkpt lat="47.1061" lon="-1.76893">
        <ele>59</ele>
        <time>2021-07-25T09:56:08.000Z</time>
      </trkpt>
      <trkpt lat="47.10622" lon="-1.76881">
        <ele>59</ele>
        <time>2021-07-25T09:56:10.000Z</time>
      </trkpt>
      <trkpt lat="47.10633" lon="-1.76868">
        <ele>59</ele>
        <time>2021-07-25T09:56:12.000Z</time>
      </trkpt>
      <trkpt lat="47.10643" lon="-1.76853">
        <ele>59</ele>
        <time>2021-07-25T09:56:14.000Z</time>
      </trkpt>
      <trkpt lat="47.1065" lon="-1.76835">
        <ele>59</ele>
        <time>2021-07-25T09:56:16.000Z</time>
      </trkpt>
      <trkpt lat="47.10658" lon="-1.76816">
        <ele>59</ele>
        <time>2021-07-25T09:56:18.000Z</time>
      </trkpt>
      <trkpt lat="47.10664" lon="-1.76797">
        <ele>59</ele>
        <time>2021-07-25T09:56:20.000Z</time>
      </trkpt>
      <trkpt lat="47.1067" lon="-1.76778">
        <ele>59</ele>
        <time>2021-07-25T09:56:22.000Z</time>
      </trkpt>
      <trkpt lat="47.10676" lon="-1.76759">
        <ele>60</ele>
        <time>2021-07-25T09:56:24.000Z</time>
      </trkpt>
      <trkpt lat="47.10682" lon="-1.76739">
        <ele>60</ele>
        <time>2021-07-25T09:56:26.000Z</time>
      </trkpt>
      <trkpt lat="47.10688" lon="-1.7672">
        <ele>60</ele>
        <time>2021-07-25T09:56:28.000Z</time>
      </trkpt>
      <trkpt lat="47.10694" lon="-1.76702">
        <ele>60</ele>
        <time>2021-07-25T09:56:30.000Z</time>
      </trkpt>
      <trkpt lat="47.10701" lon="-1.76683">
        <ele>60</ele>
        <time>2021-07-25T09:56:32.000Z</time>
      </trkpt>
      <trkpt lat="47.10708" lon="-1.76665">
        <ele>60</ele>
        <time>2021-07-25T09:56:34.000Z</time>
      </trkpt>
      <trkpt lat="47.10714" lon="-1.76647">
        <ele>60</ele>
        <time>2021-07-25T09:56:36.000Z</time>
      </trkpt>
      <trkpt lat="47.10722" lon="-1.7663">
        <ele>60</ele>
        <time>2021-07-25T09:56:38.000Z</time>
      </trkpt>
      <trkpt lat="47.10729" lon="-1.76611">
        <ele>60</ele>
        <time>2021-07-25T09:56:40.000Z</time>
      </trkpt>
      <trkpt lat="47.10735" lon="-1.76593">
        <ele>61</ele>
        <time>2021-07-25T09:56:42.000Z</time>
      </trkpt>
      <trkpt lat="47.10741" lon="-1.76575">
        <ele>61</ele>
        <time>2021-07-25T09:56:44.000Z</time>
      </trkpt>
      <trkpt lat="47.10747" lon="-1.76557">
        <ele>61</ele>
        <time>2021-07-25T09:56:46.000Z</time>
      </trkpt>
      <trkpt lat="47.10751" lon="-1.76537">
        <ele>61</ele>
        <time>2021-07-25T09:56:48.000Z</time>
      </trkpt>
      <trkpt lat="47.10754" lon="-1.76519">
        <ele>61</ele>
        <time>2021-07-25T09:56:50.000Z</time>
      </trkpt>
      <trkpt lat="47.10757" lon="-1.765">
        <ele>61</ele>
        <time>2021-07-25T09:56:52.000Z</time>
      </trkpt>
      <trkpt lat="47.10759" lon="-1.76481">
        <ele>61</ele>
        <time>2021-07-25T09:56:54.000Z</time>
      </trkpt>
      <trkpt lat="47.10762" lon="-1.76463">
        <ele>61</ele>
        <time>2021-07-25T09:56:56.000Z</time>
      </trkpt>
      <trkpt lat="47.10765" lon="-1.76443">
        <ele>60</ele>
        <time>2021-07-25T09:56:58.000Z</time>
      </trkpt>
      <trkpt lat="47.10769" lon="-1.76425">
        <ele>61</ele>
        <time>2021-07-25T09:57:00.000Z</time>
      </trkpt>
      <trkpt lat="47.10772" lon="-1.76405">
        <ele>61</ele>
        <time>2021-07-25T09:57:02.000Z</time>
      </trkpt>
      <trkpt lat="47.10776" lon="-1.76386">
        <ele>61</ele>
        <time>2021-07-25T09:57:04.000Z</time>
      </trkpt>
      <trkpt lat="47.1078" lon="-1.76366">
        <ele>61</ele>
        <time>2021-07-25T09:57:06.000Z</time>
      </trkpt>
      <trkpt lat="47.10783" lon="-1.76346">
        <ele>61</ele>
        <time>2021-07-25T09:57:08.000Z</time>
      </trkpt>
      <trkpt lat="47.10787" lon="-1.76326">
        <ele>61</ele>
        <time>2021-07-25T09:57:10.000Z</time>
      </trkpt>
      <trkpt lat="47.10792" lon="-1.76306">
        <ele>62</ele>
        <time>2021-07-25T09:57:12.000Z</time>
      </trkpt>
      <trkpt lat="47.10795" lon="-1.76287">
        <ele>62</ele>
        <time>2021-07-25T09:57:14.000Z</time>
      </trkpt>
      <trkpt lat="47.10799" lon="-1.76267">
        <ele>62</ele>
        <time>2021-07-25T09:57:16.000Z</time>
      </trkpt>
      <trkpt lat="47.10804" lon="-1.76248">
        <ele>62</ele>
        <time>2021-07-25T09:57:18.000Z</time>
      </trkpt>
      <trkpt lat="47.10808" lon="-1.76229">
        <ele>62</ele>
        <time>2021-07-25T09:57:20.000Z</time>
      </trkpt>
      <trkpt lat="47.10812" lon="-1.7621">
        <ele>62</ele>
        <time>2021-07-25T09:57:22.000Z</time>
      </trkpt>
      <trkpt lat="47.10816" lon="-1.7619">
        <ele>62</ele>
        <time>2021-07-25T09:57:24.000Z</time>
      </trkpt>
      <trkpt lat="47.1082" lon="-1.76172">
        <ele>62</ele>
        <time>2021-07-25T09:57:26.000Z</time>
      </trkpt>
      <trkpt lat="47.10824" lon="-1.76153">
        <ele>62</ele>
        <time>2021-07-25T09:57:28.000Z</time>
      </trkpt>
      <trkpt lat="47.10828" lon="-1.76133">
        <ele>61</ele>
        <time>2021-07-25T09:57:30.000Z</time>
      </trkpt>
      <trkpt lat="47.10831" lon="-1.76113">
        <ele>61</ele>
        <time>2021-07-25T09:57:32.000Z</time>
      </trkpt>
      <trkpt lat="47.10833" lon="-1.76092">
        <ele>61</ele>
        <time>2021-07-25T09:57:34.000Z</time>
      </trkpt>
      <trkpt lat="47.10835" lon="-1.76072">
        <ele>61</ele>
        <time>2021-07-25T09:57:36.000Z</time>
      </trkpt>
      <trkpt lat="47.10837" lon="-1.76053">
        <ele>61</ele>
        <time>2021-07-25T09:57:38.000Z</time>
      </trkpt>
      <trkpt lat="47.1084" lon="-1.76033">
        <ele>61</ele>
        <time>2021-07-25T09:57:40.000Z</time>
      </trkpt>
      <trkpt lat="47.10843" lon="-1.76013">
        <ele>61</ele>
        <time>2021-07-25T09:57:42.000Z</time>
      </trkpt>
      <trkpt lat="47.10846" lon="-1.75993">
        <ele>61</ele>
        <time>2021-07-25T09:57:44.000Z</time>
      </trkpt>
      <trkpt lat="47.1085" lon="-1.75973">
        <ele>62</ele>
        <time>2021-07-25T09:57:46.000Z</time>
      </trkpt>
      <trkpt lat="47.10854" lon="-1.75952">
        <ele>62</ele>
        <time>2021-07-25T09:57:48.000Z</time>
      </trkpt>
      <trkpt lat="47.1086" lon="-1.75933">
        <ele>62</ele>
        <time>2021-07-25T09:57:50.000Z</time>
      </trkpt>
      <trkpt lat="47.10866" lon="-1.75914">
        <ele>62</ele>
        <time>2021-07-25T09:57:52.000Z</time>
      </trkpt>
      <trkpt lat="47.10873" lon="-1.75897">
        <ele>63</ele>
        <time>2021-07-25T09:57:54.000Z</time>
      </trkpt>
      <trkpt lat="47.10882" lon="-1.7588">
        <ele>62</ele>
        <time>2021-07-25T09:57:56.000Z</time>
      </trkpt>
      <trkpt lat="47.10894" lon="-1.75868">
        <ele>62</ele>
        <time>2021-07-25T09:57:58.000Z</time>
      </trkpt>
      <trkpt lat="47.10907" lon="-1.7586">
        <ele>62</ele>
        <time>2021-07-25T09:58:00.000Z</time>
      </trkpt>
      <trkpt lat="47.10921" lon="-1.75855">
        <ele>63</ele>
        <time>2021-07-25T09:58:02.000Z</time>
      </trkpt>
      <trkpt lat="47.10936" lon="-1.75852">
        <ele>64</ele>
        <time>2021-07-25T09:58:04.000Z</time>
      </trkpt>
      <trkpt lat="47.1095" lon="-1.7585">
        <ele>64</ele>
        <time>2021-07-25T09:58:06.000Z</time>
      </trkpt>
      <trkpt lat="47.10965" lon="-1.75848">
        <ele>64</ele>
        <time>2021-07-25T09:58:08.000Z</time>
      </trkpt>
      <trkpt lat="47.10979" lon="-1.75844">
        <ele>63</ele>
        <time>2021-07-25T09:58:10.000Z</time>
      </trkpt>
      <trkpt lat="47.10993" lon="-1.75838">
        <ele>63</ele>
        <time>2021-07-25T09:58:12.000Z</time>
      </trkpt>
      <trkpt lat="47.11006" lon="-1.75828">
        <ele>63</ele>
        <time>2021-07-25T09:58:14.000Z</time>
      </trkpt>
      <trkpt lat="47.11017" lon="-1.75815">
        <ele>62</ele>
        <time>2021-07-25T09:58:16.000Z</time>
      </trkpt>
      <trkpt lat="47.11028" lon="-1.75802">
        <ele>62</ele>
        <time>2021-07-25T09:58:18.000Z</time>
      </trkpt>
      <trkpt lat="47.11038" lon="-1.75788">
        <ele>62</ele>
        <time>2021-07-25T09:58:20.000Z</time>
      </trkpt>
      <trkpt lat="47.11049" lon="-1.75774">
        <ele>61</ele>
        <time>2021-07-25T09:58:22.000Z</time>
      </trkpt>
      <trkpt lat="47.11059" lon="-1.7576">
        <ele>61</ele>
        <time>2021-07-25T09:58:24.000Z</time>
      </trkpt>
      <trkpt lat="47.1107" lon="-1.75746">
        <ele>61</ele>
        <time>2021-07-25T09:58:26.000Z</time>
      </trkpt>
      <trkpt lat="47.1108" lon="-1.75731">
        <ele>61</ele>
        <time>2021-07-25T09:58:28.000Z</time>
      </trkpt>
      <trkpt lat="47.11089" lon="-1.75712">
        <ele>60</ele>
        <time>2021-07-25T09:58:30.000Z</time>
      </trkpt>
      <trkpt lat="47.11094" lon="-1.75692">
        <ele>60</ele>
        <time>2021-07-25T09:58:32.000Z</time>
      </trkpt>
      <trkpt lat="47.11098" lon="-1.75673">
        <ele>60</ele>
        <time>2021-07-25T09:58:34.000Z</time>
      </trkpt>
      <trkpt lat="47.11103" lon="-1.75652">
        <ele>59</ele>
        <time>2021-07-25T09:58:36.000Z</time>
      </trkpt>
      <trkpt lat="47.11109" lon="-1.75632">
        <ele>58</ele>
        <time>2021-07-25T09:58:38.000Z</time>
      </trkpt>
      <trkpt lat="47.11115" lon="-1.7561">
        <ele>58</ele>
        <time>2021-07-25T09:58:40.000Z</time>
      </trkpt>
      <trkpt lat="47.11121" lon="-1.75589">
        <ele>58</ele>
        <time>2021-07-25T09:58:42.000Z</time>
      </trkpt>
      <trkpt lat="47.11128" lon="-1.75568">
        <ele>58</ele>
        <time>2021-07-25T09:58:44.000Z</time>
      </trkpt>
      <trkpt lat="47.11138" lon="-1.75548">
        <ele>59</ele>
        <time>2021-07-25T09:58:46.000Z</time>
      </trkpt>
      <trkpt lat="47.11151" lon="-1.75536">
        <ele>59</ele>
        <time>2021-07-25T09:58:48.000Z</time>
      </trkpt>
      <trkpt lat="47.11166" lon="-1.75529">
        <ele>59</ele>
        <time>2021-07-25T09:58:50.000Z</time>
      </trkpt>
      <trkpt lat="47.1118" lon="-1.75523">
        <ele>60</ele>
        <time>2021-07-25T09:58:52.000Z</time>
      </trkpt>
      <trkpt lat="47.11193" lon="-1.75515">
        <ele>61</ele>
        <time>2021-07-25T09:58:54.000Z</time>
      </trkpt>
      <trkpt lat="47.11205" lon="-1.75504">
        <ele>62</ele>
        <time>2021-07-25T09:58:56.000Z</time>
      </trkpt>
      <trkpt lat="47.11215" lon="-1.75489">
        <ele>62</ele>
        <time>2021-07-25T09:58:58.000Z</time>
      </trkpt>
      <trkpt lat="47.11225" lon="-1.75474">
        <ele>61</ele>
        <time>2021-07-25T09:59:00.000Z</time>
      </trkpt>
      <trkpt lat="47.11233" lon="-1.75458">
        <ele>62</ele>
        <time>2021-07-25T09:59:02.000Z</time>
      </trkpt>
      <trkpt lat="47.11241" lon="-1.75441">
        <ele>62</ele>
        <time>2021-07-25T09:59:04.000Z</time>
      </trkpt>
      <trkpt lat="47.1125" lon="-1.75424">
        <ele>62</ele>
        <time>2021-07-25T09:59:06.000Z</time>
      </trkpt>
      <trkpt lat="47.11258" lon="-1.75407">
        <ele>62</ele>
        <time>2021-07-25T09:59:08.000Z</time>
      </trkpt>
      <trkpt lat="47.11267" lon="-1.75391">
        <ele>63</ele>
        <time>2021-07-25T09:59:10.000Z</time>
      </trkpt>
      <trkpt lat="47.11275" lon="-1.75375">
        <ele>63</ele>
        <time>2021-07-25T09:59:12.000Z</time>
      </trkpt>
      <trkpt lat="47.11284" lon="-1.75359">
        <ele>63</ele>
        <time>2021-07-25T09:59:14.000Z</time>
      </trkpt>
      <trkpt lat="47.11291" lon="-1.75343">
        <ele>64</ele>
        <time>2021-07-25T09:59:16.000Z</time>
      </trkpt>
      <trkpt lat="47.11299" lon="-1.75325">
        <ele>63</ele>
        <time>2021-07-25T09:59:18.000Z</time>
      </trkpt>
      <trkpt lat="47.11304" lon="-1.75306">
        <ele>64</ele>
        <time>2021-07-25T09:59:20.000Z</time>
      </trkpt>
      <trkpt lat="47.11308" lon="-1.75287">
        <ele>64</ele>
        <time>2021-07-25T09:59:22.000Z</time>
      </trkpt>
      <trkpt lat="47.11313" lon="-1.75258">
        <ele>64</ele>
        <time>2021-07-25T09:59:25.000Z</time>
      </trkpt>
      <trkpt lat="47.11316" lon="-1.75239">
        <ele>65</ele>
        <time>2021-07-25T09:59:27.000Z</time>
      </trkpt>
      <trkpt lat="47.1132" lon="-1.75219">
        <ele>64</ele>
        <time>2021-07-25T09:59:29.000Z</time>
      </trkpt>
      <trkpt lat="47.11323" lon="-1.75199">
        <ele>64</ele>
        <time>2021-07-25T09:59:31.000Z</time>
      </trkpt>
      <trkpt lat="47.11327" lon="-1.7518">
        <ele>64</ele>
        <time>2021-07-25T09:59:33.000Z</time>
      </trkpt>
      <trkpt lat="47.11333" lon="-1.75151">
        <ele>63</ele>
        <time>2021-07-25T09:59:36.000Z</time>
      </trkpt>
      <trkpt lat="47.11338" lon="-1.75131">
        <ele>62</ele>
        <time>2021-07-25T09:59:38.000Z</time>
      </trkpt>
      <trkpt lat="47.11344" lon="-1.75112">
        <ele>62</ele>
        <time>2021-07-25T09:59:40.000Z</time>
      </trkpt>
      <trkpt lat="47.11349" lon="-1.75093">
        <ele>62</ele>
        <time>2021-07-25T09:59:42.000Z</time>
      </trkpt>
      <trkpt lat="47.11355" lon="-1.75073">
        <ele>62</ele>
        <time>2021-07-25T09:59:44.000Z</time>
      </trkpt>
      <trkpt lat="47.1136" lon="-1.75054">
        <ele>61</ele>
        <time>2021-07-25T09:59:46.000Z</time>
      </trkpt>
      <trkpt lat="47.11365" lon="-1.75035">
        <ele>61</ele>
        <time>2021-07-25T09:59:48.000Z</time>
      </trkpt>
      <trkpt lat="47.11368" lon="-1.75013">
        <ele>60</ele>
        <time>2021-07-25T09:59:50.000Z</time>
      </trkpt>
      <trkpt lat="47.11368" lon="-1.74991">
        <ele>60</ele>
        <time>2021-07-25T09:59:52.000Z</time>
      </trkpt>
      <trkpt lat="47.11367" lon="-1.74968">
        <ele>59</ele>
        <time>2021-07-25T09:59:54.000Z</time>
      </trkpt>
      <trkpt lat="47.11365" lon="-1.74946">
        <ele>58</ele>
        <time>2021-07-25T09:59:56.000Z</time>
      </trkpt>
      <trkpt lat="47.11361" lon="-1.74923">
        <ele>58</ele>
        <time>2021-07-25T09:59:58.000Z</time>
      </trkpt>
      <trkpt lat="47.11359" lon="-1.74901">
        <ele>57</ele>
        <time>2021-07-25T10:00:00.000Z</time>
      </trkpt>
      <trkpt lat="47.11357" lon="-1.74878">
        <ele>57</ele>
        <time>2021-07-25T10:00:02.000Z</time>
      </trkpt>
      <trkpt lat="47.11356" lon="-1.74856">
        <ele>57</ele>
        <time>2021-07-25T10:00:04.000Z</time>
      </trkpt>
      <trkpt lat="47.11357" lon="-1.74835">
        <ele>58</ele>
        <time>2021-07-25T10:00:06.000Z</time>
      </trkpt>
      <trkpt lat="47.1136" lon="-1.74813">
        <ele>58</ele>
        <time>2021-07-25T10:00:08.000Z</time>
      </trkpt>
      <trkpt lat="47.11364" lon="-1.74792">
        <ele>57</ele>
        <time>2021-07-25T10:00:10.000Z</time>
      </trkpt>
      <trkpt lat="47.11369" lon="-1.7477">
        <ele>57</ele>
        <time>2021-07-25T10:00:12.000Z</time>
      </trkpt>
      <trkpt lat="47.11372" lon="-1.74749">
        <ele>57</ele>
        <time>2021-07-25T10:00:14.000Z</time>
      </trkpt>
      <trkpt lat="47.11374" lon="-1.74727">
        <ele>57</ele>
        <time>2021-07-25T10:00:16.000Z</time>
      </trkpt>
      <trkpt lat="47.11375" lon="-1.74706">
        <ele>58</ele>
        <time>2021-07-25T10:00:18.000Z</time>
      </trkpt>
      <trkpt lat="47.11376" lon="-1.74685">
        <ele>58</ele>
        <time>2021-07-25T10:00:20.000Z</time>
      </trkpt>
      <trkpt lat="47.11376" lon="-1.74664">
        <ele>58</ele>
        <time>2021-07-25T10:00:22.000Z</time>
      </trkpt>
      <trkpt lat="47.11378" lon="-1.74643">
        <ele>58</ele>
        <time>2021-07-25T10:00:24.000Z</time>
      </trkpt>
      <trkpt lat="47.11379" lon="-1.74621">
        <ele>58</ele>
        <time>2021-07-25T10:00:26.000Z</time>
      </trkpt>
      <trkpt lat="47.11379" lon="-1.746">
        <ele>59</ele>
        <time>2021-07-25T10:00:28.000Z</time>
      </trkpt>
      <trkpt lat="47.11381" lon="-1.7458">
        <ele>60</ele>
        <time>2021-07-25T10:00:30.000Z</time>
      </trkpt>
      <trkpt lat="47.11383" lon="-1.74559">
        <ele>60</ele>
        <time>2021-07-25T10:00:32.000Z</time>
      </trkpt>
      <trkpt lat="47.11386" lon="-1.74537">
        <ele>60</ele>
        <time>2021-07-25T10:00:34.000Z</time>
      </trkpt>
      <trkpt lat="47.11391" lon="-1.74518">
        <ele>60</ele>
        <time>2021-07-25T10:00:36.000Z</time>
      </trkpt>
      <trkpt lat="47.11395" lon="-1.74499">
        <ele>60</ele>
        <time>2021-07-25T10:00:38.000Z</time>
      </trkpt>
      <trkpt lat="47.11399" lon="-1.7448">
        <ele>60</ele>
        <time>2021-07-25T10:00:40.000Z</time>
      </trkpt>
      <trkpt lat="47.11403" lon="-1.74462">
        <ele>59</ele>
        <time>2021-07-25T10:00:42.000Z</time>
      </trkpt>
      <trkpt lat="47.11406" lon="-1.74443">
        <ele>59</ele>
        <time>2021-07-25T10:00:44.000Z</time>
      </trkpt>
      <trkpt lat="47.11408" lon="-1.74423">
        <ele>58</ele>
        <time>2021-07-25T10:00:46.000Z</time>
      </trkpt>
      <trkpt lat="47.11411" lon="-1.74404">
        <ele>59</ele>
        <time>2021-07-25T10:00:48.000Z</time>
      </trkpt>
      <trkpt lat="47.11415" lon="-1.74385">
        <ele>59</ele>
        <time>2021-07-25T10:00:50.000Z</time>
      </trkpt>
      <trkpt lat="47.11421" lon="-1.74367">
        <ele>59</ele>
        <time>2021-07-25T10:00:52.000Z</time>
      </trkpt>
      <trkpt lat="47.11428" lon="-1.7435">
        <ele>59</ele>
        <time>2021-07-25T10:00:54.000Z</time>
      </trkpt>
      <trkpt lat="47.11433" lon="-1.7433">
        <ele>59</ele>
        <time>2021-07-25T10:00:56.000Z</time>
      </trkpt>
      <trkpt lat="47.11433" lon="-1.7431">
        <ele>59</ele>
        <time>2021-07-25T10:00:58.000Z</time>
      </trkpt>
      <trkpt lat="47.1143" lon="-1.74289">
        <ele>58</ele>
        <time>2021-07-25T10:01:00.000Z</time>
      </trkpt>
      <trkpt lat="47.11428" lon="-1.74269">
        <ele>58</ele>
        <time>2021-07-25T10:01:02.000Z</time>
      </trkpt>
      <trkpt lat="47.11426" lon="-1.74248">
        <ele>58</ele>
        <time>2021-07-25T10:01:04.000Z</time>
      </trkpt>
      <trkpt lat="47.11426" lon="-1.74228">
        <ele>59</ele>
        <time>2021-07-25T10:01:06.000Z</time>
      </trkpt>
      <trkpt lat="47.11428" lon="-1.74208">
        <ele>58</ele>
        <time>2021-07-25T10:01:08.000Z</time>
      </trkpt>
      <trkpt lat="47.1143" lon="-1.74187">
        <ele>58</ele>
        <time>2021-07-25T10:01:10.000Z</time>
      </trkpt>
      <trkpt lat="47.11433" lon="-1.74164">
        <ele>58</ele>
        <time>2021-07-25T10:01:12.000Z</time>
      </trkpt>
      <trkpt lat="47.11437" lon="-1.74143">
        <ele>57</ele>
        <time>2021-07-25T10:01:14.000Z</time>
      </trkpt>
      <trkpt lat="47.11443" lon="-1.74122">
        <ele>57</ele>
        <time>2021-07-25T10:01:16.000Z</time>
      </trkpt>
      <trkpt lat="47.11451" lon="-1.74104">
        <ele>57</ele>
        <time>2021-07-25T10:01:18.000Z</time>
      </trkpt>
      <trkpt lat="47.11461" lon="-1.74088">
        <ele>57</ele>
        <time>2021-07-25T10:01:20.000Z</time>
      </trkpt>
      <trkpt lat="47.11472" lon="-1.74072">
        <ele>57</ele>
        <time>2021-07-25T10:01:22.000Z</time>
      </trkpt>
      <trkpt lat="47.11483" lon="-1.74057">
        <ele>56</ele>
        <time>2021-07-25T10:01:24.000Z</time>
      </trkpt>
      <trkpt lat="47.11493" lon="-1.74043">
        <ele>56</ele>
        <time>2021-07-25T10:01:26.000Z</time>
      </trkpt>
      <trkpt lat="47.11502" lon="-1.74028">
        <ele>57</ele>
        <time>2021-07-25T10:01:28.000Z</time>
      </trkpt>
      <trkpt lat="47.11504" lon="-1.74011">
        <ele>56</ele>
        <time>2021-07-25T10:01:30.000Z</time>
      </trkpt>
      <trkpt lat="47.11496" lon="-1.73998">
        <ele>57</ele>
        <time>2021-07-25T10:01:32.000Z</time>
      </trkpt>
      <trkpt lat="47.11483" lon="-1.73995">
        <ele>56</ele>
        <time>2021-07-25T10:01:34.000Z</time>
      </trkpt>
      <trkpt lat="47.1147" lon="-1.7399">
        <ele>57</ele>
        <time>2021-07-25T10:01:36.000Z</time>
      </trkpt>
      <trkpt lat="47.11457" lon="-1.73983">
        <ele>59</ele>
        <time>2021-07-25T10:01:38.000Z</time>
      </trkpt>
      <trkpt lat="47.11446" lon="-1.73972">
        <ele>60</ele>
        <time>2021-07-25T10:01:40.000Z</time>
      </trkpt>
      <trkpt lat="47.11436" lon="-1.73956">
        <ele>60</ele>
        <time>2021-07-25T10:01:42.000Z</time>
      </trkpt>
      <trkpt lat="47.1143" lon="-1.73936">
        <ele>59</ele>
        <time>2021-07-25T10:01:44.000Z</time>
      </trkpt>
      <trkpt lat="47.11425" lon="-1.73918">
        <ele>60</ele>
        <time>2021-07-25T10:01:46.000Z</time>
      </trkpt>
      <trkpt lat="47.1142" lon="-1.73899">
        <ele>60</ele>
        <time>2021-07-25T10:01:48.000Z</time>
      </trkpt>
      <trkpt lat="47.11414" lon="-1.73881">
        <ele>59</ele>
        <time>2021-07-25T10:01:50.000Z</time>
      </trkpt>
      <trkpt lat="47.11408" lon="-1.73863">
        <ele>58</ele>
        <time>2021-07-25T10:01:52.000Z</time>
      </trkpt>
      <trkpt lat="47.11402" lon="-1.73846">
        <ele>58</ele>
        <time>2021-07-25T10:01:54.000Z</time>
      </trkpt>
      <trkpt lat="47.11397" lon="-1.73828">
        <ele>58</ele>
        <time>2021-07-25T10:01:56.000Z</time>
      </trkpt>
      <trkpt lat="47.11392" lon="-1.73811">
        <ele>58</ele>
        <time>2021-07-25T10:01:58.000Z</time>
      </trkpt>
      <trkpt lat="47.11386" lon="-1.73792">
        <ele>58</ele>
        <time>2021-07-25T10:02:00.000Z</time>
      </trkpt>
      <trkpt lat="47.11381" lon="-1.73774">
        <ele>59</ele>
        <time>2021-07-25T10:02:02.000Z</time>
      </trkpt>
      <trkpt lat="47.11375" lon="-1.73757">
        <ele>59</ele>
        <time>2021-07-25T10:02:04.000Z</time>
      </trkpt>
      <trkpt lat="47.11369" lon="-1.73739">
        <ele>59</ele>
        <time>2021-07-25T10:02:06.000Z</time>
      </trkpt>
      <trkpt lat="47.11362" lon="-1.73722">
        <ele>59</ele>
        <time>2021-07-25T10:02:08.000Z</time>
      </trkpt>
      <trkpt lat="47.11355" lon="-1.73706">
        <ele>59</ele>
        <time>2021-07-25T10:02:10.000Z</time>
      </trkpt>
      <trkpt lat="47.11346" lon="-1.73691">
        <ele>59</ele>
        <time>2021-07-25T10:02:12.000Z</time>
      </trkpt>
      <trkpt lat="47.11339" lon="-1.73675">
        <ele>59</ele>
        <time>2021-07-25T10:02:14.000Z</time>
      </trkpt>
      <trkpt lat="47.11331" lon="-1.73659">
        <ele>59</ele>
        <time>2021-07-25T10:02:16.000Z</time>
      </trkpt>
      <trkpt lat="47.11322" lon="-1.73644">
        <ele>59</ele>
        <time>2021-07-25T10:02:18.000Z</time>
      </trkpt>
      <trkpt lat="47.11315" lon="-1.73628">
        <ele>59</ele>
        <time>2021-07-25T10:02:20.000Z</time>
      </trkpt>
      <trkpt lat="47.11306" lon="-1.73612">
        <ele>59</ele>
        <time>2021-07-25T10:02:22.000Z</time>
      </trkpt>
      <trkpt lat="47.11299" lon="-1.73596">
        <ele>59</ele>
        <time>2021-07-25T10:02:24.000Z</time>
      </trkpt>
      <trkpt lat="47.11291" lon="-1.73581">
        <ele>59</ele>
        <time>2021-07-25T10:02:26.000Z</time>
      </trkpt>
      <trkpt lat="47.11284" lon="-1.73568">
        <ele>59</ele>
        <time>2021-07-25T10:02:28.000Z</time>
      </trkpt>
      <trkpt lat="47.11274" lon="-1.73553">
        <ele>60</ele>
        <time>2021-07-25T10:02:31.000Z</time>
      </trkpt>
      <trkpt lat="47.11267" lon="-1.73538">
        <ele>60</ele>
        <time>2021-07-25T10:02:33.000Z</time>
      </trkpt>
      <trkpt lat="47.11265" lon="-1.73516">
        <ele>60</ele>
        <time>2021-07-25T10:02:35.000Z</time>
      </trkpt>
      <trkpt lat="47.11264" lon="-1.73495">
        <ele>60</ele>
        <time>2021-07-25T10:02:37.000Z</time>
      </trkpt>
      <trkpt lat="47.11263" lon="-1.73473">
        <ele>61</ele>
        <time>2021-07-25T10:02:39.000Z</time>
      </trkpt>
      <trkpt lat="47.11261" lon="-1.73451">
        <ele>61</ele>
        <time>2021-07-25T10:02:41.000Z</time>
      </trkpt>
      <trkpt lat="47.11259" lon="-1.73429">
        <ele>62</ele>
        <time>2021-07-25T10:02:43.000Z</time>
      </trkpt>
      <trkpt lat="47.11257" lon="-1.73409">
        <ele>62</ele>
        <time>2021-07-25T10:02:45.000Z</time>
      </trkpt>
      <trkpt lat="47.11256" lon="-1.73387">
        <ele>62</ele>
        <time>2021-07-25T10:02:47.000Z</time>
      </trkpt>
      <trkpt lat="47.11255" lon="-1.73364">
        <ele>62</ele>
        <time>2021-07-25T10:02:49.000Z</time>
      </trkpt>
      <trkpt lat="47.11253" lon="-1.73342">
        <ele>62</ele>
        <time>2021-07-25T10:02:51.000Z</time>
      </trkpt>
      <trkpt lat="47.11252" lon="-1.7332">
        <ele>62</ele>
        <time>2021-07-25T10:02:53.000Z</time>
      </trkpt>
      <trkpt lat="47.1125" lon="-1.73298">
        <ele>62</ele>
        <time>2021-07-25T10:02:55.000Z</time>
      </trkpt>
      <trkpt lat="47.11247" lon="-1.73277">
        <ele>62</ele>
        <time>2021-07-25T10:02:57.000Z</time>
      </trkpt>
      <trkpt lat="47.11244" lon="-1.73257">
        <ele>63</ele>
        <time>2021-07-25T10:02:59.000Z</time>
      </trkpt>
      <trkpt lat="47.11239" lon="-1.73238">
        <ele>63</ele>
        <time>2021-07-25T10:03:01.000Z</time>
      </trkpt>
      <trkpt lat="47.11234" lon="-1.73219">
        <ele>63</ele>
        <time>2021-07-25T10:03:03.000Z</time>
      </trkpt>
      <trkpt lat="47.1123" lon="-1.73199">
        <ele>64</ele>
        <time>2021-07-25T10:03:05.000Z</time>
      </trkpt>
      <trkpt lat="47.11226" lon="-1.7318">
        <ele>64</ele>
        <time>2021-07-25T10:03:07.000Z</time>
      </trkpt>
      <trkpt lat="47.11221" lon="-1.73161">
        <ele>64</ele>
        <time>2021-07-25T10:03:09.000Z</time>
      </trkpt>
      <trkpt lat="47.11217" lon="-1.73142">
        <ele>65</ele>
        <time>2021-07-25T10:03:11.000Z</time>
      </trkpt>
      <trkpt lat="47.11212" lon="-1.73123">
        <ele>65</ele>
        <time>2021-07-25T10:03:13.000Z</time>
      </trkpt>
      <trkpt lat="47.11208" lon="-1.73104">
        <ele>65</ele>
        <time>2021-07-25T10:03:15.000Z</time>
      </trkpt>
      <trkpt lat="47.11203" lon="-1.73085">
        <ele>65</ele>
        <time>2021-07-25T10:03:17.000Z</time>
      </trkpt>
      <trkpt lat="47.11199" lon="-1.73067">
        <ele>65</ele>
        <time>2021-07-25T10:03:19.000Z</time>
      </trkpt>
      <trkpt lat="47.11194" lon="-1.73048">
        <ele>65</ele>
        <time>2021-07-25T10:03:21.000Z</time>
      </trkpt>
      <trkpt lat="47.1119" lon="-1.73029">
        <ele>65</ele>
        <time>2021-07-25T10:03:23.000Z</time>
      </trkpt>
      <trkpt lat="47.11186" lon="-1.7301">
        <ele>64</ele>
        <time>2021-07-25T10:03:25.000Z</time>
      </trkpt>
      <trkpt lat="47.11182" lon="-1.72991">
        <ele>64</ele>
        <time>2021-07-25T10:03:27.000Z</time>
      </trkpt>
      <trkpt lat="47.11177" lon="-1.7297">
        <ele>64</ele>
        <time>2021-07-25T10:03:29.000Z</time>
      </trkpt>
      <trkpt lat="47.11172" lon="-1.72951">
        <ele>64</ele>
        <time>2021-07-25T10:03:31.000Z</time>
      </trkpt>
      <trkpt lat="47.11167" lon="-1.72931">
        <ele>64</ele>
        <time>2021-07-25T10:03:33.000Z</time>
      </trkpt>
      <trkpt lat="47.11162" lon="-1.72912">
        <ele>64</ele>
        <time>2021-07-25T10:03:35.000Z</time>
      </trkpt>
      <trkpt lat="47.11158" lon="-1.72893">
        <ele>64</ele>
        <time>2021-07-25T10:03:37.000Z</time>
      </trkpt>
      <trkpt lat="47.11153" lon="-1.72873">
        <ele>64</ele>
        <time>2021-07-25T10:03:39.000Z</time>
      </trkpt>
      <trkpt lat="47.11148" lon="-1.72854">
        <ele>64</ele>
        <time>2021-07-25T10:03:41.000Z</time>
      </trkpt>
      <trkpt lat="47.11144" lon="-1.72835">
        <ele>64</ele>
        <time>2021-07-25T10:03:43.000Z</time>
      </trkpt>
      <trkpt lat="47.11139" lon="-1.72816">
        <ele>64</ele>
        <time>2021-07-25T10:03:45.000Z</time>
      </trkpt>
      <trkpt lat="47.11134" lon="-1.72796">
        <ele>64</ele>
        <time>2021-07-25T10:03:47.000Z</time>
      </trkpt>
      <trkpt lat="47.1113" lon="-1.72776">
        <ele>65</ele>
        <time>2021-07-25T10:03:49.000Z</time>
      </trkpt>
      <trkpt lat="47.11125" lon="-1.72757">
        <ele>65</ele>
        <time>2021-07-25T10:03:51.000Z</time>
      </trkpt>
      <trkpt lat="47.1112" lon="-1.72737">
        <ele>65</ele>
        <time>2021-07-25T10:03:53.000Z</time>
      </trkpt>
      <trkpt lat="47.11116" lon="-1.72717">
        <ele>65</ele>
        <time>2021-07-25T10:03:55.000Z</time>
      </trkpt>
      <trkpt lat="47.11111" lon="-1.72697">
        <ele>65</ele>
        <time>2021-07-25T10:03:57.000Z</time>
      </trkpt>
      <trkpt lat="47.11107" lon="-1.72677">
        <ele>65</ele>
        <time>2021-07-25T10:03:59.000Z</time>
      </trkpt>
      <trkpt lat="47.11102" lon="-1.72657">
        <ele>65</ele>
        <time>2021-07-25T10:04:01.000Z</time>
      </trkpt>
      <trkpt lat="47.11098" lon="-1.72636">
        <ele>64</ele>
        <time>2021-07-25T10:04:03.000Z</time>
      </trkpt>
      <trkpt lat="47.11093" lon="-1.72617">
        <ele>64</ele>
        <time>2021-07-25T10:04:05.000Z</time>
      </trkpt>
      <trkpt lat="47.11088" lon="-1.72597">
        <ele>64</ele>
        <time>2021-07-25T10:04:07.000Z</time>
      </trkpt>
      <trkpt lat="47.11084" lon="-1.72578">
        <ele>65</ele>
        <time>2021-07-25T10:04:09.000Z</time>
      </trkpt>
      <trkpt lat="47.1108" lon="-1.72558">
        <ele>65</ele>
        <time>2021-07-25T10:04:11.000Z</time>
      </trkpt>
      <trkpt lat="47.11079" lon="-1.72536">
        <ele>65</ele>
        <time>2021-07-25T10:04:13.000Z</time>
      </trkpt>
      <trkpt lat="47.11081" lon="-1.72515">
        <ele>65</ele>
        <time>2021-07-25T10:04:15.000Z</time>
      </trkpt>
      <trkpt lat="47.11084" lon="-1.72494">
        <ele>65</ele>
        <time>2021-07-25T10:04:17.000Z</time>
      </trkpt>
      <trkpt lat="47.11089" lon="-1.72473">
        <ele>64</ele>
        <time>2021-07-25T10:04:19.000Z</time>
      </trkpt>
      <trkpt lat="47.11093" lon="-1.72452">
        <ele>64</ele>
        <time>2021-07-25T10:04:21.000Z</time>
      </trkpt>
      <trkpt lat="47.11098" lon="-1.72431">
        <ele>64</ele>
        <time>2021-07-25T10:04:23.000Z</time>
      </trkpt>
      <trkpt lat="47.11103" lon="-1.72411">
        <ele>64</ele>
        <time>2021-07-25T10:04:25.000Z</time>
      </trkpt>
      <trkpt lat="47.11108" lon="-1.7239">
        <ele>64</ele>
        <time>2021-07-25T10:04:27.000Z</time>
      </trkpt>
      <trkpt lat="47.11113" lon="-1.7237">
        <ele>64</ele>
        <time>2021-07-25T10:04:29.000Z</time>
      </trkpt>
      <trkpt lat="47.11118" lon="-1.72351">
        <ele>63</ele>
        <time>2021-07-25T10:04:31.000Z</time>
      </trkpt>
      <trkpt lat="47.11123" lon="-1.72331">
        <ele>63</ele>
        <time>2021-07-25T10:04:33.000Z</time>
      </trkpt>
      <trkpt lat="47.11128" lon="-1.72311">
        <ele>63</ele>
        <time>2021-07-25T10:04:35.000Z</time>
      </trkpt>
      <trkpt lat="47.11133" lon="-1.72291">
        <ele>63</ele>
        <time>2021-07-25T10:04:37.000Z</time>
      </trkpt>
      <trkpt lat="47.11138" lon="-1.72271">
        <ele>64</ele>
        <time>2021-07-25T10:04:39.000Z</time>
      </trkpt>
      <trkpt lat="47.11143" lon="-1.72251">
        <ele>64</ele>
        <time>2021-07-25T10:04:41.000Z</time>
      </trkpt>
      <trkpt lat="47.11148" lon="-1.7223">
        <ele>64</ele>
        <time>2021-07-25T10:04:43.000Z</time>
      </trkpt>
      <trkpt lat="47.11153" lon="-1.72211">
        <ele>64</ele>
        <time>2021-07-25T10:04:45.000Z</time>
      </trkpt>
      <trkpt lat="47.11158" lon="-1.72191">
        <ele>64</ele>
        <time>2021-07-25T10:04:47.000Z</time>
      </trkpt>
      <trkpt lat="47.11162" lon="-1.72171">
        <ele>64</ele>
        <time>2021-07-25T10:04:49.000Z</time>
      </trkpt>
      <trkpt lat="47.11166" lon="-1.72152">
        <ele>65</ele>
        <time>2021-07-25T10:04:51.000Z</time>
      </trkpt>
      <trkpt lat="47.11171" lon="-1.72133">
        <ele>65</ele>
        <time>2021-07-25T10:04:53.000Z</time>
      </trkpt>
      <trkpt lat="47.11176" lon="-1.72114">
        <ele>65</ele>
        <time>2021-07-25T10:04:55.000Z</time>
      </trkpt>
      <trkpt lat="47.1118" lon="-1.72095">
        <ele>65</ele>
        <time>2021-07-25T10:04:57.000Z</time>
      </trkpt>
      <trkpt lat="47.11184" lon="-1.72075">
        <ele>65</ele>
        <time>2021-07-25T10:04:59.000Z</time>
      </trkpt>
      <trkpt lat="47.11189" lon="-1.72056">
        <ele>65</ele>
        <time>2021-07-25T10:05:01.000Z</time>
      </trkpt>
      <trkpt lat="47.11193" lon="-1.72037">
        <ele>65</ele>
        <time>2021-07-25T10:05:03.000Z</time>
      </trkpt>
      <trkpt lat="47.11199" lon="-1.72017">
        <ele>65</ele>
        <time>2021-07-25T10:05:05.000Z</time>
      </trkpt>
      <trkpt lat="47.11203" lon="-1.71997">
        <ele>65</ele>
        <time>2021-07-25T10:05:07.000Z</time>
      </trkpt>
      <trkpt lat="47.11207" lon="-1.71977">
        <ele>64</ele>
        <time>2021-07-25T10:05:09.000Z</time>
      </trkpt>
      <trkpt lat="47.11212" lon="-1.71956">
        <ele>63</ele>
        <time>2021-07-25T10:05:11.000Z</time>
      </trkpt>
      <trkpt lat="47.11217" lon="-1.71934">
        <ele>63</ele>
        <time>2021-07-25T10:05:13.000Z</time>
      </trkpt>
      <trkpt lat="47.11223" lon="-1.71912">
        <ele>62</ele>
        <time>2021-07-25T10:05:15.000Z</time>
      </trkpt>
      <trkpt lat="47.11229" lon="-1.71888">
        <ele>62</ele>
        <time>2021-07-25T10:05:17.000Z</time>
      </trkpt>
      <trkpt lat="47.11235" lon="-1.71865">
        <ele>61</ele>
        <time>2021-07-25T10:05:19.000Z</time>
      </trkpt>
      <trkpt lat="47.11242" lon="-1.71841">
        <ele>60</ele>
        <time>2021-07-25T10:05:21.000Z</time>
      </trkpt>
      <trkpt lat="47.1125" lon="-1.71818">
        <ele>59</ele>
        <time>2021-07-25T10:05:23.000Z</time>
      </trkpt>
      <trkpt lat="47.1126" lon="-1.71796">
        <ele>59</ele>
        <time>2021-07-25T10:05:25.000Z</time>
      </trkpt>
      <trkpt lat="47.11265" lon="-1.71785">
        <ele>59</ele>
        <time>2021-07-25T10:05:26.000Z</time>
      </trkpt>
      <trkpt lat="47.11275" lon="-1.71764">
        <ele>58</ele>
        <time>2021-07-25T10:05:28.000Z</time>
      </trkpt>
      <trkpt lat="47.11286" lon="-1.71744">
        <ele>57</ele>
        <time>2021-07-25T10:05:30.000Z</time>
      </trkpt>
      <trkpt lat="47.11296" lon="-1.71724">
        <ele>56</ele>
        <time>2021-07-25T10:05:32.000Z</time>
      </trkpt>
      <trkpt lat="47.11306" lon="-1.71703">
        <ele>56</ele>
        <time>2021-07-25T10:05:34.000Z</time>
      </trkpt>
      <trkpt lat="47.11317" lon="-1.71683">
        <ele>56</ele>
        <time>2021-07-25T10:05:36.000Z</time>
      </trkpt>
      <trkpt lat="47.11328" lon="-1.71663">
        <ele>56</ele>
        <time>2021-07-25T10:05:38.000Z</time>
      </trkpt>
      <trkpt lat="47.11338" lon="-1.71643">
        <ele>56</ele>
        <time>2021-07-25T10:05:40.000Z</time>
      </trkpt>
      <trkpt lat="47.11348" lon="-1.71623">
        <ele>56</ele>
        <time>2021-07-25T10:05:42.000Z</time>
      </trkpt>
      <trkpt lat="47.11359" lon="-1.71603">
        <ele>56</ele>
        <time>2021-07-25T10:05:44.000Z</time>
      </trkpt>
      <trkpt lat="47.11369" lon="-1.71583">
        <ele>56</ele>
        <time>2021-07-25T10:05:46.000Z</time>
      </trkpt>
      <trkpt lat="47.11379" lon="-1.71562">
        <ele>55</ele>
        <time>2021-07-25T10:05:48.000Z</time>
      </trkpt>
      <trkpt lat="47.11389" lon="-1.71543">
        <ele>55</ele>
        <time>2021-07-25T10:05:50.000Z</time>
      </trkpt>
      <trkpt lat="47.11399" lon="-1.71523">
        <ele>55</ele>
        <time>2021-07-25T10:05:52.000Z</time>
      </trkpt>
      <trkpt lat="47.11409" lon="-1.71503">
        <ele>55</ele>
        <time>2021-07-25T10:05:54.000Z</time>
      </trkpt>
      <trkpt lat="47.11419" lon="-1.71484">
        <ele>55</ele>
        <time>2021-07-25T10:05:56.000Z</time>
      </trkpt>
      <trkpt lat="47.11429" lon="-1.71464">
        <ele>55</ele>
        <time>2021-07-25T10:05:58.000Z</time>
      </trkpt>
      <trkpt lat="47.11439" lon="-1.71444">
        <ele>55</ele>
        <time>2021-07-25T10:06:00.000Z</time>
      </trkpt>
      <trkpt lat="47.11449" lon="-1.71425">
        <ele>56</ele>
        <time>2021-07-25T10:06:02.000Z</time>
      </trkpt>
      <trkpt lat="47.11459" lon="-1.71406">
        <ele>56</ele>
        <time>2021-07-25T10:06:04.000Z</time>
      </trkpt>
      <trkpt lat="47.11468" lon="-1.71386">
        <ele>57</ele>
        <time>2021-07-25T10:06:06.000Z</time>
      </trkpt>
      <trkpt lat="47.11478" lon="-1.71368">
        <ele>57</ele>
        <time>2021-07-25T10:06:08.000Z</time>
      </trkpt>
      <trkpt lat="47.11487" lon="-1.71349">
        <ele>57</ele>
        <time>2021-07-25T10:06:10.000Z</time>
      </trkpt>
      <trkpt lat="47.11497" lon="-1.7133">
        <ele>57</ele>
        <time>2021-07-25T10:06:12.000Z</time>
      </trkpt>
      <trkpt lat="47.11506" lon="-1.71312">
        <ele>57</ele>
        <time>2021-07-25T10:06:14.000Z</time>
      </trkpt>
      <trkpt lat="47.11516" lon="-1.71293">
        <ele>57</ele>
        <time>2021-07-25T10:06:16.000Z</time>
      </trkpt>
      <trkpt lat="47.11525" lon="-1.71275">
        <ele>57</ele>
        <time>2021-07-25T10:06:18.000Z</time>
      </trkpt>
      <trkpt lat="47.11535" lon="-1.71256">
        <ele>57</ele>
        <time>2021-07-25T10:06:20.000Z</time>
      </trkpt>
      <trkpt lat="47.11545" lon="-1.71239">
        <ele>57</ele>
        <time>2021-07-25T10:06:22.000Z</time>
      </trkpt>
      <trkpt lat="47.11556" lon="-1.71222">
        <ele>58</ele>
        <time>2021-07-25T10:06:24.000Z</time>
      </trkpt>
      <trkpt lat="47.11567" lon="-1.71206">
        <ele>58</ele>
        <time>2021-07-25T10:06:26.000Z</time>
      </trkpt>
      <trkpt lat="47.11579" lon="-1.71191">
        <ele>58</ele>
        <time>2021-07-25T10:06:28.000Z</time>
      </trkpt>
      <trkpt lat="47.11591" lon="-1.71176">
        <ele>58</ele>
        <time>2021-07-25T10:06:30.000Z</time>
      </trkpt>
      <trkpt lat="47.11603" lon="-1.71162">
        <ele>58</ele>
        <time>2021-07-25T10:06:32.000Z</time>
      </trkpt>
      <trkpt lat="47.11615" lon="-1.71149">
        <ele>59</ele>
        <time>2021-07-25T10:06:34.000Z</time>
      </trkpt>
      <trkpt lat="47.11628" lon="-1.71136">
        <ele>59</ele>
        <time>2021-07-25T10:06:36.000Z</time>
      </trkpt>
      <trkpt lat="47.11641" lon="-1.71124">
        <ele>60</ele>
        <time>2021-07-25T10:06:38.000Z</time>
      </trkpt>
      <trkpt lat="47.11654" lon="-1.71113">
        <ele>61</ele>
        <time>2021-07-25T10:06:40.000Z</time>
      </trkpt>
      <trkpt lat="47.11667" lon="-1.71104">
        <ele>61</ele>
        <time>2021-07-25T10:06:42.000Z</time>
      </trkpt>
      <trkpt lat="47.11681" lon="-1.71094">
        <ele>61</ele>
        <time>2021-07-25T10:06:44.000Z</time>
      </trkpt>
      <trkpt lat="47.11695" lon="-1.71086">
        <ele>61</ele>
        <time>2021-07-25T10:06:46.000Z</time>
      </trkpt>
      <trkpt lat="47.11709" lon="-1.71077">
        <ele>60</ele>
        <time>2021-07-25T10:06:48.000Z</time>
      </trkpt>
      <trkpt lat="47.11723" lon="-1.71068">
        <ele>59</ele>
        <time>2021-07-25T10:06:50.000Z</time>
      </trkpt>
      <trkpt lat="47.11737" lon="-1.7106">
        <ele>59</ele>
        <time>2021-07-25T10:06:52.000Z</time>
      </trkpt>
      <trkpt lat="47.11751" lon="-1.7105">
        <ele>59</ele>
        <time>2021-07-25T10:06:54.000Z</time>
      </trkpt>
      <trkpt lat="47.11766" lon="-1.7104">
        <ele>58</ele>
        <time>2021-07-25T10:06:56.000Z</time>
      </trkpt>
      <trkpt lat="47.1178" lon="-1.71031">
        <ele>58</ele>
        <time>2021-07-25T10:06:58.000Z</time>
      </trkpt>
      <trkpt lat="47.11795" lon="-1.71022">
        <ele>58</ele>
        <time>2021-07-25T10:07:00.000Z</time>
      </trkpt>
      <trkpt lat="47.11809" lon="-1.71013">
        <ele>58</ele>
        <time>2021-07-25T10:07:02.000Z</time>
      </trkpt>
      <trkpt lat="47.11823" lon="-1.71003">
        <ele>57</ele>
        <time>2021-07-25T10:07:04.000Z</time>
      </trkpt>
      <trkpt lat="47.11836" lon="-1.70994">
        <ele>58</ele>
        <time>2021-07-25T10:07:06.000Z</time>
      </trkpt>
      <trkpt lat="47.11849" lon="-1.70985">
        <ele>58</ele>
        <time>2021-07-25T10:07:08.000Z</time>
      </trkpt>
      <trkpt lat="47.11864" lon="-1.70976">
        <ele>58</ele>
        <time>2021-07-25T10:07:10.000Z</time>
      </trkpt>
      <trkpt lat="47.11878" lon="-1.70966">
        <ele>58</ele>
        <time>2021-07-25T10:07:12.000Z</time>
      </trkpt>
      <trkpt lat="47.11893" lon="-1.70957">
        <ele>59</ele>
        <time>2021-07-25T10:07:14.000Z</time>
      </trkpt>
      <trkpt lat="47.11907" lon="-1.70948">
        <ele>60</ele>
        <time>2021-07-25T10:07:16.000Z</time>
      </trkpt>
      <trkpt lat="47.11922" lon="-1.70938">
        <ele>60</ele>
        <time>2021-07-25T10:07:18.000Z</time>
      </trkpt>
      <trkpt lat="47.11936" lon="-1.70929">
        <ele>60</ele>
        <time>2021-07-25T10:07:20.000Z</time>
      </trkpt>
      <trkpt lat="47.1195" lon="-1.7092">
        <ele>60</ele>
        <time>2021-07-25T10:07:22.000Z</time>
      </trkpt>
      <trkpt lat="47.11964" lon="-1.70911">
        <ele>60</ele>
        <time>2021-07-25T10:07:24.000Z</time>
      </trkpt>
      <trkpt lat="47.11978" lon="-1.70902">
        <ele>60</ele>
        <time>2021-07-25T10:07:26.000Z</time>
      </trkpt>
      <trkpt lat="47.11992" lon="-1.70893">
        <ele>60</ele>
        <time>2021-07-25T10:07:28.000Z</time>
      </trkpt>
      <trkpt lat="47.12006" lon="-1.70884">
        <ele>59</ele>
        <time>2021-07-25T10:07:30.000Z</time>
      </trkpt>
      <trkpt lat="47.1202" lon="-1.70876">
        <ele>59</ele>
        <time>2021-07-25T10:07:32.000Z</time>
      </trkpt>
      <trkpt lat="47.12034" lon="-1.70866">
        <ele>60</ele>
        <time>2021-07-25T10:07:34.000Z</time>
      </trkpt>
      <trkpt lat="47.12047" lon="-1.70857">
        <ele>60</ele>
        <time>2021-07-25T10:07:36.000Z</time>
      </trkpt>
      <trkpt lat="47.12061" lon="-1.70848">
        <ele>60</ele>
        <time>2021-07-25T10:07:38.000Z</time>
      </trkpt>
      <trkpt lat="47.12075" lon="-1.7084">
        <ele>59</ele>
        <time>2021-07-25T10:07:40.000Z</time>
      </trkpt>
      <trkpt lat="47.12088" lon="-1.70831">
        <ele>59</ele>
        <time>2021-07-25T10:07:42.000Z</time>
      </trkpt>
      <trkpt lat="47.12102" lon="-1.70822">
        <ele>59</ele>
        <time>2021-07-25T10:07:44.000Z</time>
      </trkpt>
      <trkpt lat="47.12116" lon="-1.70813">
        <ele>59</ele>
        <time>2021-07-25T10:07:46.000Z</time>
      </trkpt>
      <trkpt lat="47.1213" lon="-1.70803">
        <ele>59</ele>
        <time>2021-07-25T10:07:48.000Z</time>
      </trkpt>
      <trkpt lat="47.12145" lon="-1.70794">
        <ele>58</ele>
        <time>2021-07-25T10:07:50.000Z</time>
      </trkpt>
      <trkpt lat="47.12159" lon="-1.70785">
        <ele>58</ele>
        <time>2021-07-25T10:07:52.000Z</time>
      </trkpt>
      <trkpt lat="47.12173" lon="-1.70775">
        <ele>58</ele>
        <time>2021-07-25T10:07:54.000Z</time>
      </trkpt>
      <trkpt lat="47.12187" lon="-1.70766">
        <ele>57</ele>
        <time>2021-07-25T10:07:56.000Z</time>
      </trkpt>
      <trkpt lat="47.122" lon="-1.70755">
        <ele>57</ele>
        <time>2021-07-25T10:07:58.000Z</time>
      </trkpt>
      <trkpt lat="47.12213" lon="-1.70743">
        <ele>56</ele>
        <time>2021-07-25T10:08:00.000Z</time>
      </trkpt>
      <trkpt lat="47.12227" lon="-1.7073">
        <ele>56</ele>
        <time>2021-07-25T10:08:02.000Z</time>
      </trkpt>
      <trkpt lat="47.1224" lon="-1.70716">
        <ele>56</ele>
        <time>2021-07-25T10:08:04.000Z</time>
      </trkpt>
      <trkpt lat="47.12252" lon="-1.70701">
        <ele>56</ele>
        <time>2021-07-25T10:08:06.000Z</time>
      </trkpt>
      <trkpt lat="47.12264" lon="-1.70685">
        <ele>56</ele>
        <time>2021-07-25T10:08:08.000Z</time>
      </trkpt>
      <trkpt lat="47.12276" lon="-1.70668">
        <ele>55</ele>
        <time>2021-07-25T10:08:10.000Z</time>
      </trkpt>
      <trkpt lat="47.12286" lon="-1.70652">
        <ele>55</ele>
        <time>2021-07-25T10:08:12.000Z</time>
      </trkpt>
      <trkpt lat="47.12297" lon="-1.70636">
        <ele>55</ele>
        <time>2021-07-25T10:08:14.000Z</time>
      </trkpt>
      <trkpt lat="47.12308" lon="-1.7062">
        <ele>55</ele>
        <time>2021-07-25T10:08:16.000Z</time>
      </trkpt>
      <trkpt lat="47.12319" lon="-1.70603">
        <ele>55</ele>
        <time>2021-07-25T10:08:18.000Z</time>
      </trkpt>
      <trkpt lat="47.1233" lon="-1.70587">
        <ele>55</ele>
        <time>2021-07-25T10:08:20.000Z</time>
      </trkpt>
      <trkpt lat="47.12341" lon="-1.70571">
        <ele>55</ele>
        <time>2021-07-25T10:08:22.000Z</time>
      </trkpt>
      <trkpt lat="47.12351" lon="-1.70554">
        <ele>55</ele>
        <time>2021-07-25T10:08:24.000Z</time>
      </trkpt>
      <trkpt lat="47.12361" lon="-1.70536">
        <ele>54</ele>
        <time>2021-07-25T10:08:26.000Z</time>
      </trkpt>
      <trkpt lat="47.1237" lon="-1.70515">
        <ele>54</ele>
        <time>2021-07-25T10:08:28.000Z</time>
      </trkpt>
      <trkpt lat="47.12378" lon="-1.70495">
        <ele>54</ele>
        <time>2021-07-25T10:08:30.000Z</time>
      </trkpt>
      <trkpt lat="47.12384" lon="-1.70473">
        <ele>54</ele>
        <time>2021-07-25T10:08:32.000Z</time>
      </trkpt>
      <trkpt lat="47.12389" lon="-1.70452">
        <ele>54</ele>
        <time>2021-07-25T10:08:34.000Z</time>
      </trkpt>
      <trkpt lat="47.12394" lon="-1.70431">
        <ele>54</ele>
        <time>2021-07-25T10:08:36.000Z</time>
      </trkpt>
      <trkpt lat="47.12398" lon="-1.70409">
        <ele>54</ele>
        <time>2021-07-25T10:08:38.000Z</time>
      </trkpt>
      <trkpt lat="47.12403" lon="-1.70388">
        <ele>55</ele>
        <time>2021-07-25T10:08:40.000Z</time>
      </trkpt>
      <trkpt lat="47.12407" lon="-1.70367">
        <ele>55</ele>
        <time>2021-07-25T10:08:42.000Z</time>
      </trkpt>
      <trkpt lat="47.12412" lon="-1.70346">
        <ele>56</ele>
        <time>2021-07-25T10:08:44.000Z</time>
      </trkpt>
      <trkpt lat="47.12417" lon="-1.70326">
        <ele>56</ele>
        <time>2021-07-25T10:08:46.000Z</time>
      </trkpt>
      <trkpt lat="47.12424" lon="-1.70307">
        <ele>57</ele>
        <time>2021-07-25T10:08:48.000Z</time>
      </trkpt>
      <trkpt lat="47.12433" lon="-1.70289">
        <ele>58</ele>
        <time>2021-07-25T10:08:50.000Z</time>
      </trkpt>
      <trkpt lat="47.12445" lon="-1.70274">
        <ele>59</ele>
        <time>2021-07-25T10:08:52.000Z</time>
      </trkpt>
      <trkpt lat="47.12457" lon="-1.70263">
        <ele>59</ele>
        <time>2021-07-25T10:08:54.000Z</time>
      </trkpt>
      <trkpt lat="47.12472" lon="-1.70254">
        <ele>60</ele>
        <time>2021-07-25T10:08:56.000Z</time>
      </trkpt>
      <trkpt lat="47.12487" lon="-1.70246">
        <ele>60</ele>
        <time>2021-07-25T10:08:58.000Z</time>
      </trkpt>
      <trkpt lat="47.12501" lon="-1.70237">
        <ele>61</ele>
        <time>2021-07-25T10:09:00.000Z</time>
      </trkpt>
      <trkpt lat="47.12516" lon="-1.70229">
        <ele>61</ele>
        <time>2021-07-25T10:09:02.000Z</time>
      </trkpt>
      <trkpt lat="47.1253" lon="-1.70222">
        <ele>61</ele>
        <time>2021-07-25T10:09:04.000Z</time>
      </trkpt>
      <trkpt lat="47.12545" lon="-1.70216">
        <ele>61</ele>
        <time>2021-07-25T10:09:06.000Z</time>
      </trkpt>
      <trkpt lat="47.12559" lon="-1.70209">
        <ele>61</ele>
        <time>2021-07-25T10:09:08.000Z</time>
      </trkpt>
      <trkpt lat="47.12573" lon="-1.70201">
        <ele>61</ele>
        <time>2021-07-25T10:09:10.000Z</time>
      </trkpt>
      <trkpt lat="47.12588" lon="-1.70194">
        <ele>60</ele>
        <time>2021-07-25T10:09:12.000Z</time>
      </trkpt>
      <trkpt lat="47.12603" lon="-1.70188">
        <ele>61</ele>
        <time>2021-07-25T10:09:14.000Z</time>
      </trkpt>
      <trkpt lat="47.12617" lon="-1.70181">
        <ele>60</ele>
        <time>2021-07-25T10:09:16.000Z</time>
      </trkpt>
      <trkpt lat="47.12632" lon="-1.70174">
        <ele>60</ele>
        <time>2021-07-25T10:09:18.000Z</time>
      </trkpt>
      <trkpt lat="47.12648" lon="-1.70164">
        <ele>58</ele>
        <time>2021-07-25T10:09:20.000Z</time>
      </trkpt>
      <trkpt lat="47.12663" lon="-1.70157">
        <ele>58</ele>
        <time>2021-07-25T10:09:22.000Z</time>
      </trkpt>
      <trkpt lat="47.12678" lon="-1.7015">
        <ele>58</ele>
        <time>2021-07-25T10:09:24.000Z</time>
      </trkpt>
      <trkpt lat="47.12693" lon="-1.70141">
        <ele>58</ele>
        <time>2021-07-25T10:09:26.000Z</time>
      </trkpt>
      <trkpt lat="47.12707" lon="-1.70134">
        <ele>59</ele>
        <time>2021-07-25T10:09:28.000Z</time>
      </trkpt>
      <trkpt lat="47.12721" lon="-1.70127">
        <ele>59</ele>
        <time>2021-07-25T10:09:30.000Z</time>
      </trkpt>
      <trkpt lat="47.12735" lon="-1.70118">
        <ele>60</ele>
        <time>2021-07-25T10:09:32.000Z</time>
      </trkpt>
      <trkpt lat="47.12751" lon="-1.7011">
        <ele>60</ele>
        <time>2021-07-25T10:09:34.000Z</time>
      </trkpt>
      <trkpt lat="47.12766" lon="-1.70103">
        <ele>59</ele>
        <time>2021-07-25T10:09:36.000Z</time>
      </trkpt>
      <trkpt lat="47.1278" lon="-1.70096">
        <ele>59</ele>
        <time>2021-07-25T10:09:38.000Z</time>
      </trkpt>
      <trkpt lat="47.12795" lon="-1.70088">
        <ele>60</ele>
        <time>2021-07-25T10:09:40.000Z</time>
      </trkpt>
      <trkpt lat="47.12809" lon="-1.70081">
        <ele>61</ele>
        <time>2021-07-25T10:09:42.000Z</time>
      </trkpt>
      <trkpt lat="47.12823" lon="-1.70073">
        <ele>60</ele>
        <time>2021-07-25T10:09:44.000Z</time>
      </trkpt>
      <trkpt lat="47.12836" lon="-1.70066">
        <ele>60</ele>
        <time>2021-07-25T10:09:46.000Z</time>
      </trkpt>
      <trkpt lat="47.1285" lon="-1.70059">
        <ele>60</ele>
        <time>2021-07-25T10:09:48.000Z</time>
      </trkpt>
      <trkpt lat="47.12865" lon="-1.7005">
        <ele>60</ele>
        <time>2021-07-25T10:09:50.000Z</time>
      </trkpt>
      <trkpt lat="47.12879" lon="-1.70043">
        <ele>61</ele>
        <time>2021-07-25T10:09:52.000Z</time>
      </trkpt>
      <trkpt lat="47.12893" lon="-1.70035">
        <ele>60</ele>
        <time>2021-07-25T10:09:54.000Z</time>
      </trkpt>
      <trkpt lat="47.12908" lon="-1.70028">
        <ele>60</ele>
        <time>2021-07-25T10:09:56.000Z</time>
      </trkpt>
      <trkpt lat="47.12922" lon="-1.7002">
        <ele>61</ele>
        <time>2021-07-25T10:09:58.000Z</time>
      </trkpt>
      <trkpt lat="47.12937" lon="-1.70013">
        <ele>61</ele>
        <time>2021-07-25T10:10:00.000Z</time>
      </trkpt>
      <trkpt lat="47.12952" lon="-1.70005">
        <ele>61</ele>
        <time>2021-07-25T10:10:02.000Z</time>
      </trkpt>
      <trkpt lat="47.12967" lon="-1.69997">
        <ele>61</ele>
        <time>2021-07-25T10:10:04.000Z</time>
      </trkpt>
      <trkpt lat="47.12982" lon="-1.6999">
        <ele>60</ele>
        <time>2021-07-25T10:10:06.000Z</time>
      </trkpt>
      <trkpt lat="47.12996" lon="-1.69981">
        <ele>60</ele>
        <time>2021-07-25T10:10:08.000Z</time>
      </trkpt>
      <trkpt lat="47.1301" lon="-1.69974">
        <ele>61</ele>
        <time>2021-07-25T10:10:10.000Z</time>
      </trkpt>
      <trkpt lat="47.13024" lon="-1.69966">
        <ele>60</ele>
        <time>2021-07-25T10:10:12.000Z</time>
      </trkpt>
      <trkpt lat="47.13039" lon="-1.6996">
        <ele>60</ele>
        <time>2021-07-25T10:10:14.000Z</time>
      </trkpt>
      <trkpt lat="47.13053" lon="-1.69953">
        <ele>60</ele>
        <time>2021-07-25T10:10:16.000Z</time>
      </trkpt>
      <trkpt lat="47.13067" lon="-1.69946">
        <ele>60</ele>
        <time>2021-07-25T10:10:18.000Z</time>
      </trkpt>
      <trkpt lat="47.1308" lon="-1.69938">
        <ele>61</ele>
        <time>2021-07-25T10:10:20.000Z</time>
      </trkpt>
      <trkpt lat="47.13095" lon="-1.69931">
        <ele>61</ele>
        <time>2021-07-25T10:10:22.000Z</time>
      </trkpt>
      <trkpt lat="47.13108" lon="-1.69924">
        <ele>61</ele>
        <time>2021-07-25T10:10:24.000Z</time>
      </trkpt>
      <trkpt lat="47.13122" lon="-1.69917">
        <ele>61</ele>
        <time>2021-07-25T10:10:26.000Z</time>
      </trkpt>
      <trkpt lat="47.13135" lon="-1.69909">
        <ele>62</ele>
        <time>2021-07-25T10:10:28.000Z</time>
      </trkpt>
      <trkpt lat="47.13149" lon="-1.69903">
        <ele>61</ele>
        <time>2021-07-25T10:10:30.000Z</time>
      </trkpt>
      <trkpt lat="47.13162" lon="-1.69895">
        <ele>61</ele>
        <time>2021-07-25T10:10:32.000Z</time>
      </trkpt>
      <trkpt lat="47.13175" lon="-1.69888">
        <ele>63</ele>
        <time>2021-07-25T10:10:34.000Z</time>
      </trkpt>
      <trkpt lat="47.13189" lon="-1.69882">
        <ele>63</ele>
        <time>2021-07-25T10:10:36.000Z</time>
      </trkpt>
      <trkpt lat="47.13201" lon="-1.69875">
        <ele>64</ele>
        <time>2021-07-25T10:10:38.000Z</time>
      </trkpt>
      <trkpt lat="47.13213" lon="-1.69868">
        <ele>64</ele>
        <time>2021-07-25T10:10:40.000Z</time>
      </trkpt>
      <trkpt lat="47.13225" lon="-1.69862">
        <ele>64</ele>
        <time>2021-07-25T10:10:42.000Z</time>
      </trkpt>
      <trkpt lat="47.13237" lon="-1.69855">
        <ele>65</ele>
        <time>2021-07-25T10:10:44.000Z</time>
      </trkpt>
      <trkpt lat="47.13249" lon="-1.6985">
        <ele>64</ele>
        <time>2021-07-25T10:10:46.000Z</time>
      </trkpt>
      <trkpt lat="47.1326" lon="-1.69844">
        <ele>62</ele>
        <time>2021-07-25T10:10:48.000Z</time>
      </trkpt>
      <trkpt lat="47.13272" lon="-1.69838">
        <ele>61</ele>
        <time>2021-07-25T10:10:50.000Z</time>
      </trkpt>
      <trkpt lat="47.13285" lon="-1.69831">
        <ele>61</ele>
        <time>2021-07-25T10:10:52.000Z</time>
      </trkpt>
      <trkpt lat="47.13298" lon="-1.69825">
        <ele>61</ele>
        <time>2021-07-25T10:10:54.000Z</time>
      </trkpt>
      <trkpt lat="47.13311" lon="-1.69818">
        <ele>62</ele>
        <time>2021-07-25T10:10:56.000Z</time>
      </trkpt>
      <trkpt lat="47.13324" lon="-1.6981">
        <ele>62</ele>
        <time>2021-07-25T10:10:58.000Z</time>
      </trkpt>
      <trkpt lat="47.13338" lon="-1.69802">
        <ele>61</ele>
        <time>2021-07-25T10:11:00.000Z</time>
      </trkpt>
      <trkpt lat="47.13352" lon="-1.69794">
        <ele>62</ele>
        <time>2021-07-25T10:11:02.000Z</time>
      </trkpt>
      <trkpt lat="47.13367" lon="-1.69787">
        <ele>62</ele>
        <time>2021-07-25T10:11:04.000Z</time>
      </trkpt>
      <trkpt lat="47.1338" lon="-1.69779">
        <ele>63</ele>
        <time>2021-07-25T10:11:06.000Z</time>
      </trkpt>
      <trkpt lat="47.13394" lon="-1.6977">
        <ele>63</ele>
        <time>2021-07-25T10:11:08.000Z</time>
      </trkpt>
      <trkpt lat="47.13407" lon="-1.69763">
        <ele>64</ele>
        <time>2021-07-25T10:11:10.000Z</time>
      </trkpt>
      <trkpt lat="47.13419" lon="-1.69757">
        <ele>64</ele>
        <time>2021-07-25T10:11:12.000Z</time>
      </trkpt>
      <trkpt lat="47.13432" lon="-1.6975">
        <ele>65</ele>
        <time>2021-07-25T10:11:14.000Z</time>
      </trkpt>
      <trkpt lat="47.13444" lon="-1.69745">
        <ele>65</ele>
        <time>2021-07-25T10:11:16.000Z</time>
      </trkpt>
      <trkpt lat="47.13459" lon="-1.6974">
        <ele>65</ele>
        <time>2021-07-25T10:11:18.000Z</time>
      </trkpt>
      <trkpt lat="47.13475" lon="-1.69737">
        <ele>65</ele>
        <time>2021-07-25T10:11:20.000Z</time>
      </trkpt>
      <trkpt lat="47.13491" lon="-1.69735">
        <ele>63</ele>
        <time>2021-07-25T10:11:22.000Z</time>
      </trkpt>
      <trkpt lat="47.13506" lon="-1.69734">
        <ele>61</ele>
        <time>2021-07-25T10:11:24.000Z</time>
      </trkpt>
      <trkpt lat="47.13521" lon="-1.69735">
        <ele>61</ele>
        <time>2021-07-25T10:11:26.000Z</time>
      </trkpt>
      <trkpt lat="47.13536" lon="-1.69734">
        <ele>59</ele>
        <time>2021-07-25T10:11:28.000Z</time>
      </trkpt>
      <trkpt lat="47.1355" lon="-1.69735">
        <ele>58</ele>
        <time>2021-07-25T10:11:30.000Z</time>
      </trkpt>
      <trkpt lat="47.13564" lon="-1.69735">
        <ele>57</ele>
        <time>2021-07-25T10:11:32.000Z</time>
      </trkpt>
      <trkpt lat="47.13578" lon="-1.69735">
        <ele>56</ele>
        <time>2021-07-25T10:11:34.000Z</time>
      </trkpt>
      <trkpt lat="47.13591" lon="-1.69735">
        <ele>56</ele>
        <time>2021-07-25T10:11:36.000Z</time>
      </trkpt>
      <trkpt lat="47.13605" lon="-1.69735">
        <ele>55</ele>
        <time>2021-07-25T10:11:38.000Z</time>
      </trkpt>
      <trkpt lat="47.13619" lon="-1.69734">
        <ele>55</ele>
        <time>2021-07-25T10:11:40.000Z</time>
      </trkpt>
      <trkpt lat="47.13633" lon="-1.69735">
        <ele>55</ele>
        <time>2021-07-25T10:11:42.000Z</time>
      </trkpt>
      <trkpt lat="47.13646" lon="-1.69735">
        <ele>56</ele>
        <time>2021-07-25T10:11:44.000Z</time>
      </trkpt>
      <trkpt lat="47.1366" lon="-1.69735">
        <ele>56</ele>
        <time>2021-07-25T10:11:46.000Z</time>
      </trkpt>
      <trkpt lat="47.13674" lon="-1.69735">
        <ele>56</ele>
        <time>2021-07-25T10:11:48.000Z</time>
      </trkpt>
      <trkpt lat="47.13688" lon="-1.69735">
        <ele>56</ele>
        <time>2021-07-25T10:11:50.000Z</time>
      </trkpt>
      <trkpt lat="47.13701" lon="-1.69735">
        <ele>56</ele>
        <time>2021-07-25T10:11:52.000Z</time>
      </trkpt>
      <trkpt lat="47.13715" lon="-1.69733">
        <ele>56</ele>
        <time>2021-07-25T10:11:54.000Z</time>
      </trkpt>
      <trkpt lat="47.13728" lon="-1.6973">
        <ele>57</ele>
        <time>2021-07-25T10:11:56.000Z</time>
      </trkpt>
      <trkpt lat="47.13741" lon="-1.69727">
        <ele>57</ele>
        <time>2021-07-25T10:11:58.000Z</time>
      </trkpt>
      <trkpt lat="47.13754" lon="-1.69724">
        <ele>57</ele>
        <time>2021-07-25T10:12:00.000Z</time>
      </trkpt>
      <trkpt lat="47.13767" lon="-1.69723">
        <ele>57</ele>
        <time>2021-07-25T10:12:02.000Z</time>
      </trkpt>
      <trkpt lat="47.1378" lon="-1.69722">
        <ele>57</ele>
        <time>2021-07-25T10:12:04.000Z</time>
      </trkpt>
      <trkpt lat="47.13793" lon="-1.69723">
        <ele>57</ele>
        <time>2021-07-25T10:12:06.000Z</time>
      </trkpt>
      <trkpt lat="47.13806" lon="-1.69724">
        <ele>58</ele>
        <time>2021-07-25T10:12:08.000Z</time>
      </trkpt>
      <trkpt lat="47.13819" lon="-1.69724">
        <ele>58</ele>
        <time>2021-07-25T10:12:10.000Z</time>
      </trkpt>
      <trkpt lat="47.13832" lon="-1.69725">
        <ele>58</ele>
        <time>2021-07-25T10:12:12.000Z</time>
      </trkpt>
      <trkpt lat="47.13845" lon="-1.69723">
        <ele>58</ele>
        <time>2021-07-25T10:12:14.000Z</time>
      </trkpt>
      <trkpt lat="47.13857" lon="-1.69721">
        <ele>58</ele>
        <time>2021-07-25T10:12:16.000Z</time>
      </trkpt>
      <trkpt lat="47.13869" lon="-1.69719">
        <ele>58</ele>
        <time>2021-07-25T10:12:18.000Z</time>
      </trkpt>
      <trkpt lat="47.13881" lon="-1.69717">
        <ele>58</ele>
        <time>2021-07-25T10:12:20.000Z</time>
      </trkpt>
      <trkpt lat="47.13893" lon="-1.69716">
        <ele>58</ele>
        <time>2021-07-25T10:12:22.000Z</time>
      </trkpt>
      <trkpt lat="47.13906" lon="-1.69715">
        <ele>58</ele>
        <time>2021-07-25T10:12:24.000Z</time>
      </trkpt>
      <trkpt lat="47.13918" lon="-1.69715">
        <ele>58</ele>
        <time>2021-07-25T10:12:26.000Z</time>
      </trkpt>
      <trkpt lat="47.13929" lon="-1.69716">
        <ele>59</ele>
        <time>2021-07-25T10:12:28.000Z</time>
      </trkpt>
      <trkpt lat="47.13941" lon="-1.69716">
        <ele>60</ele>
        <time>2021-07-25T10:12:30.000Z</time>
      </trkpt>
      <trkpt lat="47.13952" lon="-1.69716">
        <ele>60</ele>
        <time>2021-07-25T10:12:32.000Z</time>
      </trkpt>
      <trkpt lat="47.13964" lon="-1.69716">
        <ele>61</ele>
        <time>2021-07-25T10:12:34.000Z</time>
      </trkpt>
      <trkpt lat="47.13976" lon="-1.69718">
        <ele>61</ele>
        <time>2021-07-25T10:12:36.000Z</time>
      </trkpt>
      <trkpt lat="47.13988" lon="-1.69718">
        <ele>62</ele>
        <time>2021-07-25T10:12:38.000Z</time>
      </trkpt>
      <trkpt lat="47.14" lon="-1.69719">
        <ele>63</ele>
        <time>2021-07-25T10:12:40.000Z</time>
      </trkpt>
      <trkpt lat="47.14017" lon="-1.6972">
        <ele>64</ele>
        <time>2021-07-25T10:12:43.000Z</time>
      </trkpt>
      <trkpt lat="47.14028" lon="-1.69722">
        <ele>65</ele>
        <time>2021-07-25T10:12:45.000Z</time>
      </trkpt>
      <trkpt lat="47.1404" lon="-1.69723">
        <ele>65</ele>
        <time>2021-07-25T10:12:47.000Z</time>
      </trkpt>
      <trkpt lat="47.14052" lon="-1.69724">
        <ele>65</ele>
        <time>2021-07-25T10:12:49.000Z</time>
      </trkpt>
      <trkpt lat="47.14065" lon="-1.69725">
        <ele>65</ele>
        <time>2021-07-25T10:12:51.000Z</time>
      </trkpt>
      <trkpt lat="47.14078" lon="-1.69725">
        <ele>65</ele>
        <time>2021-07-25T10:12:53.000Z</time>
      </trkpt>
      <trkpt lat="47.14092" lon="-1.69724">
        <ele>65</ele>
        <time>2021-07-25T10:12:55.000Z</time>
      </trkpt>
      <trkpt lat="47.14105" lon="-1.69724">
        <ele>65</ele>
        <time>2021-07-25T10:12:57.000Z</time>
      </trkpt>
      <trkpt lat="47.14127" lon="-1.6972">
        <ele>64</ele>
        <time>2021-07-25T10:13:00.000Z</time>
      </trkpt>
      <trkpt lat="47.14141" lon="-1.69718">
        <ele>63</ele>
        <time>2021-07-25T10:13:02.000Z</time>
      </trkpt>
      <trkpt lat="47.14155" lon="-1.69716">
        <ele>63</ele>
        <time>2021-07-25T10:13:04.000Z</time>
      </trkpt>
      <trkpt lat="47.14169" lon="-1.69714">
        <ele>63</ele>
        <time>2021-07-25T10:13:06.000Z</time>
      </trkpt>
      <trkpt lat="47.14183" lon="-1.69712">
        <ele>63</ele>
        <time>2021-07-25T10:13:08.000Z</time>
      </trkpt>
      <trkpt lat="47.14197" lon="-1.69711">
        <ele>63</ele>
        <time>2021-07-25T10:13:10.000Z</time>
      </trkpt>
      <trkpt lat="47.14212" lon="-1.69708">
        <ele>62</ele>
        <time>2021-07-25T10:13:12.000Z</time>
      </trkpt>
      <trkpt lat="47.14226" lon="-1.69706">
        <ele>62</ele>
        <time>2021-07-25T10:13:14.000Z</time>
      </trkpt>
      <trkpt lat="47.14239" lon="-1.69704">
        <ele>63</ele>
        <time>2021-07-25T10:13:16.000Z</time>
      </trkpt>
      <trkpt lat="47.14252" lon="-1.69703">
        <ele>63</ele>
        <time>2021-07-25T10:13:18.000Z</time>
      </trkpt>
      <trkpt lat="47.14265" lon="-1.69703">
        <ele>63</ele>
        <time>2021-07-25T10:13:20.000Z</time>
      </trkpt>
      <trkpt lat="47.14277" lon="-1.69702">
        <ele>63</ele>
        <time>2021-07-25T10:13:22.000Z</time>
      </trkpt>
      <trkpt lat="47.1429" lon="-1.69703">
        <ele>64</ele>
        <time>2021-07-25T10:13:24.000Z</time>
      </trkpt>
      <trkpt lat="47.14302" lon="-1.69705">
        <ele>64</ele>
        <time>2021-07-25T10:13:26.000Z</time>
      </trkpt>
      <trkpt lat="47.14314" lon="-1.69705">
        <ele>63</ele>
        <time>2021-07-25T10:13:28.000Z</time>
      </trkpt>
      <trkpt lat="47.14323" lon="-1.697">
        <ele>62</ele>
        <time>2021-07-25T10:13:30.000Z</time>
      </trkpt>
      <trkpt lat="47.1433" lon="-1.69687">
        <ele>62</ele>
        <time>2021-07-25T10:13:32.000Z</time>
      </trkpt>
      <trkpt lat="47.14334" lon="-1.69671">
        <ele>63</ele>
        <time>2021-07-25T10:13:34.000Z</time>
      </trkpt>
      <trkpt lat="47.14338" lon="-1.69652">
        <ele>64</ele>
        <time>2021-07-25T10:13:36.000Z</time>
      </trkpt>
      <trkpt lat="47.14342" lon="-1.69635">
        <ele>64</ele>
        <time>2021-07-25T10:13:38.000Z</time>
      </trkpt>
      <trkpt lat="47.14347" lon="-1.69618">
        <ele>65</ele>
        <time>2021-07-25T10:13:40.000Z</time>
      </trkpt>
      <trkpt lat="47.14352" lon="-1.69601">
        <ele>67</ele>
        <time>2021-07-25T10:13:42.000Z</time>
      </trkpt>
      <trkpt lat="47.14357" lon="-1.69584">
        <ele>67</ele>
        <time>2021-07-25T10:13:44.000Z</time>
      </trkpt>
      <trkpt lat="47.14362" lon="-1.69568">
        <ele>67</ele>
        <time>2021-07-25T10:13:46.000Z</time>
      </trkpt>
      <trkpt lat="47.14367" lon="-1.69551">
        <ele>68</ele>
        <time>2021-07-25T10:13:48.000Z</time>
      </trkpt>
      <trkpt lat="47.14372" lon="-1.69533">
        <ele>68</ele>
        <time>2021-07-25T10:13:50.000Z</time>
      </trkpt>
      <trkpt lat="47.14375" lon="-1.69515">
        <ele>69</ele>
        <time>2021-07-25T10:13:52.000Z</time>
      </trkpt>
      <trkpt lat="47.14377" lon="-1.69496">
        <ele>69</ele>
        <time>2021-07-25T10:13:54.000Z</time>
      </trkpt>
      <trkpt lat="47.14377" lon="-1.69477">
        <ele>69</ele>
        <time>2021-07-25T10:13:56.000Z</time>
      </trkpt>
      <trkpt lat="47.14377" lon="-1.69459">
        <ele>69</ele>
        <time>2021-07-25T10:13:58.000Z</time>
      </trkpt>
      <trkpt lat="47.14378" lon="-1.69443">
        <ele>69</ele>
        <time>2021-07-25T10:14:00.000Z</time>
      </trkpt>
      <trkpt lat="47.14378" lon="-1.69429">
        <ele>70</ele>
        <time>2021-07-25T10:14:02.000Z</time>
      </trkpt>
      <trkpt lat="47.14379" lon="-1.69412">
        <ele>71</ele>
        <time>2021-07-25T10:14:05.000Z</time>
      </trkpt>
      <trkpt lat="47.1438" lon="-1.69398">
        <ele>71</ele>
        <time>2021-07-25T10:14:08.000Z</time>
      </trkpt>
      <trkpt lat="47.14381" lon="-1.69384">
        <ele>72</ele>
        <time>2021-07-25T10:14:13.000Z</time>
      </trkpt>
      <trkpt lat="47.14386" lon="-1.69368">
        <ele>73</ele>
        <time>2021-07-25T10:14:21.000Z</time>
      </trkpt>
      <trkpt lat="47.14388" lon="-1.69353">
        <ele>73</ele>
        <time>2021-07-25T10:14:23.000Z</time>
      </trkpt>
      <trkpt lat="47.1439" lon="-1.69336">
        <ele>73</ele>
        <time>2021-07-25T10:14:25.000Z</time>
      </trkpt>
      <trkpt lat="47.1439" lon="-1.69318">
        <ele>73</ele>
        <time>2021-07-25T10:14:27.000Z</time>
      </trkpt>
      <trkpt lat="47.14391" lon="-1.693">
        <ele>73</ele>
        <time>2021-07-25T10:14:29.000Z</time>
      </trkpt>
      <trkpt lat="47.14391" lon="-1.69282">
        <ele>73</ele>
        <time>2021-07-25T10:14:31.000Z</time>
      </trkpt>
      <trkpt lat="47.14391" lon="-1.69264">
        <ele>73</ele>
        <time>2021-07-25T10:14:33.000Z</time>
      </trkpt>
      <trkpt lat="47.14391" lon="-1.69245">
        <ele>73</ele>
        <time>2021-07-25T10:14:35.000Z</time>
      </trkpt>
      <trkpt lat="47.14391" lon="-1.69227">
        <ele>73</ele>
        <time>2021-07-25T10:14:37.000Z</time>
      </trkpt>
      <trkpt lat="47.14391" lon="-1.69208">
        <ele>73</ele>
        <time>2021-07-25T10:14:39.000Z</time>
      </trkpt>
      <trkpt lat="47.14392" lon="-1.69189">
        <ele>73</ele>
        <time>2021-07-25T10:14:41.000Z</time>
      </trkpt>
      <trkpt lat="47.14392" lon="-1.6917">
        <ele>73</ele>
        <time>2021-07-25T10:14:43.000Z</time>
      </trkpt>
      <trkpt lat="47.14392" lon="-1.69152">
        <ele>74</ele>
        <time>2021-07-25T10:14:45.000Z</time>
      </trkpt>
      <trkpt lat="47.14392" lon="-1.69132">
        <ele>74</ele>
        <time>2021-07-25T10:14:47.000Z</time>
      </trkpt>
      <trkpt lat="47.14393" lon="-1.69113">
        <ele>74</ele>
        <time>2021-07-25T10:14:49.000Z</time>
      </trkpt>
      <trkpt lat="47.14393" lon="-1.69093">
        <ele>74</ele>
        <time>2021-07-25T10:14:51.000Z</time>
      </trkpt>
      <trkpt lat="47.14393" lon="-1.69075">
        <ele>74</ele>
        <time>2021-07-25T10:14:53.000Z</time>
      </trkpt>
      <trkpt lat="47.14394" lon="-1.69055">
        <ele>74</ele>
        <time>2021-07-25T10:14:55.000Z</time>
      </trkpt>
      <trkpt lat="47.14394" lon="-1.69036">
        <ele>74</ele>
        <time>2021-07-25T10:14:57.000Z</time>
      </trkpt>
      <trkpt lat="47.14394" lon="-1.69018">
        <ele>74</ele>
        <time>2021-07-25T10:14:59.000Z</time>
      </trkpt>
      <trkpt lat="47.14394" lon="-1.69002">
        <ele>74</ele>
        <time>2021-07-25T10:15:01.000Z</time>
      </trkpt>
      <trkpt lat="47.14395" lon="-1.68985">
        <ele>74</ele>
        <time>2021-07-25T10:15:03.000Z</time>
      </trkpt>
      <trkpt lat="47.14395" lon="-1.68967">
        <ele>74</ele>
        <time>2021-07-25T10:15:05.000Z</time>
      </trkpt>
      <trkpt lat="47.14396" lon="-1.68947">
        <ele>74</ele>
        <time>2021-07-25T10:15:07.000Z</time>
      </trkpt>
      <trkpt lat="47.14397" lon="-1.68927">
        <ele>73</ele>
        <time>2021-07-25T10:15:09.000Z</time>
      </trkpt>
      <trkpt lat="47.14397" lon="-1.68907">
        <ele>73</ele>
        <time>2021-07-25T10:15:11.000Z</time>
      </trkpt>
      <trkpt lat="47.14398" lon="-1.68887">
        <ele>73</ele>
        <time>2021-07-25T10:15:13.000Z</time>
      </trkpt>
      <trkpt lat="47.144" lon="-1.68866">
        <ele>73</ele>
        <time>2021-07-25T10:15:15.000Z</time>
      </trkpt>
      <trkpt lat="47.14403" lon="-1.68846">
        <ele>73</ele>
        <time>2021-07-25T10:15:17.000Z</time>
      </trkpt>
      <trkpt lat="47.14404" lon="-1.68825">
        <ele>73</ele>
        <time>2021-07-25T10:15:19.000Z</time>
      </trkpt>
      <trkpt lat="47.14407" lon="-1.68803">
        <ele>72</ele>
        <time>2021-07-25T10:15:21.000Z</time>
      </trkpt>
      <trkpt lat="47.14409" lon="-1.68781">
        <ele>72</ele>
        <time>2021-07-25T10:15:23.000Z</time>
      </trkpt>
      <trkpt lat="47.1441" lon="-1.68759">
        <ele>72</ele>
        <time>2021-07-25T10:15:25.000Z</time>
      </trkpt>
      <trkpt lat="47.1441" lon="-1.68736">
        <ele>71</ele>
        <time>2021-07-25T10:15:27.000Z</time>
      </trkpt>
      <trkpt lat="47.14411" lon="-1.68714">
        <ele>70</ele>
        <time>2021-07-25T10:15:29.000Z</time>
      </trkpt>
      <trkpt lat="47.14411" lon="-1.68692">
        <ele>70</ele>
        <time>2021-07-25T10:15:31.000Z</time>
      </trkpt>
      <trkpt lat="47.14406" lon="-1.68673">
        <ele>69</ele>
        <time>2021-07-25T10:15:33.000Z</time>
      </trkpt>
      <trkpt lat="47.14403" lon="-1.68652">
        <ele>68</ele>
        <time>2021-07-25T10:15:35.000Z</time>
      </trkpt>
      <trkpt lat="47.14396" lon="-1.68634">
        <ele>67</ele>
        <time>2021-07-25T10:15:37.000Z</time>
      </trkpt>
      <trkpt lat="47.14392" lon="-1.68613">
        <ele>68</ele>
        <time>2021-07-25T10:15:39.000Z</time>
      </trkpt>
      <trkpt lat="47.1439" lon="-1.68592">
        <ele>69</ele>
        <time>2021-07-25T10:15:41.000Z</time>
      </trkpt>
      <trkpt lat="47.14389" lon="-1.68571">
        <ele>69</ele>
        <time>2021-07-25T10:15:43.000Z</time>
      </trkpt>
      <trkpt lat="47.14388" lon="-1.68549">
        <ele>69</ele>
        <time>2021-07-25T10:15:45.000Z</time>
      </trkpt>
      <trkpt lat="47.14388" lon="-1.68527">
        <ele>69</ele>
        <time>2021-07-25T10:15:47.000Z</time>
      </trkpt>
      <trkpt lat="47.1439" lon="-1.68505">
        <ele>69</ele>
        <time>2021-07-25T10:15:49.000Z</time>
      </trkpt>
      <trkpt lat="47.14391" lon="-1.68483">
        <ele>69</ele>
        <time>2021-07-25T10:15:51.000Z</time>
      </trkpt>
      <trkpt lat="47.14393" lon="-1.68462">
        <ele>69</ele>
        <time>2021-07-25T10:15:53.000Z</time>
      </trkpt>
      <trkpt lat="47.14394" lon="-1.6844">
        <ele>69</ele>
        <time>2021-07-25T10:15:55.000Z</time>
      </trkpt>
      <trkpt lat="47.14396" lon="-1.68419">
        <ele>69</ele>
        <time>2021-07-25T10:15:57.000Z</time>
      </trkpt>
      <trkpt lat="47.14397" lon="-1.68397">
        <ele>68</ele>
        <time>2021-07-25T10:15:59.000Z</time>
      </trkpt>
      <trkpt lat="47.14396" lon="-1.68374">
        <ele>68</ele>
        <time>2021-07-25T10:16:01.000Z</time>
      </trkpt>
      <trkpt lat="47.14393" lon="-1.68353">
        <ele>67</ele>
        <time>2021-07-25T10:16:03.000Z</time>
      </trkpt>
      <trkpt lat="47.1439" lon="-1.68332">
        <ele>67</ele>
        <time>2021-07-25T10:16:05.000Z</time>
      </trkpt>
      <trkpt lat="47.14386" lon="-1.68312">
        <ele>66</ele>
        <time>2021-07-25T10:16:07.000Z</time>
      </trkpt>
      <trkpt lat="47.14381" lon="-1.68291">
        <ele>66</ele>
        <time>2021-07-25T10:16:09.000Z</time>
      </trkpt>
      <trkpt lat="47.14375" lon="-1.68274">
        <ele>65</ele>
        <time>2021-07-25T10:16:11.000Z</time>
      </trkpt>
      <trkpt lat="47.14372" lon="-1.68257">
        <ele>65</ele>
        <time>2021-07-25T10:16:13.000Z</time>
      </trkpt>
      <trkpt lat="47.1437" lon="-1.68239">
        <ele>65</ele>
        <time>2021-07-25T10:16:15.000Z</time>
      </trkpt>
      <trkpt lat="47.1437" lon="-1.6822">
        <ele>66</ele>
        <time>2021-07-25T10:16:17.000Z</time>
      </trkpt>
      <trkpt lat="47.14373" lon="-1.68201">
        <ele>66</ele>
        <time>2021-07-25T10:16:19.000Z</time>
      </trkpt>
      <trkpt lat="47.14372" lon="-1.68182">
        <ele>66</ele>
        <time>2021-07-25T10:16:21.000Z</time>
      </trkpt>
      <trkpt lat="47.1437" lon="-1.68163">
        <ele>67</ele>
        <time>2021-07-25T10:16:23.000Z</time>
      </trkpt>
      <trkpt lat="47.14368" lon="-1.68144">
        <ele>67</ele>
        <time>2021-07-25T10:16:25.000Z</time>
      </trkpt>
      <trkpt lat="47.14369" lon="-1.68126">
        <ele>67</ele>
        <time>2021-07-25T10:16:27.000Z</time>
      </trkpt>
      <trkpt lat="47.14369" lon="-1.68107">
        <ele>67</ele>
        <time>2021-07-25T10:16:29.000Z</time>
      </trkpt>
      <trkpt lat="47.14368" lon="-1.68089">
        <ele>67</ele>
        <time>2021-07-25T10:16:31.000Z</time>
      </trkpt>
      <trkpt lat="47.14367" lon="-1.6807">
        <ele>66</ele>
        <time>2021-07-25T10:16:33.000Z</time>
      </trkpt>
      <trkpt lat="47.14366" lon="-1.68051">
        <ele>66</ele>
        <time>2021-07-25T10:16:35.000Z</time>
      </trkpt>
      <trkpt lat="47.14366" lon="-1.68031">
        <ele>66</ele>
        <time>2021-07-25T10:16:37.000Z</time>
      </trkpt>
      <trkpt lat="47.14364" lon="-1.68012">
        <ele>66</ele>
        <time>2021-07-25T10:16:39.000Z</time>
      </trkpt>
      <trkpt lat="47.14363" lon="-1.67993">
        <ele>67</ele>
        <time>2021-07-25T10:16:41.000Z</time>
      </trkpt>
      <trkpt lat="47.14362" lon="-1.67973">
        <ele>67</ele>
        <time>2021-07-25T10:16:43.000Z</time>
      </trkpt>
      <trkpt lat="47.14359" lon="-1.67955">
        <ele>67</ele>
        <time>2021-07-25T10:16:45.000Z</time>
      </trkpt>
      <trkpt lat="47.14358" lon="-1.67937">
        <ele>67</ele>
        <time>2021-07-25T10:16:47.000Z</time>
      </trkpt>
      <trkpt lat="47.14356" lon="-1.6792">
        <ele>67</ele>
        <time>2021-07-25T10:16:49.000Z</time>
      </trkpt>
      <trkpt lat="47.14351" lon="-1.67906">
        <ele>67</ele>
        <time>2021-07-25T10:16:52.000Z</time>
      </trkpt>
      <trkpt lat="47.14342" lon="-1.67889">
        <ele>68</ele>
        <time>2021-07-25T10:16:55.000Z</time>
      </trkpt>
      <trkpt lat="47.14339" lon="-1.67872">
        <ele>67</ele>
        <time>2021-07-25T10:16:57.000Z</time>
      </trkpt>
      <trkpt lat="47.14341" lon="-1.67852">
        <ele>68</ele>
        <time>2021-07-25T10:16:59.000Z</time>
      </trkpt>
      <trkpt lat="47.14344" lon="-1.67834">
        <ele>68</ele>
        <time>2021-07-25T10:17:01.000Z</time>
      </trkpt>
      <trkpt lat="47.14343" lon="-1.67814">
        <ele>68</ele>
        <time>2021-07-25T10:17:03.000Z</time>
      </trkpt>
      <trkpt lat="47.14341" lon="-1.67795">
        <ele>68</ele>
        <time>2021-07-25T10:17:05.000Z</time>
      </trkpt>
      <trkpt lat="47.14338" lon="-1.67776">
        <ele>68</ele>
        <time>2021-07-25T10:17:07.000Z</time>
      </trkpt>
      <trkpt lat="47.14333" lon="-1.67758">
        <ele>68</ele>
        <time>2021-07-25T10:17:09.000Z</time>
      </trkpt>
      <trkpt lat="47.14329" lon="-1.6774">
        <ele>67</ele>
        <time>2021-07-25T10:17:11.000Z</time>
      </trkpt>
      <trkpt lat="47.14324" lon="-1.67722">
        <ele>67</ele>
        <time>2021-07-25T10:17:13.000Z</time>
      </trkpt>
      <trkpt lat="47.14319" lon="-1.67704">
        <ele>67</ele>
        <time>2021-07-25T10:17:15.000Z</time>
      </trkpt>
      <trkpt lat="47.14315" lon="-1.67685">
        <ele>67</ele>
        <time>2021-07-25T10:17:17.000Z</time>
      </trkpt>
      <trkpt lat="47.14312" lon="-1.67666">
        <ele>67</ele>
        <time>2021-07-25T10:17:19.000Z</time>
      </trkpt>
      <trkpt lat="47.1431" lon="-1.67646">
        <ele>67</ele>
        <time>2021-07-25T10:17:21.000Z</time>
      </trkpt>
      <trkpt lat="47.14308" lon="-1.67626">
        <ele>66</ele>
        <time>2021-07-25T10:17:23.000Z</time>
      </trkpt>
      <trkpt lat="47.14306" lon="-1.67606">
        <ele>66</ele>
        <time>2021-07-25T10:17:25.000Z</time>
      </trkpt>
      <trkpt lat="47.14305" lon="-1.67585">
        <ele>67</ele>
        <time>2021-07-25T10:17:27.000Z</time>
      </trkpt>
      <trkpt lat="47.14303" lon="-1.67565">
        <ele>67</ele>
        <time>2021-07-25T10:17:29.000Z</time>
      </trkpt>
      <trkpt lat="47.14301" lon="-1.67545">
        <ele>67</ele>
        <time>2021-07-25T10:17:31.000Z</time>
      </trkpt>
      <trkpt lat="47.14299" lon="-1.67526">
        <ele>68</ele>
        <time>2021-07-25T10:17:33.000Z</time>
      </trkpt>
      <trkpt lat="47.14295" lon="-1.67507">
        <ele>68</ele>
        <time>2021-07-25T10:17:35.000Z</time>
      </trkpt>
      <trkpt lat="47.14291" lon="-1.67487">
        <ele>68</ele>
        <time>2021-07-25T10:17:37.000Z</time>
      </trkpt>
      <trkpt lat="47.14285" lon="-1.67469">
        <ele>68</ele>
        <time>2021-07-25T10:17:39.000Z</time>
      </trkpt>
      <trkpt lat="47.14279" lon="-1.67451">
        <ele>68</ele>
        <time>2021-07-25T10:17:41.000Z</time>
      </trkpt>
      <trkpt lat="47.14273" lon="-1.67433">
        <ele>68</ele>
        <time>2021-07-25T10:17:43.000Z</time>
      </trkpt>
      <trkpt lat="47.14267" lon="-1.67415">
        <ele>68</ele>
        <time>2021-07-25T10:17:45.000Z</time>
      </trkpt>
      <trkpt lat="47.14261" lon="-1.67399">
        <ele>68</ele>
        <time>2021-07-25T10:17:47.000Z</time>
      </trkpt>
      <trkpt lat="47.14254" lon="-1.67383">
        <ele>68</ele>
        <time>2021-07-25T10:17:49.000Z</time>
      </trkpt>
      <trkpt lat="47.14247" lon="-1.67367">
        <ele>68</ele>
        <time>2021-07-25T10:17:51.000Z</time>
      </trkpt>
      <trkpt lat="47.1424" lon="-1.67351">
        <ele>67</ele>
        <time>2021-07-25T10:17:53.000Z</time>
      </trkpt>
      <trkpt lat="47.14234" lon="-1.67335">
        <ele>67</ele>
        <time>2021-07-25T10:17:55.000Z</time>
      </trkpt>
      <trkpt lat="47.14227" lon="-1.67319">
        <ele>67</ele>
        <time>2021-07-25T10:17:57.000Z</time>
      </trkpt>
      <trkpt lat="47.14219" lon="-1.67303">
        <ele>66</ele>
        <time>2021-07-25T10:17:59.000Z</time>
      </trkpt>
      <trkpt lat="47.14212" lon="-1.67285">
        <ele>66</ele>
        <time>2021-07-25T10:18:01.000Z</time>
      </trkpt>
      <trkpt lat="47.14205" lon="-1.67268">
        <ele>66</ele>
        <time>2021-07-25T10:18:03.000Z</time>
      </trkpt>
      <trkpt lat="47.14198" lon="-1.6725">
        <ele>66</ele>
        <time>2021-07-25T10:18:05.000Z</time>
      </trkpt>
      <trkpt lat="47.14195" lon="-1.6723">
        <ele>66</ele>
        <time>2021-07-25T10:18:07.000Z</time>
      </trkpt>
      <trkpt lat="47.14191" lon="-1.6721">
        <ele>66</ele>
        <time>2021-07-25T10:18:09.000Z</time>
      </trkpt>
      <trkpt lat="47.14187" lon="-1.67189">
        <ele>66</ele>
        <time>2021-07-25T10:18:11.000Z</time>
      </trkpt>
      <trkpt lat="47.14184" lon="-1.6717">
        <ele>66</ele>
        <time>2021-07-25T10:18:13.000Z</time>
      </trkpt>
      <trkpt lat="47.1418" lon="-1.67151">
        <ele>66</ele>
        <time>2021-07-25T10:18:15.000Z</time>
      </trkpt>
      <trkpt lat="47.14176" lon="-1.67132">
        <ele>65</ele>
        <time>2021-07-25T10:18:17.000Z</time>
      </trkpt>
      <trkpt lat="47.14172" lon="-1.67113">
        <ele>65</ele>
        <time>2021-07-25T10:18:19.000Z</time>
      </trkpt>
      <trkpt lat="47.14169" lon="-1.67093">
        <ele>66</ele>
        <time>2021-07-25T10:18:21.000Z</time>
      </trkpt>
      <trkpt lat="47.14167" lon="-1.67073">
        <ele>65</ele>
        <time>2021-07-25T10:18:23.000Z</time>
      </trkpt>
      <trkpt lat="47.14166" lon="-1.67052">
        <ele>65</ele>
        <time>2021-07-25T10:18:25.000Z</time>
      </trkpt>
      <trkpt lat="47.14164" lon="-1.67031">
        <ele>65</ele>
        <time>2021-07-25T10:18:27.000Z</time>
      </trkpt>
      <trkpt lat="47.14163" lon="-1.67011">
        <ele>65</ele>
        <time>2021-07-25T10:18:29.000Z</time>
      </trkpt>
      <trkpt lat="47.14162" lon="-1.6699">
        <ele>65</ele>
        <time>2021-07-25T10:18:31.000Z</time>
      </trkpt>
      <trkpt lat="47.14161" lon="-1.66969">
        <ele>64</ele>
        <time>2021-07-25T10:18:33.000Z</time>
      </trkpt>
      <trkpt lat="47.14162" lon="-1.66948">
        <ele>64</ele>
        <time>2021-07-25T10:18:35.000Z</time>
      </trkpt>
      <trkpt lat="47.14164" lon="-1.66929">
        <ele>65</ele>
        <time>2021-07-25T10:18:37.000Z</time>
      </trkpt>
      <trkpt lat="47.14168" lon="-1.66908">
        <ele>65</ele>
        <time>2021-07-25T10:18:39.000Z</time>
      </trkpt>
      <trkpt lat="47.14173" lon="-1.66888">
        <ele>65</ele>
        <time>2021-07-25T10:18:41.000Z</time>
      </trkpt>
      <trkpt lat="47.14178" lon="-1.66869">
        <ele>64</ele>
        <time>2021-07-25T10:18:43.000Z</time>
      </trkpt>
      <trkpt lat="47.14184" lon="-1.6685">
        <ele>64</ele>
        <time>2021-07-25T10:18:45.000Z</time>
      </trkpt>
      <trkpt lat="47.14191" lon="-1.66831">
        <ele>64</ele>
        <time>2021-07-25T10:18:47.000Z</time>
      </trkpt>
      <trkpt lat="47.14197" lon="-1.66812">
        <ele>64</ele>
        <time>2021-07-25T10:18:49.000Z</time>
      </trkpt>
      <trkpt lat="47.14203" lon="-1.66793">
        <ele>63</ele>
        <time>2021-07-25T10:18:51.000Z</time>
      </trkpt>
      <trkpt lat="47.14209" lon="-1.66773">
        <ele>64</ele>
        <time>2021-07-25T10:18:53.000Z</time>
      </trkpt>
      <trkpt lat="47.14215" lon="-1.66755">
        <ele>64</ele>
        <time>2021-07-25T10:18:55.000Z</time>
      </trkpt>
      <trkpt lat="47.14221" lon="-1.66737">
        <ele>64</ele>
        <time>2021-07-25T10:18:57.000Z</time>
      </trkpt>
      <trkpt lat="47.14227" lon="-1.66718">
        <ele>64</ele>
        <time>2021-07-25T10:18:59.000Z</time>
      </trkpt>
      <trkpt lat="47.14233" lon="-1.66699">
        <ele>64</ele>
        <time>2021-07-25T10:19:01.000Z</time>
      </trkpt>
      <trkpt lat="47.14239" lon="-1.66681">
        <ele>64</ele>
        <time>2021-07-25T10:19:03.000Z</time>
      </trkpt>
      <trkpt lat="47.14245" lon="-1.66663">
        <ele>65</ele>
        <time>2021-07-25T10:19:05.000Z</time>
      </trkpt>
      <trkpt lat="47.14251" lon="-1.66645">
        <ele>65</ele>
        <time>2021-07-25T10:19:07.000Z</time>
      </trkpt>
      <trkpt lat="47.14257" lon="-1.66627">
        <ele>65</ele>
        <time>2021-07-25T10:19:09.000Z</time>
      </trkpt>
      <trkpt lat="47.14263" lon="-1.66609">
        <ele>65</ele>
        <time>2021-07-25T10:19:11.000Z</time>
      </trkpt>
      <trkpt lat="47.14268" lon="-1.66591">
        <ele>65</ele>
        <time>2021-07-25T10:19:13.000Z</time>
      </trkpt>
      <trkpt lat="47.14273" lon="-1.66574">
        <ele>66</ele>
        <time>2021-07-25T10:19:15.000Z</time>
      </trkpt>
      <trkpt lat="47.14277" lon="-1.66556">
        <ele>66</ele>
        <time>2021-07-25T10:19:17.000Z</time>
      </trkpt>
      <trkpt lat="47.14282" lon="-1.66539">
        <ele>66</ele>
        <time>2021-07-25T10:19:19.000Z</time>
      </trkpt>
      <trkpt lat="47.14286" lon="-1.66521">
        <ele>66</ele>
        <time>2021-07-25T10:19:21.000Z</time>
      </trkpt>
      <trkpt lat="47.14291" lon="-1.66504">
        <ele>66</ele>
        <time>2021-07-25T10:19:23.000Z</time>
      </trkpt>
      <trkpt lat="47.14296" lon="-1.66486">
        <ele>65</ele>
        <time>2021-07-25T10:19:25.000Z</time>
      </trkpt>
      <trkpt lat="47.143" lon="-1.66468">
        <ele>65</ele>
        <time>2021-07-25T10:19:27.000Z</time>
      </trkpt>
      <trkpt lat="47.14305" lon="-1.6645">
        <ele>65</ele>
        <time>2021-07-25T10:19:29.000Z</time>
      </trkpt>
      <trkpt lat="47.14309" lon="-1.66432">
        <ele>66</ele>
        <time>2021-07-25T10:19:31.000Z</time>
      </trkpt>
      <trkpt lat="47.14314" lon="-1.66414">
        <ele>66</ele>
        <time>2021-07-25T10:19:33.000Z</time>
      </trkpt>
      <trkpt lat="47.14318" lon="-1.66396">
        <ele>66</ele>
        <time>2021-07-25T10:19:35.000Z</time>
      </trkpt>
      <trkpt lat="47.14323" lon="-1.66377">
        <ele>66</ele>
        <time>2021-07-25T10:19:37.000Z</time>
      </trkpt>
      <trkpt lat="47.14327" lon="-1.66359">
        <ele>66</ele>
        <time>2021-07-25T10:19:39.000Z</time>
      </trkpt>
      <trkpt lat="47.14331" lon="-1.6634">
        <ele>66</ele>
        <time>2021-07-25T10:19:41.000Z</time>
      </trkpt>
      <trkpt lat="47.14335" lon="-1.66322">
        <ele>66</ele>
        <time>2021-07-25T10:19:43.000Z</time>
      </trkpt>
      <trkpt lat="47.1434" lon="-1.66303">
        <ele>67</ele>
        <time>2021-07-25T10:19:45.000Z</time>
      </trkpt>
      <trkpt lat="47.14345" lon="-1.66284">
        <ele>67</ele>
        <time>2021-07-25T10:19:47.000Z</time>
      </trkpt>
      <trkpt lat="47.14349" lon="-1.66265">
        <ele>67</ele>
        <time>2021-07-25T10:19:49.000Z</time>
      </trkpt>
      <trkpt lat="47.14353" lon="-1.66246">
        <ele>67</ele>
        <time>2021-07-25T10:19:51.000Z</time>
      </trkpt>
      <trkpt lat="47.14357" lon="-1.66228">
        <ele>67</ele>
        <time>2021-07-25T10:19:53.000Z</time>
      </trkpt>
      <trkpt lat="47.14361" lon="-1.66209">
        <ele>67</ele>
        <time>2021-07-25T10:19:55.000Z</time>
      </trkpt>
      <trkpt lat="47.14366" lon="-1.66191">
        <ele>67</ele>
        <time>2021-07-25T10:19:57.000Z</time>
      </trkpt>
      <trkpt lat="47.1437" lon="-1.66172">
        <ele>68</ele>
        <time>2021-07-25T10:19:59.000Z</time>
      </trkpt>
      <trkpt lat="47.14373" lon="-1.66153">
        <ele>68</ele>
        <time>2021-07-25T10:20:01.000Z</time>
      </trkpt>
      <trkpt lat="47.14375" lon="-1.66133">
        <ele>68</ele>
        <time>2021-07-25T10:20:03.000Z</time>
      </trkpt>
      <trkpt lat="47.14378" lon="-1.66113">
        <ele>68</ele>
        <time>2021-07-25T10:20:05.000Z</time>
      </trkpt>
      <trkpt lat="47.1438" lon="-1.66093">
        <ele>68</ele>
        <time>2021-07-25T10:20:07.000Z</time>
      </trkpt>
      <trkpt lat="47.14381" lon="-1.66073">
        <ele>68</ele>
        <time>2021-07-25T10:20:09.000Z</time>
      </trkpt>
      <trkpt lat="47.14383" lon="-1.66053">
        <ele>68</ele>
        <time>2021-07-25T10:20:11.000Z</time>
      </trkpt>
      <trkpt lat="47.14385" lon="-1.66034">
        <ele>68</ele>
        <time>2021-07-25T10:20:13.000Z</time>
      </trkpt>
      <trkpt lat="47.14387" lon="-1.66014">
        <ele>68</ele>
        <time>2021-07-25T10:20:15.000Z</time>
      </trkpt>
      <trkpt lat="47.14388" lon="-1.65995">
        <ele>67</ele>
        <time>2021-07-25T10:20:17.000Z</time>
      </trkpt>
      <trkpt lat="47.14389" lon="-1.65974">
        <ele>67</ele>
        <time>2021-07-25T10:20:19.000Z</time>
      </trkpt>
      <trkpt lat="47.1439" lon="-1.65954">
        <ele>68</ele>
        <time>2021-07-25T10:20:21.000Z</time>
      </trkpt>
      <trkpt lat="47.14391" lon="-1.65933">
        <ele>68</ele>
        <time>2021-07-25T10:20:23.000Z</time>
      </trkpt>
      <trkpt lat="47.14392" lon="-1.65912">
        <ele>68</ele>
        <time>2021-07-25T10:20:25.000Z</time>
      </trkpt>
      <trkpt lat="47.14394" lon="-1.65892">
        <ele>68</ele>
        <time>2021-07-25T10:20:27.000Z</time>
      </trkpt>
      <trkpt lat="47.14395" lon="-1.65871">
        <ele>68</ele>
        <time>2021-07-25T10:20:29.000Z</time>
      </trkpt>
      <trkpt lat="47.14397" lon="-1.65851">
        <ele>68</ele>
        <time>2021-07-25T10:20:31.000Z</time>
      </trkpt>
      <trkpt lat="47.14399" lon="-1.6583">
        <ele>68</ele>
        <time>2021-07-25T10:20:33.000Z</time>
      </trkpt>
      <trkpt lat="47.14401" lon="-1.65809">
        <ele>67</ele>
        <time>2021-07-25T10:20:35.000Z</time>
      </trkpt>
      <trkpt lat="47.14403" lon="-1.65789">
        <ele>67</ele>
        <time>2021-07-25T10:20:37.000Z</time>
      </trkpt>
      <trkpt lat="47.14406" lon="-1.65768">
        <ele>67</ele>
        <time>2021-07-25T10:20:39.000Z</time>
      </trkpt>
      <trkpt lat="47.14409" lon="-1.65747">
        <ele>67</ele>
        <time>2021-07-25T10:20:41.000Z</time>
      </trkpt>
      <trkpt lat="47.14412" lon="-1.65726">
        <ele>67</ele>
        <time>2021-07-25T10:20:43.000Z</time>
      </trkpt>
      <trkpt lat="47.14417" lon="-1.65705">
        <ele>67</ele>
        <time>2021-07-25T10:20:45.000Z</time>
      </trkpt>
      <trkpt lat="47.14422" lon="-1.65685">
        <ele>68</ele>
        <time>2021-07-25T10:20:47.000Z</time>
      </trkpt>
      <trkpt lat="47.14428" lon="-1.65665">
        <ele>67</ele>
        <time>2021-07-25T10:20:49.000Z</time>
      </trkpt>
      <trkpt lat="47.14434" lon="-1.65646">
        <ele>67</ele>
        <time>2021-07-25T10:20:51.000Z</time>
      </trkpt>
      <trkpt lat="47.1444" lon="-1.65627">
        <ele>67</ele>
        <time>2021-07-25T10:20:53.000Z</time>
      </trkpt>
      <trkpt lat="47.14447" lon="-1.65608">
        <ele>67</ele>
        <time>2021-07-25T10:20:55.000Z</time>
      </trkpt>
      <trkpt lat="47.14454" lon="-1.6559">
        <ele>66</ele>
        <time>2021-07-25T10:20:57.000Z</time>
      </trkpt>
      <trkpt lat="47.14462" lon="-1.65572">
        <ele>67</ele>
        <time>2021-07-25T10:20:59.000Z</time>
      </trkpt>
      <trkpt lat="47.14469" lon="-1.65554">
        <ele>67</ele>
        <time>2021-07-25T10:21:01.000Z</time>
      </trkpt>
      <trkpt lat="47.14476" lon="-1.65536">
        <ele>67</ele>
        <time>2021-07-25T10:21:03.000Z</time>
      </trkpt>
      <trkpt lat="47.14483" lon="-1.65519">
        <ele>67</ele>
        <time>2021-07-25T10:21:05.000Z</time>
      </trkpt>
      <trkpt lat="47.1449" lon="-1.65501">
        <ele>67</ele>
        <time>2021-07-25T10:21:07.000Z</time>
      </trkpt>
      <trkpt lat="47.14497" lon="-1.65483">
        <ele>67</ele>
        <time>2021-07-25T10:21:09.000Z</time>
      </trkpt>
      <trkpt lat="47.14504" lon="-1.65465">
        <ele>66</ele>
        <time>2021-07-25T10:21:11.000Z</time>
      </trkpt>
      <trkpt lat="47.14511" lon="-1.65447">
        <ele>66</ele>
        <time>2021-07-25T10:21:13.000Z</time>
      </trkpt>
      <trkpt lat="47.14517" lon="-1.65428">
        <ele>66</ele>
        <time>2021-07-25T10:21:15.000Z</time>
      </trkpt>
      <trkpt lat="47.14522" lon="-1.6541">
        <ele>66</ele>
        <time>2021-07-25T10:21:17.000Z</time>
      </trkpt>
      <trkpt lat="47.14523" lon="-1.6539">
        <ele>66</ele>
        <time>2021-07-25T10:21:19.000Z</time>
      </trkpt>
      <trkpt lat="47.14526" lon="-1.65371">
        <ele>66</ele>
        <time>2021-07-25T10:21:21.000Z</time>
      </trkpt>
      <trkpt lat="47.14531" lon="-1.65353">
        <ele>66</ele>
        <time>2021-07-25T10:21:23.000Z</time>
      </trkpt>
      <trkpt lat="47.14536" lon="-1.65334">
        <ele>66</ele>
        <time>2021-07-25T10:21:25.000Z</time>
      </trkpt>
      <trkpt lat="47.14542" lon="-1.65315">
        <ele>66</ele>
        <time>2021-07-25T10:21:27.000Z</time>
      </trkpt>
      <trkpt lat="47.1455" lon="-1.65298">
        <ele>67</ele>
        <time>2021-07-25T10:21:29.000Z</time>
      </trkpt>
      <trkpt lat="47.14555" lon="-1.65278">
        <ele>67</ele>
        <time>2021-07-25T10:21:31.000Z</time>
      </trkpt>
      <trkpt lat="47.1456" lon="-1.65259">
        <ele>67</ele>
        <time>2021-07-25T10:21:33.000Z</time>
      </trkpt>
      <trkpt lat="47.14564" lon="-1.6524">
        <ele>67</ele>
        <time>2021-07-25T10:21:35.000Z</time>
      </trkpt>
      <trkpt lat="47.14568" lon="-1.65219">
        <ele>67</ele>
        <time>2021-07-25T10:21:37.000Z</time>
      </trkpt>
      <trkpt lat="47.14573" lon="-1.65201">
        <ele>68</ele>
        <time>2021-07-25T10:21:39.000Z</time>
      </trkpt>
      <trkpt lat="47.14578" lon="-1.65181">
        <ele>68</ele>
        <time>2021-07-25T10:21:41.000Z</time>
      </trkpt>
      <trkpt lat="47.14583" lon="-1.65163">
        <ele>68</ele>
        <time>2021-07-25T10:21:43.000Z</time>
      </trkpt>
      <trkpt lat="47.14589" lon="-1.65145">
        <ele>68</ele>
        <time>2021-07-25T10:21:45.000Z</time>
      </trkpt>
      <trkpt lat="47.14595" lon="-1.65127">
        <ele>68</ele>
        <time>2021-07-25T10:21:47.000Z</time>
      </trkpt>
      <trkpt lat="47.14601" lon="-1.65109">
        <ele>69</ele>
        <time>2021-07-25T10:21:49.000Z</time>
      </trkpt>
      <trkpt lat="47.14608" lon="-1.65091">
        <ele>68</ele>
        <time>2021-07-25T10:21:51.000Z</time>
      </trkpt>
      <trkpt lat="47.14615" lon="-1.65073">
        <ele>68</ele>
        <time>2021-07-25T10:21:53.000Z</time>
      </trkpt>
      <trkpt lat="47.14622" lon="-1.65055">
        <ele>69</ele>
        <time>2021-07-25T10:21:55.000Z</time>
      </trkpt>
      <trkpt lat="47.14629" lon="-1.65038">
        <ele>69</ele>
        <time>2021-07-25T10:21:57.000Z</time>
      </trkpt>
      <trkpt lat="47.14635" lon="-1.65021">
        <ele>69</ele>
        <time>2021-07-25T10:21:59.000Z</time>
      </trkpt>
      <trkpt lat="47.14642" lon="-1.65005">
        <ele>69</ele>
        <time>2021-07-25T10:22:01.000Z</time>
      </trkpt>
      <trkpt lat="47.14649" lon="-1.64987">
        <ele>69</ele>
        <time>2021-07-25T10:22:03.000Z</time>
      </trkpt>
      <trkpt lat="47.14656" lon="-1.64971">
        <ele>69</ele>
        <time>2021-07-25T10:22:05.000Z</time>
      </trkpt>
      <trkpt lat="47.14662" lon="-1.64954">
        <ele>69</ele>
        <time>2021-07-25T10:22:07.000Z</time>
      </trkpt>
      <trkpt lat="47.14668" lon="-1.64936">
        <ele>69</ele>
        <time>2021-07-25T10:22:09.000Z</time>
      </trkpt>
      <trkpt lat="47.14674" lon="-1.64917">
        <ele>69</ele>
        <time>2021-07-25T10:22:11.000Z</time>
      </trkpt>
      <trkpt lat="47.1468" lon="-1.64899">
        <ele>69</ele>
        <time>2021-07-25T10:22:13.000Z</time>
      </trkpt>
      <trkpt lat="47.14685" lon="-1.64882">
        <ele>70</ele>
        <time>2021-07-25T10:22:15.000Z</time>
      </trkpt>
      <trkpt lat="47.1469" lon="-1.64865">
        <ele>70</ele>
        <time>2021-07-25T10:22:17.000Z</time>
      </trkpt>
      <trkpt lat="47.14696" lon="-1.64846">
        <ele>71</ele>
        <time>2021-07-25T10:22:19.000Z</time>
      </trkpt>
      <trkpt lat="47.147" lon="-1.64828">
        <ele>71</ele>
        <time>2021-07-25T10:22:21.000Z</time>
      </trkpt>
      <trkpt lat="47.14705" lon="-1.64809">
        <ele>72</ele>
        <time>2021-07-25T10:22:23.000Z</time>
      </trkpt>
      <trkpt lat="47.1471" lon="-1.64791">
        <ele>72</ele>
        <time>2021-07-25T10:22:25.000Z</time>
      </trkpt>
      <trkpt lat="47.14715" lon="-1.64773">
        <ele>72</ele>
        <time>2021-07-25T10:22:27.000Z</time>
      </trkpt>
      <trkpt lat="47.14719" lon="-1.64753">
        <ele>72</ele>
        <time>2021-07-25T10:22:29.000Z</time>
      </trkpt>
      <trkpt lat="47.14724" lon="-1.64734">
        <ele>73</ele>
        <time>2021-07-25T10:22:31.000Z</time>
      </trkpt>
      <trkpt lat="47.14728" lon="-1.64715">
        <ele>73</ele>
        <time>2021-07-25T10:22:33.000Z</time>
      </trkpt>
      <trkpt lat="47.14732" lon="-1.64696">
        <ele>74</ele>
        <time>2021-07-25T10:22:35.000Z</time>
      </trkpt>
      <trkpt lat="47.14735" lon="-1.64677">
        <ele>74</ele>
        <time>2021-07-25T10:22:37.000Z</time>
      </trkpt>
      <trkpt lat="47.14738" lon="-1.64659">
        <ele>74</ele>
        <time>2021-07-25T10:22:39.000Z</time>
      </trkpt>
      <trkpt lat="47.14741" lon="-1.64639">
        <ele>75</ele>
        <time>2021-07-25T10:22:41.000Z</time>
      </trkpt>
      <trkpt lat="47.14745" lon="-1.6462">
        <ele>74</ele>
        <time>2021-07-25T10:22:43.000Z</time>
      </trkpt>
      <trkpt lat="47.14747" lon="-1.64601">
        <ele>75</ele>
        <time>2021-07-25T10:22:45.000Z</time>
      </trkpt>
      <trkpt lat="47.1475" lon="-1.64581">
        <ele>75</ele>
        <time>2021-07-25T10:22:47.000Z</time>
      </trkpt>
      <trkpt lat="47.14753" lon="-1.64561">
        <ele>75</ele>
        <time>2021-07-25T10:22:49.000Z</time>
      </trkpt>
      <trkpt lat="47.14756" lon="-1.64541">
        <ele>75</ele>
        <time>2021-07-25T10:22:51.000Z</time>
      </trkpt>
      <trkpt lat="47.14759" lon="-1.6452">
        <ele>75</ele>
        <time>2021-07-25T10:22:53.000Z</time>
      </trkpt>
      <trkpt lat="47.14763" lon="-1.645">
        <ele>75</ele>
        <time>2021-07-25T10:22:55.000Z</time>
      </trkpt>
      <trkpt lat="47.14766" lon="-1.64479">
        <ele>74</ele>
        <time>2021-07-25T10:22:57.000Z</time>
      </trkpt>
      <trkpt lat="47.1477" lon="-1.64458">
        <ele>74</ele>
        <time>2021-07-25T10:22:59.000Z</time>
      </trkpt>
      <trkpt lat="47.14773" lon="-1.64438">
        <ele>75</ele>
        <time>2021-07-25T10:23:01.000Z</time>
      </trkpt>
      <trkpt lat="47.14777" lon="-1.64417">
        <ele>75</ele>
        <time>2021-07-25T10:23:03.000Z</time>
      </trkpt>
      <trkpt lat="47.14782" lon="-1.64397">
        <ele>75</ele>
        <time>2021-07-25T10:23:05.000Z</time>
      </trkpt>
      <trkpt lat="47.14786" lon="-1.64377">
        <ele>74</ele>
        <time>2021-07-25T10:23:07.000Z</time>
      </trkpt>
      <trkpt lat="47.14791" lon="-1.64358">
        <ele>74</ele>
        <time>2021-07-25T10:23:09.000Z</time>
      </trkpt>
      <trkpt lat="47.14795" lon="-1.64339">
        <ele>75</ele>
        <time>2021-07-25T10:23:11.000Z</time>
      </trkpt>
      <trkpt lat="47.14801" lon="-1.64319">
        <ele>75</ele>
        <time>2021-07-25T10:23:13.000Z</time>
      </trkpt>
      <trkpt lat="47.14806" lon="-1.643">
        <ele>75</ele>
        <time>2021-07-25T10:23:15.000Z</time>
      </trkpt>
      <trkpt lat="47.14811" lon="-1.64281">
        <ele>75</ele>
        <time>2021-07-25T10:23:17.000Z</time>
      </trkpt>
      <trkpt lat="47.14817" lon="-1.64262">
        <ele>75</ele>
        <time>2021-07-25T10:23:19.000Z</time>
      </trkpt>
      <trkpt lat="47.14822" lon="-1.64243">
        <ele>75</ele>
        <time>2021-07-25T10:23:21.000Z</time>
      </trkpt>
      <trkpt lat="47.14828" lon="-1.64224">
        <ele>75</ele>
        <time>2021-07-25T10:23:23.000Z</time>
      </trkpt>
      <trkpt lat="47.14834" lon="-1.64205">
        <ele>75</ele>
        <time>2021-07-25T10:23:25.000Z</time>
      </trkpt>
      <trkpt lat="47.1484" lon="-1.64186">
        <ele>75</ele>
        <time>2021-07-25T10:23:27.000Z</time>
      </trkpt>
      <trkpt lat="47.14846" lon="-1.64167">
        <ele>75</ele>
        <time>2021-07-25T10:23:29.000Z</time>
      </trkpt>
      <trkpt lat="47.14852" lon="-1.64148">
        <ele>75</ele>
        <time>2021-07-25T10:23:31.000Z</time>
      </trkpt>
      <trkpt lat="47.14858" lon="-1.6413">
        <ele>75</ele>
        <time>2021-07-25T10:23:33.000Z</time>
      </trkpt>
      <trkpt lat="47.14865" lon="-1.64112">
        <ele>75</ele>
        <time>2021-07-25T10:23:35.000Z</time>
      </trkpt>
      <trkpt lat="47.14873" lon="-1.64094">
        <ele>76</ele>
        <time>2021-07-25T10:23:37.000Z</time>
      </trkpt>
      <trkpt lat="47.1488" lon="-1.64076">
        <ele>76</ele>
        <time>2021-07-25T10:23:39.000Z</time>
      </trkpt>
      <trkpt lat="47.14888" lon="-1.64058">
        <ele>76</ele>
        <time>2021-07-25T10:23:41.000Z</time>
      </trkpt>
      <trkpt lat="47.14896" lon="-1.6404">
        <ele>76</ele>
        <time>2021-07-25T10:23:43.000Z</time>
      </trkpt>
      <trkpt lat="47.14905" lon="-1.64023">
        <ele>76</ele>
        <time>2021-07-25T10:23:45.000Z</time>
      </trkpt>
      <trkpt lat="47.14913" lon="-1.64005">
        <ele>75</ele>
        <time>2021-07-25T10:23:47.000Z</time>
      </trkpt>
      <trkpt lat="47.1492" lon="-1.63986">
        <ele>75</ele>
        <time>2021-07-25T10:23:49.000Z</time>
      </trkpt>
      <trkpt lat="47.14929" lon="-1.63969">
        <ele>75</ele>
        <time>2021-07-25T10:23:51.000Z</time>
      </trkpt>
      <trkpt lat="47.14938" lon="-1.63953">
        <ele>75</ele>
        <time>2021-07-25T10:23:53.000Z</time>
      </trkpt>
      <trkpt lat="47.14948" lon="-1.63939">
        <ele>75</ele>
        <time>2021-07-25T10:23:55.000Z</time>
      </trkpt>
      <trkpt lat="47.14958" lon="-1.63924">
        <ele>76</ele>
        <time>2021-07-25T10:23:57.000Z</time>
      </trkpt>
      <trkpt lat="47.14969" lon="-1.63908">
        <ele>75</ele>
        <time>2021-07-25T10:23:59.000Z</time>
      </trkpt>
      <trkpt lat="47.14979" lon="-1.63893">
        <ele>75</ele>
        <time>2021-07-25T10:24:01.000Z</time>
      </trkpt>
      <trkpt lat="47.1499" lon="-1.63878">
        <ele>75</ele>
        <time>2021-07-25T10:24:03.000Z</time>
      </trkpt>
      <trkpt lat="47.15001" lon="-1.63864">
        <ele>75</ele>
        <time>2021-07-25T10:24:05.000Z</time>
      </trkpt>
      <trkpt lat="47.15011" lon="-1.6385">
        <ele>75</ele>
        <time>2021-07-25T10:24:07.000Z</time>
      </trkpt>
      <trkpt lat="47.15022" lon="-1.63835">
        <ele>74</ele>
        <time>2021-07-25T10:24:09.000Z</time>
      </trkpt>
      <trkpt lat="47.15033" lon="-1.63821">
        <ele>74</ele>
        <time>2021-07-25T10:24:11.000Z</time>
      </trkpt>
      <trkpt lat="47.15043" lon="-1.63807">
        <ele>74</ele>
        <time>2021-07-25T10:24:13.000Z</time>
      </trkpt>
      <trkpt lat="47.15053" lon="-1.63793">
        <ele>74</ele>
        <time>2021-07-25T10:24:15.000Z</time>
      </trkpt>
      <trkpt lat="47.15063" lon="-1.63781">
        <ele>74</ele>
        <time>2021-07-25T10:24:17.000Z</time>
      </trkpt>
      <trkpt lat="47.15074" lon="-1.63767">
        <ele>74</ele>
        <time>2021-07-25T10:24:19.000Z</time>
      </trkpt>
      <trkpt lat="47.15085" lon="-1.63754">
        <ele>74</ele>
        <time>2021-07-25T10:24:21.000Z</time>
      </trkpt>
      <trkpt lat="47.15097" lon="-1.63741">
        <ele>74</ele>
        <time>2021-07-25T10:24:23.000Z</time>
      </trkpt>
      <trkpt lat="47.15108" lon="-1.63729">
        <ele>74</ele>
        <time>2021-07-25T10:24:25.000Z</time>
      </trkpt>
      <trkpt lat="47.15119" lon="-1.63716">
        <ele>74</ele>
        <time>2021-07-25T10:24:27.000Z</time>
      </trkpt>
      <trkpt lat="47.15131" lon="-1.63704">
        <ele>74</ele>
        <time>2021-07-25T10:24:29.000Z</time>
      </trkpt>
      <trkpt lat="47.15143" lon="-1.63694">
        <ele>75</ele>
        <time>2021-07-25T10:24:31.000Z</time>
      </trkpt>
      <trkpt lat="47.15155" lon="-1.63682">
        <ele>75</ele>
        <time>2021-07-25T10:24:33.000Z</time>
      </trkpt>
      <trkpt lat="47.15168" lon="-1.63671">
        <ele>75</ele>
        <time>2021-07-25T10:24:35.000Z</time>
      </trkpt>
      <trkpt lat="47.1518" lon="-1.63659">
        <ele>74</ele>
        <time>2021-07-25T10:24:37.000Z</time>
      </trkpt>
      <trkpt lat="47.15192" lon="-1.63648">
        <ele>74</ele>
        <time>2021-07-25T10:24:39.000Z</time>
      </trkpt>
      <trkpt lat="47.15204" lon="-1.63638">
        <ele>74</ele>
        <time>2021-07-25T10:24:41.000Z</time>
      </trkpt>
      <trkpt lat="47.15216" lon="-1.63627">
        <ele>74</ele>
        <time>2021-07-25T10:24:43.000Z</time>
      </trkpt>
      <trkpt lat="47.15227" lon="-1.63616">
        <ele>75</ele>
        <time>2021-07-25T10:24:45.000Z</time>
      </trkpt>
      <trkpt lat="47.15238" lon="-1.63605">
        <ele>75</ele>
        <time>2021-07-25T10:24:47.000Z</time>
      </trkpt>
      <trkpt lat="47.1525" lon="-1.63594">
        <ele>75</ele>
        <time>2021-07-25T10:24:49.000Z</time>
      </trkpt>
      <trkpt lat="47.15262" lon="-1.63584">
        <ele>75</ele>
        <time>2021-07-25T10:24:51.000Z</time>
      </trkpt>
      <trkpt lat="47.15274" lon="-1.63573">
        <ele>75</ele>
        <time>2021-07-25T10:24:53.000Z</time>
      </trkpt>
      <trkpt lat="47.15286" lon="-1.63562">
        <ele>75</ele>
        <time>2021-07-25T10:24:55.000Z</time>
      </trkpt>
      <trkpt lat="47.15298" lon="-1.63551">
        <ele>75</ele>
        <time>2021-07-25T10:24:57.000Z</time>
      </trkpt>
      <trkpt lat="47.15309" lon="-1.6354">
        <ele>75</ele>
        <time>2021-07-25T10:24:59.000Z</time>
      </trkpt>
      <trkpt lat="47.15321" lon="-1.63529">
        <ele>75</ele>
        <time>2021-07-25T10:25:01.000Z</time>
      </trkpt>
      <trkpt lat="47.15333" lon="-1.63519">
        <ele>75</ele>
        <time>2021-07-25T10:25:03.000Z</time>
      </trkpt>
      <trkpt lat="47.15344" lon="-1.63508">
        <ele>75</ele>
        <time>2021-07-25T10:25:05.000Z</time>
      </trkpt>
      <trkpt lat="47.15356" lon="-1.63497">
        <ele>75</ele>
        <time>2021-07-25T10:25:07.000Z</time>
      </trkpt>
      <trkpt lat="47.15368" lon="-1.63488">
        <ele>74</ele>
        <time>2021-07-25T10:25:09.000Z</time>
      </trkpt>
      <trkpt lat="47.1538" lon="-1.63477">
        <ele>74</ele>
        <time>2021-07-25T10:25:11.000Z</time>
      </trkpt>
      <trkpt lat="47.15391" lon="-1.63467">
        <ele>74</ele>
        <time>2021-07-25T10:25:13.000Z</time>
      </trkpt>
      <trkpt lat="47.15403" lon="-1.63457">
        <ele>74</ele>
        <time>2021-07-25T10:25:15.000Z</time>
      </trkpt>
      <trkpt lat="47.15414" lon="-1.63447">
        <ele>74</ele>
        <time>2021-07-25T10:25:17.000Z</time>
      </trkpt>
      <trkpt lat="47.15426" lon="-1.63437">
        <ele>73</ele>
        <time>2021-07-25T10:25:19.000Z</time>
      </trkpt>
      <trkpt lat="47.15438" lon="-1.63425">
        <ele>73</ele>
        <time>2021-07-25T10:25:21.000Z</time>
      </trkpt>
      <trkpt lat="47.15449" lon="-1.63413">
        <ele>73</ele>
        <time>2021-07-25T10:25:23.000Z</time>
      </trkpt>
      <trkpt lat="47.15462" lon="-1.63401">
        <ele>72</ele>
        <time>2021-07-25T10:25:25.000Z</time>
      </trkpt>
      <trkpt lat="47.15476" lon="-1.63391">
        <ele>72</ele>
        <time>2021-07-25T10:25:27.000Z</time>
      </trkpt>
      <trkpt lat="47.1549" lon="-1.63382">
        <ele>72</ele>
        <time>2021-07-25T10:25:29.000Z</time>
      </trkpt>
      <trkpt lat="47.15503" lon="-1.63372">
        <ele>71</ele>
        <time>2021-07-25T10:25:31.000Z</time>
      </trkpt>
      <trkpt lat="47.15516" lon="-1.63361">
        <ele>71</ele>
        <time>2021-07-25T10:25:33.000Z</time>
      </trkpt>
      <trkpt lat="47.15529" lon="-1.63349">
        <ele>70</ele>
        <time>2021-07-25T10:25:35.000Z</time>
      </trkpt>
      <trkpt lat="47.15543" lon="-1.63337">
        <ele>70</ele>
        <time>2021-07-25T10:25:37.000Z</time>
      </trkpt>
      <trkpt lat="47.15556" lon="-1.63325">
        <ele>69</ele>
        <time>2021-07-25T10:25:39.000Z</time>
      </trkpt>
      <trkpt lat="47.1557" lon="-1.63313">
        <ele>68</ele>
        <time>2021-07-25T10:25:41.000Z</time>
      </trkpt>
      <trkpt lat="47.15584" lon="-1.633">
        <ele>68</ele>
        <time>2021-07-25T10:25:43.000Z</time>
      </trkpt>
      <trkpt lat="47.15599" lon="-1.63287">
        <ele>67</ele>
        <time>2021-07-25T10:25:45.000Z</time>
      </trkpt>
      <trkpt lat="47.15612" lon="-1.63275">
        <ele>67</ele>
        <time>2021-07-25T10:25:47.000Z</time>
      </trkpt>
      <trkpt lat="47.15627" lon="-1.63262">
        <ele>68</ele>
        <time>2021-07-25T10:25:49.000Z</time>
      </trkpt>
      <trkpt lat="47.1564" lon="-1.63251">
        <ele>68</ele>
        <time>2021-07-25T10:25:51.000Z</time>
      </trkpt>
      <trkpt lat="47.15653" lon="-1.63239">
        <ele>69</ele>
        <time>2021-07-25T10:25:53.000Z</time>
      </trkpt>
      <trkpt lat="47.15666" lon="-1.63228">
        <ele>69</ele>
        <time>2021-07-25T10:25:55.000Z</time>
      </trkpt>
      <trkpt lat="47.15678" lon="-1.63217">
        <ele>70</ele>
        <time>2021-07-25T10:25:57.000Z</time>
      </trkpt>
      <trkpt lat="47.15692" lon="-1.63205">
        <ele>70</ele>
        <time>2021-07-25T10:25:59.000Z</time>
      </trkpt>
      <trkpt lat="47.15705" lon="-1.63194">
        <ele>69</ele>
        <time>2021-07-25T10:26:01.000Z</time>
      </trkpt>
      <trkpt lat="47.15717" lon="-1.63183">
        <ele>69</ele>
        <time>2021-07-25T10:26:03.000Z</time>
      </trkpt>
      <trkpt lat="47.1573" lon="-1.63172">
        <ele>68</ele>
        <time>2021-07-25T10:26:05.000Z</time>
      </trkpt>
      <trkpt lat="47.15741" lon="-1.63159">
        <ele>68</ele>
        <time>2021-07-25T10:26:07.000Z</time>
      </trkpt>
      <trkpt lat="47.15751" lon="-1.63147">
        <ele>68</ele>
        <time>2021-07-25T10:26:09.000Z</time>
      </trkpt>
      <trkpt lat="47.15764" lon="-1.63141">
        <ele>67</ele>
        <time>2021-07-25T10:26:11.000Z</time>
      </trkpt>
      <trkpt lat="47.15776" lon="-1.63133">
        <ele>66</ele>
        <time>2021-07-25T10:26:13.000Z</time>
      </trkpt>
      <trkpt lat="47.15787" lon="-1.63122">
        <ele>66</ele>
        <time>2021-07-25T10:26:15.000Z</time>
      </trkpt>
      <trkpt lat="47.158" lon="-1.63111">
        <ele>65</ele>
        <time>2021-07-25T10:26:17.000Z</time>
      </trkpt>
      <trkpt lat="47.15812" lon="-1.631">
        <ele>65</ele>
        <time>2021-07-25T10:26:19.000Z</time>
      </trkpt>
      <trkpt lat="47.15824" lon="-1.63089">
        <ele>64</ele>
        <time>2021-07-25T10:26:21.000Z</time>
      </trkpt>
      <trkpt lat="47.15837" lon="-1.63078">
        <ele>63</ele>
        <time>2021-07-25T10:26:23.000Z</time>
      </trkpt>
      <trkpt lat="47.1585" lon="-1.63066">
        <ele>63</ele>
        <time>2021-07-25T10:26:25.000Z</time>
      </trkpt>
      <trkpt lat="47.15864" lon="-1.63054">
        <ele>62</ele>
        <time>2021-07-25T10:26:27.000Z</time>
      </trkpt>
      <trkpt lat="47.15877" lon="-1.63043">
        <ele>62</ele>
        <time>2021-07-25T10:26:29.000Z</time>
      </trkpt>
      <trkpt lat="47.1589" lon="-1.6303">
        <ele>63</ele>
        <time>2021-07-25T10:26:31.000Z</time>
      </trkpt>
      <trkpt lat="47.15909" lon="-1.63012">
        <ele>64</ele>
        <time>2021-07-25T10:26:34.000Z</time>
      </trkpt>
      <trkpt lat="47.15922" lon="-1.63001">
        <ele>64</ele>
        <time>2021-07-25T10:26:36.000Z</time>
      </trkpt>
      <trkpt lat="47.1594" lon="-1.62985">
        <ele>65</ele>
        <time>2021-07-25T10:26:39.000Z</time>
      </trkpt>
      <trkpt lat="47.15952" lon="-1.62974">
        <ele>66</ele>
        <time>2021-07-25T10:26:41.000Z</time>
      </trkpt>
      <trkpt lat="47.15964" lon="-1.62963">
        <ele>66</ele>
        <time>2021-07-25T10:26:43.000Z</time>
      </trkpt>
      <trkpt lat="47.15976" lon="-1.62952">
        <ele>67</ele>
        <time>2021-07-25T10:26:45.000Z</time>
      </trkpt>
      <trkpt lat="47.15987" lon="-1.62941">
        <ele>67</ele>
        <time>2021-07-25T10:26:47.000Z</time>
      </trkpt>
      <trkpt lat="47.16" lon="-1.62931">
        <ele>68</ele>
        <time>2021-07-25T10:26:49.000Z</time>
      </trkpt>
      <trkpt lat="47.16012" lon="-1.6292">
        <ele>67</ele>
        <time>2021-07-25T10:26:51.000Z</time>
      </trkpt>
      <trkpt lat="47.16024" lon="-1.62909">
        <ele>67</ele>
        <time>2021-07-25T10:26:53.000Z</time>
      </trkpt>
      <trkpt lat="47.16035" lon="-1.62899">
        <ele>68</ele>
        <time>2021-07-25T10:26:55.000Z</time>
      </trkpt>
      <trkpt lat="47.16047" lon="-1.62889">
        <ele>69</ele>
        <time>2021-07-25T10:26:57.000Z</time>
      </trkpt>
      <trkpt lat="47.16057" lon="-1.6288">
        <ele>69</ele>
        <time>2021-07-25T10:26:59.000Z</time>
      </trkpt>
      <trkpt lat="47.16068" lon="-1.62871">
        <ele>70</ele>
        <time>2021-07-25T10:27:01.000Z</time>
      </trkpt>
      <trkpt lat="47.16078" lon="-1.62862">
        <ele>71</ele>
        <time>2021-07-25T10:27:03.000Z</time>
      </trkpt>
      <trkpt lat="47.16088" lon="-1.62852">
        <ele>71</ele>
        <time>2021-07-25T10:27:05.000Z</time>
      </trkpt>
      <trkpt lat="47.16098" lon="-1.62844">
        <ele>72</ele>
        <time>2021-07-25T10:27:07.000Z</time>
      </trkpt>
      <trkpt lat="47.16108" lon="-1.62835">
        <ele>72</ele>
        <time>2021-07-25T10:27:09.000Z</time>
      </trkpt>
      <trkpt lat="47.16118" lon="-1.62826">
        <ele>73</ele>
        <time>2021-07-25T10:27:11.000Z</time>
      </trkpt>
      <trkpt lat="47.16128" lon="-1.62817">
        <ele>73</ele>
        <time>2021-07-25T10:27:13.000Z</time>
      </trkpt>
      <trkpt lat="47.16139" lon="-1.62809">
        <ele>73</ele>
        <time>2021-07-25T10:27:15.000Z</time>
      </trkpt>
      <trkpt lat="47.16149" lon="-1.62799">
        <ele>73</ele>
        <time>2021-07-25T10:27:17.000Z</time>
      </trkpt>
      <trkpt lat="47.1616" lon="-1.6279">
        <ele>74</ele>
        <time>2021-07-25T10:27:19.000Z</time>
      </trkpt>
      <trkpt lat="47.1617" lon="-1.62781">
        <ele>74</ele>
        <time>2021-07-25T10:27:21.000Z</time>
      </trkpt>
      <trkpt lat="47.16179" lon="-1.62771">
        <ele>74</ele>
        <time>2021-07-25T10:27:23.000Z</time>
      </trkpt>
      <trkpt lat="47.16189" lon="-1.62762">
        <ele>74</ele>
        <time>2021-07-25T10:27:25.000Z</time>
      </trkpt>
      <trkpt lat="47.162" lon="-1.62752">
        <ele>74</ele>
        <time>2021-07-25T10:27:27.000Z</time>
      </trkpt>
      <trkpt lat="47.1621" lon="-1.62744">
        <ele>74</ele>
        <time>2021-07-25T10:27:29.000Z</time>
      </trkpt>
      <trkpt lat="47.1622" lon="-1.62735">
        <ele>75</ele>
        <time>2021-07-25T10:27:31.000Z</time>
      </trkpt>
      <trkpt lat="47.1623" lon="-1.62727">
        <ele>75</ele>
        <time>2021-07-25T10:27:33.000Z</time>
      </trkpt>
      <trkpt lat="47.1624" lon="-1.62719">
        <ele>75</ele>
        <time>2021-07-25T10:27:35.000Z</time>
      </trkpt>
      <trkpt lat="47.1625" lon="-1.62711">
        <ele>75</ele>
        <time>2021-07-25T10:27:37.000Z</time>
      </trkpt>
      <trkpt lat="47.1626" lon="-1.62703">
        <ele>75</ele>
        <time>2021-07-25T10:27:39.000Z</time>
      </trkpt>
      <trkpt lat="47.16269" lon="-1.62696">
        <ele>75</ele>
        <time>2021-07-25T10:27:41.000Z</time>
      </trkpt>
      <trkpt lat="47.16276" lon="-1.62689">
        <ele>75</ele>
        <time>2021-07-25T10:27:43.000Z</time>
      </trkpt>
      <trkpt lat="47.16276" lon="-1.62674">
        <ele>75</ele>
        <time>2021-07-25T10:27:45.000Z</time>
      </trkpt>
      <trkpt lat="47.16277" lon="-1.62657">
        <ele>76</ele>
        <time>2021-07-25T10:27:47.000Z</time>
      </trkpt>
      <trkpt lat="47.16279" lon="-1.6264">
        <ele>76</ele>
        <time>2021-07-25T10:27:49.000Z</time>
      </trkpt>
      <trkpt lat="47.16281" lon="-1.62624">
        <ele>76</ele>
        <time>2021-07-25T10:27:51.000Z</time>
      </trkpt>
      <trkpt lat="47.16285" lon="-1.62608">
        <ele>76</ele>
        <time>2021-07-25T10:27:53.000Z</time>
      </trkpt>
      <trkpt lat="47.1629" lon="-1.62593">
        <ele>77</ele>
        <time>2021-07-25T10:27:55.000Z</time>
      </trkpt>
      <trkpt lat="47.16297" lon="-1.6258">
        <ele>77</ele>
        <time>2021-07-25T10:27:57.000Z</time>
      </trkpt>
      <trkpt lat="47.16307" lon="-1.62572">
        <ele>76</ele>
        <time>2021-07-25T10:27:59.000Z</time>
      </trkpt>
      <trkpt lat="47.16319" lon="-1.62569">
        <ele>76</ele>
        <time>2021-07-25T10:28:01.000Z</time>
      </trkpt>
      <trkpt lat="47.16331" lon="-1.62571">
        <ele>76</ele>
        <time>2021-07-25T10:28:03.000Z</time>
      </trkpt>
      <trkpt lat="47.16342" lon="-1.62576">
        <ele>76</ele>
        <time>2021-07-25T10:28:05.000Z</time>
      </trkpt>
      <trkpt lat="47.16353" lon="-1.6258">
        <ele>77</ele>
        <time>2021-07-25T10:28:07.000Z</time>
      </trkpt>
      <trkpt lat="47.16364" lon="-1.62582">
        <ele>77</ele>
        <time>2021-07-25T10:28:09.000Z</time>
      </trkpt>
      <trkpt lat="47.16376" lon="-1.62583">
        <ele>77</ele>
        <time>2021-07-25T10:28:11.000Z</time>
      </trkpt>
      <trkpt lat="47.16388" lon="-1.6258">
        <ele>77</ele>
        <time>2021-07-25T10:28:13.000Z</time>
      </trkpt>
      <trkpt lat="47.16399" lon="-1.62572">
        <ele>77</ele>
        <time>2021-07-25T10:28:15.000Z</time>
      </trkpt>
      <trkpt lat="47.16409" lon="-1.62562">
        <ele>77</ele>
        <time>2021-07-25T10:28:17.000Z</time>
      </trkpt>
      <trkpt lat="47.16419" lon="-1.62553">
        <ele>78</ele>
        <time>2021-07-25T10:28:19.000Z</time>
      </trkpt>
      <trkpt lat="47.16428" lon="-1.62543">
        <ele>78</ele>
        <time>2021-07-25T10:28:21.000Z</time>
      </trkpt>
      <trkpt lat="47.16439" lon="-1.62539">
        <ele>78</ele>
        <time>2021-07-25T10:28:23.000Z</time>
      </trkpt>
      <trkpt lat="47.16451" lon="-1.62541">
        <ele>78</ele>
        <time>2021-07-25T10:28:25.000Z</time>
      </trkpt>
      <trkpt lat="47.16462" lon="-1.62545">
        <ele>78</ele>
        <time>2021-07-25T10:28:27.000Z</time>
      </trkpt>
      <trkpt lat="47.16474" lon="-1.62547">
        <ele>78</ele>
        <time>2021-07-25T10:28:29.000Z</time>
      </trkpt>
      <trkpt lat="47.16485" lon="-1.62551">
        <ele>78</ele>
        <time>2021-07-25T10:28:31.000Z</time>
      </trkpt>
      <trkpt lat="47.16496" lon="-1.62554">
        <ele>77</ele>
        <time>2021-07-25T10:28:33.000Z</time>
      </trkpt>
      <trkpt lat="47.16508" lon="-1.62558">
        <ele>77</ele>
        <time>2021-07-25T10:28:35.000Z</time>
      </trkpt>
      <trkpt lat="47.1652" lon="-1.62561">
        <ele>77</ele>
        <time>2021-07-25T10:28:37.000Z</time>
      </trkpt>
      <trkpt lat="47.16531" lon="-1.62563">
        <ele>77</ele>
        <time>2021-07-25T10:28:39.000Z</time>
      </trkpt>
      <trkpt lat="47.16541" lon="-1.62556">
        <ele>77</ele>
        <time>2021-07-25T10:28:41.000Z</time>
      </trkpt>
      <trkpt lat="47.1655" lon="-1.62545">
        <ele>77</ele>
        <time>2021-07-25T10:28:43.000Z</time>
      </trkpt>
      <trkpt lat="47.16559" lon="-1.62532">
        <ele>77</ele>
        <time>2021-07-25T10:28:45.000Z</time>
      </trkpt>
      <trkpt lat="47.16567" lon="-1.62517">
        <ele>77</ele>
        <time>2021-07-25T10:28:47.000Z</time>
      </trkpt>
      <trkpt lat="47.16574" lon="-1.62501">
        <ele>76</ele>
        <time>2021-07-25T10:28:49.000Z</time>
      </trkpt>
      <trkpt lat="47.16581" lon="-1.62483">
        <ele>76</ele>
        <time>2021-07-25T10:28:51.000Z</time>
      </trkpt>
      <trkpt lat="47.16588" lon="-1.62465">
        <ele>76</ele>
        <time>2021-07-25T10:28:53.000Z</time>
      </trkpt>
      <trkpt lat="47.16595" lon="-1.62447">
        <ele>75</ele>
        <time>2021-07-25T10:28:55.000Z</time>
      </trkpt>
      <trkpt lat="47.16604" lon="-1.6243">
        <ele>74</ele>
        <time>2021-07-25T10:28:57.000Z</time>
      </trkpt>
      <trkpt lat="47.16613" lon="-1.62413">
        <ele>74</ele>
        <time>2021-07-25T10:28:59.000Z</time>
      </trkpt>
      <trkpt lat="47.16622" lon="-1.62397">
        <ele>73</ele>
        <time>2021-07-25T10:29:01.000Z</time>
      </trkpt>
      <trkpt lat="47.16633" lon="-1.62382">
        <ele>73</ele>
        <time>2021-07-25T10:29:03.000Z</time>
      </trkpt>
      <trkpt lat="47.16645" lon="-1.6237">
        <ele>73</ele>
        <time>2021-07-25T10:29:05.000Z</time>
      </trkpt>
      <trkpt lat="47.16658" lon="-1.6236">
        <ele>73</ele>
        <time>2021-07-25T10:29:07.000Z</time>
      </trkpt>
      <trkpt lat="47.16671" lon="-1.62354">
        <ele>73</ele>
        <time>2021-07-25T10:29:09.000Z</time>
      </trkpt>
      <trkpt lat="47.16685" lon="-1.62357">
        <ele>74</ele>
        <time>2021-07-25T10:29:11.000Z</time>
      </trkpt>
      <trkpt lat="47.16698" lon="-1.6237">
        <ele>74</ele>
        <time>2021-07-25T10:29:13.000Z</time>
      </trkpt>
      <trkpt lat="47.16709" lon="-1.62385">
        <ele>73</ele>
        <time>2021-07-25T10:29:15.000Z</time>
      </trkpt>
      <trkpt lat="47.16718" lon="-1.624">
        <ele>73</ele>
        <time>2021-07-25T10:29:17.000Z</time>
      </trkpt>
      <trkpt lat="47.16726" lon="-1.62409">
        <ele>73</ele>
        <time>2021-07-25T10:29:19.000Z</time>
      </trkpt>
      <trkpt lat="47.1673" lon="-1.62423">
        <ele>72</ele>
        <time>2021-07-25T10:29:21.000Z</time>
      </trkpt>
      <trkpt lat="47.16728" lon="-1.62439">
        <ele>72</ele>
        <time>2021-07-25T10:29:23.000Z</time>
      </trkpt>
      <trkpt lat="47.16723" lon="-1.62455">
        <ele>71</ele>
        <time>2021-07-25T10:29:25.000Z</time>
      </trkpt>
      <trkpt lat="47.16719" lon="-1.62471">
        <ele>70</ele>
        <time>2021-07-25T10:29:27.000Z</time>
      </trkpt>
      <trkpt lat="47.16716" lon="-1.62486">
        <ele>70</ele>
        <time>2021-07-25T10:29:29.000Z</time>
      </trkpt>
      <trkpt lat="47.16727" lon="-1.62497">
        <ele>71</ele>
        <time>2021-07-25T10:29:32.000Z</time>
      </trkpt>
      <trkpt lat="47.16738" lon="-1.62503">
        <ele>71</ele>
        <time>2021-07-25T10:29:34.000Z</time>
      </trkpt>
      <trkpt lat="47.1675" lon="-1.62507">
        <ele>72</ele>
        <time>2021-07-25T10:29:36.000Z</time>
      </trkpt>
      <trkpt lat="47.16761" lon="-1.62513">
        <ele>72</ele>
        <time>2021-07-25T10:29:38.000Z</time>
      </trkpt>
      <trkpt lat="47.16772" lon="-1.6252">
        <ele>72</ele>
        <time>2021-07-25T10:29:40.000Z</time>
      </trkpt>
      <trkpt lat="47.16783" lon="-1.62527">
        <ele>73</ele>
        <time>2021-07-25T10:29:42.000Z</time>
      </trkpt>
      <trkpt lat="47.16793" lon="-1.62535">
        <ele>73</ele>
        <time>2021-07-25T10:29:44.000Z</time>
      </trkpt>
      <trkpt lat="47.16803" lon="-1.62542">
        <ele>73</ele>
        <time>2021-07-25T10:29:46.000Z</time>
      </trkpt>
      <trkpt lat="47.16812" lon="-1.62549">
        <ele>73</ele>
        <time>2021-07-25T10:29:48.000Z</time>
      </trkpt>
      <trkpt lat="47.16822" lon="-1.62559">
        <ele>73</ele>
        <time>2021-07-25T10:29:50.000Z</time>
      </trkpt>
      <trkpt lat="47.1683" lon="-1.62571">
        <ele>72</ele>
        <time>2021-07-25T10:29:52.000Z</time>
      </trkpt>
      <trkpt lat="47.16831" lon="-1.62589">
        <ele>73</ele>
        <time>2021-07-25T10:29:54.000Z</time>
      </trkpt>
      <trkpt lat="47.16826" lon="-1.62604">
        <ele>74</ele>
        <time>2021-07-25T10:29:56.000Z</time>
      </trkpt>
      <trkpt lat="47.16819" lon="-1.62616">
        <ele>75</ele>
        <time>2021-07-25T10:29:58.000Z</time>
      </trkpt>
      <trkpt lat="47.1681" lon="-1.62628">
        <ele>75</ele>
        <time>2021-07-25T10:30:00.000Z</time>
      </trkpt>
      <trkpt lat="47.16802" lon="-1.62639">
        <ele>75</ele>
        <time>2021-07-25T10:30:02.000Z</time>
      </trkpt>
      <trkpt lat="47.16795" lon="-1.6265">
        <ele>75</ele>
        <time>2021-07-25T10:30:04.000Z</time>
      </trkpt>
      <trkpt lat="47.16787" lon="-1.62664">
        <ele>75</ele>
        <time>2021-07-25T10:30:07.000Z</time>
      </trkpt>
      <trkpt lat="47.16778" lon="-1.62659">
        <ele>75</ele>
        <time>2021-07-25T10:30:10.000Z</time>
      </trkpt>
    </trkseg>
  </trk>
</gpx>